<?xml version="1.0" encoding="UTF-8" standalone="no" ?>
<gpx xmlns="http://www.topografix.com/GPX/1/1" xmlns:xsi="http://www.w3.org/2001/XMLSchema-instance" xsi:schemaLocation="http://www.topografix.com/GPX/1/1 http://www.topografix.com/GPX/1/1/gpx.xsd" version="1.1" creator="VisuGPX - https://www.visugpx.com">
  <metadata>
    <name>Sortie à vélo l'après-midi | Sortie à vélo | Strava</name>
  </metadata>
  <trk>
    <name><![CDATA[Sortie à vélo l'après-midi | Sortie à vélo | Strava]]></name>
    <trkseg>
      <trkpt lat="47.68235" lon="-2.73747">
        <ele>28</ele>
        <time>2015-12-06T13:54:52.000Z</time>
      </trkpt>
      <trkpt lat="47.6823" lon="-2.73741">
        <ele>27.7</ele>
        <time>2015-12-06T13:54:53.000Z</time>
      </trkpt>
      <trkpt lat="47.68225" lon="-2.73735">
        <ele>27.5</ele>
        <time>2015-12-06T13:54:54.000Z</time>
      </trkpt>
      <trkpt lat="47.6822" lon="-2.73729">
        <ele>27.3</ele>
        <time>2015-12-06T13:54:55.000Z</time>
      </trkpt>
      <trkpt lat="47.68215" lon="-2.73722">
        <ele>27.1</ele>
        <time>2015-12-06T13:54:56.000Z</time>
      </trkpt>
      <trkpt lat="47.68211" lon="-2.73714">
        <ele>27</ele>
        <time>2015-12-06T13:54:57.000Z</time>
      </trkpt>
      <trkpt lat="47.68207" lon="-2.73707">
        <ele>27</ele>
        <time>2015-12-06T13:54:58.000Z</time>
      </trkpt>
      <trkpt lat="47.68202" lon="-2.73701">
        <ele>27.2</ele>
        <time>2015-12-06T13:54:59.000Z</time>
      </trkpt>
      <trkpt lat="47.68196" lon="-2.73697">
        <ele>27.2</ele>
        <time>2015-12-06T13:55:00.000Z</time>
      </trkpt>
      <trkpt lat="47.68189" lon="-2.73695">
        <ele>27.1</ele>
        <time>2015-12-06T13:55:01.000Z</time>
      </trkpt>
      <trkpt lat="47.68183" lon="-2.73693">
        <ele>27</ele>
        <time>2015-12-06T13:55:02.000Z</time>
      </trkpt>
      <trkpt lat="47.68176" lon="-2.73691">
        <ele>26.9</ele>
        <time>2015-12-06T13:55:03.000Z</time>
      </trkpt>
      <trkpt lat="47.68169" lon="-2.73689">
        <ele>26.8</ele>
        <time>2015-12-06T13:55:04.000Z</time>
      </trkpt>
      <trkpt lat="47.68163" lon="-2.73687">
        <ele>26.6</ele>
        <time>2015-12-06T13:55:05.000Z</time>
      </trkpt>
      <trkpt lat="47.68156" lon="-2.73685">
        <ele>26.5</ele>
        <time>2015-12-06T13:55:06.000Z</time>
      </trkpt>
      <trkpt lat="47.6815" lon="-2.73682">
        <ele>26.4</ele>
        <time>2015-12-06T13:55:07.000Z</time>
      </trkpt>
      <trkpt lat="47.68143" lon="-2.73679">
        <ele>26.3</ele>
        <time>2015-12-06T13:55:08.000Z</time>
      </trkpt>
      <trkpt lat="47.68137" lon="-2.73676">
        <ele>26.2</ele>
        <time>2015-12-06T13:55:09.000Z</time>
      </trkpt>
      <trkpt lat="47.6813" lon="-2.73672">
        <ele>26.1</ele>
        <time>2015-12-06T13:55:10.000Z</time>
      </trkpt>
      <trkpt lat="47.68124" lon="-2.73668">
        <ele>26</ele>
        <time>2015-12-06T13:55:11.000Z</time>
      </trkpt>
      <trkpt lat="47.68118" lon="-2.73664">
        <ele>26</ele>
        <time>2015-12-06T13:55:12.000Z</time>
      </trkpt>
      <trkpt lat="47.68113" lon="-2.7366">
        <ele>26</ele>
        <time>2015-12-06T13:55:13.000Z</time>
      </trkpt>
      <trkpt lat="47.68107" lon="-2.73656">
        <ele>26</ele>
        <time>2015-12-06T13:55:14.000Z</time>
      </trkpt>
      <trkpt lat="47.68102" lon="-2.73651">
        <ele>26</ele>
        <time>2015-12-06T13:55:15.000Z</time>
      </trkpt>
      <trkpt lat="47.68096" lon="-2.73645">
        <ele>26</ele>
        <time>2015-12-06T13:55:16.000Z</time>
      </trkpt>
      <trkpt lat="47.68091" lon="-2.73639">
        <ele>26</ele>
        <time>2015-12-06T13:55:17.000Z</time>
      </trkpt>
      <trkpt lat="47.68086" lon="-2.73633">
        <ele>26</ele>
        <time>2015-12-06T13:55:18.000Z</time>
      </trkpt>
      <trkpt lat="47.68081" lon="-2.73626">
        <ele>25.9</ele>
        <time>2015-12-06T13:55:19.000Z</time>
      </trkpt>
      <trkpt lat="47.68076" lon="-2.7362">
        <ele>25.9</ele>
        <time>2015-12-06T13:55:20.000Z</time>
      </trkpt>
      <trkpt lat="47.68071" lon="-2.73612">
        <ele>25.8</ele>
        <time>2015-12-06T13:55:21.000Z</time>
      </trkpt>
      <trkpt lat="47.68065" lon="-2.73605">
        <ele>25.7</ele>
        <time>2015-12-06T13:55:22.000Z</time>
      </trkpt>
      <trkpt lat="47.6806" lon="-2.73598">
        <ele>25.7</ele>
        <time>2015-12-06T13:55:23.000Z</time>
      </trkpt>
      <trkpt lat="47.68055" lon="-2.73591">
        <ele>25.7</ele>
        <time>2015-12-06T13:55:24.000Z</time>
      </trkpt>
      <trkpt lat="47.68049" lon="-2.73584">
        <ele>25.6</ele>
        <time>2015-12-06T13:55:25.000Z</time>
      </trkpt>
      <trkpt lat="47.68044" lon="-2.73577">
        <ele>25.6</ele>
        <time>2015-12-06T13:55:26.000Z</time>
      </trkpt>
      <trkpt lat="47.68039" lon="-2.73571">
        <ele>25.6</ele>
        <time>2015-12-06T13:55:27.000Z</time>
      </trkpt>
      <trkpt lat="47.68034" lon="-2.73564">
        <ele>25.5</ele>
        <time>2015-12-06T13:55:28.000Z</time>
      </trkpt>
      <trkpt lat="47.68028" lon="-2.73558">
        <ele>25.4</ele>
        <time>2015-12-06T13:55:29.000Z</time>
      </trkpt>
      <trkpt lat="47.68022" lon="-2.73553">
        <ele>25.2</ele>
        <time>2015-12-06T13:55:30.000Z</time>
      </trkpt>
      <trkpt lat="47.68017" lon="-2.73548">
        <ele>25</ele>
        <time>2015-12-06T13:55:31.000Z</time>
      </trkpt>
      <trkpt lat="47.68011" lon="-2.73543">
        <ele>24.9</ele>
        <time>2015-12-06T13:55:32.000Z</time>
      </trkpt>
      <trkpt lat="47.68004" lon="-2.7354">
        <ele>24.7</ele>
        <time>2015-12-06T13:55:33.000Z</time>
      </trkpt>
      <trkpt lat="47.67997" lon="-2.73537">
        <ele>24.5</ele>
        <time>2015-12-06T13:55:34.000Z</time>
      </trkpt>
      <trkpt lat="47.6799" lon="-2.73534">
        <ele>24.2</ele>
        <time>2015-12-06T13:55:35.000Z</time>
      </trkpt>
      <trkpt lat="47.67983" lon="-2.73531">
        <ele>24</ele>
        <time>2015-12-06T13:55:36.000Z</time>
      </trkpt>
      <trkpt lat="47.67976" lon="-2.73528">
        <ele>23.8</ele>
        <time>2015-12-06T13:55:37.000Z</time>
      </trkpt>
      <trkpt lat="47.67969" lon="-2.73525">
        <ele>23.6</ele>
        <time>2015-12-06T13:55:38.000Z</time>
      </trkpt>
      <trkpt lat="47.67962" lon="-2.73523">
        <ele>23.3</ele>
        <time>2015-12-06T13:55:39.000Z</time>
      </trkpt>
      <trkpt lat="47.67955" lon="-2.73521">
        <ele>23.3</ele>
        <time>2015-12-06T13:55:40.000Z</time>
      </trkpt>
      <trkpt lat="47.67948" lon="-2.73518">
        <ele>23.5</ele>
        <time>2015-12-06T13:55:41.000Z</time>
      </trkpt>
      <trkpt lat="47.67941" lon="-2.73516">
        <ele>23.7</ele>
        <time>2015-12-06T13:55:42.000Z</time>
      </trkpt>
      <trkpt lat="47.67934" lon="-2.73513">
        <ele>23.9</ele>
        <time>2015-12-06T13:55:43.000Z</time>
      </trkpt>
      <trkpt lat="47.67927" lon="-2.7351">
        <ele>24.1</ele>
        <time>2015-12-06T13:55:44.000Z</time>
      </trkpt>
      <trkpt lat="47.6792" lon="-2.73506">
        <ele>24.3</ele>
        <time>2015-12-06T13:55:45.000Z</time>
      </trkpt>
      <trkpt lat="47.67914" lon="-2.73502">
        <ele>24.5</ele>
        <time>2015-12-06T13:55:46.000Z</time>
      </trkpt>
      <trkpt lat="47.67907" lon="-2.73498">
        <ele>24.8</ele>
        <time>2015-12-06T13:55:47.000Z</time>
      </trkpt>
      <trkpt lat="47.67901" lon="-2.73493">
        <ele>25</ele>
        <time>2015-12-06T13:55:48.000Z</time>
      </trkpt>
      <trkpt lat="47.67895" lon="-2.73488">
        <ele>25.2</ele>
        <time>2015-12-06T13:55:49.000Z</time>
      </trkpt>
      <trkpt lat="47.6789" lon="-2.73482">
        <ele>25.4</ele>
        <time>2015-12-06T13:55:50.000Z</time>
      </trkpt>
      <trkpt lat="47.67885" lon="-2.73476">
        <ele>25.6</ele>
        <time>2015-12-06T13:55:51.000Z</time>
      </trkpt>
      <trkpt lat="47.6788" lon="-2.73469">
        <ele>25.7</ele>
        <time>2015-12-06T13:55:52.000Z</time>
      </trkpt>
      <trkpt lat="47.67876" lon="-2.73462">
        <ele>25.9</ele>
        <time>2015-12-06T13:55:53.000Z</time>
      </trkpt>
      <trkpt lat="47.67871" lon="-2.73455">
        <ele>26.1</ele>
        <time>2015-12-06T13:55:54.000Z</time>
      </trkpt>
      <trkpt lat="47.67866" lon="-2.73448">
        <ele>26.2</ele>
        <time>2015-12-06T13:55:55.000Z</time>
      </trkpt>
      <trkpt lat="47.67862" lon="-2.73442">
        <ele>26.3</ele>
        <time>2015-12-06T13:55:56.000Z</time>
      </trkpt>
      <trkpt lat="47.67858" lon="-2.73435">
        <ele>26.5</ele>
        <time>2015-12-06T13:55:57.000Z</time>
      </trkpt>
      <trkpt lat="47.67854" lon="-2.73428">
        <ele>26.6</ele>
        <time>2015-12-06T13:55:58.000Z</time>
      </trkpt>
      <trkpt lat="47.6785" lon="-2.73422">
        <ele>26.7</ele>
        <time>2015-12-06T13:55:59.000Z</time>
      </trkpt>
      <trkpt lat="47.67846" lon="-2.73415">
        <ele>26.9</ele>
        <time>2015-12-06T13:56:00.000Z</time>
      </trkpt>
      <trkpt lat="47.67842" lon="-2.73409">
        <ele>27</ele>
        <time>2015-12-06T13:56:01.000Z</time>
      </trkpt>
      <trkpt lat="47.67838" lon="-2.73402">
        <ele>27.2</ele>
        <time>2015-12-06T13:56:02.000Z</time>
      </trkpt>
      <trkpt lat="47.67834" lon="-2.73396">
        <ele>27.4</ele>
        <time>2015-12-06T13:56:03.000Z</time>
      </trkpt>
      <trkpt lat="47.67829" lon="-2.7339">
        <ele>27.5</ele>
        <time>2015-12-06T13:56:04.000Z</time>
      </trkpt>
      <trkpt lat="47.67825" lon="-2.73383">
        <ele>27.7</ele>
        <time>2015-12-06T13:56:05.000Z</time>
      </trkpt>
      <trkpt lat="47.67821" lon="-2.73377">
        <ele>27.9</ele>
        <time>2015-12-06T13:56:06.000Z</time>
      </trkpt>
      <trkpt lat="47.67817" lon="-2.73371">
        <ele>28.1</ele>
        <time>2015-12-06T13:56:07.000Z</time>
      </trkpt>
      <trkpt lat="47.67814" lon="-2.73364">
        <ele>28.2</ele>
        <time>2015-12-06T13:56:08.000Z</time>
      </trkpt>
      <trkpt lat="47.6781" lon="-2.73358">
        <ele>28.4</ele>
        <time>2015-12-06T13:56:09.000Z</time>
      </trkpt>
      <trkpt lat="47.67806" lon="-2.73352">
        <ele>28.5</ele>
        <time>2015-12-06T13:56:10.000Z</time>
      </trkpt>
      <trkpt lat="47.67802" lon="-2.73346">
        <ele>28.6</ele>
        <time>2015-12-06T13:56:11.000Z</time>
      </trkpt>
      <trkpt lat="47.67798" lon="-2.7334">
        <ele>28.8</ele>
        <time>2015-12-06T13:56:12.000Z</time>
      </trkpt>
      <trkpt lat="47.67795" lon="-2.73334">
        <ele>28.9</ele>
        <time>2015-12-06T13:56:13.000Z</time>
      </trkpt>
      <trkpt lat="47.67791" lon="-2.73328">
        <ele>29</ele>
        <time>2015-12-06T13:56:14.000Z</time>
      </trkpt>
      <trkpt lat="47.67786" lon="-2.73322">
        <ele>29</ele>
        <time>2015-12-06T13:56:15.000Z</time>
      </trkpt>
      <trkpt lat="47.67782" lon="-2.73315">
        <ele>28.9</ele>
        <time>2015-12-06T13:56:16.000Z</time>
      </trkpt>
      <trkpt lat="47.67777" lon="-2.73307">
        <ele>28.9</ele>
        <time>2015-12-06T13:56:17.000Z</time>
      </trkpt>
      <trkpt lat="47.67772" lon="-2.73301">
        <ele>28.8</ele>
        <time>2015-12-06T13:56:18.000Z</time>
      </trkpt>
      <trkpt lat="47.67768" lon="-2.73294">
        <ele>28.7</ele>
        <time>2015-12-06T13:56:19.000Z</time>
      </trkpt>
      <trkpt lat="47.67763" lon="-2.73288">
        <ele>28.7</ele>
        <time>2015-12-06T13:56:20.000Z</time>
      </trkpt>
      <trkpt lat="47.67758" lon="-2.73281">
        <ele>28.8</ele>
        <time>2015-12-06T13:56:21.000Z</time>
      </trkpt>
      <trkpt lat="47.67754" lon="-2.73274">
        <ele>28.9</ele>
        <time>2015-12-06T13:56:22.000Z</time>
      </trkpt>
      <trkpt lat="47.67749" lon="-2.73268">
        <ele>28.9</ele>
        <time>2015-12-06T13:56:23.000Z</time>
      </trkpt>
      <trkpt lat="47.67744" lon="-2.73262">
        <ele>28.9</ele>
        <time>2015-12-06T13:56:24.000Z</time>
      </trkpt>
      <trkpt lat="47.6774" lon="-2.73258">
        <ele>28.9</ele>
        <time>2015-12-06T13:56:25.000Z</time>
      </trkpt>
      <trkpt lat="47.67737" lon="-2.73254">
        <ele>29</ele>
        <time>2015-12-06T13:56:26.000Z</time>
      </trkpt>
      <trkpt lat="47.67734" lon="-2.7325">
        <ele>29</ele>
        <time>2015-12-06T13:56:27.000Z</time>
      </trkpt>
      <trkpt lat="47.67732" lon="-2.73247">
        <ele>29</ele>
        <time>2015-12-06T13:56:28.000Z</time>
      </trkpt>
      <trkpt lat="47.67729" lon="-2.73242">
        <ele>29</ele>
        <time>2015-12-06T13:56:29.000Z</time>
      </trkpt>
      <trkpt lat="47.67725" lon="-2.73237">
        <ele>29</ele>
        <time>2015-12-06T13:56:30.000Z</time>
      </trkpt>
      <trkpt lat="47.6772" lon="-2.73232">
        <ele>29</ele>
        <time>2015-12-06T13:56:31.000Z</time>
      </trkpt>
      <trkpt lat="47.67716" lon="-2.73226">
        <ele>29</ele>
        <time>2015-12-06T13:56:32.000Z</time>
      </trkpt>
      <trkpt lat="47.67712" lon="-2.73221">
        <ele>28.9</ele>
        <time>2015-12-06T13:56:33.000Z</time>
      </trkpt>
      <trkpt lat="47.67707" lon="-2.73216">
        <ele>28.9</ele>
        <time>2015-12-06T13:56:34.000Z</time>
      </trkpt>
      <trkpt lat="47.67703" lon="-2.73211">
        <ele>28.9</ele>
        <time>2015-12-06T13:56:35.000Z</time>
      </trkpt>
      <trkpt lat="47.67699" lon="-2.73205">
        <ele>28.8</ele>
        <time>2015-12-06T13:56:36.000Z</time>
      </trkpt>
      <trkpt lat="47.67695" lon="-2.732">
        <ele>28.7</ele>
        <time>2015-12-06T13:56:37.000Z</time>
      </trkpt>
      <trkpt lat="47.6769" lon="-2.73195">
        <ele>28.5</ele>
        <time>2015-12-06T13:56:38.000Z</time>
      </trkpt>
      <trkpt lat="47.67686" lon="-2.7319">
        <ele>28.4</ele>
        <time>2015-12-06T13:56:39.000Z</time>
      </trkpt>
      <trkpt lat="47.67682" lon="-2.73184">
        <ele>28.3</ele>
        <time>2015-12-06T13:56:40.000Z</time>
      </trkpt>
      <trkpt lat="47.67678" lon="-2.73178">
        <ele>28.1</ele>
        <time>2015-12-06T13:56:41.000Z</time>
      </trkpt>
      <trkpt lat="47.67674" lon="-2.73171">
        <ele>28</ele>
        <time>2015-12-06T13:56:42.000Z</time>
      </trkpt>
      <trkpt lat="47.67671" lon="-2.73164">
        <ele>27.9</ele>
        <time>2015-12-06T13:56:43.000Z</time>
      </trkpt>
      <trkpt lat="47.6767" lon="-2.73155">
        <ele>27.8</ele>
        <time>2015-12-06T13:56:44.000Z</time>
      </trkpt>
      <trkpt lat="47.67668" lon="-2.73147">
        <ele>27.7</ele>
        <time>2015-12-06T13:56:45.000Z</time>
      </trkpt>
      <trkpt lat="47.67667" lon="-2.73137">
        <ele>27.6</ele>
        <time>2015-12-06T13:56:46.000Z</time>
      </trkpt>
      <trkpt lat="47.67666" lon="-2.73128">
        <ele>27.5</ele>
        <time>2015-12-06T13:56:47.000Z</time>
      </trkpt>
      <trkpt lat="47.67665" lon="-2.73119">
        <ele>27.5</ele>
        <time>2015-12-06T13:56:48.000Z</time>
      </trkpt>
      <trkpt lat="47.67664" lon="-2.7311">
        <ele>27.5</ele>
        <time>2015-12-06T13:56:49.000Z</time>
      </trkpt>
      <trkpt lat="47.67663" lon="-2.731">
        <ele>27.5</ele>
        <time>2015-12-06T13:56:50.000Z</time>
      </trkpt>
      <trkpt lat="47.67661" lon="-2.7309">
        <ele>27.5</ele>
        <time>2015-12-06T13:56:51.000Z</time>
      </trkpt>
      <trkpt lat="47.6766" lon="-2.7308">
        <ele>27.5</ele>
        <time>2015-12-06T13:56:52.000Z</time>
      </trkpt>
      <trkpt lat="47.67659" lon="-2.7307">
        <ele>27.5</ele>
        <time>2015-12-06T13:56:53.000Z</time>
      </trkpt>
      <trkpt lat="47.67658" lon="-2.73059">
        <ele>27.5</ele>
        <time>2015-12-06T13:56:54.000Z</time>
      </trkpt>
      <trkpt lat="47.67657" lon="-2.73049">
        <ele>27.5</ele>
        <time>2015-12-06T13:56:55.000Z</time>
      </trkpt>
      <trkpt lat="47.67656" lon="-2.73038">
        <ele>27.4</ele>
        <time>2015-12-06T13:56:56.000Z</time>
      </trkpt>
      <trkpt lat="47.67655" lon="-2.73027">
        <ele>27.2</ele>
        <time>2015-12-06T13:56:57.000Z</time>
      </trkpt>
      <trkpt lat="47.67653" lon="-2.73016">
        <ele>27</ele>
        <time>2015-12-06T13:56:58.000Z</time>
      </trkpt>
      <trkpt lat="47.67652" lon="-2.73005">
        <ele>26.7</ele>
        <time>2015-12-06T13:56:59.000Z</time>
      </trkpt>
      <trkpt lat="47.67651" lon="-2.72994">
        <ele>26.5</ele>
        <time>2015-12-06T13:57:00.000Z</time>
      </trkpt>
      <trkpt lat="47.6765" lon="-2.72983">
        <ele>26.2</ele>
        <time>2015-12-06T13:57:01.000Z</time>
      </trkpt>
      <trkpt lat="47.67648" lon="-2.72972">
        <ele>25.9</ele>
        <time>2015-12-06T13:57:02.000Z</time>
      </trkpt>
      <trkpt lat="47.67646" lon="-2.72961">
        <ele>25.6</ele>
        <time>2015-12-06T13:57:03.000Z</time>
      </trkpt>
      <trkpt lat="47.67644" lon="-2.7295">
        <ele>25.2</ele>
        <time>2015-12-06T13:57:04.000Z</time>
      </trkpt>
      <trkpt lat="47.67642" lon="-2.7294">
        <ele>24.8</ele>
        <time>2015-12-06T13:57:05.000Z</time>
      </trkpt>
      <trkpt lat="47.67639" lon="-2.7293">
        <ele>24.5</ele>
        <time>2015-12-06T13:57:06.000Z</time>
      </trkpt>
      <trkpt lat="47.67635" lon="-2.72921">
        <ele>24.1</ele>
        <time>2015-12-06T13:57:07.000Z</time>
      </trkpt>
      <trkpt lat="47.67631" lon="-2.72911">
        <ele>23.8</ele>
        <time>2015-12-06T13:57:08.000Z</time>
      </trkpt>
      <trkpt lat="47.67627" lon="-2.72903">
        <ele>23.4</ele>
        <time>2015-12-06T13:57:09.000Z</time>
      </trkpt>
      <trkpt lat="47.67623" lon="-2.72894">
        <ele>23.2</ele>
        <time>2015-12-06T13:57:10.000Z</time>
      </trkpt>
      <trkpt lat="47.6762" lon="-2.72885">
        <ele>23.1</ele>
        <time>2015-12-06T13:57:11.000Z</time>
      </trkpt>
      <trkpt lat="47.67619" lon="-2.72876">
        <ele>23</ele>
        <time>2015-12-06T13:57:12.000Z</time>
      </trkpt>
      <trkpt lat="47.67621" lon="-2.72868">
        <ele>23</ele>
        <time>2015-12-06T13:57:13.000Z</time>
      </trkpt>
      <trkpt lat="47.67626" lon="-2.7286">
        <ele>23</ele>
        <time>2015-12-06T13:57:14.000Z</time>
      </trkpt>
      <trkpt lat="47.6763" lon="-2.72853">
        <ele>23.2</ele>
        <time>2015-12-06T13:57:15.000Z</time>
      </trkpt>
      <trkpt lat="47.67634" lon="-2.72845">
        <ele>23.3</ele>
        <time>2015-12-06T13:57:16.000Z</time>
      </trkpt>
      <trkpt lat="47.67638" lon="-2.72837">
        <ele>23.5</ele>
        <time>2015-12-06T13:57:17.000Z</time>
      </trkpt>
      <trkpt lat="47.6764" lon="-2.72828">
        <ele>23.5</ele>
        <time>2015-12-06T13:57:18.000Z</time>
      </trkpt>
      <trkpt lat="47.67641" lon="-2.72819">
        <ele>23.6</ele>
        <time>2015-12-06T13:57:19.000Z</time>
      </trkpt>
      <trkpt lat="47.67639" lon="-2.72811">
        <ele>23.5</ele>
        <time>2015-12-06T13:57:20.000Z</time>
      </trkpt>
      <trkpt lat="47.67635" lon="-2.72804">
        <ele>23.4</ele>
        <time>2015-12-06T13:57:21.000Z</time>
      </trkpt>
      <trkpt lat="47.67631" lon="-2.72798">
        <ele>23.2</ele>
        <time>2015-12-06T13:57:22.000Z</time>
      </trkpt>
      <trkpt lat="47.67628" lon="-2.72791">
        <ele>23.1</ele>
        <time>2015-12-06T13:57:23.000Z</time>
      </trkpt>
      <trkpt lat="47.67626" lon="-2.72782">
        <ele>22.9</ele>
        <time>2015-12-06T13:57:24.000Z</time>
      </trkpt>
      <trkpt lat="47.67626" lon="-2.72773">
        <ele>22.8</ele>
        <time>2015-12-06T13:57:25.000Z</time>
      </trkpt>
      <trkpt lat="47.67627" lon="-2.72765">
        <ele>22.7</ele>
        <time>2015-12-06T13:57:26.000Z</time>
      </trkpt>
      <trkpt lat="47.6763" lon="-2.72759">
        <ele>22.8</ele>
        <time>2015-12-06T13:57:27.000Z</time>
      </trkpt>
      <trkpt lat="47.67632" lon="-2.72754">
        <ele>22.8</ele>
        <time>2015-12-06T13:57:28.000Z</time>
      </trkpt>
      <trkpt lat="47.67635" lon="-2.72749">
        <ele>22.8</ele>
        <time>2015-12-06T13:57:29.000Z</time>
      </trkpt>
      <trkpt lat="47.67639" lon="-2.72743">
        <ele>22.8</ele>
        <time>2015-12-06T13:57:30.000Z</time>
      </trkpt>
      <trkpt lat="47.67643" lon="-2.72738">
        <ele>22.9</ele>
        <time>2015-12-06T13:57:31.000Z</time>
      </trkpt>
      <trkpt lat="47.67648" lon="-2.72733">
        <ele>22.9</ele>
        <time>2015-12-06T13:57:32.000Z</time>
      </trkpt>
      <trkpt lat="47.67652" lon="-2.72727">
        <ele>22.9</ele>
        <time>2015-12-06T13:57:33.000Z</time>
      </trkpt>
      <trkpt lat="47.67656" lon="-2.72722">
        <ele>23</ele>
        <time>2015-12-06T13:57:34.000Z</time>
      </trkpt>
      <trkpt lat="47.6766" lon="-2.72716">
        <ele>23</ele>
        <time>2015-12-06T13:57:35.000Z</time>
      </trkpt>
      <trkpt lat="47.67665" lon="-2.72711">
        <ele>23</ele>
        <time>2015-12-06T13:57:36.000Z</time>
      </trkpt>
      <trkpt lat="47.67669" lon="-2.72705">
        <ele>23.1</ele>
        <time>2015-12-06T13:57:37.000Z</time>
      </trkpt>
      <trkpt lat="47.67674" lon="-2.72699">
        <ele>23.2</ele>
        <time>2015-12-06T13:57:38.000Z</time>
      </trkpt>
      <trkpt lat="47.67678" lon="-2.72693">
        <ele>23.3</ele>
        <time>2015-12-06T13:57:39.000Z</time>
      </trkpt>
      <trkpt lat="47.67683" lon="-2.72688">
        <ele>23.4</ele>
        <time>2015-12-06T13:57:40.000Z</time>
      </trkpt>
      <trkpt lat="47.67688" lon="-2.72682">
        <ele>23.5</ele>
        <time>2015-12-06T13:57:41.000Z</time>
      </trkpt>
      <trkpt lat="47.67692" lon="-2.72676">
        <ele>23.6</ele>
        <time>2015-12-06T13:57:42.000Z</time>
      </trkpt>
      <trkpt lat="47.67697" lon="-2.72671">
        <ele>23.7</ele>
        <time>2015-12-06T13:57:43.000Z</time>
      </trkpt>
      <trkpt lat="47.67702" lon="-2.72666">
        <ele>23.9</ele>
        <time>2015-12-06T13:57:44.000Z</time>
      </trkpt>
      <trkpt lat="47.67707" lon="-2.72661">
        <ele>24</ele>
        <time>2015-12-06T13:57:45.000Z</time>
      </trkpt>
      <trkpt lat="47.67711" lon="-2.72655">
        <ele>24.2</ele>
        <time>2015-12-06T13:57:46.000Z</time>
      </trkpt>
      <trkpt lat="47.67714" lon="-2.72649">
        <ele>24.4</ele>
        <time>2015-12-06T13:57:47.000Z</time>
      </trkpt>
      <trkpt lat="47.67718" lon="-2.72642">
        <ele>24.7</ele>
        <time>2015-12-06T13:57:48.000Z</time>
      </trkpt>
      <trkpt lat="47.67721" lon="-2.72635">
        <ele>24.9</ele>
        <time>2015-12-06T13:57:49.000Z</time>
      </trkpt>
      <trkpt lat="47.67724" lon="-2.72628">
        <ele>25.1</ele>
        <time>2015-12-06T13:57:50.000Z</time>
      </trkpt>
      <trkpt lat="47.67726" lon="-2.72621">
        <ele>25.2</ele>
        <time>2015-12-06T13:57:51.000Z</time>
      </trkpt>
      <trkpt lat="47.67729" lon="-2.72613">
        <ele>25.1</ele>
        <time>2015-12-06T13:57:52.000Z</time>
      </trkpt>
      <trkpt lat="47.67732" lon="-2.72605">
        <ele>25.1</ele>
        <time>2015-12-06T13:57:53.000Z</time>
      </trkpt>
      <trkpt lat="47.67735" lon="-2.72597">
        <ele>25</ele>
        <time>2015-12-06T13:57:54.000Z</time>
      </trkpt>
      <trkpt lat="47.67738" lon="-2.72588">
        <ele>24.9</ele>
        <time>2015-12-06T13:57:55.000Z</time>
      </trkpt>
      <trkpt lat="47.67741" lon="-2.72578">
        <ele>24.8</ele>
        <time>2015-12-06T13:57:56.000Z</time>
      </trkpt>
      <trkpt lat="47.67744" lon="-2.72568">
        <ele>24.6</ele>
        <time>2015-12-06T13:57:57.000Z</time>
      </trkpt>
      <trkpt lat="47.67747" lon="-2.72559">
        <ele>24.4</ele>
        <time>2015-12-06T13:57:58.000Z</time>
      </trkpt>
      <trkpt lat="47.6775" lon="-2.72549">
        <ele>24.3</ele>
        <time>2015-12-06T13:57:59.000Z</time>
      </trkpt>
      <trkpt lat="47.67754" lon="-2.72539">
        <ele>24.1</ele>
        <time>2015-12-06T13:58:00.000Z</time>
      </trkpt>
      <trkpt lat="47.67757" lon="-2.72529">
        <ele>23.8</ele>
        <time>2015-12-06T13:58:01.000Z</time>
      </trkpt>
      <trkpt lat="47.6776" lon="-2.7252">
        <ele>23.5</ele>
        <time>2015-12-06T13:58:02.000Z</time>
      </trkpt>
      <trkpt lat="47.67764" lon="-2.7251">
        <ele>23.1</ele>
        <time>2015-12-06T13:58:03.000Z</time>
      </trkpt>
      <trkpt lat="47.67767" lon="-2.725">
        <ele>22.7</ele>
        <time>2015-12-06T13:58:04.000Z</time>
      </trkpt>
      <trkpt lat="47.6777" lon="-2.7249">
        <ele>22.3</ele>
        <time>2015-12-06T13:58:05.000Z</time>
      </trkpt>
      <trkpt lat="47.67772" lon="-2.72481">
        <ele>21.9</ele>
        <time>2015-12-06T13:58:06.000Z</time>
      </trkpt>
      <trkpt lat="47.67775" lon="-2.72472">
        <ele>21.5</ele>
        <time>2015-12-06T13:58:07.000Z</time>
      </trkpt>
      <trkpt lat="47.67779" lon="-2.72464">
        <ele>21.1</ele>
        <time>2015-12-06T13:58:08.000Z</time>
      </trkpt>
      <trkpt lat="47.67783" lon="-2.72457">
        <ele>20.9</ele>
        <time>2015-12-06T13:58:09.000Z</time>
      </trkpt>
      <trkpt lat="47.67787" lon="-2.72451">
        <ele>20.9</ele>
        <time>2015-12-06T13:58:10.000Z</time>
      </trkpt>
      <trkpt lat="47.67791" lon="-2.72445">
        <ele>21</ele>
        <time>2015-12-06T13:58:11.000Z</time>
      </trkpt>
      <trkpt lat="47.67795" lon="-2.72439">
        <ele>21.5</ele>
        <time>2015-12-06T13:58:12.000Z</time>
      </trkpt>
      <trkpt lat="47.67798" lon="-2.72434">
        <ele>21.9</ele>
        <time>2015-12-06T13:58:13.000Z</time>
      </trkpt>
      <trkpt lat="47.67801" lon="-2.72429">
        <ele>22.3</ele>
        <time>2015-12-06T13:58:14.000Z</time>
      </trkpt>
      <trkpt lat="47.67803" lon="-2.72424">
        <ele>22.6</ele>
        <time>2015-12-06T13:58:15.000Z</time>
      </trkpt>
      <trkpt lat="47.67805" lon="-2.7242">
        <ele>22.9</ele>
        <time>2015-12-06T13:58:16.000Z</time>
      </trkpt>
      <trkpt lat="47.67808" lon="-2.72417">
        <ele>23.3</ele>
        <time>2015-12-06T13:58:17.000Z</time>
      </trkpt>
      <trkpt lat="47.6781" lon="-2.72413">
        <ele>23.7</ele>
        <time>2015-12-06T13:58:18.000Z</time>
      </trkpt>
      <trkpt lat="47.67813" lon="-2.72411">
        <ele>24</ele>
        <time>2015-12-06T13:58:19.000Z</time>
      </trkpt>
      <trkpt lat="47.67815" lon="-2.72408">
        <ele>24.4</ele>
        <time>2015-12-06T13:58:20.000Z</time>
      </trkpt>
      <trkpt lat="47.67817" lon="-2.72406">
        <ele>24.7</ele>
        <time>2015-12-06T13:58:21.000Z</time>
      </trkpt>
      <trkpt lat="47.67819" lon="-2.72404">
        <ele>24.9</ele>
        <time>2015-12-06T13:58:22.000Z</time>
      </trkpt>
      <trkpt lat="47.6782" lon="-2.72403">
        <ele>25.1</ele>
        <time>2015-12-06T13:58:23.000Z</time>
      </trkpt>
      <trkpt lat="47.6782" lon="-2.72401">
        <ele>25.1</ele>
        <time>2015-12-06T13:58:24.000Z</time>
      </trkpt>
      <trkpt lat="47.67821" lon="-2.724">
        <ele>25.2</ele>
        <time>2015-12-06T13:58:25.000Z</time>
      </trkpt>
      <trkpt lat="47.67821" lon="-2.72398">
        <ele>25.2</ele>
        <time>2015-12-06T13:58:26.000Z</time>
      </trkpt>
      <trkpt lat="47.67821" lon="-2.72397">
        <ele>25.2</ele>
        <time>2015-12-06T13:58:27.000Z</time>
      </trkpt>
      <trkpt lat="47.6782" lon="-2.72396">
        <ele>25.1</ele>
        <time>2015-12-06T13:58:28.000Z</time>
      </trkpt>
      <trkpt lat="47.67819" lon="-2.72394">
        <ele>25</ele>
        <time>2015-12-06T13:58:29.000Z</time>
      </trkpt>
      <trkpt lat="47.67818" lon="-2.72392">
        <ele>24.7</ele>
        <time>2015-12-06T13:58:30.000Z</time>
      </trkpt>
      <trkpt lat="47.67817" lon="-2.72389">
        <ele>24.6</ele>
        <time>2015-12-06T13:58:31.000Z</time>
      </trkpt>
      <trkpt lat="47.67816" lon="-2.72387">
        <ele>24.5</ele>
        <time>2015-12-06T13:58:32.000Z</time>
      </trkpt>
      <trkpt lat="47.67816" lon="-2.72384">
        <ele>24.5</ele>
        <time>2015-12-06T13:58:33.000Z</time>
      </trkpt>
      <trkpt lat="47.67816" lon="-2.7238">
        <ele>24.5</ele>
        <time>2015-12-06T13:58:34.000Z</time>
      </trkpt>
      <trkpt lat="47.67817" lon="-2.72376">
        <ele>24.6</ele>
        <time>2015-12-06T13:58:35.000Z</time>
      </trkpt>
      <trkpt lat="47.67819" lon="-2.72372">
        <ele>24.9</ele>
        <time>2015-12-06T13:58:36.000Z</time>
      </trkpt>
      <trkpt lat="47.67821" lon="-2.72367">
        <ele>25.2</ele>
        <time>2015-12-06T13:58:37.000Z</time>
      </trkpt>
      <trkpt lat="47.67825" lon="-2.72362">
        <ele>25.6</ele>
        <time>2015-12-06T13:58:38.000Z</time>
      </trkpt>
      <trkpt lat="47.67828" lon="-2.72357">
        <ele>25.9</ele>
        <time>2015-12-06T13:58:39.000Z</time>
      </trkpt>
      <trkpt lat="47.67831" lon="-2.72352">
        <ele>26.2</ele>
        <time>2015-12-06T13:58:40.000Z</time>
      </trkpt>
      <trkpt lat="47.67834" lon="-2.72347">
        <ele>26.4</ele>
        <time>2015-12-06T13:58:41.000Z</time>
      </trkpt>
      <trkpt lat="47.67837" lon="-2.72343">
        <ele>26.6</ele>
        <time>2015-12-06T13:58:42.000Z</time>
      </trkpt>
      <trkpt lat="47.6784" lon="-2.72339">
        <ele>26.8</ele>
        <time>2015-12-06T13:58:43.000Z</time>
      </trkpt>
      <trkpt lat="47.67844" lon="-2.72336">
        <ele>27.1</ele>
        <time>2015-12-06T13:58:44.000Z</time>
      </trkpt>
      <trkpt lat="47.67848" lon="-2.72333">
        <ele>27.4</ele>
        <time>2015-12-06T13:58:45.000Z</time>
      </trkpt>
      <trkpt lat="47.67853" lon="-2.72331">
        <ele>27.8</ele>
        <time>2015-12-06T13:58:46.000Z</time>
      </trkpt>
      <trkpt lat="47.67857" lon="-2.72328">
        <ele>28</ele>
        <time>2015-12-06T13:58:47.000Z</time>
      </trkpt>
      <trkpt lat="47.67861" lon="-2.72325">
        <ele>28.2</ele>
        <time>2015-12-06T13:58:48.000Z</time>
      </trkpt>
      <trkpt lat="47.67865" lon="-2.72322">
        <ele>28.3</ele>
        <time>2015-12-06T13:58:49.000Z</time>
      </trkpt>
      <trkpt lat="47.67869" lon="-2.72319">
        <ele>28.5</ele>
        <time>2015-12-06T13:58:50.000Z</time>
      </trkpt>
      <trkpt lat="47.67873" lon="-2.72317">
        <ele>28.7</ele>
        <time>2015-12-06T13:58:51.000Z</time>
      </trkpt>
      <trkpt lat="47.67877" lon="-2.72315">
        <ele>28.8</ele>
        <time>2015-12-06T13:58:52.000Z</time>
      </trkpt>
      <trkpt lat="47.6788" lon="-2.72313">
        <ele>28.8</ele>
        <time>2015-12-06T13:58:53.000Z</time>
      </trkpt>
      <trkpt lat="47.67883" lon="-2.72311">
        <ele>28.9</ele>
        <time>2015-12-06T13:58:54.000Z</time>
      </trkpt>
      <trkpt lat="47.67887" lon="-2.72309">
        <ele>29</ele>
        <time>2015-12-06T13:58:55.000Z</time>
      </trkpt>
      <trkpt lat="47.6789" lon="-2.72308">
        <ele>29.1</ele>
        <time>2015-12-06T13:58:56.000Z</time>
      </trkpt>
      <trkpt lat="47.67894" lon="-2.72306">
        <ele>29.2</ele>
        <time>2015-12-06T13:58:57.000Z</time>
      </trkpt>
      <trkpt lat="47.67897" lon="-2.72305">
        <ele>29.4</ele>
        <time>2015-12-06T13:58:58.000Z</time>
      </trkpt>
      <trkpt lat="47.67901" lon="-2.72304">
        <ele>29.5</ele>
        <time>2015-12-06T13:58:59.000Z</time>
      </trkpt>
      <trkpt lat="47.67904" lon="-2.72302">
        <ele>29.6</ele>
        <time>2015-12-06T13:59:00.000Z</time>
      </trkpt>
      <trkpt lat="47.67908" lon="-2.723">
        <ele>29.7</ele>
        <time>2015-12-06T13:59:01.000Z</time>
      </trkpt>
      <trkpt lat="47.67912" lon="-2.72298">
        <ele>29.7</ele>
        <time>2015-12-06T13:59:02.000Z</time>
      </trkpt>
      <trkpt lat="47.67916" lon="-2.72295">
        <ele>29.7</ele>
        <time>2015-12-06T13:59:03.000Z</time>
      </trkpt>
      <trkpt lat="47.67919" lon="-2.72292">
        <ele>29.7</ele>
        <time>2015-12-06T13:59:04.000Z</time>
      </trkpt>
      <trkpt lat="47.67923" lon="-2.7229">
        <ele>29.7</ele>
        <time>2015-12-06T13:59:05.000Z</time>
      </trkpt>
      <trkpt lat="47.67926" lon="-2.72287">
        <ele>29.7</ele>
        <time>2015-12-06T13:59:06.000Z</time>
      </trkpt>
      <trkpt lat="47.67929" lon="-2.72285">
        <ele>29.6</ele>
        <time>2015-12-06T13:59:07.000Z</time>
      </trkpt>
      <trkpt lat="47.67931" lon="-2.72282">
        <ele>29.5</ele>
        <time>2015-12-06T13:59:08.000Z</time>
      </trkpt>
      <trkpt lat="47.67933" lon="-2.72278">
        <ele>29.2</ele>
        <time>2015-12-06T13:59:09.000Z</time>
      </trkpt>
      <trkpt lat="47.67936" lon="-2.72273">
        <ele>28.9</ele>
        <time>2015-12-06T13:59:10.000Z</time>
      </trkpt>
      <trkpt lat="47.6794" lon="-2.72269">
        <ele>28.6</ele>
        <time>2015-12-06T13:59:11.000Z</time>
      </trkpt>
      <trkpt lat="47.67944" lon="-2.72265">
        <ele>28.5</ele>
        <time>2015-12-06T13:59:12.000Z</time>
      </trkpt>
      <trkpt lat="47.67948" lon="-2.72261">
        <ele>28.3</ele>
        <time>2015-12-06T13:59:13.000Z</time>
      </trkpt>
      <trkpt lat="47.67952" lon="-2.72257">
        <ele>28</ele>
        <time>2015-12-06T13:59:14.000Z</time>
      </trkpt>
      <trkpt lat="47.67955" lon="-2.72253">
        <ele>27.7</ele>
        <time>2015-12-06T13:59:15.000Z</time>
      </trkpt>
      <trkpt lat="47.67959" lon="-2.72248">
        <ele>27.3</ele>
        <time>2015-12-06T13:59:16.000Z</time>
      </trkpt>
      <trkpt lat="47.67964" lon="-2.72244">
        <ele>26.8</ele>
        <time>2015-12-06T13:59:17.000Z</time>
      </trkpt>
      <trkpt lat="47.67968" lon="-2.7224">
        <ele>26.4</ele>
        <time>2015-12-06T13:59:18.000Z</time>
      </trkpt>
      <trkpt lat="47.67972" lon="-2.72237">
        <ele>26</ele>
        <time>2015-12-06T13:59:19.000Z</time>
      </trkpt>
      <trkpt lat="47.67975" lon="-2.72235">
        <ele>25.8</ele>
        <time>2015-12-06T13:59:20.000Z</time>
      </trkpt>
      <trkpt lat="47.67979" lon="-2.72235">
        <ele>25.7</ele>
        <time>2015-12-06T13:59:21.000Z</time>
      </trkpt>
      <trkpt lat="47.67982" lon="-2.72235">
        <ele>25.7</ele>
        <time>2015-12-06T13:59:22.000Z</time>
      </trkpt>
      <trkpt lat="47.67984" lon="-2.72234">
        <ele>25.6</ele>
        <time>2015-12-06T13:59:23.000Z</time>
      </trkpt>
      <trkpt lat="47.67986" lon="-2.72231">
        <ele>25.3</ele>
        <time>2015-12-06T13:59:24.000Z</time>
      </trkpt>
      <trkpt lat="47.67989" lon="-2.72227">
        <ele>24.9</ele>
        <time>2015-12-06T13:59:25.000Z</time>
      </trkpt>
      <trkpt lat="47.67992" lon="-2.72223">
        <ele>24.5</ele>
        <time>2015-12-06T13:59:26.000Z</time>
      </trkpt>
      <trkpt lat="47.67995" lon="-2.72219">
        <ele>24</ele>
        <time>2015-12-06T13:59:27.000Z</time>
      </trkpt>
      <trkpt lat="47.67998" lon="-2.72213">
        <ele>23.5</ele>
        <time>2015-12-06T13:59:28.000Z</time>
      </trkpt>
      <trkpt lat="47.68001" lon="-2.72207">
        <ele>23</ele>
        <time>2015-12-06T13:59:29.000Z</time>
      </trkpt>
      <trkpt lat="47.68004" lon="-2.722">
        <ele>23.1</ele>
        <time>2015-12-06T13:59:30.000Z</time>
      </trkpt>
      <trkpt lat="47.68006" lon="-2.72194">
        <ele>23.1</ele>
        <time>2015-12-06T13:59:31.000Z</time>
      </trkpt>
      <trkpt lat="47.68008" lon="-2.72187">
        <ele>23.2</ele>
        <time>2015-12-06T13:59:32.000Z</time>
      </trkpt>
      <trkpt lat="47.68009" lon="-2.72181">
        <ele>23.2</ele>
        <time>2015-12-06T13:59:33.000Z</time>
      </trkpt>
      <trkpt lat="47.68011" lon="-2.72175">
        <ele>23.2</ele>
        <time>2015-12-06T13:59:34.000Z</time>
      </trkpt>
      <trkpt lat="47.68012" lon="-2.72171">
        <ele>23.3</ele>
        <time>2015-12-06T13:59:35.000Z</time>
      </trkpt>
      <trkpt lat="47.68014" lon="-2.72169">
        <ele>23.3</ele>
        <time>2015-12-06T13:59:36.000Z</time>
      </trkpt>
      <trkpt lat="47.68017" lon="-2.72169">
        <ele>23.3</ele>
        <time>2015-12-06T13:59:37.000Z</time>
      </trkpt>
      <trkpt lat="47.68019" lon="-2.72169">
        <ele>23.3</ele>
        <time>2015-12-06T13:59:38.000Z</time>
      </trkpt>
      <trkpt lat="47.68021" lon="-2.72171">
        <ele>23.3</ele>
        <time>2015-12-06T13:59:39.000Z</time>
      </trkpt>
      <trkpt lat="47.68025" lon="-2.72174">
        <ele>23.3</ele>
        <time>2015-12-06T13:59:40.000Z</time>
      </trkpt>
      <trkpt lat="47.68028" lon="-2.72178">
        <ele>23.3</ele>
        <time>2015-12-06T13:59:41.000Z</time>
      </trkpt>
      <trkpt lat="47.68032" lon="-2.72181">
        <ele>23.3</ele>
        <time>2015-12-06T13:59:42.000Z</time>
      </trkpt>
      <trkpt lat="47.68036" lon="-2.72185">
        <ele>23.3</ele>
        <time>2015-12-06T13:59:43.000Z</time>
      </trkpt>
      <trkpt lat="47.68039" lon="-2.72189">
        <ele>23.2</ele>
        <time>2015-12-06T13:59:44.000Z</time>
      </trkpt>
      <trkpt lat="47.68042" lon="-2.72192">
        <ele>23.2</ele>
        <time>2015-12-06T13:59:45.000Z</time>
      </trkpt>
      <trkpt lat="47.68046" lon="-2.72195">
        <ele>23.1</ele>
        <time>2015-12-06T13:59:46.000Z</time>
      </trkpt>
      <trkpt lat="47.68051" lon="-2.72197">
        <ele>23</ele>
        <time>2015-12-06T13:59:47.000Z</time>
      </trkpt>
      <trkpt lat="47.68057" lon="-2.72199">
        <ele>22.8</ele>
        <time>2015-12-06T13:59:48.000Z</time>
      </trkpt>
      <trkpt lat="47.68064" lon="-2.72201">
        <ele>22.6</ele>
        <time>2015-12-06T13:59:49.000Z</time>
      </trkpt>
      <trkpt lat="47.6807" lon="-2.72203">
        <ele>22.4</ele>
        <time>2015-12-06T13:59:50.000Z</time>
      </trkpt>
      <trkpt lat="47.68077" lon="-2.72205">
        <ele>22.2</ele>
        <time>2015-12-06T13:59:51.000Z</time>
      </trkpt>
      <trkpt lat="47.68084" lon="-2.72207">
        <ele>22</ele>
        <time>2015-12-06T13:59:52.000Z</time>
      </trkpt>
      <trkpt lat="47.68091" lon="-2.72209">
        <ele>21.9</ele>
        <time>2015-12-06T13:59:53.000Z</time>
      </trkpt>
      <trkpt lat="47.68098" lon="-2.72212">
        <ele>21.9</ele>
        <time>2015-12-06T13:59:54.000Z</time>
      </trkpt>
      <trkpt lat="47.68105" lon="-2.72214">
        <ele>22</ele>
        <time>2015-12-06T13:59:55.000Z</time>
      </trkpt>
      <trkpt lat="47.68111" lon="-2.72217">
        <ele>22</ele>
        <time>2015-12-06T13:59:56.000Z</time>
      </trkpt>
      <trkpt lat="47.68118" lon="-2.7222">
        <ele>22.2</ele>
        <time>2015-12-06T13:59:57.000Z</time>
      </trkpt>
      <trkpt lat="47.68124" lon="-2.72223">
        <ele>22.2</ele>
        <time>2015-12-06T13:59:58.000Z</time>
      </trkpt>
      <trkpt lat="47.6813" lon="-2.72225">
        <ele>22.3</ele>
        <time>2015-12-06T13:59:59.000Z</time>
      </trkpt>
      <trkpt lat="47.68137" lon="-2.72227">
        <ele>22.4</ele>
        <time>2015-12-06T14:00:00.000Z</time>
      </trkpt>
      <trkpt lat="47.68143" lon="-2.72229">
        <ele>22.4</ele>
        <time>2015-12-06T14:00:01.000Z</time>
      </trkpt>
      <trkpt lat="47.68149" lon="-2.72232">
        <ele>22.5</ele>
        <time>2015-12-06T14:00:02.000Z</time>
      </trkpt>
      <trkpt lat="47.68155" lon="-2.72233">
        <ele>22.5</ele>
        <time>2015-12-06T14:00:03.000Z</time>
      </trkpt>
      <trkpt lat="47.6816" lon="-2.72235">
        <ele>22.4</ele>
        <time>2015-12-06T14:00:04.000Z</time>
      </trkpt>
      <trkpt lat="47.68166" lon="-2.72236">
        <ele>22.3</ele>
        <time>2015-12-06T14:00:05.000Z</time>
      </trkpt>
      <trkpt lat="47.68171" lon="-2.72237">
        <ele>22.3</ele>
        <time>2015-12-06T14:00:06.000Z</time>
      </trkpt>
      <trkpt lat="47.68176" lon="-2.72238">
        <ele>22.2</ele>
        <time>2015-12-06T14:00:07.000Z</time>
      </trkpt>
      <trkpt lat="47.68181" lon="-2.72239">
        <ele>22.1</ele>
        <time>2015-12-06T14:00:08.000Z</time>
      </trkpt>
      <trkpt lat="47.68186" lon="-2.7224">
        <ele>22</ele>
        <time>2015-12-06T14:00:09.000Z</time>
      </trkpt>
      <trkpt lat="47.68191" lon="-2.72242">
        <ele>21.9</ele>
        <time>2015-12-06T14:00:10.000Z</time>
      </trkpt>
      <trkpt lat="47.68196" lon="-2.72243">
        <ele>21.8</ele>
        <time>2015-12-06T14:00:11.000Z</time>
      </trkpt>
      <trkpt lat="47.68201" lon="-2.72244">
        <ele>21.7</ele>
        <time>2015-12-06T14:00:12.000Z</time>
      </trkpt>
      <trkpt lat="47.68206" lon="-2.72244">
        <ele>21.5</ele>
        <time>2015-12-06T14:00:13.000Z</time>
      </trkpt>
      <trkpt lat="47.68211" lon="-2.72245">
        <ele>21.5</ele>
        <time>2015-12-06T14:00:14.000Z</time>
      </trkpt>
      <trkpt lat="47.68217" lon="-2.72244">
        <ele>21.7</ele>
        <time>2015-12-06T14:00:15.000Z</time>
      </trkpt>
      <trkpt lat="47.68222" lon="-2.72244">
        <ele>21.9</ele>
        <time>2015-12-06T14:00:16.000Z</time>
      </trkpt>
      <trkpt lat="47.68228" lon="-2.72243">
        <ele>22.1</ele>
        <time>2015-12-06T14:00:17.000Z</time>
      </trkpt>
      <trkpt lat="47.68233" lon="-2.72242">
        <ele>22.2</ele>
        <time>2015-12-06T14:00:18.000Z</time>
      </trkpt>
      <trkpt lat="47.68239" lon="-2.72241">
        <ele>22.4</ele>
        <time>2015-12-06T14:00:19.000Z</time>
      </trkpt>
      <trkpt lat="47.68244" lon="-2.72239">
        <ele>22.6</ele>
        <time>2015-12-06T14:00:20.000Z</time>
      </trkpt>
      <trkpt lat="47.6825" lon="-2.72236">
        <ele>22.8</ele>
        <time>2015-12-06T14:00:21.000Z</time>
      </trkpt>
      <trkpt lat="47.68255" lon="-2.72231">
        <ele>23.1</ele>
        <time>2015-12-06T14:00:22.000Z</time>
      </trkpt>
      <trkpt lat="47.68259" lon="-2.72226">
        <ele>23.3</ele>
        <time>2015-12-06T14:00:23.000Z</time>
      </trkpt>
      <trkpt lat="47.68263" lon="-2.72221">
        <ele>23.5</ele>
        <time>2015-12-06T14:00:24.000Z</time>
      </trkpt>
      <trkpt lat="47.68267" lon="-2.72217">
        <ele>23.7</ele>
        <time>2015-12-06T14:00:25.000Z</time>
      </trkpt>
      <trkpt lat="47.68271" lon="-2.72212">
        <ele>23.9</ele>
        <time>2015-12-06T14:00:26.000Z</time>
      </trkpt>
      <trkpt lat="47.68275" lon="-2.72208">
        <ele>24.2</ele>
        <time>2015-12-06T14:00:27.000Z</time>
      </trkpt>
      <trkpt lat="47.68279" lon="-2.72203">
        <ele>25</ele>
        <time>2015-12-06T14:00:28.000Z</time>
      </trkpt>
      <trkpt lat="47.68284" lon="-2.72198">
        <ele>25.8</ele>
        <time>2015-12-06T14:00:29.000Z</time>
      </trkpt>
      <trkpt lat="47.6829" lon="-2.72194">
        <ele>26.4</ele>
        <time>2015-12-06T14:00:30.000Z</time>
      </trkpt>
      <trkpt lat="47.68296" lon="-2.72191">
        <ele>26.8</ele>
        <time>2015-12-06T14:00:31.000Z</time>
      </trkpt>
      <trkpt lat="47.68301" lon="-2.72187">
        <ele>27</ele>
        <time>2015-12-06T14:00:32.000Z</time>
      </trkpt>
      <trkpt lat="47.68306" lon="-2.72181">
        <ele>27.3</ele>
        <time>2015-12-06T14:00:33.000Z</time>
      </trkpt>
      <trkpt lat="47.68311" lon="-2.72175">
        <ele>27.7</ele>
        <time>2015-12-06T14:00:34.000Z</time>
      </trkpt>
      <trkpt lat="47.68316" lon="-2.72169">
        <ele>28</ele>
        <time>2015-12-06T14:00:35.000Z</time>
      </trkpt>
      <trkpt lat="47.6832" lon="-2.72164">
        <ele>28.2</ele>
        <time>2015-12-06T14:00:36.000Z</time>
      </trkpt>
      <trkpt lat="47.68324" lon="-2.72158">
        <ele>28.4</ele>
        <time>2015-12-06T14:00:37.000Z</time>
      </trkpt>
      <trkpt lat="47.68327" lon="-2.72153">
        <ele>28.6</ele>
        <time>2015-12-06T14:00:38.000Z</time>
      </trkpt>
      <trkpt lat="47.68329" lon="-2.72149">
        <ele>28.7</ele>
        <time>2015-12-06T14:00:39.000Z</time>
      </trkpt>
      <trkpt lat="47.68332" lon="-2.72144">
        <ele>28.9</ele>
        <time>2015-12-06T14:00:40.000Z</time>
      </trkpt>
      <trkpt lat="47.68334" lon="-2.7214">
        <ele>29</ele>
        <time>2015-12-06T14:00:41.000Z</time>
      </trkpt>
      <trkpt lat="47.68336" lon="-2.72136">
        <ele>29</ele>
        <time>2015-12-06T14:00:42.000Z</time>
      </trkpt>
      <trkpt lat="47.68339" lon="-2.72131">
        <ele>29.1</ele>
        <time>2015-12-06T14:00:43.000Z</time>
      </trkpt>
      <trkpt lat="47.6834" lon="-2.72126">
        <ele>29.3</ele>
        <time>2015-12-06T14:00:44.000Z</time>
      </trkpt>
      <trkpt lat="47.68343" lon="-2.72121">
        <ele>29.4</ele>
        <time>2015-12-06T14:00:45.000Z</time>
      </trkpt>
      <trkpt lat="47.68346" lon="-2.72116">
        <ele>29.5</ele>
        <time>2015-12-06T14:00:46.000Z</time>
      </trkpt>
      <trkpt lat="47.68349" lon="-2.72111">
        <ele>29.6</ele>
        <time>2015-12-06T14:00:47.000Z</time>
      </trkpt>
      <trkpt lat="47.6835" lon="-2.72105">
        <ele>30</ele>
        <time>2015-12-06T14:00:48.000Z</time>
      </trkpt>
      <trkpt lat="47.68351" lon="-2.72099">
        <ele>30.3</ele>
        <time>2015-12-06T14:00:49.000Z</time>
      </trkpt>
      <trkpt lat="47.68353" lon="-2.72093">
        <ele>30.7</ele>
        <time>2015-12-06T14:00:50.000Z</time>
      </trkpt>
      <trkpt lat="47.68356" lon="-2.72086">
        <ele>31</ele>
        <time>2015-12-06T14:00:51.000Z</time>
      </trkpt>
      <trkpt lat="47.68358" lon="-2.72079">
        <ele>31.4</ele>
        <time>2015-12-06T14:00:52.000Z</time>
      </trkpt>
      <trkpt lat="47.68359" lon="-2.72072">
        <ele>31.9</ele>
        <time>2015-12-06T14:00:53.000Z</time>
      </trkpt>
      <trkpt lat="47.68359" lon="-2.72066">
        <ele>32.4</ele>
        <time>2015-12-06T14:00:54.000Z</time>
      </trkpt>
      <trkpt lat="47.6836" lon="-2.72059">
        <ele>32.8</ele>
        <time>2015-12-06T14:00:55.000Z</time>
      </trkpt>
      <trkpt lat="47.68362" lon="-2.72053">
        <ele>33.2</ele>
        <time>2015-12-06T14:00:56.000Z</time>
      </trkpt>
      <trkpt lat="47.68364" lon="-2.72046">
        <ele>33.6</ele>
        <time>2015-12-06T14:00:57.000Z</time>
      </trkpt>
      <trkpt lat="47.68366" lon="-2.72039">
        <ele>33.8</ele>
        <time>2015-12-06T14:00:58.000Z</time>
      </trkpt>
      <trkpt lat="47.68368" lon="-2.72031">
        <ele>33.8</ele>
        <time>2015-12-06T14:00:59.000Z</time>
      </trkpt>
      <trkpt lat="47.6837" lon="-2.72023">
        <ele>33.9</ele>
        <time>2015-12-06T14:01:00.000Z</time>
      </trkpt>
      <trkpt lat="47.6837" lon="-2.72014">
        <ele>34</ele>
        <time>2015-12-06T14:01:01.000Z</time>
      </trkpt>
      <trkpt lat="47.68369" lon="-2.72005">
        <ele>34.3</ele>
        <time>2015-12-06T14:01:02.000Z</time>
      </trkpt>
      <trkpt lat="47.68367" lon="-2.71996">
        <ele>34.6</ele>
        <time>2015-12-06T14:01:03.000Z</time>
      </trkpt>
      <trkpt lat="47.68365" lon="-2.71989">
        <ele>34.9</ele>
        <time>2015-12-06T14:01:04.000Z</time>
      </trkpt>
      <trkpt lat="47.68364" lon="-2.71981">
        <ele>35.1</ele>
        <time>2015-12-06T14:01:05.000Z</time>
      </trkpt>
      <trkpt lat="47.68363" lon="-2.71975">
        <ele>35.3</ele>
        <time>2015-12-06T14:01:06.000Z</time>
      </trkpt>
      <trkpt lat="47.68363" lon="-2.71969">
        <ele>35.4</ele>
        <time>2015-12-06T14:01:07.000Z</time>
      </trkpt>
      <trkpt lat="47.68365" lon="-2.71963">
        <ele>35.4</ele>
        <time>2015-12-06T14:01:08.000Z</time>
      </trkpt>
      <trkpt lat="47.68366" lon="-2.71958">
        <ele>35.4</ele>
        <time>2015-12-06T14:01:09.000Z</time>
      </trkpt>
      <trkpt lat="47.68369" lon="-2.71951">
        <ele>34.6</ele>
        <time>2015-12-06T14:01:10.000Z</time>
      </trkpt>
      <trkpt lat="47.68372" lon="-2.71945">
        <ele>33.9</ele>
        <time>2015-12-06T14:01:11.000Z</time>
      </trkpt>
      <trkpt lat="47.68376" lon="-2.71939">
        <ele>33</ele>
        <time>2015-12-06T14:01:12.000Z</time>
      </trkpt>
      <trkpt lat="47.68379" lon="-2.71932">
        <ele>32</ele>
        <time>2015-12-06T14:01:13.000Z</time>
      </trkpt>
      <trkpt lat="47.68383" lon="-2.71924">
        <ele>30.9</ele>
        <time>2015-12-06T14:01:14.000Z</time>
      </trkpt>
      <trkpt lat="47.68387" lon="-2.71917">
        <ele>29.8</ele>
        <time>2015-12-06T14:01:15.000Z</time>
      </trkpt>
      <trkpt lat="47.68392" lon="-2.71909">
        <ele>28.7</ele>
        <time>2015-12-06T14:01:16.000Z</time>
      </trkpt>
      <trkpt lat="47.68397" lon="-2.719">
        <ele>27.6</ele>
        <time>2015-12-06T14:01:17.000Z</time>
      </trkpt>
      <trkpt lat="47.68402" lon="-2.71892">
        <ele>26.6</ele>
        <time>2015-12-06T14:01:18.000Z</time>
      </trkpt>
      <trkpt lat="47.68408" lon="-2.71884">
        <ele>25.7</ele>
        <time>2015-12-06T14:01:19.000Z</time>
      </trkpt>
      <trkpt lat="47.68413" lon="-2.71876">
        <ele>24.8</ele>
        <time>2015-12-06T14:01:20.000Z</time>
      </trkpt>
      <trkpt lat="47.68419" lon="-2.71868">
        <ele>24.5</ele>
        <time>2015-12-06T14:01:21.000Z</time>
      </trkpt>
      <trkpt lat="47.68424" lon="-2.7186">
        <ele>24.3</ele>
        <time>2015-12-06T14:01:22.000Z</time>
      </trkpt>
      <trkpt lat="47.6843" lon="-2.71852">
        <ele>24.1</ele>
        <time>2015-12-06T14:01:23.000Z</time>
      </trkpt>
      <trkpt lat="47.68436" lon="-2.71845">
        <ele>23.9</ele>
        <time>2015-12-06T14:01:24.000Z</time>
      </trkpt>
      <trkpt lat="47.68442" lon="-2.71837">
        <ele>23.7</ele>
        <time>2015-12-06T14:01:25.000Z</time>
      </trkpt>
      <trkpt lat="47.68448" lon="-2.7183">
        <ele>23.6</ele>
        <time>2015-12-06T14:01:26.000Z</time>
      </trkpt>
      <trkpt lat="47.68454" lon="-2.71824">
        <ele>23.4</ele>
        <time>2015-12-06T14:01:27.000Z</time>
      </trkpt>
      <trkpt lat="47.6846" lon="-2.71818">
        <ele>23.4</ele>
        <time>2015-12-06T14:01:28.000Z</time>
      </trkpt>
      <trkpt lat="47.68467" lon="-2.71812">
        <ele>23.5</ele>
        <time>2015-12-06T14:01:29.000Z</time>
      </trkpt>
      <trkpt lat="47.68473" lon="-2.71807">
        <ele>23.6</ele>
        <time>2015-12-06T14:01:30.000Z</time>
      </trkpt>
      <trkpt lat="47.6848" lon="-2.71803">
        <ele>23.7</ele>
        <time>2015-12-06T14:01:31.000Z</time>
      </trkpt>
      <trkpt lat="47.68486" lon="-2.71798">
        <ele>23.8</ele>
        <time>2015-12-06T14:01:32.000Z</time>
      </trkpt>
      <trkpt lat="47.68493" lon="-2.71795">
        <ele>23.9</ele>
        <time>2015-12-06T14:01:33.000Z</time>
      </trkpt>
      <trkpt lat="47.68499" lon="-2.71791">
        <ele>24</ele>
        <time>2015-12-06T14:01:34.000Z</time>
      </trkpt>
      <trkpt lat="47.68506" lon="-2.71787">
        <ele>24.1</ele>
        <time>2015-12-06T14:01:35.000Z</time>
      </trkpt>
      <trkpt lat="47.68513" lon="-2.71783">
        <ele>24.2</ele>
        <time>2015-12-06T14:01:36.000Z</time>
      </trkpt>
      <trkpt lat="47.68519" lon="-2.7178">
        <ele>24.3</ele>
        <time>2015-12-06T14:01:37.000Z</time>
      </trkpt>
      <trkpt lat="47.68526" lon="-2.71776">
        <ele>24.4</ele>
        <time>2015-12-06T14:01:38.000Z</time>
      </trkpt>
      <trkpt lat="47.68533" lon="-2.71773">
        <ele>24.5</ele>
        <time>2015-12-06T14:01:39.000Z</time>
      </trkpt>
      <trkpt lat="47.6854" lon="-2.71769">
        <ele>24.5</ele>
        <time>2015-12-06T14:01:40.000Z</time>
      </trkpt>
      <trkpt lat="47.68546" lon="-2.71766">
        <ele>24.7</ele>
        <time>2015-12-06T14:01:41.000Z</time>
      </trkpt>
      <trkpt lat="47.68552" lon="-2.71762">
        <ele>24.8</ele>
        <time>2015-12-06T14:01:42.000Z</time>
      </trkpt>
      <trkpt lat="47.68558" lon="-2.71759">
        <ele>24.9</ele>
        <time>2015-12-06T14:01:43.000Z</time>
      </trkpt>
      <trkpt lat="47.68563" lon="-2.71757">
        <ele>25</ele>
        <time>2015-12-06T14:01:44.000Z</time>
      </trkpt>
      <trkpt lat="47.68567" lon="-2.71754">
        <ele>25.1</ele>
        <time>2015-12-06T14:01:45.000Z</time>
      </trkpt>
      <trkpt lat="47.68569" lon="-2.71753">
        <ele>25.1</ele>
        <time>2015-12-06T14:01:46.000Z</time>
      </trkpt>
      <trkpt lat="47.6857" lon="-2.71751">
        <ele>25.2</ele>
        <time>2015-12-06T14:01:47.000Z</time>
      </trkpt>
      <trkpt lat="47.68571" lon="-2.71749">
        <ele>25.2</ele>
        <time>2015-12-06T14:01:48.000Z</time>
      </trkpt>
      <trkpt lat="47.68574" lon="-2.71747">
        <ele>25.2</ele>
        <time>2015-12-06T14:01:49.000Z</time>
      </trkpt>
      <trkpt lat="47.68577" lon="-2.71745">
        <ele>25.3</ele>
        <time>2015-12-06T14:01:50.000Z</time>
      </trkpt>
      <trkpt lat="47.68581" lon="-2.71742">
        <ele>25.4</ele>
        <time>2015-12-06T14:01:51.000Z</time>
      </trkpt>
      <trkpt lat="47.68585" lon="-2.71738">
        <ele>25.5</ele>
        <time>2015-12-06T14:01:52.000Z</time>
      </trkpt>
      <trkpt lat="47.6859" lon="-2.71734">
        <ele>25.6</ele>
        <time>2015-12-06T14:01:53.000Z</time>
      </trkpt>
      <trkpt lat="47.68595" lon="-2.71731">
        <ele>25.6</ele>
        <time>2015-12-06T14:01:54.000Z</time>
      </trkpt>
      <trkpt lat="47.686" lon="-2.71727">
        <ele>25.7</ele>
        <time>2015-12-06T14:01:55.000Z</time>
      </trkpt>
      <trkpt lat="47.68605" lon="-2.71723">
        <ele>25.8</ele>
        <time>2015-12-06T14:01:56.000Z</time>
      </trkpt>
      <trkpt lat="47.68609" lon="-2.71719">
        <ele>25.8</ele>
        <time>2015-12-06T14:01:57.000Z</time>
      </trkpt>
      <trkpt lat="47.68614" lon="-2.71716">
        <ele>25.9</ele>
        <time>2015-12-06T14:01:58.000Z</time>
      </trkpt>
      <trkpt lat="47.68619" lon="-2.71712">
        <ele>26</ele>
        <time>2015-12-06T14:01:59.000Z</time>
      </trkpt>
      <trkpt lat="47.68624" lon="-2.71708">
        <ele>26</ele>
        <time>2015-12-06T14:02:00.000Z</time>
      </trkpt>
      <trkpt lat="47.68629" lon="-2.71705">
        <ele>26.2</ele>
        <time>2015-12-06T14:02:01.000Z</time>
      </trkpt>
      <trkpt lat="47.68634" lon="-2.71701">
        <ele>26.4</ele>
        <time>2015-12-06T14:02:02.000Z</time>
      </trkpt>
      <trkpt lat="47.6864" lon="-2.71696">
        <ele>26.6</ele>
        <time>2015-12-06T14:02:03.000Z</time>
      </trkpt>
      <trkpt lat="47.68646" lon="-2.71692">
        <ele>26.9</ele>
        <time>2015-12-06T14:02:04.000Z</time>
      </trkpt>
      <trkpt lat="47.68651" lon="-2.71688">
        <ele>27.1</ele>
        <time>2015-12-06T14:02:05.000Z</time>
      </trkpt>
      <trkpt lat="47.68656" lon="-2.71684">
        <ele>27.4</ele>
        <time>2015-12-06T14:02:06.000Z</time>
      </trkpt>
      <trkpt lat="47.68662" lon="-2.7168">
        <ele>27.6</ele>
        <time>2015-12-06T14:02:07.000Z</time>
      </trkpt>
      <trkpt lat="47.68668" lon="-2.71676">
        <ele>27.9</ele>
        <time>2015-12-06T14:02:08.000Z</time>
      </trkpt>
      <trkpt lat="47.68674" lon="-2.71671">
        <ele>28.2</ele>
        <time>2015-12-06T14:02:09.000Z</time>
      </trkpt>
      <trkpt lat="47.68679" lon="-2.71667">
        <ele>28.5</ele>
        <time>2015-12-06T14:02:10.000Z</time>
      </trkpt>
      <trkpt lat="47.68685" lon="-2.71662">
        <ele>28.8</ele>
        <time>2015-12-06T14:02:11.000Z</time>
      </trkpt>
      <trkpt lat="47.6869" lon="-2.71658">
        <ele>29.1</ele>
        <time>2015-12-06T14:02:12.000Z</time>
      </trkpt>
      <trkpt lat="47.68696" lon="-2.71654">
        <ele>29.3</ele>
        <time>2015-12-06T14:02:13.000Z</time>
      </trkpt>
      <trkpt lat="47.68701" lon="-2.71651">
        <ele>29.6</ele>
        <time>2015-12-06T14:02:14.000Z</time>
      </trkpt>
      <trkpt lat="47.68706" lon="-2.71647">
        <ele>29.9</ele>
        <time>2015-12-06T14:02:15.000Z</time>
      </trkpt>
      <trkpt lat="47.68709" lon="-2.71643">
        <ele>30.1</ele>
        <time>2015-12-06T14:02:16.000Z</time>
      </trkpt>
      <trkpt lat="47.68711" lon="-2.71637">
        <ele>30.3</ele>
        <time>2015-12-06T14:02:17.000Z</time>
      </trkpt>
      <trkpt lat="47.68713" lon="-2.71633">
        <ele>30.4</ele>
        <time>2015-12-06T14:02:18.000Z</time>
      </trkpt>
      <trkpt lat="47.68715" lon="-2.71629">
        <ele>30.5</ele>
        <time>2015-12-06T14:02:19.000Z</time>
      </trkpt>
      <trkpt lat="47.68718" lon="-2.71626">
        <ele>30.5</ele>
        <time>2015-12-06T14:02:20.000Z</time>
      </trkpt>
      <trkpt lat="47.68721" lon="-2.71623">
        <ele>30.5</ele>
        <time>2015-12-06T14:02:21.000Z</time>
      </trkpt>
      <trkpt lat="47.68726" lon="-2.71619">
        <ele>30.4</ele>
        <time>2015-12-06T14:02:22.000Z</time>
      </trkpt>
      <trkpt lat="47.68731" lon="-2.71614">
        <ele>30.4</ele>
        <time>2015-12-06T14:02:23.000Z</time>
      </trkpt>
      <trkpt lat="47.68737" lon="-2.71609">
        <ele>30.3</ele>
        <time>2015-12-06T14:02:24.000Z</time>
      </trkpt>
      <trkpt lat="47.68742" lon="-2.71606">
        <ele>30.3</ele>
        <time>2015-12-06T14:02:25.000Z</time>
      </trkpt>
      <trkpt lat="47.68746" lon="-2.71603">
        <ele>30.2</ele>
        <time>2015-12-06T14:02:26.000Z</time>
      </trkpt>
      <trkpt lat="47.68749" lon="-2.71599">
        <ele>30.3</ele>
        <time>2015-12-06T14:02:27.000Z</time>
      </trkpt>
      <trkpt lat="47.68753" lon="-2.71596">
        <ele>30.3</ele>
        <time>2015-12-06T14:02:28.000Z</time>
      </trkpt>
      <trkpt lat="47.68756" lon="-2.71592">
        <ele>30.3</ele>
        <time>2015-12-06T14:02:29.000Z</time>
      </trkpt>
      <trkpt lat="47.6876" lon="-2.71589">
        <ele>30.4</ele>
        <time>2015-12-06T14:02:30.000Z</time>
      </trkpt>
      <trkpt lat="47.68763" lon="-2.71586">
        <ele>30.4</ele>
        <time>2015-12-06T14:02:31.000Z</time>
      </trkpt>
      <trkpt lat="47.68767" lon="-2.71584">
        <ele>30.4</ele>
        <time>2015-12-06T14:02:32.000Z</time>
      </trkpt>
      <trkpt lat="47.68771" lon="-2.71581">
        <ele>30.4</ele>
        <time>2015-12-06T14:02:33.000Z</time>
      </trkpt>
      <trkpt lat="47.68774" lon="-2.71579">
        <ele>30.4</ele>
        <time>2015-12-06T14:02:34.000Z</time>
      </trkpt>
      <trkpt lat="47.68778" lon="-2.71576">
        <ele>30.4</ele>
        <time>2015-12-06T14:02:35.000Z</time>
      </trkpt>
      <trkpt lat="47.68781" lon="-2.71573">
        <ele>30.4</ele>
        <time>2015-12-06T14:02:36.000Z</time>
      </trkpt>
      <trkpt lat="47.68784" lon="-2.71571">
        <ele>30.5</ele>
        <time>2015-12-06T14:02:37.000Z</time>
      </trkpt>
      <trkpt lat="47.68787" lon="-2.71568">
        <ele>30.6</ele>
        <time>2015-12-06T14:02:38.000Z</time>
      </trkpt>
      <trkpt lat="47.6879" lon="-2.71565">
        <ele>30.7</ele>
        <time>2015-12-06T14:02:39.000Z</time>
      </trkpt>
      <trkpt lat="47.68793" lon="-2.71562">
        <ele>30.8</ele>
        <time>2015-12-06T14:02:40.000Z</time>
      </trkpt>
      <trkpt lat="47.68796" lon="-2.7156">
        <ele>30.8</ele>
        <time>2015-12-06T14:02:41.000Z</time>
      </trkpt>
      <trkpt lat="47.68799" lon="-2.71558">
        <ele>30.8</ele>
        <time>2015-12-06T14:02:42.000Z</time>
      </trkpt>
      <trkpt lat="47.68802" lon="-2.71557">
        <ele>30.8</ele>
        <time>2015-12-06T14:02:43.000Z</time>
      </trkpt>
      <trkpt lat="47.68805" lon="-2.71555">
        <ele>30.8</ele>
        <time>2015-12-06T14:02:44.000Z</time>
      </trkpt>
      <trkpt lat="47.68807" lon="-2.71552">
        <ele>30.9</ele>
        <time>2015-12-06T14:02:45.000Z</time>
      </trkpt>
      <trkpt lat="47.6881" lon="-2.71549">
        <ele>31</ele>
        <time>2015-12-06T14:02:46.000Z</time>
      </trkpt>
      <trkpt lat="47.68812" lon="-2.71546">
        <ele>31.1</ele>
        <time>2015-12-06T14:02:47.000Z</time>
      </trkpt>
      <trkpt lat="47.68814" lon="-2.71543">
        <ele>31.1</ele>
        <time>2015-12-06T14:02:48.000Z</time>
      </trkpt>
      <trkpt lat="47.68816" lon="-2.71539">
        <ele>31.2</ele>
        <time>2015-12-06T14:02:49.000Z</time>
      </trkpt>
      <trkpt lat="47.68818" lon="-2.71536">
        <ele>31.3</ele>
        <time>2015-12-06T14:02:50.000Z</time>
      </trkpt>
      <trkpt lat="47.6882" lon="-2.71533">
        <ele>31.4</ele>
        <time>2015-12-06T14:02:51.000Z</time>
      </trkpt>
      <trkpt lat="47.68822" lon="-2.71529">
        <ele>31.6</ele>
        <time>2015-12-06T14:02:52.000Z</time>
      </trkpt>
      <trkpt lat="47.68824" lon="-2.71525">
        <ele>31.7</ele>
        <time>2015-12-06T14:02:53.000Z</time>
      </trkpt>
      <trkpt lat="47.68826" lon="-2.71522">
        <ele>31.8</ele>
        <time>2015-12-06T14:02:54.000Z</time>
      </trkpt>
      <trkpt lat="47.68829" lon="-2.71519">
        <ele>31.9</ele>
        <time>2015-12-06T14:02:55.000Z</time>
      </trkpt>
      <trkpt lat="47.68833" lon="-2.71516">
        <ele>31.9</ele>
        <time>2015-12-06T14:02:56.000Z</time>
      </trkpt>
      <trkpt lat="47.68837" lon="-2.71513">
        <ele>32</ele>
        <time>2015-12-06T14:02:57.000Z</time>
      </trkpt>
      <trkpt lat="47.68841" lon="-2.71509">
        <ele>32</ele>
        <time>2015-12-06T14:02:58.000Z</time>
      </trkpt>
      <trkpt lat="47.68845" lon="-2.71505">
        <ele>32.1</ele>
        <time>2015-12-06T14:02:59.000Z</time>
      </trkpt>
      <trkpt lat="47.68849" lon="-2.71501">
        <ele>32.2</ele>
        <time>2015-12-06T14:03:00.000Z</time>
      </trkpt>
      <trkpt lat="47.68853" lon="-2.71495">
        <ele>32.5</ele>
        <time>2015-12-06T14:03:01.000Z</time>
      </trkpt>
      <trkpt lat="47.68855" lon="-2.71489">
        <ele>32.7</ele>
        <time>2015-12-06T14:03:02.000Z</time>
      </trkpt>
      <trkpt lat="47.68857" lon="-2.71484">
        <ele>33</ele>
        <time>2015-12-06T14:03:03.000Z</time>
      </trkpt>
      <trkpt lat="47.68859" lon="-2.71481">
        <ele>33.1</ele>
        <time>2015-12-06T14:03:04.000Z</time>
      </trkpt>
      <trkpt lat="47.68861" lon="-2.71478">
        <ele>33.2</ele>
        <time>2015-12-06T14:03:05.000Z</time>
      </trkpt>
      <trkpt lat="47.68864" lon="-2.71475">
        <ele>33.3</ele>
        <time>2015-12-06T14:03:06.000Z</time>
      </trkpt>
      <trkpt lat="47.68866" lon="-2.71472">
        <ele>33.4</ele>
        <time>2015-12-06T14:03:07.000Z</time>
      </trkpt>
      <trkpt lat="47.68868" lon="-2.71468">
        <ele>33.6</ele>
        <time>2015-12-06T14:03:08.000Z</time>
      </trkpt>
      <trkpt lat="47.68871" lon="-2.71464">
        <ele>33.8</ele>
        <time>2015-12-06T14:03:09.000Z</time>
      </trkpt>
      <trkpt lat="47.68873" lon="-2.71459">
        <ele>34</ele>
        <time>2015-12-06T14:03:10.000Z</time>
      </trkpt>
      <trkpt lat="47.68876" lon="-2.71457">
        <ele>34</ele>
        <time>2015-12-06T14:03:11.000Z</time>
      </trkpt>
      <trkpt lat="47.68879" lon="-2.71456">
        <ele>33.8</ele>
        <time>2015-12-06T14:03:12.000Z</time>
      </trkpt>
      <trkpt lat="47.68882" lon="-2.71455">
        <ele>33.7</ele>
        <time>2015-12-06T14:03:13.000Z</time>
      </trkpt>
      <trkpt lat="47.68885" lon="-2.71452">
        <ele>33.5</ele>
        <time>2015-12-06T14:03:14.000Z</time>
      </trkpt>
      <trkpt lat="47.68889" lon="-2.71448">
        <ele>33.4</ele>
        <time>2015-12-06T14:03:15.000Z</time>
      </trkpt>
      <trkpt lat="47.68892" lon="-2.71444">
        <ele>33.4</ele>
        <time>2015-12-06T14:03:16.000Z</time>
      </trkpt>
      <trkpt lat="47.68895" lon="-2.71439">
        <ele>33.4</ele>
        <time>2015-12-06T14:03:17.000Z</time>
      </trkpt>
      <trkpt lat="47.68898" lon="-2.71434">
        <ele>33.4</ele>
        <time>2015-12-06T14:03:18.000Z</time>
      </trkpt>
      <trkpt lat="47.68901" lon="-2.71429">
        <ele>33.4</ele>
        <time>2015-12-06T14:03:19.000Z</time>
      </trkpt>
      <trkpt lat="47.68905" lon="-2.71425">
        <ele>33.3</ele>
        <time>2015-12-06T14:03:20.000Z</time>
      </trkpt>
      <trkpt lat="47.68909" lon="-2.71421">
        <ele>33.3</ele>
        <time>2015-12-06T14:03:21.000Z</time>
      </trkpt>
      <trkpt lat="47.68914" lon="-2.71416">
        <ele>33.2</ele>
        <time>2015-12-06T14:03:22.000Z</time>
      </trkpt>
      <trkpt lat="47.68918" lon="-2.71411">
        <ele>33.2</ele>
        <time>2015-12-06T14:03:23.000Z</time>
      </trkpt>
      <trkpt lat="47.68921" lon="-2.71405">
        <ele>33.3</ele>
        <time>2015-12-06T14:03:24.000Z</time>
      </trkpt>
      <trkpt lat="47.68925" lon="-2.714">
        <ele>33.4</ele>
        <time>2015-12-06T14:03:25.000Z</time>
      </trkpt>
      <trkpt lat="47.68929" lon="-2.71393">
        <ele>33.5</ele>
        <time>2015-12-06T14:03:26.000Z</time>
      </trkpt>
      <trkpt lat="47.68933" lon="-2.71387">
        <ele>33.6</ele>
        <time>2015-12-06T14:03:27.000Z</time>
      </trkpt>
      <trkpt lat="47.68938" lon="-2.7138">
        <ele>33.7</ele>
        <time>2015-12-06T14:03:28.000Z</time>
      </trkpt>
      <trkpt lat="47.68942" lon="-2.71374">
        <ele>33.8</ele>
        <time>2015-12-06T14:03:29.000Z</time>
      </trkpt>
      <trkpt lat="47.68946" lon="-2.7137">
        <ele>34.2</ele>
        <time>2015-12-06T14:03:30.000Z</time>
      </trkpt>
      <trkpt lat="47.68949" lon="-2.71365">
        <ele>34.5</ele>
        <time>2015-12-06T14:03:31.000Z</time>
      </trkpt>
      <trkpt lat="47.68953" lon="-2.71361">
        <ele>34.8</ele>
        <time>2015-12-06T14:03:32.000Z</time>
      </trkpt>
      <trkpt lat="47.68956" lon="-2.71358">
        <ele>34.9</ele>
        <time>2015-12-06T14:03:33.000Z</time>
      </trkpt>
      <trkpt lat="47.68961" lon="-2.71354">
        <ele>35.1</ele>
        <time>2015-12-06T14:03:34.000Z</time>
      </trkpt>
      <trkpt lat="47.68965" lon="-2.71349">
        <ele>35.4</ele>
        <time>2015-12-06T14:03:35.000Z</time>
      </trkpt>
      <trkpt lat="47.68969" lon="-2.71344">
        <ele>35.7</ele>
        <time>2015-12-06T14:03:36.000Z</time>
      </trkpt>
      <trkpt lat="47.68973" lon="-2.71339">
        <ele>35.8</ele>
        <time>2015-12-06T14:03:37.000Z</time>
      </trkpt>
      <trkpt lat="47.68979" lon="-2.71335">
        <ele>35.9</ele>
        <time>2015-12-06T14:03:38.000Z</time>
      </trkpt>
      <trkpt lat="47.68984" lon="-2.7133">
        <ele>35.9</ele>
        <time>2015-12-06T14:03:39.000Z</time>
      </trkpt>
      <trkpt lat="47.68989" lon="-2.71325">
        <ele>36</ele>
        <time>2015-12-06T14:03:40.000Z</time>
      </trkpt>
      <trkpt lat="47.68992" lon="-2.71321">
        <ele>36.2</ele>
        <time>2015-12-06T14:03:41.000Z</time>
      </trkpt>
      <trkpt lat="47.68994" lon="-2.71316">
        <ele>36.4</ele>
        <time>2015-12-06T14:03:42.000Z</time>
      </trkpt>
      <trkpt lat="47.68997" lon="-2.71311">
        <ele>36.7</ele>
        <time>2015-12-06T14:03:43.000Z</time>
      </trkpt>
      <trkpt lat="47.68999" lon="-2.71306">
        <ele>36.9</ele>
        <time>2015-12-06T14:03:44.000Z</time>
      </trkpt>
      <trkpt lat="47.69001" lon="-2.71302">
        <ele>37.1</ele>
        <time>2015-12-06T14:03:45.000Z</time>
      </trkpt>
      <trkpt lat="47.69002" lon="-2.71298">
        <ele>37.3</ele>
        <time>2015-12-06T14:03:46.000Z</time>
      </trkpt>
      <trkpt lat="47.69004" lon="-2.71294">
        <ele>37.4</ele>
        <time>2015-12-06T14:03:47.000Z</time>
      </trkpt>
      <trkpt lat="47.69008" lon="-2.71291">
        <ele>37.3</ele>
        <time>2015-12-06T14:03:48.000Z</time>
      </trkpt>
      <trkpt lat="47.69011" lon="-2.71289">
        <ele>37.2</ele>
        <time>2015-12-06T14:03:49.000Z</time>
      </trkpt>
      <trkpt lat="47.69015" lon="-2.71287">
        <ele>37</ele>
        <time>2015-12-06T14:03:50.000Z</time>
      </trkpt>
      <trkpt lat="47.69019" lon="-2.71285">
        <ele>36.8</ele>
        <time>2015-12-06T14:03:51.000Z</time>
      </trkpt>
      <trkpt lat="47.69022" lon="-2.71283">
        <ele>36.7</ele>
        <time>2015-12-06T14:03:52.000Z</time>
      </trkpt>
      <trkpt lat="47.69026" lon="-2.71281">
        <ele>36.5</ele>
        <time>2015-12-06T14:03:53.000Z</time>
      </trkpt>
      <trkpt lat="47.6903" lon="-2.71277">
        <ele>36.4</ele>
        <time>2015-12-06T14:03:54.000Z</time>
      </trkpt>
      <trkpt lat="47.69033" lon="-2.71274">
        <ele>36.4</ele>
        <time>2015-12-06T14:03:55.000Z</time>
      </trkpt>
      <trkpt lat="47.69037" lon="-2.7127">
        <ele>36.4</ele>
        <time>2015-12-06T14:03:56.000Z</time>
      </trkpt>
      <trkpt lat="47.6904" lon="-2.71265">
        <ele>36.4</ele>
        <time>2015-12-06T14:03:57.000Z</time>
      </trkpt>
      <trkpt lat="47.69044" lon="-2.7126">
        <ele>36.6</ele>
        <time>2015-12-06T14:03:58.000Z</time>
      </trkpt>
      <trkpt lat="47.69048" lon="-2.71251">
        <ele>37</ele>
        <time>2015-12-06T14:03:59.000Z</time>
      </trkpt>
      <trkpt lat="47.69053" lon="-2.71242">
        <ele>37.5</ele>
        <time>2015-12-06T14:04:00.000Z</time>
      </trkpt>
      <trkpt lat="47.69058" lon="-2.71232">
        <ele>37.9</ele>
        <time>2015-12-06T14:04:01.000Z</time>
      </trkpt>
      <trkpt lat="47.69063" lon="-2.71224">
        <ele>38.1</ele>
        <time>2015-12-06T14:04:02.000Z</time>
      </trkpt>
      <trkpt lat="47.69067" lon="-2.71219">
        <ele>38.1</ele>
        <time>2015-12-06T14:04:03.000Z</time>
      </trkpt>
      <trkpt lat="47.69072" lon="-2.71214">
        <ele>38</ele>
        <time>2015-12-06T14:04:04.000Z</time>
      </trkpt>
      <trkpt lat="47.69077" lon="-2.71211">
        <ele>37.9</ele>
        <time>2015-12-06T14:04:05.000Z</time>
      </trkpt>
      <trkpt lat="47.69082" lon="-2.71206">
        <ele>37.7</ele>
        <time>2015-12-06T14:04:06.000Z</time>
      </trkpt>
      <trkpt lat="47.69087" lon="-2.712">
        <ele>37.4</ele>
        <time>2015-12-06T14:04:07.000Z</time>
      </trkpt>
      <trkpt lat="47.69092" lon="-2.71195">
        <ele>37.1</ele>
        <time>2015-12-06T14:04:08.000Z</time>
      </trkpt>
      <trkpt lat="47.69097" lon="-2.71189">
        <ele>36.9</ele>
        <time>2015-12-06T14:04:09.000Z</time>
      </trkpt>
      <trkpt lat="47.69102" lon="-2.71184">
        <ele>36.6</ele>
        <time>2015-12-06T14:04:10.000Z</time>
      </trkpt>
      <trkpt lat="47.69106" lon="-2.71179">
        <ele>36.4</ele>
        <time>2015-12-06T14:04:11.000Z</time>
      </trkpt>
      <trkpt lat="47.6911" lon="-2.71174">
        <ele>36.1</ele>
        <time>2015-12-06T14:04:12.000Z</time>
      </trkpt>
      <trkpt lat="47.69114" lon="-2.71169">
        <ele>35.9</ele>
        <time>2015-12-06T14:04:13.000Z</time>
      </trkpt>
      <trkpt lat="47.69119" lon="-2.71164">
        <ele>35.7</ele>
        <time>2015-12-06T14:04:14.000Z</time>
      </trkpt>
      <trkpt lat="47.69122" lon="-2.71158">
        <ele>35.4</ele>
        <time>2015-12-06T14:04:15.000Z</time>
      </trkpt>
      <trkpt lat="47.69126" lon="-2.71153">
        <ele>35.3</ele>
        <time>2015-12-06T14:04:16.000Z</time>
      </trkpt>
      <trkpt lat="47.69129" lon="-2.71147">
        <ele>35.3</ele>
        <time>2015-12-06T14:04:17.000Z</time>
      </trkpt>
      <trkpt lat="47.69134" lon="-2.71141">
        <ele>35.3</ele>
        <time>2015-12-06T14:04:18.000Z</time>
      </trkpt>
      <trkpt lat="47.69138" lon="-2.71135">
        <ele>35.3</ele>
        <time>2015-12-06T14:04:19.000Z</time>
      </trkpt>
      <trkpt lat="47.69142" lon="-2.71129">
        <ele>35.3</ele>
        <time>2015-12-06T14:04:20.000Z</time>
      </trkpt>
      <trkpt lat="47.69145" lon="-2.71124">
        <ele>35.3</ele>
        <time>2015-12-06T14:04:21.000Z</time>
      </trkpt>
      <trkpt lat="47.69149" lon="-2.7112">
        <ele>35.4</ele>
        <time>2015-12-06T14:04:22.000Z</time>
      </trkpt>
      <trkpt lat="47.69152" lon="-2.71116">
        <ele>35.5</ele>
        <time>2015-12-06T14:04:23.000Z</time>
      </trkpt>
      <trkpt lat="47.69155" lon="-2.71112">
        <ele>35.6</ele>
        <time>2015-12-06T14:04:24.000Z</time>
      </trkpt>
      <trkpt lat="47.69158" lon="-2.71108">
        <ele>35.7</ele>
        <time>2015-12-06T14:04:25.000Z</time>
      </trkpt>
      <trkpt lat="47.69161" lon="-2.71105">
        <ele>35.7</ele>
        <time>2015-12-06T14:04:26.000Z</time>
      </trkpt>
      <trkpt lat="47.69165" lon="-2.71102">
        <ele>35.8</ele>
        <time>2015-12-06T14:04:27.000Z</time>
      </trkpt>
      <trkpt lat="47.69168" lon="-2.71099">
        <ele>35.8</ele>
        <time>2015-12-06T14:04:28.000Z</time>
      </trkpt>
      <trkpt lat="47.69172" lon="-2.71095">
        <ele>35.9</ele>
        <time>2015-12-06T14:04:29.000Z</time>
      </trkpt>
      <trkpt lat="47.69176" lon="-2.7109">
        <ele>36.1</ele>
        <time>2015-12-06T14:04:30.000Z</time>
      </trkpt>
      <trkpt lat="47.69181" lon="-2.71084">
        <ele>36.3</ele>
        <time>2015-12-06T14:04:31.000Z</time>
      </trkpt>
      <trkpt lat="47.69186" lon="-2.71077">
        <ele>36.5</ele>
        <time>2015-12-06T14:04:32.000Z</time>
      </trkpt>
      <trkpt lat="47.69191" lon="-2.7107">
        <ele>36.8</ele>
        <time>2015-12-06T14:04:33.000Z</time>
      </trkpt>
      <trkpt lat="47.69196" lon="-2.71064">
        <ele>37</ele>
        <time>2015-12-06T14:04:34.000Z</time>
      </trkpt>
      <trkpt lat="47.692" lon="-2.71059">
        <ele>37.2</ele>
        <time>2015-12-06T14:04:35.000Z</time>
      </trkpt>
      <trkpt lat="47.69204" lon="-2.71053">
        <ele>37.4</ele>
        <time>2015-12-06T14:04:36.000Z</time>
      </trkpt>
      <trkpt lat="47.69207" lon="-2.71048">
        <ele>37.6</ele>
        <time>2015-12-06T14:04:37.000Z</time>
      </trkpt>
      <trkpt lat="47.69211" lon="-2.71044">
        <ele>37.7</ele>
        <time>2015-12-06T14:04:38.000Z</time>
      </trkpt>
      <trkpt lat="47.69216" lon="-2.71041">
        <ele>37.6</ele>
        <time>2015-12-06T14:04:39.000Z</time>
      </trkpt>
      <trkpt lat="47.69222" lon="-2.71039">
        <ele>37.4</ele>
        <time>2015-12-06T14:04:40.000Z</time>
      </trkpt>
      <trkpt lat="47.69227" lon="-2.71035">
        <ele>37.3</ele>
        <time>2015-12-06T14:04:41.000Z</time>
      </trkpt>
      <trkpt lat="47.69233" lon="-2.71032">
        <ele>37.3</ele>
        <time>2015-12-06T14:04:42.000Z</time>
      </trkpt>
      <trkpt lat="47.69238" lon="-2.71027">
        <ele>37.3</ele>
        <time>2015-12-06T14:04:43.000Z</time>
      </trkpt>
      <trkpt lat="47.69243" lon="-2.71022">
        <ele>37.3</ele>
        <time>2015-12-06T14:04:44.000Z</time>
      </trkpt>
      <trkpt lat="47.69249" lon="-2.71017">
        <ele>37.4</ele>
        <time>2015-12-06T14:04:45.000Z</time>
      </trkpt>
      <trkpt lat="47.69255" lon="-2.71012">
        <ele>37.4</ele>
        <time>2015-12-06T14:04:46.000Z</time>
      </trkpt>
      <trkpt lat="47.69261" lon="-2.71007">
        <ele>37.3</ele>
        <time>2015-12-06T14:04:47.000Z</time>
      </trkpt>
      <trkpt lat="47.69266" lon="-2.71002">
        <ele>37.4</ele>
        <time>2015-12-06T14:04:48.000Z</time>
      </trkpt>
      <trkpt lat="47.6927" lon="-2.70996">
        <ele>37.6</ele>
        <time>2015-12-06T14:04:49.000Z</time>
      </trkpt>
      <trkpt lat="47.69274" lon="-2.7099">
        <ele>37.8</ele>
        <time>2015-12-06T14:04:50.000Z</time>
      </trkpt>
      <trkpt lat="47.69276" lon="-2.70985">
        <ele>38</ele>
        <time>2015-12-06T14:04:51.000Z</time>
      </trkpt>
      <trkpt lat="47.69278" lon="-2.70979">
        <ele>38.4</ele>
        <time>2015-12-06T14:04:52.000Z</time>
      </trkpt>
      <trkpt lat="47.69279" lon="-2.70974">
        <ele>38.7</ele>
        <time>2015-12-06T14:04:53.000Z</time>
      </trkpt>
      <trkpt lat="47.69279" lon="-2.70969">
        <ele>39</ele>
        <time>2015-12-06T14:04:54.000Z</time>
      </trkpt>
      <trkpt lat="47.69279" lon="-2.70964">
        <ele>39.3</ele>
        <time>2015-12-06T14:04:55.000Z</time>
      </trkpt>
      <trkpt lat="47.69279" lon="-2.70959">
        <ele>39.7</ele>
        <time>2015-12-06T14:04:56.000Z</time>
      </trkpt>
      <trkpt lat="47.69279" lon="-2.70953">
        <ele>40.2</ele>
        <time>2015-12-06T14:04:57.000Z</time>
      </trkpt>
      <trkpt lat="47.6928" lon="-2.70948">
        <ele>40.7</ele>
        <time>2015-12-06T14:04:58.000Z</time>
      </trkpt>
      <trkpt lat="47.69281" lon="-2.70943">
        <ele>41.1</ele>
        <time>2015-12-06T14:04:59.000Z</time>
      </trkpt>
      <trkpt lat="47.69282" lon="-2.70938">
        <ele>41.5</ele>
        <time>2015-12-06T14:05:00.000Z</time>
      </trkpt>
      <trkpt lat="47.69283" lon="-2.70933">
        <ele>41.9</ele>
        <time>2015-12-06T14:05:01.000Z</time>
      </trkpt>
      <trkpt lat="47.69284" lon="-2.70928">
        <ele>42.3</ele>
        <time>2015-12-06T14:05:02.000Z</time>
      </trkpt>
      <trkpt lat="47.69285" lon="-2.70923">
        <ele>42.7</ele>
        <time>2015-12-06T14:05:03.000Z</time>
      </trkpt>
      <trkpt lat="47.69285" lon="-2.70918">
        <ele>43.1</ele>
        <time>2015-12-06T14:05:04.000Z</time>
      </trkpt>
      <trkpt lat="47.69286" lon="-2.70913">
        <ele>43.5</ele>
        <time>2015-12-06T14:05:05.000Z</time>
      </trkpt>
      <trkpt lat="47.69287" lon="-2.70908">
        <ele>44</ele>
        <time>2015-12-06T14:05:06.000Z</time>
      </trkpt>
      <trkpt lat="47.69289" lon="-2.70904">
        <ele>44.4</ele>
        <time>2015-12-06T14:05:07.000Z</time>
      </trkpt>
      <trkpt lat="47.6929" lon="-2.70898">
        <ele>44.8</ele>
        <time>2015-12-06T14:05:08.000Z</time>
      </trkpt>
      <trkpt lat="47.69292" lon="-2.70893">
        <ele>45.2</ele>
        <time>2015-12-06T14:05:09.000Z</time>
      </trkpt>
      <trkpt lat="47.69293" lon="-2.70888">
        <ele>45.6</ele>
        <time>2015-12-06T14:05:10.000Z</time>
      </trkpt>
      <trkpt lat="47.69296" lon="-2.70882">
        <ele>45.9</ele>
        <time>2015-12-06T14:05:11.000Z</time>
      </trkpt>
      <trkpt lat="47.69298" lon="-2.70876">
        <ele>46.1</ele>
        <time>2015-12-06T14:05:12.000Z</time>
      </trkpt>
      <trkpt lat="47.69301" lon="-2.70871">
        <ele>46.1</ele>
        <time>2015-12-06T14:05:13.000Z</time>
      </trkpt>
      <trkpt lat="47.69303" lon="-2.70865">
        <ele>46</ele>
        <time>2015-12-06T14:05:14.000Z</time>
      </trkpt>
      <trkpt lat="47.69305" lon="-2.7086">
        <ele>45.9</ele>
        <time>2015-12-06T14:05:15.000Z</time>
      </trkpt>
      <trkpt lat="47.69306" lon="-2.70854">
        <ele>45.9</ele>
        <time>2015-12-06T14:05:16.000Z</time>
      </trkpt>
      <trkpt lat="47.69308" lon="-2.70848">
        <ele>45.9</ele>
        <time>2015-12-06T14:05:17.000Z</time>
      </trkpt>
      <trkpt lat="47.69309" lon="-2.70842">
        <ele>45.9</ele>
        <time>2015-12-06T14:05:18.000Z</time>
      </trkpt>
      <trkpt lat="47.69311" lon="-2.70836">
        <ele>46</ele>
        <time>2015-12-06T14:05:19.000Z</time>
      </trkpt>
      <trkpt lat="47.69311" lon="-2.7083">
        <ele>46.1</ele>
        <time>2015-12-06T14:05:20.000Z</time>
      </trkpt>
      <trkpt lat="47.69312" lon="-2.70825">
        <ele>46.2</ele>
        <time>2015-12-06T14:05:21.000Z</time>
      </trkpt>
      <trkpt lat="47.69313" lon="-2.70819">
        <ele>46.3</ele>
        <time>2015-12-06T14:05:22.000Z</time>
      </trkpt>
      <trkpt lat="47.69313" lon="-2.70813">
        <ele>46.5</ele>
        <time>2015-12-06T14:05:23.000Z</time>
      </trkpt>
      <trkpt lat="47.69313" lon="-2.70807">
        <ele>46.7</ele>
        <time>2015-12-06T14:05:24.000Z</time>
      </trkpt>
      <trkpt lat="47.69312" lon="-2.70802">
        <ele>46.9</ele>
        <time>2015-12-06T14:05:25.000Z</time>
      </trkpt>
      <trkpt lat="47.69311" lon="-2.70797">
        <ele>47.2</ele>
        <time>2015-12-06T14:05:26.000Z</time>
      </trkpt>
      <trkpt lat="47.6931" lon="-2.70791">
        <ele>47.4</ele>
        <time>2015-12-06T14:05:27.000Z</time>
      </trkpt>
      <trkpt lat="47.69309" lon="-2.70786">
        <ele>47.7</ele>
        <time>2015-12-06T14:05:28.000Z</time>
      </trkpt>
      <trkpt lat="47.69308" lon="-2.7078">
        <ele>47.9</ele>
        <time>2015-12-06T14:05:29.000Z</time>
      </trkpt>
      <trkpt lat="47.69306" lon="-2.70775">
        <ele>48</ele>
        <time>2015-12-06T14:05:30.000Z</time>
      </trkpt>
      <trkpt lat="47.69305" lon="-2.7077">
        <ele>48.2</ele>
        <time>2015-12-06T14:05:31.000Z</time>
      </trkpt>
      <trkpt lat="47.69304" lon="-2.70765">
        <ele>48.4</ele>
        <time>2015-12-06T14:05:32.000Z</time>
      </trkpt>
      <trkpt lat="47.69302" lon="-2.70759">
        <ele>48.5</ele>
        <time>2015-12-06T14:05:33.000Z</time>
      </trkpt>
      <trkpt lat="47.69301" lon="-2.70754">
        <ele>48.6</ele>
        <time>2015-12-06T14:05:34.000Z</time>
      </trkpt>
      <trkpt lat="47.693" lon="-2.70749">
        <ele>48.7</ele>
        <time>2015-12-06T14:05:35.000Z</time>
      </trkpt>
      <trkpt lat="47.69298" lon="-2.70744">
        <ele>48.8</ele>
        <time>2015-12-06T14:05:36.000Z</time>
      </trkpt>
      <trkpt lat="47.69297" lon="-2.7074">
        <ele>48.9</ele>
        <time>2015-12-06T14:05:37.000Z</time>
      </trkpt>
      <trkpt lat="47.69295" lon="-2.70735">
        <ele>48.9</ele>
        <time>2015-12-06T14:05:38.000Z</time>
      </trkpt>
      <trkpt lat="47.69294" lon="-2.70731">
        <ele>49</ele>
        <time>2015-12-06T14:05:39.000Z</time>
      </trkpt>
      <trkpt lat="47.69293" lon="-2.70727">
        <ele>49</ele>
        <time>2015-12-06T14:05:40.000Z</time>
      </trkpt>
      <trkpt lat="47.69292" lon="-2.70723">
        <ele>49</ele>
        <time>2015-12-06T14:05:41.000Z</time>
      </trkpt>
      <trkpt lat="47.69291" lon="-2.70718">
        <ele>49</ele>
        <time>2015-12-06T14:05:42.000Z</time>
      </trkpt>
      <trkpt lat="47.69291" lon="-2.70714">
        <ele>49</ele>
        <time>2015-12-06T14:05:43.000Z</time>
      </trkpt>
      <trkpt lat="47.69291" lon="-2.7071">
        <ele>49</ele>
        <time>2015-12-06T14:05:44.000Z</time>
      </trkpt>
      <trkpt lat="47.69293" lon="-2.70707">
        <ele>49.1</ele>
        <time>2015-12-06T14:05:45.000Z</time>
      </trkpt>
      <trkpt lat="47.69295" lon="-2.70703">
        <ele>49.2</ele>
        <time>2015-12-06T14:05:46.000Z</time>
      </trkpt>
      <trkpt lat="47.69297" lon="-2.70701">
        <ele>49.3</ele>
        <time>2015-12-06T14:05:47.000Z</time>
      </trkpt>
      <trkpt lat="47.693" lon="-2.70698">
        <ele>49.4</ele>
        <time>2015-12-06T14:05:48.000Z</time>
      </trkpt>
      <trkpt lat="47.69302" lon="-2.70695">
        <ele>49.5</ele>
        <time>2015-12-06T14:05:49.000Z</time>
      </trkpt>
      <trkpt lat="47.69304" lon="-2.70693">
        <ele>49.6</ele>
        <time>2015-12-06T14:05:50.000Z</time>
      </trkpt>
      <trkpt lat="47.69306" lon="-2.70691">
        <ele>49.7</ele>
        <time>2015-12-06T14:05:51.000Z</time>
      </trkpt>
      <trkpt lat="47.69308" lon="-2.70689">
        <ele>49.7</ele>
        <time>2015-12-06T14:05:52.000Z</time>
      </trkpt>
      <trkpt lat="47.6931" lon="-2.70688">
        <ele>49.8</ele>
        <time>2015-12-06T14:05:53.000Z</time>
      </trkpt>
      <trkpt lat="47.69312" lon="-2.70687">
        <ele>49.9</ele>
        <time>2015-12-06T14:05:54.000Z</time>
      </trkpt>
      <trkpt lat="47.69314" lon="-2.70686">
        <ele>50</ele>
        <time>2015-12-06T14:05:55.000Z</time>
      </trkpt>
      <trkpt lat="47.69316" lon="-2.70685">
        <ele>50</ele>
        <time>2015-12-06T14:05:56.000Z</time>
      </trkpt>
      <trkpt lat="47.69317" lon="-2.70683">
        <ele>50.1</ele>
        <time>2015-12-06T14:05:57.000Z</time>
      </trkpt>
      <trkpt lat="47.69318" lon="-2.70682">
        <ele>50.1</ele>
        <time>2015-12-06T14:05:58.000Z</time>
      </trkpt>
      <trkpt lat="47.69319" lon="-2.70681">
        <ele>50.2</ele>
        <time>2015-12-06T14:05:59.000Z</time>
      </trkpt>
      <trkpt lat="47.6932" lon="-2.70681">
        <ele>50.2</ele>
        <time>2015-12-06T14:06:00.000Z</time>
      </trkpt>
      <trkpt lat="47.69322" lon="-2.70679">
        <ele>50.3</ele>
        <time>2015-12-06T14:06:01.000Z</time>
      </trkpt>
      <trkpt lat="47.69323" lon="-2.70678">
        <ele>50.4</ele>
        <time>2015-12-06T14:06:02.000Z</time>
      </trkpt>
      <trkpt lat="47.69325" lon="-2.70677">
        <ele>50.4</ele>
        <time>2015-12-06T14:06:03.000Z</time>
      </trkpt>
      <trkpt lat="47.69326" lon="-2.70676">
        <ele>50.5</ele>
        <time>2015-12-06T14:06:04.000Z</time>
      </trkpt>
      <trkpt lat="47.69328" lon="-2.70674">
        <ele>50.6</ele>
        <time>2015-12-06T14:06:05.000Z</time>
      </trkpt>
      <trkpt lat="47.6933" lon="-2.70673">
        <ele>50.7</ele>
        <time>2015-12-06T14:06:06.000Z</time>
      </trkpt>
      <trkpt lat="47.69332" lon="-2.70672">
        <ele>50.8</ele>
        <time>2015-12-06T14:06:07.000Z</time>
      </trkpt>
      <trkpt lat="47.69333" lon="-2.70671">
        <ele>50.9</ele>
        <time>2015-12-06T14:06:08.000Z</time>
      </trkpt>
      <trkpt lat="47.69334" lon="-2.70669">
        <ele>50.9</ele>
        <time>2015-12-06T14:06:09.000Z</time>
      </trkpt>
      <trkpt lat="47.69336" lon="-2.70667">
        <ele>51</ele>
        <time>2015-12-06T14:06:10.000Z</time>
      </trkpt>
      <trkpt lat="47.69338" lon="-2.70665">
        <ele>51.2</ele>
        <time>2015-12-06T14:06:11.000Z</time>
      </trkpt>
      <trkpt lat="47.6934" lon="-2.70663">
        <ele>51.3</ele>
        <time>2015-12-06T14:06:12.000Z</time>
      </trkpt>
      <trkpt lat="47.69342" lon="-2.7066">
        <ele>51.4</ele>
        <time>2015-12-06T14:06:13.000Z</time>
      </trkpt>
      <trkpt lat="47.69344" lon="-2.70658">
        <ele>51.6</ele>
        <time>2015-12-06T14:06:14.000Z</time>
      </trkpt>
      <trkpt lat="47.69345" lon="-2.70657">
        <ele>51.7</ele>
        <time>2015-12-06T14:06:15.000Z</time>
      </trkpt>
      <trkpt lat="47.69347" lon="-2.70656">
        <ele>51.8</ele>
        <time>2015-12-06T14:06:16.000Z</time>
      </trkpt>
      <trkpt lat="47.69349" lon="-2.70654">
        <ele>51.9</ele>
        <time>2015-12-06T14:06:17.000Z</time>
      </trkpt>
      <trkpt lat="47.6935" lon="-2.70653">
        <ele>52</ele>
        <time>2015-12-06T14:06:18.000Z</time>
      </trkpt>
      <trkpt lat="47.69352" lon="-2.70651">
        <ele>52.1</ele>
        <time>2015-12-06T14:06:19.000Z</time>
      </trkpt>
      <trkpt lat="47.69353" lon="-2.7065">
        <ele>52.2</ele>
        <time>2015-12-06T14:06:20.000Z</time>
      </trkpt>
      <trkpt lat="47.69354" lon="-2.70649">
        <ele>52.3</ele>
        <time>2015-12-06T14:06:21.000Z</time>
      </trkpt>
      <trkpt lat="47.69355" lon="-2.70648">
        <ele>52.3</ele>
        <time>2015-12-06T14:06:22.000Z</time>
      </trkpt>
      <trkpt lat="47.69357" lon="-2.70647">
        <ele>52.4</ele>
        <time>2015-12-06T14:06:23.000Z</time>
      </trkpt>
      <trkpt lat="47.69359" lon="-2.70646">
        <ele>52.5</ele>
        <time>2015-12-06T14:06:24.000Z</time>
      </trkpt>
      <trkpt lat="47.6936" lon="-2.70645">
        <ele>52.6</ele>
        <time>2015-12-06T14:06:25.000Z</time>
      </trkpt>
      <trkpt lat="47.69361" lon="-2.70644">
        <ele>52.7</ele>
        <time>2015-12-06T14:06:26.000Z</time>
      </trkpt>
      <trkpt lat="47.69363" lon="-2.70643">
        <ele>52.7</ele>
        <time>2015-12-06T14:06:27.000Z</time>
      </trkpt>
      <trkpt lat="47.69364" lon="-2.70642">
        <ele>52.8</ele>
        <time>2015-12-06T14:06:28.000Z</time>
      </trkpt>
      <trkpt lat="47.69365" lon="-2.70642">
        <ele>52.9</ele>
        <time>2015-12-06T14:06:29.000Z</time>
      </trkpt>
      <trkpt lat="47.69367" lon="-2.70641">
        <ele>53</ele>
        <time>2015-12-06T14:06:30.000Z</time>
      </trkpt>
      <trkpt lat="47.69368" lon="-2.7064">
        <ele>53.1</ele>
        <time>2015-12-06T14:06:31.000Z</time>
      </trkpt>
      <trkpt lat="47.6937" lon="-2.70639">
        <ele>53.2</ele>
        <time>2015-12-06T14:06:32.000Z</time>
      </trkpt>
      <trkpt lat="47.69371" lon="-2.70637">
        <ele>53.3</ele>
        <time>2015-12-06T14:06:33.000Z</time>
      </trkpt>
      <trkpt lat="47.69373" lon="-2.70636">
        <ele>53.4</ele>
        <time>2015-12-06T14:06:34.000Z</time>
      </trkpt>
      <trkpt lat="47.69374" lon="-2.70636">
        <ele>53.5</ele>
        <time>2015-12-06T14:06:35.000Z</time>
      </trkpt>
      <trkpt lat="47.69376" lon="-2.70635">
        <ele>53.6</ele>
        <time>2015-12-06T14:06:36.000Z</time>
      </trkpt>
      <trkpt lat="47.69378" lon="-2.70635">
        <ele>53.7</ele>
        <time>2015-12-06T14:06:37.000Z</time>
      </trkpt>
      <trkpt lat="47.69379" lon="-2.70634">
        <ele>53.9</ele>
        <time>2015-12-06T14:06:38.000Z</time>
      </trkpt>
      <trkpt lat="47.69381" lon="-2.70633">
        <ele>54</ele>
        <time>2015-12-06T14:06:39.000Z</time>
      </trkpt>
      <trkpt lat="47.69384" lon="-2.70633">
        <ele>54.2</ele>
        <time>2015-12-06T14:06:40.000Z</time>
      </trkpt>
      <trkpt lat="47.69386" lon="-2.70632">
        <ele>54.4</ele>
        <time>2015-12-06T14:06:41.000Z</time>
      </trkpt>
      <trkpt lat="47.69388" lon="-2.70632">
        <ele>54.5</ele>
        <time>2015-12-06T14:06:42.000Z</time>
      </trkpt>
      <trkpt lat="47.69389" lon="-2.70632">
        <ele>54.7</ele>
        <time>2015-12-06T14:06:43.000Z</time>
      </trkpt>
      <trkpt lat="47.69391" lon="-2.70632">
        <ele>54.8</ele>
        <time>2015-12-06T14:06:44.000Z</time>
      </trkpt>
      <trkpt lat="47.69393" lon="-2.70632">
        <ele>54.9</ele>
        <time>2015-12-06T14:06:45.000Z</time>
      </trkpt>
      <trkpt lat="47.69395" lon="-2.70631">
        <ele>55.1</ele>
        <time>2015-12-06T14:06:46.000Z</time>
      </trkpt>
      <trkpt lat="47.69397" lon="-2.70631">
        <ele>55.2</ele>
        <time>2015-12-06T14:06:47.000Z</time>
      </trkpt>
      <trkpt lat="47.69399" lon="-2.7063">
        <ele>55.4</ele>
        <time>2015-12-06T14:06:48.000Z</time>
      </trkpt>
      <trkpt lat="47.69402" lon="-2.7063">
        <ele>55.6</ele>
        <time>2015-12-06T14:06:49.000Z</time>
      </trkpt>
      <trkpt lat="47.69403" lon="-2.70629">
        <ele>55.8</ele>
        <time>2015-12-06T14:06:50.000Z</time>
      </trkpt>
      <trkpt lat="47.69405" lon="-2.70628">
        <ele>56</ele>
        <time>2015-12-06T14:06:51.000Z</time>
      </trkpt>
      <trkpt lat="47.69407" lon="-2.70627">
        <ele>56.2</ele>
        <time>2015-12-06T14:06:52.000Z</time>
      </trkpt>
      <trkpt lat="47.69409" lon="-2.70625">
        <ele>56.4</ele>
        <time>2015-12-06T14:06:53.000Z</time>
      </trkpt>
      <trkpt lat="47.69411" lon="-2.70624">
        <ele>56.7</ele>
        <time>2015-12-06T14:06:54.000Z</time>
      </trkpt>
      <trkpt lat="47.69412" lon="-2.70622">
        <ele>57</ele>
        <time>2015-12-06T14:06:55.000Z</time>
      </trkpt>
      <trkpt lat="47.69414" lon="-2.7062">
        <ele>57.3</ele>
        <time>2015-12-06T14:06:56.000Z</time>
      </trkpt>
      <trkpt lat="47.69416" lon="-2.70618">
        <ele>57.6</ele>
        <time>2015-12-06T14:06:57.000Z</time>
      </trkpt>
      <trkpt lat="47.69418" lon="-2.70616">
        <ele>57.9</ele>
        <time>2015-12-06T14:06:58.000Z</time>
      </trkpt>
      <trkpt lat="47.6942" lon="-2.70614">
        <ele>58.3</ele>
        <time>2015-12-06T14:06:59.000Z</time>
      </trkpt>
      <trkpt lat="47.69423" lon="-2.70612">
        <ele>58.7</ele>
        <time>2015-12-06T14:07:00.000Z</time>
      </trkpt>
      <trkpt lat="47.69425" lon="-2.70609">
        <ele>59.1</ele>
        <time>2015-12-06T14:07:01.000Z</time>
      </trkpt>
      <trkpt lat="47.69428" lon="-2.70607">
        <ele>59.5</ele>
        <time>2015-12-06T14:07:02.000Z</time>
      </trkpt>
      <trkpt lat="47.6943" lon="-2.70605">
        <ele>59.9</ele>
        <time>2015-12-06T14:07:03.000Z</time>
      </trkpt>
      <trkpt lat="47.69433" lon="-2.70602">
        <ele>60.2</ele>
        <time>2015-12-06T14:07:04.000Z</time>
      </trkpt>
      <trkpt lat="47.69435" lon="-2.706">
        <ele>60.6</ele>
        <time>2015-12-06T14:07:05.000Z</time>
      </trkpt>
      <trkpt lat="47.69437" lon="-2.70598">
        <ele>60.9</ele>
        <time>2015-12-06T14:07:06.000Z</time>
      </trkpt>
      <trkpt lat="47.69439" lon="-2.70596">
        <ele>61.3</ele>
        <time>2015-12-06T14:07:07.000Z</time>
      </trkpt>
      <trkpt lat="47.69442" lon="-2.70594">
        <ele>61.6</ele>
        <time>2015-12-06T14:07:08.000Z</time>
      </trkpt>
      <trkpt lat="47.69445" lon="-2.70591">
        <ele>62</ele>
        <time>2015-12-06T14:07:09.000Z</time>
      </trkpt>
      <trkpt lat="47.69447" lon="-2.70589">
        <ele>62.3</ele>
        <time>2015-12-06T14:07:10.000Z</time>
      </trkpt>
      <trkpt lat="47.69449" lon="-2.70587">
        <ele>62.7</ele>
        <time>2015-12-06T14:07:11.000Z</time>
      </trkpt>
      <trkpt lat="47.69452" lon="-2.70584">
        <ele>63.1</ele>
        <time>2015-12-06T14:07:12.000Z</time>
      </trkpt>
      <trkpt lat="47.69454" lon="-2.70581">
        <ele>63.4</ele>
        <time>2015-12-06T14:07:13.000Z</time>
      </trkpt>
      <trkpt lat="47.69457" lon="-2.70579">
        <ele>63.8</ele>
        <time>2015-12-06T14:07:14.000Z</time>
      </trkpt>
      <trkpt lat="47.6946" lon="-2.70577">
        <ele>64</ele>
        <time>2015-12-06T14:07:15.000Z</time>
      </trkpt>
      <trkpt lat="47.69463" lon="-2.70575">
        <ele>64.2</ele>
        <time>2015-12-06T14:07:16.000Z</time>
      </trkpt>
      <trkpt lat="47.69467" lon="-2.70572">
        <ele>64.4</ele>
        <time>2015-12-06T14:07:17.000Z</time>
      </trkpt>
      <trkpt lat="47.6947" lon="-2.7057">
        <ele>64.5</ele>
        <time>2015-12-06T14:07:18.000Z</time>
      </trkpt>
      <trkpt lat="47.69474" lon="-2.70569">
        <ele>64.7</ele>
        <time>2015-12-06T14:07:19.000Z</time>
      </trkpt>
      <trkpt lat="47.69477" lon="-2.70567">
        <ele>64.8</ele>
        <time>2015-12-06T14:07:20.000Z</time>
      </trkpt>
      <trkpt lat="47.6948" lon="-2.70565">
        <ele>65</ele>
        <time>2015-12-06T14:07:21.000Z</time>
      </trkpt>
      <trkpt lat="47.69484" lon="-2.70564">
        <ele>65.1</ele>
        <time>2015-12-06T14:07:22.000Z</time>
      </trkpt>
      <trkpt lat="47.69487" lon="-2.70563">
        <ele>65.1</ele>
        <time>2015-12-06T14:07:23.000Z</time>
      </trkpt>
      <trkpt lat="47.69491" lon="-2.70562">
        <ele>65.2</ele>
        <time>2015-12-06T14:07:24.000Z</time>
      </trkpt>
      <trkpt lat="47.69494" lon="-2.70562">
        <ele>65.2</ele>
        <time>2015-12-06T14:07:25.000Z</time>
      </trkpt>
      <trkpt lat="47.69498" lon="-2.70561">
        <ele>65.3</ele>
        <time>2015-12-06T14:07:26.000Z</time>
      </trkpt>
      <trkpt lat="47.69501" lon="-2.7056">
        <ele>65.3</ele>
        <time>2015-12-06T14:07:27.000Z</time>
      </trkpt>
      <trkpt lat="47.69505" lon="-2.7056">
        <ele>65.4</ele>
        <time>2015-12-06T14:07:28.000Z</time>
      </trkpt>
      <trkpt lat="47.69508" lon="-2.70559">
        <ele>65.4</ele>
        <time>2015-12-06T14:07:29.000Z</time>
      </trkpt>
      <trkpt lat="47.69511" lon="-2.70559">
        <ele>65.4</ele>
        <time>2015-12-06T14:07:30.000Z</time>
      </trkpt>
      <trkpt lat="47.69515" lon="-2.70558">
        <ele>65.5</ele>
        <time>2015-12-06T14:07:31.000Z</time>
      </trkpt>
      <trkpt lat="47.69518" lon="-2.70557">
        <ele>65.6</ele>
        <time>2015-12-06T14:07:32.000Z</time>
      </trkpt>
      <trkpt lat="47.69522" lon="-2.70556">
        <ele>65.6</ele>
        <time>2015-12-06T14:07:33.000Z</time>
      </trkpt>
      <trkpt lat="47.69525" lon="-2.70556">
        <ele>65.7</ele>
        <time>2015-12-06T14:07:34.000Z</time>
      </trkpt>
      <trkpt lat="47.69528" lon="-2.70555">
        <ele>65.7</ele>
        <time>2015-12-06T14:07:35.000Z</time>
      </trkpt>
      <trkpt lat="47.69532" lon="-2.70555">
        <ele>65.8</ele>
        <time>2015-12-06T14:07:36.000Z</time>
      </trkpt>
      <trkpt lat="47.69535" lon="-2.70554">
        <ele>65.8</ele>
        <time>2015-12-06T14:07:37.000Z</time>
      </trkpt>
      <trkpt lat="47.69539" lon="-2.70553">
        <ele>65.9</ele>
        <time>2015-12-06T14:07:38.000Z</time>
      </trkpt>
      <trkpt lat="47.69542" lon="-2.70552">
        <ele>66</ele>
        <time>2015-12-06T14:07:39.000Z</time>
      </trkpt>
      <trkpt lat="47.69545" lon="-2.70552">
        <ele>66.3</ele>
        <time>2015-12-06T14:07:40.000Z</time>
      </trkpt>
      <trkpt lat="47.69548" lon="-2.70551">
        <ele>66.6</ele>
        <time>2015-12-06T14:07:41.000Z</time>
      </trkpt>
      <trkpt lat="47.69551" lon="-2.70551">
        <ele>66.8</ele>
        <time>2015-12-06T14:07:42.000Z</time>
      </trkpt>
      <trkpt lat="47.69553" lon="-2.7055">
        <ele>67.1</ele>
        <time>2015-12-06T14:07:43.000Z</time>
      </trkpt>
      <trkpt lat="47.69556" lon="-2.70549">
        <ele>67.3</ele>
        <time>2015-12-06T14:07:44.000Z</time>
      </trkpt>
      <trkpt lat="47.69558" lon="-2.70548">
        <ele>67.6</ele>
        <time>2015-12-06T14:07:45.000Z</time>
      </trkpt>
      <trkpt lat="47.69561" lon="-2.70548">
        <ele>67.8</ele>
        <time>2015-12-06T14:07:46.000Z</time>
      </trkpt>
      <trkpt lat="47.69563" lon="-2.70547">
        <ele>68</ele>
        <time>2015-12-06T14:07:47.000Z</time>
      </trkpt>
      <trkpt lat="47.69565" lon="-2.70547">
        <ele>68.2</ele>
        <time>2015-12-06T14:07:48.000Z</time>
      </trkpt>
      <trkpt lat="47.69568" lon="-2.70547">
        <ele>68.5</ele>
        <time>2015-12-06T14:07:49.000Z</time>
      </trkpt>
      <trkpt lat="47.69571" lon="-2.70546">
        <ele>68.7</ele>
        <time>2015-12-06T14:07:50.000Z</time>
      </trkpt>
      <trkpt lat="47.69573" lon="-2.70546">
        <ele>68.9</ele>
        <time>2015-12-06T14:07:51.000Z</time>
      </trkpt>
      <trkpt lat="47.69575" lon="-2.70546">
        <ele>69.1</ele>
        <time>2015-12-06T14:07:52.000Z</time>
      </trkpt>
      <trkpt lat="47.69578" lon="-2.70545">
        <ele>69.3</ele>
        <time>2015-12-06T14:07:53.000Z</time>
      </trkpt>
      <trkpt lat="47.6958" lon="-2.70544">
        <ele>69.5</ele>
        <time>2015-12-06T14:07:54.000Z</time>
      </trkpt>
      <trkpt lat="47.69582" lon="-2.70544">
        <ele>69.8</ele>
        <time>2015-12-06T14:07:55.000Z</time>
      </trkpt>
      <trkpt lat="47.69584" lon="-2.70543">
        <ele>70</ele>
        <time>2015-12-06T14:07:56.000Z</time>
      </trkpt>
      <trkpt lat="47.69587" lon="-2.70542">
        <ele>70.2</ele>
        <time>2015-12-06T14:07:57.000Z</time>
      </trkpt>
      <trkpt lat="47.69589" lon="-2.70541">
        <ele>70.4</ele>
        <time>2015-12-06T14:07:58.000Z</time>
      </trkpt>
      <trkpt lat="47.69592" lon="-2.7054">
        <ele>70.7</ele>
        <time>2015-12-06T14:07:59.000Z</time>
      </trkpt>
      <trkpt lat="47.69594" lon="-2.70539">
        <ele>71</ele>
        <time>2015-12-06T14:08:00.000Z</time>
      </trkpt>
      <trkpt lat="47.69597" lon="-2.70537">
        <ele>71.3</ele>
        <time>2015-12-06T14:08:01.000Z</time>
      </trkpt>
      <trkpt lat="47.696" lon="-2.70535">
        <ele>71.7</ele>
        <time>2015-12-06T14:08:02.000Z</time>
      </trkpt>
      <trkpt lat="47.69602" lon="-2.70533">
        <ele>72</ele>
        <time>2015-12-06T14:08:03.000Z</time>
      </trkpt>
      <trkpt lat="47.69605" lon="-2.70531">
        <ele>72.3</ele>
        <time>2015-12-06T14:08:04.000Z</time>
      </trkpt>
      <trkpt lat="47.69607" lon="-2.70528">
        <ele>72.6</ele>
        <time>2015-12-06T14:08:05.000Z</time>
      </trkpt>
      <trkpt lat="47.6961" lon="-2.70526">
        <ele>73</ele>
        <time>2015-12-06T14:08:06.000Z</time>
      </trkpt>
      <trkpt lat="47.69613" lon="-2.70524">
        <ele>73.3</ele>
        <time>2015-12-06T14:08:07.000Z</time>
      </trkpt>
      <trkpt lat="47.69615" lon="-2.70522">
        <ele>73.5</ele>
        <time>2015-12-06T14:08:08.000Z</time>
      </trkpt>
      <trkpt lat="47.69618" lon="-2.70521">
        <ele>73.8</ele>
        <time>2015-12-06T14:08:09.000Z</time>
      </trkpt>
      <trkpt lat="47.69621" lon="-2.70519">
        <ele>74.1</ele>
        <time>2015-12-06T14:08:10.000Z</time>
      </trkpt>
      <trkpt lat="47.69623" lon="-2.70516">
        <ele>74.4</ele>
        <time>2015-12-06T14:08:11.000Z</time>
      </trkpt>
      <trkpt lat="47.69625" lon="-2.70512">
        <ele>74.8</ele>
        <time>2015-12-06T14:08:12.000Z</time>
      </trkpt>
      <trkpt lat="47.69627" lon="-2.70509">
        <ele>74.9</ele>
        <time>2015-12-06T14:08:13.000Z</time>
      </trkpt>
      <trkpt lat="47.69629" lon="-2.70505">
        <ele>75</ele>
        <time>2015-12-06T14:08:14.000Z</time>
      </trkpt>
      <trkpt lat="47.69631" lon="-2.70502">
        <ele>75.2</ele>
        <time>2015-12-06T14:08:15.000Z</time>
      </trkpt>
      <trkpt lat="47.69633" lon="-2.70498">
        <ele>75.4</ele>
        <time>2015-12-06T14:08:16.000Z</time>
      </trkpt>
      <trkpt lat="47.69635" lon="-2.70493">
        <ele>75.6</ele>
        <time>2015-12-06T14:08:17.000Z</time>
      </trkpt>
      <trkpt lat="47.69637" lon="-2.70488">
        <ele>75.9</ele>
        <time>2015-12-06T14:08:18.000Z</time>
      </trkpt>
      <trkpt lat="47.69639" lon="-2.70483">
        <ele>76.2</ele>
        <time>2015-12-06T14:08:19.000Z</time>
      </trkpt>
      <trkpt lat="47.69641" lon="-2.70476">
        <ele>76.5</ele>
        <time>2015-12-06T14:08:20.000Z</time>
      </trkpt>
      <trkpt lat="47.69643" lon="-2.7047">
        <ele>76.8</ele>
        <time>2015-12-06T14:08:21.000Z</time>
      </trkpt>
      <trkpt lat="47.69645" lon="-2.70464">
        <ele>77.2</ele>
        <time>2015-12-06T14:08:22.000Z</time>
      </trkpt>
      <trkpt lat="47.69646" lon="-2.70457">
        <ele>77.6</ele>
        <time>2015-12-06T14:08:23.000Z</time>
      </trkpt>
      <trkpt lat="47.69647" lon="-2.7045">
        <ele>77.8</ele>
        <time>2015-12-06T14:08:24.000Z</time>
      </trkpt>
      <trkpt lat="47.69648" lon="-2.70442">
        <ele>78.2</ele>
        <time>2015-12-06T14:08:25.000Z</time>
      </trkpt>
      <trkpt lat="47.69648" lon="-2.70434">
        <ele>78.5</ele>
        <time>2015-12-06T14:08:26.000Z</time>
      </trkpt>
      <trkpt lat="47.69649" lon="-2.70426">
        <ele>78.8</ele>
        <time>2015-12-06T14:08:27.000Z</time>
      </trkpt>
      <trkpt lat="47.6965" lon="-2.70417">
        <ele>79.1</ele>
        <time>2015-12-06T14:08:28.000Z</time>
      </trkpt>
      <trkpt lat="47.6965" lon="-2.70408">
        <ele>79.3</ele>
        <time>2015-12-06T14:08:29.000Z</time>
      </trkpt>
      <trkpt lat="47.69652" lon="-2.70399">
        <ele>79.5</ele>
        <time>2015-12-06T14:08:30.000Z</time>
      </trkpt>
      <trkpt lat="47.69654" lon="-2.7039">
        <ele>79.7</ele>
        <time>2015-12-06T14:08:31.000Z</time>
      </trkpt>
      <trkpt lat="47.69656" lon="-2.7038">
        <ele>79.7</ele>
        <time>2015-12-06T14:08:32.000Z</time>
      </trkpt>
      <trkpt lat="47.69659" lon="-2.70368">
        <ele>79.5</ele>
        <time>2015-12-06T14:08:33.000Z</time>
      </trkpt>
      <trkpt lat="47.69661" lon="-2.70355">
        <ele>78.9</ele>
        <time>2015-12-06T14:08:34.000Z</time>
      </trkpt>
      <trkpt lat="47.69662" lon="-2.70342">
        <ele>78.5</ele>
        <time>2015-12-06T14:08:35.000Z</time>
      </trkpt>
      <trkpt lat="47.69662" lon="-2.7033">
        <ele>78.2</ele>
        <time>2015-12-06T14:08:36.000Z</time>
      </trkpt>
      <trkpt lat="47.69663" lon="-2.7032">
        <ele>77.9</ele>
        <time>2015-12-06T14:08:37.000Z</time>
      </trkpt>
      <trkpt lat="47.69665" lon="-2.70311">
        <ele>77.2</ele>
        <time>2015-12-06T14:08:38.000Z</time>
      </trkpt>
      <trkpt lat="47.69669" lon="-2.70302">
        <ele>76.3</ele>
        <time>2015-12-06T14:08:39.000Z</time>
      </trkpt>
      <trkpt lat="47.69674" lon="-2.70297">
        <ele>75</ele>
        <time>2015-12-06T14:08:40.000Z</time>
      </trkpt>
      <trkpt lat="47.69677" lon="-2.70297">
        <ele>74.3</ele>
        <time>2015-12-06T14:08:41.000Z</time>
      </trkpt>
      <trkpt lat="47.6968" lon="-2.70297">
        <ele>73.7</ele>
        <time>2015-12-06T14:08:42.000Z</time>
      </trkpt>
      <trkpt lat="47.69682" lon="-2.70297">
        <ele>73.2</ele>
        <time>2015-12-06T14:08:43.000Z</time>
      </trkpt>
      <trkpt lat="47.69686" lon="-2.70297">
        <ele>72.4</ele>
        <time>2015-12-06T14:08:44.000Z</time>
      </trkpt>
      <trkpt lat="47.69688" lon="-2.70304">
        <ele>72.3</ele>
        <time>2015-12-06T14:08:45.000Z</time>
      </trkpt>
      <trkpt lat="47.69689" lon="-2.70314">
        <ele>72.4</ele>
        <time>2015-12-06T14:08:46.000Z</time>
      </trkpt>
      <trkpt lat="47.6969" lon="-2.70323">
        <ele>72.7</ele>
        <time>2015-12-06T14:08:47.000Z</time>
      </trkpt>
      <trkpt lat="47.69693" lon="-2.7033">
        <ele>72.6</ele>
        <time>2015-12-06T14:08:48.000Z</time>
      </trkpt>
      <trkpt lat="47.69696" lon="-2.70338">
        <ele>72.5</ele>
        <time>2015-12-06T14:08:49.000Z</time>
      </trkpt>
      <trkpt lat="47.69699" lon="-2.70346">
        <ele>72.4</ele>
        <time>2015-12-06T14:08:50.000Z</time>
      </trkpt>
      <trkpt lat="47.69703" lon="-2.70354">
        <ele>72.4</ele>
        <time>2015-12-06T14:08:51.000Z</time>
      </trkpt>
      <trkpt lat="47.69706" lon="-2.70361">
        <ele>72.4</ele>
        <time>2015-12-06T14:08:52.000Z</time>
      </trkpt>
      <trkpt lat="47.69709" lon="-2.7037">
        <ele>72.5</ele>
        <time>2015-12-06T14:08:53.000Z</time>
      </trkpt>
      <trkpt lat="47.69712" lon="-2.70379">
        <ele>72.4</ele>
        <time>2015-12-06T14:08:54.000Z</time>
      </trkpt>
      <trkpt lat="47.69715" lon="-2.70388">
        <ele>72.1</ele>
        <time>2015-12-06T14:08:55.000Z</time>
      </trkpt>
      <trkpt lat="47.69718" lon="-2.70397">
        <ele>71.8</ele>
        <time>2015-12-06T14:08:56.000Z</time>
      </trkpt>
      <trkpt lat="47.69722" lon="-2.70406">
        <ele>71.2</ele>
        <time>2015-12-06T14:08:57.000Z</time>
      </trkpt>
      <trkpt lat="47.69726" lon="-2.70415">
        <ele>70.8</ele>
        <time>2015-12-06T14:08:58.000Z</time>
      </trkpt>
      <trkpt lat="47.69729" lon="-2.70423">
        <ele>70.4</ele>
        <time>2015-12-06T14:08:59.000Z</time>
      </trkpt>
      <trkpt lat="47.69732" lon="-2.70431">
        <ele>70</ele>
        <time>2015-12-06T14:09:00.000Z</time>
      </trkpt>
      <trkpt lat="47.69735" lon="-2.7044">
        <ele>69.6</ele>
        <time>2015-12-06T14:09:01.000Z</time>
      </trkpt>
      <trkpt lat="47.69738" lon="-2.70448">
        <ele>69.2</ele>
        <time>2015-12-06T14:09:02.000Z</time>
      </trkpt>
      <trkpt lat="47.69743" lon="-2.70456">
        <ele>68.5</ele>
        <time>2015-12-06T14:09:03.000Z</time>
      </trkpt>
      <trkpt lat="47.69747" lon="-2.70465">
        <ele>67.3</ele>
        <time>2015-12-06T14:09:04.000Z</time>
      </trkpt>
      <trkpt lat="47.69751" lon="-2.70474">
        <ele>66</ele>
        <time>2015-12-06T14:09:05.000Z</time>
      </trkpt>
      <trkpt lat="47.69754" lon="-2.70483">
        <ele>65</ele>
        <time>2015-12-06T14:09:06.000Z</time>
      </trkpt>
      <trkpt lat="47.69757" lon="-2.7049">
        <ele>64.1</ele>
        <time>2015-12-06T14:09:07.000Z</time>
      </trkpt>
      <trkpt lat="47.6976" lon="-2.70497">
        <ele>63.3</ele>
        <time>2015-12-06T14:09:08.000Z</time>
      </trkpt>
      <trkpt lat="47.69762" lon="-2.70503">
        <ele>62.5</ele>
        <time>2015-12-06T14:09:09.000Z</time>
      </trkpt>
      <trkpt lat="47.69765" lon="-2.70508">
        <ele>61.8</ele>
        <time>2015-12-06T14:09:10.000Z</time>
      </trkpt>
      <trkpt lat="47.69766" lon="-2.70512">
        <ele>61.4</ele>
        <time>2015-12-06T14:09:11.000Z</time>
      </trkpt>
      <trkpt lat="47.69767" lon="-2.70513">
        <ele>61.2</ele>
        <time>2015-12-06T14:09:12.000Z</time>
      </trkpt>
      <trkpt lat="47.69768" lon="-2.70512">
        <ele>61</ele>
        <time>2015-12-06T14:09:13.000Z</time>
      </trkpt>
      <trkpt lat="47.69771" lon="-2.7051">
        <ele>60.6</ele>
        <time>2015-12-06T14:09:14.000Z</time>
      </trkpt>
      <trkpt lat="47.69774" lon="-2.70508">
        <ele>60.2</ele>
        <time>2015-12-06T14:09:15.000Z</time>
      </trkpt>
      <trkpt lat="47.69775" lon="-2.70506">
        <ele>59.9</ele>
        <time>2015-12-06T14:09:16.000Z</time>
      </trkpt>
      <trkpt lat="47.69777" lon="-2.70504">
        <ele>59.8</ele>
        <time>2015-12-06T14:09:17.000Z</time>
      </trkpt>
      <trkpt lat="47.69779" lon="-2.70501">
        <ele>59.4</ele>
        <time>2015-12-06T14:09:18.000Z</time>
      </trkpt>
      <trkpt lat="47.69782" lon="-2.70498">
        <ele>59</ele>
        <time>2015-12-06T14:09:19.000Z</time>
      </trkpt>
      <trkpt lat="47.69785" lon="-2.70495">
        <ele>58.4</ele>
        <time>2015-12-06T14:09:20.000Z</time>
      </trkpt>
      <trkpt lat="47.69788" lon="-2.70492">
        <ele>57.9</ele>
        <time>2015-12-06T14:09:21.000Z</time>
      </trkpt>
      <trkpt lat="47.69791" lon="-2.70489">
        <ele>57.4</ele>
        <time>2015-12-06T14:09:22.000Z</time>
      </trkpt>
      <trkpt lat="47.69794" lon="-2.70486">
        <ele>57.1</ele>
        <time>2015-12-06T14:09:23.000Z</time>
      </trkpt>
      <trkpt lat="47.69797" lon="-2.70483">
        <ele>56.8</ele>
        <time>2015-12-06T14:09:24.000Z</time>
      </trkpt>
      <trkpt lat="47.69799" lon="-2.70481">
        <ele>56.5</ele>
        <time>2015-12-06T14:09:25.000Z</time>
      </trkpt>
      <trkpt lat="47.69803" lon="-2.7048">
        <ele>56.1</ele>
        <time>2015-12-06T14:09:26.000Z</time>
      </trkpt>
      <trkpt lat="47.69806" lon="-2.70479">
        <ele>55.8</ele>
        <time>2015-12-06T14:09:27.000Z</time>
      </trkpt>
      <trkpt lat="47.69809" lon="-2.70479">
        <ele>55.4</ele>
        <time>2015-12-06T14:09:28.000Z</time>
      </trkpt>
      <trkpt lat="47.69812" lon="-2.70477">
        <ele>55.1</ele>
        <time>2015-12-06T14:09:29.000Z</time>
      </trkpt>
      <trkpt lat="47.69815" lon="-2.70476">
        <ele>54.8</ele>
        <time>2015-12-06T14:09:30.000Z</time>
      </trkpt>
      <trkpt lat="47.69817" lon="-2.70473">
        <ele>54.5</ele>
        <time>2015-12-06T14:09:31.000Z</time>
      </trkpt>
      <trkpt lat="47.6982" lon="-2.70471">
        <ele>54.3</ele>
        <time>2015-12-06T14:09:32.000Z</time>
      </trkpt>
      <trkpt lat="47.69822" lon="-2.70468">
        <ele>54.1</ele>
        <time>2015-12-06T14:09:33.000Z</time>
      </trkpt>
      <trkpt lat="47.69825" lon="-2.70465">
        <ele>53.9</ele>
        <time>2015-12-06T14:09:34.000Z</time>
      </trkpt>
      <trkpt lat="47.69827" lon="-2.70463">
        <ele>53.6</ele>
        <time>2015-12-06T14:09:35.000Z</time>
      </trkpt>
      <trkpt lat="47.6983" lon="-2.70461">
        <ele>53.3</ele>
        <time>2015-12-06T14:09:36.000Z</time>
      </trkpt>
      <trkpt lat="47.69833" lon="-2.70459">
        <ele>53</ele>
        <time>2015-12-06T14:09:37.000Z</time>
      </trkpt>
      <trkpt lat="47.69836" lon="-2.70457">
        <ele>52.7</ele>
        <time>2015-12-06T14:09:38.000Z</time>
      </trkpt>
      <trkpt lat="47.69838" lon="-2.70455">
        <ele>52.5</ele>
        <time>2015-12-06T14:09:39.000Z</time>
      </trkpt>
      <trkpt lat="47.6984" lon="-2.70454">
        <ele>52.4</ele>
        <time>2015-12-06T14:09:40.000Z</time>
      </trkpt>
      <trkpt lat="47.69842" lon="-2.70452">
        <ele>52.2</ele>
        <time>2015-12-06T14:09:41.000Z</time>
      </trkpt>
      <trkpt lat="47.69844" lon="-2.70451">
        <ele>52.1</ele>
        <time>2015-12-06T14:09:42.000Z</time>
      </trkpt>
      <trkpt lat="47.69846" lon="-2.70449">
        <ele>51.9</ele>
        <time>2015-12-06T14:09:43.000Z</time>
      </trkpt>
      <trkpt lat="47.69848" lon="-2.70448">
        <ele>51.7</ele>
        <time>2015-12-06T14:09:44.000Z</time>
      </trkpt>
      <trkpt lat="47.69851" lon="-2.70446">
        <ele>51.5</ele>
        <time>2015-12-06T14:09:45.000Z</time>
      </trkpt>
      <trkpt lat="47.69853" lon="-2.70445">
        <ele>51.4</ele>
        <time>2015-12-06T14:09:46.000Z</time>
      </trkpt>
      <trkpt lat="47.69855" lon="-2.70443">
        <ele>51.3</ele>
        <time>2015-12-06T14:09:47.000Z</time>
      </trkpt>
      <trkpt lat="47.69857" lon="-2.70442">
        <ele>51.2</ele>
        <time>2015-12-06T14:09:48.000Z</time>
      </trkpt>
      <trkpt lat="47.69859" lon="-2.70441">
        <ele>51.1</ele>
        <time>2015-12-06T14:09:49.000Z</time>
      </trkpt>
      <trkpt lat="47.69861" lon="-2.70439">
        <ele>51</ele>
        <time>2015-12-06T14:09:50.000Z</time>
      </trkpt>
      <trkpt lat="47.69863" lon="-2.70438">
        <ele>50.9</ele>
        <time>2015-12-06T14:09:51.000Z</time>
      </trkpt>
      <trkpt lat="47.69865" lon="-2.70436">
        <ele>50.8</ele>
        <time>2015-12-06T14:09:52.000Z</time>
      </trkpt>
      <trkpt lat="47.69866" lon="-2.70434">
        <ele>50.8</ele>
        <time>2015-12-06T14:09:53.000Z</time>
      </trkpt>
      <trkpt lat="47.69868" lon="-2.70433">
        <ele>50.7</ele>
        <time>2015-12-06T14:09:54.000Z</time>
      </trkpt>
      <trkpt lat="47.6987" lon="-2.70431">
        <ele>50.7</ele>
        <time>2015-12-06T14:09:55.000Z</time>
      </trkpt>
      <trkpt lat="47.69872" lon="-2.7043">
        <ele>50.7</ele>
        <time>2015-12-06T14:09:56.000Z</time>
      </trkpt>
      <trkpt lat="47.69874" lon="-2.70428">
        <ele>50.6</ele>
        <time>2015-12-06T14:09:57.000Z</time>
      </trkpt>
      <trkpt lat="47.69876" lon="-2.70427">
        <ele>50.6</ele>
        <time>2015-12-06T14:09:58.000Z</time>
      </trkpt>
      <trkpt lat="47.69878" lon="-2.70425">
        <ele>50.6</ele>
        <time>2015-12-06T14:09:59.000Z</time>
      </trkpt>
      <trkpt lat="47.69879" lon="-2.70424">
        <ele>50.7</ele>
        <time>2015-12-06T14:10:00.000Z</time>
      </trkpt>
      <trkpt lat="47.69881" lon="-2.70423">
        <ele>50.7</ele>
        <time>2015-12-06T14:10:01.000Z</time>
      </trkpt>
      <trkpt lat="47.69882" lon="-2.70422">
        <ele>50.7</ele>
        <time>2015-12-06T14:10:02.000Z</time>
      </trkpt>
      <trkpt lat="47.69885" lon="-2.7042">
        <ele>50.7</ele>
        <time>2015-12-06T14:10:03.000Z</time>
      </trkpt>
      <trkpt lat="47.69887" lon="-2.70418">
        <ele>50.7</ele>
        <time>2015-12-06T14:10:04.000Z</time>
      </trkpt>
      <trkpt lat="47.69889" lon="-2.70416">
        <ele>50.8</ele>
        <time>2015-12-06T14:10:05.000Z</time>
      </trkpt>
      <trkpt lat="47.69891" lon="-2.70415">
        <ele>50.8</ele>
        <time>2015-12-06T14:10:06.000Z</time>
      </trkpt>
      <trkpt lat="47.69894" lon="-2.70412">
        <ele>50.9</ele>
        <time>2015-12-06T14:10:07.000Z</time>
      </trkpt>
      <trkpt lat="47.69897" lon="-2.70409">
        <ele>51</ele>
        <time>2015-12-06T14:10:08.000Z</time>
      </trkpt>
      <trkpt lat="47.699" lon="-2.70406">
        <ele>51.1</ele>
        <time>2015-12-06T14:10:09.000Z</time>
      </trkpt>
      <trkpt lat="47.69903" lon="-2.70402">
        <ele>51.3</ele>
        <time>2015-12-06T14:10:10.000Z</time>
      </trkpt>
      <trkpt lat="47.69906" lon="-2.70398">
        <ele>51.4</ele>
        <time>2015-12-06T14:10:11.000Z</time>
      </trkpt>
      <trkpt lat="47.6991" lon="-2.70395">
        <ele>51.5</ele>
        <time>2015-12-06T14:10:12.000Z</time>
      </trkpt>
      <trkpt lat="47.69913" lon="-2.70392">
        <ele>51.6</ele>
        <time>2015-12-06T14:10:13.000Z</time>
      </trkpt>
      <trkpt lat="47.69917" lon="-2.70389">
        <ele>51.7</ele>
        <time>2015-12-06T14:10:14.000Z</time>
      </trkpt>
      <trkpt lat="47.69921" lon="-2.70385">
        <ele>51.9</ele>
        <time>2015-12-06T14:10:15.000Z</time>
      </trkpt>
      <trkpt lat="47.69926" lon="-2.70381">
        <ele>52</ele>
        <time>2015-12-06T14:10:16.000Z</time>
      </trkpt>
      <trkpt lat="47.69932" lon="-2.70377">
        <ele>52.1</ele>
        <time>2015-12-06T14:10:17.000Z</time>
      </trkpt>
      <trkpt lat="47.69939" lon="-2.70372">
        <ele>52.4</ele>
        <time>2015-12-06T14:10:18.000Z</time>
      </trkpt>
      <trkpt lat="47.69946" lon="-2.70367">
        <ele>52.9</ele>
        <time>2015-12-06T14:10:19.000Z</time>
      </trkpt>
      <trkpt lat="47.69951" lon="-2.70361">
        <ele>53.6</ele>
        <time>2015-12-06T14:10:20.000Z</time>
      </trkpt>
      <trkpt lat="47.69957" lon="-2.70356">
        <ele>54.2</ele>
        <time>2015-12-06T14:10:21.000Z</time>
      </trkpt>
      <trkpt lat="47.69961" lon="-2.70351">
        <ele>54.7</ele>
        <time>2015-12-06T14:10:22.000Z</time>
      </trkpt>
      <trkpt lat="47.69966" lon="-2.70345">
        <ele>55.1</ele>
        <time>2015-12-06T14:10:23.000Z</time>
      </trkpt>
      <trkpt lat="47.6997" lon="-2.7034">
        <ele>55.3</ele>
        <time>2015-12-06T14:10:24.000Z</time>
      </trkpt>
      <trkpt lat="47.69975" lon="-2.70336">
        <ele>55.4</ele>
        <time>2015-12-06T14:10:25.000Z</time>
      </trkpt>
      <trkpt lat="47.69979" lon="-2.70332">
        <ele>55.5</ele>
        <time>2015-12-06T14:10:26.000Z</time>
      </trkpt>
      <trkpt lat="47.69982" lon="-2.70328">
        <ele>55.6</ele>
        <time>2015-12-06T14:10:27.000Z</time>
      </trkpt>
      <trkpt lat="47.69986" lon="-2.70324">
        <ele>55.7</ele>
        <time>2015-12-06T14:10:28.000Z</time>
      </trkpt>
      <trkpt lat="47.6999" lon="-2.70321">
        <ele>55.6</ele>
        <time>2015-12-06T14:10:29.000Z</time>
      </trkpt>
      <trkpt lat="47.69994" lon="-2.70317">
        <ele>55.6</ele>
        <time>2015-12-06T14:10:30.000Z</time>
      </trkpt>
      <trkpt lat="47.69997" lon="-2.70313">
        <ele>55.6</ele>
        <time>2015-12-06T14:10:31.000Z</time>
      </trkpt>
      <trkpt lat="47.70001" lon="-2.7031">
        <ele>55.5</ele>
        <time>2015-12-06T14:10:32.000Z</time>
      </trkpt>
      <trkpt lat="47.70004" lon="-2.70306">
        <ele>55.4</ele>
        <time>2015-12-06T14:10:33.000Z</time>
      </trkpt>
      <trkpt lat="47.70007" lon="-2.70304">
        <ele>55.3</ele>
        <time>2015-12-06T14:10:34.000Z</time>
      </trkpt>
      <trkpt lat="47.70011" lon="-2.70301">
        <ele>55.1</ele>
        <time>2015-12-06T14:10:35.000Z</time>
      </trkpt>
      <trkpt lat="47.70014" lon="-2.70298">
        <ele>54.9</ele>
        <time>2015-12-06T14:10:36.000Z</time>
      </trkpt>
      <trkpt lat="47.70017" lon="-2.70294">
        <ele>54.8</ele>
        <time>2015-12-06T14:10:37.000Z</time>
      </trkpt>
      <trkpt lat="47.70021" lon="-2.70291">
        <ele>54.6</ele>
        <time>2015-12-06T14:10:38.000Z</time>
      </trkpt>
      <trkpt lat="47.70025" lon="-2.70288">
        <ele>54.5</ele>
        <time>2015-12-06T14:10:39.000Z</time>
      </trkpt>
      <trkpt lat="47.70029" lon="-2.70285">
        <ele>54.3</ele>
        <time>2015-12-06T14:10:40.000Z</time>
      </trkpt>
      <trkpt lat="47.70033" lon="-2.70282">
        <ele>54.2</ele>
        <time>2015-12-06T14:10:41.000Z</time>
      </trkpt>
      <trkpt lat="47.70037" lon="-2.70278">
        <ele>54.2</ele>
        <time>2015-12-06T14:10:42.000Z</time>
      </trkpt>
      <trkpt lat="47.70041" lon="-2.70274">
        <ele>54.3</ele>
        <time>2015-12-06T14:10:43.000Z</time>
      </trkpt>
      <trkpt lat="47.70045" lon="-2.7027">
        <ele>54.7</ele>
        <time>2015-12-06T14:10:44.000Z</time>
      </trkpt>
      <trkpt lat="47.70049" lon="-2.70266">
        <ele>54.9</ele>
        <time>2015-12-06T14:10:45.000Z</time>
      </trkpt>
      <trkpt lat="47.70052" lon="-2.70264">
        <ele>55.1</ele>
        <time>2015-12-06T14:10:46.000Z</time>
      </trkpt>
      <trkpt lat="47.70054" lon="-2.70262">
        <ele>55.2</ele>
        <time>2015-12-06T14:10:47.000Z</time>
      </trkpt>
      <trkpt lat="47.70055" lon="-2.70261">
        <ele>55.2</ele>
        <time>2015-12-06T14:10:48.000Z</time>
      </trkpt>
      <trkpt lat="47.70056" lon="-2.7026">
        <ele>55.2</ele>
        <time>2015-12-06T14:10:49.000Z</time>
      </trkpt>
      <trkpt lat="47.70058" lon="-2.7026">
        <ele>55.1</ele>
        <time>2015-12-06T14:10:50.000Z</time>
      </trkpt>
      <trkpt lat="47.70059" lon="-2.70259">
        <ele>55.1</ele>
        <time>2015-12-06T14:10:51.000Z</time>
      </trkpt>
      <trkpt lat="47.7006" lon="-2.70259">
        <ele>55.1</ele>
        <time>2015-12-06T14:10:52.000Z</time>
      </trkpt>
      <trkpt lat="47.70061" lon="-2.70257">
        <ele>55.2</ele>
        <time>2015-12-06T14:10:53.000Z</time>
      </trkpt>
      <trkpt lat="47.70062" lon="-2.70256">
        <ele>55.2</ele>
        <time>2015-12-06T14:10:54.000Z</time>
      </trkpt>
      <trkpt lat="47.70063" lon="-2.70255">
        <ele>55.2</ele>
        <time>2015-12-06T14:10:55.000Z</time>
      </trkpt>
      <trkpt lat="47.70064" lon="-2.70254">
        <ele>55.2</ele>
        <time>2015-12-06T14:10:56.000Z</time>
      </trkpt>
      <trkpt lat="47.70065" lon="-2.70254">
        <ele>55.2</ele>
        <time>2015-12-06T14:10:57.000Z</time>
      </trkpt>
      <trkpt lat="47.70066" lon="-2.70253">
        <ele>55.2</ele>
        <time>2015-12-06T14:10:58.000Z</time>
      </trkpt>
      <trkpt lat="47.70067" lon="-2.70252">
        <ele>55.2</ele>
        <time>2015-12-06T14:10:59.000Z</time>
      </trkpt>
      <trkpt lat="47.70068" lon="-2.70252">
        <ele>55.1</ele>
        <time>2015-12-06T14:11:00.000Z</time>
      </trkpt>
      <trkpt lat="47.70069" lon="-2.70251">
        <ele>55</ele>
        <time>2015-12-06T14:11:01.000Z</time>
      </trkpt>
      <trkpt lat="47.7007" lon="-2.70251">
        <ele>55</ele>
        <time>2015-12-06T14:11:02.000Z</time>
      </trkpt>
      <trkpt lat="47.70072" lon="-2.7025">
        <ele>54.9</ele>
        <time>2015-12-06T14:11:03.000Z</time>
      </trkpt>
      <trkpt lat="47.70079" lon="-2.70246">
        <ele>54.4</ele>
        <time>2015-12-06T14:11:04.000Z</time>
      </trkpt>
      <trkpt lat="47.70081" lon="-2.70245">
        <ele>54.3</ele>
        <time>2015-12-06T14:11:05.000Z</time>
      </trkpt>
      <trkpt lat="47.70082" lon="-2.70244">
        <ele>54.2</ele>
        <time>2015-12-06T14:11:06.000Z</time>
      </trkpt>
      <trkpt lat="47.70083" lon="-2.70242">
        <ele>54.2</ele>
        <time>2015-12-06T14:11:07.000Z</time>
      </trkpt>
      <trkpt lat="47.70085" lon="-2.7024">
        <ele>54.2</ele>
        <time>2015-12-06T14:11:08.000Z</time>
      </trkpt>
      <trkpt lat="47.70087" lon="-2.70238">
        <ele>54.2</ele>
        <time>2015-12-06T14:11:09.000Z</time>
      </trkpt>
      <trkpt lat="47.70089" lon="-2.70236">
        <ele>54.1</ele>
        <time>2015-12-06T14:11:10.000Z</time>
      </trkpt>
      <trkpt lat="47.70091" lon="-2.70233">
        <ele>53.9</ele>
        <time>2015-12-06T14:11:11.000Z</time>
      </trkpt>
      <trkpt lat="47.70094" lon="-2.7023">
        <ele>53.7</ele>
        <time>2015-12-06T14:11:12.000Z</time>
      </trkpt>
      <trkpt lat="47.70097" lon="-2.70226">
        <ele>53.5</ele>
        <time>2015-12-06T14:11:13.000Z</time>
      </trkpt>
      <trkpt lat="47.70099" lon="-2.70223">
        <ele>53.4</ele>
        <time>2015-12-06T14:11:14.000Z</time>
      </trkpt>
      <trkpt lat="47.701" lon="-2.70219">
        <ele>53.4</ele>
        <time>2015-12-06T14:11:15.000Z</time>
      </trkpt>
      <trkpt lat="47.70102" lon="-2.70216">
        <ele>53.2</ele>
        <time>2015-12-06T14:11:16.000Z</time>
      </trkpt>
      <trkpt lat="47.70104" lon="-2.70214">
        <ele>53</ele>
        <time>2015-12-06T14:11:17.000Z</time>
      </trkpt>
      <trkpt lat="47.70105" lon="-2.70211">
        <ele>52.9</ele>
        <time>2015-12-06T14:11:18.000Z</time>
      </trkpt>
      <trkpt lat="47.70107" lon="-2.70208">
        <ele>52.8</ele>
        <time>2015-12-06T14:11:19.000Z</time>
      </trkpt>
      <trkpt lat="47.70109" lon="-2.70204">
        <ele>53</ele>
        <time>2015-12-06T14:11:20.000Z</time>
      </trkpt>
      <trkpt lat="47.70111" lon="-2.702">
        <ele>53.3</ele>
        <time>2015-12-06T14:11:21.000Z</time>
      </trkpt>
      <trkpt lat="47.70112" lon="-2.70197">
        <ele>53.6</ele>
        <time>2015-12-06T14:11:22.000Z</time>
      </trkpt>
      <trkpt lat="47.70114" lon="-2.70193">
        <ele>54</ele>
        <time>2015-12-06T14:11:23.000Z</time>
      </trkpt>
      <trkpt lat="47.70115" lon="-2.70189">
        <ele>54.3</ele>
        <time>2015-12-06T14:11:24.000Z</time>
      </trkpt>
      <trkpt lat="47.70117" lon="-2.70185">
        <ele>54.7</ele>
        <time>2015-12-06T14:11:25.000Z</time>
      </trkpt>
      <trkpt lat="47.70118" lon="-2.70181">
        <ele>55</ele>
        <time>2015-12-06T14:11:26.000Z</time>
      </trkpt>
      <trkpt lat="47.70119" lon="-2.70177">
        <ele>55.4</ele>
        <time>2015-12-06T14:11:27.000Z</time>
      </trkpt>
      <trkpt lat="47.7012" lon="-2.70173">
        <ele>55.8</ele>
        <time>2015-12-06T14:11:28.000Z</time>
      </trkpt>
      <trkpt lat="47.70122" lon="-2.7017">
        <ele>56.1</ele>
        <time>2015-12-06T14:11:29.000Z</time>
      </trkpt>
      <trkpt lat="47.70123" lon="-2.70166">
        <ele>56.5</ele>
        <time>2015-12-06T14:11:30.000Z</time>
      </trkpt>
      <trkpt lat="47.70126" lon="-2.70161">
        <ele>56.9</ele>
        <time>2015-12-06T14:11:31.000Z</time>
      </trkpt>
      <trkpt lat="47.70128" lon="-2.70156">
        <ele>57.6</ele>
        <time>2015-12-06T14:11:32.000Z</time>
      </trkpt>
      <trkpt lat="47.7013" lon="-2.70151">
        <ele>58.2</ele>
        <time>2015-12-06T14:11:33.000Z</time>
      </trkpt>
      <trkpt lat="47.70132" lon="-2.70147">
        <ele>58.6</ele>
        <time>2015-12-06T14:11:34.000Z</time>
      </trkpt>
      <trkpt lat="47.70134" lon="-2.70142">
        <ele>59.2</ele>
        <time>2015-12-06T14:11:35.000Z</time>
      </trkpt>
      <trkpt lat="47.70136" lon="-2.70136">
        <ele>59.7</ele>
        <time>2015-12-06T14:11:36.000Z</time>
      </trkpt>
      <trkpt lat="47.70137" lon="-2.70131">
        <ele>60.4</ele>
        <time>2015-12-06T14:11:37.000Z</time>
      </trkpt>
      <trkpt lat="47.70137" lon="-2.70126">
        <ele>61.1</ele>
        <time>2015-12-06T14:11:38.000Z</time>
      </trkpt>
      <trkpt lat="47.70138" lon="-2.7012">
        <ele>61.6</ele>
        <time>2015-12-06T14:11:39.000Z</time>
      </trkpt>
      <trkpt lat="47.7014" lon="-2.70115">
        <ele>61.9</ele>
        <time>2015-12-06T14:11:40.000Z</time>
      </trkpt>
      <trkpt lat="47.70144" lon="-2.70109">
        <ele>62</ele>
        <time>2015-12-06T14:11:41.000Z</time>
      </trkpt>
      <trkpt lat="47.70147" lon="-2.70104">
        <ele>62</ele>
        <time>2015-12-06T14:11:42.000Z</time>
      </trkpt>
      <trkpt lat="47.7015" lon="-2.70098">
        <ele>62.1</ele>
        <time>2015-12-06T14:11:43.000Z</time>
      </trkpt>
      <trkpt lat="47.70153" lon="-2.70093">
        <ele>62.1</ele>
        <time>2015-12-06T14:11:44.000Z</time>
      </trkpt>
      <trkpt lat="47.70157" lon="-2.70086">
        <ele>62.1</ele>
        <time>2015-12-06T14:11:45.000Z</time>
      </trkpt>
      <trkpt lat="47.7016" lon="-2.7008">
        <ele>62</ele>
        <time>2015-12-06T14:11:46.000Z</time>
      </trkpt>
      <trkpt lat="47.70163" lon="-2.70075">
        <ele>62</ele>
        <time>2015-12-06T14:11:47.000Z</time>
      </trkpt>
      <trkpt lat="47.70166" lon="-2.7007">
        <ele>61.9</ele>
        <time>2015-12-06T14:11:48.000Z</time>
      </trkpt>
      <trkpt lat="47.7017" lon="-2.70066">
        <ele>61.6</ele>
        <time>2015-12-06T14:11:49.000Z</time>
      </trkpt>
      <trkpt lat="47.70174" lon="-2.70061">
        <ele>61.2</ele>
        <time>2015-12-06T14:11:50.000Z</time>
      </trkpt>
      <trkpt lat="47.70178" lon="-2.70056">
        <ele>60.6</ele>
        <time>2015-12-06T14:11:51.000Z</time>
      </trkpt>
      <trkpt lat="47.70183" lon="-2.70051">
        <ele>60.1</ele>
        <time>2015-12-06T14:11:52.000Z</time>
      </trkpt>
      <trkpt lat="47.70187" lon="-2.70046">
        <ele>59.6</ele>
        <time>2015-12-06T14:11:53.000Z</time>
      </trkpt>
      <trkpt lat="47.7019" lon="-2.70041">
        <ele>59.2</ele>
        <time>2015-12-06T14:11:54.000Z</time>
      </trkpt>
      <trkpt lat="47.70194" lon="-2.70036">
        <ele>58.7</ele>
        <time>2015-12-06T14:11:55.000Z</time>
      </trkpt>
      <trkpt lat="47.70197" lon="-2.70031">
        <ele>58.3</ele>
        <time>2015-12-06T14:11:56.000Z</time>
      </trkpt>
      <trkpt lat="47.70201" lon="-2.70026">
        <ele>57.8</ele>
        <time>2015-12-06T14:11:57.000Z</time>
      </trkpt>
      <trkpt lat="47.70204" lon="-2.70023">
        <ele>57.4</ele>
        <time>2015-12-06T14:11:58.000Z</time>
      </trkpt>
      <trkpt lat="47.70207" lon="-2.70019">
        <ele>56.9</ele>
        <time>2015-12-06T14:11:59.000Z</time>
      </trkpt>
      <trkpt lat="47.7021" lon="-2.70015">
        <ele>56.9</ele>
        <time>2015-12-06T14:12:00.000Z</time>
      </trkpt>
      <trkpt lat="47.70212" lon="-2.70011">
        <ele>57.1</ele>
        <time>2015-12-06T14:12:01.000Z</time>
      </trkpt>
      <trkpt lat="47.70215" lon="-2.70007">
        <ele>57.3</ele>
        <time>2015-12-06T14:12:02.000Z</time>
      </trkpt>
      <trkpt lat="47.70219" lon="-2.70003">
        <ele>57.4</ele>
        <time>2015-12-06T14:12:03.000Z</time>
      </trkpt>
      <trkpt lat="47.70222" lon="-2.70001">
        <ele>57.4</ele>
        <time>2015-12-06T14:12:04.000Z</time>
      </trkpt>
      <trkpt lat="47.70226" lon="-2.69997">
        <ele>57.4</ele>
        <time>2015-12-06T14:12:05.000Z</time>
      </trkpt>
      <trkpt lat="47.70229" lon="-2.69993">
        <ele>57.4</ele>
        <time>2015-12-06T14:12:06.000Z</time>
      </trkpt>
      <trkpt lat="47.70233" lon="-2.69989">
        <ele>57.4</ele>
        <time>2015-12-06T14:12:07.000Z</time>
      </trkpt>
      <trkpt lat="47.70238" lon="-2.69985">
        <ele>57.3</ele>
        <time>2015-12-06T14:12:08.000Z</time>
      </trkpt>
      <trkpt lat="47.70244" lon="-2.69979">
        <ele>57.1</ele>
        <time>2015-12-06T14:12:09.000Z</time>
      </trkpt>
      <trkpt lat="47.7025" lon="-2.69972">
        <ele>56.8</ele>
        <time>2015-12-06T14:12:10.000Z</time>
      </trkpt>
      <trkpt lat="47.70254" lon="-2.69966">
        <ele>56.5</ele>
        <time>2015-12-06T14:12:11.000Z</time>
      </trkpt>
      <trkpt lat="47.70258" lon="-2.6996">
        <ele>56.2</ele>
        <time>2015-12-06T14:12:12.000Z</time>
      </trkpt>
      <trkpt lat="47.70262" lon="-2.69955">
        <ele>56.1</ele>
        <time>2015-12-06T14:12:13.000Z</time>
      </trkpt>
      <trkpt lat="47.70266" lon="-2.6995">
        <ele>56.3</ele>
        <time>2015-12-06T14:12:14.000Z</time>
      </trkpt>
      <trkpt lat="47.7027" lon="-2.69944">
        <ele>56.4</ele>
        <time>2015-12-06T14:12:15.000Z</time>
      </trkpt>
      <trkpt lat="47.70274" lon="-2.69939">
        <ele>56.6</ele>
        <time>2015-12-06T14:12:16.000Z</time>
      </trkpt>
      <trkpt lat="47.70278" lon="-2.69933">
        <ele>56.8</ele>
        <time>2015-12-06T14:12:17.000Z</time>
      </trkpt>
      <trkpt lat="47.70281" lon="-2.69927">
        <ele>57</ele>
        <time>2015-12-06T14:12:18.000Z</time>
      </trkpt>
      <trkpt lat="47.70285" lon="-2.69922">
        <ele>57.2</ele>
        <time>2015-12-06T14:12:19.000Z</time>
      </trkpt>
      <trkpt lat="47.70288" lon="-2.69916">
        <ele>57.4</ele>
        <time>2015-12-06T14:12:20.000Z</time>
      </trkpt>
      <trkpt lat="47.70292" lon="-2.69911">
        <ele>57.5</ele>
        <time>2015-12-06T14:12:21.000Z</time>
      </trkpt>
      <trkpt lat="47.70294" lon="-2.69907">
        <ele>57.8</ele>
        <time>2015-12-06T14:12:22.000Z</time>
      </trkpt>
      <trkpt lat="47.70296" lon="-2.69903">
        <ele>58</ele>
        <time>2015-12-06T14:12:23.000Z</time>
      </trkpt>
      <trkpt lat="47.70297" lon="-2.699">
        <ele>58.2</ele>
        <time>2015-12-06T14:12:24.000Z</time>
      </trkpt>
      <trkpt lat="47.70297" lon="-2.69898">
        <ele>58.3</ele>
        <time>2015-12-06T14:12:25.000Z</time>
      </trkpt>
      <trkpt lat="47.70295" lon="-2.69896">
        <ele>58.7</ele>
        <time>2015-12-06T14:12:26.000Z</time>
      </trkpt>
      <trkpt lat="47.70293" lon="-2.69895">
        <ele>59</ele>
        <time>2015-12-06T14:12:27.000Z</time>
      </trkpt>
      <trkpt lat="47.7029" lon="-2.69894">
        <ele>59.3</ele>
        <time>2015-12-06T14:12:28.000Z</time>
      </trkpt>
      <trkpt lat="47.70289" lon="-2.69894">
        <ele>59.5</ele>
        <time>2015-12-06T14:12:29.000Z</time>
      </trkpt>
      <trkpt lat="47.70288" lon="-2.69895">
        <ele>59.5</ele>
        <time>2015-12-06T14:12:30.000Z</time>
      </trkpt>
      <trkpt lat="47.70286" lon="-2.69896">
        <ele>59.6</ele>
        <time>2015-12-06T14:12:31.000Z</time>
      </trkpt>
      <trkpt lat="47.70285" lon="-2.69896">
        <ele>59.6</ele>
        <time>2015-12-06T14:12:32.000Z</time>
      </trkpt>
      <trkpt lat="47.70284" lon="-2.69898">
        <ele>59.7</ele>
        <time>2015-12-06T14:12:33.000Z</time>
      </trkpt>
      <trkpt lat="47.70282" lon="-2.699">
        <ele>59.6</ele>
        <time>2015-12-06T14:12:34.000Z</time>
      </trkpt>
      <trkpt lat="47.70281" lon="-2.69902">
        <ele>59.5</ele>
        <time>2015-12-06T14:12:35.000Z</time>
      </trkpt>
      <trkpt lat="47.7028" lon="-2.69904">
        <ele>59.4</ele>
        <time>2015-12-06T14:12:36.000Z</time>
      </trkpt>
      <trkpt lat="47.70278" lon="-2.69907">
        <ele>59.3</ele>
        <time>2015-12-06T14:12:37.000Z</time>
      </trkpt>
      <trkpt lat="47.70276" lon="-2.6991">
        <ele>59.2</ele>
        <time>2015-12-06T14:12:38.000Z</time>
      </trkpt>
      <trkpt lat="47.70274" lon="-2.69913">
        <ele>59.1</ele>
        <time>2015-12-06T14:12:39.000Z</time>
      </trkpt>
      <trkpt lat="47.70272" lon="-2.69916">
        <ele>59.1</ele>
        <time>2015-12-06T14:12:40.000Z</time>
      </trkpt>
      <trkpt lat="47.70269" lon="-2.69919">
        <ele>59.1</ele>
        <time>2015-12-06T14:12:41.000Z</time>
      </trkpt>
      <trkpt lat="47.70266" lon="-2.69921">
        <ele>59.1</ele>
        <time>2015-12-06T14:12:42.000Z</time>
      </trkpt>
      <trkpt lat="47.70263" lon="-2.69924">
        <ele>59.2</ele>
        <time>2015-12-06T14:12:43.000Z</time>
      </trkpt>
      <trkpt lat="47.7026" lon="-2.69927">
        <ele>59.2</ele>
        <time>2015-12-06T14:12:44.000Z</time>
      </trkpt>
      <trkpt lat="47.70258" lon="-2.69929">
        <ele>59.2</ele>
        <time>2015-12-06T14:12:45.000Z</time>
      </trkpt>
      <trkpt lat="47.70255" lon="-2.69932">
        <ele>59.2</ele>
        <time>2015-12-06T14:12:46.000Z</time>
      </trkpt>
      <trkpt lat="47.70252" lon="-2.69934">
        <ele>59.3</ele>
        <time>2015-12-06T14:12:47.000Z</time>
      </trkpt>
      <trkpt lat="47.7025" lon="-2.69935">
        <ele>59.4</ele>
        <time>2015-12-06T14:12:48.000Z</time>
      </trkpt>
      <trkpt lat="47.70249" lon="-2.69935">
        <ele>59.6</ele>
        <time>2015-12-06T14:12:49.000Z</time>
      </trkpt>
      <trkpt lat="47.70248" lon="-2.69934">
        <ele>59.7</ele>
        <time>2015-12-06T14:12:50.000Z</time>
      </trkpt>
      <trkpt lat="47.70247" lon="-2.69933">
        <ele>59.9</ele>
        <time>2015-12-06T14:12:51.000Z</time>
      </trkpt>
      <trkpt lat="47.70246" lon="-2.69933">
        <ele>60</ele>
        <time>2015-12-06T14:12:52.000Z</time>
      </trkpt>
      <trkpt lat="47.70245" lon="-2.69933">
        <ele>60.1</ele>
        <time>2015-12-06T14:12:53.000Z</time>
      </trkpt>
      <trkpt lat="47.70244" lon="-2.69932">
        <ele>60.2</ele>
        <time>2015-12-06T14:12:54.000Z</time>
      </trkpt>
      <trkpt lat="47.70243" lon="-2.69931">
        <ele>60.4</ele>
        <time>2015-12-06T14:12:55.000Z</time>
      </trkpt>
      <trkpt lat="47.70243" lon="-2.6993">
        <ele>60.6</ele>
        <time>2015-12-06T14:12:56.000Z</time>
      </trkpt>
      <trkpt lat="47.70242" lon="-2.69929">
        <ele>60.8</ele>
        <time>2015-12-06T14:12:57.000Z</time>
      </trkpt>
      <trkpt lat="47.70242" lon="-2.69927">
        <ele>61</ele>
        <time>2015-12-06T14:12:58.000Z</time>
      </trkpt>
      <trkpt lat="47.70241" lon="-2.69926">
        <ele>61.2</ele>
        <time>2015-12-06T14:12:59.000Z</time>
      </trkpt>
      <trkpt lat="47.70241" lon="-2.69924">
        <ele>61.5</ele>
        <time>2015-12-06T14:13:00.000Z</time>
      </trkpt>
      <trkpt lat="47.70241" lon="-2.69922">
        <ele>61.7</ele>
        <time>2015-12-06T14:13:01.000Z</time>
      </trkpt>
      <trkpt lat="47.7024" lon="-2.6992">
        <ele>61.9</ele>
        <time>2015-12-06T14:13:02.000Z</time>
      </trkpt>
      <trkpt lat="47.7024" lon="-2.69918">
        <ele>62.2</ele>
        <time>2015-12-06T14:13:03.000Z</time>
      </trkpt>
      <trkpt lat="47.70239" lon="-2.69916">
        <ele>62.5</ele>
        <time>2015-12-06T14:13:04.000Z</time>
      </trkpt>
      <trkpt lat="47.70237" lon="-2.69914">
        <ele>62.8</ele>
        <time>2015-12-06T14:13:05.000Z</time>
      </trkpt>
      <trkpt lat="47.70236" lon="-2.69912">
        <ele>63.2</ele>
        <time>2015-12-06T14:13:06.000Z</time>
      </trkpt>
      <trkpt lat="47.70235" lon="-2.6991">
        <ele>63.5</ele>
        <time>2015-12-06T14:13:07.000Z</time>
      </trkpt>
      <trkpt lat="47.70234" lon="-2.69908">
        <ele>63.7</ele>
        <time>2015-12-06T14:13:08.000Z</time>
      </trkpt>
      <trkpt lat="47.70234" lon="-2.69906">
        <ele>64</ele>
        <time>2015-12-06T14:13:09.000Z</time>
      </trkpt>
      <trkpt lat="47.70233" lon="-2.69904">
        <ele>64.2</ele>
        <time>2015-12-06T14:13:10.000Z</time>
      </trkpt>
      <trkpt lat="47.70233" lon="-2.69902">
        <ele>64.6</ele>
        <time>2015-12-06T14:13:11.000Z</time>
      </trkpt>
      <trkpt lat="47.70232" lon="-2.69899">
        <ele>64.9</ele>
        <time>2015-12-06T14:13:12.000Z</time>
      </trkpt>
      <trkpt lat="47.70231" lon="-2.69896">
        <ele>65.3</ele>
        <time>2015-12-06T14:13:13.000Z</time>
      </trkpt>
      <trkpt lat="47.70231" lon="-2.69893">
        <ele>65.7</ele>
        <time>2015-12-06T14:13:14.000Z</time>
      </trkpt>
      <trkpt lat="47.70231" lon="-2.6989">
        <ele>66</ele>
        <time>2015-12-06T14:13:15.000Z</time>
      </trkpt>
      <trkpt lat="47.70231" lon="-2.69887">
        <ele>66.2</ele>
        <time>2015-12-06T14:13:16.000Z</time>
      </trkpt>
      <trkpt lat="47.70232" lon="-2.69885">
        <ele>66.5</ele>
        <time>2015-12-06T14:13:17.000Z</time>
      </trkpt>
      <trkpt lat="47.70232" lon="-2.69882">
        <ele>66.7</ele>
        <time>2015-12-06T14:13:18.000Z</time>
      </trkpt>
      <trkpt lat="47.70233" lon="-2.69879">
        <ele>66.9</ele>
        <time>2015-12-06T14:13:19.000Z</time>
      </trkpt>
      <trkpt lat="47.70234" lon="-2.69877">
        <ele>67</ele>
        <time>2015-12-06T14:13:20.000Z</time>
      </trkpt>
      <trkpt lat="47.70235" lon="-2.69875">
        <ele>67.1</ele>
        <time>2015-12-06T14:13:21.000Z</time>
      </trkpt>
      <trkpt lat="47.70237" lon="-2.69873">
        <ele>67.2</ele>
        <time>2015-12-06T14:13:22.000Z</time>
      </trkpt>
      <trkpt lat="47.70238" lon="-2.69871">
        <ele>67.3</ele>
        <time>2015-12-06T14:13:23.000Z</time>
      </trkpt>
      <trkpt lat="47.7024" lon="-2.69868">
        <ele>67.5</ele>
        <time>2015-12-06T14:13:24.000Z</time>
      </trkpt>
      <trkpt lat="47.70241" lon="-2.69866">
        <ele>67.6</ele>
        <time>2015-12-06T14:13:25.000Z</time>
      </trkpt>
      <trkpt lat="47.70242" lon="-2.69864">
        <ele>67.7</ele>
        <time>2015-12-06T14:13:26.000Z</time>
      </trkpt>
      <trkpt lat="47.70244" lon="-2.69861">
        <ele>67.9</ele>
        <time>2015-12-06T14:13:27.000Z</time>
      </trkpt>
      <trkpt lat="47.70245" lon="-2.69859">
        <ele>68</ele>
        <time>2015-12-06T14:13:28.000Z</time>
      </trkpt>
      <trkpt lat="47.70246" lon="-2.69857">
        <ele>68.2</ele>
        <time>2015-12-06T14:13:29.000Z</time>
      </trkpt>
      <trkpt lat="47.70246" lon="-2.69855">
        <ele>68.5</ele>
        <time>2015-12-06T14:13:30.000Z</time>
      </trkpt>
      <trkpt lat="47.70247" lon="-2.69852">
        <ele>68.8</ele>
        <time>2015-12-06T14:13:31.000Z</time>
      </trkpt>
      <trkpt lat="47.70247" lon="-2.6985">
        <ele>69</ele>
        <time>2015-12-06T14:13:32.000Z</time>
      </trkpt>
      <trkpt lat="47.70249" lon="-2.69847">
        <ele>69.1</ele>
        <time>2015-12-06T14:13:33.000Z</time>
      </trkpt>
      <trkpt lat="47.70251" lon="-2.69845">
        <ele>69.2</ele>
        <time>2015-12-06T14:13:34.000Z</time>
      </trkpt>
      <trkpt lat="47.70253" lon="-2.69842">
        <ele>69.3</ele>
        <time>2015-12-06T14:13:35.000Z</time>
      </trkpt>
      <trkpt lat="47.70255" lon="-2.6984">
        <ele>69.4</ele>
        <time>2015-12-06T14:13:36.000Z</time>
      </trkpt>
      <trkpt lat="47.70256" lon="-2.69837">
        <ele>69.6</ele>
        <time>2015-12-06T14:13:37.000Z</time>
      </trkpt>
      <trkpt lat="47.70257" lon="-2.69835">
        <ele>69.8</ele>
        <time>2015-12-06T14:13:38.000Z</time>
      </trkpt>
      <trkpt lat="47.70258" lon="-2.69832">
        <ele>70.1</ele>
        <time>2015-12-06T14:13:39.000Z</time>
      </trkpt>
      <trkpt lat="47.70258" lon="-2.6983">
        <ele>70.3</ele>
        <time>2015-12-06T14:13:40.000Z</time>
      </trkpt>
      <trkpt lat="47.70258" lon="-2.69829">
        <ele>70.5</ele>
        <time>2015-12-06T14:13:41.000Z</time>
      </trkpt>
      <trkpt lat="47.70258" lon="-2.69827">
        <ele>70.7</ele>
        <time>2015-12-06T14:13:42.000Z</time>
      </trkpt>
      <trkpt lat="47.70259" lon="-2.69825">
        <ele>71</ele>
        <time>2015-12-06T14:13:43.000Z</time>
      </trkpt>
      <trkpt lat="47.7026" lon="-2.69822">
        <ele>71.2</ele>
        <time>2015-12-06T14:13:44.000Z</time>
      </trkpt>
      <trkpt lat="47.70261" lon="-2.69819">
        <ele>71.4</ele>
        <time>2015-12-06T14:13:45.000Z</time>
      </trkpt>
      <trkpt lat="47.70263" lon="-2.69817">
        <ele>71.5</ele>
        <time>2015-12-06T14:13:46.000Z</time>
      </trkpt>
      <trkpt lat="47.70265" lon="-2.69814">
        <ele>71.7</ele>
        <time>2015-12-06T14:13:47.000Z</time>
      </trkpt>
      <trkpt lat="47.70267" lon="-2.69812">
        <ele>71.9</ele>
        <time>2015-12-06T14:13:48.000Z</time>
      </trkpt>
      <trkpt lat="47.70269" lon="-2.69808">
        <ele>72</ele>
        <time>2015-12-06T14:13:49.000Z</time>
      </trkpt>
      <trkpt lat="47.70272" lon="-2.69805">
        <ele>72.1</ele>
        <time>2015-12-06T14:13:50.000Z</time>
      </trkpt>
      <trkpt lat="47.70275" lon="-2.69802">
        <ele>72.2</ele>
        <time>2015-12-06T14:13:51.000Z</time>
      </trkpt>
      <trkpt lat="47.70277" lon="-2.698">
        <ele>72.3</ele>
        <time>2015-12-06T14:13:52.000Z</time>
      </trkpt>
      <trkpt lat="47.70279" lon="-2.69797">
        <ele>72.5</ele>
        <time>2015-12-06T14:13:53.000Z</time>
      </trkpt>
      <trkpt lat="47.70281" lon="-2.69794">
        <ele>72.7</ele>
        <time>2015-12-06T14:13:54.000Z</time>
      </trkpt>
      <trkpt lat="47.70283" lon="-2.69792">
        <ele>72.9</ele>
        <time>2015-12-06T14:13:55.000Z</time>
      </trkpt>
      <trkpt lat="47.70285" lon="-2.69789">
        <ele>73.1</ele>
        <time>2015-12-06T14:13:56.000Z</time>
      </trkpt>
      <trkpt lat="47.70288" lon="-2.69784">
        <ele>73.4</ele>
        <time>2015-12-06T14:13:57.000Z</time>
      </trkpt>
      <trkpt lat="47.70292" lon="-2.69778">
        <ele>74</ele>
        <time>2015-12-06T14:13:58.000Z</time>
      </trkpt>
      <trkpt lat="47.70295" lon="-2.69772">
        <ele>74.4</ele>
        <time>2015-12-06T14:13:59.000Z</time>
      </trkpt>
      <trkpt lat="47.70297" lon="-2.69767">
        <ele>74.6</ele>
        <time>2015-12-06T14:14:00.000Z</time>
      </trkpt>
      <trkpt lat="47.70299" lon="-2.69762">
        <ele>74.9</ele>
        <time>2015-12-06T14:14:01.000Z</time>
      </trkpt>
      <trkpt lat="47.70301" lon="-2.69757">
        <ele>75.3</ele>
        <time>2015-12-06T14:14:02.000Z</time>
      </trkpt>
      <trkpt lat="47.70303" lon="-2.69752">
        <ele>75.6</ele>
        <time>2015-12-06T14:14:03.000Z</time>
      </trkpt>
      <trkpt lat="47.70305" lon="-2.69747">
        <ele>76</ele>
        <time>2015-12-06T14:14:04.000Z</time>
      </trkpt>
      <trkpt lat="47.70306" lon="-2.69742">
        <ele>76.4</ele>
        <time>2015-12-06T14:14:05.000Z</time>
      </trkpt>
      <trkpt lat="47.70308" lon="-2.69737">
        <ele>76.8</ele>
        <time>2015-12-06T14:14:06.000Z</time>
      </trkpt>
      <trkpt lat="47.7031" lon="-2.69732">
        <ele>77.3</ele>
        <time>2015-12-06T14:14:07.000Z</time>
      </trkpt>
      <trkpt lat="47.70311" lon="-2.69726">
        <ele>77.8</ele>
        <time>2015-12-06T14:14:08.000Z</time>
      </trkpt>
      <trkpt lat="47.70313" lon="-2.69721">
        <ele>78.2</ele>
        <time>2015-12-06T14:14:09.000Z</time>
      </trkpt>
      <trkpt lat="47.70315" lon="-2.69716">
        <ele>78.5</ele>
        <time>2015-12-06T14:14:10.000Z</time>
      </trkpt>
      <trkpt lat="47.70316" lon="-2.69712">
        <ele>78.8</ele>
        <time>2015-12-06T14:14:11.000Z</time>
      </trkpt>
      <trkpt lat="47.70318" lon="-2.69708">
        <ele>79.1</ele>
        <time>2015-12-06T14:14:12.000Z</time>
      </trkpt>
      <trkpt lat="47.70319" lon="-2.69702">
        <ele>79.8</ele>
        <time>2015-12-06T14:14:13.000Z</time>
      </trkpt>
      <trkpt lat="47.7032" lon="-2.69697">
        <ele>80.4</ele>
        <time>2015-12-06T14:14:14.000Z</time>
      </trkpt>
      <trkpt lat="47.70322" lon="-2.69691">
        <ele>81</ele>
        <time>2015-12-06T14:14:15.000Z</time>
      </trkpt>
      <trkpt lat="47.70323" lon="-2.69686">
        <ele>81.5</ele>
        <time>2015-12-06T14:14:16.000Z</time>
      </trkpt>
      <trkpt lat="47.70325" lon="-2.69681">
        <ele>82.1</ele>
        <time>2015-12-06T14:14:17.000Z</time>
      </trkpt>
      <trkpt lat="47.70325" lon="-2.69678">
        <ele>82.6</ele>
        <time>2015-12-06T14:14:18.000Z</time>
      </trkpt>
      <trkpt lat="47.70325" lon="-2.69675">
        <ele>83</ele>
        <time>2015-12-06T14:14:19.000Z</time>
      </trkpt>
      <trkpt lat="47.70325" lon="-2.69673">
        <ele>83.3</ele>
        <time>2015-12-06T14:14:20.000Z</time>
      </trkpt>
      <trkpt lat="47.70325" lon="-2.6967">
        <ele>83.8</ele>
        <time>2015-12-06T14:14:21.000Z</time>
      </trkpt>
      <trkpt lat="47.70325" lon="-2.69668">
        <ele>84.3</ele>
        <time>2015-12-06T14:14:22.000Z</time>
      </trkpt>
      <trkpt lat="47.70325" lon="-2.69665">
        <ele>84.7</ele>
        <time>2015-12-06T14:14:23.000Z</time>
      </trkpt>
      <trkpt lat="47.70324" lon="-2.69663">
        <ele>85.4</ele>
        <time>2015-12-06T14:14:24.000Z</time>
      </trkpt>
      <trkpt lat="47.70323" lon="-2.69659">
        <ele>86.1</ele>
        <time>2015-12-06T14:14:25.000Z</time>
      </trkpt>
      <trkpt lat="47.70322" lon="-2.69656">
        <ele>86.9</ele>
        <time>2015-12-06T14:14:26.000Z</time>
      </trkpt>
      <trkpt lat="47.70321" lon="-2.69653">
        <ele>87.5</ele>
        <time>2015-12-06T14:14:27.000Z</time>
      </trkpt>
      <trkpt lat="47.70321" lon="-2.6965">
        <ele>88.1</ele>
        <time>2015-12-06T14:14:28.000Z</time>
      </trkpt>
      <trkpt lat="47.7032" lon="-2.69647">
        <ele>88.8</ele>
        <time>2015-12-06T14:14:29.000Z</time>
      </trkpt>
      <trkpt lat="47.70319" lon="-2.69645">
        <ele>89.4</ele>
        <time>2015-12-06T14:14:30.000Z</time>
      </trkpt>
      <trkpt lat="47.70319" lon="-2.69642">
        <ele>90</ele>
        <time>2015-12-06T14:14:31.000Z</time>
      </trkpt>
      <trkpt lat="47.70318" lon="-2.6964">
        <ele>90.5</ele>
        <time>2015-12-06T14:14:32.000Z</time>
      </trkpt>
      <trkpt lat="47.70318" lon="-2.69638">
        <ele>90.9</ele>
        <time>2015-12-06T14:14:33.000Z</time>
      </trkpt>
      <trkpt lat="47.70318" lon="-2.69636">
        <ele>91.2</ele>
        <time>2015-12-06T14:14:34.000Z</time>
      </trkpt>
      <trkpt lat="47.70319" lon="-2.69634">
        <ele>91.4</ele>
        <time>2015-12-06T14:14:35.000Z</time>
      </trkpt>
      <trkpt lat="47.70319" lon="-2.69632">
        <ele>91.6</ele>
        <time>2015-12-06T14:14:36.000Z</time>
      </trkpt>
      <trkpt lat="47.70319" lon="-2.69629">
        <ele>92</ele>
        <time>2015-12-06T14:14:37.000Z</time>
      </trkpt>
      <trkpt lat="47.70319" lon="-2.69627">
        <ele>92.4</ele>
        <time>2015-12-06T14:14:38.000Z</time>
      </trkpt>
      <trkpt lat="47.70319" lon="-2.69625">
        <ele>92.8</ele>
        <time>2015-12-06T14:14:39.000Z</time>
      </trkpt>
      <trkpt lat="47.70319" lon="-2.69624">
        <ele>93</ele>
        <time>2015-12-06T14:14:40.000Z</time>
      </trkpt>
      <trkpt lat="47.70318" lon="-2.69622">
        <ele>93.2</ele>
        <time>2015-12-06T14:14:41.000Z</time>
      </trkpt>
      <trkpt lat="47.70318" lon="-2.6962">
        <ele>93.4</ele>
        <time>2015-12-06T14:14:42.000Z</time>
      </trkpt>
      <trkpt lat="47.70317" lon="-2.69618">
        <ele>93.6</ele>
        <time>2015-12-06T14:14:43.000Z</time>
      </trkpt>
      <trkpt lat="47.70316" lon="-2.69617">
        <ele>94</ele>
        <time>2015-12-06T14:14:44.000Z</time>
      </trkpt>
      <trkpt lat="47.70315" lon="-2.69614">
        <ele>94.3</ele>
        <time>2015-12-06T14:14:45.000Z</time>
      </trkpt>
      <trkpt lat="47.70314" lon="-2.69612">
        <ele>94.7</ele>
        <time>2015-12-06T14:14:46.000Z</time>
      </trkpt>
      <trkpt lat="47.70313" lon="-2.6961">
        <ele>95.1</ele>
        <time>2015-12-06T14:14:47.000Z</time>
      </trkpt>
      <trkpt lat="47.70312" lon="-2.69608">
        <ele>95.5</ele>
        <time>2015-12-06T14:14:48.000Z</time>
      </trkpt>
      <trkpt lat="47.70311" lon="-2.69605">
        <ele>95.8</ele>
        <time>2015-12-06T14:14:49.000Z</time>
      </trkpt>
      <trkpt lat="47.70311" lon="-2.69603">
        <ele>96</ele>
        <time>2015-12-06T14:14:50.000Z</time>
      </trkpt>
      <trkpt lat="47.7031" lon="-2.696">
        <ele>96.2</ele>
        <time>2015-12-06T14:14:51.000Z</time>
      </trkpt>
      <trkpt lat="47.7031" lon="-2.69598">
        <ele>96.5</ele>
        <time>2015-12-06T14:14:52.000Z</time>
      </trkpt>
      <trkpt lat="47.70309" lon="-2.69596">
        <ele>96.8</ele>
        <time>2015-12-06T14:14:53.000Z</time>
      </trkpt>
      <trkpt lat="47.70308" lon="-2.69593">
        <ele>97.1</ele>
        <time>2015-12-06T14:14:54.000Z</time>
      </trkpt>
      <trkpt lat="47.70308" lon="-2.69591">
        <ele>97.4</ele>
        <time>2015-12-06T14:14:55.000Z</time>
      </trkpt>
      <trkpt lat="47.70307" lon="-2.69588">
        <ele>97.7</ele>
        <time>2015-12-06T14:14:56.000Z</time>
      </trkpt>
      <trkpt lat="47.70306" lon="-2.69585">
        <ele>98.1</ele>
        <time>2015-12-06T14:14:57.000Z</time>
      </trkpt>
      <trkpt lat="47.70305" lon="-2.69582">
        <ele>98.5</ele>
        <time>2015-12-06T14:14:58.000Z</time>
      </trkpt>
      <trkpt lat="47.70304" lon="-2.69579">
        <ele>99</ele>
        <time>2015-12-06T14:14:59.000Z</time>
      </trkpt>
      <trkpt lat="47.70303" lon="-2.69577">
        <ele>99.3</ele>
        <time>2015-12-06T14:15:00.000Z</time>
      </trkpt>
      <trkpt lat="47.70302" lon="-2.69574">
        <ele>99.6</ele>
        <time>2015-12-06T14:15:01.000Z</time>
      </trkpt>
      <trkpt lat="47.70302" lon="-2.69571">
        <ele>99.9</ele>
        <time>2015-12-06T14:15:02.000Z</time>
      </trkpt>
      <trkpt lat="47.70301" lon="-2.69568">
        <ele>100.2</ele>
        <time>2015-12-06T14:15:03.000Z</time>
      </trkpt>
      <trkpt lat="47.703" lon="-2.69566">
        <ele>100.6</ele>
        <time>2015-12-06T14:15:04.000Z</time>
      </trkpt>
      <trkpt lat="47.70299" lon="-2.69565">
        <ele>101</ele>
        <time>2015-12-06T14:15:05.000Z</time>
      </trkpt>
      <trkpt lat="47.70298" lon="-2.69563">
        <ele>101.4</ele>
        <time>2015-12-06T14:15:06.000Z</time>
      </trkpt>
      <trkpt lat="47.70297" lon="-2.6956">
        <ele>101.8</ele>
        <time>2015-12-06T14:15:07.000Z</time>
      </trkpt>
      <trkpt lat="47.70296" lon="-2.69558">
        <ele>102.2</ele>
        <time>2015-12-06T14:15:08.000Z</time>
      </trkpt>
      <trkpt lat="47.70294" lon="-2.69555">
        <ele>102.6</ele>
        <time>2015-12-06T14:15:09.000Z</time>
      </trkpt>
      <trkpt lat="47.70293" lon="-2.69553">
        <ele>103</ele>
        <time>2015-12-06T14:15:10.000Z</time>
      </trkpt>
      <trkpt lat="47.70293" lon="-2.6955">
        <ele>103.3</ele>
        <time>2015-12-06T14:15:11.000Z</time>
      </trkpt>
      <trkpt lat="47.70293" lon="-2.69547">
        <ele>103.4</ele>
        <time>2015-12-06T14:15:12.000Z</time>
      </trkpt>
      <trkpt lat="47.70294" lon="-2.69545">
        <ele>103.4</ele>
        <time>2015-12-06T14:15:13.000Z</time>
      </trkpt>
      <trkpt lat="47.70294" lon="-2.69541">
        <ele>103.3</ele>
        <time>2015-12-06T14:15:14.000Z</time>
      </trkpt>
      <trkpt lat="47.70295" lon="-2.69538">
        <ele>102.9</ele>
        <time>2015-12-06T14:15:15.000Z</time>
      </trkpt>
      <trkpt lat="47.70296" lon="-2.69534">
        <ele>102.6</ele>
        <time>2015-12-06T14:15:16.000Z</time>
      </trkpt>
      <trkpt lat="47.70296" lon="-2.69531">
        <ele>102.3</ele>
        <time>2015-12-06T14:15:17.000Z</time>
      </trkpt>
      <trkpt lat="47.70297" lon="-2.69529">
        <ele>101.9</ele>
        <time>2015-12-06T14:15:18.000Z</time>
      </trkpt>
      <trkpt lat="47.70299" lon="-2.69527">
        <ele>101.5</ele>
        <time>2015-12-06T14:15:19.000Z</time>
      </trkpt>
      <trkpt lat="47.703" lon="-2.69525">
        <ele>101.1</ele>
        <time>2015-12-06T14:15:20.000Z</time>
      </trkpt>
      <trkpt lat="47.70301" lon="-2.69523">
        <ele>100.7</ele>
        <time>2015-12-06T14:15:21.000Z</time>
      </trkpt>
      <trkpt lat="47.70302" lon="-2.69521">
        <ele>100.4</ele>
        <time>2015-12-06T14:15:22.000Z</time>
      </trkpt>
      <trkpt lat="47.70302" lon="-2.69519">
        <ele>100.4</ele>
        <time>2015-12-06T14:15:23.000Z</time>
      </trkpt>
      <trkpt lat="47.70301" lon="-2.69517">
        <ele>100.5</ele>
        <time>2015-12-06T14:15:24.000Z</time>
      </trkpt>
      <trkpt lat="47.70301" lon="-2.69515">
        <ele>100.5</ele>
        <time>2015-12-06T14:15:25.000Z</time>
      </trkpt>
      <trkpt lat="47.70301" lon="-2.69513">
        <ele>100.3</ele>
        <time>2015-12-06T14:15:26.000Z</time>
      </trkpt>
      <trkpt lat="47.70302" lon="-2.69511">
        <ele>100.1</ele>
        <time>2015-12-06T14:15:27.000Z</time>
      </trkpt>
      <trkpt lat="47.70302" lon="-2.69509">
        <ele>99.9</ele>
        <time>2015-12-06T14:15:28.000Z</time>
      </trkpt>
      <trkpt lat="47.70302" lon="-2.69507">
        <ele>99.8</ele>
        <time>2015-12-06T14:15:29.000Z</time>
      </trkpt>
      <trkpt lat="47.70302" lon="-2.69505">
        <ele>99.8</ele>
        <time>2015-12-06T14:15:30.000Z</time>
      </trkpt>
      <trkpt lat="47.70302" lon="-2.69503">
        <ele>99.8</ele>
        <time>2015-12-06T14:15:31.000Z</time>
      </trkpt>
      <trkpt lat="47.70301" lon="-2.69502">
        <ele>99.8</ele>
        <time>2015-12-06T14:15:32.000Z</time>
      </trkpt>
      <trkpt lat="47.70301" lon="-2.69501">
        <ele>99.9</ele>
        <time>2015-12-06T14:15:33.000Z</time>
      </trkpt>
      <trkpt lat="47.703" lon="-2.695">
        <ele>100</ele>
        <time>2015-12-06T14:15:34.000Z</time>
      </trkpt>
      <trkpt lat="47.70299" lon="-2.69499">
        <ele>100.2</ele>
        <time>2015-12-06T14:15:35.000Z</time>
      </trkpt>
      <trkpt lat="47.70298" lon="-2.69497">
        <ele>100.3</ele>
        <time>2015-12-06T14:15:36.000Z</time>
      </trkpt>
      <trkpt lat="47.70297" lon="-2.69496">
        <ele>100.5</ele>
        <time>2015-12-06T14:15:37.000Z</time>
      </trkpt>
      <trkpt lat="47.70296" lon="-2.69494">
        <ele>100.6</ele>
        <time>2015-12-06T14:15:38.000Z</time>
      </trkpt>
      <trkpt lat="47.70296" lon="-2.69492">
        <ele>100.7</ele>
        <time>2015-12-06T14:15:39.000Z</time>
      </trkpt>
      <trkpt lat="47.70295" lon="-2.6949">
        <ele>100.8</ele>
        <time>2015-12-06T14:15:40.000Z</time>
      </trkpt>
      <trkpt lat="47.70294" lon="-2.69488">
        <ele>100.9</ele>
        <time>2015-12-06T14:15:41.000Z</time>
      </trkpt>
      <trkpt lat="47.70293" lon="-2.69486">
        <ele>101</ele>
        <time>2015-12-06T14:15:42.000Z</time>
      </trkpt>
      <trkpt lat="47.70292" lon="-2.69484">
        <ele>101.1</ele>
        <time>2015-12-06T14:15:43.000Z</time>
      </trkpt>
      <trkpt lat="47.70291" lon="-2.69482">
        <ele>101.2</ele>
        <time>2015-12-06T14:15:44.000Z</time>
      </trkpt>
      <trkpt lat="47.7029" lon="-2.69481">
        <ele>101.3</ele>
        <time>2015-12-06T14:15:45.000Z</time>
      </trkpt>
      <trkpt lat="47.70289" lon="-2.69479">
        <ele>101.3</ele>
        <time>2015-12-06T14:15:46.000Z</time>
      </trkpt>
      <trkpt lat="47.70288" lon="-2.69478">
        <ele>101.4</ele>
        <time>2015-12-06T14:15:47.000Z</time>
      </trkpt>
      <trkpt lat="47.70287" lon="-2.69477">
        <ele>101.5</ele>
        <time>2015-12-06T14:15:48.000Z</time>
      </trkpt>
      <trkpt lat="47.70286" lon="-2.69477">
        <ele>101.6</ele>
        <time>2015-12-06T14:15:49.000Z</time>
      </trkpt>
      <trkpt lat="47.70285" lon="-2.69476">
        <ele>101.8</ele>
        <time>2015-12-06T14:15:50.000Z</time>
      </trkpt>
      <trkpt lat="47.70283" lon="-2.69475">
        <ele>101.9</ele>
        <time>2015-12-06T14:15:51.000Z</time>
      </trkpt>
      <trkpt lat="47.70282" lon="-2.69474">
        <ele>102</ele>
        <time>2015-12-06T14:15:52.000Z</time>
      </trkpt>
      <trkpt lat="47.70281" lon="-2.69472">
        <ele>102</ele>
        <time>2015-12-06T14:15:53.000Z</time>
      </trkpt>
      <trkpt lat="47.70281" lon="-2.69471">
        <ele>102.1</ele>
        <time>2015-12-06T14:15:54.000Z</time>
      </trkpt>
      <trkpt lat="47.7028" lon="-2.69469">
        <ele>102.1</ele>
        <time>2015-12-06T14:15:55.000Z</time>
      </trkpt>
      <trkpt lat="47.70279" lon="-2.69467">
        <ele>102.1</ele>
        <time>2015-12-06T14:15:56.000Z</time>
      </trkpt>
      <trkpt lat="47.70278" lon="-2.69466">
        <ele>102.3</ele>
        <time>2015-12-06T14:15:57.000Z</time>
      </trkpt>
      <trkpt lat="47.70276" lon="-2.69465">
        <ele>102.4</ele>
        <time>2015-12-06T14:15:58.000Z</time>
      </trkpt>
      <trkpt lat="47.70274" lon="-2.69463">
        <ele>102.7</ele>
        <time>2015-12-06T14:15:59.000Z</time>
      </trkpt>
      <trkpt lat="47.70273" lon="-2.69462">
        <ele>102.9</ele>
        <time>2015-12-06T14:16:00.000Z</time>
      </trkpt>
      <trkpt lat="47.70271" lon="-2.69462">
        <ele>103.1</ele>
        <time>2015-12-06T14:16:01.000Z</time>
      </trkpt>
      <trkpt lat="47.7027" lon="-2.69461">
        <ele>103.2</ele>
        <time>2015-12-06T14:16:02.000Z</time>
      </trkpt>
      <trkpt lat="47.70269" lon="-2.6946">
        <ele>103.3</ele>
        <time>2015-12-06T14:16:03.000Z</time>
      </trkpt>
      <trkpt lat="47.70268" lon="-2.69459">
        <ele>103.5</ele>
        <time>2015-12-06T14:16:04.000Z</time>
      </trkpt>
      <trkpt lat="47.70267" lon="-2.69458">
        <ele>103.6</ele>
        <time>2015-12-06T14:16:05.000Z</time>
      </trkpt>
      <trkpt lat="47.70265" lon="-2.69458">
        <ele>103.8</ele>
        <time>2015-12-06T14:16:06.000Z</time>
      </trkpt>
      <trkpt lat="47.70264" lon="-2.69457">
        <ele>103.9</ele>
        <time>2015-12-06T14:16:07.000Z</time>
      </trkpt>
      <trkpt lat="47.70264" lon="-2.69456">
        <ele>104</ele>
        <time>2015-12-06T14:16:08.000Z</time>
      </trkpt>
      <trkpt lat="47.70263" lon="-2.69455">
        <ele>104.1</ele>
        <time>2015-12-06T14:16:09.000Z</time>
      </trkpt>
      <trkpt lat="47.70262" lon="-2.69454">
        <ele>104.2</ele>
        <time>2015-12-06T14:16:10.000Z</time>
      </trkpt>
      <trkpt lat="47.70261" lon="-2.69454">
        <ele>104.4</ele>
        <time>2015-12-06T14:16:11.000Z</time>
      </trkpt>
      <trkpt lat="47.70261" lon="-2.69453">
        <ele>104.5</ele>
        <time>2015-12-06T14:16:12.000Z</time>
      </trkpt>
      <trkpt lat="47.7026" lon="-2.69453">
        <ele>104.5</ele>
        <time>2015-12-06T14:16:13.000Z</time>
      </trkpt>
      <trkpt lat="47.7026" lon="-2.69452">
        <ele>104.6</ele>
        <time>2015-12-06T14:16:14.000Z</time>
      </trkpt>
      <trkpt lat="47.70244" lon="-2.69451">
        <ele>106.8</ele>
        <time>2015-12-06T14:16:15.000Z</time>
      </trkpt>
      <trkpt lat="47.70244" lon="-2.69453">
        <ele>106.9</ele>
        <time>2015-12-06T14:16:16.000Z</time>
      </trkpt>
      <trkpt lat="47.70243" lon="-2.69454">
        <ele>107</ele>
        <time>2015-12-06T14:16:17.000Z</time>
      </trkpt>
      <trkpt lat="47.70243" lon="-2.69456">
        <ele>107.1</ele>
        <time>2015-12-06T14:16:18.000Z</time>
      </trkpt>
      <trkpt lat="47.70242" lon="-2.69457">
        <ele>107.1</ele>
        <time>2015-12-06T14:16:19.000Z</time>
      </trkpt>
      <trkpt lat="47.70242" lon="-2.69459">
        <ele>107.2</ele>
        <time>2015-12-06T14:16:20.000Z</time>
      </trkpt>
      <trkpt lat="47.70242" lon="-2.69461">
        <ele>107.2</ele>
        <time>2015-12-06T14:16:21.000Z</time>
      </trkpt>
      <trkpt lat="47.70241" lon="-2.69463">
        <ele>107.3</ele>
        <time>2015-12-06T14:16:22.000Z</time>
      </trkpt>
      <trkpt lat="47.70241" lon="-2.69464">
        <ele>107.4</ele>
        <time>2015-12-06T14:16:23.000Z</time>
      </trkpt>
      <trkpt lat="47.70241" lon="-2.69466">
        <ele>107.4</ele>
        <time>2015-12-06T14:16:24.000Z</time>
      </trkpt>
      <trkpt lat="47.7024" lon="-2.69467">
        <ele>107.5</ele>
        <time>2015-12-06T14:16:25.000Z</time>
      </trkpt>
      <trkpt lat="47.7024" lon="-2.69469">
        <ele>107.5</ele>
        <time>2015-12-06T14:16:26.000Z</time>
      </trkpt>
      <trkpt lat="47.7024" lon="-2.69471">
        <ele>107.6</ele>
        <time>2015-12-06T14:16:27.000Z</time>
      </trkpt>
      <trkpt lat="47.7024" lon="-2.69473">
        <ele>107.6</ele>
        <time>2015-12-06T14:16:28.000Z</time>
      </trkpt>
      <trkpt lat="47.70239" lon="-2.69475">
        <ele>107.7</ele>
        <time>2015-12-06T14:16:29.000Z</time>
      </trkpt>
      <trkpt lat="47.70239" lon="-2.69477">
        <ele>107.8</ele>
        <time>2015-12-06T14:16:30.000Z</time>
      </trkpt>
      <trkpt lat="47.70239" lon="-2.69479">
        <ele>107.8</ele>
        <time>2015-12-06T14:16:31.000Z</time>
      </trkpt>
      <trkpt lat="47.70239" lon="-2.6948">
        <ele>107.9</ele>
        <time>2015-12-06T14:16:32.000Z</time>
      </trkpt>
      <trkpt lat="47.70238" lon="-2.69483">
        <ele>108</ele>
        <time>2015-12-06T14:16:33.000Z</time>
      </trkpt>
      <trkpt lat="47.70237" lon="-2.69485">
        <ele>108.1</ele>
        <time>2015-12-06T14:16:34.000Z</time>
      </trkpt>
      <trkpt lat="47.70237" lon="-2.69488">
        <ele>108.2</ele>
        <time>2015-12-06T14:16:35.000Z</time>
      </trkpt>
      <trkpt lat="47.70236" lon="-2.6949">
        <ele>108.3</ele>
        <time>2015-12-06T14:16:36.000Z</time>
      </trkpt>
      <trkpt lat="47.70236" lon="-2.69492">
        <ele>108.3</ele>
        <time>2015-12-06T14:16:37.000Z</time>
      </trkpt>
      <trkpt lat="47.70235" lon="-2.69494">
        <ele>108.4</ele>
        <time>2015-12-06T14:16:38.000Z</time>
      </trkpt>
      <trkpt lat="47.70234" lon="-2.69496">
        <ele>108.5</ele>
        <time>2015-12-06T14:16:39.000Z</time>
      </trkpt>
      <trkpt lat="47.70234" lon="-2.69499">
        <ele>108.6</ele>
        <time>2015-12-06T14:16:40.000Z</time>
      </trkpt>
      <trkpt lat="47.70234" lon="-2.69501">
        <ele>108.6</ele>
        <time>2015-12-06T14:16:41.000Z</time>
      </trkpt>
      <trkpt lat="47.70233" lon="-2.69503">
        <ele>108.7</ele>
        <time>2015-12-06T14:16:42.000Z</time>
      </trkpt>
      <trkpt lat="47.70233" lon="-2.69505">
        <ele>108.7</ele>
        <time>2015-12-06T14:16:43.000Z</time>
      </trkpt>
      <trkpt lat="47.70233" lon="-2.69508">
        <ele>108.7</ele>
        <time>2015-12-06T14:16:44.000Z</time>
      </trkpt>
      <trkpt lat="47.70233" lon="-2.6951">
        <ele>108.8</ele>
        <time>2015-12-06T14:16:45.000Z</time>
      </trkpt>
      <trkpt lat="47.70232" lon="-2.69513">
        <ele>108.8</ele>
        <time>2015-12-06T14:16:46.000Z</time>
      </trkpt>
      <trkpt lat="47.70232" lon="-2.69514">
        <ele>108.9</ele>
        <time>2015-12-06T14:16:47.000Z</time>
      </trkpt>
      <trkpt lat="47.70231" lon="-2.69515">
        <ele>109</ele>
        <time>2015-12-06T14:16:48.000Z</time>
      </trkpt>
      <trkpt lat="47.70231" lon="-2.69515">
        <ele>109</ele>
        <time>2015-12-06T14:16:49.000Z</time>
      </trkpt>
      <trkpt lat="47.70231" lon="-2.69515">
        <ele>109</ele>
        <time>2015-12-06T14:16:50.000Z</time>
      </trkpt>
      <trkpt lat="47.70231" lon="-2.69515">
        <ele>109</ele>
        <time>2015-12-06T14:16:51.000Z</time>
      </trkpt>
      <trkpt lat="47.70231" lon="-2.69515">
        <ele>109</ele>
        <time>2015-12-06T14:16:52.000Z</time>
      </trkpt>
      <trkpt lat="47.70231" lon="-2.69515">
        <ele>109</ele>
        <time>2015-12-06T14:16:53.000Z</time>
      </trkpt>
      <trkpt lat="47.70231" lon="-2.69515">
        <ele>109</ele>
        <time>2015-12-06T14:16:54.000Z</time>
      </trkpt>
      <trkpt lat="47.70231" lon="-2.69515">
        <ele>109</ele>
        <time>2015-12-06T14:16:55.000Z</time>
      </trkpt>
      <trkpt lat="47.7023" lon="-2.69516">
        <ele>109</ele>
        <time>2015-12-06T14:16:56.000Z</time>
      </trkpt>
      <trkpt lat="47.70231" lon="-2.69511">
        <ele>108.9</ele>
        <time>2015-12-06T14:16:57.000Z</time>
      </trkpt>
      <trkpt lat="47.70231" lon="-2.6951">
        <ele>108.9</ele>
        <time>2015-12-06T14:16:58.000Z</time>
      </trkpt>
      <trkpt lat="47.70231" lon="-2.69508">
        <ele>108.9</ele>
        <time>2015-12-06T14:16:59.000Z</time>
      </trkpt>
      <trkpt lat="47.70231" lon="-2.69506">
        <ele>108.9</ele>
        <time>2015-12-06T14:17:00.000Z</time>
      </trkpt>
      <trkpt lat="47.70231" lon="-2.69504">
        <ele>108.9</ele>
        <time>2015-12-06T14:17:01.000Z</time>
      </trkpt>
      <trkpt lat="47.70231" lon="-2.69503">
        <ele>108.9</ele>
        <time>2015-12-06T14:17:02.000Z</time>
      </trkpt>
      <trkpt lat="47.70231" lon="-2.69502">
        <ele>108.9</ele>
        <time>2015-12-06T14:17:03.000Z</time>
      </trkpt>
      <trkpt lat="47.70231" lon="-2.695">
        <ele>109</ele>
        <time>2015-12-06T14:17:04.000Z</time>
      </trkpt>
      <trkpt lat="47.70231" lon="-2.69499">
        <ele>109</ele>
        <time>2015-12-06T14:17:05.000Z</time>
      </trkpt>
      <trkpt lat="47.70231" lon="-2.69498">
        <ele>109</ele>
        <time>2015-12-06T14:17:06.000Z</time>
      </trkpt>
      <trkpt lat="47.70231" lon="-2.69497">
        <ele>109</ele>
        <time>2015-12-06T14:17:07.000Z</time>
      </trkpt>
      <trkpt lat="47.7023" lon="-2.69496">
        <ele>109</ele>
        <time>2015-12-06T14:17:08.000Z</time>
      </trkpt>
      <trkpt lat="47.7023" lon="-2.69495">
        <ele>109</ele>
        <time>2015-12-06T14:17:09.000Z</time>
      </trkpt>
      <trkpt lat="47.70229" lon="-2.69493">
        <ele>109.1</ele>
        <time>2015-12-06T14:17:10.000Z</time>
      </trkpt>
      <trkpt lat="47.70228" lon="-2.69491">
        <ele>109.2</ele>
        <time>2015-12-06T14:17:11.000Z</time>
      </trkpt>
      <trkpt lat="47.70227" lon="-2.69489">
        <ele>109.3</ele>
        <time>2015-12-06T14:17:12.000Z</time>
      </trkpt>
      <trkpt lat="47.70227" lon="-2.69487">
        <ele>109.4</ele>
        <time>2015-12-06T14:17:13.000Z</time>
      </trkpt>
      <trkpt lat="47.70226" lon="-2.69485">
        <ele>109.4</ele>
        <time>2015-12-06T14:17:14.000Z</time>
      </trkpt>
      <trkpt lat="47.70226" lon="-2.69483">
        <ele>109.5</ele>
        <time>2015-12-06T14:17:15.000Z</time>
      </trkpt>
      <trkpt lat="47.70225" lon="-2.69482">
        <ele>109.6</ele>
        <time>2015-12-06T14:17:16.000Z</time>
      </trkpt>
      <trkpt lat="47.70224" lon="-2.69481">
        <ele>109.7</ele>
        <time>2015-12-06T14:17:17.000Z</time>
      </trkpt>
      <trkpt lat="47.70223" lon="-2.69479">
        <ele>109.9</ele>
        <time>2015-12-06T14:17:18.000Z</time>
      </trkpt>
      <trkpt lat="47.70222" lon="-2.69478">
        <ele>110</ele>
        <time>2015-12-06T14:17:19.000Z</time>
      </trkpt>
      <trkpt lat="47.70221" lon="-2.69476">
        <ele>110.1</ele>
        <time>2015-12-06T14:17:20.000Z</time>
      </trkpt>
      <trkpt lat="47.7022" lon="-2.69474">
        <ele>110.3</ele>
        <time>2015-12-06T14:17:21.000Z</time>
      </trkpt>
      <trkpt lat="47.70219" lon="-2.69473">
        <ele>110.4</ele>
        <time>2015-12-06T14:17:22.000Z</time>
      </trkpt>
      <trkpt lat="47.70218" lon="-2.69471">
        <ele>110.5</ele>
        <time>2015-12-06T14:17:23.000Z</time>
      </trkpt>
      <trkpt lat="47.70217" lon="-2.6947">
        <ele>110.7</ele>
        <time>2015-12-06T14:17:24.000Z</time>
      </trkpt>
      <trkpt lat="47.70216" lon="-2.69467">
        <ele>110.8</ele>
        <time>2015-12-06T14:17:25.000Z</time>
      </trkpt>
      <trkpt lat="47.70215" lon="-2.69465">
        <ele>111</ele>
        <time>2015-12-06T14:17:26.000Z</time>
      </trkpt>
      <trkpt lat="47.70215" lon="-2.69462">
        <ele>111</ele>
        <time>2015-12-06T14:17:27.000Z</time>
      </trkpt>
      <trkpt lat="47.70215" lon="-2.69459">
        <ele>111.1</ele>
        <time>2015-12-06T14:17:28.000Z</time>
      </trkpt>
      <trkpt lat="47.70214" lon="-2.69457">
        <ele>111.2</ele>
        <time>2015-12-06T14:17:29.000Z</time>
      </trkpt>
      <trkpt lat="47.70214" lon="-2.69454">
        <ele>111.3</ele>
        <time>2015-12-06T14:17:30.000Z</time>
      </trkpt>
      <trkpt lat="47.70213" lon="-2.69453">
        <ele>111.4</ele>
        <time>2015-12-06T14:17:31.000Z</time>
      </trkpt>
      <trkpt lat="47.70212" lon="-2.69451">
        <ele>111.6</ele>
        <time>2015-12-06T14:17:32.000Z</time>
      </trkpt>
      <trkpt lat="47.70212" lon="-2.6945">
        <ele>111.7</ele>
        <time>2015-12-06T14:17:33.000Z</time>
      </trkpt>
      <trkpt lat="47.70211" lon="-2.69449">
        <ele>111.9</ele>
        <time>2015-12-06T14:17:34.000Z</time>
      </trkpt>
      <trkpt lat="47.7021" lon="-2.69447">
        <ele>112</ele>
        <time>2015-12-06T14:17:35.000Z</time>
      </trkpt>
      <trkpt lat="47.70209" lon="-2.69445">
        <ele>112.2</ele>
        <time>2015-12-06T14:17:36.000Z</time>
      </trkpt>
      <trkpt lat="47.70208" lon="-2.69443">
        <ele>112.4</ele>
        <time>2015-12-06T14:17:37.000Z</time>
      </trkpt>
      <trkpt lat="47.70207" lon="-2.69442">
        <ele>112.4</ele>
        <time>2015-12-06T14:17:38.000Z</time>
      </trkpt>
      <trkpt lat="47.70207" lon="-2.69439">
        <ele>112.5</ele>
        <time>2015-12-06T14:17:39.000Z</time>
      </trkpt>
      <trkpt lat="47.70206" lon="-2.69436">
        <ele>112.5</ele>
        <time>2015-12-06T14:17:40.000Z</time>
      </trkpt>
      <trkpt lat="47.70206" lon="-2.69433">
        <ele>112.6</ele>
        <time>2015-12-06T14:17:41.000Z</time>
      </trkpt>
      <trkpt lat="47.70206" lon="-2.6943">
        <ele>112.7</ele>
        <time>2015-12-06T14:17:42.000Z</time>
      </trkpt>
      <trkpt lat="47.70206" lon="-2.69428">
        <ele>112.7</ele>
        <time>2015-12-06T14:17:43.000Z</time>
      </trkpt>
      <trkpt lat="47.70206" lon="-2.69425">
        <ele>112.8</ele>
        <time>2015-12-06T14:17:44.000Z</time>
      </trkpt>
      <trkpt lat="47.70206" lon="-2.69423">
        <ele>112.9</ele>
        <time>2015-12-06T14:17:45.000Z</time>
      </trkpt>
      <trkpt lat="47.70206" lon="-2.6942">
        <ele>112.9</ele>
        <time>2015-12-06T14:17:46.000Z</time>
      </trkpt>
      <trkpt lat="47.70205" lon="-2.69416">
        <ele>113</ele>
        <time>2015-12-06T14:17:47.000Z</time>
      </trkpt>
      <trkpt lat="47.70205" lon="-2.69413">
        <ele>113.1</ele>
        <time>2015-12-06T14:17:48.000Z</time>
      </trkpt>
      <trkpt lat="47.70204" lon="-2.69409">
        <ele>113.2</ele>
        <time>2015-12-06T14:17:49.000Z</time>
      </trkpt>
      <trkpt lat="47.70204" lon="-2.69405">
        <ele>113.3</ele>
        <time>2015-12-06T14:17:50.000Z</time>
      </trkpt>
      <trkpt lat="47.70204" lon="-2.69402">
        <ele>113.4</ele>
        <time>2015-12-06T14:17:51.000Z</time>
      </trkpt>
      <trkpt lat="47.70204" lon="-2.69399">
        <ele>113.5</ele>
        <time>2015-12-06T14:17:52.000Z</time>
      </trkpt>
      <trkpt lat="47.70204" lon="-2.69397">
        <ele>113.5</ele>
        <time>2015-12-06T14:17:53.000Z</time>
      </trkpt>
      <trkpt lat="47.70203" lon="-2.69395">
        <ele>113.6</ele>
        <time>2015-12-06T14:17:54.000Z</time>
      </trkpt>
      <trkpt lat="47.70203" lon="-2.69392">
        <ele>113.7</ele>
        <time>2015-12-06T14:17:55.000Z</time>
      </trkpt>
      <trkpt lat="47.70203" lon="-2.69389">
        <ele>113.8</ele>
        <time>2015-12-06T14:17:56.000Z</time>
      </trkpt>
      <trkpt lat="47.70202" lon="-2.69386">
        <ele>113.8</ele>
        <time>2015-12-06T14:17:57.000Z</time>
      </trkpt>
      <trkpt lat="47.70202" lon="-2.69385">
        <ele>113.9</ele>
        <time>2015-12-06T14:17:58.000Z</time>
      </trkpt>
      <trkpt lat="47.70202" lon="-2.69383">
        <ele>113.9</ele>
        <time>2015-12-06T14:17:59.000Z</time>
      </trkpt>
      <trkpt lat="47.70201" lon="-2.69381">
        <ele>114</ele>
        <time>2015-12-06T14:18:00.000Z</time>
      </trkpt>
      <trkpt lat="47.702" lon="-2.69378">
        <ele>114.1</ele>
        <time>2015-12-06T14:18:01.000Z</time>
      </trkpt>
      <trkpt lat="47.702" lon="-2.69376">
        <ele>114.2</ele>
        <time>2015-12-06T14:18:02.000Z</time>
      </trkpt>
      <trkpt lat="47.70199" lon="-2.69374">
        <ele>114.3</ele>
        <time>2015-12-06T14:18:03.000Z</time>
      </trkpt>
      <trkpt lat="47.70198" lon="-2.69372">
        <ele>114.3</ele>
        <time>2015-12-06T14:18:04.000Z</time>
      </trkpt>
      <trkpt lat="47.70198" lon="-2.69369">
        <ele>114.4</ele>
        <time>2015-12-06T14:18:05.000Z</time>
      </trkpt>
      <trkpt lat="47.70198" lon="-2.69366">
        <ele>114.5</ele>
        <time>2015-12-06T14:18:06.000Z</time>
      </trkpt>
      <trkpt lat="47.70198" lon="-2.69364">
        <ele>114.5</ele>
        <time>2015-12-06T14:18:07.000Z</time>
      </trkpt>
      <trkpt lat="47.70198" lon="-2.6936">
        <ele>114.6</ele>
        <time>2015-12-06T14:18:08.000Z</time>
      </trkpt>
      <trkpt lat="47.70198" lon="-2.69357">
        <ele>114.7</ele>
        <time>2015-12-06T14:18:09.000Z</time>
      </trkpt>
      <trkpt lat="47.70198" lon="-2.69354">
        <ele>114.8</ele>
        <time>2015-12-06T14:18:10.000Z</time>
      </trkpt>
      <trkpt lat="47.70198" lon="-2.69352">
        <ele>114.8</ele>
        <time>2015-12-06T14:18:11.000Z</time>
      </trkpt>
      <trkpt lat="47.70198" lon="-2.69349">
        <ele>114.9</ele>
        <time>2015-12-06T14:18:12.000Z</time>
      </trkpt>
      <trkpt lat="47.70198" lon="-2.69346">
        <ele>115</ele>
        <time>2015-12-06T14:18:13.000Z</time>
      </trkpt>
      <trkpt lat="47.70197" lon="-2.69344">
        <ele>115.1</ele>
        <time>2015-12-06T14:18:14.000Z</time>
      </trkpt>
      <trkpt lat="47.70197" lon="-2.69341">
        <ele>115.2</ele>
        <time>2015-12-06T14:18:15.000Z</time>
      </trkpt>
      <trkpt lat="47.70196" lon="-2.69338">
        <ele>115.2</ele>
        <time>2015-12-06T14:18:16.000Z</time>
      </trkpt>
      <trkpt lat="47.70196" lon="-2.69337">
        <ele>115.3</ele>
        <time>2015-12-06T14:18:17.000Z</time>
      </trkpt>
      <trkpt lat="47.70195" lon="-2.69336">
        <ele>115.3</ele>
        <time>2015-12-06T14:18:18.000Z</time>
      </trkpt>
      <trkpt lat="47.70194" lon="-2.69337">
        <ele>115.3</ele>
        <time>2015-12-06T14:18:19.000Z</time>
      </trkpt>
      <trkpt lat="47.70194" lon="-2.69336">
        <ele>115.4</ele>
        <time>2015-12-06T14:18:20.000Z</time>
      </trkpt>
      <trkpt lat="47.70194" lon="-2.69336">
        <ele>115.4</ele>
        <time>2015-12-06T14:18:21.000Z</time>
      </trkpt>
      <trkpt lat="47.70193" lon="-2.69335">
        <ele>115.4</ele>
        <time>2015-12-06T14:18:22.000Z</time>
      </trkpt>
      <trkpt lat="47.70193" lon="-2.69334">
        <ele>115.4</ele>
        <time>2015-12-06T14:18:23.000Z</time>
      </trkpt>
      <trkpt lat="47.70193" lon="-2.69334">
        <ele>115.4</ele>
        <time>2015-12-06T14:18:24.000Z</time>
      </trkpt>
      <trkpt lat="47.70193" lon="-2.69333">
        <ele>115.5</ele>
        <time>2015-12-06T14:18:25.000Z</time>
      </trkpt>
      <trkpt lat="47.70193" lon="-2.69332">
        <ele>115.5</ele>
        <time>2015-12-06T14:18:26.000Z</time>
      </trkpt>
      <trkpt lat="47.70192" lon="-2.6933">
        <ele>115.6</ele>
        <time>2015-12-06T14:18:27.000Z</time>
      </trkpt>
      <trkpt lat="47.70192" lon="-2.69328">
        <ele>115.6</ele>
        <time>2015-12-06T14:18:28.000Z</time>
      </trkpt>
      <trkpt lat="47.70192" lon="-2.69326">
        <ele>115.7</ele>
        <time>2015-12-06T14:18:29.000Z</time>
      </trkpt>
      <trkpt lat="47.70192" lon="-2.69324">
        <ele>115.7</ele>
        <time>2015-12-06T14:18:30.000Z</time>
      </trkpt>
      <trkpt lat="47.70192" lon="-2.69322">
        <ele>115.8</ele>
        <time>2015-12-06T14:18:31.000Z</time>
      </trkpt>
      <trkpt lat="47.70192" lon="-2.6932">
        <ele>115.8</ele>
        <time>2015-12-06T14:18:32.000Z</time>
      </trkpt>
      <trkpt lat="47.70192" lon="-2.69318">
        <ele>115.9</ele>
        <time>2015-12-06T14:18:33.000Z</time>
      </trkpt>
      <trkpt lat="47.70193" lon="-2.69317">
        <ele>115.9</ele>
        <time>2015-12-06T14:18:34.000Z</time>
      </trkpt>
      <trkpt lat="47.70193" lon="-2.69315">
        <ele>116</ele>
        <time>2015-12-06T14:18:35.000Z</time>
      </trkpt>
      <trkpt lat="47.70193" lon="-2.69312">
        <ele>116</ele>
        <time>2015-12-06T14:18:36.000Z</time>
      </trkpt>
      <trkpt lat="47.70193" lon="-2.69309">
        <ele>116.1</ele>
        <time>2015-12-06T14:18:37.000Z</time>
      </trkpt>
      <trkpt lat="47.70193" lon="-2.69306">
        <ele>116.2</ele>
        <time>2015-12-06T14:18:38.000Z</time>
      </trkpt>
      <trkpt lat="47.70193" lon="-2.69304">
        <ele>116.2</ele>
        <time>2015-12-06T14:18:39.000Z</time>
      </trkpt>
      <trkpt lat="47.70193" lon="-2.69301">
        <ele>116.3</ele>
        <time>2015-12-06T14:18:40.000Z</time>
      </trkpt>
      <trkpt lat="47.70193" lon="-2.69299">
        <ele>116.4</ele>
        <time>2015-12-06T14:18:41.000Z</time>
      </trkpt>
      <trkpt lat="47.70193" lon="-2.69296">
        <ele>116.4</ele>
        <time>2015-12-06T14:18:42.000Z</time>
      </trkpt>
      <trkpt lat="47.70193" lon="-2.69294">
        <ele>116.5</ele>
        <time>2015-12-06T14:18:43.000Z</time>
      </trkpt>
      <trkpt lat="47.70194" lon="-2.69292">
        <ele>116.5</ele>
        <time>2015-12-06T14:18:44.000Z</time>
      </trkpt>
      <trkpt lat="47.70193" lon="-2.69289">
        <ele>116.5</ele>
        <time>2015-12-06T14:18:45.000Z</time>
      </trkpt>
      <trkpt lat="47.70193" lon="-2.69286">
        <ele>116.5</ele>
        <time>2015-12-06T14:18:46.000Z</time>
      </trkpt>
      <trkpt lat="47.70194" lon="-2.69282">
        <ele>116.5</ele>
        <time>2015-12-06T14:18:47.000Z</time>
      </trkpt>
      <trkpt lat="47.70195" lon="-2.69278">
        <ele>116.5</ele>
        <time>2015-12-06T14:18:48.000Z</time>
      </trkpt>
      <trkpt lat="47.70196" lon="-2.69273">
        <ele>116.4</ele>
        <time>2015-12-06T14:18:49.000Z</time>
      </trkpt>
      <trkpt lat="47.70197" lon="-2.69268">
        <ele>116.4</ele>
        <time>2015-12-06T14:18:50.000Z</time>
      </trkpt>
      <trkpt lat="47.70198" lon="-2.69263">
        <ele>116.4</ele>
        <time>2015-12-06T14:18:51.000Z</time>
      </trkpt>
      <trkpt lat="47.70199" lon="-2.69258">
        <ele>116.3</ele>
        <time>2015-12-06T14:18:52.000Z</time>
      </trkpt>
      <trkpt lat="47.702" lon="-2.69252">
        <ele>116.3</ele>
        <time>2015-12-06T14:18:53.000Z</time>
      </trkpt>
      <trkpt lat="47.70201" lon="-2.69245">
        <ele>116.2</ele>
        <time>2015-12-06T14:18:54.000Z</time>
      </trkpt>
      <trkpt lat="47.70204" lon="-2.69238">
        <ele>116.2</ele>
        <time>2015-12-06T14:18:55.000Z</time>
      </trkpt>
      <trkpt lat="47.70206" lon="-2.6923">
        <ele>116.1</ele>
        <time>2015-12-06T14:18:56.000Z</time>
      </trkpt>
      <trkpt lat="47.70208" lon="-2.69223">
        <ele>116</ele>
        <time>2015-12-06T14:18:57.000Z</time>
      </trkpt>
      <trkpt lat="47.70211" lon="-2.69216">
        <ele>115.4</ele>
        <time>2015-12-06T14:18:58.000Z</time>
      </trkpt>
      <trkpt lat="47.70214" lon="-2.69209">
        <ele>114.5</ele>
        <time>2015-12-06T14:18:59.000Z</time>
      </trkpt>
      <trkpt lat="47.70217" lon="-2.69202">
        <ele>113.7</ele>
        <time>2015-12-06T14:19:00.000Z</time>
      </trkpt>
      <trkpt lat="47.7022" lon="-2.69195">
        <ele>113.2</ele>
        <time>2015-12-06T14:19:01.000Z</time>
      </trkpt>
      <trkpt lat="47.70222" lon="-2.69189">
        <ele>112.7</ele>
        <time>2015-12-06T14:19:02.000Z</time>
      </trkpt>
      <trkpt lat="47.70223" lon="-2.69184">
        <ele>112.5</ele>
        <time>2015-12-06T14:19:03.000Z</time>
      </trkpt>
      <trkpt lat="47.70224" lon="-2.69179">
        <ele>112.2</ele>
        <time>2015-12-06T14:19:04.000Z</time>
      </trkpt>
      <trkpt lat="47.70224" lon="-2.69173">
        <ele>112.2</ele>
        <time>2015-12-06T14:19:05.000Z</time>
      </trkpt>
      <trkpt lat="47.70224" lon="-2.69167">
        <ele>112.2</ele>
        <time>2015-12-06T14:19:06.000Z</time>
      </trkpt>
      <trkpt lat="47.70224" lon="-2.69161">
        <ele>112.4</ele>
        <time>2015-12-06T14:19:07.000Z</time>
      </trkpt>
      <trkpt lat="47.70224" lon="-2.69155">
        <ele>112.5</ele>
        <time>2015-12-06T14:19:08.000Z</time>
      </trkpt>
      <trkpt lat="47.70223" lon="-2.69149">
        <ele>112.7</ele>
        <time>2015-12-06T14:19:09.000Z</time>
      </trkpt>
      <trkpt lat="47.70223" lon="-2.69144">
        <ele>112.8</ele>
        <time>2015-12-06T14:19:10.000Z</time>
      </trkpt>
      <trkpt lat="47.70223" lon="-2.6914">
        <ele>112.9</ele>
        <time>2015-12-06T14:19:11.000Z</time>
      </trkpt>
      <trkpt lat="47.70223" lon="-2.69136">
        <ele>113</ele>
        <time>2015-12-06T14:19:12.000Z</time>
      </trkpt>
      <trkpt lat="47.70223" lon="-2.69131">
        <ele>112.9</ele>
        <time>2015-12-06T14:19:13.000Z</time>
      </trkpt>
      <trkpt lat="47.70223" lon="-2.69128">
        <ele>112.9</ele>
        <time>2015-12-06T14:19:14.000Z</time>
      </trkpt>
      <trkpt lat="47.70224" lon="-2.69124">
        <ele>112.8</ele>
        <time>2015-12-06T14:19:15.000Z</time>
      </trkpt>
      <trkpt lat="47.70224" lon="-2.69121">
        <ele>112.8</ele>
        <time>2015-12-06T14:19:16.000Z</time>
      </trkpt>
      <trkpt lat="47.70224" lon="-2.69118">
        <ele>112.8</ele>
        <time>2015-12-06T14:19:17.000Z</time>
      </trkpt>
      <trkpt lat="47.70224" lon="-2.69114">
        <ele>113</ele>
        <time>2015-12-06T14:19:18.000Z</time>
      </trkpt>
      <trkpt lat="47.70224" lon="-2.69111">
        <ele>113.1</ele>
        <time>2015-12-06T14:19:19.000Z</time>
      </trkpt>
      <trkpt lat="47.70223" lon="-2.69108">
        <ele>113.2</ele>
        <time>2015-12-06T14:19:20.000Z</time>
      </trkpt>
      <trkpt lat="47.70223" lon="-2.69105">
        <ele>113.3</ele>
        <time>2015-12-06T14:19:21.000Z</time>
      </trkpt>
      <trkpt lat="47.70223" lon="-2.69101">
        <ele>113.5</ele>
        <time>2015-12-06T14:19:22.000Z</time>
      </trkpt>
      <trkpt lat="47.70222" lon="-2.69098">
        <ele>113.7</ele>
        <time>2015-12-06T14:19:23.000Z</time>
      </trkpt>
      <trkpt lat="47.70222" lon="-2.69095">
        <ele>114</ele>
        <time>2015-12-06T14:19:24.000Z</time>
      </trkpt>
      <trkpt lat="47.70221" lon="-2.69092">
        <ele>114.3</ele>
        <time>2015-12-06T14:19:25.000Z</time>
      </trkpt>
      <trkpt lat="47.7022" lon="-2.69089">
        <ele>114.6</ele>
        <time>2015-12-06T14:19:26.000Z</time>
      </trkpt>
      <trkpt lat="47.70219" lon="-2.69086">
        <ele>114.8</ele>
        <time>2015-12-06T14:19:27.000Z</time>
      </trkpt>
      <trkpt lat="47.70219" lon="-2.69084">
        <ele>115.1</ele>
        <time>2015-12-06T14:19:28.000Z</time>
      </trkpt>
      <trkpt lat="47.70218" lon="-2.69081">
        <ele>115.3</ele>
        <time>2015-12-06T14:19:29.000Z</time>
      </trkpt>
      <trkpt lat="47.70217" lon="-2.69078">
        <ele>115.8</ele>
        <time>2015-12-06T14:19:30.000Z</time>
      </trkpt>
      <trkpt lat="47.70215" lon="-2.69075">
        <ele>116.4</ele>
        <time>2015-12-06T14:19:31.000Z</time>
      </trkpt>
      <trkpt lat="47.70213" lon="-2.69073">
        <ele>117</ele>
        <time>2015-12-06T14:19:32.000Z</time>
      </trkpt>
      <trkpt lat="47.70211" lon="-2.6907">
        <ele>117.4</ele>
        <time>2015-12-06T14:19:33.000Z</time>
      </trkpt>
      <trkpt lat="47.70211" lon="-2.69067">
        <ele>117.7</ele>
        <time>2015-12-06T14:19:34.000Z</time>
      </trkpt>
      <trkpt lat="47.7021" lon="-2.69064">
        <ele>118</ele>
        <time>2015-12-06T14:19:35.000Z</time>
      </trkpt>
      <trkpt lat="47.70209" lon="-2.6906">
        <ele>118.2</ele>
        <time>2015-12-06T14:19:36.000Z</time>
      </trkpt>
      <trkpt lat="47.70209" lon="-2.69057">
        <ele>118.4</ele>
        <time>2015-12-06T14:19:37.000Z</time>
      </trkpt>
      <trkpt lat="47.70209" lon="-2.69054">
        <ele>118.4</ele>
        <time>2015-12-06T14:19:38.000Z</time>
      </trkpt>
      <trkpt lat="47.70209" lon="-2.6905">
        <ele>118.5</ele>
        <time>2015-12-06T14:19:39.000Z</time>
      </trkpt>
      <trkpt lat="47.7021" lon="-2.69046">
        <ele>118.5</ele>
        <time>2015-12-06T14:19:40.000Z</time>
      </trkpt>
      <trkpt lat="47.70209" lon="-2.69041">
        <ele>118.7</ele>
        <time>2015-12-06T14:19:41.000Z</time>
      </trkpt>
      <trkpt lat="47.7021" lon="-2.69035">
        <ele>118.4</ele>
        <time>2015-12-06T14:19:42.000Z</time>
      </trkpt>
      <trkpt lat="47.7021" lon="-2.6903">
        <ele>118.2</ele>
        <time>2015-12-06T14:19:43.000Z</time>
      </trkpt>
      <trkpt lat="47.70211" lon="-2.69025">
        <ele>117.9</ele>
        <time>2015-12-06T14:19:44.000Z</time>
      </trkpt>
      <trkpt lat="47.70212" lon="-2.69021">
        <ele>117.6</ele>
        <time>2015-12-06T14:19:45.000Z</time>
      </trkpt>
      <trkpt lat="47.70212" lon="-2.69016">
        <ele>117.3</ele>
        <time>2015-12-06T14:19:46.000Z</time>
      </trkpt>
      <trkpt lat="47.70212" lon="-2.69011">
        <ele>117.2</ele>
        <time>2015-12-06T14:19:47.000Z</time>
      </trkpt>
      <trkpt lat="47.70212" lon="-2.69006">
        <ele>117</ele>
        <time>2015-12-06T14:19:48.000Z</time>
      </trkpt>
      <trkpt lat="47.70213" lon="-2.69">
        <ele>116.7</ele>
        <time>2015-12-06T14:19:49.000Z</time>
      </trkpt>
      <trkpt lat="47.70214" lon="-2.68994">
        <ele>116.4</ele>
        <time>2015-12-06T14:19:50.000Z</time>
      </trkpt>
      <trkpt lat="47.70214" lon="-2.68988">
        <ele>116.1</ele>
        <time>2015-12-06T14:19:51.000Z</time>
      </trkpt>
      <trkpt lat="47.70214" lon="-2.68982">
        <ele>115.9</ele>
        <time>2015-12-06T14:19:52.000Z</time>
      </trkpt>
      <trkpt lat="47.70215" lon="-2.68975">
        <ele>115.5</ele>
        <time>2015-12-06T14:19:53.000Z</time>
      </trkpt>
      <trkpt lat="47.70216" lon="-2.68968">
        <ele>115.2</ele>
        <time>2015-12-06T14:19:54.000Z</time>
      </trkpt>
      <trkpt lat="47.70217" lon="-2.68959">
        <ele>114.7</ele>
        <time>2015-12-06T14:19:55.000Z</time>
      </trkpt>
      <trkpt lat="47.70218" lon="-2.6895">
        <ele>114.4</ele>
        <time>2015-12-06T14:19:56.000Z</time>
      </trkpt>
      <trkpt lat="47.70221" lon="-2.6894">
        <ele>113.7</ele>
        <time>2015-12-06T14:19:57.000Z</time>
      </trkpt>
      <trkpt lat="47.70226" lon="-2.68929">
        <ele>112.3</ele>
        <time>2015-12-06T14:19:58.000Z</time>
      </trkpt>
      <trkpt lat="47.7023" lon="-2.68919">
        <ele>110.8</ele>
        <time>2015-12-06T14:19:59.000Z</time>
      </trkpt>
      <trkpt lat="47.70234" lon="-2.68911">
        <ele>109.8</ele>
        <time>2015-12-06T14:20:00.000Z</time>
      </trkpt>
      <trkpt lat="47.70234" lon="-2.68906">
        <ele>109.5</ele>
        <time>2015-12-06T14:20:01.000Z</time>
      </trkpt>
      <trkpt lat="47.70236" lon="-2.68902">
        <ele>109.2</ele>
        <time>2015-12-06T14:20:02.000Z</time>
      </trkpt>
      <trkpt lat="47.70237" lon="-2.68897">
        <ele>108.7</ele>
        <time>2015-12-06T14:20:03.000Z</time>
      </trkpt>
      <trkpt lat="47.70239" lon="-2.68893">
        <ele>108.1</ele>
        <time>2015-12-06T14:20:04.000Z</time>
      </trkpt>
      <trkpt lat="47.7024" lon="-2.68888">
        <ele>107.7</ele>
        <time>2015-12-06T14:20:05.000Z</time>
      </trkpt>
      <trkpt lat="47.70241" lon="-2.68884">
        <ele>107.3</ele>
        <time>2015-12-06T14:20:06.000Z</time>
      </trkpt>
      <trkpt lat="47.70242" lon="-2.6888">
        <ele>107.1</ele>
        <time>2015-12-06T14:20:07.000Z</time>
      </trkpt>
      <trkpt lat="47.70242" lon="-2.68875">
        <ele>107</ele>
        <time>2015-12-06T14:20:08.000Z</time>
      </trkpt>
      <trkpt lat="47.70241" lon="-2.68869">
        <ele>107.2</ele>
        <time>2015-12-06T14:20:09.000Z</time>
      </trkpt>
      <trkpt lat="47.70241" lon="-2.68864">
        <ele>107.6</ele>
        <time>2015-12-06T14:20:10.000Z</time>
      </trkpt>
      <trkpt lat="47.70239" lon="-2.68859">
        <ele>108.1</ele>
        <time>2015-12-06T14:20:11.000Z</time>
      </trkpt>
      <trkpt lat="47.70237" lon="-2.68856">
        <ele>108.8</ele>
        <time>2015-12-06T14:20:12.000Z</time>
      </trkpt>
      <trkpt lat="47.70235" lon="-2.68854">
        <ele>109.4</ele>
        <time>2015-12-06T14:20:13.000Z</time>
      </trkpt>
      <trkpt lat="47.70233" lon="-2.68852">
        <ele>110</ele>
        <time>2015-12-06T14:20:14.000Z</time>
      </trkpt>
      <trkpt lat="47.70232" lon="-2.6885">
        <ele>110.3</ele>
        <time>2015-12-06T14:20:15.000Z</time>
      </trkpt>
      <trkpt lat="47.70232" lon="-2.68849">
        <ele>110.6</ele>
        <time>2015-12-06T14:20:16.000Z</time>
      </trkpt>
      <trkpt lat="47.70231" lon="-2.68849">
        <ele>110.9</ele>
        <time>2015-12-06T14:20:17.000Z</time>
      </trkpt>
      <trkpt lat="47.7023" lon="-2.68849">
        <ele>111.2</ele>
        <time>2015-12-06T14:20:18.000Z</time>
      </trkpt>
      <trkpt lat="47.70229" lon="-2.6885">
        <ele>111.5</ele>
        <time>2015-12-06T14:20:19.000Z</time>
      </trkpt>
      <trkpt lat="47.70228" lon="-2.68851">
        <ele>111.7</ele>
        <time>2015-12-06T14:20:20.000Z</time>
      </trkpt>
      <trkpt lat="47.70227" lon="-2.68852">
        <ele>111.9</ele>
        <time>2015-12-06T14:20:21.000Z</time>
      </trkpt>
      <trkpt lat="47.70226" lon="-2.68852">
        <ele>112.1</ele>
        <time>2015-12-06T14:20:22.000Z</time>
      </trkpt>
      <trkpt lat="47.70225" lon="-2.68854">
        <ele>112.4</ele>
        <time>2015-12-06T14:20:23.000Z</time>
      </trkpt>
      <trkpt lat="47.70224" lon="-2.68855">
        <ele>112.6</ele>
        <time>2015-12-06T14:20:24.000Z</time>
      </trkpt>
      <trkpt lat="47.70223" lon="-2.68857">
        <ele>112.8</ele>
        <time>2015-12-06T14:20:25.000Z</time>
      </trkpt>
      <trkpt lat="47.70222" lon="-2.68859">
        <ele>113.1</ele>
        <time>2015-12-06T14:20:26.000Z</time>
      </trkpt>
      <trkpt lat="47.70221" lon="-2.68861">
        <ele>113.4</ele>
        <time>2015-12-06T14:20:27.000Z</time>
      </trkpt>
      <trkpt lat="47.7022" lon="-2.68862">
        <ele>113.7</ele>
        <time>2015-12-06T14:20:28.000Z</time>
      </trkpt>
      <trkpt lat="47.70219" lon="-2.68864">
        <ele>114</ele>
        <time>2015-12-06T14:20:29.000Z</time>
      </trkpt>
      <trkpt lat="47.70218" lon="-2.68865">
        <ele>114.3</ele>
        <time>2015-12-06T14:20:30.000Z</time>
      </trkpt>
      <trkpt lat="47.70217" lon="-2.68867">
        <ele>114.5</ele>
        <time>2015-12-06T14:20:31.000Z</time>
      </trkpt>
      <trkpt lat="47.70216" lon="-2.68869">
        <ele>114.7</ele>
        <time>2015-12-06T14:20:32.000Z</time>
      </trkpt>
      <trkpt lat="47.70215" lon="-2.68872">
        <ele>115</ele>
        <time>2015-12-06T14:20:33.000Z</time>
      </trkpt>
      <trkpt lat="47.70214" lon="-2.68874">
        <ele>115.3</ele>
        <time>2015-12-06T14:20:34.000Z</time>
      </trkpt>
      <trkpt lat="47.70213" lon="-2.68876">
        <ele>115.7</ele>
        <time>2015-12-06T14:20:35.000Z</time>
      </trkpt>
      <trkpt lat="47.70212" lon="-2.68879">
        <ele>116</ele>
        <time>2015-12-06T14:20:36.000Z</time>
      </trkpt>
      <trkpt lat="47.70211" lon="-2.68882">
        <ele>116.2</ele>
        <time>2015-12-06T14:20:37.000Z</time>
      </trkpt>
      <trkpt lat="47.7021" lon="-2.68885">
        <ele>116.4</ele>
        <time>2015-12-06T14:20:38.000Z</time>
      </trkpt>
      <trkpt lat="47.70209" lon="-2.68888">
        <ele>116.7</ele>
        <time>2015-12-06T14:20:39.000Z</time>
      </trkpt>
      <trkpt lat="47.70208" lon="-2.6889">
        <ele>117</ele>
        <time>2015-12-06T14:20:40.000Z</time>
      </trkpt>
      <trkpt lat="47.70207" lon="-2.68893">
        <ele>117</ele>
        <time>2015-12-06T14:20:41.000Z</time>
      </trkpt>
      <trkpt lat="47.70206" lon="-2.68895">
        <ele>117.1</ele>
        <time>2015-12-06T14:20:42.000Z</time>
      </trkpt>
      <trkpt lat="47.70205" lon="-2.68898">
        <ele>117.1</ele>
        <time>2015-12-06T14:20:43.000Z</time>
      </trkpt>
      <trkpt lat="47.70205" lon="-2.689">
        <ele>117.1</ele>
        <time>2015-12-06T14:20:44.000Z</time>
      </trkpt>
      <trkpt lat="47.70204" lon="-2.68903">
        <ele>117.1</ele>
        <time>2015-12-06T14:20:45.000Z</time>
      </trkpt>
      <trkpt lat="47.70203" lon="-2.68906">
        <ele>117.2</ele>
        <time>2015-12-06T14:20:46.000Z</time>
      </trkpt>
      <trkpt lat="47.70202" lon="-2.68909">
        <ele>117.2</ele>
        <time>2015-12-06T14:20:47.000Z</time>
      </trkpt>
      <trkpt lat="47.70201" lon="-2.68913">
        <ele>117.2</ele>
        <time>2015-12-06T14:20:48.000Z</time>
      </trkpt>
      <trkpt lat="47.702" lon="-2.68917">
        <ele>117.2</ele>
        <time>2015-12-06T14:20:49.000Z</time>
      </trkpt>
      <trkpt lat="47.70199" lon="-2.6892">
        <ele>117.3</ele>
        <time>2015-12-06T14:20:50.000Z</time>
      </trkpt>
      <trkpt lat="47.70198" lon="-2.68922">
        <ele>117.3</ele>
        <time>2015-12-06T14:20:51.000Z</time>
      </trkpt>
      <trkpt lat="47.70197" lon="-2.68923">
        <ele>117.3</ele>
        <time>2015-12-06T14:20:52.000Z</time>
      </trkpt>
      <trkpt lat="47.70196" lon="-2.68924">
        <ele>117.3</ele>
        <time>2015-12-06T14:20:53.000Z</time>
      </trkpt>
      <trkpt lat="47.70196" lon="-2.68925">
        <ele>117.4</ele>
        <time>2015-12-06T14:20:54.000Z</time>
      </trkpt>
      <trkpt lat="47.70195" lon="-2.68925">
        <ele>117.4</ele>
        <time>2015-12-06T14:20:55.000Z</time>
      </trkpt>
      <trkpt lat="47.70195" lon="-2.68924">
        <ele>117.4</ele>
        <time>2015-12-06T14:20:56.000Z</time>
      </trkpt>
      <trkpt lat="47.70195" lon="-2.68923">
        <ele>117.4</ele>
        <time>2015-12-06T14:20:57.000Z</time>
      </trkpt>
      <trkpt lat="47.70195" lon="-2.68922">
        <ele>117.4</ele>
        <time>2015-12-06T14:20:58.000Z</time>
      </trkpt>
      <trkpt lat="47.70195" lon="-2.68921">
        <ele>117.4</ele>
        <time>2015-12-06T14:20:59.000Z</time>
      </trkpt>
      <trkpt lat="47.70194" lon="-2.68918">
        <ele>117.4</ele>
        <time>2015-12-06T14:21:00.000Z</time>
      </trkpt>
      <trkpt lat="47.70194" lon="-2.68916">
        <ele>117.4</ele>
        <time>2015-12-06T14:21:01.000Z</time>
      </trkpt>
      <trkpt lat="47.70193" lon="-2.68914">
        <ele>117.5</ele>
        <time>2015-12-06T14:21:02.000Z</time>
      </trkpt>
      <trkpt lat="47.70193" lon="-2.68913">
        <ele>117.5</ele>
        <time>2015-12-06T14:21:03.000Z</time>
      </trkpt>
      <trkpt lat="47.70192" lon="-2.68911">
        <ele>117.5</ele>
        <time>2015-12-06T14:21:04.000Z</time>
      </trkpt>
      <trkpt lat="47.70192" lon="-2.68909">
        <ele>117.5</ele>
        <time>2015-12-06T14:21:05.000Z</time>
      </trkpt>
      <trkpt lat="47.70192" lon="-2.68905">
        <ele>117.5</ele>
        <time>2015-12-06T14:21:06.000Z</time>
      </trkpt>
      <trkpt lat="47.70192" lon="-2.68902">
        <ele>117.5</ele>
        <time>2015-12-06T14:21:07.000Z</time>
      </trkpt>
      <trkpt lat="47.70193" lon="-2.68898">
        <ele>117.5</ele>
        <time>2015-12-06T14:21:08.000Z</time>
      </trkpt>
      <trkpt lat="47.70193" lon="-2.68895">
        <ele>117.5</ele>
        <time>2015-12-06T14:21:09.000Z</time>
      </trkpt>
      <trkpt lat="47.70193" lon="-2.68892">
        <ele>117.5</ele>
        <time>2015-12-06T14:21:10.000Z</time>
      </trkpt>
      <trkpt lat="47.70193" lon="-2.68888">
        <ele>117.5</ele>
        <time>2015-12-06T14:21:11.000Z</time>
      </trkpt>
      <trkpt lat="47.70193" lon="-2.68885">
        <ele>117.5</ele>
        <time>2015-12-06T14:21:12.000Z</time>
      </trkpt>
      <trkpt lat="47.70193" lon="-2.68881">
        <ele>117.5</ele>
        <time>2015-12-06T14:21:13.000Z</time>
      </trkpt>
      <trkpt lat="47.70193" lon="-2.68877">
        <ele>117.6</ele>
        <time>2015-12-06T14:21:14.000Z</time>
      </trkpt>
      <trkpt lat="47.70193" lon="-2.68873">
        <ele>117.6</ele>
        <time>2015-12-06T14:21:15.000Z</time>
      </trkpt>
      <trkpt lat="47.70192" lon="-2.6887">
        <ele>117.6</ele>
        <time>2015-12-06T14:21:16.000Z</time>
      </trkpt>
      <trkpt lat="47.70192" lon="-2.68868">
        <ele>117.7</ele>
        <time>2015-12-06T14:21:17.000Z</time>
      </trkpt>
      <trkpt lat="47.70191" lon="-2.68865">
        <ele>117.7</ele>
        <time>2015-12-06T14:21:18.000Z</time>
      </trkpt>
      <trkpt lat="47.70191" lon="-2.68862">
        <ele>117.8</ele>
        <time>2015-12-06T14:21:19.000Z</time>
      </trkpt>
      <trkpt lat="47.7019" lon="-2.68859">
        <ele>117.8</ele>
        <time>2015-12-06T14:21:20.000Z</time>
      </trkpt>
      <trkpt lat="47.7019" lon="-2.68855">
        <ele>117.9</ele>
        <time>2015-12-06T14:21:21.000Z</time>
      </trkpt>
      <trkpt lat="47.70189" lon="-2.68851">
        <ele>117.9</ele>
        <time>2015-12-06T14:21:22.000Z</time>
      </trkpt>
      <trkpt lat="47.70189" lon="-2.68848">
        <ele>117.9</ele>
        <time>2015-12-06T14:21:23.000Z</time>
      </trkpt>
      <trkpt lat="47.70189" lon="-2.68844">
        <ele>118</ele>
        <time>2015-12-06T14:21:24.000Z</time>
      </trkpt>
      <trkpt lat="47.70189" lon="-2.68841">
        <ele>118</ele>
        <time>2015-12-06T14:21:25.000Z</time>
      </trkpt>
      <trkpt lat="47.70189" lon="-2.68838">
        <ele>118</ele>
        <time>2015-12-06T14:21:26.000Z</time>
      </trkpt>
      <trkpt lat="47.70189" lon="-2.68834">
        <ele>118.1</ele>
        <time>2015-12-06T14:21:27.000Z</time>
      </trkpt>
      <trkpt lat="47.70189" lon="-2.68831">
        <ele>118.1</ele>
        <time>2015-12-06T14:21:28.000Z</time>
      </trkpt>
      <trkpt lat="47.70188" lon="-2.68827">
        <ele>118.2</ele>
        <time>2015-12-06T14:21:29.000Z</time>
      </trkpt>
      <trkpt lat="47.70189" lon="-2.68824">
        <ele>118.2</ele>
        <time>2015-12-06T14:21:30.000Z</time>
      </trkpt>
      <trkpt lat="47.7019" lon="-2.6882">
        <ele>118.2</ele>
        <time>2015-12-06T14:21:31.000Z</time>
      </trkpt>
      <trkpt lat="47.70191" lon="-2.68817">
        <ele>118.2</ele>
        <time>2015-12-06T14:21:32.000Z</time>
      </trkpt>
      <trkpt lat="47.70192" lon="-2.68813">
        <ele>118.2</ele>
        <time>2015-12-06T14:21:33.000Z</time>
      </trkpt>
      <trkpt lat="47.70193" lon="-2.68808">
        <ele>118.2</ele>
        <time>2015-12-06T14:21:34.000Z</time>
      </trkpt>
      <trkpt lat="47.70195" lon="-2.68804">
        <ele>118.2</ele>
        <time>2015-12-06T14:21:35.000Z</time>
      </trkpt>
      <trkpt lat="47.70196" lon="-2.68801">
        <ele>118.2</ele>
        <time>2015-12-06T14:21:36.000Z</time>
      </trkpt>
      <trkpt lat="47.70198" lon="-2.68798">
        <ele>118.2</ele>
        <time>2015-12-06T14:21:37.000Z</time>
      </trkpt>
      <trkpt lat="47.70199" lon="-2.68796">
        <ele>118.2</ele>
        <time>2015-12-06T14:21:38.000Z</time>
      </trkpt>
      <trkpt lat="47.70201" lon="-2.68793">
        <ele>118.2</ele>
        <time>2015-12-06T14:21:39.000Z</time>
      </trkpt>
      <trkpt lat="47.70201" lon="-2.6879">
        <ele>118.1</ele>
        <time>2015-12-06T14:21:40.000Z</time>
      </trkpt>
      <trkpt lat="47.70202" lon="-2.68787">
        <ele>118</ele>
        <time>2015-12-06T14:21:41.000Z</time>
      </trkpt>
      <trkpt lat="47.70204" lon="-2.68783">
        <ele>117.8</ele>
        <time>2015-12-06T14:21:42.000Z</time>
      </trkpt>
      <trkpt lat="47.70206" lon="-2.68779">
        <ele>117.6</ele>
        <time>2015-12-06T14:21:43.000Z</time>
      </trkpt>
      <trkpt lat="47.70207" lon="-2.68774">
        <ele>117.4</ele>
        <time>2015-12-06T14:21:44.000Z</time>
      </trkpt>
      <trkpt lat="47.70209" lon="-2.6877">
        <ele>117.1</ele>
        <time>2015-12-06T14:21:45.000Z</time>
      </trkpt>
      <trkpt lat="47.7021" lon="-2.68768">
        <ele>116.8</ele>
        <time>2015-12-06T14:21:46.000Z</time>
      </trkpt>
      <trkpt lat="47.7021" lon="-2.68765">
        <ele>116.6</ele>
        <time>2015-12-06T14:21:47.000Z</time>
      </trkpt>
      <trkpt lat="47.70211" lon="-2.68762">
        <ele>116.4</ele>
        <time>2015-12-06T14:21:48.000Z</time>
      </trkpt>
      <trkpt lat="47.70211" lon="-2.6876">
        <ele>116.3</ele>
        <time>2015-12-06T14:21:49.000Z</time>
      </trkpt>
      <trkpt lat="47.70211" lon="-2.68758">
        <ele>116.2</ele>
        <time>2015-12-06T14:21:50.000Z</time>
      </trkpt>
      <trkpt lat="47.70211" lon="-2.68755">
        <ele>116.1</ele>
        <time>2015-12-06T14:21:51.000Z</time>
      </trkpt>
      <trkpt lat="47.70211" lon="-2.68753">
        <ele>116</ele>
        <time>2015-12-06T14:21:52.000Z</time>
      </trkpt>
      <trkpt lat="47.70211" lon="-2.6875">
        <ele>116</ele>
        <time>2015-12-06T14:21:53.000Z</time>
      </trkpt>
      <trkpt lat="47.7021" lon="-2.68747">
        <ele>116</ele>
        <time>2015-12-06T14:21:54.000Z</time>
      </trkpt>
      <trkpt lat="47.7021" lon="-2.68745">
        <ele>116.1</ele>
        <time>2015-12-06T14:21:55.000Z</time>
      </trkpt>
      <trkpt lat="47.70209" lon="-2.68742">
        <ele>116.1</ele>
        <time>2015-12-06T14:21:56.000Z</time>
      </trkpt>
      <trkpt lat="47.70209" lon="-2.6874">
        <ele>116</ele>
        <time>2015-12-06T14:21:57.000Z</time>
      </trkpt>
      <trkpt lat="47.70209" lon="-2.68737">
        <ele>116</ele>
        <time>2015-12-06T14:21:58.000Z</time>
      </trkpt>
      <trkpt lat="47.70209" lon="-2.68735">
        <ele>115.8</ele>
        <time>2015-12-06T14:21:59.000Z</time>
      </trkpt>
      <trkpt lat="47.7021" lon="-2.68732">
        <ele>115.5</ele>
        <time>2015-12-06T14:22:00.000Z</time>
      </trkpt>
      <trkpt lat="47.70211" lon="-2.68728">
        <ele>115.1</ele>
        <time>2015-12-06T14:22:01.000Z</time>
      </trkpt>
      <trkpt lat="47.70212" lon="-2.68724">
        <ele>114.8</ele>
        <time>2015-12-06T14:22:02.000Z</time>
      </trkpt>
      <trkpt lat="47.70212" lon="-2.6872">
        <ele>114.6</ele>
        <time>2015-12-06T14:22:03.000Z</time>
      </trkpt>
      <trkpt lat="47.70212" lon="-2.68716">
        <ele>114.5</ele>
        <time>2015-12-06T14:22:04.000Z</time>
      </trkpt>
      <trkpt lat="47.70212" lon="-2.68713">
        <ele>114.4</ele>
        <time>2015-12-06T14:22:05.000Z</time>
      </trkpt>
      <trkpt lat="47.70212" lon="-2.68709">
        <ele>114.3</ele>
        <time>2015-12-06T14:22:06.000Z</time>
      </trkpt>
      <trkpt lat="47.70212" lon="-2.68704">
        <ele>114.3</ele>
        <time>2015-12-06T14:22:07.000Z</time>
      </trkpt>
      <trkpt lat="47.70213" lon="-2.68699">
        <ele>114</ele>
        <time>2015-12-06T14:22:08.000Z</time>
      </trkpt>
      <trkpt lat="47.70214" lon="-2.68693">
        <ele>113.9</ele>
        <time>2015-12-06T14:22:09.000Z</time>
      </trkpt>
      <trkpt lat="47.70214" lon="-2.68688">
        <ele>113.8</ele>
        <time>2015-12-06T14:22:10.000Z</time>
      </trkpt>
      <trkpt lat="47.70214" lon="-2.68683">
        <ele>113.9</ele>
        <time>2015-12-06T14:22:11.000Z</time>
      </trkpt>
      <trkpt lat="47.70214" lon="-2.6868">
        <ele>113.9</ele>
        <time>2015-12-06T14:22:12.000Z</time>
      </trkpt>
      <trkpt lat="47.70213" lon="-2.68677">
        <ele>114</ele>
        <time>2015-12-06T14:22:13.000Z</time>
      </trkpt>
      <trkpt lat="47.70213" lon="-2.68675">
        <ele>114</ele>
        <time>2015-12-06T14:22:14.000Z</time>
      </trkpt>
      <trkpt lat="47.70213" lon="-2.68673">
        <ele>114.1</ele>
        <time>2015-12-06T14:22:15.000Z</time>
      </trkpt>
      <trkpt lat="47.70213" lon="-2.6867">
        <ele>114</ele>
        <time>2015-12-06T14:22:16.000Z</time>
      </trkpt>
      <trkpt lat="47.70213" lon="-2.68668">
        <ele>114</ele>
        <time>2015-12-06T14:22:17.000Z</time>
      </trkpt>
      <trkpt lat="47.70213" lon="-2.68665">
        <ele>114</ele>
        <time>2015-12-06T14:22:18.000Z</time>
      </trkpt>
      <trkpt lat="47.70214" lon="-2.68663">
        <ele>113.9</ele>
        <time>2015-12-06T14:22:19.000Z</time>
      </trkpt>
      <trkpt lat="47.70214" lon="-2.6866">
        <ele>113.8</ele>
        <time>2015-12-06T14:22:20.000Z</time>
      </trkpt>
      <trkpt lat="47.70214" lon="-2.68657">
        <ele>113.8</ele>
        <time>2015-12-06T14:22:21.000Z</time>
      </trkpt>
      <trkpt lat="47.70214" lon="-2.68654">
        <ele>113.8</ele>
        <time>2015-12-06T14:22:22.000Z</time>
      </trkpt>
      <trkpt lat="47.70214" lon="-2.68651">
        <ele>113.8</ele>
        <time>2015-12-06T14:22:23.000Z</time>
      </trkpt>
      <trkpt lat="47.70214" lon="-2.68648">
        <ele>113.7</ele>
        <time>2015-12-06T14:22:24.000Z</time>
      </trkpt>
      <trkpt lat="47.70215" lon="-2.68646">
        <ele>113.6</ele>
        <time>2015-12-06T14:22:25.000Z</time>
      </trkpt>
      <trkpt lat="47.70215" lon="-2.68643">
        <ele>113.5</ele>
        <time>2015-12-06T14:22:26.000Z</time>
      </trkpt>
      <trkpt lat="47.70215" lon="-2.6864">
        <ele>113.5</ele>
        <time>2015-12-06T14:22:27.000Z</time>
      </trkpt>
      <trkpt lat="47.70215" lon="-2.68637">
        <ele>113.6</ele>
        <time>2015-12-06T14:22:28.000Z</time>
      </trkpt>
      <trkpt lat="47.70215" lon="-2.68634">
        <ele>113.6</ele>
        <time>2015-12-06T14:22:29.000Z</time>
      </trkpt>
      <trkpt lat="47.70215" lon="-2.68632">
        <ele>113.5</ele>
        <time>2015-12-06T14:22:30.000Z</time>
      </trkpt>
      <trkpt lat="47.70215" lon="-2.6863">
        <ele>113.5</ele>
        <time>2015-12-06T14:22:31.000Z</time>
      </trkpt>
      <trkpt lat="47.70215" lon="-2.68627">
        <ele>113.6</ele>
        <time>2015-12-06T14:22:32.000Z</time>
      </trkpt>
      <trkpt lat="47.70214" lon="-2.68626">
        <ele>113.7</ele>
        <time>2015-12-06T14:22:33.000Z</time>
      </trkpt>
      <trkpt lat="47.70214" lon="-2.68624">
        <ele>113.8</ele>
        <time>2015-12-06T14:22:34.000Z</time>
      </trkpt>
      <trkpt lat="47.70213" lon="-2.68622">
        <ele>114</ele>
        <time>2015-12-06T14:22:35.000Z</time>
      </trkpt>
      <trkpt lat="47.70213" lon="-2.6862">
        <ele>114.2</ele>
        <time>2015-12-06T14:22:36.000Z</time>
      </trkpt>
      <trkpt lat="47.70212" lon="-2.68617">
        <ele>114.5</ele>
        <time>2015-12-06T14:22:37.000Z</time>
      </trkpt>
      <trkpt lat="47.70212" lon="-2.68615">
        <ele>114.8</ele>
        <time>2015-12-06T14:22:38.000Z</time>
      </trkpt>
      <trkpt lat="47.70211" lon="-2.68612">
        <ele>115.1</ele>
        <time>2015-12-06T14:22:39.000Z</time>
      </trkpt>
      <trkpt lat="47.70209" lon="-2.68609">
        <ele>115.5</ele>
        <time>2015-12-06T14:22:40.000Z</time>
      </trkpt>
      <trkpt lat="47.70208" lon="-2.68606">
        <ele>115.9</ele>
        <time>2015-12-06T14:22:41.000Z</time>
      </trkpt>
      <trkpt lat="47.70206" lon="-2.68604">
        <ele>116.2</ele>
        <time>2015-12-06T14:22:42.000Z</time>
      </trkpt>
      <trkpt lat="47.70203" lon="-2.68601">
        <ele>116.5</ele>
        <time>2015-12-06T14:22:43.000Z</time>
      </trkpt>
      <trkpt lat="47.70202" lon="-2.68599">
        <ele>116.7</ele>
        <time>2015-12-06T14:22:44.000Z</time>
      </trkpt>
      <trkpt lat="47.702" lon="-2.68597">
        <ele>116.9</ele>
        <time>2015-12-06T14:22:45.000Z</time>
      </trkpt>
      <trkpt lat="47.70199" lon="-2.68595">
        <ele>117.1</ele>
        <time>2015-12-06T14:22:46.000Z</time>
      </trkpt>
      <trkpt lat="47.70196" lon="-2.68593">
        <ele>117.3</ele>
        <time>2015-12-06T14:22:47.000Z</time>
      </trkpt>
      <trkpt lat="47.70194" lon="-2.68591">
        <ele>117.5</ele>
        <time>2015-12-06T14:22:48.000Z</time>
      </trkpt>
      <trkpt lat="47.70191" lon="-2.6859">
        <ele>117.7</ele>
        <time>2015-12-06T14:22:49.000Z</time>
      </trkpt>
      <trkpt lat="47.7019" lon="-2.68589">
        <ele>117.9</ele>
        <time>2015-12-06T14:22:50.000Z</time>
      </trkpt>
      <trkpt lat="47.70188" lon="-2.68588">
        <ele>118</ele>
        <time>2015-12-06T14:22:51.000Z</time>
      </trkpt>
      <trkpt lat="47.70186" lon="-2.68587">
        <ele>118.2</ele>
        <time>2015-12-06T14:22:52.000Z</time>
      </trkpt>
      <trkpt lat="47.70185" lon="-2.68586">
        <ele>118.3</ele>
        <time>2015-12-06T14:22:53.000Z</time>
      </trkpt>
      <trkpt lat="47.70183" lon="-2.68584">
        <ele>118.5</ele>
        <time>2015-12-06T14:22:54.000Z</time>
      </trkpt>
      <trkpt lat="47.70181" lon="-2.68583">
        <ele>118.6</ele>
        <time>2015-12-06T14:22:55.000Z</time>
      </trkpt>
      <trkpt lat="47.70179" lon="-2.68582">
        <ele>118.8</ele>
        <time>2015-12-06T14:22:56.000Z</time>
      </trkpt>
      <trkpt lat="47.70178" lon="-2.68581">
        <ele>118.9</ele>
        <time>2015-12-06T14:22:57.000Z</time>
      </trkpt>
      <trkpt lat="47.70176" lon="-2.6858">
        <ele>119.1</ele>
        <time>2015-12-06T14:22:58.000Z</time>
      </trkpt>
      <trkpt lat="47.70175" lon="-2.68578">
        <ele>119.2</ele>
        <time>2015-12-06T14:22:59.000Z</time>
      </trkpt>
      <trkpt lat="47.70174" lon="-2.68576">
        <ele>119.3</ele>
        <time>2015-12-06T14:23:00.000Z</time>
      </trkpt>
      <trkpt lat="47.70173" lon="-2.68574">
        <ele>119.5</ele>
        <time>2015-12-06T14:23:01.000Z</time>
      </trkpt>
      <trkpt lat="47.70172" lon="-2.68572">
        <ele>119.6</ele>
        <time>2015-12-06T14:23:02.000Z</time>
      </trkpt>
      <trkpt lat="47.70171" lon="-2.68569">
        <ele>119.8</ele>
        <time>2015-12-06T14:23:03.000Z</time>
      </trkpt>
      <trkpt lat="47.7017" lon="-2.68566">
        <ele>120</ele>
        <time>2015-12-06T14:23:04.000Z</time>
      </trkpt>
      <trkpt lat="47.70168" lon="-2.68562">
        <ele>120.2</ele>
        <time>2015-12-06T14:23:05.000Z</time>
      </trkpt>
      <trkpt lat="47.70168" lon="-2.68559">
        <ele>120.3</ele>
        <time>2015-12-06T14:23:06.000Z</time>
      </trkpt>
      <trkpt lat="47.70167" lon="-2.68555">
        <ele>120.5</ele>
        <time>2015-12-06T14:23:07.000Z</time>
      </trkpt>
      <trkpt lat="47.70166" lon="-2.68551">
        <ele>120.7</ele>
        <time>2015-12-06T14:23:08.000Z</time>
      </trkpt>
      <trkpt lat="47.70165" lon="-2.68548">
        <ele>120.9</ele>
        <time>2015-12-06T14:23:09.000Z</time>
      </trkpt>
      <trkpt lat="47.70164" lon="-2.68544">
        <ele>121.1</ele>
        <time>2015-12-06T14:23:10.000Z</time>
      </trkpt>
      <trkpt lat="47.70162" lon="-2.68541">
        <ele>121.2</ele>
        <time>2015-12-06T14:23:11.000Z</time>
      </trkpt>
      <trkpt lat="47.7016" lon="-2.68538">
        <ele>121.3</ele>
        <time>2015-12-06T14:23:12.000Z</time>
      </trkpt>
      <trkpt lat="47.70159" lon="-2.68535">
        <ele>121.4</ele>
        <time>2015-12-06T14:23:13.000Z</time>
      </trkpt>
      <trkpt lat="47.70157" lon="-2.68532">
        <ele>121.4</ele>
        <time>2015-12-06T14:23:14.000Z</time>
      </trkpt>
      <trkpt lat="47.70156" lon="-2.68528">
        <ele>121.5</ele>
        <time>2015-12-06T14:23:15.000Z</time>
      </trkpt>
      <trkpt lat="47.70155" lon="-2.68524">
        <ele>121.6</ele>
        <time>2015-12-06T14:23:16.000Z</time>
      </trkpt>
      <trkpt lat="47.70153" lon="-2.6852">
        <ele>121.7</ele>
        <time>2015-12-06T14:23:17.000Z</time>
      </trkpt>
      <trkpt lat="47.7015" lon="-2.68515">
        <ele>121.8</ele>
        <time>2015-12-06T14:23:18.000Z</time>
      </trkpt>
      <trkpt lat="47.70148" lon="-2.68511">
        <ele>122</ele>
        <time>2015-12-06T14:23:19.000Z</time>
      </trkpt>
      <trkpt lat="47.70146" lon="-2.68507">
        <ele>122.2</ele>
        <time>2015-12-06T14:23:20.000Z</time>
      </trkpt>
      <trkpt lat="47.70146" lon="-2.68504">
        <ele>122.2</ele>
        <time>2015-12-06T14:23:21.000Z</time>
      </trkpt>
      <trkpt lat="47.70146" lon="-2.685">
        <ele>122.3</ele>
        <time>2015-12-06T14:23:22.000Z</time>
      </trkpt>
      <trkpt lat="47.70146" lon="-2.68497">
        <ele>122.3</ele>
        <time>2015-12-06T14:23:23.000Z</time>
      </trkpt>
      <trkpt lat="47.70147" lon="-2.68494">
        <ele>122.2</ele>
        <time>2015-12-06T14:23:24.000Z</time>
      </trkpt>
      <trkpt lat="47.70147" lon="-2.68491">
        <ele>122.2</ele>
        <time>2015-12-06T14:23:25.000Z</time>
      </trkpt>
      <trkpt lat="47.70148" lon="-2.68489">
        <ele>122.1</ele>
        <time>2015-12-06T14:23:26.000Z</time>
      </trkpt>
      <trkpt lat="47.7015" lon="-2.68487">
        <ele>121.9</ele>
        <time>2015-12-06T14:23:27.000Z</time>
      </trkpt>
      <trkpt lat="47.70152" lon="-2.68486">
        <ele>121.7</ele>
        <time>2015-12-06T14:23:28.000Z</time>
      </trkpt>
      <trkpt lat="47.70155" lon="-2.68484">
        <ele>121.5</ele>
        <time>2015-12-06T14:23:29.000Z</time>
      </trkpt>
      <trkpt lat="47.70157" lon="-2.68483">
        <ele>121.2</ele>
        <time>2015-12-06T14:23:30.000Z</time>
      </trkpt>
      <trkpt lat="47.70159" lon="-2.68481">
        <ele>121</ele>
        <time>2015-12-06T14:23:31.000Z</time>
      </trkpt>
      <trkpt lat="47.70162" lon="-2.68479">
        <ele>120.7</ele>
        <time>2015-12-06T14:23:32.000Z</time>
      </trkpt>
      <trkpt lat="47.70165" lon="-2.68477">
        <ele>120.4</ele>
        <time>2015-12-06T14:23:33.000Z</time>
      </trkpt>
      <trkpt lat="47.70169" lon="-2.68476">
        <ele>120</ele>
        <time>2015-12-06T14:23:34.000Z</time>
      </trkpt>
      <trkpt lat="47.70171" lon="-2.68475">
        <ele>119.7</ele>
        <time>2015-12-06T14:23:35.000Z</time>
      </trkpt>
      <trkpt lat="47.70174" lon="-2.68474">
        <ele>119.5</ele>
        <time>2015-12-06T14:23:36.000Z</time>
      </trkpt>
      <trkpt lat="47.70176" lon="-2.68473">
        <ele>119.2</ele>
        <time>2015-12-06T14:23:37.000Z</time>
      </trkpt>
      <trkpt lat="47.70179" lon="-2.68473">
        <ele>118.9</ele>
        <time>2015-12-06T14:23:38.000Z</time>
      </trkpt>
      <trkpt lat="47.70182" lon="-2.68473">
        <ele>118.6</ele>
        <time>2015-12-06T14:23:39.000Z</time>
      </trkpt>
      <trkpt lat="47.70184" lon="-2.68473">
        <ele>118.3</ele>
        <time>2015-12-06T14:23:40.000Z</time>
      </trkpt>
      <trkpt lat="47.70187" lon="-2.68473">
        <ele>118</ele>
        <time>2015-12-06T14:23:41.000Z</time>
      </trkpt>
      <trkpt lat="47.7019" lon="-2.68473">
        <ele>117.7</ele>
        <time>2015-12-06T14:23:42.000Z</time>
      </trkpt>
      <trkpt lat="47.70193" lon="-2.68473">
        <ele>117.3</ele>
        <time>2015-12-06T14:23:43.000Z</time>
      </trkpt>
      <trkpt lat="47.70197" lon="-2.68473">
        <ele>116.9</ele>
        <time>2015-12-06T14:23:44.000Z</time>
      </trkpt>
      <trkpt lat="47.702" lon="-2.68473">
        <ele>116.6</ele>
        <time>2015-12-06T14:23:45.000Z</time>
      </trkpt>
      <trkpt lat="47.70204" lon="-2.68473">
        <ele>116.2</ele>
        <time>2015-12-06T14:23:46.000Z</time>
      </trkpt>
      <trkpt lat="47.70208" lon="-2.68473">
        <ele>115.8</ele>
        <time>2015-12-06T14:23:47.000Z</time>
      </trkpt>
      <trkpt lat="47.70211" lon="-2.68473">
        <ele>115</ele>
        <time>2015-12-06T14:23:48.000Z</time>
      </trkpt>
      <trkpt lat="47.70215" lon="-2.68473">
        <ele>114.2</ele>
        <time>2015-12-06T14:23:49.000Z</time>
      </trkpt>
      <trkpt lat="47.70218" lon="-2.68473">
        <ele>113.5</ele>
        <time>2015-12-06T14:23:50.000Z</time>
      </trkpt>
      <trkpt lat="47.70221" lon="-2.68473">
        <ele>112.7</ele>
        <time>2015-12-06T14:23:51.000Z</time>
      </trkpt>
      <trkpt lat="47.70224" lon="-2.68472">
        <ele>112</ele>
        <time>2015-12-06T14:23:52.000Z</time>
      </trkpt>
      <trkpt lat="47.70228" lon="-2.68472">
        <ele>111</ele>
        <time>2015-12-06T14:23:53.000Z</time>
      </trkpt>
      <trkpt lat="47.70232" lon="-2.68472">
        <ele>110</ele>
        <time>2015-12-06T14:23:54.000Z</time>
      </trkpt>
      <trkpt lat="47.70236" lon="-2.68472">
        <ele>109</ele>
        <time>2015-12-06T14:23:55.000Z</time>
      </trkpt>
      <trkpt lat="47.70239" lon="-2.68472">
        <ele>108.3</ele>
        <time>2015-12-06T14:23:56.000Z</time>
      </trkpt>
      <trkpt lat="47.70242" lon="-2.68472">
        <ele>107.7</ele>
        <time>2015-12-06T14:23:57.000Z</time>
      </trkpt>
      <trkpt lat="47.70244" lon="-2.68473">
        <ele>107.2</ele>
        <time>2015-12-06T14:23:58.000Z</time>
      </trkpt>
      <trkpt lat="47.70247" lon="-2.68473">
        <ele>106.6</ele>
        <time>2015-12-06T14:23:59.000Z</time>
      </trkpt>
      <trkpt lat="47.70249" lon="-2.68474">
        <ele>106</ele>
        <time>2015-12-06T14:24:00.000Z</time>
      </trkpt>
      <trkpt lat="47.70251" lon="-2.68475">
        <ele>105.5</ele>
        <time>2015-12-06T14:24:01.000Z</time>
      </trkpt>
      <trkpt lat="47.70254" lon="-2.68476">
        <ele>104.9</ele>
        <time>2015-12-06T14:24:02.000Z</time>
      </trkpt>
      <trkpt lat="47.70256" lon="-2.68478">
        <ele>104.3</ele>
        <time>2015-12-06T14:24:03.000Z</time>
      </trkpt>
      <trkpt lat="47.70258" lon="-2.68481">
        <ele>103.8</ele>
        <time>2015-12-06T14:24:04.000Z</time>
      </trkpt>
      <trkpt lat="47.7026" lon="-2.68483">
        <ele>103.4</ele>
        <time>2015-12-06T14:24:05.000Z</time>
      </trkpt>
      <trkpt lat="47.70261" lon="-2.68485">
        <ele>103.2</ele>
        <time>2015-12-06T14:24:06.000Z</time>
      </trkpt>
      <trkpt lat="47.70262" lon="-2.68487">
        <ele>103</ele>
        <time>2015-12-06T14:24:07.000Z</time>
      </trkpt>
      <trkpt lat="47.70263" lon="-2.68489">
        <ele>102.9</ele>
        <time>2015-12-06T14:24:08.000Z</time>
      </trkpt>
      <trkpt lat="47.70262" lon="-2.6849">
        <ele>103</ele>
        <time>2015-12-06T14:24:09.000Z</time>
      </trkpt>
      <trkpt lat="47.70262" lon="-2.68491">
        <ele>103.2</ele>
        <time>2015-12-06T14:24:10.000Z</time>
      </trkpt>
      <trkpt lat="47.70261" lon="-2.68492">
        <ele>103.3</ele>
        <time>2015-12-06T14:24:11.000Z</time>
      </trkpt>
      <trkpt lat="47.70261" lon="-2.68494">
        <ele>103.3</ele>
        <time>2015-12-06T14:24:12.000Z</time>
      </trkpt>
      <trkpt lat="47.70261" lon="-2.68495">
        <ele>103.4</ele>
        <time>2015-12-06T14:24:13.000Z</time>
      </trkpt>
      <trkpt lat="47.70261" lon="-2.68497">
        <ele>103.5</ele>
        <time>2015-12-06T14:24:14.000Z</time>
      </trkpt>
      <trkpt lat="47.70259" lon="-2.68498">
        <ele>103.8</ele>
        <time>2015-12-06T14:24:15.000Z</time>
      </trkpt>
      <trkpt lat="47.70258" lon="-2.685">
        <ele>104.1</ele>
        <time>2015-12-06T14:24:16.000Z</time>
      </trkpt>
      <trkpt lat="47.70257" lon="-2.685">
        <ele>104.4</ele>
        <time>2015-12-06T14:24:17.000Z</time>
      </trkpt>
      <trkpt lat="47.70256" lon="-2.68501">
        <ele>104.7</ele>
        <time>2015-12-06T14:24:18.000Z</time>
      </trkpt>
      <trkpt lat="47.70255" lon="-2.68502">
        <ele>105</ele>
        <time>2015-12-06T14:24:19.000Z</time>
      </trkpt>
      <trkpt lat="47.70254" lon="-2.68504">
        <ele>105.4</ele>
        <time>2015-12-06T14:24:20.000Z</time>
      </trkpt>
      <trkpt lat="47.70253" lon="-2.68505">
        <ele>105.6</ele>
        <time>2015-12-06T14:24:21.000Z</time>
      </trkpt>
      <trkpt lat="47.70252" lon="-2.68507">
        <ele>105.9</ele>
        <time>2015-12-06T14:24:22.000Z</time>
      </trkpt>
      <trkpt lat="47.70252" lon="-2.68508">
        <ele>106</ele>
        <time>2015-12-06T14:24:23.000Z</time>
      </trkpt>
      <trkpt lat="47.70251" lon="-2.68509">
        <ele>106.1</ele>
        <time>2015-12-06T14:24:24.000Z</time>
      </trkpt>
      <trkpt lat="47.70251" lon="-2.68511">
        <ele>106.3</ele>
        <time>2015-12-06T14:24:25.000Z</time>
      </trkpt>
      <trkpt lat="47.7025" lon="-2.68513">
        <ele>106.5</ele>
        <time>2015-12-06T14:24:26.000Z</time>
      </trkpt>
      <trkpt lat="47.70249" lon="-2.68515">
        <ele>106.8</ele>
        <time>2015-12-06T14:24:27.000Z</time>
      </trkpt>
      <trkpt lat="47.70248" lon="-2.68517">
        <ele>107</ele>
        <time>2015-12-06T14:24:28.000Z</time>
      </trkpt>
      <trkpt lat="47.70247" lon="-2.68519">
        <ele>107.3</ele>
        <time>2015-12-06T14:24:29.000Z</time>
      </trkpt>
      <trkpt lat="47.70247" lon="-2.68522">
        <ele>107.5</ele>
        <time>2015-12-06T14:24:30.000Z</time>
      </trkpt>
      <trkpt lat="47.70246" lon="-2.68524">
        <ele>107.7</ele>
        <time>2015-12-06T14:24:31.000Z</time>
      </trkpt>
      <trkpt lat="47.70246" lon="-2.68526">
        <ele>107.9</ele>
        <time>2015-12-06T14:24:32.000Z</time>
      </trkpt>
      <trkpt lat="47.70245" lon="-2.68529">
        <ele>108.1</ele>
        <time>2015-12-06T14:24:33.000Z</time>
      </trkpt>
      <trkpt lat="47.70245" lon="-2.68532">
        <ele>108.3</ele>
        <time>2015-12-06T14:24:34.000Z</time>
      </trkpt>
      <trkpt lat="47.70244" lon="-2.68534">
        <ele>108.5</ele>
        <time>2015-12-06T14:24:35.000Z</time>
      </trkpt>
      <trkpt lat="47.70244" lon="-2.68537">
        <ele>108.6</ele>
        <time>2015-12-06T14:24:36.000Z</time>
      </trkpt>
      <trkpt lat="47.70244" lon="-2.6854">
        <ele>108.7</ele>
        <time>2015-12-06T14:24:37.000Z</time>
      </trkpt>
      <trkpt lat="47.70244" lon="-2.68544">
        <ele>108.8</ele>
        <time>2015-12-06T14:24:38.000Z</time>
      </trkpt>
      <trkpt lat="47.70243" lon="-2.68547">
        <ele>108.8</ele>
        <time>2015-12-06T14:24:39.000Z</time>
      </trkpt>
      <trkpt lat="47.70243" lon="-2.6855">
        <ele>108.9</ele>
        <time>2015-12-06T14:24:40.000Z</time>
      </trkpt>
      <trkpt lat="47.70243" lon="-2.68552">
        <ele>108.9</ele>
        <time>2015-12-06T14:24:41.000Z</time>
      </trkpt>
      <trkpt lat="47.70242" lon="-2.68553">
        <ele>109</ele>
        <time>2015-12-06T14:24:42.000Z</time>
      </trkpt>
      <trkpt lat="47.70242" lon="-2.68554">
        <ele>109</ele>
        <time>2015-12-06T14:24:43.000Z</time>
      </trkpt>
      <trkpt lat="47.70242" lon="-2.68556">
        <ele>109</ele>
        <time>2015-12-06T14:24:44.000Z</time>
      </trkpt>
      <trkpt lat="47.70241" lon="-2.68558">
        <ele>109.2</ele>
        <time>2015-12-06T14:24:45.000Z</time>
      </trkpt>
      <trkpt lat="47.70241" lon="-2.68561">
        <ele>109.3</ele>
        <time>2015-12-06T14:24:46.000Z</time>
      </trkpt>
      <trkpt lat="47.7024" lon="-2.68564">
        <ele>109.4</ele>
        <time>2015-12-06T14:24:47.000Z</time>
      </trkpt>
      <trkpt lat="47.70239" lon="-2.68568">
        <ele>109.4</ele>
        <time>2015-12-06T14:24:48.000Z</time>
      </trkpt>
      <trkpt lat="47.70239" lon="-2.68572">
        <ele>109.5</ele>
        <time>2015-12-06T14:24:49.000Z</time>
      </trkpt>
      <trkpt lat="47.70238" lon="-2.68575">
        <ele>109.6</ele>
        <time>2015-12-06T14:24:50.000Z</time>
      </trkpt>
      <trkpt lat="47.70237" lon="-2.68577">
        <ele>109.7</ele>
        <time>2015-12-06T14:24:51.000Z</time>
      </trkpt>
      <trkpt lat="47.70237" lon="-2.68578">
        <ele>109.7</ele>
        <time>2015-12-06T14:24:52.000Z</time>
      </trkpt>
      <trkpt lat="47.70236" lon="-2.68597">
        <ele>109.5</ele>
        <time>2015-12-06T14:24:53.000Z</time>
      </trkpt>
      <trkpt lat="47.70236" lon="-2.686">
        <ele>109.5</ele>
        <time>2015-12-06T14:24:54.000Z</time>
      </trkpt>
      <trkpt lat="47.70236" lon="-2.68603">
        <ele>109.4</ele>
        <time>2015-12-06T14:24:55.000Z</time>
      </trkpt>
      <trkpt lat="47.70236" lon="-2.68606">
        <ele>109.3</ele>
        <time>2015-12-06T14:24:56.000Z</time>
      </trkpt>
      <trkpt lat="47.70236" lon="-2.68609">
        <ele>109.2</ele>
        <time>2015-12-06T14:24:57.000Z</time>
      </trkpt>
      <trkpt lat="47.70236" lon="-2.68612">
        <ele>109.1</ele>
        <time>2015-12-06T14:24:58.000Z</time>
      </trkpt>
      <trkpt lat="47.70236" lon="-2.68615">
        <ele>109.1</ele>
        <time>2015-12-06T14:24:59.000Z</time>
      </trkpt>
      <trkpt lat="47.70235" lon="-2.68617">
        <ele>109.1</ele>
        <time>2015-12-06T14:25:00.000Z</time>
      </trkpt>
      <trkpt lat="47.70235" lon="-2.6862">
        <ele>109.1</ele>
        <time>2015-12-06T14:25:01.000Z</time>
      </trkpt>
      <trkpt lat="47.70234" lon="-2.68624">
        <ele>109.2</ele>
        <time>2015-12-06T14:25:02.000Z</time>
      </trkpt>
      <trkpt lat="47.70233" lon="-2.68628">
        <ele>109.5</ele>
        <time>2015-12-06T14:25:03.000Z</time>
      </trkpt>
      <trkpt lat="47.70232" lon="-2.68631">
        <ele>109.7</ele>
        <time>2015-12-06T14:25:04.000Z</time>
      </trkpt>
      <trkpt lat="47.70232" lon="-2.68634">
        <ele>109.8</ele>
        <time>2015-12-06T14:25:05.000Z</time>
      </trkpt>
      <trkpt lat="47.70232" lon="-2.68638">
        <ele>109.7</ele>
        <time>2015-12-06T14:25:06.000Z</time>
      </trkpt>
      <trkpt lat="47.70233" lon="-2.68641">
        <ele>109.5</ele>
        <time>2015-12-06T14:25:07.000Z</time>
      </trkpt>
      <trkpt lat="47.70233" lon="-2.68646">
        <ele>109.6</ele>
        <time>2015-12-06T14:25:08.000Z</time>
      </trkpt>
      <trkpt lat="47.70233" lon="-2.68651">
        <ele>109.6</ele>
        <time>2015-12-06T14:25:09.000Z</time>
      </trkpt>
      <trkpt lat="47.70233" lon="-2.68656">
        <ele>109.8</ele>
        <time>2015-12-06T14:25:10.000Z</time>
      </trkpt>
      <trkpt lat="47.70233" lon="-2.68661">
        <ele>109.8</ele>
        <time>2015-12-06T14:25:11.000Z</time>
      </trkpt>
      <trkpt lat="47.70233" lon="-2.68666">
        <ele>109.9</ele>
        <time>2015-12-06T14:25:12.000Z</time>
      </trkpt>
      <trkpt lat="47.70232" lon="-2.68671">
        <ele>110</ele>
        <time>2015-12-06T14:25:13.000Z</time>
      </trkpt>
      <trkpt lat="47.70232" lon="-2.68677">
        <ele>110.2</ele>
        <time>2015-12-06T14:25:14.000Z</time>
      </trkpt>
      <trkpt lat="47.70232" lon="-2.68683">
        <ele>110.3</ele>
        <time>2015-12-06T14:25:15.000Z</time>
      </trkpt>
      <trkpt lat="47.70231" lon="-2.68689">
        <ele>110.4</ele>
        <time>2015-12-06T14:25:16.000Z</time>
      </trkpt>
      <trkpt lat="47.70231" lon="-2.68694">
        <ele>110.5</ele>
        <time>2015-12-06T14:25:17.000Z</time>
      </trkpt>
      <trkpt lat="47.70231" lon="-2.68698">
        <ele>110.5</ele>
        <time>2015-12-06T14:25:18.000Z</time>
      </trkpt>
      <trkpt lat="47.70232" lon="-2.68702">
        <ele>110.5</ele>
        <time>2015-12-06T14:25:19.000Z</time>
      </trkpt>
      <trkpt lat="47.70232" lon="-2.68707">
        <ele>110.5</ele>
        <time>2015-12-06T14:25:20.000Z</time>
      </trkpt>
      <trkpt lat="47.70233" lon="-2.6871">
        <ele>110.3</ele>
        <time>2015-12-06T14:25:21.000Z</time>
      </trkpt>
      <trkpt lat="47.70234" lon="-2.68714">
        <ele>110.2</ele>
        <time>2015-12-06T14:25:22.000Z</time>
      </trkpt>
      <trkpt lat="47.70235" lon="-2.68718">
        <ele>110</ele>
        <time>2015-12-06T14:25:23.000Z</time>
      </trkpt>
      <trkpt lat="47.70237" lon="-2.68722">
        <ele>109.7</ele>
        <time>2015-12-06T14:25:24.000Z</time>
      </trkpt>
      <trkpt lat="47.70239" lon="-2.68725">
        <ele>109.3</ele>
        <time>2015-12-06T14:25:25.000Z</time>
      </trkpt>
      <trkpt lat="47.70242" lon="-2.68727">
        <ele>108.7</ele>
        <time>2015-12-06T14:25:26.000Z</time>
      </trkpt>
      <trkpt lat="47.70244" lon="-2.68729">
        <ele>108.2</ele>
        <time>2015-12-06T14:25:27.000Z</time>
      </trkpt>
      <trkpt lat="47.70247" lon="-2.6873">
        <ele>107.6</ele>
        <time>2015-12-06T14:25:28.000Z</time>
      </trkpt>
      <trkpt lat="47.7025" lon="-2.6873">
        <ele>106.9</ele>
        <time>2015-12-06T14:25:29.000Z</time>
      </trkpt>
      <trkpt lat="47.70253" lon="-2.68729">
        <ele>106.4</ele>
        <time>2015-12-06T14:25:30.000Z</time>
      </trkpt>
      <trkpt lat="47.70255" lon="-2.68728">
        <ele>105.9</ele>
        <time>2015-12-06T14:25:31.000Z</time>
      </trkpt>
      <trkpt lat="47.70257" lon="-2.68728">
        <ele>105.6</ele>
        <time>2015-12-06T14:25:32.000Z</time>
      </trkpt>
      <trkpt lat="47.70259" lon="-2.68729">
        <ele>105.2</ele>
        <time>2015-12-06T14:25:33.000Z</time>
      </trkpt>
      <trkpt lat="47.7026" lon="-2.68732">
        <ele>104.9</ele>
        <time>2015-12-06T14:25:34.000Z</time>
      </trkpt>
      <trkpt lat="47.70261" lon="-2.68736">
        <ele>104.7</ele>
        <time>2015-12-06T14:25:35.000Z</time>
      </trkpt>
      <trkpt lat="47.70262" lon="-2.68739">
        <ele>104.4</ele>
        <time>2015-12-06T14:25:36.000Z</time>
      </trkpt>
      <trkpt lat="47.70263" lon="-2.68743">
        <ele>104.1</ele>
        <time>2015-12-06T14:25:37.000Z</time>
      </trkpt>
      <trkpt lat="47.70264" lon="-2.68748">
        <ele>103.9</ele>
        <time>2015-12-06T14:25:38.000Z</time>
      </trkpt>
      <trkpt lat="47.70264" lon="-2.68751">
        <ele>103.7</ele>
        <time>2015-12-06T14:25:39.000Z</time>
      </trkpt>
      <trkpt lat="47.70265" lon="-2.68754">
        <ele>103.5</ele>
        <time>2015-12-06T14:25:40.000Z</time>
      </trkpt>
      <trkpt lat="47.70266" lon="-2.68757">
        <ele>103.3</ele>
        <time>2015-12-06T14:25:41.000Z</time>
      </trkpt>
      <trkpt lat="47.70267" lon="-2.68759">
        <ele>103</ele>
        <time>2015-12-06T14:25:42.000Z</time>
      </trkpt>
      <trkpt lat="47.70268" lon="-2.68762">
        <ele>102.7</ele>
        <time>2015-12-06T14:25:43.000Z</time>
      </trkpt>
      <trkpt lat="47.70269" lon="-2.68765">
        <ele>102.4</ele>
        <time>2015-12-06T14:25:44.000Z</time>
      </trkpt>
      <trkpt lat="47.70271" lon="-2.68766">
        <ele>102</ele>
        <time>2015-12-06T14:25:45.000Z</time>
      </trkpt>
      <trkpt lat="47.70272" lon="-2.68768">
        <ele>101.8</ele>
        <time>2015-12-06T14:25:46.000Z</time>
      </trkpt>
      <trkpt lat="47.70272" lon="-2.68769">
        <ele>101.5</ele>
        <time>2015-12-06T14:25:47.000Z</time>
      </trkpt>
      <trkpt lat="47.70273" lon="-2.6877">
        <ele>101.4</ele>
        <time>2015-12-06T14:25:48.000Z</time>
      </trkpt>
      <trkpt lat="47.70273" lon="-2.68771">
        <ele>101.3</ele>
        <time>2015-12-06T14:25:49.000Z</time>
      </trkpt>
      <trkpt lat="47.70274" lon="-2.68781">
        <ele>100.8</ele>
        <time>2015-12-06T14:25:50.000Z</time>
      </trkpt>
      <trkpt lat="47.70275" lon="-2.68783">
        <ele>100.6</ele>
        <time>2015-12-06T14:25:51.000Z</time>
      </trkpt>
      <trkpt lat="47.70275" lon="-2.68784">
        <ele>100.5</ele>
        <time>2015-12-06T14:25:52.000Z</time>
      </trkpt>
      <trkpt lat="47.70276" lon="-2.68785">
        <ele>100.3</ele>
        <time>2015-12-06T14:25:53.000Z</time>
      </trkpt>
      <trkpt lat="47.70276" lon="-2.68786">
        <ele>100.3</ele>
        <time>2015-12-06T14:25:54.000Z</time>
      </trkpt>
      <trkpt lat="47.70276" lon="-2.68787">
        <ele>100.2</ele>
        <time>2015-12-06T14:25:55.000Z</time>
      </trkpt>
      <trkpt lat="47.70276" lon="-2.68788">
        <ele>100.2</ele>
        <time>2015-12-06T14:25:56.000Z</time>
      </trkpt>
      <trkpt lat="47.70276" lon="-2.68796">
        <ele>99.9</ele>
        <time>2015-12-06T14:25:57.000Z</time>
      </trkpt>
      <trkpt lat="47.70276" lon="-2.68799">
        <ele>99.8</ele>
        <time>2015-12-06T14:25:58.000Z</time>
      </trkpt>
      <trkpt lat="47.70277" lon="-2.68802">
        <ele>99.6</ele>
        <time>2015-12-06T14:25:59.000Z</time>
      </trkpt>
      <trkpt lat="47.70277" lon="-2.68805">
        <ele>99.3</ele>
        <time>2015-12-06T14:26:00.000Z</time>
      </trkpt>
      <trkpt lat="47.70278" lon="-2.68808">
        <ele>99</ele>
        <time>2015-12-06T14:26:01.000Z</time>
      </trkpt>
      <trkpt lat="47.70278" lon="-2.68811">
        <ele>98.8</ele>
        <time>2015-12-06T14:26:02.000Z</time>
      </trkpt>
      <trkpt lat="47.70279" lon="-2.68815">
        <ele>98.3</ele>
        <time>2015-12-06T14:26:03.000Z</time>
      </trkpt>
      <trkpt lat="47.7028" lon="-2.6882">
        <ele>97.8</ele>
        <time>2015-12-06T14:26:04.000Z</time>
      </trkpt>
      <trkpt lat="47.70282" lon="-2.68826">
        <ele>97.2</ele>
        <time>2015-12-06T14:26:05.000Z</time>
      </trkpt>
      <trkpt lat="47.70283" lon="-2.68831">
        <ele>96.7</ele>
        <time>2015-12-06T14:26:06.000Z</time>
      </trkpt>
      <trkpt lat="47.70283" lon="-2.68835">
        <ele>96.3</ele>
        <time>2015-12-06T14:26:07.000Z</time>
      </trkpt>
      <trkpt lat="47.70284" lon="-2.68839">
        <ele>95.9</ele>
        <time>2015-12-06T14:26:08.000Z</time>
      </trkpt>
      <trkpt lat="47.70284" lon="-2.68843">
        <ele>95.7</ele>
        <time>2015-12-06T14:26:09.000Z</time>
      </trkpt>
      <trkpt lat="47.70285" lon="-2.68845">
        <ele>95.5</ele>
        <time>2015-12-06T14:26:10.000Z</time>
      </trkpt>
      <trkpt lat="47.70285" lon="-2.68847">
        <ele>95.1</ele>
        <time>2015-12-06T14:26:11.000Z</time>
      </trkpt>
      <trkpt lat="47.70287" lon="-2.68849">
        <ele>94.6</ele>
        <time>2015-12-06T14:26:12.000Z</time>
      </trkpt>
      <trkpt lat="47.70289" lon="-2.6885">
        <ele>94.1</ele>
        <time>2015-12-06T14:26:13.000Z</time>
      </trkpt>
      <trkpt lat="47.7029" lon="-2.68851">
        <ele>93.6</ele>
        <time>2015-12-06T14:26:14.000Z</time>
      </trkpt>
      <trkpt lat="47.70291" lon="-2.68851">
        <ele>93.2</ele>
        <time>2015-12-06T14:26:15.000Z</time>
      </trkpt>
      <trkpt lat="47.70293" lon="-2.68852">
        <ele>92.9</ele>
        <time>2015-12-06T14:26:16.000Z</time>
      </trkpt>
      <trkpt lat="47.70294" lon="-2.68853">
        <ele>92.5</ele>
        <time>2015-12-06T14:26:17.000Z</time>
      </trkpt>
      <trkpt lat="47.70296" lon="-2.68854">
        <ele>91.9</ele>
        <time>2015-12-06T14:26:18.000Z</time>
      </trkpt>
      <trkpt lat="47.70298" lon="-2.68857">
        <ele>91.3</ele>
        <time>2015-12-06T14:26:19.000Z</time>
      </trkpt>
      <trkpt lat="47.703" lon="-2.6886">
        <ele>90.6</ele>
        <time>2015-12-06T14:26:20.000Z</time>
      </trkpt>
      <trkpt lat="47.70302" lon="-2.68865">
        <ele>89.9</ele>
        <time>2015-12-06T14:26:21.000Z</time>
      </trkpt>
      <trkpt lat="47.70304" lon="-2.68869">
        <ele>89.2</ele>
        <time>2015-12-06T14:26:22.000Z</time>
      </trkpt>
      <trkpt lat="47.70308" lon="-2.68875">
        <ele>88.2</ele>
        <time>2015-12-06T14:26:23.000Z</time>
      </trkpt>
      <trkpt lat="47.70312" lon="-2.6888">
        <ele>87.4</ele>
        <time>2015-12-06T14:26:24.000Z</time>
      </trkpt>
      <trkpt lat="47.70316" lon="-2.68885">
        <ele>86.5</ele>
        <time>2015-12-06T14:26:25.000Z</time>
      </trkpt>
      <trkpt lat="47.70321" lon="-2.68891">
        <ele>85.7</ele>
        <time>2015-12-06T14:26:26.000Z</time>
      </trkpt>
      <trkpt lat="47.70325" lon="-2.68897">
        <ele>84.9</ele>
        <time>2015-12-06T14:26:27.000Z</time>
      </trkpt>
      <trkpt lat="47.70329" lon="-2.68903">
        <ele>84.3</ele>
        <time>2015-12-06T14:26:28.000Z</time>
      </trkpt>
      <trkpt lat="47.70333" lon="-2.6891">
        <ele>83.7</ele>
        <time>2015-12-06T14:26:29.000Z</time>
      </trkpt>
      <trkpt lat="47.70337" lon="-2.68917">
        <ele>82.9</ele>
        <time>2015-12-06T14:26:30.000Z</time>
      </trkpt>
      <trkpt lat="47.70342" lon="-2.68924">
        <ele>82</ele>
        <time>2015-12-06T14:26:31.000Z</time>
      </trkpt>
      <trkpt lat="47.70346" lon="-2.68931">
        <ele>81.4</ele>
        <time>2015-12-06T14:26:32.000Z</time>
      </trkpt>
      <trkpt lat="47.70349" lon="-2.68938">
        <ele>81</ele>
        <time>2015-12-06T14:26:33.000Z</time>
      </trkpt>
      <trkpt lat="47.70352" lon="-2.68944">
        <ele>80.6</ele>
        <time>2015-12-06T14:26:34.000Z</time>
      </trkpt>
      <trkpt lat="47.70355" lon="-2.68946">
        <ele>79.9</ele>
        <time>2015-12-06T14:26:35.000Z</time>
      </trkpt>
      <trkpt lat="47.70358" lon="-2.68946">
        <ele>79.2</ele>
        <time>2015-12-06T14:26:36.000Z</time>
      </trkpt>
      <trkpt lat="47.70361" lon="-2.68943">
        <ele>78.5</ele>
        <time>2015-12-06T14:26:37.000Z</time>
      </trkpt>
      <trkpt lat="47.70363" lon="-2.6894">
        <ele>77.9</ele>
        <time>2015-12-06T14:26:38.000Z</time>
      </trkpt>
      <trkpt lat="47.70365" lon="-2.68936">
        <ele>77.1</ele>
        <time>2015-12-06T14:26:39.000Z</time>
      </trkpt>
      <trkpt lat="47.70369" lon="-2.68931">
        <ele>76.2</ele>
        <time>2015-12-06T14:26:40.000Z</time>
      </trkpt>
      <trkpt lat="47.70372" lon="-2.68926">
        <ele>75.2</ele>
        <time>2015-12-06T14:26:41.000Z</time>
      </trkpt>
      <trkpt lat="47.70375" lon="-2.68921">
        <ele>74.2</ele>
        <time>2015-12-06T14:26:42.000Z</time>
      </trkpt>
      <trkpt lat="47.70379" lon="-2.68914">
        <ele>73.3</ele>
        <time>2015-12-06T14:26:43.000Z</time>
      </trkpt>
      <trkpt lat="47.70383" lon="-2.68907">
        <ele>72.4</ele>
        <time>2015-12-06T14:26:44.000Z</time>
      </trkpt>
      <trkpt lat="47.70387" lon="-2.689">
        <ele>71.6</ele>
        <time>2015-12-06T14:26:45.000Z</time>
      </trkpt>
      <trkpt lat="47.7039" lon="-2.68892">
        <ele>70.7</ele>
        <time>2015-12-06T14:26:46.000Z</time>
      </trkpt>
      <trkpt lat="47.70395" lon="-2.68883">
        <ele>69.8</ele>
        <time>2015-12-06T14:26:47.000Z</time>
      </trkpt>
      <trkpt lat="47.704" lon="-2.68874">
        <ele>68.7</ele>
        <time>2015-12-06T14:26:48.000Z</time>
      </trkpt>
      <trkpt lat="47.70405" lon="-2.68864">
        <ele>67.6</ele>
        <time>2015-12-06T14:26:49.000Z</time>
      </trkpt>
      <trkpt lat="47.7041" lon="-2.68855">
        <ele>66.6</ele>
        <time>2015-12-06T14:26:50.000Z</time>
      </trkpt>
      <trkpt lat="47.70413" lon="-2.68847">
        <ele>65.9</ele>
        <time>2015-12-06T14:26:51.000Z</time>
      </trkpt>
      <trkpt lat="47.70414" lon="-2.6884">
        <ele>65.4</ele>
        <time>2015-12-06T14:26:52.000Z</time>
      </trkpt>
      <trkpt lat="47.70414" lon="-2.68834">
        <ele>65.2</ele>
        <time>2015-12-06T14:26:53.000Z</time>
      </trkpt>
      <trkpt lat="47.70412" lon="-2.68828">
        <ele>65</ele>
        <time>2015-12-06T14:26:54.000Z</time>
      </trkpt>
      <trkpt lat="47.70411" lon="-2.68822">
        <ele>65</ele>
        <time>2015-12-06T14:26:55.000Z</time>
      </trkpt>
      <trkpt lat="47.7041" lon="-2.68816">
        <ele>64.8</ele>
        <time>2015-12-06T14:26:56.000Z</time>
      </trkpt>
      <trkpt lat="47.70409" lon="-2.68809">
        <ele>64.7</ele>
        <time>2015-12-06T14:26:57.000Z</time>
      </trkpt>
      <trkpt lat="47.70408" lon="-2.68804">
        <ele>64.6</ele>
        <time>2015-12-06T14:26:58.000Z</time>
      </trkpt>
      <trkpt lat="47.70406" lon="-2.68799">
        <ele>64.6</ele>
        <time>2015-12-06T14:26:59.000Z</time>
      </trkpt>
      <trkpt lat="47.70405" lon="-2.68794">
        <ele>64.6</ele>
        <time>2015-12-06T14:27:00.000Z</time>
      </trkpt>
      <trkpt lat="47.70403" lon="-2.68789">
        <ele>64.7</ele>
        <time>2015-12-06T14:27:01.000Z</time>
      </trkpt>
      <trkpt lat="47.70401" lon="-2.68785">
        <ele>65</ele>
        <time>2015-12-06T14:27:02.000Z</time>
      </trkpt>
      <trkpt lat="47.70399" lon="-2.6878">
        <ele>65.2</ele>
        <time>2015-12-06T14:27:03.000Z</time>
      </trkpt>
      <trkpt lat="47.70398" lon="-2.68776">
        <ele>65.4</ele>
        <time>2015-12-06T14:27:04.000Z</time>
      </trkpt>
      <trkpt lat="47.70397" lon="-2.68773">
        <ele>65.5</ele>
        <time>2015-12-06T14:27:05.000Z</time>
      </trkpt>
      <trkpt lat="47.70398" lon="-2.6877">
        <ele>65.5</ele>
        <time>2015-12-06T14:27:06.000Z</time>
      </trkpt>
      <trkpt lat="47.70399" lon="-2.68768">
        <ele>65.4</ele>
        <time>2015-12-06T14:27:07.000Z</time>
      </trkpt>
      <trkpt lat="47.70401" lon="-2.68766">
        <ele>65.1</ele>
        <time>2015-12-06T14:27:08.000Z</time>
      </trkpt>
      <trkpt lat="47.70404" lon="-2.68766">
        <ele>64.8</ele>
        <time>2015-12-06T14:27:09.000Z</time>
      </trkpt>
      <trkpt lat="47.70408" lon="-2.68766">
        <ele>64.3</ele>
        <time>2015-12-06T14:27:10.000Z</time>
      </trkpt>
      <trkpt lat="47.70413" lon="-2.68767">
        <ele>63.6</ele>
        <time>2015-12-06T14:27:11.000Z</time>
      </trkpt>
      <trkpt lat="47.70418" lon="-2.68769">
        <ele>62.9</ele>
        <time>2015-12-06T14:27:12.000Z</time>
      </trkpt>
      <trkpt lat="47.70424" lon="-2.68771">
        <ele>62.2</ele>
        <time>2015-12-06T14:27:13.000Z</time>
      </trkpt>
      <trkpt lat="47.7043" lon="-2.68772">
        <ele>61.5</ele>
        <time>2015-12-06T14:27:14.000Z</time>
      </trkpt>
      <trkpt lat="47.70435" lon="-2.68773">
        <ele>60.8</ele>
        <time>2015-12-06T14:27:15.000Z</time>
      </trkpt>
      <trkpt lat="47.7044" lon="-2.68773">
        <ele>60.2</ele>
        <time>2015-12-06T14:27:16.000Z</time>
      </trkpt>
      <trkpt lat="47.70446" lon="-2.68773">
        <ele>59.6</ele>
        <time>2015-12-06T14:27:17.000Z</time>
      </trkpt>
      <trkpt lat="47.70451" lon="-2.68772">
        <ele>58.9</ele>
        <time>2015-12-06T14:27:18.000Z</time>
      </trkpt>
      <trkpt lat="47.70457" lon="-2.68769">
        <ele>58.2</ele>
        <time>2015-12-06T14:27:19.000Z</time>
      </trkpt>
      <trkpt lat="47.70462" lon="-2.68766">
        <ele>58.1</ele>
        <time>2015-12-06T14:27:20.000Z</time>
      </trkpt>
      <trkpt lat="47.70466" lon="-2.68761">
        <ele>58.2</ele>
        <time>2015-12-06T14:27:21.000Z</time>
      </trkpt>
      <trkpt lat="47.70469" lon="-2.68755">
        <ele>58.3</ele>
        <time>2015-12-06T14:27:22.000Z</time>
      </trkpt>
      <trkpt lat="47.70471" lon="-2.6875">
        <ele>58.3</ele>
        <time>2015-12-06T14:27:23.000Z</time>
      </trkpt>
      <trkpt lat="47.70472" lon="-2.68746">
        <ele>58.3</ele>
        <time>2015-12-06T14:27:24.000Z</time>
      </trkpt>
      <trkpt lat="47.70473" lon="-2.68742">
        <ele>58.3</ele>
        <time>2015-12-06T14:27:25.000Z</time>
      </trkpt>
      <trkpt lat="47.70474" lon="-2.68738">
        <ele>58.4</ele>
        <time>2015-12-06T14:27:26.000Z</time>
      </trkpt>
      <trkpt lat="47.70475" lon="-2.68734">
        <ele>58.4</ele>
        <time>2015-12-06T14:27:27.000Z</time>
      </trkpt>
      <trkpt lat="47.70476" lon="-2.68729">
        <ele>58.4</ele>
        <time>2015-12-06T14:27:28.000Z</time>
      </trkpt>
      <trkpt lat="47.70478" lon="-2.68725">
        <ele>58.5</ele>
        <time>2015-12-06T14:27:29.000Z</time>
      </trkpt>
      <trkpt lat="47.70479" lon="-2.6872">
        <ele>58.5</ele>
        <time>2015-12-06T14:27:30.000Z</time>
      </trkpt>
      <trkpt lat="47.70481" lon="-2.68716">
        <ele>58.5</ele>
        <time>2015-12-06T14:27:31.000Z</time>
      </trkpt>
      <trkpt lat="47.70483" lon="-2.68712">
        <ele>58.6</ele>
        <time>2015-12-06T14:27:32.000Z</time>
      </trkpt>
      <trkpt lat="47.70485" lon="-2.68708">
        <ele>58.6</ele>
        <time>2015-12-06T14:27:33.000Z</time>
      </trkpt>
      <trkpt lat="47.70487" lon="-2.68705">
        <ele>58.7</ele>
        <time>2015-12-06T14:27:34.000Z</time>
      </trkpt>
      <trkpt lat="47.70489" lon="-2.68703">
        <ele>58.8</ele>
        <time>2015-12-06T14:27:35.000Z</time>
      </trkpt>
      <trkpt lat="47.70491" lon="-2.687">
        <ele>58.9</ele>
        <time>2015-12-06T14:27:36.000Z</time>
      </trkpt>
      <trkpt lat="47.70493" lon="-2.68698">
        <ele>59</ele>
        <time>2015-12-06T14:27:37.000Z</time>
      </trkpt>
      <trkpt lat="47.70495" lon="-2.68696">
        <ele>59</ele>
        <time>2015-12-06T14:27:38.000Z</time>
      </trkpt>
      <trkpt lat="47.70497" lon="-2.68694">
        <ele>59.1</ele>
        <time>2015-12-06T14:27:39.000Z</time>
      </trkpt>
      <trkpt lat="47.70499" lon="-2.68692">
        <ele>59.2</ele>
        <time>2015-12-06T14:27:40.000Z</time>
      </trkpt>
      <trkpt lat="47.70502" lon="-2.68691">
        <ele>59.2</ele>
        <time>2015-12-06T14:27:41.000Z</time>
      </trkpt>
      <trkpt lat="47.70505" lon="-2.6869">
        <ele>59.3</ele>
        <time>2015-12-06T14:27:42.000Z</time>
      </trkpt>
      <trkpt lat="47.70507" lon="-2.68689">
        <ele>59.4</ele>
        <time>2015-12-06T14:27:43.000Z</time>
      </trkpt>
      <trkpt lat="47.70509" lon="-2.68688">
        <ele>59.4</ele>
        <time>2015-12-06T14:27:44.000Z</time>
      </trkpt>
      <trkpt lat="47.70511" lon="-2.68687">
        <ele>59.5</ele>
        <time>2015-12-06T14:27:45.000Z</time>
      </trkpt>
      <trkpt lat="47.70513" lon="-2.68686">
        <ele>59.5</ele>
        <time>2015-12-06T14:27:46.000Z</time>
      </trkpt>
      <trkpt lat="47.70515" lon="-2.68685">
        <ele>59.5</ele>
        <time>2015-12-06T14:27:47.000Z</time>
      </trkpt>
      <trkpt lat="47.70518" lon="-2.68686">
        <ele>59.6</ele>
        <time>2015-12-06T14:27:48.000Z</time>
      </trkpt>
      <trkpt lat="47.70521" lon="-2.68687">
        <ele>59.6</ele>
        <time>2015-12-06T14:27:49.000Z</time>
      </trkpt>
      <trkpt lat="47.70525" lon="-2.68687">
        <ele>59.7</ele>
        <time>2015-12-06T14:27:50.000Z</time>
      </trkpt>
      <trkpt lat="47.70528" lon="-2.68689">
        <ele>59.7</ele>
        <time>2015-12-06T14:27:51.000Z</time>
      </trkpt>
      <trkpt lat="47.70531" lon="-2.68691">
        <ele>59.8</ele>
        <time>2015-12-06T14:27:52.000Z</time>
      </trkpt>
      <trkpt lat="47.70533" lon="-2.68694">
        <ele>59.8</ele>
        <time>2015-12-06T14:27:53.000Z</time>
      </trkpt>
      <trkpt lat="47.70535" lon="-2.68697">
        <ele>59.9</ele>
        <time>2015-12-06T14:27:54.000Z</time>
      </trkpt>
      <trkpt lat="47.70537" lon="-2.68701">
        <ele>59.9</ele>
        <time>2015-12-06T14:27:55.000Z</time>
      </trkpt>
      <trkpt lat="47.70538" lon="-2.68704">
        <ele>59.9</ele>
        <time>2015-12-06T14:27:56.000Z</time>
      </trkpt>
      <trkpt lat="47.70538" lon="-2.68708">
        <ele>59.9</ele>
        <time>2015-12-06T14:27:57.000Z</time>
      </trkpt>
      <trkpt lat="47.70539" lon="-2.68711">
        <ele>59.9</ele>
        <time>2015-12-06T14:27:58.000Z</time>
      </trkpt>
      <trkpt lat="47.70539" lon="-2.68715">
        <ele>59.9</ele>
        <time>2015-12-06T14:27:59.000Z</time>
      </trkpt>
      <trkpt lat="47.70539" lon="-2.68719">
        <ele>59.9</ele>
        <time>2015-12-06T14:28:00.000Z</time>
      </trkpt>
      <trkpt lat="47.70538" lon="-2.68723">
        <ele>59.9</ele>
        <time>2015-12-06T14:28:01.000Z</time>
      </trkpt>
      <trkpt lat="47.70538" lon="-2.68727">
        <ele>59.9</ele>
        <time>2015-12-06T14:28:02.000Z</time>
      </trkpt>
      <trkpt lat="47.70538" lon="-2.68731">
        <ele>59.9</ele>
        <time>2015-12-06T14:28:03.000Z</time>
      </trkpt>
      <trkpt lat="47.70537" lon="-2.68736">
        <ele>59.9</ele>
        <time>2015-12-06T14:28:04.000Z</time>
      </trkpt>
      <trkpt lat="47.70537" lon="-2.6874">
        <ele>59.9</ele>
        <time>2015-12-06T14:28:05.000Z</time>
      </trkpt>
      <trkpt lat="47.70537" lon="-2.68745">
        <ele>59.9</ele>
        <time>2015-12-06T14:28:06.000Z</time>
      </trkpt>
      <trkpt lat="47.70538" lon="-2.68749">
        <ele>59.9</ele>
        <time>2015-12-06T14:28:07.000Z</time>
      </trkpt>
      <trkpt lat="47.70538" lon="-2.68753">
        <ele>59.9</ele>
        <time>2015-12-06T14:28:08.000Z</time>
      </trkpt>
      <trkpt lat="47.70538" lon="-2.68757">
        <ele>59.9</ele>
        <time>2015-12-06T14:28:09.000Z</time>
      </trkpt>
      <trkpt lat="47.70538" lon="-2.68761">
        <ele>59.9</ele>
        <time>2015-12-06T14:28:10.000Z</time>
      </trkpt>
      <trkpt lat="47.70538" lon="-2.68765">
        <ele>59.9</ele>
        <time>2015-12-06T14:28:11.000Z</time>
      </trkpt>
      <trkpt lat="47.70538" lon="-2.68769">
        <ele>59.9</ele>
        <time>2015-12-06T14:28:12.000Z</time>
      </trkpt>
      <trkpt lat="47.70537" lon="-2.68773">
        <ele>59.9</ele>
        <time>2015-12-06T14:28:13.000Z</time>
      </trkpt>
      <trkpt lat="47.70535" lon="-2.68777">
        <ele>59.8</ele>
        <time>2015-12-06T14:28:14.000Z</time>
      </trkpt>
      <trkpt lat="47.70534" lon="-2.68781">
        <ele>59.8</ele>
        <time>2015-12-06T14:28:15.000Z</time>
      </trkpt>
      <trkpt lat="47.70532" lon="-2.68786">
        <ele>59.8</ele>
        <time>2015-12-06T14:28:16.000Z</time>
      </trkpt>
      <trkpt lat="47.70531" lon="-2.68792">
        <ele>59.7</ele>
        <time>2015-12-06T14:28:17.000Z</time>
      </trkpt>
      <trkpt lat="47.7053" lon="-2.688">
        <ele>59.5</ele>
        <time>2015-12-06T14:28:18.000Z</time>
      </trkpt>
      <trkpt lat="47.7053" lon="-2.68809">
        <ele>59.3</ele>
        <time>2015-12-06T14:28:19.000Z</time>
      </trkpt>
      <trkpt lat="47.7053" lon="-2.68818">
        <ele>59</ele>
        <time>2015-12-06T14:28:20.000Z</time>
      </trkpt>
      <trkpt lat="47.7053" lon="-2.68827">
        <ele>58.8</ele>
        <time>2015-12-06T14:28:21.000Z</time>
      </trkpt>
      <trkpt lat="47.70531" lon="-2.68836">
        <ele>58.6</ele>
        <time>2015-12-06T14:28:22.000Z</time>
      </trkpt>
      <trkpt lat="47.70531" lon="-2.68844">
        <ele>58.4</ele>
        <time>2015-12-06T14:28:23.000Z</time>
      </trkpt>
      <trkpt lat="47.70532" lon="-2.68851">
        <ele>58.1</ele>
        <time>2015-12-06T14:28:24.000Z</time>
      </trkpt>
      <trkpt lat="47.70533" lon="-2.68859">
        <ele>57.9</ele>
        <time>2015-12-06T14:28:25.000Z</time>
      </trkpt>
      <trkpt lat="47.70534" lon="-2.68866">
        <ele>57.7</ele>
        <time>2015-12-06T14:28:26.000Z</time>
      </trkpt>
      <trkpt lat="47.70534" lon="-2.68873">
        <ele>57.4</ele>
        <time>2015-12-06T14:28:27.000Z</time>
      </trkpt>
      <trkpt lat="47.70535" lon="-2.68881">
        <ele>57.2</ele>
        <time>2015-12-06T14:28:28.000Z</time>
      </trkpt>
      <trkpt lat="47.70534" lon="-2.68889">
        <ele>57.1</ele>
        <time>2015-12-06T14:28:29.000Z</time>
      </trkpt>
      <trkpt lat="47.70534" lon="-2.68899">
        <ele>56.9</ele>
        <time>2015-12-06T14:28:30.000Z</time>
      </trkpt>
      <trkpt lat="47.70535" lon="-2.68908">
        <ele>56.6</ele>
        <time>2015-12-06T14:28:31.000Z</time>
      </trkpt>
      <trkpt lat="47.70537" lon="-2.68919">
        <ele>56.3</ele>
        <time>2015-12-06T14:28:32.000Z</time>
      </trkpt>
      <trkpt lat="47.70538" lon="-2.68929">
        <ele>56</ele>
        <time>2015-12-06T14:28:33.000Z</time>
      </trkpt>
      <trkpt lat="47.70539" lon="-2.6894">
        <ele>55.6</ele>
        <time>2015-12-06T14:28:34.000Z</time>
      </trkpt>
      <trkpt lat="47.70541" lon="-2.68951">
        <ele>55.3</ele>
        <time>2015-12-06T14:28:35.000Z</time>
      </trkpt>
      <trkpt lat="47.70542" lon="-2.68962">
        <ele>54.9</ele>
        <time>2015-12-06T14:28:36.000Z</time>
      </trkpt>
      <trkpt lat="47.70543" lon="-2.68973">
        <ele>54.8</ele>
        <time>2015-12-06T14:28:37.000Z</time>
      </trkpt>
      <trkpt lat="47.70544" lon="-2.68983">
        <ele>54.7</ele>
        <time>2015-12-06T14:28:38.000Z</time>
      </trkpt>
      <trkpt lat="47.70547" lon="-2.68994">
        <ele>54.6</ele>
        <time>2015-12-06T14:28:39.000Z</time>
      </trkpt>
      <trkpt lat="47.70549" lon="-2.69004">
        <ele>54.5</ele>
        <time>2015-12-06T14:28:40.000Z</time>
      </trkpt>
      <trkpt lat="47.70551" lon="-2.69014">
        <ele>54.4</ele>
        <time>2015-12-06T14:28:41.000Z</time>
      </trkpt>
      <trkpt lat="47.70553" lon="-2.69023">
        <ele>54.3</ele>
        <time>2015-12-06T14:28:42.000Z</time>
      </trkpt>
      <trkpt lat="47.70555" lon="-2.69032">
        <ele>54.1</ele>
        <time>2015-12-06T14:28:43.000Z</time>
      </trkpt>
      <trkpt lat="47.70557" lon="-2.69041">
        <ele>54</ele>
        <time>2015-12-06T14:28:44.000Z</time>
      </trkpt>
      <trkpt lat="47.70561" lon="-2.6905">
        <ele>54</ele>
        <time>2015-12-06T14:28:45.000Z</time>
      </trkpt>
      <trkpt lat="47.70564" lon="-2.6906">
        <ele>54.1</ele>
        <time>2015-12-06T14:28:46.000Z</time>
      </trkpt>
      <trkpt lat="47.70567" lon="-2.69067">
        <ele>54.2</ele>
        <time>2015-12-06T14:28:47.000Z</time>
      </trkpt>
      <trkpt lat="47.70569" lon="-2.69074">
        <ele>54.2</ele>
        <time>2015-12-06T14:28:48.000Z</time>
      </trkpt>
      <trkpt lat="47.7057" lon="-2.6908">
        <ele>54.2</ele>
        <time>2015-12-06T14:28:49.000Z</time>
      </trkpt>
      <trkpt lat="47.70572" lon="-2.69086">
        <ele>54.3</ele>
        <time>2015-12-06T14:28:50.000Z</time>
      </trkpt>
      <trkpt lat="47.70573" lon="-2.69092">
        <ele>54.3</ele>
        <time>2015-12-06T14:28:51.000Z</time>
      </trkpt>
      <trkpt lat="47.70575" lon="-2.69098">
        <ele>54.3</ele>
        <time>2015-12-06T14:28:52.000Z</time>
      </trkpt>
      <trkpt lat="47.70576" lon="-2.69104">
        <ele>54.3</ele>
        <time>2015-12-06T14:28:53.000Z</time>
      </trkpt>
      <trkpt lat="47.70577" lon="-2.6911">
        <ele>54.3</ele>
        <time>2015-12-06T14:28:54.000Z</time>
      </trkpt>
      <trkpt lat="47.70578" lon="-2.69114">
        <ele>54.3</ele>
        <time>2015-12-06T14:28:55.000Z</time>
      </trkpt>
      <trkpt lat="47.70578" lon="-2.69119">
        <ele>54.2</ele>
        <time>2015-12-06T14:28:56.000Z</time>
      </trkpt>
      <trkpt lat="47.70578" lon="-2.69123">
        <ele>54.2</ele>
        <time>2015-12-06T14:28:57.000Z</time>
      </trkpt>
      <trkpt lat="47.70578" lon="-2.69127">
        <ele>54.2</ele>
        <time>2015-12-06T14:28:58.000Z</time>
      </trkpt>
      <trkpt lat="47.70579" lon="-2.69132">
        <ele>54.2</ele>
        <time>2015-12-06T14:28:59.000Z</time>
      </trkpt>
      <trkpt lat="47.7058" lon="-2.69137">
        <ele>54.3</ele>
        <time>2015-12-06T14:29:00.000Z</time>
      </trkpt>
      <trkpt lat="47.70582" lon="-2.69143">
        <ele>54.4</ele>
        <time>2015-12-06T14:29:01.000Z</time>
      </trkpt>
      <trkpt lat="47.70585" lon="-2.69148">
        <ele>54.6</ele>
        <time>2015-12-06T14:29:02.000Z</time>
      </trkpt>
      <trkpt lat="47.70587" lon="-2.69154">
        <ele>54.7</ele>
        <time>2015-12-06T14:29:03.000Z</time>
      </trkpt>
      <trkpt lat="47.7059" lon="-2.6916">
        <ele>54.8</ele>
        <time>2015-12-06T14:29:04.000Z</time>
      </trkpt>
      <trkpt lat="47.70591" lon="-2.69167">
        <ele>54.9</ele>
        <time>2015-12-06T14:29:05.000Z</time>
      </trkpt>
      <trkpt lat="47.70592" lon="-2.69174">
        <ele>54.9</ele>
        <time>2015-12-06T14:29:06.000Z</time>
      </trkpt>
      <trkpt lat="47.70592" lon="-2.69182">
        <ele>54.9</ele>
        <time>2015-12-06T14:29:07.000Z</time>
      </trkpt>
      <trkpt lat="47.70592" lon="-2.69189">
        <ele>54.9</ele>
        <time>2015-12-06T14:29:08.000Z</time>
      </trkpt>
      <trkpt lat="47.70593" lon="-2.69196">
        <ele>54.9</ele>
        <time>2015-12-06T14:29:09.000Z</time>
      </trkpt>
      <trkpt lat="47.70595" lon="-2.69203">
        <ele>54.9</ele>
        <time>2015-12-06T14:29:10.000Z</time>
      </trkpt>
      <trkpt lat="47.70596" lon="-2.6921">
        <ele>54.9</ele>
        <time>2015-12-06T14:29:11.000Z</time>
      </trkpt>
      <trkpt lat="47.70597" lon="-2.69218">
        <ele>54.7</ele>
        <time>2015-12-06T14:29:12.000Z</time>
      </trkpt>
      <trkpt lat="47.70597" lon="-2.69227">
        <ele>54.5</ele>
        <time>2015-12-06T14:29:13.000Z</time>
      </trkpt>
      <trkpt lat="47.70598" lon="-2.69235">
        <ele>54.3</ele>
        <time>2015-12-06T14:29:14.000Z</time>
      </trkpt>
      <trkpt lat="47.70598" lon="-2.69242">
        <ele>54.1</ele>
        <time>2015-12-06T14:29:15.000Z</time>
      </trkpt>
      <trkpt lat="47.70598" lon="-2.69248">
        <ele>53.9</ele>
        <time>2015-12-06T14:29:16.000Z</time>
      </trkpt>
      <trkpt lat="47.70598" lon="-2.69256">
        <ele>53.7</ele>
        <time>2015-12-06T14:29:17.000Z</time>
      </trkpt>
      <trkpt lat="47.70598" lon="-2.69264">
        <ele>53.5</ele>
        <time>2015-12-06T14:29:18.000Z</time>
      </trkpt>
      <trkpt lat="47.70598" lon="-2.69273">
        <ele>53.2</ele>
        <time>2015-12-06T14:29:19.000Z</time>
      </trkpt>
      <trkpt lat="47.70598" lon="-2.6928">
        <ele>53</ele>
        <time>2015-12-06T14:29:20.000Z</time>
      </trkpt>
      <trkpt lat="47.70597" lon="-2.69289">
        <ele>52.7</ele>
        <time>2015-12-06T14:29:21.000Z</time>
      </trkpt>
      <trkpt lat="47.70596" lon="-2.69297">
        <ele>52.7</ele>
        <time>2015-12-06T14:29:22.000Z</time>
      </trkpt>
      <trkpt lat="47.70594" lon="-2.69305">
        <ele>52.8</ele>
        <time>2015-12-06T14:29:23.000Z</time>
      </trkpt>
      <trkpt lat="47.70593" lon="-2.69313">
        <ele>52.9</ele>
        <time>2015-12-06T14:29:24.000Z</time>
      </trkpt>
      <trkpt lat="47.70591" lon="-2.6932">
        <ele>52.9</ele>
        <time>2015-12-06T14:29:25.000Z</time>
      </trkpt>
      <trkpt lat="47.70589" lon="-2.69327">
        <ele>53</ele>
        <time>2015-12-06T14:29:26.000Z</time>
      </trkpt>
      <trkpt lat="47.70586" lon="-2.69334">
        <ele>53</ele>
        <time>2015-12-06T14:29:27.000Z</time>
      </trkpt>
      <trkpt lat="47.70583" lon="-2.69341">
        <ele>53.1</ele>
        <time>2015-12-06T14:29:28.000Z</time>
      </trkpt>
      <trkpt lat="47.70581" lon="-2.69347">
        <ele>53.1</ele>
        <time>2015-12-06T14:29:29.000Z</time>
      </trkpt>
      <trkpt lat="47.7058" lon="-2.69354">
        <ele>53.2</ele>
        <time>2015-12-06T14:29:30.000Z</time>
      </trkpt>
      <trkpt lat="47.7058" lon="-2.6936">
        <ele>53.3</ele>
        <time>2015-12-06T14:29:31.000Z</time>
      </trkpt>
      <trkpt lat="47.70579" lon="-2.69366">
        <ele>53.3</ele>
        <time>2015-12-06T14:29:32.000Z</time>
      </trkpt>
      <trkpt lat="47.70579" lon="-2.6937">
        <ele>53.4</ele>
        <time>2015-12-06T14:29:33.000Z</time>
      </trkpt>
      <trkpt lat="47.70578" lon="-2.69375">
        <ele>53.4</ele>
        <time>2015-12-06T14:29:34.000Z</time>
      </trkpt>
      <trkpt lat="47.70578" lon="-2.69379">
        <ele>53.5</ele>
        <time>2015-12-06T14:29:35.000Z</time>
      </trkpt>
      <trkpt lat="47.70578" lon="-2.69383">
        <ele>53.6</ele>
        <time>2015-12-06T14:29:36.000Z</time>
      </trkpt>
      <trkpt lat="47.70578" lon="-2.69387">
        <ele>53.6</ele>
        <time>2015-12-06T14:29:37.000Z</time>
      </trkpt>
      <trkpt lat="47.70578" lon="-2.6939">
        <ele>53.7</ele>
        <time>2015-12-06T14:29:38.000Z</time>
      </trkpt>
      <trkpt lat="47.70578" lon="-2.69393">
        <ele>53.7</ele>
        <time>2015-12-06T14:29:39.000Z</time>
      </trkpt>
      <trkpt lat="47.70577" lon="-2.69396">
        <ele>53.7</ele>
        <time>2015-12-06T14:29:40.000Z</time>
      </trkpt>
      <trkpt lat="47.70577" lon="-2.694">
        <ele>53.8</ele>
        <time>2015-12-06T14:29:41.000Z</time>
      </trkpt>
      <trkpt lat="47.70576" lon="-2.69404">
        <ele>53.8</ele>
        <time>2015-12-06T14:29:42.000Z</time>
      </trkpt>
      <trkpt lat="47.70576" lon="-2.69408">
        <ele>53.9</ele>
        <time>2015-12-06T14:29:43.000Z</time>
      </trkpt>
      <trkpt lat="47.70575" lon="-2.69413">
        <ele>54</ele>
        <time>2015-12-06T14:29:44.000Z</time>
      </trkpt>
      <trkpt lat="47.70575" lon="-2.69419">
        <ele>54</ele>
        <time>2015-12-06T14:29:45.000Z</time>
      </trkpt>
      <trkpt lat="47.70574" lon="-2.69426">
        <ele>54.1</ele>
        <time>2015-12-06T14:29:46.000Z</time>
      </trkpt>
      <trkpt lat="47.70572" lon="-2.69435">
        <ele>54.1</ele>
        <time>2015-12-06T14:29:47.000Z</time>
      </trkpt>
      <trkpt lat="47.7057" lon="-2.69444">
        <ele>54.2</ele>
        <time>2015-12-06T14:29:48.000Z</time>
      </trkpt>
      <trkpt lat="47.70568" lon="-2.69453">
        <ele>54.2</ele>
        <time>2015-12-06T14:29:49.000Z</time>
      </trkpt>
      <trkpt lat="47.70566" lon="-2.6946">
        <ele>54.2</ele>
        <time>2015-12-06T14:29:50.000Z</time>
      </trkpt>
      <trkpt lat="47.70565" lon="-2.69468">
        <ele>54.3</ele>
        <time>2015-12-06T14:29:51.000Z</time>
      </trkpt>
      <trkpt lat="47.70563" lon="-2.69476">
        <ele>54.4</ele>
        <time>2015-12-06T14:29:52.000Z</time>
      </trkpt>
      <trkpt lat="47.70562" lon="-2.69484">
        <ele>54.5</ele>
        <time>2015-12-06T14:29:53.000Z</time>
      </trkpt>
      <trkpt lat="47.7056" lon="-2.69491">
        <ele>54.5</ele>
        <time>2015-12-06T14:29:54.000Z</time>
      </trkpt>
      <trkpt lat="47.70559" lon="-2.69499">
        <ele>54.6</ele>
        <time>2015-12-06T14:29:55.000Z</time>
      </trkpt>
      <trkpt lat="47.70557" lon="-2.69507">
        <ele>54.7</ele>
        <time>2015-12-06T14:29:56.000Z</time>
      </trkpt>
      <trkpt lat="47.70556" lon="-2.69516">
        <ele>54.7</ele>
        <time>2015-12-06T14:29:57.000Z</time>
      </trkpt>
      <trkpt lat="47.70553" lon="-2.69524">
        <ele>54.7</ele>
        <time>2015-12-06T14:29:58.000Z</time>
      </trkpt>
      <trkpt lat="47.70551" lon="-2.69532">
        <ele>54.6</ele>
        <time>2015-12-06T14:29:59.000Z</time>
      </trkpt>
      <trkpt lat="47.70548" lon="-2.69539">
        <ele>54.5</ele>
        <time>2015-12-06T14:30:00.000Z</time>
      </trkpt>
      <trkpt lat="47.70546" lon="-2.69547">
        <ele>54.4</ele>
        <time>2015-12-06T14:30:01.000Z</time>
      </trkpt>
      <trkpt lat="47.70545" lon="-2.69554">
        <ele>54.4</ele>
        <time>2015-12-06T14:30:02.000Z</time>
      </trkpt>
      <trkpt lat="47.70544" lon="-2.6956">
        <ele>54.4</ele>
        <time>2015-12-06T14:30:03.000Z</time>
      </trkpt>
      <trkpt lat="47.70543" lon="-2.69565">
        <ele>54.4</ele>
        <time>2015-12-06T14:30:04.000Z</time>
      </trkpt>
      <trkpt lat="47.70542" lon="-2.69569">
        <ele>54.3</ele>
        <time>2015-12-06T14:30:05.000Z</time>
      </trkpt>
      <trkpt lat="47.7054" lon="-2.69574">
        <ele>54.4</ele>
        <time>2015-12-06T14:30:06.000Z</time>
      </trkpt>
      <trkpt lat="47.70539" lon="-2.69579">
        <ele>54.5</ele>
        <time>2015-12-06T14:30:07.000Z</time>
      </trkpt>
      <trkpt lat="47.70538" lon="-2.69583">
        <ele>54.5</ele>
        <time>2015-12-06T14:30:08.000Z</time>
      </trkpt>
      <trkpt lat="47.70538" lon="-2.69587">
        <ele>54.6</ele>
        <time>2015-12-06T14:30:09.000Z</time>
      </trkpt>
      <trkpt lat="47.70538" lon="-2.69591">
        <ele>54.6</ele>
        <time>2015-12-06T14:30:10.000Z</time>
      </trkpt>
      <trkpt lat="47.70539" lon="-2.69594">
        <ele>54.6</ele>
        <time>2015-12-06T14:30:11.000Z</time>
      </trkpt>
      <trkpt lat="47.70539" lon="-2.69597">
        <ele>54.7</ele>
        <time>2015-12-06T14:30:12.000Z</time>
      </trkpt>
      <trkpt lat="47.7054" lon="-2.696">
        <ele>54.7</ele>
        <time>2015-12-06T14:30:13.000Z</time>
      </trkpt>
      <trkpt lat="47.7054" lon="-2.69603">
        <ele>54.7</ele>
        <time>2015-12-06T14:30:14.000Z</time>
      </trkpt>
      <trkpt lat="47.7054" lon="-2.69606">
        <ele>54.7</ele>
        <time>2015-12-06T14:30:15.000Z</time>
      </trkpt>
      <trkpt lat="47.7054" lon="-2.69609">
        <ele>54.8</ele>
        <time>2015-12-06T14:30:16.000Z</time>
      </trkpt>
      <trkpt lat="47.70541" lon="-2.69611">
        <ele>54.8</ele>
        <time>2015-12-06T14:30:17.000Z</time>
      </trkpt>
      <trkpt lat="47.70541" lon="-2.69614">
        <ele>54.9</ele>
        <time>2015-12-06T14:30:18.000Z</time>
      </trkpt>
      <trkpt lat="47.70542" lon="-2.69616">
        <ele>54.9</ele>
        <time>2015-12-06T14:30:19.000Z</time>
      </trkpt>
      <trkpt lat="47.70542" lon="-2.69619">
        <ele>55</ele>
        <time>2015-12-06T14:30:20.000Z</time>
      </trkpt>
      <trkpt lat="47.70542" lon="-2.69623">
        <ele>55</ele>
        <time>2015-12-06T14:30:21.000Z</time>
      </trkpt>
      <trkpt lat="47.70542" lon="-2.69626">
        <ele>55.1</ele>
        <time>2015-12-06T14:30:22.000Z</time>
      </trkpt>
      <trkpt lat="47.70543" lon="-2.69629">
        <ele>55.4</ele>
        <time>2015-12-06T14:30:23.000Z</time>
      </trkpt>
      <trkpt lat="47.70543" lon="-2.69633">
        <ele>55.7</ele>
        <time>2015-12-06T14:30:24.000Z</time>
      </trkpt>
      <trkpt lat="47.70543" lon="-2.69635">
        <ele>55.9</ele>
        <time>2015-12-06T14:30:25.000Z</time>
      </trkpt>
      <trkpt lat="47.70544" lon="-2.69638">
        <ele>56.1</ele>
        <time>2015-12-06T14:30:26.000Z</time>
      </trkpt>
      <trkpt lat="47.70544" lon="-2.69641">
        <ele>56.4</ele>
        <time>2015-12-06T14:30:27.000Z</time>
      </trkpt>
      <trkpt lat="47.70544" lon="-2.69643">
        <ele>56.6</ele>
        <time>2015-12-06T14:30:28.000Z</time>
      </trkpt>
      <trkpt lat="47.70545" lon="-2.69646">
        <ele>56.8</ele>
        <time>2015-12-06T14:30:29.000Z</time>
      </trkpt>
      <trkpt lat="47.70545" lon="-2.69648">
        <ele>57.1</ele>
        <time>2015-12-06T14:30:30.000Z</time>
      </trkpt>
      <trkpt lat="47.70545" lon="-2.69651">
        <ele>57.2</ele>
        <time>2015-12-06T14:30:31.000Z</time>
      </trkpt>
      <trkpt lat="47.70545" lon="-2.69654">
        <ele>57.4</ele>
        <time>2015-12-06T14:30:32.000Z</time>
      </trkpt>
      <trkpt lat="47.70545" lon="-2.69657">
        <ele>57.6</ele>
        <time>2015-12-06T14:30:33.000Z</time>
      </trkpt>
      <trkpt lat="47.70545" lon="-2.6966">
        <ele>57.8</ele>
        <time>2015-12-06T14:30:34.000Z</time>
      </trkpt>
      <trkpt lat="47.70545" lon="-2.69663">
        <ele>58.1</ele>
        <time>2015-12-06T14:30:35.000Z</time>
      </trkpt>
      <trkpt lat="47.70545" lon="-2.69666">
        <ele>58.3</ele>
        <time>2015-12-06T14:30:36.000Z</time>
      </trkpt>
      <trkpt lat="47.70545" lon="-2.69669">
        <ele>58.6</ele>
        <time>2015-12-06T14:30:37.000Z</time>
      </trkpt>
      <trkpt lat="47.70546" lon="-2.69672">
        <ele>58.8</ele>
        <time>2015-12-06T14:30:38.000Z</time>
      </trkpt>
      <trkpt lat="47.70547" lon="-2.69675">
        <ele>59.1</ele>
        <time>2015-12-06T14:30:39.000Z</time>
      </trkpt>
      <trkpt lat="47.70548" lon="-2.69677">
        <ele>59.3</ele>
        <time>2015-12-06T14:30:40.000Z</time>
      </trkpt>
      <trkpt lat="47.70548" lon="-2.69679">
        <ele>59.6</ele>
        <time>2015-12-06T14:30:41.000Z</time>
      </trkpt>
      <trkpt lat="47.70549" lon="-2.69682">
        <ele>59.8</ele>
        <time>2015-12-06T14:30:42.000Z</time>
      </trkpt>
      <trkpt lat="47.70549" lon="-2.69685">
        <ele>60.1</ele>
        <time>2015-12-06T14:30:43.000Z</time>
      </trkpt>
      <trkpt lat="47.7055" lon="-2.69689">
        <ele>60.4</ele>
        <time>2015-12-06T14:30:44.000Z</time>
      </trkpt>
      <trkpt lat="47.7055" lon="-2.69692">
        <ele>60.7</ele>
        <time>2015-12-06T14:30:45.000Z</time>
      </trkpt>
      <trkpt lat="47.7055" lon="-2.69696">
        <ele>60.9</ele>
        <time>2015-12-06T14:30:46.000Z</time>
      </trkpt>
      <trkpt lat="47.7055" lon="-2.69699">
        <ele>61.2</ele>
        <time>2015-12-06T14:30:47.000Z</time>
      </trkpt>
      <trkpt lat="47.70551" lon="-2.69703">
        <ele>61.5</ele>
        <time>2015-12-06T14:30:48.000Z</time>
      </trkpt>
      <trkpt lat="47.70551" lon="-2.69706">
        <ele>61.7</ele>
        <time>2015-12-06T14:30:49.000Z</time>
      </trkpt>
      <trkpt lat="47.70552" lon="-2.69709">
        <ele>62</ele>
        <time>2015-12-06T14:30:50.000Z</time>
      </trkpt>
      <trkpt lat="47.70552" lon="-2.69712">
        <ele>62.1</ele>
        <time>2015-12-06T14:30:51.000Z</time>
      </trkpt>
      <trkpt lat="47.70552" lon="-2.69716">
        <ele>62.2</ele>
        <time>2015-12-06T14:30:52.000Z</time>
      </trkpt>
      <trkpt lat="47.70553" lon="-2.69719">
        <ele>62.3</ele>
        <time>2015-12-06T14:30:53.000Z</time>
      </trkpt>
      <trkpt lat="47.70553" lon="-2.69722">
        <ele>62.4</ele>
        <time>2015-12-06T14:30:54.000Z</time>
      </trkpt>
      <trkpt lat="47.70553" lon="-2.69726">
        <ele>62.4</ele>
        <time>2015-12-06T14:30:55.000Z</time>
      </trkpt>
      <trkpt lat="47.70553" lon="-2.69729">
        <ele>62.5</ele>
        <time>2015-12-06T14:30:56.000Z</time>
      </trkpt>
      <trkpt lat="47.70553" lon="-2.69732">
        <ele>62.6</ele>
        <time>2015-12-06T14:30:57.000Z</time>
      </trkpt>
      <trkpt lat="47.70552" lon="-2.69736">
        <ele>62.7</ele>
        <time>2015-12-06T14:30:58.000Z</time>
      </trkpt>
      <trkpt lat="47.70552" lon="-2.6974">
        <ele>62.7</ele>
        <time>2015-12-06T14:30:59.000Z</time>
      </trkpt>
      <trkpt lat="47.70552" lon="-2.69744">
        <ele>62.8</ele>
        <time>2015-12-06T14:31:00.000Z</time>
      </trkpt>
      <trkpt lat="47.70552" lon="-2.69748">
        <ele>62.9</ele>
        <time>2015-12-06T14:31:01.000Z</time>
      </trkpt>
      <trkpt lat="47.70552" lon="-2.69751">
        <ele>63</ele>
        <time>2015-12-06T14:31:02.000Z</time>
      </trkpt>
      <trkpt lat="47.70553" lon="-2.69755">
        <ele>63.1</ele>
        <time>2015-12-06T14:31:03.000Z</time>
      </trkpt>
      <trkpt lat="47.70553" lon="-2.69758">
        <ele>63.2</ele>
        <time>2015-12-06T14:31:04.000Z</time>
      </trkpt>
      <trkpt lat="47.70552" lon="-2.69762">
        <ele>63.2</ele>
        <time>2015-12-06T14:31:05.000Z</time>
      </trkpt>
      <trkpt lat="47.70552" lon="-2.69766">
        <ele>63.3</ele>
        <time>2015-12-06T14:31:06.000Z</time>
      </trkpt>
      <trkpt lat="47.70552" lon="-2.6977">
        <ele>63.4</ele>
        <time>2015-12-06T14:31:07.000Z</time>
      </trkpt>
      <trkpt lat="47.70552" lon="-2.69773">
        <ele>63.4</ele>
        <time>2015-12-06T14:31:08.000Z</time>
      </trkpt>
      <trkpt lat="47.70552" lon="-2.69777">
        <ele>63.6</ele>
        <time>2015-12-06T14:31:09.000Z</time>
      </trkpt>
      <trkpt lat="47.70553" lon="-2.6978">
        <ele>63.7</ele>
        <time>2015-12-06T14:31:10.000Z</time>
      </trkpt>
      <trkpt lat="47.70554" lon="-2.69784">
        <ele>63.8</ele>
        <time>2015-12-06T14:31:11.000Z</time>
      </trkpt>
      <trkpt lat="47.70555" lon="-2.69788">
        <ele>64</ele>
        <time>2015-12-06T14:31:12.000Z</time>
      </trkpt>
      <trkpt lat="47.70557" lon="-2.69792">
        <ele>64.3</ele>
        <time>2015-12-06T14:31:13.000Z</time>
      </trkpt>
      <trkpt lat="47.70559" lon="-2.69795">
        <ele>64.4</ele>
        <time>2015-12-06T14:31:14.000Z</time>
      </trkpt>
      <trkpt lat="47.70561" lon="-2.69797">
        <ele>64.6</ele>
        <time>2015-12-06T14:31:15.000Z</time>
      </trkpt>
      <trkpt lat="47.70564" lon="-2.69799">
        <ele>64.7</ele>
        <time>2015-12-06T14:31:16.000Z</time>
      </trkpt>
      <trkpt lat="47.70566" lon="-2.698">
        <ele>64.9</ele>
        <time>2015-12-06T14:31:17.000Z</time>
      </trkpt>
      <trkpt lat="47.70569" lon="-2.69801">
        <ele>65.1</ele>
        <time>2015-12-06T14:31:18.000Z</time>
      </trkpt>
      <trkpt lat="47.70571" lon="-2.69802">
        <ele>65.3</ele>
        <time>2015-12-06T14:31:19.000Z</time>
      </trkpt>
      <trkpt lat="47.70573" lon="-2.69803">
        <ele>65.5</ele>
        <time>2015-12-06T14:31:20.000Z</time>
      </trkpt>
      <trkpt lat="47.70576" lon="-2.69804">
        <ele>65.6</ele>
        <time>2015-12-06T14:31:21.000Z</time>
      </trkpt>
      <trkpt lat="47.70578" lon="-2.69805">
        <ele>65.8</ele>
        <time>2015-12-06T14:31:22.000Z</time>
      </trkpt>
      <trkpt lat="47.70581" lon="-2.69805">
        <ele>66</ele>
        <time>2015-12-06T14:31:23.000Z</time>
      </trkpt>
      <trkpt lat="47.70583" lon="-2.69806">
        <ele>66.2</ele>
        <time>2015-12-06T14:31:24.000Z</time>
      </trkpt>
      <trkpt lat="47.70585" lon="-2.69806">
        <ele>66.4</ele>
        <time>2015-12-06T14:31:25.000Z</time>
      </trkpt>
      <trkpt lat="47.70587" lon="-2.69807">
        <ele>66.6</ele>
        <time>2015-12-06T14:31:26.000Z</time>
      </trkpt>
      <trkpt lat="47.70589" lon="-2.69807">
        <ele>66.7</ele>
        <time>2015-12-06T14:31:27.000Z</time>
      </trkpt>
      <trkpt lat="47.70592" lon="-2.69808">
        <ele>66.9</ele>
        <time>2015-12-06T14:31:28.000Z</time>
      </trkpt>
      <trkpt lat="47.70594" lon="-2.6981">
        <ele>67</ele>
        <time>2015-12-06T14:31:29.000Z</time>
      </trkpt>
      <trkpt lat="47.70595" lon="-2.69813">
        <ele>67.1</ele>
        <time>2015-12-06T14:31:30.000Z</time>
      </trkpt>
      <trkpt lat="47.70596" lon="-2.69817">
        <ele>67</ele>
        <time>2015-12-06T14:31:31.000Z</time>
      </trkpt>
      <trkpt lat="47.70595" lon="-2.69822">
        <ele>66.9</ele>
        <time>2015-12-06T14:31:32.000Z</time>
      </trkpt>
      <trkpt lat="47.70595" lon="-2.69826">
        <ele>66.8</ele>
        <time>2015-12-06T14:31:33.000Z</time>
      </trkpt>
      <trkpt lat="47.70595" lon="-2.69831">
        <ele>66.7</ele>
        <time>2015-12-06T14:31:34.000Z</time>
      </trkpt>
      <trkpt lat="47.70595" lon="-2.69836">
        <ele>66.6</ele>
        <time>2015-12-06T14:31:35.000Z</time>
      </trkpt>
      <trkpt lat="47.70596" lon="-2.69841">
        <ele>66.6</ele>
        <time>2015-12-06T14:31:36.000Z</time>
      </trkpt>
      <trkpt lat="47.70596" lon="-2.69846">
        <ele>66.5</ele>
        <time>2015-12-06T14:31:37.000Z</time>
      </trkpt>
      <trkpt lat="47.70596" lon="-2.69852">
        <ele>66.3</ele>
        <time>2015-12-06T14:31:38.000Z</time>
      </trkpt>
      <trkpt lat="47.70596" lon="-2.69859">
        <ele>66.2</ele>
        <time>2015-12-06T14:31:39.000Z</time>
      </trkpt>
      <trkpt lat="47.70596" lon="-2.69866">
        <ele>66.1</ele>
        <time>2015-12-06T14:31:40.000Z</time>
      </trkpt>
      <trkpt lat="47.70597" lon="-2.69873">
        <ele>66</ele>
        <time>2015-12-06T14:31:41.000Z</time>
      </trkpt>
      <trkpt lat="47.70598" lon="-2.6988">
        <ele>65.8</ele>
        <time>2015-12-06T14:31:42.000Z</time>
      </trkpt>
      <trkpt lat="47.70599" lon="-2.69888">
        <ele>65.6</ele>
        <time>2015-12-06T14:31:43.000Z</time>
      </trkpt>
      <trkpt lat="47.706" lon="-2.69896">
        <ele>65.3</ele>
        <time>2015-12-06T14:31:44.000Z</time>
      </trkpt>
      <trkpt lat="47.70601" lon="-2.69904">
        <ele>65</ele>
        <time>2015-12-06T14:31:45.000Z</time>
      </trkpt>
      <trkpt lat="47.70602" lon="-2.69913">
        <ele>64.7</ele>
        <time>2015-12-06T14:31:46.000Z</time>
      </trkpt>
      <trkpt lat="47.70603" lon="-2.69921">
        <ele>64.3</ele>
        <time>2015-12-06T14:31:47.000Z</time>
      </trkpt>
      <trkpt lat="47.70604" lon="-2.69927">
        <ele>64.1</ele>
        <time>2015-12-06T14:31:48.000Z</time>
      </trkpt>
      <trkpt lat="47.70606" lon="-2.69931">
        <ele>64.1</ele>
        <time>2015-12-06T14:31:49.000Z</time>
      </trkpt>
      <trkpt lat="47.7061" lon="-2.69933">
        <ele>64.3</ele>
        <time>2015-12-06T14:31:50.000Z</time>
      </trkpt>
      <trkpt lat="47.70614" lon="-2.69933">
        <ele>64.5</ele>
        <time>2015-12-06T14:31:51.000Z</time>
      </trkpt>
      <trkpt lat="47.70618" lon="-2.69933">
        <ele>64.8</ele>
        <time>2015-12-06T14:31:52.000Z</time>
      </trkpt>
      <trkpt lat="47.70622" lon="-2.69932">
        <ele>65.1</ele>
        <time>2015-12-06T14:31:53.000Z</time>
      </trkpt>
      <trkpt lat="47.70626" lon="-2.69931">
        <ele>65.3</ele>
        <time>2015-12-06T14:31:54.000Z</time>
      </trkpt>
      <trkpt lat="47.7063" lon="-2.69932">
        <ele>65.5</ele>
        <time>2015-12-06T14:31:55.000Z</time>
      </trkpt>
      <trkpt lat="47.70633" lon="-2.69933">
        <ele>65.5</ele>
        <time>2015-12-06T14:31:56.000Z</time>
      </trkpt>
      <trkpt lat="47.70636" lon="-2.69936">
        <ele>65.4</ele>
        <time>2015-12-06T14:31:57.000Z</time>
      </trkpt>
      <trkpt lat="47.70637" lon="-2.6994">
        <ele>65.3</ele>
        <time>2015-12-06T14:31:58.000Z</time>
      </trkpt>
      <trkpt lat="47.70637" lon="-2.69945">
        <ele>65</ele>
        <time>2015-12-06T14:31:59.000Z</time>
      </trkpt>
      <trkpt lat="47.70637" lon="-2.6995">
        <ele>64.8</ele>
        <time>2015-12-06T14:32:00.000Z</time>
      </trkpt>
      <trkpt lat="47.70637" lon="-2.69955">
        <ele>64.6</ele>
        <time>2015-12-06T14:32:01.000Z</time>
      </trkpt>
      <trkpt lat="47.70637" lon="-2.6996">
        <ele>64.4</ele>
        <time>2015-12-06T14:32:02.000Z</time>
      </trkpt>
      <trkpt lat="47.70636" lon="-2.69966">
        <ele>64.2</ele>
        <time>2015-12-06T14:32:03.000Z</time>
      </trkpt>
      <trkpt lat="47.70636" lon="-2.69972">
        <ele>64.1</ele>
        <time>2015-12-06T14:32:04.000Z</time>
      </trkpt>
      <trkpt lat="47.70636" lon="-2.69978">
        <ele>63.9</ele>
        <time>2015-12-06T14:32:05.000Z</time>
      </trkpt>
      <trkpt lat="47.70636" lon="-2.69983">
        <ele>63.8</ele>
        <time>2015-12-06T14:32:06.000Z</time>
      </trkpt>
      <trkpt lat="47.70636" lon="-2.69988">
        <ele>63.7</ele>
        <time>2015-12-06T14:32:07.000Z</time>
      </trkpt>
      <trkpt lat="47.70636" lon="-2.69993">
        <ele>63.6</ele>
        <time>2015-12-06T14:32:08.000Z</time>
      </trkpt>
      <trkpt lat="47.70636" lon="-2.69997">
        <ele>63.5</ele>
        <time>2015-12-06T14:32:09.000Z</time>
      </trkpt>
      <trkpt lat="47.70636" lon="-2.70002">
        <ele>63.4</ele>
        <time>2015-12-06T14:32:10.000Z</time>
      </trkpt>
      <trkpt lat="47.70637" lon="-2.70008">
        <ele>63.3</ele>
        <time>2015-12-06T14:32:11.000Z</time>
      </trkpt>
      <trkpt lat="47.70637" lon="-2.70014">
        <ele>63.2</ele>
        <time>2015-12-06T14:32:12.000Z</time>
      </trkpt>
      <trkpt lat="47.70638" lon="-2.70021">
        <ele>63.1</ele>
        <time>2015-12-06T14:32:13.000Z</time>
      </trkpt>
      <trkpt lat="47.70639" lon="-2.70028">
        <ele>63</ele>
        <time>2015-12-06T14:32:14.000Z</time>
      </trkpt>
      <trkpt lat="47.70641" lon="-2.70035">
        <ele>62.9</ele>
        <time>2015-12-06T14:32:15.000Z</time>
      </trkpt>
      <trkpt lat="47.70643" lon="-2.70041">
        <ele>62.9</ele>
        <time>2015-12-06T14:32:16.000Z</time>
      </trkpt>
      <trkpt lat="47.70645" lon="-2.70048">
        <ele>63.4</ele>
        <time>2015-12-06T14:32:17.000Z</time>
      </trkpt>
      <trkpt lat="47.70647" lon="-2.70054">
        <ele>64</ele>
        <time>2015-12-06T14:32:18.000Z</time>
      </trkpt>
      <trkpt lat="47.7065" lon="-2.7006">
        <ele>64.6</ele>
        <time>2015-12-06T14:32:19.000Z</time>
      </trkpt>
      <trkpt lat="47.70653" lon="-2.70066">
        <ele>65.1</ele>
        <time>2015-12-06T14:32:20.000Z</time>
      </trkpt>
      <trkpt lat="47.70657" lon="-2.70072">
        <ele>65.7</ele>
        <time>2015-12-06T14:32:21.000Z</time>
      </trkpt>
      <trkpt lat="47.7066" lon="-2.70078">
        <ele>66.2</ele>
        <time>2015-12-06T14:32:22.000Z</time>
      </trkpt>
      <trkpt lat="47.70662" lon="-2.70085">
        <ele>66.8</ele>
        <time>2015-12-06T14:32:23.000Z</time>
      </trkpt>
      <trkpt lat="47.70663" lon="-2.70092">
        <ele>67.3</ele>
        <time>2015-12-06T14:32:24.000Z</time>
      </trkpt>
      <trkpt lat="47.70664" lon="-2.70099">
        <ele>67.8</ele>
        <time>2015-12-06T14:32:25.000Z</time>
      </trkpt>
      <trkpt lat="47.70664" lon="-2.70105">
        <ele>68.2</ele>
        <time>2015-12-06T14:32:26.000Z</time>
      </trkpt>
      <trkpt lat="47.70665" lon="-2.7011">
        <ele>68.5</ele>
        <time>2015-12-06T14:32:27.000Z</time>
      </trkpt>
      <trkpt lat="47.70666" lon="-2.70115">
        <ele>68.8</ele>
        <time>2015-12-06T14:32:28.000Z</time>
      </trkpt>
      <trkpt lat="47.70666" lon="-2.70119">
        <ele>69.1</ele>
        <time>2015-12-06T14:32:29.000Z</time>
      </trkpt>
      <trkpt lat="47.70666" lon="-2.70123">
        <ele>69.4</ele>
        <time>2015-12-06T14:32:30.000Z</time>
      </trkpt>
      <trkpt lat="47.70666" lon="-2.70127">
        <ele>69.7</ele>
        <time>2015-12-06T14:32:31.000Z</time>
      </trkpt>
      <trkpt lat="47.70665" lon="-2.7013">
        <ele>70</ele>
        <time>2015-12-06T14:32:32.000Z</time>
      </trkpt>
      <trkpt lat="47.70665" lon="-2.70133">
        <ele>70.3</ele>
        <time>2015-12-06T14:32:33.000Z</time>
      </trkpt>
      <trkpt lat="47.70664" lon="-2.70136">
        <ele>70.6</ele>
        <time>2015-12-06T14:32:34.000Z</time>
      </trkpt>
      <trkpt lat="47.70663" lon="-2.70139">
        <ele>71</ele>
        <time>2015-12-06T14:32:35.000Z</time>
      </trkpt>
      <trkpt lat="47.70662" lon="-2.70141">
        <ele>71.2</ele>
        <time>2015-12-06T14:32:36.000Z</time>
      </trkpt>
      <trkpt lat="47.7066" lon="-2.70143">
        <ele>71.5</ele>
        <time>2015-12-06T14:32:37.000Z</time>
      </trkpt>
      <trkpt lat="47.70659" lon="-2.70145">
        <ele>71.7</ele>
        <time>2015-12-06T14:32:38.000Z</time>
      </trkpt>
      <trkpt lat="47.70658" lon="-2.70147">
        <ele>71.9</ele>
        <time>2015-12-06T14:32:39.000Z</time>
      </trkpt>
      <trkpt lat="47.70657" lon="-2.70149">
        <ele>72.1</ele>
        <time>2015-12-06T14:32:40.000Z</time>
      </trkpt>
      <trkpt lat="47.70658" lon="-2.70151">
        <ele>72.3</ele>
        <time>2015-12-06T14:32:41.000Z</time>
      </trkpt>
      <trkpt lat="47.70658" lon="-2.70153">
        <ele>72.6</ele>
        <time>2015-12-06T14:32:42.000Z</time>
      </trkpt>
      <trkpt lat="47.70658" lon="-2.70154">
        <ele>72.7</ele>
        <time>2015-12-06T14:32:43.000Z</time>
      </trkpt>
      <trkpt lat="47.70658" lon="-2.70156">
        <ele>72.9</ele>
        <time>2015-12-06T14:32:44.000Z</time>
      </trkpt>
      <trkpt lat="47.70658" lon="-2.70158">
        <ele>73.1</ele>
        <time>2015-12-06T14:32:45.000Z</time>
      </trkpt>
      <trkpt lat="47.70659" lon="-2.7016">
        <ele>73.2</ele>
        <time>2015-12-06T14:32:46.000Z</time>
      </trkpt>
      <trkpt lat="47.7066" lon="-2.70161">
        <ele>73.3</ele>
        <time>2015-12-06T14:32:47.000Z</time>
      </trkpt>
      <trkpt lat="47.70661" lon="-2.70163">
        <ele>73.5</ele>
        <time>2015-12-06T14:32:48.000Z</time>
      </trkpt>
      <trkpt lat="47.70662" lon="-2.70164">
        <ele>73.6</ele>
        <time>2015-12-06T14:32:49.000Z</time>
      </trkpt>
      <trkpt lat="47.70663" lon="-2.70166">
        <ele>73.8</ele>
        <time>2015-12-06T14:32:50.000Z</time>
      </trkpt>
      <trkpt lat="47.70664" lon="-2.70169">
        <ele>74</ele>
        <time>2015-12-06T14:32:51.000Z</time>
      </trkpt>
      <trkpt lat="47.70665" lon="-2.70171">
        <ele>74.2</ele>
        <time>2015-12-06T14:32:52.000Z</time>
      </trkpt>
      <trkpt lat="47.70667" lon="-2.70173">
        <ele>74.3</ele>
        <time>2015-12-06T14:32:53.000Z</time>
      </trkpt>
      <trkpt lat="47.70669" lon="-2.70175">
        <ele>74.5</ele>
        <time>2015-12-06T14:32:54.000Z</time>
      </trkpt>
      <trkpt lat="47.7067" lon="-2.70177">
        <ele>74.7</ele>
        <time>2015-12-06T14:32:55.000Z</time>
      </trkpt>
      <trkpt lat="47.70671" lon="-2.70179">
        <ele>74.9</ele>
        <time>2015-12-06T14:32:56.000Z</time>
      </trkpt>
      <trkpt lat="47.70671" lon="-2.70181">
        <ele>75</ele>
        <time>2015-12-06T14:32:57.000Z</time>
      </trkpt>
      <trkpt lat="47.70672" lon="-2.70182">
        <ele>75.1</ele>
        <time>2015-12-06T14:32:58.000Z</time>
      </trkpt>
      <trkpt lat="47.70674" lon="-2.70183">
        <ele>75.2</ele>
        <time>2015-12-06T14:32:59.000Z</time>
      </trkpt>
      <trkpt lat="47.70675" lon="-2.70184">
        <ele>75.2</ele>
        <time>2015-12-06T14:33:00.000Z</time>
      </trkpt>
      <trkpt lat="47.70677" lon="-2.70186">
        <ele>75.3</ele>
        <time>2015-12-06T14:33:01.000Z</time>
      </trkpt>
      <trkpt lat="47.70679" lon="-2.70187">
        <ele>75.3</ele>
        <time>2015-12-06T14:33:02.000Z</time>
      </trkpt>
      <trkpt lat="47.70681" lon="-2.70187">
        <ele>75.3</ele>
        <time>2015-12-06T14:33:03.000Z</time>
      </trkpt>
      <trkpt lat="47.70684" lon="-2.70188">
        <ele>75.3</ele>
        <time>2015-12-06T14:33:04.000Z</time>
      </trkpt>
      <trkpt lat="47.70686" lon="-2.70188">
        <ele>75.2</ele>
        <time>2015-12-06T14:33:05.000Z</time>
      </trkpt>
      <trkpt lat="47.70689" lon="-2.70189">
        <ele>75.1</ele>
        <time>2015-12-06T14:33:06.000Z</time>
      </trkpt>
      <trkpt lat="47.70691" lon="-2.7019">
        <ele>75.1</ele>
        <time>2015-12-06T14:33:07.000Z</time>
      </trkpt>
      <trkpt lat="47.70693" lon="-2.70191">
        <ele>75.2</ele>
        <time>2015-12-06T14:33:08.000Z</time>
      </trkpt>
      <trkpt lat="47.70695" lon="-2.70193">
        <ele>75.2</ele>
        <time>2015-12-06T14:33:09.000Z</time>
      </trkpt>
      <trkpt lat="47.70697" lon="-2.70194">
        <ele>75.3</ele>
        <time>2015-12-06T14:33:10.000Z</time>
      </trkpt>
      <trkpt lat="47.707" lon="-2.70196">
        <ele>75.3</ele>
        <time>2015-12-06T14:33:11.000Z</time>
      </trkpt>
      <trkpt lat="47.70703" lon="-2.70198">
        <ele>75.3</ele>
        <time>2015-12-06T14:33:12.000Z</time>
      </trkpt>
      <trkpt lat="47.70705" lon="-2.702">
        <ele>75.4</ele>
        <time>2015-12-06T14:33:13.000Z</time>
      </trkpt>
      <trkpt lat="47.70707" lon="-2.70203">
        <ele>75.6</ele>
        <time>2015-12-06T14:33:14.000Z</time>
      </trkpt>
      <trkpt lat="47.70709" lon="-2.70206">
        <ele>75.8</ele>
        <time>2015-12-06T14:33:15.000Z</time>
      </trkpt>
      <trkpt lat="47.7071" lon="-2.70209">
        <ele>76</ele>
        <time>2015-12-06T14:33:16.000Z</time>
      </trkpt>
      <trkpt lat="47.70711" lon="-2.70212">
        <ele>76.3</ele>
        <time>2015-12-06T14:33:17.000Z</time>
      </trkpt>
      <trkpt lat="47.70712" lon="-2.70214">
        <ele>76.7</ele>
        <time>2015-12-06T14:33:18.000Z</time>
      </trkpt>
      <trkpt lat="47.70713" lon="-2.70217">
        <ele>77</ele>
        <time>2015-12-06T14:33:19.000Z</time>
      </trkpt>
      <trkpt lat="47.70713" lon="-2.70219">
        <ele>77.3</ele>
        <time>2015-12-06T14:33:20.000Z</time>
      </trkpt>
      <trkpt lat="47.70715" lon="-2.70222">
        <ele>77.6</ele>
        <time>2015-12-06T14:33:21.000Z</time>
      </trkpt>
      <trkpt lat="47.70716" lon="-2.70225">
        <ele>77.9</ele>
        <time>2015-12-06T14:33:22.000Z</time>
      </trkpt>
      <trkpt lat="47.70718" lon="-2.70228">
        <ele>78.3</ele>
        <time>2015-12-06T14:33:23.000Z</time>
      </trkpt>
      <trkpt lat="47.70719" lon="-2.70232">
        <ele>78.7</ele>
        <time>2015-12-06T14:33:24.000Z</time>
      </trkpt>
      <trkpt lat="47.70721" lon="-2.70237">
        <ele>79.2</ele>
        <time>2015-12-06T14:33:25.000Z</time>
      </trkpt>
      <trkpt lat="47.70722" lon="-2.70242">
        <ele>79.7</ele>
        <time>2015-12-06T14:33:26.000Z</time>
      </trkpt>
      <trkpt lat="47.70724" lon="-2.70246">
        <ele>80.2</ele>
        <time>2015-12-06T14:33:27.000Z</time>
      </trkpt>
      <trkpt lat="47.70725" lon="-2.7025">
        <ele>80.6</ele>
        <time>2015-12-06T14:33:28.000Z</time>
      </trkpt>
      <trkpt lat="47.70726" lon="-2.70254">
        <ele>81</ele>
        <time>2015-12-06T14:33:29.000Z</time>
      </trkpt>
      <trkpt lat="47.70727" lon="-2.70257">
        <ele>81.3</ele>
        <time>2015-12-06T14:33:30.000Z</time>
      </trkpt>
      <trkpt lat="47.70729" lon="-2.70261">
        <ele>81.7</ele>
        <time>2015-12-06T14:33:31.000Z</time>
      </trkpt>
      <trkpt lat="47.7073" lon="-2.70265">
        <ele>82</ele>
        <time>2015-12-06T14:33:32.000Z</time>
      </trkpt>
      <trkpt lat="47.70731" lon="-2.70268">
        <ele>82.3</ele>
        <time>2015-12-06T14:33:33.000Z</time>
      </trkpt>
      <trkpt lat="47.70732" lon="-2.70271">
        <ele>82.6</ele>
        <time>2015-12-06T14:33:34.000Z</time>
      </trkpt>
      <trkpt lat="47.70733" lon="-2.70274">
        <ele>82.9</ele>
        <time>2015-12-06T14:33:35.000Z</time>
      </trkpt>
      <trkpt lat="47.70734" lon="-2.70278">
        <ele>83.2</ele>
        <time>2015-12-06T14:33:36.000Z</time>
      </trkpt>
      <trkpt lat="47.70735" lon="-2.70281">
        <ele>83.5</ele>
        <time>2015-12-06T14:33:37.000Z</time>
      </trkpt>
      <trkpt lat="47.70736" lon="-2.70285">
        <ele>83.9</ele>
        <time>2015-12-06T14:33:38.000Z</time>
      </trkpt>
      <trkpt lat="47.70735" lon="-2.70288">
        <ele>84.3</ele>
        <time>2015-12-06T14:33:39.000Z</time>
      </trkpt>
      <trkpt lat="47.70735" lon="-2.70292">
        <ele>84.8</ele>
        <time>2015-12-06T14:33:40.000Z</time>
      </trkpt>
      <trkpt lat="47.70736" lon="-2.70295">
        <ele>84.9</ele>
        <time>2015-12-06T14:33:41.000Z</time>
      </trkpt>
      <trkpt lat="47.70736" lon="-2.70298">
        <ele>85</ele>
        <time>2015-12-06T14:33:42.000Z</time>
      </trkpt>
      <trkpt lat="47.70737" lon="-2.70301">
        <ele>85.2</ele>
        <time>2015-12-06T14:33:43.000Z</time>
      </trkpt>
      <trkpt lat="47.70738" lon="-2.70304">
        <ele>85.3</ele>
        <time>2015-12-06T14:33:44.000Z</time>
      </trkpt>
      <trkpt lat="47.70739" lon="-2.70308">
        <ele>85.4</ele>
        <time>2015-12-06T14:33:45.000Z</time>
      </trkpt>
      <trkpt lat="47.7074" lon="-2.70311">
        <ele>85.6</ele>
        <time>2015-12-06T14:33:46.000Z</time>
      </trkpt>
      <trkpt lat="47.70741" lon="-2.70315">
        <ele>85.7</ele>
        <time>2015-12-06T14:33:47.000Z</time>
      </trkpt>
      <trkpt lat="47.70742" lon="-2.7032">
        <ele>85.9</ele>
        <time>2015-12-06T14:33:48.000Z</time>
      </trkpt>
      <trkpt lat="47.70743" lon="-2.70323">
        <ele>86</ele>
        <time>2015-12-06T14:33:49.000Z</time>
      </trkpt>
      <trkpt lat="47.70743" lon="-2.70327">
        <ele>86.2</ele>
        <time>2015-12-06T14:33:50.000Z</time>
      </trkpt>
      <trkpt lat="47.70744" lon="-2.70331">
        <ele>86.4</ele>
        <time>2015-12-06T14:33:51.000Z</time>
      </trkpt>
      <trkpt lat="47.70744" lon="-2.70335">
        <ele>86.5</ele>
        <time>2015-12-06T14:33:52.000Z</time>
      </trkpt>
      <trkpt lat="47.70745" lon="-2.70339">
        <ele>86.8</ele>
        <time>2015-12-06T14:33:53.000Z</time>
      </trkpt>
      <trkpt lat="47.70744" lon="-2.70344">
        <ele>87.2</ele>
        <time>2015-12-06T14:33:54.000Z</time>
      </trkpt>
      <trkpt lat="47.70744" lon="-2.70349">
        <ele>87.6</ele>
        <time>2015-12-06T14:33:55.000Z</time>
      </trkpt>
      <trkpt lat="47.70744" lon="-2.70354">
        <ele>87.9</ele>
        <time>2015-12-06T14:33:56.000Z</time>
      </trkpt>
      <trkpt lat="47.70743" lon="-2.70358">
        <ele>88.3</ele>
        <time>2015-12-06T14:33:57.000Z</time>
      </trkpt>
      <trkpt lat="47.70743" lon="-2.70362">
        <ele>88.6</ele>
        <time>2015-12-06T14:33:58.000Z</time>
      </trkpt>
      <trkpt lat="47.70743" lon="-2.70366">
        <ele>88.9</ele>
        <time>2015-12-06T14:33:59.000Z</time>
      </trkpt>
      <trkpt lat="47.70742" lon="-2.7037">
        <ele>89.2</ele>
        <time>2015-12-06T14:34:00.000Z</time>
      </trkpt>
      <trkpt lat="47.70742" lon="-2.70374">
        <ele>89.5</ele>
        <time>2015-12-06T14:34:01.000Z</time>
      </trkpt>
      <trkpt lat="47.70742" lon="-2.70378">
        <ele>89.8</ele>
        <time>2015-12-06T14:34:02.000Z</time>
      </trkpt>
      <trkpt lat="47.70742" lon="-2.70383">
        <ele>90.1</ele>
        <time>2015-12-06T14:34:03.000Z</time>
      </trkpt>
      <trkpt lat="47.70742" lon="-2.70387">
        <ele>90.4</ele>
        <time>2015-12-06T14:34:04.000Z</time>
      </trkpt>
      <trkpt lat="47.70741" lon="-2.70391">
        <ele>90.7</ele>
        <time>2015-12-06T14:34:05.000Z</time>
      </trkpt>
      <trkpt lat="47.7074" lon="-2.70395">
        <ele>91.1</ele>
        <time>2015-12-06T14:34:06.000Z</time>
      </trkpt>
      <trkpt lat="47.7074" lon="-2.704">
        <ele>91.4</ele>
        <time>2015-12-06T14:34:07.000Z</time>
      </trkpt>
      <trkpt lat="47.7074" lon="-2.70405">
        <ele>91.8</ele>
        <time>2015-12-06T14:34:08.000Z</time>
      </trkpt>
      <trkpt lat="47.70739" lon="-2.7041">
        <ele>92.1</ele>
        <time>2015-12-06T14:34:09.000Z</time>
      </trkpt>
      <trkpt lat="47.70739" lon="-2.70414">
        <ele>92.5</ele>
        <time>2015-12-06T14:34:10.000Z</time>
      </trkpt>
      <trkpt lat="47.70739" lon="-2.70418">
        <ele>92.8</ele>
        <time>2015-12-06T14:34:11.000Z</time>
      </trkpt>
      <trkpt lat="47.70739" lon="-2.70422">
        <ele>93</ele>
        <time>2015-12-06T14:34:12.000Z</time>
      </trkpt>
      <trkpt lat="47.70739" lon="-2.70426">
        <ele>93.2</ele>
        <time>2015-12-06T14:34:13.000Z</time>
      </trkpt>
      <trkpt lat="47.70739" lon="-2.70429">
        <ele>93.5</ele>
        <time>2015-12-06T14:34:14.000Z</time>
      </trkpt>
      <trkpt lat="47.70738" lon="-2.70432">
        <ele>93.8</ele>
        <time>2015-12-06T14:34:15.000Z</time>
      </trkpt>
      <trkpt lat="47.70738" lon="-2.70436">
        <ele>94</ele>
        <time>2015-12-06T14:34:16.000Z</time>
      </trkpt>
      <trkpt lat="47.70737" lon="-2.70439">
        <ele>94.3</ele>
        <time>2015-12-06T14:34:17.000Z</time>
      </trkpt>
      <trkpt lat="47.70737" lon="-2.70442">
        <ele>94.6</ele>
        <time>2015-12-06T14:34:18.000Z</time>
      </trkpt>
      <trkpt lat="47.70736" lon="-2.70445">
        <ele>94.8</ele>
        <time>2015-12-06T14:34:19.000Z</time>
      </trkpt>
      <trkpt lat="47.70736" lon="-2.70448">
        <ele>95</ele>
        <time>2015-12-06T14:34:20.000Z</time>
      </trkpt>
      <trkpt lat="47.70736" lon="-2.70451">
        <ele>95.2</ele>
        <time>2015-12-06T14:34:21.000Z</time>
      </trkpt>
      <trkpt lat="47.70736" lon="-2.70454">
        <ele>95.5</ele>
        <time>2015-12-06T14:34:22.000Z</time>
      </trkpt>
      <trkpt lat="47.70735" lon="-2.70457">
        <ele>95.7</ele>
        <time>2015-12-06T14:34:23.000Z</time>
      </trkpt>
      <trkpt lat="47.70734" lon="-2.7046">
        <ele>96</ele>
        <time>2015-12-06T14:34:24.000Z</time>
      </trkpt>
      <trkpt lat="47.70733" lon="-2.70463">
        <ele>96.2</ele>
        <time>2015-12-06T14:34:25.000Z</time>
      </trkpt>
      <trkpt lat="47.70732" lon="-2.70466">
        <ele>96.5</ele>
        <time>2015-12-06T14:34:26.000Z</time>
      </trkpt>
      <trkpt lat="47.70732" lon="-2.7047">
        <ele>96.7</ele>
        <time>2015-12-06T14:34:27.000Z</time>
      </trkpt>
      <trkpt lat="47.70731" lon="-2.70473">
        <ele>96.9</ele>
        <time>2015-12-06T14:34:28.000Z</time>
      </trkpt>
      <trkpt lat="47.70731" lon="-2.70477">
        <ele>97.1</ele>
        <time>2015-12-06T14:34:29.000Z</time>
      </trkpt>
      <trkpt lat="47.7073" lon="-2.70481">
        <ele>97.3</ele>
        <time>2015-12-06T14:34:30.000Z</time>
      </trkpt>
      <trkpt lat="47.70731" lon="-2.70485">
        <ele>97.4</ele>
        <time>2015-12-06T14:34:31.000Z</time>
      </trkpt>
      <trkpt lat="47.70731" lon="-2.70488">
        <ele>97.5</ele>
        <time>2015-12-06T14:34:32.000Z</time>
      </trkpt>
      <trkpt lat="47.70731" lon="-2.70491">
        <ele>97.7</ele>
        <time>2015-12-06T14:34:33.000Z</time>
      </trkpt>
      <trkpt lat="47.7073" lon="-2.70494">
        <ele>97.8</ele>
        <time>2015-12-06T14:34:34.000Z</time>
      </trkpt>
      <trkpt lat="47.7073" lon="-2.70497">
        <ele>98</ele>
        <time>2015-12-06T14:34:35.000Z</time>
      </trkpt>
      <trkpt lat="47.7073" lon="-2.705">
        <ele>98.2</ele>
        <time>2015-12-06T14:34:36.000Z</time>
      </trkpt>
      <trkpt lat="47.70729" lon="-2.70503">
        <ele>98.4</ele>
        <time>2015-12-06T14:34:37.000Z</time>
      </trkpt>
      <trkpt lat="47.70729" lon="-2.70506">
        <ele>98.5</ele>
        <time>2015-12-06T14:34:38.000Z</time>
      </trkpt>
      <trkpt lat="47.70729" lon="-2.70508">
        <ele>98.6</ele>
        <time>2015-12-06T14:34:39.000Z</time>
      </trkpt>
      <trkpt lat="47.70729" lon="-2.70511">
        <ele>98.7</ele>
        <time>2015-12-06T14:34:40.000Z</time>
      </trkpt>
      <trkpt lat="47.7073" lon="-2.70513">
        <ele>98.7</ele>
        <time>2015-12-06T14:34:41.000Z</time>
      </trkpt>
      <trkpt lat="47.7073" lon="-2.70516">
        <ele>98.7</ele>
        <time>2015-12-06T14:34:42.000Z</time>
      </trkpt>
      <trkpt lat="47.70731" lon="-2.70519">
        <ele>98.8</ele>
        <time>2015-12-06T14:34:43.000Z</time>
      </trkpt>
      <trkpt lat="47.70732" lon="-2.70522">
        <ele>98.8</ele>
        <time>2015-12-06T14:34:44.000Z</time>
      </trkpt>
      <trkpt lat="47.70732" lon="-2.70525">
        <ele>98.9</ele>
        <time>2015-12-06T14:34:45.000Z</time>
      </trkpt>
      <trkpt lat="47.70732" lon="-2.70528">
        <ele>99</ele>
        <time>2015-12-06T14:34:46.000Z</time>
      </trkpt>
      <trkpt lat="47.70732" lon="-2.70532">
        <ele>99.2</ele>
        <time>2015-12-06T14:34:47.000Z</time>
      </trkpt>
      <trkpt lat="47.70732" lon="-2.70535">
        <ele>99.4</ele>
        <time>2015-12-06T14:34:48.000Z</time>
      </trkpt>
      <trkpt lat="47.70732" lon="-2.70538">
        <ele>99.4</ele>
        <time>2015-12-06T14:34:49.000Z</time>
      </trkpt>
      <trkpt lat="47.70732" lon="-2.70541">
        <ele>99.5</ele>
        <time>2015-12-06T14:34:50.000Z</time>
      </trkpt>
      <trkpt lat="47.70733" lon="-2.70544">
        <ele>99.6</ele>
        <time>2015-12-06T14:34:51.000Z</time>
      </trkpt>
      <trkpt lat="47.70733" lon="-2.70547">
        <ele>99.6</ele>
        <time>2015-12-06T14:34:52.000Z</time>
      </trkpt>
      <trkpt lat="47.70733" lon="-2.7055">
        <ele>99.7</ele>
        <time>2015-12-06T14:34:53.000Z</time>
      </trkpt>
      <trkpt lat="47.70732" lon="-2.70553">
        <ele>99.8</ele>
        <time>2015-12-06T14:34:54.000Z</time>
      </trkpt>
      <trkpt lat="47.70732" lon="-2.70556">
        <ele>100</ele>
        <time>2015-12-06T14:34:55.000Z</time>
      </trkpt>
      <trkpt lat="47.70731" lon="-2.70559">
        <ele>100.1</ele>
        <time>2015-12-06T14:34:56.000Z</time>
      </trkpt>
      <trkpt lat="47.7073" lon="-2.70561">
        <ele>100.4</ele>
        <time>2015-12-06T14:34:57.000Z</time>
      </trkpt>
      <trkpt lat="47.70729" lon="-2.70563">
        <ele>100.6</ele>
        <time>2015-12-06T14:34:58.000Z</time>
      </trkpt>
      <trkpt lat="47.70728" lon="-2.70565">
        <ele>100.8</ele>
        <time>2015-12-06T14:34:59.000Z</time>
      </trkpt>
      <trkpt lat="47.70726" lon="-2.70568">
        <ele>101</ele>
        <time>2015-12-06T14:35:00.000Z</time>
      </trkpt>
      <trkpt lat="47.70725" lon="-2.7057">
        <ele>101.3</ele>
        <time>2015-12-06T14:35:01.000Z</time>
      </trkpt>
      <trkpt lat="47.70724" lon="-2.70573">
        <ele>101.5</ele>
        <time>2015-12-06T14:35:02.000Z</time>
      </trkpt>
      <trkpt lat="47.70722" lon="-2.70576">
        <ele>101.8</ele>
        <time>2015-12-06T14:35:03.000Z</time>
      </trkpt>
      <trkpt lat="47.70721" lon="-2.7058">
        <ele>102</ele>
        <time>2015-12-06T14:35:04.000Z</time>
      </trkpt>
      <trkpt lat="47.7072" lon="-2.70583">
        <ele>102.3</ele>
        <time>2015-12-06T14:35:05.000Z</time>
      </trkpt>
      <trkpt lat="47.7072" lon="-2.70586">
        <ele>102.4</ele>
        <time>2015-12-06T14:35:06.000Z</time>
      </trkpt>
      <trkpt lat="47.70719" lon="-2.70588">
        <ele>102.6</ele>
        <time>2015-12-06T14:35:07.000Z</time>
      </trkpt>
      <trkpt lat="47.70718" lon="-2.70591">
        <ele>102.8</ele>
        <time>2015-12-06T14:35:08.000Z</time>
      </trkpt>
      <trkpt lat="47.70717" lon="-2.70594">
        <ele>103</ele>
        <time>2015-12-06T14:35:09.000Z</time>
      </trkpt>
      <trkpt lat="47.70716" lon="-2.70596">
        <ele>103.2</ele>
        <time>2015-12-06T14:35:10.000Z</time>
      </trkpt>
      <trkpt lat="47.70715" lon="-2.70598">
        <ele>103.3</ele>
        <time>2015-12-06T14:35:11.000Z</time>
      </trkpt>
      <trkpt lat="47.70714" lon="-2.706">
        <ele>103.6</ele>
        <time>2015-12-06T14:35:12.000Z</time>
      </trkpt>
      <trkpt lat="47.70713" lon="-2.70603">
        <ele>103.8</ele>
        <time>2015-12-06T14:35:13.000Z</time>
      </trkpt>
      <trkpt lat="47.70711" lon="-2.70604">
        <ele>104.1</ele>
        <time>2015-12-06T14:35:14.000Z</time>
      </trkpt>
      <trkpt lat="47.7071" lon="-2.70606">
        <ele>104.3</ele>
        <time>2015-12-06T14:35:15.000Z</time>
      </trkpt>
      <trkpt lat="47.70709" lon="-2.70607">
        <ele>104.5</ele>
        <time>2015-12-06T14:35:16.000Z</time>
      </trkpt>
      <trkpt lat="47.70707" lon="-2.70608">
        <ele>104.7</ele>
        <time>2015-12-06T14:35:17.000Z</time>
      </trkpt>
      <trkpt lat="47.70706" lon="-2.70608">
        <ele>104.8</ele>
        <time>2015-12-06T14:35:18.000Z</time>
      </trkpt>
      <trkpt lat="47.70705" lon="-2.70608">
        <ele>104.9</ele>
        <time>2015-12-06T14:35:19.000Z</time>
      </trkpt>
      <trkpt lat="47.70705" lon="-2.70608">
        <ele>104.9</ele>
        <time>2015-12-06T14:35:20.000Z</time>
      </trkpt>
      <trkpt lat="47.70705" lon="-2.70607">
        <ele>104.9</ele>
        <time>2015-12-06T14:35:21.000Z</time>
      </trkpt>
      <trkpt lat="47.70705" lon="-2.70605">
        <ele>104.9</ele>
        <time>2015-12-06T14:35:22.000Z</time>
      </trkpt>
      <trkpt lat="47.70704" lon="-2.70603">
        <ele>104.9</ele>
        <time>2015-12-06T14:35:23.000Z</time>
      </trkpt>
      <trkpt lat="47.70704" lon="-2.70602">
        <ele>104.9</ele>
        <time>2015-12-06T14:35:24.000Z</time>
      </trkpt>
      <trkpt lat="47.70703" lon="-2.706">
        <ele>105</ele>
        <time>2015-12-06T14:35:25.000Z</time>
      </trkpt>
      <trkpt lat="47.70702" lon="-2.70597">
        <ele>105</ele>
        <time>2015-12-06T14:35:26.000Z</time>
      </trkpt>
      <trkpt lat="47.70701" lon="-2.70594">
        <ele>105</ele>
        <time>2015-12-06T14:35:27.000Z</time>
      </trkpt>
      <trkpt lat="47.70701" lon="-2.70591">
        <ele>104.9</ele>
        <time>2015-12-06T14:35:28.000Z</time>
      </trkpt>
      <trkpt lat="47.70701" lon="-2.70589">
        <ele>104.9</ele>
        <time>2015-12-06T14:35:29.000Z</time>
      </trkpt>
      <trkpt lat="47.707" lon="-2.70587">
        <ele>105</ele>
        <time>2015-12-06T14:35:30.000Z</time>
      </trkpt>
      <trkpt lat="47.70699" lon="-2.70585">
        <ele>105</ele>
        <time>2015-12-06T14:35:31.000Z</time>
      </trkpt>
      <trkpt lat="47.70698" lon="-2.70582">
        <ele>105.1</ele>
        <time>2015-12-06T14:35:32.000Z</time>
      </trkpt>
      <trkpt lat="47.70697" lon="-2.7058">
        <ele>105.1</ele>
        <time>2015-12-06T14:35:33.000Z</time>
      </trkpt>
      <trkpt lat="47.70696" lon="-2.70577">
        <ele>105.2</ele>
        <time>2015-12-06T14:35:34.000Z</time>
      </trkpt>
      <trkpt lat="47.70695" lon="-2.70574">
        <ele>105.3</ele>
        <time>2015-12-06T14:35:35.000Z</time>
      </trkpt>
      <trkpt lat="47.70693" lon="-2.7057">
        <ele>105.4</ele>
        <time>2015-12-06T14:35:36.000Z</time>
      </trkpt>
      <trkpt lat="47.70692" lon="-2.70567">
        <ele>105.5</ele>
        <time>2015-12-06T14:35:37.000Z</time>
      </trkpt>
      <trkpt lat="47.70691" lon="-2.70564">
        <ele>105.5</ele>
        <time>2015-12-06T14:35:38.000Z</time>
      </trkpt>
      <trkpt lat="47.7069" lon="-2.70561">
        <ele>105.6</ele>
        <time>2015-12-06T14:35:39.000Z</time>
      </trkpt>
      <trkpt lat="47.70689" lon="-2.70557">
        <ele>105.6</ele>
        <time>2015-12-06T14:35:40.000Z</time>
      </trkpt>
      <trkpt lat="47.70689" lon="-2.70553">
        <ele>105.5</ele>
        <time>2015-12-06T14:35:41.000Z</time>
      </trkpt>
      <trkpt lat="47.70689" lon="-2.7055">
        <ele>105.5</ele>
        <time>2015-12-06T14:35:42.000Z</time>
      </trkpt>
      <trkpt lat="47.70688" lon="-2.70547">
        <ele>105.5</ele>
        <time>2015-12-06T14:35:43.000Z</time>
      </trkpt>
      <trkpt lat="47.70687" lon="-2.70544">
        <ele>105.6</ele>
        <time>2015-12-06T14:35:44.000Z</time>
      </trkpt>
      <trkpt lat="47.70686" lon="-2.70541">
        <ele>105.7</ele>
        <time>2015-12-06T14:35:45.000Z</time>
      </trkpt>
      <trkpt lat="47.70684" lon="-2.70538">
        <ele>105.7</ele>
        <time>2015-12-06T14:35:46.000Z</time>
      </trkpt>
      <trkpt lat="47.70683" lon="-2.70534">
        <ele>105.8</ele>
        <time>2015-12-06T14:35:47.000Z</time>
      </trkpt>
      <trkpt lat="47.70682" lon="-2.7053">
        <ele>105.7</ele>
        <time>2015-12-06T14:35:48.000Z</time>
      </trkpt>
      <trkpt lat="47.70681" lon="-2.70526">
        <ele>105.6</ele>
        <time>2015-12-06T14:35:49.000Z</time>
      </trkpt>
      <trkpt lat="47.7068" lon="-2.70522">
        <ele>105.6</ele>
        <time>2015-12-06T14:35:50.000Z</time>
      </trkpt>
      <trkpt lat="47.70679" lon="-2.70518">
        <ele>105.6</ele>
        <time>2015-12-06T14:35:51.000Z</time>
      </trkpt>
      <trkpt lat="47.70678" lon="-2.70515">
        <ele>105.6</ele>
        <time>2015-12-06T14:35:52.000Z</time>
      </trkpt>
      <trkpt lat="47.70676" lon="-2.70511">
        <ele>105.6</ele>
        <time>2015-12-06T14:35:53.000Z</time>
      </trkpt>
      <trkpt lat="47.70675" lon="-2.70507">
        <ele>105.7</ele>
        <time>2015-12-06T14:35:54.000Z</time>
      </trkpt>
      <trkpt lat="47.70673" lon="-2.70502">
        <ele>105.8</ele>
        <time>2015-12-06T14:35:55.000Z</time>
      </trkpt>
      <trkpt lat="47.70671" lon="-2.70498">
        <ele>105.9</ele>
        <time>2015-12-06T14:35:56.000Z</time>
      </trkpt>
      <trkpt lat="47.70669" lon="-2.70494">
        <ele>106</ele>
        <time>2015-12-06T14:35:57.000Z</time>
      </trkpt>
      <trkpt lat="47.70667" lon="-2.7049">
        <ele>106.1</ele>
        <time>2015-12-06T14:35:58.000Z</time>
      </trkpt>
      <trkpt lat="47.70666" lon="-2.70486">
        <ele>106</ele>
        <time>2015-12-06T14:35:59.000Z</time>
      </trkpt>
      <trkpt lat="47.70666" lon="-2.70481">
        <ele>105.9</ele>
        <time>2015-12-06T14:36:00.000Z</time>
      </trkpt>
      <trkpt lat="47.70665" lon="-2.70476">
        <ele>105.8</ele>
        <time>2015-12-06T14:36:01.000Z</time>
      </trkpt>
      <trkpt lat="47.70665" lon="-2.70471">
        <ele>105.7</ele>
        <time>2015-12-06T14:36:02.000Z</time>
      </trkpt>
      <trkpt lat="47.70663" lon="-2.70466">
        <ele>105.8</ele>
        <time>2015-12-06T14:36:03.000Z</time>
      </trkpt>
      <trkpt lat="47.70661" lon="-2.70462">
        <ele>105.9</ele>
        <time>2015-12-06T14:36:04.000Z</time>
      </trkpt>
      <trkpt lat="47.70659" lon="-2.70458">
        <ele>106</ele>
        <time>2015-12-06T14:36:05.000Z</time>
      </trkpt>
      <trkpt lat="47.70657" lon="-2.70453">
        <ele>106</ele>
        <time>2015-12-06T14:36:06.000Z</time>
      </trkpt>
      <trkpt lat="47.70655" lon="-2.70449">
        <ele>106.1</ele>
        <time>2015-12-06T14:36:07.000Z</time>
      </trkpt>
      <trkpt lat="47.70652" lon="-2.70444">
        <ele>106.2</ele>
        <time>2015-12-06T14:36:08.000Z</time>
      </trkpt>
      <trkpt lat="47.70649" lon="-2.70439">
        <ele>106.3</ele>
        <time>2015-12-06T14:36:09.000Z</time>
      </trkpt>
      <trkpt lat="47.70646" lon="-2.70435">
        <ele>106.4</ele>
        <time>2015-12-06T14:36:10.000Z</time>
      </trkpt>
      <trkpt lat="47.70643" lon="-2.70431">
        <ele>106.5</ele>
        <time>2015-12-06T14:36:11.000Z</time>
      </trkpt>
      <trkpt lat="47.7064" lon="-2.70427">
        <ele>106.6</ele>
        <time>2015-12-06T14:36:12.000Z</time>
      </trkpt>
      <trkpt lat="47.70637" lon="-2.70423">
        <ele>106.7</ele>
        <time>2015-12-06T14:36:13.000Z</time>
      </trkpt>
      <trkpt lat="47.70633" lon="-2.70417">
        <ele>106.9</ele>
        <time>2015-12-06T14:36:14.000Z</time>
      </trkpt>
      <trkpt lat="47.70629" lon="-2.70412">
        <ele>107.1</ele>
        <time>2015-12-06T14:36:15.000Z</time>
      </trkpt>
      <trkpt lat="47.70625" lon="-2.70406">
        <ele>107.2</ele>
        <time>2015-12-06T14:36:16.000Z</time>
      </trkpt>
      <trkpt lat="47.70621" lon="-2.70402">
        <ele>107.1</ele>
        <time>2015-12-06T14:36:17.000Z</time>
      </trkpt>
      <trkpt lat="47.70618" lon="-2.70398">
        <ele>106.9</ele>
        <time>2015-12-06T14:36:18.000Z</time>
      </trkpt>
      <trkpt lat="47.70615" lon="-2.70394">
        <ele>106.8</ele>
        <time>2015-12-06T14:36:19.000Z</time>
      </trkpt>
      <trkpt lat="47.7061" lon="-2.7039">
        <ele>106.6</ele>
        <time>2015-12-06T14:36:20.000Z</time>
      </trkpt>
      <trkpt lat="47.70606" lon="-2.70385">
        <ele>106.5</ele>
        <time>2015-12-06T14:36:21.000Z</time>
      </trkpt>
      <trkpt lat="47.70602" lon="-2.70381">
        <ele>106.5</ele>
        <time>2015-12-06T14:36:22.000Z</time>
      </trkpt>
      <trkpt lat="47.70598" lon="-2.70378">
        <ele>106.4</ele>
        <time>2015-12-06T14:36:23.000Z</time>
      </trkpt>
      <trkpt lat="47.70594" lon="-2.70374">
        <ele>106.4</ele>
        <time>2015-12-06T14:36:24.000Z</time>
      </trkpt>
      <trkpt lat="47.70589" lon="-2.70371">
        <ele>106.4</ele>
        <time>2015-12-06T14:36:25.000Z</time>
      </trkpt>
      <trkpt lat="47.70584" lon="-2.70368">
        <ele>106.4</ele>
        <time>2015-12-06T14:36:26.000Z</time>
      </trkpt>
      <trkpt lat="47.70578" lon="-2.70363">
        <ele>106.3</ele>
        <time>2015-12-06T14:36:27.000Z</time>
      </trkpt>
      <trkpt lat="47.7057" lon="-2.70357">
        <ele>106.4</ele>
        <time>2015-12-06T14:36:28.000Z</time>
      </trkpt>
      <trkpt lat="47.70562" lon="-2.70351">
        <ele>106.5</ele>
        <time>2015-12-06T14:36:29.000Z</time>
      </trkpt>
      <trkpt lat="47.70555" lon="-2.70345">
        <ele>106.5</ele>
        <time>2015-12-06T14:36:30.000Z</time>
      </trkpt>
      <trkpt lat="47.70551" lon="-2.70338">
        <ele>106.5</ele>
        <time>2015-12-06T14:36:31.000Z</time>
      </trkpt>
      <trkpt lat="47.70546" lon="-2.7033">
        <ele>106.4</ele>
        <time>2015-12-06T14:36:32.000Z</time>
      </trkpt>
      <trkpt lat="47.70542" lon="-2.70321">
        <ele>106.4</ele>
        <time>2015-12-06T14:36:33.000Z</time>
      </trkpt>
      <trkpt lat="47.70538" lon="-2.70314">
        <ele>106.1</ele>
        <time>2015-12-06T14:36:34.000Z</time>
      </trkpt>
      <trkpt lat="47.70534" lon="-2.70306">
        <ele>105.8</ele>
        <time>2015-12-06T14:36:35.000Z</time>
      </trkpt>
      <trkpt lat="47.7053" lon="-2.70298">
        <ele>105.5</ele>
        <time>2015-12-06T14:36:36.000Z</time>
      </trkpt>
      <trkpt lat="47.70526" lon="-2.7029">
        <ele>105.1</ele>
        <time>2015-12-06T14:36:37.000Z</time>
      </trkpt>
      <trkpt lat="47.70523" lon="-2.70281">
        <ele>104.1</ele>
        <time>2015-12-06T14:36:38.000Z</time>
      </trkpt>
      <trkpt lat="47.70519" lon="-2.70274">
        <ele>103.3</ele>
        <time>2015-12-06T14:36:39.000Z</time>
      </trkpt>
      <trkpt lat="47.70516" lon="-2.70266">
        <ele>102.5</ele>
        <time>2015-12-06T14:36:40.000Z</time>
      </trkpt>
      <trkpt lat="47.70513" lon="-2.70257">
        <ele>101.7</ele>
        <time>2015-12-06T14:36:41.000Z</time>
      </trkpt>
      <trkpt lat="47.7051" lon="-2.70247">
        <ele>100.9</ele>
        <time>2015-12-06T14:36:42.000Z</time>
      </trkpt>
      <trkpt lat="47.70507" lon="-2.70238">
        <ele>100.2</ele>
        <time>2015-12-06T14:36:43.000Z</time>
      </trkpt>
      <trkpt lat="47.70503" lon="-2.7023">
        <ele>99.7</ele>
        <time>2015-12-06T14:36:44.000Z</time>
      </trkpt>
      <trkpt lat="47.70498" lon="-2.70222">
        <ele>99.6</ele>
        <time>2015-12-06T14:36:45.000Z</time>
      </trkpt>
      <trkpt lat="47.70493" lon="-2.70215">
        <ele>99.5</ele>
        <time>2015-12-06T14:36:46.000Z</time>
      </trkpt>
      <trkpt lat="47.70489" lon="-2.70207">
        <ele>99.3</ele>
        <time>2015-12-06T14:36:47.000Z</time>
      </trkpt>
      <trkpt lat="47.70486" lon="-2.70198">
        <ele>98.5</ele>
        <time>2015-12-06T14:36:48.000Z</time>
      </trkpt>
      <trkpt lat="47.70482" lon="-2.7019">
        <ele>97.7</ele>
        <time>2015-12-06T14:36:49.000Z</time>
      </trkpt>
      <trkpt lat="47.70477" lon="-2.70182">
        <ele>97.3</ele>
        <time>2015-12-06T14:36:50.000Z</time>
      </trkpt>
      <trkpt lat="47.70471" lon="-2.70175">
        <ele>97</ele>
        <time>2015-12-06T14:36:51.000Z</time>
      </trkpt>
      <trkpt lat="47.70465" lon="-2.70167">
        <ele>96.9</ele>
        <time>2015-12-06T14:36:52.000Z</time>
      </trkpt>
      <trkpt lat="47.7046" lon="-2.7016">
        <ele>96.8</ele>
        <time>2015-12-06T14:36:53.000Z</time>
      </trkpt>
      <trkpt lat="47.70454" lon="-2.70153">
        <ele>95.9</ele>
        <time>2015-12-06T14:36:54.000Z</time>
      </trkpt>
      <trkpt lat="47.70449" lon="-2.70149">
        <ele>95</ele>
        <time>2015-12-06T14:36:55.000Z</time>
      </trkpt>
      <trkpt lat="47.70444" lon="-2.70145">
        <ele>94.4</ele>
        <time>2015-12-06T14:36:56.000Z</time>
      </trkpt>
      <trkpt lat="47.7044" lon="-2.70142">
        <ele>93.8</ele>
        <time>2015-12-06T14:36:57.000Z</time>
      </trkpt>
      <trkpt lat="47.70434" lon="-2.70139">
        <ele>93.2</ele>
        <time>2015-12-06T14:36:58.000Z</time>
      </trkpt>
      <trkpt lat="47.70427" lon="-2.70136">
        <ele>92.6</ele>
        <time>2015-12-06T14:36:59.000Z</time>
      </trkpt>
      <trkpt lat="47.70421" lon="-2.70135">
        <ele>92.3</ele>
        <time>2015-12-06T14:37:00.000Z</time>
      </trkpt>
      <trkpt lat="47.70415" lon="-2.70135">
        <ele>92.1</ele>
        <time>2015-12-06T14:37:01.000Z</time>
      </trkpt>
      <trkpt lat="47.70408" lon="-2.70136">
        <ele>92</ele>
        <time>2015-12-06T14:37:02.000Z</time>
      </trkpt>
      <trkpt lat="47.70402" lon="-2.70137">
        <ele>91.9</ele>
        <time>2015-12-06T14:37:03.000Z</time>
      </trkpt>
      <trkpt lat="47.70396" lon="-2.70138">
        <ele>91.9</ele>
        <time>2015-12-06T14:37:04.000Z</time>
      </trkpt>
      <trkpt lat="47.70391" lon="-2.70139">
        <ele>91.8</ele>
        <time>2015-12-06T14:37:05.000Z</time>
      </trkpt>
      <trkpt lat="47.70384" lon="-2.70139">
        <ele>91.6</ele>
        <time>2015-12-06T14:37:06.000Z</time>
      </trkpt>
      <trkpt lat="47.70378" lon="-2.70138">
        <ele>91.4</ele>
        <time>2015-12-06T14:37:07.000Z</time>
      </trkpt>
      <trkpt lat="47.7037" lon="-2.70139">
        <ele>89.9</ele>
        <time>2015-12-06T14:37:08.000Z</time>
      </trkpt>
      <trkpt lat="47.70363" lon="-2.7014">
        <ele>87.9</ele>
        <time>2015-12-06T14:37:09.000Z</time>
      </trkpt>
      <trkpt lat="47.70356" lon="-2.70142">
        <ele>86.1</ele>
        <time>2015-12-06T14:37:10.000Z</time>
      </trkpt>
      <trkpt lat="47.7035" lon="-2.70145">
        <ele>84.5</ele>
        <time>2015-12-06T14:37:11.000Z</time>
      </trkpt>
      <trkpt lat="47.70343" lon="-2.7015">
        <ele>83</ele>
        <time>2015-12-06T14:37:12.000Z</time>
      </trkpt>
      <trkpt lat="47.70337" lon="-2.70156">
        <ele>81.8</ele>
        <time>2015-12-06T14:37:13.000Z</time>
      </trkpt>
      <trkpt lat="47.7033" lon="-2.70164">
        <ele>80.7</ele>
        <time>2015-12-06T14:37:14.000Z</time>
      </trkpt>
      <trkpt lat="47.70324" lon="-2.70171">
        <ele>79.7</ele>
        <time>2015-12-06T14:37:15.000Z</time>
      </trkpt>
      <trkpt lat="47.70318" lon="-2.70177">
        <ele>78.7</ele>
        <time>2015-12-06T14:37:16.000Z</time>
      </trkpt>
      <trkpt lat="47.70313" lon="-2.70182">
        <ele>77.9</ele>
        <time>2015-12-06T14:37:17.000Z</time>
      </trkpt>
      <trkpt lat="47.70308" lon="-2.70188">
        <ele>77.1</ele>
        <time>2015-12-06T14:37:18.000Z</time>
      </trkpt>
      <trkpt lat="47.70304" lon="-2.70193">
        <ele>76.6</ele>
        <time>2015-12-06T14:37:19.000Z</time>
      </trkpt>
      <trkpt lat="47.70302" lon="-2.70197">
        <ele>76.4</ele>
        <time>2015-12-06T14:37:20.000Z</time>
      </trkpt>
      <trkpt lat="47.703" lon="-2.702">
        <ele>76.3</ele>
        <time>2015-12-06T14:37:21.000Z</time>
      </trkpt>
      <trkpt lat="47.70299" lon="-2.70202">
        <ele>76.2</ele>
        <time>2015-12-06T14:37:22.000Z</time>
      </trkpt>
      <trkpt lat="47.70297" lon="-2.70204">
        <ele>75.9</ele>
        <time>2015-12-06T14:37:23.000Z</time>
      </trkpt>
      <trkpt lat="47.70295" lon="-2.70207">
        <ele>75.6</ele>
        <time>2015-12-06T14:37:24.000Z</time>
      </trkpt>
      <trkpt lat="47.70293" lon="-2.70208">
        <ele>75.3</ele>
        <time>2015-12-06T14:37:25.000Z</time>
      </trkpt>
      <trkpt lat="47.70291" lon="-2.7021">
        <ele>75.1</ele>
        <time>2015-12-06T14:37:26.000Z</time>
      </trkpt>
      <trkpt lat="47.7029" lon="-2.70212">
        <ele>74.9</ele>
        <time>2015-12-06T14:37:27.000Z</time>
      </trkpt>
      <trkpt lat="47.70288" lon="-2.70214">
        <ele>74.8</ele>
        <time>2015-12-06T14:37:28.000Z</time>
      </trkpt>
      <trkpt lat="47.70287" lon="-2.70216">
        <ele>74.7</ele>
        <time>2015-12-06T14:37:29.000Z</time>
      </trkpt>
      <trkpt lat="47.70286" lon="-2.70218">
        <ele>74.6</ele>
        <time>2015-12-06T14:37:30.000Z</time>
      </trkpt>
      <trkpt lat="47.70285" lon="-2.7022">
        <ele>74.6</ele>
        <time>2015-12-06T14:37:31.000Z</time>
      </trkpt>
      <trkpt lat="47.70284" lon="-2.70222">
        <ele>74.5</ele>
        <time>2015-12-06T14:37:32.000Z</time>
      </trkpt>
      <trkpt lat="47.70283" lon="-2.70224">
        <ele>74.5</ele>
        <time>2015-12-06T14:37:33.000Z</time>
      </trkpt>
      <trkpt lat="47.70282" lon="-2.70226">
        <ele>74.4</ele>
        <time>2015-12-06T14:37:34.000Z</time>
      </trkpt>
      <trkpt lat="47.7028" lon="-2.70229">
        <ele>74.4</ele>
        <time>2015-12-06T14:37:35.000Z</time>
      </trkpt>
      <trkpt lat="47.70279" lon="-2.70231">
        <ele>74.3</ele>
        <time>2015-12-06T14:37:36.000Z</time>
      </trkpt>
      <trkpt lat="47.70278" lon="-2.70232">
        <ele>74.3</ele>
        <time>2015-12-06T14:37:37.000Z</time>
      </trkpt>
      <trkpt lat="47.70277" lon="-2.70234">
        <ele>74.2</ele>
        <time>2015-12-06T14:37:38.000Z</time>
      </trkpt>
      <trkpt lat="47.70277" lon="-2.70236">
        <ele>74.3</ele>
        <time>2015-12-06T14:37:39.000Z</time>
      </trkpt>
      <trkpt lat="47.70276" lon="-2.70237">
        <ele>74.2</ele>
        <time>2015-12-06T14:37:40.000Z</time>
      </trkpt>
      <trkpt lat="47.70275" lon="-2.70239">
        <ele>74.2</ele>
        <time>2015-12-06T14:37:41.000Z</time>
      </trkpt>
      <trkpt lat="47.70274" lon="-2.70241">
        <ele>74.2</ele>
        <time>2015-12-06T14:37:42.000Z</time>
      </trkpt>
      <trkpt lat="47.70274" lon="-2.70243">
        <ele>74.3</ele>
        <time>2015-12-06T14:37:43.000Z</time>
      </trkpt>
      <trkpt lat="47.70273" lon="-2.70245">
        <ele>74.5</ele>
        <time>2015-12-06T14:37:44.000Z</time>
      </trkpt>
      <trkpt lat="47.70273" lon="-2.70248">
        <ele>74.6</ele>
        <time>2015-12-06T14:37:45.000Z</time>
      </trkpt>
      <trkpt lat="47.70272" lon="-2.7025">
        <ele>74.7</ele>
        <time>2015-12-06T14:37:46.000Z</time>
      </trkpt>
      <trkpt lat="47.70272" lon="-2.70252">
        <ele>74.8</ele>
        <time>2015-12-06T14:37:47.000Z</time>
      </trkpt>
      <trkpt lat="47.70271" lon="-2.70255">
        <ele>74.9</ele>
        <time>2015-12-06T14:37:48.000Z</time>
      </trkpt>
      <trkpt lat="47.70271" lon="-2.70257">
        <ele>75.2</ele>
        <time>2015-12-06T14:37:49.000Z</time>
      </trkpt>
      <trkpt lat="47.70271" lon="-2.70259">
        <ele>75.5</ele>
        <time>2015-12-06T14:37:50.000Z</time>
      </trkpt>
      <trkpt lat="47.70271" lon="-2.70261">
        <ele>75.6</ele>
        <time>2015-12-06T14:37:51.000Z</time>
      </trkpt>
      <trkpt lat="47.70271" lon="-2.70263">
        <ele>75.8</ele>
        <time>2015-12-06T14:37:52.000Z</time>
      </trkpt>
      <trkpt lat="47.7027" lon="-2.70265">
        <ele>76</ele>
        <time>2015-12-06T14:37:53.000Z</time>
      </trkpt>
      <trkpt lat="47.7027" lon="-2.70267">
        <ele>76.1</ele>
        <time>2015-12-06T14:37:54.000Z</time>
      </trkpt>
      <trkpt lat="47.70269" lon="-2.70269">
        <ele>76.2</ele>
        <time>2015-12-06T14:37:55.000Z</time>
      </trkpt>
      <trkpt lat="47.70269" lon="-2.70271">
        <ele>76.3</ele>
        <time>2015-12-06T14:37:56.000Z</time>
      </trkpt>
      <trkpt lat="47.70268" lon="-2.70274">
        <ele>76.4</ele>
        <time>2015-12-06T14:37:57.000Z</time>
      </trkpt>
      <trkpt lat="47.70268" lon="-2.70276">
        <ele>76.6</ele>
        <time>2015-12-06T14:37:58.000Z</time>
      </trkpt>
      <trkpt lat="47.70267" lon="-2.70278">
        <ele>76.6</ele>
        <time>2015-12-06T14:37:59.000Z</time>
      </trkpt>
      <trkpt lat="47.70266" lon="-2.70281">
        <ele>76.7</ele>
        <time>2015-12-06T14:38:00.000Z</time>
      </trkpt>
      <trkpt lat="47.70265" lon="-2.70284">
        <ele>76.8</ele>
        <time>2015-12-06T14:38:01.000Z</time>
      </trkpt>
      <trkpt lat="47.70265" lon="-2.70287">
        <ele>77</ele>
        <time>2015-12-06T14:38:02.000Z</time>
      </trkpt>
      <trkpt lat="47.70264" lon="-2.7029">
        <ele>77.2</ele>
        <time>2015-12-06T14:38:03.000Z</time>
      </trkpt>
      <trkpt lat="47.70264" lon="-2.70292">
        <ele>77.3</ele>
        <time>2015-12-06T14:38:04.000Z</time>
      </trkpt>
      <trkpt lat="47.70263" lon="-2.70294">
        <ele>77.4</ele>
        <time>2015-12-06T14:38:05.000Z</time>
      </trkpt>
      <trkpt lat="47.70263" lon="-2.70296">
        <ele>77.6</ele>
        <time>2015-12-06T14:38:06.000Z</time>
      </trkpt>
      <trkpt lat="47.70263" lon="-2.70298">
        <ele>77.7</ele>
        <time>2015-12-06T14:38:07.000Z</time>
      </trkpt>
      <trkpt lat="47.70263" lon="-2.70299">
        <ele>78</ele>
        <time>2015-12-06T14:38:08.000Z</time>
      </trkpt>
      <trkpt lat="47.70263" lon="-2.70301">
        <ele>78.2</ele>
        <time>2015-12-06T14:38:09.000Z</time>
      </trkpt>
      <trkpt lat="47.70264" lon="-2.70303">
        <ele>78.5</ele>
        <time>2015-12-06T14:38:10.000Z</time>
      </trkpt>
      <trkpt lat="47.70264" lon="-2.70304">
        <ele>78.9</ele>
        <time>2015-12-06T14:38:11.000Z</time>
      </trkpt>
      <trkpt lat="47.70265" lon="-2.70306">
        <ele>79.4</ele>
        <time>2015-12-06T14:38:12.000Z</time>
      </trkpt>
      <trkpt lat="47.70266" lon="-2.70309">
        <ele>79.9</ele>
        <time>2015-12-06T14:38:13.000Z</time>
      </trkpt>
      <trkpt lat="47.70267" lon="-2.70311">
        <ele>80.4</ele>
        <time>2015-12-06T14:38:14.000Z</time>
      </trkpt>
      <trkpt lat="47.70268" lon="-2.70313">
        <ele>80.9</ele>
        <time>2015-12-06T14:38:15.000Z</time>
      </trkpt>
      <trkpt lat="47.70269" lon="-2.70316">
        <ele>81.3</ele>
        <time>2015-12-06T14:38:16.000Z</time>
      </trkpt>
      <trkpt lat="47.70269" lon="-2.70318">
        <ele>81.8</ele>
        <time>2015-12-06T14:38:17.000Z</time>
      </trkpt>
      <trkpt lat="47.7027" lon="-2.70321">
        <ele>82.3</ele>
        <time>2015-12-06T14:38:18.000Z</time>
      </trkpt>
      <trkpt lat="47.70271" lon="-2.70324">
        <ele>82.8</ele>
        <time>2015-12-06T14:38:19.000Z</time>
      </trkpt>
      <trkpt lat="47.70272" lon="-2.70328">
        <ele>83.5</ele>
        <time>2015-12-06T14:38:20.000Z</time>
      </trkpt>
      <trkpt lat="47.70272" lon="-2.70332">
        <ele>84.1</ele>
        <time>2015-12-06T14:38:21.000Z</time>
      </trkpt>
      <trkpt lat="47.70273" lon="-2.70337">
        <ele>84.6</ele>
        <time>2015-12-06T14:38:22.000Z</time>
      </trkpt>
      <trkpt lat="47.70272" lon="-2.70341">
        <ele>85</ele>
        <time>2015-12-06T14:38:23.000Z</time>
      </trkpt>
      <trkpt lat="47.70271" lon="-2.70345">
        <ele>85.2</ele>
        <time>2015-12-06T14:38:24.000Z</time>
      </trkpt>
      <trkpt lat="47.70269" lon="-2.7035">
        <ele>85.4</ele>
        <time>2015-12-06T14:38:25.000Z</time>
      </trkpt>
      <trkpt lat="47.70268" lon="-2.70354">
        <ele>85.6</ele>
        <time>2015-12-06T14:38:26.000Z</time>
      </trkpt>
      <trkpt lat="47.70267" lon="-2.70359">
        <ele>86</ele>
        <time>2015-12-06T14:38:27.000Z</time>
      </trkpt>
      <trkpt lat="47.70265" lon="-2.70364">
        <ele>86.3</ele>
        <time>2015-12-06T14:38:28.000Z</time>
      </trkpt>
      <trkpt lat="47.70264" lon="-2.70369">
        <ele>86.6</ele>
        <time>2015-12-06T14:38:29.000Z</time>
      </trkpt>
      <trkpt lat="47.70262" lon="-2.70374">
        <ele>86.8</ele>
        <time>2015-12-06T14:38:30.000Z</time>
      </trkpt>
      <trkpt lat="47.7026" lon="-2.70378">
        <ele>86.8</ele>
        <time>2015-12-06T14:38:31.000Z</time>
      </trkpt>
      <trkpt lat="47.70258" lon="-2.70381">
        <ele>86.7</ele>
        <time>2015-12-06T14:38:32.000Z</time>
      </trkpt>
      <trkpt lat="47.70256" lon="-2.70383">
        <ele>86.6</ele>
        <time>2015-12-06T14:38:33.000Z</time>
      </trkpt>
      <trkpt lat="47.70254" lon="-2.70386">
        <ele>86.4</ele>
        <time>2015-12-06T14:38:34.000Z</time>
      </trkpt>
      <trkpt lat="47.70252" lon="-2.70388">
        <ele>86.1</ele>
        <time>2015-12-06T14:38:35.000Z</time>
      </trkpt>
      <trkpt lat="47.70249" lon="-2.70389">
        <ele>85.8</ele>
        <time>2015-12-06T14:38:36.000Z</time>
      </trkpt>
      <trkpt lat="47.70247" lon="-2.7039">
        <ele>85.4</ele>
        <time>2015-12-06T14:38:37.000Z</time>
      </trkpt>
      <trkpt lat="47.70244" lon="-2.7039">
        <ele>85.1</ele>
        <time>2015-12-06T14:38:38.000Z</time>
      </trkpt>
      <trkpt lat="47.70241" lon="-2.70391">
        <ele>84.6</ele>
        <time>2015-12-06T14:38:39.000Z</time>
      </trkpt>
      <trkpt lat="47.70237" lon="-2.70391">
        <ele>84.1</ele>
        <time>2015-12-06T14:38:40.000Z</time>
      </trkpt>
      <trkpt lat="47.70234" lon="-2.70391">
        <ele>83.5</ele>
        <time>2015-12-06T14:38:41.000Z</time>
      </trkpt>
      <trkpt lat="47.7023" lon="-2.7039">
        <ele>82.9</ele>
        <time>2015-12-06T14:38:42.000Z</time>
      </trkpt>
      <trkpt lat="47.70226" lon="-2.7039">
        <ele>82.4</ele>
        <time>2015-12-06T14:38:43.000Z</time>
      </trkpt>
      <trkpt lat="47.70223" lon="-2.7039">
        <ele>81.9</ele>
        <time>2015-12-06T14:38:44.000Z</time>
      </trkpt>
      <trkpt lat="47.70219" lon="-2.70391">
        <ele>81.3</ele>
        <time>2015-12-06T14:38:45.000Z</time>
      </trkpt>
      <trkpt lat="47.70214" lon="-2.70391">
        <ele>80.5</ele>
        <time>2015-12-06T14:38:46.000Z</time>
      </trkpt>
      <trkpt lat="47.70209" lon="-2.70391">
        <ele>79.7</ele>
        <time>2015-12-06T14:38:47.000Z</time>
      </trkpt>
      <trkpt lat="47.70204" lon="-2.70392">
        <ele>78.7</ele>
        <time>2015-12-06T14:38:48.000Z</time>
      </trkpt>
      <trkpt lat="47.70198" lon="-2.70394">
        <ele>77.6</ele>
        <time>2015-12-06T14:38:49.000Z</time>
      </trkpt>
      <trkpt lat="47.70193" lon="-2.70398">
        <ele>76.7</ele>
        <time>2015-12-06T14:38:50.000Z</time>
      </trkpt>
      <trkpt lat="47.70188" lon="-2.70402">
        <ele>76</ele>
        <time>2015-12-06T14:38:51.000Z</time>
      </trkpt>
      <trkpt lat="47.70183" lon="-2.70405">
        <ele>75.3</ele>
        <time>2015-12-06T14:38:52.000Z</time>
      </trkpt>
      <trkpt lat="47.70179" lon="-2.7041">
        <ele>74.8</ele>
        <time>2015-12-06T14:38:53.000Z</time>
      </trkpt>
      <trkpt lat="47.70174" lon="-2.70414">
        <ele>74.3</ele>
        <time>2015-12-06T14:38:54.000Z</time>
      </trkpt>
      <trkpt lat="47.70169" lon="-2.70418">
        <ele>73.8</ele>
        <time>2015-12-06T14:38:55.000Z</time>
      </trkpt>
      <trkpt lat="47.70164" lon="-2.70422">
        <ele>73.2</ele>
        <time>2015-12-06T14:38:56.000Z</time>
      </trkpt>
      <trkpt lat="47.70159" lon="-2.70427">
        <ele>72.6</ele>
        <time>2015-12-06T14:38:57.000Z</time>
      </trkpt>
      <trkpt lat="47.70154" lon="-2.70432">
        <ele>72.2</ele>
        <time>2015-12-06T14:38:58.000Z</time>
      </trkpt>
      <trkpt lat="47.70149" lon="-2.70437">
        <ele>71.7</ele>
        <time>2015-12-06T14:38:59.000Z</time>
      </trkpt>
      <trkpt lat="47.70144" lon="-2.7044">
        <ele>71.2</ele>
        <time>2015-12-06T14:39:00.000Z</time>
      </trkpt>
      <trkpt lat="47.70138" lon="-2.70444">
        <ele>70.6</ele>
        <time>2015-12-06T14:39:01.000Z</time>
      </trkpt>
      <trkpt lat="47.70133" lon="-2.70449">
        <ele>70.1</ele>
        <time>2015-12-06T14:39:02.000Z</time>
      </trkpt>
      <trkpt lat="47.70127" lon="-2.70454">
        <ele>69.7</ele>
        <time>2015-12-06T14:39:03.000Z</time>
      </trkpt>
      <trkpt lat="47.70122" lon="-2.70458">
        <ele>69.1</ele>
        <time>2015-12-06T14:39:04.000Z</time>
      </trkpt>
      <trkpt lat="47.70116" lon="-2.70463">
        <ele>68.1</ele>
        <time>2015-12-06T14:39:05.000Z</time>
      </trkpt>
      <trkpt lat="47.70111" lon="-2.70469">
        <ele>67</ele>
        <time>2015-12-06T14:39:06.000Z</time>
      </trkpt>
      <trkpt lat="47.70105" lon="-2.70474">
        <ele>66</ele>
        <time>2015-12-06T14:39:07.000Z</time>
      </trkpt>
      <trkpt lat="47.70099" lon="-2.7048">
        <ele>65</ele>
        <time>2015-12-06T14:39:08.000Z</time>
      </trkpt>
      <trkpt lat="47.70094" lon="-2.70486">
        <ele>64</ele>
        <time>2015-12-06T14:39:09.000Z</time>
      </trkpt>
      <trkpt lat="47.70088" lon="-2.70495">
        <ele>63.2</ele>
        <time>2015-12-06T14:39:10.000Z</time>
      </trkpt>
      <trkpt lat="47.70082" lon="-2.70503">
        <ele>62.4</ele>
        <time>2015-12-06T14:39:11.000Z</time>
      </trkpt>
      <trkpt lat="47.70078" lon="-2.70511">
        <ele>61.9</ele>
        <time>2015-12-06T14:39:12.000Z</time>
      </trkpt>
      <trkpt lat="47.70074" lon="-2.70517">
        <ele>61.4</ele>
        <time>2015-12-06T14:39:13.000Z</time>
      </trkpt>
      <trkpt lat="47.70069" lon="-2.70521">
        <ele>60.7</ele>
        <time>2015-12-06T14:39:14.000Z</time>
      </trkpt>
      <trkpt lat="47.70063" lon="-2.70524">
        <ele>59.6</ele>
        <time>2015-12-06T14:39:15.000Z</time>
      </trkpt>
      <trkpt lat="47.70056" lon="-2.70527">
        <ele>58.2</ele>
        <time>2015-12-06T14:39:16.000Z</time>
      </trkpt>
      <trkpt lat="47.7005" lon="-2.7053">
        <ele>56.9</ele>
        <time>2015-12-06T14:39:17.000Z</time>
      </trkpt>
      <trkpt lat="47.70045" lon="-2.70532">
        <ele>55.9</ele>
        <time>2015-12-06T14:39:18.000Z</time>
      </trkpt>
      <trkpt lat="47.7004" lon="-2.70534">
        <ele>55.1</ele>
        <time>2015-12-06T14:39:19.000Z</time>
      </trkpt>
      <trkpt lat="47.70036" lon="-2.70536">
        <ele>54.8</ele>
        <time>2015-12-06T14:39:20.000Z</time>
      </trkpt>
      <trkpt lat="47.70032" lon="-2.70538">
        <ele>54.4</ele>
        <time>2015-12-06T14:39:21.000Z</time>
      </trkpt>
      <trkpt lat="47.70028" lon="-2.70541">
        <ele>54</ele>
        <time>2015-12-06T14:39:22.000Z</time>
      </trkpt>
      <trkpt lat="47.70024" lon="-2.70544">
        <ele>53.6</ele>
        <time>2015-12-06T14:39:23.000Z</time>
      </trkpt>
      <trkpt lat="47.7002" lon="-2.70549">
        <ele>53.4</ele>
        <time>2015-12-06T14:39:24.000Z</time>
      </trkpt>
      <trkpt lat="47.70016" lon="-2.70554">
        <ele>53.2</ele>
        <time>2015-12-06T14:39:25.000Z</time>
      </trkpt>
      <trkpt lat="47.70012" lon="-2.70559">
        <ele>53</ele>
        <time>2015-12-06T14:39:26.000Z</time>
      </trkpt>
      <trkpt lat="47.70008" lon="-2.70564">
        <ele>52.8</ele>
        <time>2015-12-06T14:39:27.000Z</time>
      </trkpt>
      <trkpt lat="47.70004" lon="-2.70569">
        <ele>52.6</ele>
        <time>2015-12-06T14:39:28.000Z</time>
      </trkpt>
      <trkpt lat="47.70001" lon="-2.70574">
        <ele>52.4</ele>
        <time>2015-12-06T14:39:29.000Z</time>
      </trkpt>
      <trkpt lat="47.69998" lon="-2.70578">
        <ele>52.2</ele>
        <time>2015-12-06T14:39:30.000Z</time>
      </trkpt>
      <trkpt lat="47.69994" lon="-2.70583">
        <ele>52.1</ele>
        <time>2015-12-06T14:39:31.000Z</time>
      </trkpt>
      <trkpt lat="47.69991" lon="-2.70588">
        <ele>52</ele>
        <time>2015-12-06T14:39:32.000Z</time>
      </trkpt>
      <trkpt lat="47.69988" lon="-2.70594">
        <ele>51.9</ele>
        <time>2015-12-06T14:39:33.000Z</time>
      </trkpt>
      <trkpt lat="47.69986" lon="-2.70599">
        <ele>51.8</ele>
        <time>2015-12-06T14:39:34.000Z</time>
      </trkpt>
      <trkpt lat="47.69983" lon="-2.70604">
        <ele>51.7</ele>
        <time>2015-12-06T14:39:35.000Z</time>
      </trkpt>
      <trkpt lat="47.69981" lon="-2.70609">
        <ele>51.6</ele>
        <time>2015-12-06T14:39:36.000Z</time>
      </trkpt>
      <trkpt lat="47.69978" lon="-2.70614">
        <ele>51.6</ele>
        <time>2015-12-06T14:39:37.000Z</time>
      </trkpt>
      <trkpt lat="47.69975" lon="-2.70619">
        <ele>51.4</ele>
        <time>2015-12-06T14:39:38.000Z</time>
      </trkpt>
      <trkpt lat="47.69972" lon="-2.70625">
        <ele>51.3</ele>
        <time>2015-12-06T14:39:39.000Z</time>
      </trkpt>
      <trkpt lat="47.69969" lon="-2.7063">
        <ele>50.9</ele>
        <time>2015-12-06T14:39:40.000Z</time>
      </trkpt>
      <trkpt lat="47.69967" lon="-2.70635">
        <ele>50.6</ele>
        <time>2015-12-06T14:39:41.000Z</time>
      </trkpt>
      <trkpt lat="47.69964" lon="-2.70637">
        <ele>50.2</ele>
        <time>2015-12-06T14:39:42.000Z</time>
      </trkpt>
      <trkpt lat="47.69962" lon="-2.70639">
        <ele>49.9</ele>
        <time>2015-12-06T14:39:43.000Z</time>
      </trkpt>
      <trkpt lat="47.6996" lon="-2.70642">
        <ele>49.6</ele>
        <time>2015-12-06T14:39:44.000Z</time>
      </trkpt>
      <trkpt lat="47.69958" lon="-2.70644">
        <ele>49.4</ele>
        <time>2015-12-06T14:39:45.000Z</time>
      </trkpt>
      <trkpt lat="47.69956" lon="-2.70646">
        <ele>49.3</ele>
        <time>2015-12-06T14:39:46.000Z</time>
      </trkpt>
      <trkpt lat="47.69954" lon="-2.70647">
        <ele>49.2</ele>
        <time>2015-12-06T14:39:47.000Z</time>
      </trkpt>
      <trkpt lat="47.69952" lon="-2.70647">
        <ele>49.1</ele>
        <time>2015-12-06T14:39:48.000Z</time>
      </trkpt>
      <trkpt lat="47.69952" lon="-2.70645">
        <ele>49</ele>
        <time>2015-12-06T14:39:49.000Z</time>
      </trkpt>
      <trkpt lat="47.69952" lon="-2.70643">
        <ele>49</ele>
        <time>2015-12-06T14:39:50.000Z</time>
      </trkpt>
      <trkpt lat="47.69953" lon="-2.70639">
        <ele>49</ele>
        <time>2015-12-06T14:39:51.000Z</time>
      </trkpt>
      <trkpt lat="47.69954" lon="-2.70633">
        <ele>48.9</ele>
        <time>2015-12-06T14:39:52.000Z</time>
      </trkpt>
      <trkpt lat="47.69956" lon="-2.70627">
        <ele>48.9</ele>
        <time>2015-12-06T14:39:53.000Z</time>
      </trkpt>
      <trkpt lat="47.69958" lon="-2.7062">
        <ele>48.7</ele>
        <time>2015-12-06T14:39:54.000Z</time>
      </trkpt>
      <trkpt lat="47.6996" lon="-2.70614">
        <ele>48.6</ele>
        <time>2015-12-06T14:39:55.000Z</time>
      </trkpt>
      <trkpt lat="47.69963" lon="-2.70607">
        <ele>48.6</ele>
        <time>2015-12-06T14:39:56.000Z</time>
      </trkpt>
      <trkpt lat="47.69966" lon="-2.70599">
        <ele>48.6</ele>
        <time>2015-12-06T14:39:57.000Z</time>
      </trkpt>
      <trkpt lat="47.69969" lon="-2.70591">
        <ele>48.6</ele>
        <time>2015-12-06T14:39:58.000Z</time>
      </trkpt>
      <trkpt lat="47.69973" lon="-2.70583">
        <ele>48.7</ele>
        <time>2015-12-06T14:39:59.000Z</time>
      </trkpt>
      <trkpt lat="47.69976" lon="-2.70577">
        <ele>48.9</ele>
        <time>2015-12-06T14:40:00.000Z</time>
      </trkpt>
      <trkpt lat="47.69979" lon="-2.70572">
        <ele>48.9</ele>
        <time>2015-12-06T14:40:01.000Z</time>
      </trkpt>
      <trkpt lat="47.69979" lon="-2.7057">
        <ele>48.7</ele>
        <time>2015-12-06T14:40:02.000Z</time>
      </trkpt>
      <trkpt lat="47.69977" lon="-2.70569">
        <ele>48.5</ele>
        <time>2015-12-06T14:40:03.000Z</time>
      </trkpt>
      <trkpt lat="47.69974" lon="-2.70572">
        <ele>48.2</ele>
        <time>2015-12-06T14:40:04.000Z</time>
      </trkpt>
      <trkpt lat="47.69971" lon="-2.70575">
        <ele>48</ele>
        <time>2015-12-06T14:40:05.000Z</time>
      </trkpt>
      <trkpt lat="47.69968" lon="-2.70579">
        <ele>47.7</ele>
        <time>2015-12-06T14:40:06.000Z</time>
      </trkpt>
      <trkpt lat="47.69964" lon="-2.70583">
        <ele>47.4</ele>
        <time>2015-12-06T14:40:07.000Z</time>
      </trkpt>
      <trkpt lat="47.69959" lon="-2.70588">
        <ele>46.9</ele>
        <time>2015-12-06T14:40:08.000Z</time>
      </trkpt>
      <trkpt lat="47.69954" lon="-2.70593">
        <ele>46.9</ele>
        <time>2015-12-06T14:40:09.000Z</time>
      </trkpt>
      <trkpt lat="47.6995" lon="-2.70598">
        <ele>47.1</ele>
        <time>2015-12-06T14:40:10.000Z</time>
      </trkpt>
      <trkpt lat="47.69945" lon="-2.70603">
        <ele>47.1</ele>
        <time>2015-12-06T14:40:11.000Z</time>
      </trkpt>
      <trkpt lat="47.69941" lon="-2.70608">
        <ele>47.2</ele>
        <time>2015-12-06T14:40:12.000Z</time>
      </trkpt>
      <trkpt lat="47.69937" lon="-2.70612">
        <ele>47.2</ele>
        <time>2015-12-06T14:40:13.000Z</time>
      </trkpt>
      <trkpt lat="47.69934" lon="-2.70618">
        <ele>47.3</ele>
        <time>2015-12-06T14:40:14.000Z</time>
      </trkpt>
      <trkpt lat="47.69931" lon="-2.70624">
        <ele>47.3</ele>
        <time>2015-12-06T14:40:15.000Z</time>
      </trkpt>
      <trkpt lat="47.69929" lon="-2.7063">
        <ele>47.3</ele>
        <time>2015-12-06T14:40:16.000Z</time>
      </trkpt>
      <trkpt lat="47.69927" lon="-2.70636">
        <ele>47.2</ele>
        <time>2015-12-06T14:40:17.000Z</time>
      </trkpt>
      <trkpt lat="47.69926" lon="-2.70642">
        <ele>47.1</ele>
        <time>2015-12-06T14:40:18.000Z</time>
      </trkpt>
      <trkpt lat="47.69926" lon="-2.70649">
        <ele>47.2</ele>
        <time>2015-12-06T14:40:19.000Z</time>
      </trkpt>
      <trkpt lat="47.69925" lon="-2.70655">
        <ele>47.2</ele>
        <time>2015-12-06T14:40:20.000Z</time>
      </trkpt>
      <trkpt lat="47.69925" lon="-2.70661">
        <ele>47.2</ele>
        <time>2015-12-06T14:40:21.000Z</time>
      </trkpt>
      <trkpt lat="47.69925" lon="-2.70667">
        <ele>47.2</ele>
        <time>2015-12-06T14:40:22.000Z</time>
      </trkpt>
      <trkpt lat="47.69925" lon="-2.70673">
        <ele>47.2</ele>
        <time>2015-12-06T14:40:23.000Z</time>
      </trkpt>
      <trkpt lat="47.69924" lon="-2.70678">
        <ele>47.2</ele>
        <time>2015-12-06T14:40:24.000Z</time>
      </trkpt>
      <trkpt lat="47.69924" lon="-2.70683">
        <ele>47.2</ele>
        <time>2015-12-06T14:40:25.000Z</time>
      </trkpt>
      <trkpt lat="47.69923" lon="-2.70687">
        <ele>47.1</ele>
        <time>2015-12-06T14:40:26.000Z</time>
      </trkpt>
      <trkpt lat="47.69921" lon="-2.70691">
        <ele>47</ele>
        <time>2015-12-06T14:40:27.000Z</time>
      </trkpt>
      <trkpt lat="47.69919" lon="-2.70694">
        <ele>46.7</ele>
        <time>2015-12-06T14:40:28.000Z</time>
      </trkpt>
      <trkpt lat="47.69915" lon="-2.70696">
        <ele>46.4</ele>
        <time>2015-12-06T14:40:29.000Z</time>
      </trkpt>
      <trkpt lat="47.69911" lon="-2.70698">
        <ele>45.9</ele>
        <time>2015-12-06T14:40:30.000Z</time>
      </trkpt>
      <trkpt lat="47.69906" lon="-2.70698">
        <ele>45.4</ele>
        <time>2015-12-06T14:40:31.000Z</time>
      </trkpt>
      <trkpt lat="47.69902" lon="-2.70697">
        <ele>45</ele>
        <time>2015-12-06T14:40:32.000Z</time>
      </trkpt>
      <trkpt lat="47.69898" lon="-2.70697">
        <ele>44.6</ele>
        <time>2015-12-06T14:40:33.000Z</time>
      </trkpt>
      <trkpt lat="47.69894" lon="-2.70697">
        <ele>44.2</ele>
        <time>2015-12-06T14:40:34.000Z</time>
      </trkpt>
      <trkpt lat="47.69889" lon="-2.70696">
        <ele>43.7</ele>
        <time>2015-12-06T14:40:35.000Z</time>
      </trkpt>
      <trkpt lat="47.69885" lon="-2.70696">
        <ele>43.3</ele>
        <time>2015-12-06T14:40:36.000Z</time>
      </trkpt>
      <trkpt lat="47.69882" lon="-2.70696">
        <ele>43</ele>
        <time>2015-12-06T14:40:37.000Z</time>
      </trkpt>
      <trkpt lat="47.69879" lon="-2.70698">
        <ele>42.6</ele>
        <time>2015-12-06T14:40:38.000Z</time>
      </trkpt>
      <trkpt lat="47.69877" lon="-2.70701">
        <ele>42.4</ele>
        <time>2015-12-06T14:40:39.000Z</time>
      </trkpt>
      <trkpt lat="47.69876" lon="-2.70705">
        <ele>42.2</ele>
        <time>2015-12-06T14:40:40.000Z</time>
      </trkpt>
      <trkpt lat="47.69877" lon="-2.70709">
        <ele>42.2</ele>
        <time>2015-12-06T14:40:41.000Z</time>
      </trkpt>
      <trkpt lat="47.69878" lon="-2.70712">
        <ele>42.4</ele>
        <time>2015-12-06T14:40:42.000Z</time>
      </trkpt>
      <trkpt lat="47.69878" lon="-2.70715">
        <ele>42.6</ele>
        <time>2015-12-06T14:40:43.000Z</time>
      </trkpt>
      <trkpt lat="47.69879" lon="-2.70717">
        <ele>42.7</ele>
        <time>2015-12-06T14:40:44.000Z</time>
      </trkpt>
      <trkpt lat="47.69878" lon="-2.7072">
        <ele>42.7</ele>
        <time>2015-12-06T14:40:45.000Z</time>
      </trkpt>
      <trkpt lat="47.69878" lon="-2.70722">
        <ele>42.8</ele>
        <time>2015-12-06T14:40:46.000Z</time>
      </trkpt>
      <trkpt lat="47.69877" lon="-2.70726">
        <ele>42.8</ele>
        <time>2015-12-06T14:40:47.000Z</time>
      </trkpt>
      <trkpt lat="47.69876" lon="-2.7073">
        <ele>42.9</ele>
        <time>2015-12-06T14:40:48.000Z</time>
      </trkpt>
      <trkpt lat="47.69876" lon="-2.70734">
        <ele>43</ele>
        <time>2015-12-06T14:40:49.000Z</time>
      </trkpt>
      <trkpt lat="47.69876" lon="-2.70737">
        <ele>43.1</ele>
        <time>2015-12-06T14:40:50.000Z</time>
      </trkpt>
      <trkpt lat="47.69875" lon="-2.70739">
        <ele>43.2</ele>
        <time>2015-12-06T14:40:51.000Z</time>
      </trkpt>
      <trkpt lat="47.69874" lon="-2.70742">
        <ele>43.2</ele>
        <time>2015-12-06T14:40:52.000Z</time>
      </trkpt>
      <trkpt lat="47.69873" lon="-2.70745">
        <ele>43.4</ele>
        <time>2015-12-06T14:40:53.000Z</time>
      </trkpt>
      <trkpt lat="47.69871" lon="-2.70747">
        <ele>43.5</ele>
        <time>2015-12-06T14:40:54.000Z</time>
      </trkpt>
      <trkpt lat="47.6987" lon="-2.70748">
        <ele>43.5</ele>
        <time>2015-12-06T14:40:55.000Z</time>
      </trkpt>
      <trkpt lat="47.6987" lon="-2.70749">
        <ele>43.6</ele>
        <time>2015-12-06T14:40:56.000Z</time>
      </trkpt>
      <trkpt lat="47.6987" lon="-2.7075">
        <ele>43.6</ele>
        <time>2015-12-06T14:40:57.000Z</time>
      </trkpt>
      <trkpt lat="47.6987" lon="-2.70752">
        <ele>43.7</ele>
        <time>2015-12-06T14:40:58.000Z</time>
      </trkpt>
      <trkpt lat="47.69869" lon="-2.70753">
        <ele>43.8</ele>
        <time>2015-12-06T14:40:59.000Z</time>
      </trkpt>
      <trkpt lat="47.69868" lon="-2.70754">
        <ele>43.8</ele>
        <time>2015-12-06T14:41:00.000Z</time>
      </trkpt>
      <trkpt lat="47.69867" lon="-2.70756">
        <ele>43.9</ele>
        <time>2015-12-06T14:41:01.000Z</time>
      </trkpt>
      <trkpt lat="47.69866" lon="-2.70758">
        <ele>44</ele>
        <time>2015-12-06T14:41:02.000Z</time>
      </trkpt>
      <trkpt lat="47.69865" lon="-2.7076">
        <ele>44.1</ele>
        <time>2015-12-06T14:41:03.000Z</time>
      </trkpt>
      <trkpt lat="47.69863" lon="-2.70762">
        <ele>44.3</ele>
        <time>2015-12-06T14:41:04.000Z</time>
      </trkpt>
      <trkpt lat="47.69861" lon="-2.70765">
        <ele>44.4</ele>
        <time>2015-12-06T14:41:05.000Z</time>
      </trkpt>
      <trkpt lat="47.6986" lon="-2.70768">
        <ele>44.6</ele>
        <time>2015-12-06T14:41:06.000Z</time>
      </trkpt>
      <trkpt lat="47.69858" lon="-2.7077">
        <ele>44.7</ele>
        <time>2015-12-06T14:41:07.000Z</time>
      </trkpt>
      <trkpt lat="47.69857" lon="-2.70773">
        <ele>44.9</ele>
        <time>2015-12-06T14:41:08.000Z</time>
      </trkpt>
      <trkpt lat="47.69855" lon="-2.70776">
        <ele>45</ele>
        <time>2015-12-06T14:41:09.000Z</time>
      </trkpt>
      <trkpt lat="47.69854" lon="-2.70779">
        <ele>45.2</ele>
        <time>2015-12-06T14:41:10.000Z</time>
      </trkpt>
      <trkpt lat="47.69853" lon="-2.70783">
        <ele>45.4</ele>
        <time>2015-12-06T14:41:11.000Z</time>
      </trkpt>
      <trkpt lat="47.69852" lon="-2.70787">
        <ele>45.6</ele>
        <time>2015-12-06T14:41:12.000Z</time>
      </trkpt>
      <trkpt lat="47.69852" lon="-2.7079">
        <ele>45.8</ele>
        <time>2015-12-06T14:41:13.000Z</time>
      </trkpt>
      <trkpt lat="47.69851" lon="-2.70793">
        <ele>46.1</ele>
        <time>2015-12-06T14:41:14.000Z</time>
      </trkpt>
      <trkpt lat="47.69851" lon="-2.70796">
        <ele>46.5</ele>
        <time>2015-12-06T14:41:15.000Z</time>
      </trkpt>
      <trkpt lat="47.69851" lon="-2.70799">
        <ele>46.9</ele>
        <time>2015-12-06T14:41:16.000Z</time>
      </trkpt>
      <trkpt lat="47.6985" lon="-2.70802">
        <ele>47.5</ele>
        <time>2015-12-06T14:41:17.000Z</time>
      </trkpt>
      <trkpt lat="47.69848" lon="-2.70807">
        <ele>48.3</ele>
        <time>2015-12-06T14:41:18.000Z</time>
      </trkpt>
      <trkpt lat="47.69847" lon="-2.70812">
        <ele>49.2</ele>
        <time>2015-12-06T14:41:19.000Z</time>
      </trkpt>
      <trkpt lat="47.69844" lon="-2.70818">
        <ele>50.3</ele>
        <time>2015-12-06T14:41:20.000Z</time>
      </trkpt>
      <trkpt lat="47.69843" lon="-2.70824">
        <ele>51.3</ele>
        <time>2015-12-06T14:41:21.000Z</time>
      </trkpt>
      <trkpt lat="47.69841" lon="-2.7083">
        <ele>52.2</ele>
        <time>2015-12-06T14:41:22.000Z</time>
      </trkpt>
      <trkpt lat="47.6984" lon="-2.70835">
        <ele>53.1</ele>
        <time>2015-12-06T14:41:23.000Z</time>
      </trkpt>
      <trkpt lat="47.69839" lon="-2.7084">
        <ele>54</ele>
        <time>2015-12-06T14:41:24.000Z</time>
      </trkpt>
      <trkpt lat="47.69837" lon="-2.70844">
        <ele>54.8</ele>
        <time>2015-12-06T14:41:25.000Z</time>
      </trkpt>
      <trkpt lat="47.69836" lon="-2.70847">
        <ele>55.4</ele>
        <time>2015-12-06T14:41:26.000Z</time>
      </trkpt>
      <trkpt lat="47.69835" lon="-2.7085">
        <ele>55.8</ele>
        <time>2015-12-06T14:41:27.000Z</time>
      </trkpt>
      <trkpt lat="47.69833" lon="-2.70852">
        <ele>56.3</ele>
        <time>2015-12-06T14:41:28.000Z</time>
      </trkpt>
      <trkpt lat="47.69832" lon="-2.70854">
        <ele>56.7</ele>
        <time>2015-12-06T14:41:29.000Z</time>
      </trkpt>
      <trkpt lat="47.6983" lon="-2.70856">
        <ele>57.2</ele>
        <time>2015-12-06T14:41:30.000Z</time>
      </trkpt>
      <trkpt lat="47.69829" lon="-2.70858">
        <ele>57.6</ele>
        <time>2015-12-06T14:41:31.000Z</time>
      </trkpt>
      <trkpt lat="47.69828" lon="-2.7086">
        <ele>58</ele>
        <time>2015-12-06T14:41:32.000Z</time>
      </trkpt>
      <trkpt lat="47.69826" lon="-2.70861">
        <ele>58.3</ele>
        <time>2015-12-06T14:41:33.000Z</time>
      </trkpt>
      <trkpt lat="47.69825" lon="-2.70862">
        <ele>58.4</ele>
        <time>2015-12-06T14:41:34.000Z</time>
      </trkpt>
      <trkpt lat="47.69824" lon="-2.70862">
        <ele>58.5</ele>
        <time>2015-12-06T14:41:35.000Z</time>
      </trkpt>
      <trkpt lat="47.69822" lon="-2.70862">
        <ele>58.7</ele>
        <time>2015-12-06T14:41:36.000Z</time>
      </trkpt>
      <trkpt lat="47.69821" lon="-2.70863">
        <ele>58.9</ele>
        <time>2015-12-06T14:41:37.000Z</time>
      </trkpt>
      <trkpt lat="47.69819" lon="-2.70864">
        <ele>59.2</ele>
        <time>2015-12-06T14:41:38.000Z</time>
      </trkpt>
      <trkpt lat="47.69817" lon="-2.70865">
        <ele>59.4</ele>
        <time>2015-12-06T14:41:39.000Z</time>
      </trkpt>
      <trkpt lat="47.69815" lon="-2.70865">
        <ele>59.6</ele>
        <time>2015-12-06T14:41:40.000Z</time>
      </trkpt>
      <trkpt lat="47.69814" lon="-2.70866">
        <ele>59.8</ele>
        <time>2015-12-06T14:41:41.000Z</time>
      </trkpt>
      <trkpt lat="47.69812" lon="-2.70866">
        <ele>60</ele>
        <time>2015-12-06T14:41:42.000Z</time>
      </trkpt>
      <trkpt lat="47.69811" lon="-2.70867">
        <ele>60.3</ele>
        <time>2015-12-06T14:41:43.000Z</time>
      </trkpt>
      <trkpt lat="47.69809" lon="-2.70868">
        <ele>60.5</ele>
        <time>2015-12-06T14:41:44.000Z</time>
      </trkpt>
      <trkpt lat="47.69808" lon="-2.70869">
        <ele>60.7</ele>
        <time>2015-12-06T14:41:45.000Z</time>
      </trkpt>
      <trkpt lat="47.69807" lon="-2.70869">
        <ele>60.9</ele>
        <time>2015-12-06T14:41:46.000Z</time>
      </trkpt>
      <trkpt lat="47.69805" lon="-2.70869">
        <ele>60.9</ele>
        <time>2015-12-06T14:41:47.000Z</time>
      </trkpt>
      <trkpt lat="47.69803" lon="-2.70869">
        <ele>61</ele>
        <time>2015-12-06T14:41:48.000Z</time>
      </trkpt>
      <trkpt lat="47.69801" lon="-2.70869">
        <ele>61.2</ele>
        <time>2015-12-06T14:41:49.000Z</time>
      </trkpt>
      <trkpt lat="47.698" lon="-2.7087">
        <ele>61.5</ele>
        <time>2015-12-06T14:41:50.000Z</time>
      </trkpt>
      <trkpt lat="47.69798" lon="-2.70871">
        <ele>61.7</ele>
        <time>2015-12-06T14:41:51.000Z</time>
      </trkpt>
      <trkpt lat="47.69798" lon="-2.70872">
        <ele>62</ele>
        <time>2015-12-06T14:41:52.000Z</time>
      </trkpt>
      <trkpt lat="47.69797" lon="-2.70872">
        <ele>62.1</ele>
        <time>2015-12-06T14:41:53.000Z</time>
      </trkpt>
      <trkpt lat="47.69797" lon="-2.70873">
        <ele>62.2</ele>
        <time>2015-12-06T14:41:54.000Z</time>
      </trkpt>
      <trkpt lat="47.69797" lon="-2.70873">
        <ele>62.3</ele>
        <time>2015-12-06T14:41:55.000Z</time>
      </trkpt>
      <trkpt lat="47.69798" lon="-2.70874">
        <ele>62.3</ele>
        <time>2015-12-06T14:41:56.000Z</time>
      </trkpt>
      <trkpt lat="47.69798" lon="-2.70874">
        <ele>62.3</ele>
        <time>2015-12-06T14:41:57.000Z</time>
      </trkpt>
      <trkpt lat="47.69798" lon="-2.70874">
        <ele>62.3</ele>
        <time>2015-12-06T14:41:58.000Z</time>
      </trkpt>
      <trkpt lat="47.69799" lon="-2.70874">
        <ele>62.3</ele>
        <time>2015-12-06T14:41:59.000Z</time>
      </trkpt>
      <trkpt lat="47.698" lon="-2.70874">
        <ele>62.3</ele>
        <time>2015-12-06T14:42:00.000Z</time>
      </trkpt>
      <trkpt lat="47.69801" lon="-2.70875">
        <ele>62.3</ele>
        <time>2015-12-06T14:42:01.000Z</time>
      </trkpt>
      <trkpt lat="47.69802" lon="-2.70875">
        <ele>62.3</ele>
        <time>2015-12-06T14:42:02.000Z</time>
      </trkpt>
      <trkpt lat="47.69804" lon="-2.70875">
        <ele>62.1</ele>
        <time>2015-12-06T14:42:03.000Z</time>
      </trkpt>
      <trkpt lat="47.69806" lon="-2.70875">
        <ele>61.9</ele>
        <time>2015-12-06T14:42:04.000Z</time>
      </trkpt>
      <trkpt lat="47.69809" lon="-2.70875">
        <ele>61.7</ele>
        <time>2015-12-06T14:42:05.000Z</time>
      </trkpt>
      <trkpt lat="47.69812" lon="-2.70875">
        <ele>61.6</ele>
        <time>2015-12-06T14:42:06.000Z</time>
      </trkpt>
      <trkpt lat="47.69814" lon="-2.70876">
        <ele>61.5</ele>
        <time>2015-12-06T14:42:07.000Z</time>
      </trkpt>
      <trkpt lat="47.69817" lon="-2.70877">
        <ele>61.5</ele>
        <time>2015-12-06T14:42:08.000Z</time>
      </trkpt>
      <trkpt lat="47.69819" lon="-2.70878">
        <ele>61.5</ele>
        <time>2015-12-06T14:42:09.000Z</time>
      </trkpt>
      <trkpt lat="47.69821" lon="-2.7088">
        <ele>61.5</ele>
        <time>2015-12-06T14:42:10.000Z</time>
      </trkpt>
      <trkpt lat="47.69823" lon="-2.70882">
        <ele>61.6</ele>
        <time>2015-12-06T14:42:11.000Z</time>
      </trkpt>
      <trkpt lat="47.69826" lon="-2.70884">
        <ele>61.8</ele>
        <time>2015-12-06T14:42:12.000Z</time>
      </trkpt>
      <trkpt lat="47.69829" lon="-2.70887">
        <ele>61.9</ele>
        <time>2015-12-06T14:42:13.000Z</time>
      </trkpt>
      <trkpt lat="47.69832" lon="-2.7089">
        <ele>62.1</ele>
        <time>2015-12-06T14:42:14.000Z</time>
      </trkpt>
      <trkpt lat="47.69834" lon="-2.70892">
        <ele>62.2</ele>
        <time>2015-12-06T14:42:15.000Z</time>
      </trkpt>
      <trkpt lat="47.69836" lon="-2.70893">
        <ele>62.3</ele>
        <time>2015-12-06T14:42:16.000Z</time>
      </trkpt>
      <trkpt lat="47.69836" lon="-2.70895">
        <ele>62.5</ele>
        <time>2015-12-06T14:42:17.000Z</time>
      </trkpt>
      <trkpt lat="47.69837" lon="-2.70897">
        <ele>62.7</ele>
        <time>2015-12-06T14:42:18.000Z</time>
      </trkpt>
      <trkpt lat="47.69837" lon="-2.70899">
        <ele>62.9</ele>
        <time>2015-12-06T14:42:19.000Z</time>
      </trkpt>
      <trkpt lat="47.69838" lon="-2.70901">
        <ele>63.1</ele>
        <time>2015-12-06T14:42:20.000Z</time>
      </trkpt>
      <trkpt lat="47.69838" lon="-2.70903">
        <ele>63.3</ele>
        <time>2015-12-06T14:42:21.000Z</time>
      </trkpt>
      <trkpt lat="47.69839" lon="-2.70905">
        <ele>63.5</ele>
        <time>2015-12-06T14:42:22.000Z</time>
      </trkpt>
      <trkpt lat="47.69839" lon="-2.70907">
        <ele>63.8</ele>
        <time>2015-12-06T14:42:23.000Z</time>
      </trkpt>
      <trkpt lat="47.6984" lon="-2.70908">
        <ele>63.9</ele>
        <time>2015-12-06T14:42:24.000Z</time>
      </trkpt>
      <trkpt lat="47.6984" lon="-2.70908">
        <ele>63.9</ele>
        <time>2015-12-06T14:42:25.000Z</time>
      </trkpt>
      <trkpt lat="47.69841" lon="-2.70908">
        <ele>63.8</ele>
        <time>2015-12-06T14:42:26.000Z</time>
      </trkpt>
      <trkpt lat="47.69841" lon="-2.70908">
        <ele>63.8</ele>
        <time>2015-12-06T14:42:27.000Z</time>
      </trkpt>
      <trkpt lat="47.69842" lon="-2.70908">
        <ele>63.8</ele>
        <time>2015-12-06T14:42:28.000Z</time>
      </trkpt>
      <trkpt lat="47.69842" lon="-2.70909">
        <ele>63.8</ele>
        <time>2015-12-06T14:42:29.000Z</time>
      </trkpt>
      <trkpt lat="47.69843" lon="-2.7091">
        <ele>63.9</ele>
        <time>2015-12-06T14:42:30.000Z</time>
      </trkpt>
      <trkpt lat="47.69843" lon="-2.70911">
        <ele>64</ele>
        <time>2015-12-06T14:42:31.000Z</time>
      </trkpt>
      <trkpt lat="47.69844" lon="-2.70912">
        <ele>64.1</ele>
        <time>2015-12-06T14:42:32.000Z</time>
      </trkpt>
      <trkpt lat="47.69844" lon="-2.70914">
        <ele>64.3</ele>
        <time>2015-12-06T14:42:33.000Z</time>
      </trkpt>
      <trkpt lat="47.69844" lon="-2.70915">
        <ele>64.6</ele>
        <time>2015-12-06T14:42:34.000Z</time>
      </trkpt>
      <trkpt lat="47.69844" lon="-2.70917">
        <ele>64.8</ele>
        <time>2015-12-06T14:42:35.000Z</time>
      </trkpt>
      <trkpt lat="47.69844" lon="-2.70919">
        <ele>65.1</ele>
        <time>2015-12-06T14:42:36.000Z</time>
      </trkpt>
      <trkpt lat="47.69845" lon="-2.70922">
        <ele>65.4</ele>
        <time>2015-12-06T14:42:37.000Z</time>
      </trkpt>
      <trkpt lat="47.69845" lon="-2.70924">
        <ele>65.7</ele>
        <time>2015-12-06T14:42:38.000Z</time>
      </trkpt>
      <trkpt lat="47.69845" lon="-2.70927">
        <ele>65.9</ele>
        <time>2015-12-06T14:42:39.000Z</time>
      </trkpt>
      <trkpt lat="47.69846" lon="-2.70929">
        <ele>66.2</ele>
        <time>2015-12-06T14:42:40.000Z</time>
      </trkpt>
      <trkpt lat="47.69847" lon="-2.70931">
        <ele>66.4</ele>
        <time>2015-12-06T14:42:41.000Z</time>
      </trkpt>
      <trkpt lat="47.69847" lon="-2.70933">
        <ele>66.7</ele>
        <time>2015-12-06T14:42:42.000Z</time>
      </trkpt>
      <trkpt lat="47.69848" lon="-2.70935">
        <ele>66.9</ele>
        <time>2015-12-06T14:42:43.000Z</time>
      </trkpt>
      <trkpt lat="47.69848" lon="-2.70938">
        <ele>67.2</ele>
        <time>2015-12-06T14:42:44.000Z</time>
      </trkpt>
      <trkpt lat="47.69848" lon="-2.7094">
        <ele>67.5</ele>
        <time>2015-12-06T14:42:45.000Z</time>
      </trkpt>
      <trkpt lat="47.69848" lon="-2.70942">
        <ele>67.8</ele>
        <time>2015-12-06T14:42:46.000Z</time>
      </trkpt>
      <trkpt lat="47.69847" lon="-2.70944">
        <ele>68.1</ele>
        <time>2015-12-06T14:42:47.000Z</time>
      </trkpt>
      <trkpt lat="47.69847" lon="-2.70946">
        <ele>68.4</ele>
        <time>2015-12-06T14:42:48.000Z</time>
      </trkpt>
      <trkpt lat="47.69847" lon="-2.70949">
        <ele>68.8</ele>
        <time>2015-12-06T14:42:49.000Z</time>
      </trkpt>
      <trkpt lat="47.69846" lon="-2.70952">
        <ele>69.2</ele>
        <time>2015-12-06T14:42:50.000Z</time>
      </trkpt>
      <trkpt lat="47.69845" lon="-2.70954">
        <ele>69.6</ele>
        <time>2015-12-06T14:42:51.000Z</time>
      </trkpt>
      <trkpt lat="47.69845" lon="-2.70955">
        <ele>69.7</ele>
        <time>2015-12-06T14:42:52.000Z</time>
      </trkpt>
      <trkpt lat="47.69844" lon="-2.70955">
        <ele>69.8</ele>
        <time>2015-12-06T14:42:53.000Z</time>
      </trkpt>
      <trkpt lat="47.69844" lon="-2.70956">
        <ele>69.9</ele>
        <time>2015-12-06T14:42:54.000Z</time>
      </trkpt>
      <trkpt lat="47.69843" lon="-2.70956">
        <ele>69.9</ele>
        <time>2015-12-06T14:42:55.000Z</time>
      </trkpt>
      <trkpt lat="47.69843" lon="-2.70955">
        <ele>69.9</ele>
        <time>2015-12-06T14:42:56.000Z</time>
      </trkpt>
      <trkpt lat="47.69842" lon="-2.70954">
        <ele>69.8</ele>
        <time>2015-12-06T14:42:57.000Z</time>
      </trkpt>
      <trkpt lat="47.69842" lon="-2.70954">
        <ele>69.8</ele>
        <time>2015-12-06T14:42:58.000Z</time>
      </trkpt>
      <trkpt lat="47.69841" lon="-2.70953">
        <ele>69.7</ele>
        <time>2015-12-06T14:42:59.000Z</time>
      </trkpt>
      <trkpt lat="47.69841" lon="-2.70953">
        <ele>69.7</ele>
        <time>2015-12-06T14:43:00.000Z</time>
      </trkpt>
      <trkpt lat="47.6984" lon="-2.70952">
        <ele>69.7</ele>
        <time>2015-12-06T14:43:01.000Z</time>
      </trkpt>
      <trkpt lat="47.69839" lon="-2.70951">
        <ele>69.7</ele>
        <time>2015-12-06T14:43:02.000Z</time>
      </trkpt>
      <trkpt lat="47.69838" lon="-2.70951">
        <ele>69.7</ele>
        <time>2015-12-06T14:43:03.000Z</time>
      </trkpt>
      <trkpt lat="47.69837" lon="-2.7095">
        <ele>69.7</ele>
        <time>2015-12-06T14:43:04.000Z</time>
      </trkpt>
      <trkpt lat="47.69836" lon="-2.70949">
        <ele>69.6</ele>
        <time>2015-12-06T14:43:05.000Z</time>
      </trkpt>
      <trkpt lat="47.69835" lon="-2.70948">
        <ele>69.6</ele>
        <time>2015-12-06T14:43:06.000Z</time>
      </trkpt>
      <trkpt lat="47.69833" lon="-2.70948">
        <ele>69.6</ele>
        <time>2015-12-06T14:43:07.000Z</time>
      </trkpt>
      <trkpt lat="47.69832" lon="-2.70947">
        <ele>69.6</ele>
        <time>2015-12-06T14:43:08.000Z</time>
      </trkpt>
      <trkpt lat="47.69831" lon="-2.70946">
        <ele>69.6</ele>
        <time>2015-12-06T14:43:09.000Z</time>
      </trkpt>
      <trkpt lat="47.6983" lon="-2.70946">
        <ele>69.6</ele>
        <time>2015-12-06T14:43:10.000Z</time>
      </trkpt>
      <trkpt lat="47.69828" lon="-2.70946">
        <ele>69.7</ele>
        <time>2015-12-06T14:43:11.000Z</time>
      </trkpt>
      <trkpt lat="47.69827" lon="-2.70946">
        <ele>69.9</ele>
        <time>2015-12-06T14:43:12.000Z</time>
      </trkpt>
      <trkpt lat="47.69825" lon="-2.70946">
        <ele>69.9</ele>
        <time>2015-12-06T14:43:13.000Z</time>
      </trkpt>
      <trkpt lat="47.69824" lon="-2.70945">
        <ele>69.9</ele>
        <time>2015-12-06T14:43:14.000Z</time>
      </trkpt>
      <trkpt lat="47.69822" lon="-2.70944">
        <ele>69.9</ele>
        <time>2015-12-06T14:43:15.000Z</time>
      </trkpt>
      <trkpt lat="47.69821" lon="-2.70942">
        <ele>69.8</ele>
        <time>2015-12-06T14:43:16.000Z</time>
      </trkpt>
      <trkpt lat="47.69819" lon="-2.70941">
        <ele>69.7</ele>
        <time>2015-12-06T14:43:17.000Z</time>
      </trkpt>
      <trkpt lat="47.69818" lon="-2.70941">
        <ele>69.8</ele>
        <time>2015-12-06T14:43:18.000Z</time>
      </trkpt>
      <trkpt lat="47.69817" lon="-2.7094">
        <ele>69.8</ele>
        <time>2015-12-06T14:43:19.000Z</time>
      </trkpt>
      <trkpt lat="47.69815" lon="-2.70941">
        <ele>69.9</ele>
        <time>2015-12-06T14:43:20.000Z</time>
      </trkpt>
      <trkpt lat="47.69815" lon="-2.70941">
        <ele>70.1</ele>
        <time>2015-12-06T14:43:21.000Z</time>
      </trkpt>
      <trkpt lat="47.69814" lon="-2.70941">
        <ele>70.2</ele>
        <time>2015-12-06T14:43:22.000Z</time>
      </trkpt>
      <trkpt lat="47.69813" lon="-2.70942">
        <ele>70.3</ele>
        <time>2015-12-06T14:43:23.000Z</time>
      </trkpt>
      <trkpt lat="47.69812" lon="-2.70942">
        <ele>70.4</ele>
        <time>2015-12-06T14:43:24.000Z</time>
      </trkpt>
      <trkpt lat="47.69811" lon="-2.70942">
        <ele>70.4</ele>
        <time>2015-12-06T14:43:25.000Z</time>
      </trkpt>
      <trkpt lat="47.6981" lon="-2.70942">
        <ele>70.5</ele>
        <time>2015-12-06T14:43:26.000Z</time>
      </trkpt>
      <trkpt lat="47.69808" lon="-2.70942">
        <ele>70.6</ele>
        <time>2015-12-06T14:43:27.000Z</time>
      </trkpt>
      <trkpt lat="47.69807" lon="-2.70942">
        <ele>70.8</ele>
        <time>2015-12-06T14:43:28.000Z</time>
      </trkpt>
      <trkpt lat="47.69806" lon="-2.70942">
        <ele>70.9</ele>
        <time>2015-12-06T14:43:29.000Z</time>
      </trkpt>
      <trkpt lat="47.69805" lon="-2.70943">
        <ele>71</ele>
        <time>2015-12-06T14:43:30.000Z</time>
      </trkpt>
      <trkpt lat="47.69804" lon="-2.70943">
        <ele>71.1</ele>
        <time>2015-12-06T14:43:31.000Z</time>
      </trkpt>
      <trkpt lat="47.69802" lon="-2.70943">
        <ele>71.3</ele>
        <time>2015-12-06T14:43:32.000Z</time>
      </trkpt>
      <trkpt lat="47.698" lon="-2.70944">
        <ele>71.5</ele>
        <time>2015-12-06T14:43:33.000Z</time>
      </trkpt>
      <trkpt lat="47.69799" lon="-2.70944">
        <ele>71.6</ele>
        <time>2015-12-06T14:43:34.000Z</time>
      </trkpt>
      <trkpt lat="47.69798" lon="-2.70944">
        <ele>71.7</ele>
        <time>2015-12-06T14:43:35.000Z</time>
      </trkpt>
      <trkpt lat="47.69796" lon="-2.70944">
        <ele>71.8</ele>
        <time>2015-12-06T14:43:36.000Z</time>
      </trkpt>
      <trkpt lat="47.69795" lon="-2.70944">
        <ele>71.9</ele>
        <time>2015-12-06T14:43:37.000Z</time>
      </trkpt>
      <trkpt lat="47.69793" lon="-2.70945">
        <ele>72.1</ele>
        <time>2015-12-06T14:43:38.000Z</time>
      </trkpt>
      <trkpt lat="47.69789" lon="-2.70945">
        <ele>72.1</ele>
        <time>2015-12-06T14:43:39.000Z</time>
      </trkpt>
      <trkpt lat="47.69786" lon="-2.70945">
        <ele>72</ele>
        <time>2015-12-06T14:43:40.000Z</time>
      </trkpt>
      <trkpt lat="47.69782" lon="-2.70945">
        <ele>71.9</ele>
        <time>2015-12-06T14:43:41.000Z</time>
      </trkpt>
      <trkpt lat="47.69779" lon="-2.70946">
        <ele>71.8</ele>
        <time>2015-12-06T14:43:42.000Z</time>
      </trkpt>
      <trkpt lat="47.69777" lon="-2.70947">
        <ele>71.8</ele>
        <time>2015-12-06T14:43:43.000Z</time>
      </trkpt>
      <trkpt lat="47.69774" lon="-2.70948">
        <ele>71.8</ele>
        <time>2015-12-06T14:43:44.000Z</time>
      </trkpt>
      <trkpt lat="47.69771" lon="-2.70948">
        <ele>71.7</ele>
        <time>2015-12-06T14:43:45.000Z</time>
      </trkpt>
      <trkpt lat="47.69768" lon="-2.70949">
        <ele>71.6</ele>
        <time>2015-12-06T14:43:46.000Z</time>
      </trkpt>
      <trkpt lat="47.69765" lon="-2.70949">
        <ele>71.6</ele>
        <time>2015-12-06T14:43:47.000Z</time>
      </trkpt>
      <trkpt lat="47.69764" lon="-2.70949">
        <ele>71.5</ele>
        <time>2015-12-06T14:43:48.000Z</time>
      </trkpt>
      <trkpt lat="47.69761" lon="-2.70949">
        <ele>71.4</ele>
        <time>2015-12-06T14:43:49.000Z</time>
      </trkpt>
      <trkpt lat="47.69759" lon="-2.70949">
        <ele>71.4</ele>
        <time>2015-12-06T14:43:50.000Z</time>
      </trkpt>
      <trkpt lat="47.69757" lon="-2.7095">
        <ele>71.3</ele>
        <time>2015-12-06T14:43:51.000Z</time>
      </trkpt>
      <trkpt lat="47.69755" lon="-2.7095">
        <ele>71.2</ele>
        <time>2015-12-06T14:43:52.000Z</time>
      </trkpt>
      <trkpt lat="47.69753" lon="-2.7095">
        <ele>71.1</ele>
        <time>2015-12-06T14:43:53.000Z</time>
      </trkpt>
      <trkpt lat="47.6975" lon="-2.70949">
        <ele>70.9</ele>
        <time>2015-12-06T14:43:54.000Z</time>
      </trkpt>
      <trkpt lat="47.69748" lon="-2.70949">
        <ele>70.8</ele>
        <time>2015-12-06T14:43:55.000Z</time>
      </trkpt>
      <trkpt lat="47.69745" lon="-2.70949">
        <ele>70.6</ele>
        <time>2015-12-06T14:43:56.000Z</time>
      </trkpt>
      <trkpt lat="47.69742" lon="-2.70949">
        <ele>70.5</ele>
        <time>2015-12-06T14:43:57.000Z</time>
      </trkpt>
      <trkpt lat="47.69739" lon="-2.70949">
        <ele>70.4</ele>
        <time>2015-12-06T14:43:58.000Z</time>
      </trkpt>
      <trkpt lat="47.69735" lon="-2.7095">
        <ele>70.3</ele>
        <time>2015-12-06T14:43:59.000Z</time>
      </trkpt>
      <trkpt lat="47.69732" lon="-2.7095">
        <ele>70.2</ele>
        <time>2015-12-06T14:44:00.000Z</time>
      </trkpt>
      <trkpt lat="47.6973" lon="-2.70951">
        <ele>70.1</ele>
        <time>2015-12-06T14:44:01.000Z</time>
      </trkpt>
      <trkpt lat="47.69727" lon="-2.70951">
        <ele>70</ele>
        <time>2015-12-06T14:44:02.000Z</time>
      </trkpt>
      <trkpt lat="47.69724" lon="-2.7095">
        <ele>69.8</ele>
        <time>2015-12-06T14:44:03.000Z</time>
      </trkpt>
      <trkpt lat="47.69721" lon="-2.7095">
        <ele>69.7</ele>
        <time>2015-12-06T14:44:04.000Z</time>
      </trkpt>
      <trkpt lat="47.69718" lon="-2.7095">
        <ele>69.5</ele>
        <time>2015-12-06T14:44:05.000Z</time>
      </trkpt>
      <trkpt lat="47.69715" lon="-2.70949">
        <ele>69.3</ele>
        <time>2015-12-06T14:44:06.000Z</time>
      </trkpt>
      <trkpt lat="47.69712" lon="-2.70949">
        <ele>69.1</ele>
        <time>2015-12-06T14:44:07.000Z</time>
      </trkpt>
      <trkpt lat="47.6971" lon="-2.70948">
        <ele>68.9</ele>
        <time>2015-12-06T14:44:08.000Z</time>
      </trkpt>
      <trkpt lat="47.69707" lon="-2.70947">
        <ele>68.6</ele>
        <time>2015-12-06T14:44:09.000Z</time>
      </trkpt>
      <trkpt lat="47.69704" lon="-2.70947">
        <ele>68.2</ele>
        <time>2015-12-06T14:44:10.000Z</time>
      </trkpt>
      <trkpt lat="47.69701" lon="-2.70948">
        <ele>67.8</ele>
        <time>2015-12-06T14:44:11.000Z</time>
      </trkpt>
      <trkpt lat="47.69698" lon="-2.70948">
        <ele>67.3</ele>
        <time>2015-12-06T14:44:12.000Z</time>
      </trkpt>
      <trkpt lat="47.69695" lon="-2.70949">
        <ele>66.9</ele>
        <time>2015-12-06T14:44:13.000Z</time>
      </trkpt>
      <trkpt lat="47.69691" lon="-2.70949">
        <ele>66.4</ele>
        <time>2015-12-06T14:44:14.000Z</time>
      </trkpt>
      <trkpt lat="47.69687" lon="-2.70949">
        <ele>65.7</ele>
        <time>2015-12-06T14:44:15.000Z</time>
      </trkpt>
      <trkpt lat="47.69682" lon="-2.70948">
        <ele>64.8</ele>
        <time>2015-12-06T14:44:16.000Z</time>
      </trkpt>
      <trkpt lat="47.69676" lon="-2.70947">
        <ele>63.9</ele>
        <time>2015-12-06T14:44:17.000Z</time>
      </trkpt>
      <trkpt lat="47.69672" lon="-2.70945">
        <ele>63.1</ele>
        <time>2015-12-06T14:44:18.000Z</time>
      </trkpt>
      <trkpt lat="47.69666" lon="-2.70944">
        <ele>62.1</ele>
        <time>2015-12-06T14:44:19.000Z</time>
      </trkpt>
      <trkpt lat="47.6966" lon="-2.70942">
        <ele>61.1</ele>
        <time>2015-12-06T14:44:20.000Z</time>
      </trkpt>
      <trkpt lat="47.69654" lon="-2.70941">
        <ele>60.1</ele>
        <time>2015-12-06T14:44:21.000Z</time>
      </trkpt>
      <trkpt lat="47.69647" lon="-2.70941">
        <ele>59.1</ele>
        <time>2015-12-06T14:44:22.000Z</time>
      </trkpt>
      <trkpt lat="47.69641" lon="-2.70941">
        <ele>58.1</ele>
        <time>2015-12-06T14:44:23.000Z</time>
      </trkpt>
      <trkpt lat="47.69634" lon="-2.70943">
        <ele>57.3</ele>
        <time>2015-12-06T14:44:24.000Z</time>
      </trkpt>
      <trkpt lat="47.69628" lon="-2.70946">
        <ele>56.6</ele>
        <time>2015-12-06T14:44:25.000Z</time>
      </trkpt>
      <trkpt lat="47.69622" lon="-2.7095">
        <ele>55.9</ele>
        <time>2015-12-06T14:44:26.000Z</time>
      </trkpt>
      <trkpt lat="47.69616" lon="-2.70954">
        <ele>55.1</ele>
        <time>2015-12-06T14:44:27.000Z</time>
      </trkpt>
      <trkpt lat="47.69611" lon="-2.70957">
        <ele>54.4</ele>
        <time>2015-12-06T14:44:28.000Z</time>
      </trkpt>
      <trkpt lat="47.69606" lon="-2.70962">
        <ele>53.7</ele>
        <time>2015-12-06T14:44:29.000Z</time>
      </trkpt>
      <trkpt lat="47.69601" lon="-2.70967">
        <ele>53</ele>
        <time>2015-12-06T14:44:30.000Z</time>
      </trkpt>
      <trkpt lat="47.69596" lon="-2.70973">
        <ele>52.4</ele>
        <time>2015-12-06T14:44:31.000Z</time>
      </trkpt>
      <trkpt lat="47.69591" lon="-2.70979">
        <ele>51.8</ele>
        <time>2015-12-06T14:44:32.000Z</time>
      </trkpt>
      <trkpt lat="47.69587" lon="-2.70985">
        <ele>51.3</ele>
        <time>2015-12-06T14:44:33.000Z</time>
      </trkpt>
      <trkpt lat="47.69584" lon="-2.70993">
        <ele>51</ele>
        <time>2015-12-06T14:44:34.000Z</time>
      </trkpt>
      <trkpt lat="47.69579" lon="-2.71002">
        <ele>50.5</ele>
        <time>2015-12-06T14:44:35.000Z</time>
      </trkpt>
      <trkpt lat="47.69573" lon="-2.71013">
        <ele>49.8</ele>
        <time>2015-12-06T14:44:36.000Z</time>
      </trkpt>
      <trkpt lat="47.69566" lon="-2.71023">
        <ele>49</ele>
        <time>2015-12-06T14:44:37.000Z</time>
      </trkpt>
      <trkpt lat="47.6956" lon="-2.71031">
        <ele>48.1</ele>
        <time>2015-12-06T14:44:38.000Z</time>
      </trkpt>
      <trkpt lat="47.69555" lon="-2.71038">
        <ele>47.5</ele>
        <time>2015-12-06T14:44:39.000Z</time>
      </trkpt>
      <trkpt lat="47.69552" lon="-2.71045">
        <ele>47.2</ele>
        <time>2015-12-06T14:44:40.000Z</time>
      </trkpt>
      <trkpt lat="47.69549" lon="-2.71051">
        <ele>47.1</ele>
        <time>2015-12-06T14:44:41.000Z</time>
      </trkpt>
      <trkpt lat="47.69546" lon="-2.71057">
        <ele>47</ele>
        <time>2015-12-06T14:44:42.000Z</time>
      </trkpt>
      <trkpt lat="47.69543" lon="-2.71063">
        <ele>47</ele>
        <time>2015-12-06T14:44:43.000Z</time>
      </trkpt>
      <trkpt lat="47.69541" lon="-2.71069">
        <ele>47.2</ele>
        <time>2015-12-06T14:44:44.000Z</time>
      </trkpt>
      <trkpt lat="47.69539" lon="-2.71074">
        <ele>47.6</ele>
        <time>2015-12-06T14:44:45.000Z</time>
      </trkpt>
      <trkpt lat="47.69539" lon="-2.71081">
        <ele>48</ele>
        <time>2015-12-06T14:44:46.000Z</time>
      </trkpt>
      <trkpt lat="47.69538" lon="-2.71086">
        <ele>48.5</ele>
        <time>2015-12-06T14:44:47.000Z</time>
      </trkpt>
      <trkpt lat="47.69538" lon="-2.71091">
        <ele>48.9</ele>
        <time>2015-12-06T14:44:48.000Z</time>
      </trkpt>
      <trkpt lat="47.69538" lon="-2.71095">
        <ele>49.2</ele>
        <time>2015-12-06T14:44:49.000Z</time>
      </trkpt>
      <trkpt lat="47.69538" lon="-2.711">
        <ele>49.6</ele>
        <time>2015-12-06T14:44:50.000Z</time>
      </trkpt>
      <trkpt lat="47.69539" lon="-2.71104">
        <ele>50</ele>
        <time>2015-12-06T14:44:51.000Z</time>
      </trkpt>
      <trkpt lat="47.69539" lon="-2.71109">
        <ele>50.4</ele>
        <time>2015-12-06T14:44:52.000Z</time>
      </trkpt>
      <trkpt lat="47.69539" lon="-2.71113">
        <ele>50.7</ele>
        <time>2015-12-06T14:44:53.000Z</time>
      </trkpt>
      <trkpt lat="47.69539" lon="-2.71117">
        <ele>51.1</ele>
        <time>2015-12-06T14:44:54.000Z</time>
      </trkpt>
      <trkpt lat="47.69539" lon="-2.71121">
        <ele>51.3</ele>
        <time>2015-12-06T14:44:55.000Z</time>
      </trkpt>
      <trkpt lat="47.69538" lon="-2.71125">
        <ele>51.6</ele>
        <time>2015-12-06T14:44:56.000Z</time>
      </trkpt>
      <trkpt lat="47.69537" lon="-2.71128">
        <ele>51.7</ele>
        <time>2015-12-06T14:44:57.000Z</time>
      </trkpt>
      <trkpt lat="47.69537" lon="-2.71132">
        <ele>51.8</ele>
        <time>2015-12-06T14:44:58.000Z</time>
      </trkpt>
      <trkpt lat="47.69536" lon="-2.71137">
        <ele>51.9</ele>
        <time>2015-12-06T14:44:59.000Z</time>
      </trkpt>
      <trkpt lat="47.69536" lon="-2.71142">
        <ele>52.1</ele>
        <time>2015-12-06T14:45:00.000Z</time>
      </trkpt>
      <trkpt lat="47.69536" lon="-2.71148">
        <ele>52.3</ele>
        <time>2015-12-06T14:45:01.000Z</time>
      </trkpt>
      <trkpt lat="47.69536" lon="-2.71153">
        <ele>52.5</ele>
        <time>2015-12-06T14:45:02.000Z</time>
      </trkpt>
      <trkpt lat="47.69535" lon="-2.71158">
        <ele>52.6</ele>
        <time>2015-12-06T14:45:03.000Z</time>
      </trkpt>
      <trkpt lat="47.69535" lon="-2.71163">
        <ele>52.8</ele>
        <time>2015-12-06T14:45:04.000Z</time>
      </trkpt>
      <trkpt lat="47.69535" lon="-2.71167">
        <ele>52.9</ele>
        <time>2015-12-06T14:45:05.000Z</time>
      </trkpt>
      <trkpt lat="47.69534" lon="-2.71171">
        <ele>53</ele>
        <time>2015-12-06T14:45:06.000Z</time>
      </trkpt>
      <trkpt lat="47.69534" lon="-2.71174">
        <ele>53.1</ele>
        <time>2015-12-06T14:45:07.000Z</time>
      </trkpt>
      <trkpt lat="47.69533" lon="-2.71177">
        <ele>53.1</ele>
        <time>2015-12-06T14:45:08.000Z</time>
      </trkpt>
      <trkpt lat="47.69532" lon="-2.71179">
        <ele>53.1</ele>
        <time>2015-12-06T14:45:09.000Z</time>
      </trkpt>
      <trkpt lat="47.6953" lon="-2.7118">
        <ele>53</ele>
        <time>2015-12-06T14:45:10.000Z</time>
      </trkpt>
      <trkpt lat="47.69528" lon="-2.71179">
        <ele>52.7</ele>
        <time>2015-12-06T14:45:11.000Z</time>
      </trkpt>
      <trkpt lat="47.69526" lon="-2.71176">
        <ele>52.5</ele>
        <time>2015-12-06T14:45:12.000Z</time>
      </trkpt>
      <trkpt lat="47.69524" lon="-2.71172">
        <ele>52.1</ele>
        <time>2015-12-06T14:45:13.000Z</time>
      </trkpt>
      <trkpt lat="47.69521" lon="-2.71168">
        <ele>51.7</ele>
        <time>2015-12-06T14:45:14.000Z</time>
      </trkpt>
      <trkpt lat="47.69518" lon="-2.71162">
        <ele>51.2</ele>
        <time>2015-12-06T14:45:15.000Z</time>
      </trkpt>
      <trkpt lat="47.69516" lon="-2.71155">
        <ele>50.7</ele>
        <time>2015-12-06T14:45:16.000Z</time>
      </trkpt>
      <trkpt lat="47.69512" lon="-2.71149">
        <ele>50.1</ele>
        <time>2015-12-06T14:45:17.000Z</time>
      </trkpt>
      <trkpt lat="47.69506" lon="-2.71142">
        <ele>49.3</ele>
        <time>2015-12-06T14:45:18.000Z</time>
      </trkpt>
      <trkpt lat="47.695" lon="-2.71136">
        <ele>48.5</ele>
        <time>2015-12-06T14:45:19.000Z</time>
      </trkpt>
      <trkpt lat="47.69493" lon="-2.71132">
        <ele>47.6</ele>
        <time>2015-12-06T14:45:20.000Z</time>
      </trkpt>
      <trkpt lat="47.69486" lon="-2.71131">
        <ele>46.9</ele>
        <time>2015-12-06T14:45:21.000Z</time>
      </trkpt>
      <trkpt lat="47.69478" lon="-2.71132">
        <ele>46.3</ele>
        <time>2015-12-06T14:45:22.000Z</time>
      </trkpt>
      <trkpt lat="47.69471" lon="-2.71136">
        <ele>45.7</ele>
        <time>2015-12-06T14:45:23.000Z</time>
      </trkpt>
      <trkpt lat="47.69463" lon="-2.71139">
        <ele>45.1</ele>
        <time>2015-12-06T14:45:24.000Z</time>
      </trkpt>
      <trkpt lat="47.69456" lon="-2.71142">
        <ele>44.6</ele>
        <time>2015-12-06T14:45:25.000Z</time>
      </trkpt>
      <trkpt lat="47.69449" lon="-2.71146">
        <ele>44.1</ele>
        <time>2015-12-06T14:45:26.000Z</time>
      </trkpt>
      <trkpt lat="47.69442" lon="-2.71149">
        <ele>43.6</ele>
        <time>2015-12-06T14:45:27.000Z</time>
      </trkpt>
      <trkpt lat="47.69435" lon="-2.71152">
        <ele>43.1</ele>
        <time>2015-12-06T14:45:28.000Z</time>
      </trkpt>
      <trkpt lat="47.69429" lon="-2.71153">
        <ele>42.5</ele>
        <time>2015-12-06T14:45:29.000Z</time>
      </trkpt>
      <trkpt lat="47.69422" lon="-2.71153">
        <ele>41.9</ele>
        <time>2015-12-06T14:45:30.000Z</time>
      </trkpt>
      <trkpt lat="47.69416" lon="-2.71154">
        <ele>41.3</ele>
        <time>2015-12-06T14:45:31.000Z</time>
      </trkpt>
      <trkpt lat="47.6941" lon="-2.71154">
        <ele>40.7</ele>
        <time>2015-12-06T14:45:32.000Z</time>
      </trkpt>
      <trkpt lat="47.69405" lon="-2.71156">
        <ele>40.3</ele>
        <time>2015-12-06T14:45:33.000Z</time>
      </trkpt>
      <trkpt lat="47.694" lon="-2.71159">
        <ele>40</ele>
        <time>2015-12-06T14:45:34.000Z</time>
      </trkpt>
      <trkpt lat="47.69394" lon="-2.71162">
        <ele>39.6</ele>
        <time>2015-12-06T14:45:35.000Z</time>
      </trkpt>
      <trkpt lat="47.69389" lon="-2.71166">
        <ele>39.3</ele>
        <time>2015-12-06T14:45:36.000Z</time>
      </trkpt>
      <trkpt lat="47.69383" lon="-2.7117">
        <ele>38.9</ele>
        <time>2015-12-06T14:45:37.000Z</time>
      </trkpt>
      <trkpt lat="47.69378" lon="-2.71174">
        <ele>38.6</ele>
        <time>2015-12-06T14:45:38.000Z</time>
      </trkpt>
      <trkpt lat="47.69372" lon="-2.71179">
        <ele>38.4</ele>
        <time>2015-12-06T14:45:39.000Z</time>
      </trkpt>
      <trkpt lat="47.69366" lon="-2.71183">
        <ele>38.4</ele>
        <time>2015-12-06T14:45:40.000Z</time>
      </trkpt>
      <trkpt lat="47.6936" lon="-2.71186">
        <ele>38.3</ele>
        <time>2015-12-06T14:45:41.000Z</time>
      </trkpt>
      <trkpt lat="47.69353" lon="-2.7119">
        <ele>38.2</ele>
        <time>2015-12-06T14:45:42.000Z</time>
      </trkpt>
      <trkpt lat="47.69347" lon="-2.71195">
        <ele>38.1</ele>
        <time>2015-12-06T14:45:43.000Z</time>
      </trkpt>
      <trkpt lat="47.6934" lon="-2.712">
        <ele>38</ele>
        <time>2015-12-06T14:45:44.000Z</time>
      </trkpt>
      <trkpt lat="47.69334" lon="-2.71205">
        <ele>37.9</ele>
        <time>2015-12-06T14:45:45.000Z</time>
      </trkpt>
      <trkpt lat="47.69328" lon="-2.7121">
        <ele>37.7</ele>
        <time>2015-12-06T14:45:46.000Z</time>
      </trkpt>
      <trkpt lat="47.69322" lon="-2.71215">
        <ele>37.5</ele>
        <time>2015-12-06T14:45:47.000Z</time>
      </trkpt>
      <trkpt lat="47.69317" lon="-2.71222">
        <ele>37.3</ele>
        <time>2015-12-06T14:45:48.000Z</time>
      </trkpt>
      <trkpt lat="47.69312" lon="-2.71228">
        <ele>37</ele>
        <time>2015-12-06T14:45:49.000Z</time>
      </trkpt>
      <trkpt lat="47.69307" lon="-2.71236">
        <ele>36.8</ele>
        <time>2015-12-06T14:45:50.000Z</time>
      </trkpt>
      <trkpt lat="47.69302" lon="-2.71242">
        <ele>36.6</ele>
        <time>2015-12-06T14:45:51.000Z</time>
      </trkpt>
      <trkpt lat="47.69298" lon="-2.71249">
        <ele>36.3</ele>
        <time>2015-12-06T14:45:52.000Z</time>
      </trkpt>
      <trkpt lat="47.69293" lon="-2.71256">
        <ele>36.1</ele>
        <time>2015-12-06T14:45:53.000Z</time>
      </trkpt>
      <trkpt lat="47.69288" lon="-2.71263">
        <ele>35.8</ele>
        <time>2015-12-06T14:45:54.000Z</time>
      </trkpt>
      <trkpt lat="47.69284" lon="-2.71271">
        <ele>35.6</ele>
        <time>2015-12-06T14:45:55.000Z</time>
      </trkpt>
      <trkpt lat="47.69281" lon="-2.71279">
        <ele>35.4</ele>
        <time>2015-12-06T14:45:56.000Z</time>
      </trkpt>
      <trkpt lat="47.69278" lon="-2.71287">
        <ele>35.2</ele>
        <time>2015-12-06T14:45:57.000Z</time>
      </trkpt>
      <trkpt lat="47.69275" lon="-2.71295">
        <ele>35</ele>
        <time>2015-12-06T14:45:58.000Z</time>
      </trkpt>
      <trkpt lat="47.69273" lon="-2.71302">
        <ele>34.8</ele>
        <time>2015-12-06T14:45:59.000Z</time>
      </trkpt>
      <trkpt lat="47.69271" lon="-2.71308">
        <ele>34.6</ele>
        <time>2015-12-06T14:46:00.000Z</time>
      </trkpt>
      <trkpt lat="47.69268" lon="-2.71314">
        <ele>34.4</ele>
        <time>2015-12-06T14:46:01.000Z</time>
      </trkpt>
      <trkpt lat="47.69265" lon="-2.71321">
        <ele>34.2</ele>
        <time>2015-12-06T14:46:02.000Z</time>
      </trkpt>
      <trkpt lat="47.69263" lon="-2.71329">
        <ele>34</ele>
        <time>2015-12-06T14:46:03.000Z</time>
      </trkpt>
      <trkpt lat="47.6926" lon="-2.71337">
        <ele>33.8</ele>
        <time>2015-12-06T14:46:04.000Z</time>
      </trkpt>
      <trkpt lat="47.69258" lon="-2.71344">
        <ele>33.6</ele>
        <time>2015-12-06T14:46:05.000Z</time>
      </trkpt>
      <trkpt lat="47.69257" lon="-2.71352">
        <ele>33.5</ele>
        <time>2015-12-06T14:46:06.000Z</time>
      </trkpt>
      <trkpt lat="47.69255" lon="-2.71359">
        <ele>33.4</ele>
        <time>2015-12-06T14:46:07.000Z</time>
      </trkpt>
      <trkpt lat="47.69254" lon="-2.71367">
        <ele>33.2</ele>
        <time>2015-12-06T14:46:08.000Z</time>
      </trkpt>
      <trkpt lat="47.69253" lon="-2.71374">
        <ele>33.1</ele>
        <time>2015-12-06T14:46:09.000Z</time>
      </trkpt>
      <trkpt lat="47.69252" lon="-2.71381">
        <ele>33.2</ele>
        <time>2015-12-06T14:46:10.000Z</time>
      </trkpt>
      <trkpt lat="47.69251" lon="-2.71388">
        <ele>33.4</ele>
        <time>2015-12-06T14:46:11.000Z</time>
      </trkpt>
      <trkpt lat="47.69251" lon="-2.71395">
        <ele>33.5</ele>
        <time>2015-12-06T14:46:12.000Z</time>
      </trkpt>
      <trkpt lat="47.69251" lon="-2.71401">
        <ele>33.7</ele>
        <time>2015-12-06T14:46:13.000Z</time>
      </trkpt>
      <trkpt lat="47.69252" lon="-2.71407">
        <ele>33.9</ele>
        <time>2015-12-06T14:46:14.000Z</time>
      </trkpt>
      <trkpt lat="47.69251" lon="-2.71414">
        <ele>34</ele>
        <time>2015-12-06T14:46:15.000Z</time>
      </trkpt>
      <trkpt lat="47.69251" lon="-2.71422">
        <ele>34.2</ele>
        <time>2015-12-06T14:46:16.000Z</time>
      </trkpt>
      <trkpt lat="47.6925" lon="-2.7143">
        <ele>34.3</ele>
        <time>2015-12-06T14:46:17.000Z</time>
      </trkpt>
      <trkpt lat="47.69249" lon="-2.71438">
        <ele>34.4</ele>
        <time>2015-12-06T14:46:18.000Z</time>
      </trkpt>
      <trkpt lat="47.69249" lon="-2.71445">
        <ele>34.6</ele>
        <time>2015-12-06T14:46:19.000Z</time>
      </trkpt>
      <trkpt lat="47.69248" lon="-2.71452">
        <ele>34.7</ele>
        <time>2015-12-06T14:46:20.000Z</time>
      </trkpt>
      <trkpt lat="47.69248" lon="-2.71458">
        <ele>34.8</ele>
        <time>2015-12-06T14:46:21.000Z</time>
      </trkpt>
      <trkpt lat="47.69247" lon="-2.71464">
        <ele>35</ele>
        <time>2015-12-06T14:46:22.000Z</time>
      </trkpt>
      <trkpt lat="47.69247" lon="-2.7147">
        <ele>35.2</ele>
        <time>2015-12-06T14:46:23.000Z</time>
      </trkpt>
      <trkpt lat="47.69247" lon="-2.71476">
        <ele>35.4</ele>
        <time>2015-12-06T14:46:24.000Z</time>
      </trkpt>
      <trkpt lat="47.69246" lon="-2.71482">
        <ele>35.6</ele>
        <time>2015-12-06T14:46:25.000Z</time>
      </trkpt>
      <trkpt lat="47.69246" lon="-2.71487">
        <ele>35.8</ele>
        <time>2015-12-06T14:46:26.000Z</time>
      </trkpt>
      <trkpt lat="47.69245" lon="-2.71493">
        <ele>35.9</ele>
        <time>2015-12-06T14:46:27.000Z</time>
      </trkpt>
      <trkpt lat="47.69245" lon="-2.71498">
        <ele>36.1</ele>
        <time>2015-12-06T14:46:28.000Z</time>
      </trkpt>
      <trkpt lat="47.69245" lon="-2.71503">
        <ele>36.4</ele>
        <time>2015-12-06T14:46:29.000Z</time>
      </trkpt>
      <trkpt lat="47.69246" lon="-2.71509">
        <ele>36.6</ele>
        <time>2015-12-06T14:46:30.000Z</time>
      </trkpt>
      <trkpt lat="47.69246" lon="-2.71515">
        <ele>36.8</ele>
        <time>2015-12-06T14:46:31.000Z</time>
      </trkpt>
      <trkpt lat="47.69246" lon="-2.71522">
        <ele>37.1</ele>
        <time>2015-12-06T14:46:32.000Z</time>
      </trkpt>
      <trkpt lat="47.69247" lon="-2.71528">
        <ele>37.3</ele>
        <time>2015-12-06T14:46:33.000Z</time>
      </trkpt>
      <trkpt lat="47.69248" lon="-2.71534">
        <ele>37.6</ele>
        <time>2015-12-06T14:46:34.000Z</time>
      </trkpt>
      <trkpt lat="47.69249" lon="-2.7154">
        <ele>37.9</ele>
        <time>2015-12-06T14:46:35.000Z</time>
      </trkpt>
      <trkpt lat="47.6925" lon="-2.71546">
        <ele>38.2</ele>
        <time>2015-12-06T14:46:36.000Z</time>
      </trkpt>
      <trkpt lat="47.69251" lon="-2.71552">
        <ele>38.5</ele>
        <time>2015-12-06T14:46:37.000Z</time>
      </trkpt>
      <trkpt lat="47.69252" lon="-2.71557">
        <ele>38.8</ele>
        <time>2015-12-06T14:46:38.000Z</time>
      </trkpt>
      <trkpt lat="47.69253" lon="-2.71562">
        <ele>39.1</ele>
        <time>2015-12-06T14:46:39.000Z</time>
      </trkpt>
      <trkpt lat="47.69255" lon="-2.71567">
        <ele>39.3</ele>
        <time>2015-12-06T14:46:40.000Z</time>
      </trkpt>
      <trkpt lat="47.69256" lon="-2.71572">
        <ele>39.6</ele>
        <time>2015-12-06T14:46:41.000Z</time>
      </trkpt>
      <trkpt lat="47.69256" lon="-2.71576">
        <ele>39.8</ele>
        <time>2015-12-06T14:46:42.000Z</time>
      </trkpt>
      <trkpt lat="47.69257" lon="-2.71581">
        <ele>40</ele>
        <time>2015-12-06T14:46:43.000Z</time>
      </trkpt>
      <trkpt lat="47.69257" lon="-2.71585">
        <ele>40.2</ele>
        <time>2015-12-06T14:46:44.000Z</time>
      </trkpt>
      <trkpt lat="47.69257" lon="-2.7159">
        <ele>40.4</ele>
        <time>2015-12-06T14:46:45.000Z</time>
      </trkpt>
      <trkpt lat="47.69257" lon="-2.71595">
        <ele>40.6</ele>
        <time>2015-12-06T14:46:46.000Z</time>
      </trkpt>
      <trkpt lat="47.69257" lon="-2.716">
        <ele>40.8</ele>
        <time>2015-12-06T14:46:47.000Z</time>
      </trkpt>
      <trkpt lat="47.69257" lon="-2.71605">
        <ele>41</ele>
        <time>2015-12-06T14:46:48.000Z</time>
      </trkpt>
      <trkpt lat="47.69257" lon="-2.71611">
        <ele>41.2</ele>
        <time>2015-12-06T14:46:49.000Z</time>
      </trkpt>
      <trkpt lat="47.69257" lon="-2.71617">
        <ele>41.5</ele>
        <time>2015-12-06T14:46:50.000Z</time>
      </trkpt>
      <trkpt lat="47.69257" lon="-2.71622">
        <ele>41.7</ele>
        <time>2015-12-06T14:46:51.000Z</time>
      </trkpt>
      <trkpt lat="47.69258" lon="-2.71628">
        <ele>42</ele>
        <time>2015-12-06T14:46:52.000Z</time>
      </trkpt>
      <trkpt lat="47.69258" lon="-2.71633">
        <ele>42.4</ele>
        <time>2015-12-06T14:46:53.000Z</time>
      </trkpt>
      <trkpt lat="47.6926" lon="-2.71637">
        <ele>42.8</ele>
        <time>2015-12-06T14:46:54.000Z</time>
      </trkpt>
      <trkpt lat="47.69261" lon="-2.71642">
        <ele>43.1</ele>
        <time>2015-12-06T14:46:55.000Z</time>
      </trkpt>
      <trkpt lat="47.69263" lon="-2.71646">
        <ele>43.3</ele>
        <time>2015-12-06T14:46:56.000Z</time>
      </trkpt>
      <trkpt lat="47.69265" lon="-2.71648">
        <ele>43.5</ele>
        <time>2015-12-06T14:46:57.000Z</time>
      </trkpt>
      <trkpt lat="47.69267" lon="-2.71651">
        <ele>43.7</ele>
        <time>2015-12-06T14:46:58.000Z</time>
      </trkpt>
      <trkpt lat="47.69269" lon="-2.71653">
        <ele>43.7</ele>
        <time>2015-12-06T14:46:59.000Z</time>
      </trkpt>
      <trkpt lat="47.6927" lon="-2.71655">
        <ele>43.8</ele>
        <time>2015-12-06T14:47:00.000Z</time>
      </trkpt>
      <trkpt lat="47.69272" lon="-2.71656">
        <ele>43.9</ele>
        <time>2015-12-06T14:47:01.000Z</time>
      </trkpt>
      <trkpt lat="47.69274" lon="-2.71657">
        <ele>43.9</ele>
        <time>2015-12-06T14:47:02.000Z</time>
      </trkpt>
      <trkpt lat="47.69277" lon="-2.71657">
        <ele>43.8</ele>
        <time>2015-12-06T14:47:03.000Z</time>
      </trkpt>
      <trkpt lat="47.69278" lon="-2.71658">
        <ele>43.8</ele>
        <time>2015-12-06T14:47:04.000Z</time>
      </trkpt>
      <trkpt lat="47.6928" lon="-2.71658">
        <ele>43.8</ele>
        <time>2015-12-06T14:47:05.000Z</time>
      </trkpt>
      <trkpt lat="47.69282" lon="-2.71658">
        <ele>43.7</ele>
        <time>2015-12-06T14:47:06.000Z</time>
      </trkpt>
      <trkpt lat="47.69285" lon="-2.71658">
        <ele>43.6</ele>
        <time>2015-12-06T14:47:07.000Z</time>
      </trkpt>
      <trkpt lat="47.69288" lon="-2.71658">
        <ele>43.5</ele>
        <time>2015-12-06T14:47:08.000Z</time>
      </trkpt>
      <trkpt lat="47.69292" lon="-2.71657">
        <ele>43.3</ele>
        <time>2015-12-06T14:47:09.000Z</time>
      </trkpt>
      <trkpt lat="47.69295" lon="-2.71656">
        <ele>43.4</ele>
        <time>2015-12-06T14:47:10.000Z</time>
      </trkpt>
      <trkpt lat="47.69299" lon="-2.71655">
        <ele>43.6</ele>
        <time>2015-12-06T14:47:11.000Z</time>
      </trkpt>
      <trkpt lat="47.69302" lon="-2.71654">
        <ele>43.8</ele>
        <time>2015-12-06T14:47:12.000Z</time>
      </trkpt>
      <trkpt lat="47.69307" lon="-2.71653">
        <ele>44</ele>
        <time>2015-12-06T14:47:13.000Z</time>
      </trkpt>
      <trkpt lat="47.69311" lon="-2.71652">
        <ele>44.2</ele>
        <time>2015-12-06T14:47:14.000Z</time>
      </trkpt>
      <trkpt lat="47.69315" lon="-2.71651">
        <ele>44.4</ele>
        <time>2015-12-06T14:47:15.000Z</time>
      </trkpt>
      <trkpt lat="47.69318" lon="-2.71651">
        <ele>44.6</ele>
        <time>2015-12-06T14:47:16.000Z</time>
      </trkpt>
      <trkpt lat="47.69321" lon="-2.7165">
        <ele>44.8</ele>
        <time>2015-12-06T14:47:17.000Z</time>
      </trkpt>
      <trkpt lat="47.69325" lon="-2.7165">
        <ele>45</ele>
        <time>2015-12-06T14:47:18.000Z</time>
      </trkpt>
      <trkpt lat="47.69328" lon="-2.71649">
        <ele>45.2</ele>
        <time>2015-12-06T14:47:19.000Z</time>
      </trkpt>
      <trkpt lat="47.69332" lon="-2.71649">
        <ele>45.4</ele>
        <time>2015-12-06T14:47:20.000Z</time>
      </trkpt>
      <trkpt lat="47.69335" lon="-2.71649">
        <ele>45.6</ele>
        <time>2015-12-06T14:47:21.000Z</time>
      </trkpt>
      <trkpt lat="47.69338" lon="-2.71648">
        <ele>45.8</ele>
        <time>2015-12-06T14:47:22.000Z</time>
      </trkpt>
      <trkpt lat="47.69341" lon="-2.71648">
        <ele>46</ele>
        <time>2015-12-06T14:47:23.000Z</time>
      </trkpt>
      <trkpt lat="47.69343" lon="-2.71648">
        <ele>46.1</ele>
        <time>2015-12-06T14:47:24.000Z</time>
      </trkpt>
      <trkpt lat="47.69346" lon="-2.71647">
        <ele>46.3</ele>
        <time>2015-12-06T14:47:25.000Z</time>
      </trkpt>
      <trkpt lat="47.69349" lon="-2.71646">
        <ele>46.4</ele>
        <time>2015-12-06T14:47:26.000Z</time>
      </trkpt>
      <trkpt lat="47.69352" lon="-2.71645">
        <ele>46.6</ele>
        <time>2015-12-06T14:47:27.000Z</time>
      </trkpt>
      <trkpt lat="47.69355" lon="-2.71643">
        <ele>46.8</ele>
        <time>2015-12-06T14:47:28.000Z</time>
      </trkpt>
      <trkpt lat="47.69358" lon="-2.71642">
        <ele>47</ele>
        <time>2015-12-06T14:47:29.000Z</time>
      </trkpt>
      <trkpt lat="47.69361" lon="-2.71641">
        <ele>47.2</ele>
        <time>2015-12-06T14:47:30.000Z</time>
      </trkpt>
      <trkpt lat="47.69364" lon="-2.71639">
        <ele>47.4</ele>
        <time>2015-12-06T14:47:31.000Z</time>
      </trkpt>
      <trkpt lat="47.69367" lon="-2.71637">
        <ele>47.6</ele>
        <time>2015-12-06T14:47:32.000Z</time>
      </trkpt>
      <trkpt lat="47.69371" lon="-2.71636">
        <ele>47.8</ele>
        <time>2015-12-06T14:47:33.000Z</time>
      </trkpt>
      <trkpt lat="47.69374" lon="-2.71634">
        <ele>48</ele>
        <time>2015-12-06T14:47:34.000Z</time>
      </trkpt>
      <trkpt lat="47.69377" lon="-2.71633">
        <ele>48.2</ele>
        <time>2015-12-06T14:47:35.000Z</time>
      </trkpt>
      <trkpt lat="47.6938" lon="-2.71631">
        <ele>48.3</ele>
        <time>2015-12-06T14:47:36.000Z</time>
      </trkpt>
      <trkpt lat="47.69383" lon="-2.7163">
        <ele>48.4</ele>
        <time>2015-12-06T14:47:37.000Z</time>
      </trkpt>
      <trkpt lat="47.69387" lon="-2.71628">
        <ele>48.5</ele>
        <time>2015-12-06T14:47:38.000Z</time>
      </trkpt>
      <trkpt lat="47.6939" lon="-2.71626">
        <ele>48.5</ele>
        <time>2015-12-06T14:47:39.000Z</time>
      </trkpt>
      <trkpt lat="47.69393" lon="-2.71623">
        <ele>48.6</ele>
        <time>2015-12-06T14:47:40.000Z</time>
      </trkpt>
      <trkpt lat="47.69396" lon="-2.7162">
        <ele>48.8</ele>
        <time>2015-12-06T14:47:41.000Z</time>
      </trkpt>
      <trkpt lat="47.694" lon="-2.71618">
        <ele>48.9</ele>
        <time>2015-12-06T14:47:42.000Z</time>
      </trkpt>
      <trkpt lat="47.69403" lon="-2.71616">
        <ele>49.1</ele>
        <time>2015-12-06T14:47:43.000Z</time>
      </trkpt>
      <trkpt lat="47.69407" lon="-2.71614">
        <ele>49.2</ele>
        <time>2015-12-06T14:47:44.000Z</time>
      </trkpt>
      <trkpt lat="47.6941" lon="-2.71612">
        <ele>49.4</ele>
        <time>2015-12-06T14:47:45.000Z</time>
      </trkpt>
      <trkpt lat="47.69414" lon="-2.7161">
        <ele>49.6</ele>
        <time>2015-12-06T14:47:46.000Z</time>
      </trkpt>
      <trkpt lat="47.69418" lon="-2.71608">
        <ele>49.7</ele>
        <time>2015-12-06T14:47:47.000Z</time>
      </trkpt>
      <trkpt lat="47.69422" lon="-2.71607">
        <ele>49.9</ele>
        <time>2015-12-06T14:47:48.000Z</time>
      </trkpt>
      <trkpt lat="47.69425" lon="-2.71605">
        <ele>50.2</ele>
        <time>2015-12-06T14:47:49.000Z</time>
      </trkpt>
      <trkpt lat="47.69429" lon="-2.71603">
        <ele>50.4</ele>
        <time>2015-12-06T14:47:50.000Z</time>
      </trkpt>
      <trkpt lat="47.69433" lon="-2.71601">
        <ele>50.6</ele>
        <time>2015-12-06T14:47:51.000Z</time>
      </trkpt>
      <trkpt lat="47.69437" lon="-2.71599">
        <ele>50.8</ele>
        <time>2015-12-06T14:47:52.000Z</time>
      </trkpt>
      <trkpt lat="47.69441" lon="-2.71597">
        <ele>51.1</ele>
        <time>2015-12-06T14:47:53.000Z</time>
      </trkpt>
      <trkpt lat="47.69444" lon="-2.71596">
        <ele>51.3</ele>
        <time>2015-12-06T14:47:54.000Z</time>
      </trkpt>
      <trkpt lat="47.69448" lon="-2.71594">
        <ele>51.6</ele>
        <time>2015-12-06T14:47:55.000Z</time>
      </trkpt>
      <trkpt lat="47.69452" lon="-2.71592">
        <ele>51.8</ele>
        <time>2015-12-06T14:47:56.000Z</time>
      </trkpt>
      <trkpt lat="47.69455" lon="-2.71591">
        <ele>52.1</ele>
        <time>2015-12-06T14:47:57.000Z</time>
      </trkpt>
      <trkpt lat="47.69459" lon="-2.71589">
        <ele>52.3</ele>
        <time>2015-12-06T14:47:58.000Z</time>
      </trkpt>
      <trkpt lat="47.69463" lon="-2.71588">
        <ele>52.6</ele>
        <time>2015-12-06T14:47:59.000Z</time>
      </trkpt>
      <trkpt lat="47.69466" lon="-2.71587">
        <ele>52.8</ele>
        <time>2015-12-06T14:48:00.000Z</time>
      </trkpt>
      <trkpt lat="47.69469" lon="-2.71586">
        <ele>52.9</ele>
        <time>2015-12-06T14:48:01.000Z</time>
      </trkpt>
      <trkpt lat="47.69472" lon="-2.71585">
        <ele>53.1</ele>
        <time>2015-12-06T14:48:02.000Z</time>
      </trkpt>
      <trkpt lat="47.69475" lon="-2.71584">
        <ele>53.3</ele>
        <time>2015-12-06T14:48:03.000Z</time>
      </trkpt>
      <trkpt lat="47.69477" lon="-2.71583">
        <ele>53.4</ele>
        <time>2015-12-06T14:48:04.000Z</time>
      </trkpt>
      <trkpt lat="47.6948" lon="-2.71582">
        <ele>53.6</ele>
        <time>2015-12-06T14:48:05.000Z</time>
      </trkpt>
      <trkpt lat="47.69482" lon="-2.71581">
        <ele>53.7</ele>
        <time>2015-12-06T14:48:06.000Z</time>
      </trkpt>
      <trkpt lat="47.69485" lon="-2.71579">
        <ele>53.9</ele>
        <time>2015-12-06T14:48:07.000Z</time>
      </trkpt>
      <trkpt lat="47.69487" lon="-2.71578">
        <ele>54</ele>
        <time>2015-12-06T14:48:08.000Z</time>
      </trkpt>
      <trkpt lat="47.69489" lon="-2.71577">
        <ele>54.2</ele>
        <time>2015-12-06T14:48:09.000Z</time>
      </trkpt>
      <trkpt lat="47.69492" lon="-2.71576">
        <ele>54.3</ele>
        <time>2015-12-06T14:48:10.000Z</time>
      </trkpt>
      <trkpt lat="47.69494" lon="-2.71575">
        <ele>54.4</ele>
        <time>2015-12-06T14:48:11.000Z</time>
      </trkpt>
      <trkpt lat="47.69497" lon="-2.71574">
        <ele>54.6</ele>
        <time>2015-12-06T14:48:12.000Z</time>
      </trkpt>
      <trkpt lat="47.695" lon="-2.71573">
        <ele>54.7</ele>
        <time>2015-12-06T14:48:13.000Z</time>
      </trkpt>
      <trkpt lat="47.69502" lon="-2.71572">
        <ele>54.9</ele>
        <time>2015-12-06T14:48:14.000Z</time>
      </trkpt>
      <trkpt lat="47.69505" lon="-2.71571">
        <ele>55</ele>
        <time>2015-12-06T14:48:15.000Z</time>
      </trkpt>
      <trkpt lat="47.69507" lon="-2.7157">
        <ele>55.1</ele>
        <time>2015-12-06T14:48:16.000Z</time>
      </trkpt>
      <trkpt lat="47.69509" lon="-2.71569">
        <ele>55.2</ele>
        <time>2015-12-06T14:48:17.000Z</time>
      </trkpt>
      <trkpt lat="47.69511" lon="-2.71568">
        <ele>55.3</ele>
        <time>2015-12-06T14:48:18.000Z</time>
      </trkpt>
      <trkpt lat="47.69514" lon="-2.71567">
        <ele>55.5</ele>
        <time>2015-12-06T14:48:19.000Z</time>
      </trkpt>
      <trkpt lat="47.69517" lon="-2.71565">
        <ele>55.6</ele>
        <time>2015-12-06T14:48:20.000Z</time>
      </trkpt>
      <trkpt lat="47.6952" lon="-2.71563">
        <ele>55.8</ele>
        <time>2015-12-06T14:48:21.000Z</time>
      </trkpt>
      <trkpt lat="47.69523" lon="-2.71562">
        <ele>56</ele>
        <time>2015-12-06T14:48:22.000Z</time>
      </trkpt>
      <trkpt lat="47.69527" lon="-2.71561">
        <ele>56.1</ele>
        <time>2015-12-06T14:48:23.000Z</time>
      </trkpt>
      <trkpt lat="47.6953" lon="-2.71559">
        <ele>56.3</ele>
        <time>2015-12-06T14:48:24.000Z</time>
      </trkpt>
      <trkpt lat="47.69533" lon="-2.71558">
        <ele>56.5</ele>
        <time>2015-12-06T14:48:25.000Z</time>
      </trkpt>
      <trkpt lat="47.69536" lon="-2.71557">
        <ele>56.6</ele>
        <time>2015-12-06T14:48:26.000Z</time>
      </trkpt>
      <trkpt lat="47.69539" lon="-2.71556">
        <ele>56.7</ele>
        <time>2015-12-06T14:48:27.000Z</time>
      </trkpt>
      <trkpt lat="47.69541" lon="-2.71555">
        <ele>56.8</ele>
        <time>2015-12-06T14:48:28.000Z</time>
      </trkpt>
      <trkpt lat="47.69543" lon="-2.71556">
        <ele>56.9</ele>
        <time>2015-12-06T14:48:29.000Z</time>
      </trkpt>
      <trkpt lat="47.69545" lon="-2.71558">
        <ele>56.9</ele>
        <time>2015-12-06T14:48:30.000Z</time>
      </trkpt>
      <trkpt lat="47.69546" lon="-2.71559">
        <ele>57</ele>
        <time>2015-12-06T14:48:31.000Z</time>
      </trkpt>
      <trkpt lat="47.69546" lon="-2.7156">
        <ele>57</ele>
        <time>2015-12-06T14:48:32.000Z</time>
      </trkpt>
      <trkpt lat="47.69547" lon="-2.7156">
        <ele>57</ele>
        <time>2015-12-06T14:48:33.000Z</time>
      </trkpt>
      <trkpt lat="47.69547" lon="-2.71561">
        <ele>57</ele>
        <time>2015-12-06T14:48:34.000Z</time>
      </trkpt>
      <trkpt lat="47.69551" lon="-2.71562">
        <ele>57.2</ele>
        <time>2015-12-06T14:48:35.000Z</time>
      </trkpt>
      <trkpt lat="47.69551" lon="-2.71565">
        <ele>57.1</ele>
        <time>2015-12-06T14:48:36.000Z</time>
      </trkpt>
      <trkpt lat="47.69551" lon="-2.7157">
        <ele>57.1</ele>
        <time>2015-12-06T14:48:37.000Z</time>
      </trkpt>
      <trkpt lat="47.69552" lon="-2.71575">
        <ele>57</ele>
        <time>2015-12-06T14:48:38.000Z</time>
      </trkpt>
      <trkpt lat="47.69552" lon="-2.71581">
        <ele>57</ele>
        <time>2015-12-06T14:48:39.000Z</time>
      </trkpt>
      <trkpt lat="47.69552" lon="-2.71588">
        <ele>57</ele>
        <time>2015-12-06T14:48:40.000Z</time>
      </trkpt>
      <trkpt lat="47.69553" lon="-2.71594">
        <ele>56.9</ele>
        <time>2015-12-06T14:48:41.000Z</time>
      </trkpt>
      <trkpt lat="47.69553" lon="-2.716">
        <ele>56.9</ele>
        <time>2015-12-06T14:48:42.000Z</time>
      </trkpt>
      <trkpt lat="47.69554" lon="-2.71607">
        <ele>56.9</ele>
        <time>2015-12-06T14:48:43.000Z</time>
      </trkpt>
      <trkpt lat="47.69555" lon="-2.71613">
        <ele>56.9</ele>
        <time>2015-12-06T14:48:44.000Z</time>
      </trkpt>
      <trkpt lat="47.69555" lon="-2.7162">
        <ele>56.8</ele>
        <time>2015-12-06T14:48:45.000Z</time>
      </trkpt>
      <trkpt lat="47.69556" lon="-2.71627">
        <ele>56.9</ele>
        <time>2015-12-06T14:48:46.000Z</time>
      </trkpt>
      <trkpt lat="47.69556" lon="-2.71634">
        <ele>57.2</ele>
        <time>2015-12-06T14:48:47.000Z</time>
      </trkpt>
      <trkpt lat="47.69557" lon="-2.7164">
        <ele>57.5</ele>
        <time>2015-12-06T14:48:48.000Z</time>
      </trkpt>
      <trkpt lat="47.69558" lon="-2.71647">
        <ele>57.8</ele>
        <time>2015-12-06T14:48:49.000Z</time>
      </trkpt>
      <trkpt lat="47.69558" lon="-2.71654">
        <ele>58.1</ele>
        <time>2015-12-06T14:48:50.000Z</time>
      </trkpt>
      <trkpt lat="47.69559" lon="-2.71661">
        <ele>58.4</ele>
        <time>2015-12-06T14:48:51.000Z</time>
      </trkpt>
      <trkpt lat="47.69559" lon="-2.71667">
        <ele>58.7</ele>
        <time>2015-12-06T14:48:52.000Z</time>
      </trkpt>
      <trkpt lat="47.6956" lon="-2.71674">
        <ele>59</ele>
        <time>2015-12-06T14:48:53.000Z</time>
      </trkpt>
      <trkpt lat="47.6956" lon="-2.71681">
        <ele>59.3</ele>
        <time>2015-12-06T14:48:54.000Z</time>
      </trkpt>
      <trkpt lat="47.69561" lon="-2.71687">
        <ele>59.6</ele>
        <time>2015-12-06T14:48:55.000Z</time>
      </trkpt>
      <trkpt lat="47.69561" lon="-2.71694">
        <ele>59.9</ele>
        <time>2015-12-06T14:48:56.000Z</time>
      </trkpt>
      <trkpt lat="47.69562" lon="-2.71701">
        <ele>60.1</ele>
        <time>2015-12-06T14:48:57.000Z</time>
      </trkpt>
      <trkpt lat="47.69562" lon="-2.71707">
        <ele>60.4</ele>
        <time>2015-12-06T14:48:58.000Z</time>
      </trkpt>
      <trkpt lat="47.69563" lon="-2.71714">
        <ele>60.6</ele>
        <time>2015-12-06T14:48:59.000Z</time>
      </trkpt>
      <trkpt lat="47.69563" lon="-2.7172">
        <ele>60.8</ele>
        <time>2015-12-06T14:49:00.000Z</time>
      </trkpt>
      <trkpt lat="47.69564" lon="-2.71727">
        <ele>61.1</ele>
        <time>2015-12-06T14:49:01.000Z</time>
      </trkpt>
      <trkpt lat="47.69564" lon="-2.71733">
        <ele>61.3</ele>
        <time>2015-12-06T14:49:02.000Z</time>
      </trkpt>
      <trkpt lat="47.69565" lon="-2.7174">
        <ele>61.5</ele>
        <time>2015-12-06T14:49:03.000Z</time>
      </trkpt>
      <trkpt lat="47.69565" lon="-2.71747">
        <ele>61.7</ele>
        <time>2015-12-06T14:49:04.000Z</time>
      </trkpt>
      <trkpt lat="47.69566" lon="-2.71753">
        <ele>61.9</ele>
        <time>2015-12-06T14:49:05.000Z</time>
      </trkpt>
      <trkpt lat="47.69566" lon="-2.7176">
        <ele>62.1</ele>
        <time>2015-12-06T14:49:06.000Z</time>
      </trkpt>
      <trkpt lat="47.69567" lon="-2.71767">
        <ele>62.4</ele>
        <time>2015-12-06T14:49:07.000Z</time>
      </trkpt>
      <trkpt lat="47.69568" lon="-2.71773">
        <ele>62.6</ele>
        <time>2015-12-06T14:49:08.000Z</time>
      </trkpt>
      <trkpt lat="47.69568" lon="-2.7178">
        <ele>62.9</ele>
        <time>2015-12-06T14:49:09.000Z</time>
      </trkpt>
      <trkpt lat="47.69569" lon="-2.71787">
        <ele>63.1</ele>
        <time>2015-12-06T14:49:10.000Z</time>
      </trkpt>
      <trkpt lat="47.69569" lon="-2.71793">
        <ele>63.3</ele>
        <time>2015-12-06T14:49:11.000Z</time>
      </trkpt>
      <trkpt lat="47.6957" lon="-2.718">
        <ele>63.4</ele>
        <time>2015-12-06T14:49:12.000Z</time>
      </trkpt>
      <trkpt lat="47.69571" lon="-2.71806">
        <ele>63.5</ele>
        <time>2015-12-06T14:49:13.000Z</time>
      </trkpt>
      <trkpt lat="47.69572" lon="-2.71813">
        <ele>63.6</ele>
        <time>2015-12-06T14:49:14.000Z</time>
      </trkpt>
      <trkpt lat="47.69572" lon="-2.7182">
        <ele>63.7</ele>
        <time>2015-12-06T14:49:15.000Z</time>
      </trkpt>
      <trkpt lat="47.69573" lon="-2.71826">
        <ele>63.7</ele>
        <time>2015-12-06T14:49:16.000Z</time>
      </trkpt>
      <trkpt lat="47.69574" lon="-2.71833">
        <ele>63.8</ele>
        <time>2015-12-06T14:49:17.000Z</time>
      </trkpt>
      <trkpt lat="47.69575" lon="-2.7184">
        <ele>63.9</ele>
        <time>2015-12-06T14:49:18.000Z</time>
      </trkpt>
      <trkpt lat="47.69576" lon="-2.71847">
        <ele>64</ele>
        <time>2015-12-06T14:49:19.000Z</time>
      </trkpt>
      <trkpt lat="47.69578" lon="-2.71854">
        <ele>64.1</ele>
        <time>2015-12-06T14:49:20.000Z</time>
      </trkpt>
      <trkpt lat="47.69579" lon="-2.71861">
        <ele>64.2</ele>
        <time>2015-12-06T14:49:21.000Z</time>
      </trkpt>
      <trkpt lat="47.6958" lon="-2.71868">
        <ele>64.3</ele>
        <time>2015-12-06T14:49:22.000Z</time>
      </trkpt>
      <trkpt lat="47.69582" lon="-2.71875">
        <ele>64.4</ele>
        <time>2015-12-06T14:49:23.000Z</time>
      </trkpt>
      <trkpt lat="47.69583" lon="-2.71882">
        <ele>64.2</ele>
        <time>2015-12-06T14:49:24.000Z</time>
      </trkpt>
      <trkpt lat="47.69585" lon="-2.71889">
        <ele>64</ele>
        <time>2015-12-06T14:49:25.000Z</time>
      </trkpt>
      <trkpt lat="47.69587" lon="-2.71897">
        <ele>63.8</ele>
        <time>2015-12-06T14:49:26.000Z</time>
      </trkpt>
      <trkpt lat="47.69588" lon="-2.71904">
        <ele>63.6</ele>
        <time>2015-12-06T14:49:27.000Z</time>
      </trkpt>
      <trkpt lat="47.6959" lon="-2.71911">
        <ele>63.4</ele>
        <time>2015-12-06T14:49:28.000Z</time>
      </trkpt>
      <trkpt lat="47.69592" lon="-2.71919">
        <ele>63.2</ele>
        <time>2015-12-06T14:49:29.000Z</time>
      </trkpt>
      <trkpt lat="47.69594" lon="-2.71927">
        <ele>63</ele>
        <time>2015-12-06T14:49:30.000Z</time>
      </trkpt>
      <trkpt lat="47.69596" lon="-2.71935">
        <ele>62.7</ele>
        <time>2015-12-06T14:49:31.000Z</time>
      </trkpt>
      <trkpt lat="47.69598" lon="-2.71943">
        <ele>62.5</ele>
        <time>2015-12-06T14:49:32.000Z</time>
      </trkpt>
      <trkpt lat="47.696" lon="-2.71951">
        <ele>62.2</ele>
        <time>2015-12-06T14:49:33.000Z</time>
      </trkpt>
      <trkpt lat="47.69602" lon="-2.71959">
        <ele>61.9</ele>
        <time>2015-12-06T14:49:34.000Z</time>
      </trkpt>
      <trkpt lat="47.69604" lon="-2.71967">
        <ele>61.8</ele>
        <time>2015-12-06T14:49:35.000Z</time>
      </trkpt>
      <trkpt lat="47.69606" lon="-2.71975">
        <ele>61.7</ele>
        <time>2015-12-06T14:49:36.000Z</time>
      </trkpt>
      <trkpt lat="47.69608" lon="-2.71984">
        <ele>61.5</ele>
        <time>2015-12-06T14:49:37.000Z</time>
      </trkpt>
      <trkpt lat="47.6961" lon="-2.71992">
        <ele>61.4</ele>
        <time>2015-12-06T14:49:38.000Z</time>
      </trkpt>
      <trkpt lat="47.69612" lon="-2.72">
        <ele>61.2</ele>
        <time>2015-12-06T14:49:39.000Z</time>
      </trkpt>
      <trkpt lat="47.69613" lon="-2.72007">
        <ele>61</ele>
        <time>2015-12-06T14:49:40.000Z</time>
      </trkpt>
      <trkpt lat="47.69615" lon="-2.72015">
        <ele>60.8</ele>
        <time>2015-12-06T14:49:41.000Z</time>
      </trkpt>
      <trkpt lat="47.69617" lon="-2.72022">
        <ele>60.6</ele>
        <time>2015-12-06T14:49:42.000Z</time>
      </trkpt>
      <trkpt lat="47.69619" lon="-2.72027">
        <ele>60.5</ele>
        <time>2015-12-06T14:49:43.000Z</time>
      </trkpt>
      <trkpt lat="47.69621" lon="-2.72031">
        <ele>60.4</ele>
        <time>2015-12-06T14:49:44.000Z</time>
      </trkpt>
      <trkpt lat="47.69624" lon="-2.72032">
        <ele>60.3</ele>
        <time>2015-12-06T14:49:45.000Z</time>
      </trkpt>
      <trkpt lat="47.69626" lon="-2.72032">
        <ele>60.4</ele>
        <time>2015-12-06T14:49:46.000Z</time>
      </trkpt>
      <trkpt lat="47.69628" lon="-2.72031">
        <ele>60.5</ele>
        <time>2015-12-06T14:49:47.000Z</time>
      </trkpt>
      <trkpt lat="47.6963" lon="-2.72029">
        <ele>60.6</ele>
        <time>2015-12-06T14:49:48.000Z</time>
      </trkpt>
      <trkpt lat="47.69631" lon="-2.72027">
        <ele>60.7</ele>
        <time>2015-12-06T14:49:49.000Z</time>
      </trkpt>
      <trkpt lat="47.69633" lon="-2.72024">
        <ele>60.9</ele>
        <time>2015-12-06T14:49:50.000Z</time>
      </trkpt>
      <trkpt lat="47.69635" lon="-2.72021">
        <ele>61.1</ele>
        <time>2015-12-06T14:49:51.000Z</time>
      </trkpt>
      <trkpt lat="47.69637" lon="-2.72017">
        <ele>61.3</ele>
        <time>2015-12-06T14:49:52.000Z</time>
      </trkpt>
      <trkpt lat="47.69639" lon="-2.72013">
        <ele>61.6</ele>
        <time>2015-12-06T14:49:53.000Z</time>
      </trkpt>
      <trkpt lat="47.69642" lon="-2.72009">
        <ele>61.9</ele>
        <time>2015-12-06T14:49:54.000Z</time>
      </trkpt>
      <trkpt lat="47.69645" lon="-2.72005">
        <ele>62.2</ele>
        <time>2015-12-06T14:49:55.000Z</time>
      </trkpt>
      <trkpt lat="47.69647" lon="-2.72002">
        <ele>62.5</ele>
        <time>2015-12-06T14:49:56.000Z</time>
      </trkpt>
      <trkpt lat="47.6965" lon="-2.71998">
        <ele>62.8</ele>
        <time>2015-12-06T14:49:57.000Z</time>
      </trkpt>
      <trkpt lat="47.69652" lon="-2.71995">
        <ele>63.1</ele>
        <time>2015-12-06T14:49:58.000Z</time>
      </trkpt>
      <trkpt lat="47.69655" lon="-2.71991">
        <ele>63.5</ele>
        <time>2015-12-06T14:49:59.000Z</time>
      </trkpt>
      <trkpt lat="47.69657" lon="-2.71988">
        <ele>63.8</ele>
        <time>2015-12-06T14:50:00.000Z</time>
      </trkpt>
      <trkpt lat="47.69659" lon="-2.71984">
        <ele>64.2</ele>
        <time>2015-12-06T14:50:01.000Z</time>
      </trkpt>
      <trkpt lat="47.69662" lon="-2.7198">
        <ele>64.6</ele>
        <time>2015-12-06T14:50:02.000Z</time>
      </trkpt>
      <trkpt lat="47.69665" lon="-2.71977">
        <ele>65</ele>
        <time>2015-12-06T14:50:03.000Z</time>
      </trkpt>
      <trkpt lat="47.69667" lon="-2.71973">
        <ele>65.5</ele>
        <time>2015-12-06T14:50:04.000Z</time>
      </trkpt>
      <trkpt lat="47.6967" lon="-2.71969">
        <ele>66</ele>
        <time>2015-12-06T14:50:05.000Z</time>
      </trkpt>
      <trkpt lat="47.69673" lon="-2.71966">
        <ele>66.4</ele>
        <time>2015-12-06T14:50:06.000Z</time>
      </trkpt>
      <trkpt lat="47.69675" lon="-2.71962">
        <ele>66.9</ele>
        <time>2015-12-06T14:50:07.000Z</time>
      </trkpt>
      <trkpt lat="47.69678" lon="-2.71959">
        <ele>67.4</ele>
        <time>2015-12-06T14:50:08.000Z</time>
      </trkpt>
      <trkpt lat="47.69682" lon="-2.71955">
        <ele>68</ele>
        <time>2015-12-06T14:50:09.000Z</time>
      </trkpt>
      <trkpt lat="47.69685" lon="-2.71952">
        <ele>68.5</ele>
        <time>2015-12-06T14:50:10.000Z</time>
      </trkpt>
      <trkpt lat="47.69688" lon="-2.71949">
        <ele>69</ele>
        <time>2015-12-06T14:50:11.000Z</time>
      </trkpt>
      <trkpt lat="47.69691" lon="-2.71946">
        <ele>69.4</ele>
        <time>2015-12-06T14:50:12.000Z</time>
      </trkpt>
      <trkpt lat="47.69694" lon="-2.71943">
        <ele>69.9</ele>
        <time>2015-12-06T14:50:13.000Z</time>
      </trkpt>
      <trkpt lat="47.69697" lon="-2.7194">
        <ele>70.3</ele>
        <time>2015-12-06T14:50:14.000Z</time>
      </trkpt>
      <trkpt lat="47.697" lon="-2.71937">
        <ele>70.8</ele>
        <time>2015-12-06T14:50:15.000Z</time>
      </trkpt>
      <trkpt lat="47.69703" lon="-2.71934">
        <ele>71.3</ele>
        <time>2015-12-06T14:50:16.000Z</time>
      </trkpt>
      <trkpt lat="47.69706" lon="-2.71931">
        <ele>71.8</ele>
        <time>2015-12-06T14:50:17.000Z</time>
      </trkpt>
      <trkpt lat="47.6971" lon="-2.71927">
        <ele>72.2</ele>
        <time>2015-12-06T14:50:18.000Z</time>
      </trkpt>
      <trkpt lat="47.69714" lon="-2.71924">
        <ele>72.3</ele>
        <time>2015-12-06T14:50:19.000Z</time>
      </trkpt>
      <trkpt lat="47.69718" lon="-2.71921">
        <ele>72.4</ele>
        <time>2015-12-06T14:50:20.000Z</time>
      </trkpt>
      <trkpt lat="47.69722" lon="-2.71917">
        <ele>72.5</ele>
        <time>2015-12-06T14:50:21.000Z</time>
      </trkpt>
      <trkpt lat="47.69726" lon="-2.71914">
        <ele>72.6</ele>
        <time>2015-12-06T14:50:22.000Z</time>
      </trkpt>
      <trkpt lat="47.69729" lon="-2.71911">
        <ele>72.6</ele>
        <time>2015-12-06T14:50:23.000Z</time>
      </trkpt>
      <trkpt lat="47.69733" lon="-2.71908">
        <ele>72.7</ele>
        <time>2015-12-06T14:50:24.000Z</time>
      </trkpt>
      <trkpt lat="47.69736" lon="-2.71906">
        <ele>72.7</ele>
        <time>2015-12-06T14:50:25.000Z</time>
      </trkpt>
      <trkpt lat="47.6974" lon="-2.71904">
        <ele>72.7</ele>
        <time>2015-12-06T14:50:26.000Z</time>
      </trkpt>
      <trkpt lat="47.69744" lon="-2.71901">
        <ele>72.7</ele>
        <time>2015-12-06T14:50:27.000Z</time>
      </trkpt>
      <trkpt lat="47.6975" lon="-2.71898">
        <ele>72.6</ele>
        <time>2015-12-06T14:50:28.000Z</time>
      </trkpt>
      <trkpt lat="47.69755" lon="-2.71895">
        <ele>72.6</ele>
        <time>2015-12-06T14:50:29.000Z</time>
      </trkpt>
      <trkpt lat="47.69761" lon="-2.71892">
        <ele>72.5</ele>
        <time>2015-12-06T14:50:30.000Z</time>
      </trkpt>
      <trkpt lat="47.69766" lon="-2.71889">
        <ele>72.5</ele>
        <time>2015-12-06T14:50:31.000Z</time>
      </trkpt>
      <trkpt lat="47.6977" lon="-2.71886">
        <ele>72.4</ele>
        <time>2015-12-06T14:50:32.000Z</time>
      </trkpt>
      <trkpt lat="47.69774" lon="-2.71883">
        <ele>72.4</ele>
        <time>2015-12-06T14:50:33.000Z</time>
      </trkpt>
      <trkpt lat="47.69779" lon="-2.7188">
        <ele>72.4</ele>
        <time>2015-12-06T14:50:34.000Z</time>
      </trkpt>
      <trkpt lat="47.69783" lon="-2.71877">
        <ele>72.3</ele>
        <time>2015-12-06T14:50:35.000Z</time>
      </trkpt>
      <trkpt lat="47.69787" lon="-2.71875">
        <ele>72.2</ele>
        <time>2015-12-06T14:50:36.000Z</time>
      </trkpt>
      <trkpt lat="47.69791" lon="-2.71873">
        <ele>72</ele>
        <time>2015-12-06T14:50:37.000Z</time>
      </trkpt>
      <trkpt lat="47.69795" lon="-2.71871">
        <ele>72</ele>
        <time>2015-12-06T14:50:38.000Z</time>
      </trkpt>
      <trkpt lat="47.69799" lon="-2.71869">
        <ele>72</ele>
        <time>2015-12-06T14:50:39.000Z</time>
      </trkpt>
      <trkpt lat="47.69804" lon="-2.71866">
        <ele>71.9</ele>
        <time>2015-12-06T14:50:40.000Z</time>
      </trkpt>
      <trkpt lat="47.69808" lon="-2.71864">
        <ele>71.9</ele>
        <time>2015-12-06T14:50:41.000Z</time>
      </trkpt>
      <trkpt lat="47.69812" lon="-2.71862">
        <ele>71.9</ele>
        <time>2015-12-06T14:50:42.000Z</time>
      </trkpt>
      <trkpt lat="47.69817" lon="-2.7186">
        <ele>71.8</ele>
        <time>2015-12-06T14:50:43.000Z</time>
      </trkpt>
      <trkpt lat="47.69821" lon="-2.71858">
        <ele>71.8</ele>
        <time>2015-12-06T14:50:44.000Z</time>
      </trkpt>
      <trkpt lat="47.69826" lon="-2.71856">
        <ele>71.7</ele>
        <time>2015-12-06T14:50:45.000Z</time>
      </trkpt>
      <trkpt lat="47.69831" lon="-2.71853">
        <ele>71.7</ele>
        <time>2015-12-06T14:50:46.000Z</time>
      </trkpt>
      <trkpt lat="47.69836" lon="-2.7185">
        <ele>71.6</ele>
        <time>2015-12-06T14:50:47.000Z</time>
      </trkpt>
      <trkpt lat="47.6984" lon="-2.71847">
        <ele>71.6</ele>
        <time>2015-12-06T14:50:48.000Z</time>
      </trkpt>
      <trkpt lat="47.69844" lon="-2.71844">
        <ele>71.5</ele>
        <time>2015-12-06T14:50:49.000Z</time>
      </trkpt>
      <trkpt lat="47.69848" lon="-2.71842">
        <ele>71.4</ele>
        <time>2015-12-06T14:50:50.000Z</time>
      </trkpt>
      <trkpt lat="47.69852" lon="-2.71841">
        <ele>71.4</ele>
        <time>2015-12-06T14:50:51.000Z</time>
      </trkpt>
      <trkpt lat="47.69853" lon="-2.7184">
        <ele>71.4</ele>
        <time>2015-12-06T14:50:52.000Z</time>
      </trkpt>
      <trkpt lat="47.69854" lon="-2.71839">
        <ele>71.4</ele>
        <time>2015-12-06T14:50:53.000Z</time>
      </trkpt>
      <trkpt lat="47.69854" lon="-2.71839">
        <ele>71.4</ele>
        <time>2015-12-06T14:50:54.000Z</time>
      </trkpt>
      <trkpt lat="47.69854" lon="-2.71839">
        <ele>71.4</ele>
        <time>2015-12-06T14:50:55.000Z</time>
      </trkpt>
      <trkpt lat="47.69855" lon="-2.71839">
        <ele>71.4</ele>
        <time>2015-12-06T14:50:56.000Z</time>
      </trkpt>
      <trkpt lat="47.69855" lon="-2.71838">
        <ele>71.3</ele>
        <time>2015-12-06T14:50:57.000Z</time>
      </trkpt>
      <trkpt lat="47.69855" lon="-2.71838">
        <ele>71.3</ele>
        <time>2015-12-06T14:50:58.000Z</time>
      </trkpt>
      <trkpt lat="47.69855" lon="-2.71838">
        <ele>71.3</ele>
        <time>2015-12-06T14:50:59.000Z</time>
      </trkpt>
      <trkpt lat="47.69856" lon="-2.71837">
        <ele>71.3</ele>
        <time>2015-12-06T14:51:00.000Z</time>
      </trkpt>
      <trkpt lat="47.69856" lon="-2.71837">
        <ele>71.3</ele>
        <time>2015-12-06T14:51:01.000Z</time>
      </trkpt>
      <trkpt lat="47.69857" lon="-2.71837">
        <ele>71.3</ele>
        <time>2015-12-06T14:51:02.000Z</time>
      </trkpt>
      <trkpt lat="47.69858" lon="-2.71836">
        <ele>71.3</ele>
        <time>2015-12-06T14:51:03.000Z</time>
      </trkpt>
      <trkpt lat="47.69859" lon="-2.71835">
        <ele>71.3</ele>
        <time>2015-12-06T14:51:04.000Z</time>
      </trkpt>
      <trkpt lat="47.6986" lon="-2.71834">
        <ele>71.3</ele>
        <time>2015-12-06T14:51:05.000Z</time>
      </trkpt>
      <trkpt lat="47.69861" lon="-2.71833">
        <ele>71.2</ele>
        <time>2015-12-06T14:51:06.000Z</time>
      </trkpt>
      <trkpt lat="47.69863" lon="-2.71832">
        <ele>71.2</ele>
        <time>2015-12-06T14:51:07.000Z</time>
      </trkpt>
      <trkpt lat="47.69865" lon="-2.71831">
        <ele>71.2</ele>
        <time>2015-12-06T14:51:08.000Z</time>
      </trkpt>
      <trkpt lat="47.69867" lon="-2.71829">
        <ele>71.2</ele>
        <time>2015-12-06T14:51:09.000Z</time>
      </trkpt>
      <trkpt lat="47.69869" lon="-2.71827">
        <ele>71.1</ele>
        <time>2015-12-06T14:51:10.000Z</time>
      </trkpt>
      <trkpt lat="47.69871" lon="-2.71825">
        <ele>71.1</ele>
        <time>2015-12-06T14:51:11.000Z</time>
      </trkpt>
      <trkpt lat="47.69874" lon="-2.71823">
        <ele>71</ele>
        <time>2015-12-06T14:51:12.000Z</time>
      </trkpt>
      <trkpt lat="47.69877" lon="-2.71822">
        <ele>71</ele>
        <time>2015-12-06T14:51:13.000Z</time>
      </trkpt>
      <trkpt lat="47.6988" lon="-2.7182">
        <ele>71</ele>
        <time>2015-12-06T14:51:14.000Z</time>
      </trkpt>
      <trkpt lat="47.69883" lon="-2.71819">
        <ele>71</ele>
        <time>2015-12-06T14:51:15.000Z</time>
      </trkpt>
      <trkpt lat="47.69886" lon="-2.71817">
        <ele>71.1</ele>
        <time>2015-12-06T14:51:16.000Z</time>
      </trkpt>
      <trkpt lat="47.69889" lon="-2.71816">
        <ele>71.1</ele>
        <time>2015-12-06T14:51:17.000Z</time>
      </trkpt>
      <trkpt lat="47.69891" lon="-2.71816">
        <ele>71.1</ele>
        <time>2015-12-06T14:51:18.000Z</time>
      </trkpt>
      <trkpt lat="47.69893" lon="-2.71816">
        <ele>71.1</ele>
        <time>2015-12-06T14:51:19.000Z</time>
      </trkpt>
      <trkpt lat="47.69895" lon="-2.71816">
        <ele>71.1</ele>
        <time>2015-12-06T14:51:20.000Z</time>
      </trkpt>
      <trkpt lat="47.69896" lon="-2.71817">
        <ele>71.1</ele>
        <time>2015-12-06T14:51:21.000Z</time>
      </trkpt>
      <trkpt lat="47.69898" lon="-2.71817">
        <ele>71.1</ele>
        <time>2015-12-06T14:51:22.000Z</time>
      </trkpt>
      <trkpt lat="47.69899" lon="-2.71818">
        <ele>71.1</ele>
        <time>2015-12-06T14:51:23.000Z</time>
      </trkpt>
      <trkpt lat="47.69902" lon="-2.71818">
        <ele>71.1</ele>
        <time>2015-12-06T14:51:24.000Z</time>
      </trkpt>
      <trkpt lat="47.69904" lon="-2.71818">
        <ele>71.1</ele>
        <time>2015-12-06T14:51:25.000Z</time>
      </trkpt>
      <trkpt lat="47.69906" lon="-2.71819">
        <ele>71.1</ele>
        <time>2015-12-06T14:51:26.000Z</time>
      </trkpt>
      <trkpt lat="47.69909" lon="-2.71819">
        <ele>71.1</ele>
        <time>2015-12-06T14:51:27.000Z</time>
      </trkpt>
      <trkpt lat="47.69912" lon="-2.7182">
        <ele>71.1</ele>
        <time>2015-12-06T14:51:28.000Z</time>
      </trkpt>
      <trkpt lat="47.69916" lon="-2.71819">
        <ele>71.2</ele>
        <time>2015-12-06T14:51:29.000Z</time>
      </trkpt>
      <trkpt lat="47.6992" lon="-2.71817">
        <ele>71.2</ele>
        <time>2015-12-06T14:51:30.000Z</time>
      </trkpt>
      <trkpt lat="47.69925" lon="-2.71816">
        <ele>71.2</ele>
        <time>2015-12-06T14:51:31.000Z</time>
      </trkpt>
      <trkpt lat="47.6993" lon="-2.71817">
        <ele>71.3</ele>
        <time>2015-12-06T14:51:32.000Z</time>
      </trkpt>
      <trkpt lat="47.69934" lon="-2.71819">
        <ele>71.2</ele>
        <time>2015-12-06T14:51:33.000Z</time>
      </trkpt>
      <trkpt lat="47.69938" lon="-2.71823">
        <ele>71.2</ele>
        <time>2015-12-06T14:51:34.000Z</time>
      </trkpt>
      <trkpt lat="47.69941" lon="-2.71827">
        <ele>71.1</ele>
        <time>2015-12-06T14:51:35.000Z</time>
      </trkpt>
      <trkpt lat="47.69943" lon="-2.71832">
        <ele>71</ele>
        <time>2015-12-06T14:51:36.000Z</time>
      </trkpt>
      <trkpt lat="47.69945" lon="-2.71838">
        <ele>70.9</ele>
        <time>2015-12-06T14:51:37.000Z</time>
      </trkpt>
      <trkpt lat="47.69948" lon="-2.71844">
        <ele>70.8</ele>
        <time>2015-12-06T14:51:38.000Z</time>
      </trkpt>
      <trkpt lat="47.6995" lon="-2.7185">
        <ele>70.6</ele>
        <time>2015-12-06T14:51:39.000Z</time>
      </trkpt>
      <trkpt lat="47.69953" lon="-2.71857">
        <ele>70.5</ele>
        <time>2015-12-06T14:51:40.000Z</time>
      </trkpt>
      <trkpt lat="47.69955" lon="-2.71863">
        <ele>70.3</ele>
        <time>2015-12-06T14:51:41.000Z</time>
      </trkpt>
      <trkpt lat="47.69959" lon="-2.71869">
        <ele>70.2</ele>
        <time>2015-12-06T14:51:42.000Z</time>
      </trkpt>
      <trkpt lat="47.69962" lon="-2.71875">
        <ele>70.1</ele>
        <time>2015-12-06T14:51:43.000Z</time>
      </trkpt>
      <trkpt lat="47.69965" lon="-2.7188">
        <ele>70.1</ele>
        <time>2015-12-06T14:51:44.000Z</time>
      </trkpt>
      <trkpt lat="47.69968" lon="-2.71886">
        <ele>70.2</ele>
        <time>2015-12-06T14:51:45.000Z</time>
      </trkpt>
      <trkpt lat="47.69971" lon="-2.71892">
        <ele>70.3</ele>
        <time>2015-12-06T14:51:46.000Z</time>
      </trkpt>
      <trkpt lat="47.69976" lon="-2.71897">
        <ele>70.4</ele>
        <time>2015-12-06T14:51:47.000Z</time>
      </trkpt>
      <trkpt lat="47.6998" lon="-2.71901">
        <ele>70.4</ele>
        <time>2015-12-06T14:51:48.000Z</time>
      </trkpt>
      <trkpt lat="47.69985" lon="-2.71904">
        <ele>70.4</ele>
        <time>2015-12-06T14:51:49.000Z</time>
      </trkpt>
      <trkpt lat="47.69989" lon="-2.71906">
        <ele>70.5</ele>
        <time>2015-12-06T14:51:50.000Z</time>
      </trkpt>
      <trkpt lat="47.69994" lon="-2.71908">
        <ele>70.5</ele>
        <time>2015-12-06T14:51:51.000Z</time>
      </trkpt>
      <trkpt lat="47.69999" lon="-2.7191">
        <ele>70.5</ele>
        <time>2015-12-06T14:51:52.000Z</time>
      </trkpt>
      <trkpt lat="47.70003" lon="-2.71911">
        <ele>70.5</ele>
        <time>2015-12-06T14:51:53.000Z</time>
      </trkpt>
      <trkpt lat="47.70008" lon="-2.71912">
        <ele>70.5</ele>
        <time>2015-12-06T14:51:54.000Z</time>
      </trkpt>
      <trkpt lat="47.70012" lon="-2.71913">
        <ele>70.5</ele>
        <time>2015-12-06T14:51:55.000Z</time>
      </trkpt>
      <trkpt lat="47.70017" lon="-2.71914">
        <ele>70.5</ele>
        <time>2015-12-06T14:51:56.000Z</time>
      </trkpt>
      <trkpt lat="47.70022" lon="-2.71914">
        <ele>70.5</ele>
        <time>2015-12-06T14:51:57.000Z</time>
      </trkpt>
      <trkpt lat="47.70027" lon="-2.71913">
        <ele>70.5</ele>
        <time>2015-12-06T14:51:58.000Z</time>
      </trkpt>
      <trkpt lat="47.70031" lon="-2.71912">
        <ele>70.5</ele>
        <time>2015-12-06T14:51:59.000Z</time>
      </trkpt>
      <trkpt lat="47.70035" lon="-2.71911">
        <ele>70.6</ele>
        <time>2015-12-06T14:52:00.000Z</time>
      </trkpt>
      <trkpt lat="47.70039" lon="-2.7191">
        <ele>70.6</ele>
        <time>2015-12-06T14:52:01.000Z</time>
      </trkpt>
      <trkpt lat="47.70043" lon="-2.71907">
        <ele>70.6</ele>
        <time>2015-12-06T14:52:02.000Z</time>
      </trkpt>
      <trkpt lat="47.70047" lon="-2.71905">
        <ele>70.6</ele>
        <time>2015-12-06T14:52:03.000Z</time>
      </trkpt>
      <trkpt lat="47.70051" lon="-2.71902">
        <ele>70.6</ele>
        <time>2015-12-06T14:52:04.000Z</time>
      </trkpt>
      <trkpt lat="47.70055" lon="-2.719">
        <ele>70.5</ele>
        <time>2015-12-06T14:52:05.000Z</time>
      </trkpt>
      <trkpt lat="47.70059" lon="-2.71897">
        <ele>70.5</ele>
        <time>2015-12-06T14:52:06.000Z</time>
      </trkpt>
      <trkpt lat="47.70065" lon="-2.71895">
        <ele>70.5</ele>
        <time>2015-12-06T14:52:07.000Z</time>
      </trkpt>
      <trkpt lat="47.7007" lon="-2.71893">
        <ele>70.4</ele>
        <time>2015-12-06T14:52:08.000Z</time>
      </trkpt>
      <trkpt lat="47.70075" lon="-2.71891">
        <ele>70.4</ele>
        <time>2015-12-06T14:52:09.000Z</time>
      </trkpt>
      <trkpt lat="47.70081" lon="-2.7189">
        <ele>70.4</ele>
        <time>2015-12-06T14:52:10.000Z</time>
      </trkpt>
      <trkpt lat="47.70086" lon="-2.71889">
        <ele>70.3</ele>
        <time>2015-12-06T14:52:11.000Z</time>
      </trkpt>
      <trkpt lat="47.70091" lon="-2.71889">
        <ele>70.2</ele>
        <time>2015-12-06T14:52:12.000Z</time>
      </trkpt>
      <trkpt lat="47.70096" lon="-2.71889">
        <ele>70.2</ele>
        <time>2015-12-06T14:52:13.000Z</time>
      </trkpt>
      <trkpt lat="47.70101" lon="-2.71889">
        <ele>70.1</ele>
        <time>2015-12-06T14:52:14.000Z</time>
      </trkpt>
      <trkpt lat="47.70106" lon="-2.7189">
        <ele>70</ele>
        <time>2015-12-06T14:52:15.000Z</time>
      </trkpt>
      <trkpt lat="47.70111" lon="-2.71891">
        <ele>70</ele>
        <time>2015-12-06T14:52:16.000Z</time>
      </trkpt>
      <trkpt lat="47.70115" lon="-2.71893">
        <ele>69.9</ele>
        <time>2015-12-06T14:52:17.000Z</time>
      </trkpt>
      <trkpt lat="47.7012" lon="-2.71894">
        <ele>69.8</ele>
        <time>2015-12-06T14:52:18.000Z</time>
      </trkpt>
      <trkpt lat="47.70124" lon="-2.71896">
        <ele>69.8</ele>
        <time>2015-12-06T14:52:19.000Z</time>
      </trkpt>
      <trkpt lat="47.70129" lon="-2.71898">
        <ele>69.8</ele>
        <time>2015-12-06T14:52:20.000Z</time>
      </trkpt>
      <trkpt lat="47.70134" lon="-2.71901">
        <ele>69.8</ele>
        <time>2015-12-06T14:52:21.000Z</time>
      </trkpt>
      <trkpt lat="47.7014" lon="-2.71905">
        <ele>69.8</ele>
        <time>2015-12-06T14:52:22.000Z</time>
      </trkpt>
      <trkpt lat="47.70145" lon="-2.71911">
        <ele>69.8</ele>
        <time>2015-12-06T14:52:23.000Z</time>
      </trkpt>
      <trkpt lat="47.70149" lon="-2.71918">
        <ele>69.8</ele>
        <time>2015-12-06T14:52:24.000Z</time>
      </trkpt>
      <trkpt lat="47.70153" lon="-2.71926">
        <ele>69.8</ele>
        <time>2015-12-06T14:52:25.000Z</time>
      </trkpt>
      <trkpt lat="47.70157" lon="-2.71933">
        <ele>69.8</ele>
        <time>2015-12-06T14:52:26.000Z</time>
      </trkpt>
      <trkpt lat="47.70161" lon="-2.7194">
        <ele>69.9</ele>
        <time>2015-12-06T14:52:27.000Z</time>
      </trkpt>
      <trkpt lat="47.70164" lon="-2.71947">
        <ele>69.9</ele>
        <time>2015-12-06T14:52:28.000Z</time>
      </trkpt>
      <trkpt lat="47.70167" lon="-2.71953">
        <ele>70</ele>
        <time>2015-12-06T14:52:29.000Z</time>
      </trkpt>
      <trkpt lat="47.70169" lon="-2.71959">
        <ele>70</ele>
        <time>2015-12-06T14:52:30.000Z</time>
      </trkpt>
      <trkpt lat="47.70171" lon="-2.71964">
        <ele>69.9</ele>
        <time>2015-12-06T14:52:31.000Z</time>
      </trkpt>
      <trkpt lat="47.70173" lon="-2.71969">
        <ele>69.8</ele>
        <time>2015-12-06T14:52:32.000Z</time>
      </trkpt>
      <trkpt lat="47.70176" lon="-2.71973">
        <ele>69.7</ele>
        <time>2015-12-06T14:52:33.000Z</time>
      </trkpt>
      <trkpt lat="47.70179" lon="-2.71975">
        <ele>69.6</ele>
        <time>2015-12-06T14:52:34.000Z</time>
      </trkpt>
      <trkpt lat="47.70182" lon="-2.71977">
        <ele>69.6</ele>
        <time>2015-12-06T14:52:35.000Z</time>
      </trkpt>
      <trkpt lat="47.70185" lon="-2.71978">
        <ele>69.6</ele>
        <time>2015-12-06T14:52:36.000Z</time>
      </trkpt>
      <trkpt lat="47.70188" lon="-2.71979">
        <ele>69.6</ele>
        <time>2015-12-06T14:52:37.000Z</time>
      </trkpt>
      <trkpt lat="47.7019" lon="-2.71982">
        <ele>69.6</ele>
        <time>2015-12-06T14:52:38.000Z</time>
      </trkpt>
      <trkpt lat="47.70193" lon="-2.71985">
        <ele>69.5</ele>
        <time>2015-12-06T14:52:39.000Z</time>
      </trkpt>
      <trkpt lat="47.70195" lon="-2.7199">
        <ele>69.3</ele>
        <time>2015-12-06T14:52:40.000Z</time>
      </trkpt>
      <trkpt lat="47.70196" lon="-2.71995">
        <ele>69.1</ele>
        <time>2015-12-06T14:52:41.000Z</time>
      </trkpt>
      <trkpt lat="47.70197" lon="-2.72">
        <ele>68.9</ele>
        <time>2015-12-06T14:52:42.000Z</time>
      </trkpt>
      <trkpt lat="47.70198" lon="-2.72005">
        <ele>68.6</ele>
        <time>2015-12-06T14:52:43.000Z</time>
      </trkpt>
      <trkpt lat="47.70199" lon="-2.72011">
        <ele>68.4</ele>
        <time>2015-12-06T14:52:44.000Z</time>
      </trkpt>
      <trkpt lat="47.70199" lon="-2.72016">
        <ele>68.2</ele>
        <time>2015-12-06T14:52:45.000Z</time>
      </trkpt>
      <trkpt lat="47.702" lon="-2.72021">
        <ele>67.9</ele>
        <time>2015-12-06T14:52:46.000Z</time>
      </trkpt>
      <trkpt lat="47.70201" lon="-2.72026">
        <ele>67.7</ele>
        <time>2015-12-06T14:52:47.000Z</time>
      </trkpt>
      <trkpt lat="47.70203" lon="-2.72032">
        <ele>67.5</ele>
        <time>2015-12-06T14:52:48.000Z</time>
      </trkpt>
      <trkpt lat="47.70205" lon="-2.72036">
        <ele>67.3</ele>
        <time>2015-12-06T14:52:49.000Z</time>
      </trkpt>
      <trkpt lat="47.70206" lon="-2.72041">
        <ele>67</ele>
        <time>2015-12-06T14:52:50.000Z</time>
      </trkpt>
      <trkpt lat="47.70208" lon="-2.72045">
        <ele>66.9</ele>
        <time>2015-12-06T14:52:51.000Z</time>
      </trkpt>
      <trkpt lat="47.7021" lon="-2.7205">
        <ele>67</ele>
        <time>2015-12-06T14:52:52.000Z</time>
      </trkpt>
      <trkpt lat="47.70212" lon="-2.72054">
        <ele>67.2</ele>
        <time>2015-12-06T14:52:53.000Z</time>
      </trkpt>
      <trkpt lat="47.70214" lon="-2.72058">
        <ele>67.3</ele>
        <time>2015-12-06T14:52:54.000Z</time>
      </trkpt>
      <trkpt lat="47.70215" lon="-2.72062">
        <ele>67.4</ele>
        <time>2015-12-06T14:52:55.000Z</time>
      </trkpt>
      <trkpt lat="47.70217" lon="-2.72066">
        <ele>67.6</ele>
        <time>2015-12-06T14:52:56.000Z</time>
      </trkpt>
      <trkpt lat="47.70219" lon="-2.7207">
        <ele>67.8</ele>
        <time>2015-12-06T14:52:57.000Z</time>
      </trkpt>
      <trkpt lat="47.70221" lon="-2.72074">
        <ele>68</ele>
        <time>2015-12-06T14:52:58.000Z</time>
      </trkpt>
      <trkpt lat="47.70223" lon="-2.72078">
        <ele>68.3</ele>
        <time>2015-12-06T14:52:59.000Z</time>
      </trkpt>
      <trkpt lat="47.70226" lon="-2.72081">
        <ele>68.6</ele>
        <time>2015-12-06T14:53:00.000Z</time>
      </trkpt>
      <trkpt lat="47.70229" lon="-2.72084">
        <ele>68.9</ele>
        <time>2015-12-06T14:53:01.000Z</time>
      </trkpt>
      <trkpt lat="47.70232" lon="-2.72087">
        <ele>69.4</ele>
        <time>2015-12-06T14:53:02.000Z</time>
      </trkpt>
      <trkpt lat="47.70235" lon="-2.72089">
        <ele>69.8</ele>
        <time>2015-12-06T14:53:03.000Z</time>
      </trkpt>
      <trkpt lat="47.70238" lon="-2.7209">
        <ele>70.2</ele>
        <time>2015-12-06T14:53:04.000Z</time>
      </trkpt>
      <trkpt lat="47.70241" lon="-2.72091">
        <ele>70.6</ele>
        <time>2015-12-06T14:53:05.000Z</time>
      </trkpt>
      <trkpt lat="47.70244" lon="-2.72092">
        <ele>71</ele>
        <time>2015-12-06T14:53:06.000Z</time>
      </trkpt>
      <trkpt lat="47.70247" lon="-2.72093">
        <ele>71.5</ele>
        <time>2015-12-06T14:53:07.000Z</time>
      </trkpt>
      <trkpt lat="47.7025" lon="-2.72094">
        <ele>71.9</ele>
        <time>2015-12-06T14:53:08.000Z</time>
      </trkpt>
      <trkpt lat="47.70253" lon="-2.72095">
        <ele>72.3</ele>
        <time>2015-12-06T14:53:09.000Z</time>
      </trkpt>
      <trkpt lat="47.70256" lon="-2.72096">
        <ele>72.7</ele>
        <time>2015-12-06T14:53:10.000Z</time>
      </trkpt>
      <trkpt lat="47.70259" lon="-2.72096">
        <ele>73.1</ele>
        <time>2015-12-06T14:53:11.000Z</time>
      </trkpt>
      <trkpt lat="47.70262" lon="-2.72097">
        <ele>73.6</ele>
        <time>2015-12-06T14:53:12.000Z</time>
      </trkpt>
      <trkpt lat="47.70265" lon="-2.72098">
        <ele>74</ele>
        <time>2015-12-06T14:53:13.000Z</time>
      </trkpt>
      <trkpt lat="47.70268" lon="-2.72099">
        <ele>74.5</ele>
        <time>2015-12-06T14:53:14.000Z</time>
      </trkpt>
      <trkpt lat="47.70272" lon="-2.721">
        <ele>75</ele>
        <time>2015-12-06T14:53:15.000Z</time>
      </trkpt>
      <trkpt lat="47.70275" lon="-2.72101">
        <ele>75.6</ele>
        <time>2015-12-06T14:53:16.000Z</time>
      </trkpt>
      <trkpt lat="47.70279" lon="-2.72102">
        <ele>76.1</ele>
        <time>2015-12-06T14:53:17.000Z</time>
      </trkpt>
      <trkpt lat="47.70282" lon="-2.72103">
        <ele>76.6</ele>
        <time>2015-12-06T14:53:18.000Z</time>
      </trkpt>
      <trkpt lat="47.70285" lon="-2.72104">
        <ele>77.1</ele>
        <time>2015-12-06T14:53:19.000Z</time>
      </trkpt>
      <trkpt lat="47.70289" lon="-2.72105">
        <ele>77.5</ele>
        <time>2015-12-06T14:53:20.000Z</time>
      </trkpt>
      <trkpt lat="47.70292" lon="-2.72106">
        <ele>78</ele>
        <time>2015-12-06T14:53:21.000Z</time>
      </trkpt>
      <trkpt lat="47.70295" lon="-2.72106">
        <ele>78.3</ele>
        <time>2015-12-06T14:53:22.000Z</time>
      </trkpt>
      <trkpt lat="47.70299" lon="-2.72108">
        <ele>78.6</ele>
        <time>2015-12-06T14:53:23.000Z</time>
      </trkpt>
      <trkpt lat="47.70302" lon="-2.72109">
        <ele>78.9</ele>
        <time>2015-12-06T14:53:24.000Z</time>
      </trkpt>
      <trkpt lat="47.70306" lon="-2.7211">
        <ele>79.1</ele>
        <time>2015-12-06T14:53:25.000Z</time>
      </trkpt>
      <trkpt lat="47.70309" lon="-2.72111">
        <ele>79.4</ele>
        <time>2015-12-06T14:53:26.000Z</time>
      </trkpt>
      <trkpt lat="47.70312" lon="-2.72112">
        <ele>79.7</ele>
        <time>2015-12-06T14:53:27.000Z</time>
      </trkpt>
      <trkpt lat="47.70315" lon="-2.72112">
        <ele>80</ele>
        <time>2015-12-06T14:53:28.000Z</time>
      </trkpt>
      <trkpt lat="47.70319" lon="-2.72113">
        <ele>80.2</ele>
        <time>2015-12-06T14:53:29.000Z</time>
      </trkpt>
      <trkpt lat="47.70322" lon="-2.72114">
        <ele>80.5</ele>
        <time>2015-12-06T14:53:30.000Z</time>
      </trkpt>
      <trkpt lat="47.70325" lon="-2.72115">
        <ele>80.8</ele>
        <time>2015-12-06T14:53:31.000Z</time>
      </trkpt>
      <trkpt lat="47.70328" lon="-2.72116">
        <ele>81</ele>
        <time>2015-12-06T14:53:32.000Z</time>
      </trkpt>
      <trkpt lat="47.70332" lon="-2.72117">
        <ele>81.3</ele>
        <time>2015-12-06T14:53:33.000Z</time>
      </trkpt>
      <trkpt lat="47.70335" lon="-2.72118">
        <ele>81.6</ele>
        <time>2015-12-06T14:53:34.000Z</time>
      </trkpt>
      <trkpt lat="47.70338" lon="-2.72119">
        <ele>81.8</ele>
        <time>2015-12-06T14:53:35.000Z</time>
      </trkpt>
      <trkpt lat="47.70341" lon="-2.7212">
        <ele>82.1</ele>
        <time>2015-12-06T14:53:36.000Z</time>
      </trkpt>
      <trkpt lat="47.70345" lon="-2.7212">
        <ele>82.4</ele>
        <time>2015-12-06T14:53:37.000Z</time>
      </trkpt>
      <trkpt lat="47.70349" lon="-2.72121">
        <ele>82.8</ele>
        <time>2015-12-06T14:53:38.000Z</time>
      </trkpt>
      <trkpt lat="47.70352" lon="-2.72122">
        <ele>83.1</ele>
        <time>2015-12-06T14:53:39.000Z</time>
      </trkpt>
      <trkpt lat="47.70356" lon="-2.72122">
        <ele>83.4</ele>
        <time>2015-12-06T14:53:40.000Z</time>
      </trkpt>
      <trkpt lat="47.7036" lon="-2.72122">
        <ele>83.7</ele>
        <time>2015-12-06T14:53:41.000Z</time>
      </trkpt>
      <trkpt lat="47.70364" lon="-2.72121">
        <ele>84</ele>
        <time>2015-12-06T14:53:42.000Z</time>
      </trkpt>
      <trkpt lat="47.70368" lon="-2.7212">
        <ele>84.3</ele>
        <time>2015-12-06T14:53:43.000Z</time>
      </trkpt>
      <trkpt lat="47.70372" lon="-2.72119">
        <ele>84.6</ele>
        <time>2015-12-06T14:53:44.000Z</time>
      </trkpt>
      <trkpt lat="47.70375" lon="-2.72118">
        <ele>84.9</ele>
        <time>2015-12-06T14:53:45.000Z</time>
      </trkpt>
      <trkpt lat="47.70379" lon="-2.72117">
        <ele>85</ele>
        <time>2015-12-06T14:53:46.000Z</time>
      </trkpt>
      <trkpt lat="47.70383" lon="-2.72115">
        <ele>85.1</ele>
        <time>2015-12-06T14:53:47.000Z</time>
      </trkpt>
      <trkpt lat="47.70387" lon="-2.72114">
        <ele>85.2</ele>
        <time>2015-12-06T14:53:48.000Z</time>
      </trkpt>
      <trkpt lat="47.70391" lon="-2.72112">
        <ele>85.3</ele>
        <time>2015-12-06T14:53:49.000Z</time>
      </trkpt>
      <trkpt lat="47.70395" lon="-2.72111">
        <ele>85.3</ele>
        <time>2015-12-06T14:53:50.000Z</time>
      </trkpt>
      <trkpt lat="47.70398" lon="-2.72109">
        <ele>85.4</ele>
        <time>2015-12-06T14:53:51.000Z</time>
      </trkpt>
      <trkpt lat="47.70402" lon="-2.72108">
        <ele>85.5</ele>
        <time>2015-12-06T14:53:52.000Z</time>
      </trkpt>
      <trkpt lat="47.70405" lon="-2.72107">
        <ele>85.6</ele>
        <time>2015-12-06T14:53:53.000Z</time>
      </trkpt>
      <trkpt lat="47.70408" lon="-2.72106">
        <ele>85.7</ele>
        <time>2015-12-06T14:53:54.000Z</time>
      </trkpt>
      <trkpt lat="47.70412" lon="-2.72105">
        <ele>85.7</ele>
        <time>2015-12-06T14:53:55.000Z</time>
      </trkpt>
      <trkpt lat="47.70415" lon="-2.72104">
        <ele>85.8</ele>
        <time>2015-12-06T14:53:56.000Z</time>
      </trkpt>
      <trkpt lat="47.70419" lon="-2.72102">
        <ele>85.9</ele>
        <time>2015-12-06T14:53:57.000Z</time>
      </trkpt>
      <trkpt lat="47.70423" lon="-2.72101">
        <ele>86</ele>
        <time>2015-12-06T14:53:58.000Z</time>
      </trkpt>
      <trkpt lat="47.70426" lon="-2.721">
        <ele>86.1</ele>
        <time>2015-12-06T14:53:59.000Z</time>
      </trkpt>
      <trkpt lat="47.7043" lon="-2.72098">
        <ele>86.2</ele>
        <time>2015-12-06T14:54:00.000Z</time>
      </trkpt>
      <trkpt lat="47.70434" lon="-2.72097">
        <ele>86.3</ele>
        <time>2015-12-06T14:54:01.000Z</time>
      </trkpt>
      <trkpt lat="47.70437" lon="-2.72096">
        <ele>86.4</ele>
        <time>2015-12-06T14:54:02.000Z</time>
      </trkpt>
      <trkpt lat="47.70441" lon="-2.72096">
        <ele>86.5</ele>
        <time>2015-12-06T14:54:03.000Z</time>
      </trkpt>
      <trkpt lat="47.70445" lon="-2.72095">
        <ele>86.6</ele>
        <time>2015-12-06T14:54:04.000Z</time>
      </trkpt>
      <trkpt lat="47.70448" lon="-2.72094">
        <ele>86.7</ele>
        <time>2015-12-06T14:54:05.000Z</time>
      </trkpt>
      <trkpt lat="47.70452" lon="-2.72094">
        <ele>86.8</ele>
        <time>2015-12-06T14:54:06.000Z</time>
      </trkpt>
      <trkpt lat="47.70456" lon="-2.72093">
        <ele>86.9</ele>
        <time>2015-12-06T14:54:07.000Z</time>
      </trkpt>
      <trkpt lat="47.70461" lon="-2.72093">
        <ele>87</ele>
        <time>2015-12-06T14:54:08.000Z</time>
      </trkpt>
      <trkpt lat="47.70466" lon="-2.72092">
        <ele>86.9</ele>
        <time>2015-12-06T14:54:09.000Z</time>
      </trkpt>
      <trkpt lat="47.70471" lon="-2.72091">
        <ele>86.9</ele>
        <time>2015-12-06T14:54:10.000Z</time>
      </trkpt>
      <trkpt lat="47.70475" lon="-2.7209">
        <ele>86.8</ele>
        <time>2015-12-06T14:54:11.000Z</time>
      </trkpt>
      <trkpt lat="47.70479" lon="-2.72089">
        <ele>86.8</ele>
        <time>2015-12-06T14:54:12.000Z</time>
      </trkpt>
      <trkpt lat="47.70482" lon="-2.72087">
        <ele>86.8</ele>
        <time>2015-12-06T14:54:13.000Z</time>
      </trkpt>
      <trkpt lat="47.70486" lon="-2.72086">
        <ele>86.8</ele>
        <time>2015-12-06T14:54:14.000Z</time>
      </trkpt>
      <trkpt lat="47.7049" lon="-2.72086">
        <ele>86.7</ele>
        <time>2015-12-06T14:54:15.000Z</time>
      </trkpt>
      <trkpt lat="47.70493" lon="-2.72086">
        <ele>86.7</ele>
        <time>2015-12-06T14:54:16.000Z</time>
      </trkpt>
      <trkpt lat="47.70496" lon="-2.72087">
        <ele>86.7</ele>
        <time>2015-12-06T14:54:17.000Z</time>
      </trkpt>
      <trkpt lat="47.70499" lon="-2.72087">
        <ele>86.7</ele>
        <time>2015-12-06T14:54:18.000Z</time>
      </trkpt>
      <trkpt lat="47.70502" lon="-2.72087">
        <ele>86.6</ele>
        <time>2015-12-06T14:54:19.000Z</time>
      </trkpt>
      <trkpt lat="47.70505" lon="-2.72087">
        <ele>86.6</ele>
        <time>2015-12-06T14:54:20.000Z</time>
      </trkpt>
      <trkpt lat="47.70508" lon="-2.72087">
        <ele>86.6</ele>
        <time>2015-12-06T14:54:21.000Z</time>
      </trkpt>
      <trkpt lat="47.70512" lon="-2.72086">
        <ele>86.6</ele>
        <time>2015-12-06T14:54:22.000Z</time>
      </trkpt>
      <trkpt lat="47.70515" lon="-2.72085">
        <ele>86.6</ele>
        <time>2015-12-06T14:54:23.000Z</time>
      </trkpt>
      <trkpt lat="47.70519" lon="-2.72083">
        <ele>86.7</ele>
        <time>2015-12-06T14:54:24.000Z</time>
      </trkpt>
      <trkpt lat="47.70522" lon="-2.72081">
        <ele>86.7</ele>
        <time>2015-12-06T14:54:25.000Z</time>
      </trkpt>
      <trkpt lat="47.70526" lon="-2.7208">
        <ele>86.8</ele>
        <time>2015-12-06T14:54:26.000Z</time>
      </trkpt>
      <trkpt lat="47.7053" lon="-2.72079">
        <ele>86.8</ele>
        <time>2015-12-06T14:54:27.000Z</time>
      </trkpt>
      <trkpt lat="47.70534" lon="-2.72078">
        <ele>86.9</ele>
        <time>2015-12-06T14:54:28.000Z</time>
      </trkpt>
      <trkpt lat="47.70537" lon="-2.72077">
        <ele>86.9</ele>
        <time>2015-12-06T14:54:29.000Z</time>
      </trkpt>
      <trkpt lat="47.70541" lon="-2.72075">
        <ele>87</ele>
        <time>2015-12-06T14:54:30.000Z</time>
      </trkpt>
      <trkpt lat="47.70545" lon="-2.72074">
        <ele>87</ele>
        <time>2015-12-06T14:54:31.000Z</time>
      </trkpt>
      <trkpt lat="47.7055" lon="-2.72072">
        <ele>87</ele>
        <time>2015-12-06T14:54:32.000Z</time>
      </trkpt>
      <trkpt lat="47.70554" lon="-2.7207">
        <ele>87.1</ele>
        <time>2015-12-06T14:54:33.000Z</time>
      </trkpt>
      <trkpt lat="47.70558" lon="-2.72069">
        <ele>87.1</ele>
        <time>2015-12-06T14:54:34.000Z</time>
      </trkpt>
      <trkpt lat="47.70562" lon="-2.72067">
        <ele>87.2</ele>
        <time>2015-12-06T14:54:35.000Z</time>
      </trkpt>
      <trkpt lat="47.70566" lon="-2.72066">
        <ele>87.3</ele>
        <time>2015-12-06T14:54:36.000Z</time>
      </trkpt>
      <trkpt lat="47.7057" lon="-2.72064">
        <ele>87.4</ele>
        <time>2015-12-06T14:54:37.000Z</time>
      </trkpt>
      <trkpt lat="47.70574" lon="-2.72061">
        <ele>87.6</ele>
        <time>2015-12-06T14:54:38.000Z</time>
      </trkpt>
      <trkpt lat="47.70577" lon="-2.72059">
        <ele>87.7</ele>
        <time>2015-12-06T14:54:39.000Z</time>
      </trkpt>
      <trkpt lat="47.7058" lon="-2.72056">
        <ele>88</ele>
        <time>2015-12-06T14:54:40.000Z</time>
      </trkpt>
      <trkpt lat="47.70584" lon="-2.72053">
        <ele>88.3</ele>
        <time>2015-12-06T14:54:41.000Z</time>
      </trkpt>
      <trkpt lat="47.70588" lon="-2.7205">
        <ele>88.7</ele>
        <time>2015-12-06T14:54:42.000Z</time>
      </trkpt>
      <trkpt lat="47.70592" lon="-2.72047">
        <ele>89</ele>
        <time>2015-12-06T14:54:43.000Z</time>
      </trkpt>
      <trkpt lat="47.70595" lon="-2.72045">
        <ele>89.3</ele>
        <time>2015-12-06T14:54:44.000Z</time>
      </trkpt>
      <trkpt lat="47.70598" lon="-2.72043">
        <ele>89.5</ele>
        <time>2015-12-06T14:54:45.000Z</time>
      </trkpt>
      <trkpt lat="47.706" lon="-2.72041">
        <ele>89.7</ele>
        <time>2015-12-06T14:54:46.000Z</time>
      </trkpt>
      <trkpt lat="47.70603" lon="-2.72038">
        <ele>90</ele>
        <time>2015-12-06T14:54:47.000Z</time>
      </trkpt>
      <trkpt lat="47.70606" lon="-2.72035">
        <ele>90.3</ele>
        <time>2015-12-06T14:54:48.000Z</time>
      </trkpt>
      <trkpt lat="47.7061" lon="-2.72032">
        <ele>90.6</ele>
        <time>2015-12-06T14:54:49.000Z</time>
      </trkpt>
      <trkpt lat="47.70614" lon="-2.7203">
        <ele>90.8</ele>
        <time>2015-12-06T14:54:50.000Z</time>
      </trkpt>
      <trkpt lat="47.70618" lon="-2.72027">
        <ele>91.1</ele>
        <time>2015-12-06T14:54:51.000Z</time>
      </trkpt>
      <trkpt lat="47.70622" lon="-2.72024">
        <ele>91.4</ele>
        <time>2015-12-06T14:54:52.000Z</time>
      </trkpt>
      <trkpt lat="47.70626" lon="-2.7202">
        <ele>91.8</ele>
        <time>2015-12-06T14:54:53.000Z</time>
      </trkpt>
      <trkpt lat="47.7063" lon="-2.72017">
        <ele>92</ele>
        <time>2015-12-06T14:54:54.000Z</time>
      </trkpt>
      <trkpt lat="47.70634" lon="-2.72013">
        <ele>92.2</ele>
        <time>2015-12-06T14:54:55.000Z</time>
      </trkpt>
      <trkpt lat="47.70638" lon="-2.7201">
        <ele>92.4</ele>
        <time>2015-12-06T14:54:56.000Z</time>
      </trkpt>
      <trkpt lat="47.70642" lon="-2.72006">
        <ele>92.7</ele>
        <time>2015-12-06T14:54:57.000Z</time>
      </trkpt>
      <trkpt lat="47.70646" lon="-2.72002">
        <ele>92.9</ele>
        <time>2015-12-06T14:54:58.000Z</time>
      </trkpt>
      <trkpt lat="47.7065" lon="-2.71998">
        <ele>93.3</ele>
        <time>2015-12-06T14:54:59.000Z</time>
      </trkpt>
      <trkpt lat="47.70653" lon="-2.71993">
        <ele>93.6</ele>
        <time>2015-12-06T14:55:00.000Z</time>
      </trkpt>
      <trkpt lat="47.70656" lon="-2.71989">
        <ele>94</ele>
        <time>2015-12-06T14:55:01.000Z</time>
      </trkpt>
      <trkpt lat="47.7066" lon="-2.71985">
        <ele>94.4</ele>
        <time>2015-12-06T14:55:02.000Z</time>
      </trkpt>
      <trkpt lat="47.70664" lon="-2.71981">
        <ele>94.7</ele>
        <time>2015-12-06T14:55:03.000Z</time>
      </trkpt>
      <trkpt lat="47.70668" lon="-2.71976">
        <ele>95.2</ele>
        <time>2015-12-06T14:55:04.000Z</time>
      </trkpt>
      <trkpt lat="47.70672" lon="-2.71971">
        <ele>95.6</ele>
        <time>2015-12-06T14:55:05.000Z</time>
      </trkpt>
      <trkpt lat="47.70676" lon="-2.71968">
        <ele>96</ele>
        <time>2015-12-06T14:55:06.000Z</time>
      </trkpt>
      <trkpt lat="47.70679" lon="-2.71967">
        <ele>96.1</ele>
        <time>2015-12-06T14:55:07.000Z</time>
      </trkpt>
      <trkpt lat="47.70682" lon="-2.71966">
        <ele>96.1</ele>
        <time>2015-12-06T14:55:08.000Z</time>
      </trkpt>
      <trkpt lat="47.70685" lon="-2.71966">
        <ele>96.1</ele>
        <time>2015-12-06T14:55:09.000Z</time>
      </trkpt>
      <trkpt lat="47.70687" lon="-2.71965">
        <ele>96.2</ele>
        <time>2015-12-06T14:55:10.000Z</time>
      </trkpt>
      <trkpt lat="47.7069" lon="-2.71964">
        <ele>96.3</ele>
        <time>2015-12-06T14:55:11.000Z</time>
      </trkpt>
      <trkpt lat="47.70693" lon="-2.71963">
        <ele>96.5</ele>
        <time>2015-12-06T14:55:12.000Z</time>
      </trkpt>
      <trkpt lat="47.70695" lon="-2.71962">
        <ele>96.6</ele>
        <time>2015-12-06T14:55:13.000Z</time>
      </trkpt>
      <trkpt lat="47.70698" lon="-2.7196">
        <ele>96.8</ele>
        <time>2015-12-06T14:55:14.000Z</time>
      </trkpt>
      <trkpt lat="47.707" lon="-2.71958">
        <ele>97</ele>
        <time>2015-12-06T14:55:15.000Z</time>
      </trkpt>
      <trkpt lat="47.70702" lon="-2.71955">
        <ele>97.1</ele>
        <time>2015-12-06T14:55:16.000Z</time>
      </trkpt>
      <trkpt lat="47.70705" lon="-2.71953">
        <ele>97.1</ele>
        <time>2015-12-06T14:55:17.000Z</time>
      </trkpt>
      <trkpt lat="47.70708" lon="-2.7195">
        <ele>97.2</ele>
        <time>2015-12-06T14:55:18.000Z</time>
      </trkpt>
      <trkpt lat="47.7071" lon="-2.71947">
        <ele>97.2</ele>
        <time>2015-12-06T14:55:19.000Z</time>
      </trkpt>
      <trkpt lat="47.70712" lon="-2.71944">
        <ele>97.3</ele>
        <time>2015-12-06T14:55:20.000Z</time>
      </trkpt>
      <trkpt lat="47.70714" lon="-2.71941">
        <ele>97.3</ele>
        <time>2015-12-06T14:55:21.000Z</time>
      </trkpt>
      <trkpt lat="47.70716" lon="-2.71938">
        <ele>97.4</ele>
        <time>2015-12-06T14:55:22.000Z</time>
      </trkpt>
      <trkpt lat="47.70719" lon="-2.71935">
        <ele>97.4</ele>
        <time>2015-12-06T14:55:23.000Z</time>
      </trkpt>
      <trkpt lat="47.70722" lon="-2.71932">
        <ele>97.5</ele>
        <time>2015-12-06T14:55:24.000Z</time>
      </trkpt>
      <trkpt lat="47.70724" lon="-2.7193">
        <ele>97.5</ele>
        <time>2015-12-06T14:55:25.000Z</time>
      </trkpt>
      <trkpt lat="47.70727" lon="-2.71928">
        <ele>97.5</ele>
        <time>2015-12-06T14:55:26.000Z</time>
      </trkpt>
      <trkpt lat="47.70729" lon="-2.71926">
        <ele>97.6</ele>
        <time>2015-12-06T14:55:27.000Z</time>
      </trkpt>
      <trkpt lat="47.70731" lon="-2.71924">
        <ele>97.6</ele>
        <time>2015-12-06T14:55:28.000Z</time>
      </trkpt>
      <trkpt lat="47.70733" lon="-2.71922">
        <ele>97.7</ele>
        <time>2015-12-06T14:55:29.000Z</time>
      </trkpt>
      <trkpt lat="47.70734" lon="-2.71921">
        <ele>97.7</ele>
        <time>2015-12-06T14:55:30.000Z</time>
      </trkpt>
      <trkpt lat="47.70736" lon="-2.71919">
        <ele>97.8</ele>
        <time>2015-12-06T14:55:31.000Z</time>
      </trkpt>
      <trkpt lat="47.70738" lon="-2.71916">
        <ele>97.9</ele>
        <time>2015-12-06T14:55:32.000Z</time>
      </trkpt>
      <trkpt lat="47.7074" lon="-2.71912">
        <ele>98</ele>
        <time>2015-12-06T14:55:33.000Z</time>
      </trkpt>
      <trkpt lat="47.70743" lon="-2.71908">
        <ele>98.1</ele>
        <time>2015-12-06T14:55:34.000Z</time>
      </trkpt>
      <trkpt lat="47.70745" lon="-2.71905">
        <ele>98.3</ele>
        <time>2015-12-06T14:55:35.000Z</time>
      </trkpt>
      <trkpt lat="47.70747" lon="-2.71902">
        <ele>98.3</ele>
        <time>2015-12-06T14:55:36.000Z</time>
      </trkpt>
      <trkpt lat="47.70749" lon="-2.719">
        <ele>98.4</ele>
        <time>2015-12-06T14:55:37.000Z</time>
      </trkpt>
      <trkpt lat="47.70751" lon="-2.71898">
        <ele>98.5</ele>
        <time>2015-12-06T14:55:38.000Z</time>
      </trkpt>
      <trkpt lat="47.70753" lon="-2.71895">
        <ele>98.7</ele>
        <time>2015-12-06T14:55:39.000Z</time>
      </trkpt>
      <trkpt lat="47.70754" lon="-2.71892">
        <ele>98.8</ele>
        <time>2015-12-06T14:55:40.000Z</time>
      </trkpt>
      <trkpt lat="47.70755" lon="-2.7189">
        <ele>98.9</ele>
        <time>2015-12-06T14:55:41.000Z</time>
      </trkpt>
      <trkpt lat="47.70757" lon="-2.71887">
        <ele>99</ele>
        <time>2015-12-06T14:55:42.000Z</time>
      </trkpt>
      <trkpt lat="47.70759" lon="-2.71885">
        <ele>99.1</ele>
        <time>2015-12-06T14:55:43.000Z</time>
      </trkpt>
      <trkpt lat="47.70761" lon="-2.71884">
        <ele>99.2</ele>
        <time>2015-12-06T14:55:44.000Z</time>
      </trkpt>
      <trkpt lat="47.70763" lon="-2.71882">
        <ele>99.3</ele>
        <time>2015-12-06T14:55:45.000Z</time>
      </trkpt>
      <trkpt lat="47.70765" lon="-2.7188">
        <ele>99.4</ele>
        <time>2015-12-06T14:55:46.000Z</time>
      </trkpt>
      <trkpt lat="47.70766" lon="-2.71878">
        <ele>99.5</ele>
        <time>2015-12-06T14:55:47.000Z</time>
      </trkpt>
      <trkpt lat="47.70767" lon="-2.71875">
        <ele>99.7</ele>
        <time>2015-12-06T14:55:48.000Z</time>
      </trkpt>
      <trkpt lat="47.70767" lon="-2.71872">
        <ele>99.8</ele>
        <time>2015-12-06T14:55:49.000Z</time>
      </trkpt>
      <trkpt lat="47.70768" lon="-2.71869">
        <ele>99.9</ele>
        <time>2015-12-06T14:55:50.000Z</time>
      </trkpt>
      <trkpt lat="47.70769" lon="-2.71866">
        <ele>100</ele>
        <time>2015-12-06T14:55:51.000Z</time>
      </trkpt>
      <trkpt lat="47.70771" lon="-2.71863">
        <ele>100.2</ele>
        <time>2015-12-06T14:55:52.000Z</time>
      </trkpt>
      <trkpt lat="47.70773" lon="-2.71859">
        <ele>100.4</ele>
        <time>2015-12-06T14:55:53.000Z</time>
      </trkpt>
      <trkpt lat="47.70775" lon="-2.71856">
        <ele>100.5</ele>
        <time>2015-12-06T14:55:54.000Z</time>
      </trkpt>
      <trkpt lat="47.70776" lon="-2.71852">
        <ele>100.7</ele>
        <time>2015-12-06T14:55:55.000Z</time>
      </trkpt>
      <trkpt lat="47.70776" lon="-2.71849">
        <ele>100.8</ele>
        <time>2015-12-06T14:55:56.000Z</time>
      </trkpt>
      <trkpt lat="47.70775" lon="-2.71846">
        <ele>100.9</ele>
        <time>2015-12-06T14:55:57.000Z</time>
      </trkpt>
      <trkpt lat="47.70775" lon="-2.71842">
        <ele>101</ele>
        <time>2015-12-06T14:55:58.000Z</time>
      </trkpt>
      <trkpt lat="47.70774" lon="-2.71838">
        <ele>101.2</ele>
        <time>2015-12-06T14:55:59.000Z</time>
      </trkpt>
      <trkpt lat="47.70774" lon="-2.71834">
        <ele>101.3</ele>
        <time>2015-12-06T14:56:00.000Z</time>
      </trkpt>
      <trkpt lat="47.70774" lon="-2.71831">
        <ele>101.5</ele>
        <time>2015-12-06T14:56:01.000Z</time>
      </trkpt>
      <trkpt lat="47.70774" lon="-2.71827">
        <ele>101.6</ele>
        <time>2015-12-06T14:56:02.000Z</time>
      </trkpt>
      <trkpt lat="47.70772" lon="-2.71824">
        <ele>101.7</ele>
        <time>2015-12-06T14:56:03.000Z</time>
      </trkpt>
      <trkpt lat="47.70771" lon="-2.7182">
        <ele>101.7</ele>
        <time>2015-12-06T14:56:04.000Z</time>
      </trkpt>
      <trkpt lat="47.70769" lon="-2.71816">
        <ele>101.8</ele>
        <time>2015-12-06T14:56:05.000Z</time>
      </trkpt>
      <trkpt lat="47.70768" lon="-2.71812">
        <ele>101.9</ele>
        <time>2015-12-06T14:56:06.000Z</time>
      </trkpt>
      <trkpt lat="47.70766" lon="-2.71809">
        <ele>101.9</ele>
        <time>2015-12-06T14:56:07.000Z</time>
      </trkpt>
      <trkpt lat="47.70765" lon="-2.71806">
        <ele>101.9</ele>
        <time>2015-12-06T14:56:08.000Z</time>
      </trkpt>
      <trkpt lat="47.70763" lon="-2.71803">
        <ele>101.9</ele>
        <time>2015-12-06T14:56:09.000Z</time>
      </trkpt>
      <trkpt lat="47.70762" lon="-2.718">
        <ele>102</ele>
        <time>2015-12-06T14:56:10.000Z</time>
      </trkpt>
      <trkpt lat="47.7076" lon="-2.71795">
        <ele>102</ele>
        <time>2015-12-06T14:56:11.000Z</time>
      </trkpt>
      <trkpt lat="47.7076" lon="-2.71791">
        <ele>102.1</ele>
        <time>2015-12-06T14:56:12.000Z</time>
      </trkpt>
      <trkpt lat="47.7076" lon="-2.71787">
        <ele>102.3</ele>
        <time>2015-12-06T14:56:13.000Z</time>
      </trkpt>
      <trkpt lat="47.70762" lon="-2.71785">
        <ele>102.4</ele>
        <time>2015-12-06T14:56:14.000Z</time>
      </trkpt>
      <trkpt lat="47.70763" lon="-2.71782">
        <ele>102.6</ele>
        <time>2015-12-06T14:56:15.000Z</time>
      </trkpt>
      <trkpt lat="47.70763" lon="-2.71778">
        <ele>102.7</ele>
        <time>2015-12-06T14:56:16.000Z</time>
      </trkpt>
      <trkpt lat="47.70763" lon="-2.71774">
        <ele>102.8</ele>
        <time>2015-12-06T14:56:17.000Z</time>
      </trkpt>
      <trkpt lat="47.70762" lon="-2.71771">
        <ele>102.9</ele>
        <time>2015-12-06T14:56:18.000Z</time>
      </trkpt>
      <trkpt lat="47.70762" lon="-2.71768">
        <ele>103</ele>
        <time>2015-12-06T14:56:19.000Z</time>
      </trkpt>
      <trkpt lat="47.70763" lon="-2.71764">
        <ele>103.1</ele>
        <time>2015-12-06T14:56:20.000Z</time>
      </trkpt>
      <trkpt lat="47.70764" lon="-2.71761">
        <ele>103.3</ele>
        <time>2015-12-06T14:56:21.000Z</time>
      </trkpt>
      <trkpt lat="47.70766" lon="-2.71758">
        <ele>103.5</ele>
        <time>2015-12-06T14:56:22.000Z</time>
      </trkpt>
      <trkpt lat="47.70768" lon="-2.71756">
        <ele>103.7</ele>
        <time>2015-12-06T14:56:23.000Z</time>
      </trkpt>
      <trkpt lat="47.70769" lon="-2.71754">
        <ele>103.8</ele>
        <time>2015-12-06T14:56:24.000Z</time>
      </trkpt>
      <trkpt lat="47.70771" lon="-2.71751">
        <ele>104</ele>
        <time>2015-12-06T14:56:25.000Z</time>
      </trkpt>
      <trkpt lat="47.70772" lon="-2.71749">
        <ele>104.1</ele>
        <time>2015-12-06T14:56:26.000Z</time>
      </trkpt>
      <trkpt lat="47.70773" lon="-2.71746">
        <ele>104.2</ele>
        <time>2015-12-06T14:56:27.000Z</time>
      </trkpt>
      <trkpt lat="47.70773" lon="-2.71744">
        <ele>104.3</ele>
        <time>2015-12-06T14:56:28.000Z</time>
      </trkpt>
      <trkpt lat="47.70773" lon="-2.71741">
        <ele>104.4</ele>
        <time>2015-12-06T14:56:29.000Z</time>
      </trkpt>
      <trkpt lat="47.70773" lon="-2.71738">
        <ele>104.5</ele>
        <time>2015-12-06T14:56:30.000Z</time>
      </trkpt>
      <trkpt lat="47.70774" lon="-2.71734">
        <ele>104.6</ele>
        <time>2015-12-06T14:56:31.000Z</time>
      </trkpt>
      <trkpt lat="47.70775" lon="-2.71731">
        <ele>104.8</ele>
        <time>2015-12-06T14:56:32.000Z</time>
      </trkpt>
      <trkpt lat="47.70777" lon="-2.7173">
        <ele>104.9</ele>
        <time>2015-12-06T14:56:33.000Z</time>
      </trkpt>
      <trkpt lat="47.70777" lon="-2.71728">
        <ele>104.9</ele>
        <time>2015-12-06T14:56:34.000Z</time>
      </trkpt>
      <trkpt lat="47.70778" lon="-2.71726">
        <ele>105</ele>
        <time>2015-12-06T14:56:35.000Z</time>
      </trkpt>
      <trkpt lat="47.70779" lon="-2.71724">
        <ele>105.1</ele>
        <time>2015-12-06T14:56:36.000Z</time>
      </trkpt>
      <trkpt lat="47.70781" lon="-2.71721">
        <ele>105.3</ele>
        <time>2015-12-06T14:56:37.000Z</time>
      </trkpt>
      <trkpt lat="47.70782" lon="-2.71717">
        <ele>105.4</ele>
        <time>2015-12-06T14:56:38.000Z</time>
      </trkpt>
      <trkpt lat="47.70783" lon="-2.71712">
        <ele>105.6</ele>
        <time>2015-12-06T14:56:39.000Z</time>
      </trkpt>
      <trkpt lat="47.70784" lon="-2.71707">
        <ele>105.7</ele>
        <time>2015-12-06T14:56:40.000Z</time>
      </trkpt>
      <trkpt lat="47.70785" lon="-2.71703">
        <ele>105.9</ele>
        <time>2015-12-06T14:56:41.000Z</time>
      </trkpt>
      <trkpt lat="47.70787" lon="-2.71699">
        <ele>106</ele>
        <time>2015-12-06T14:56:42.000Z</time>
      </trkpt>
      <trkpt lat="47.70788" lon="-2.71696">
        <ele>106.2</ele>
        <time>2015-12-06T14:56:43.000Z</time>
      </trkpt>
      <trkpt lat="47.7079" lon="-2.71692">
        <ele>106.3</ele>
        <time>2015-12-06T14:56:44.000Z</time>
      </trkpt>
      <trkpt lat="47.70791" lon="-2.71688">
        <ele>106.5</ele>
        <time>2015-12-06T14:56:45.000Z</time>
      </trkpt>
      <trkpt lat="47.70792" lon="-2.71683">
        <ele>106.6</ele>
        <time>2015-12-06T14:56:46.000Z</time>
      </trkpt>
      <trkpt lat="47.70794" lon="-2.71679">
        <ele>106.7</ele>
        <time>2015-12-06T14:56:47.000Z</time>
      </trkpt>
      <trkpt lat="47.70795" lon="-2.71675">
        <ele>106.8</ele>
        <time>2015-12-06T14:56:48.000Z</time>
      </trkpt>
      <trkpt lat="47.70797" lon="-2.71671">
        <ele>106.8</ele>
        <time>2015-12-06T14:56:49.000Z</time>
      </trkpt>
      <trkpt lat="47.70798" lon="-2.71668">
        <ele>106.9</ele>
        <time>2015-12-06T14:56:50.000Z</time>
      </trkpt>
      <trkpt lat="47.708" lon="-2.71663">
        <ele>107</ele>
        <time>2015-12-06T14:56:51.000Z</time>
      </trkpt>
      <trkpt lat="47.70801" lon="-2.7166">
        <ele>107.1</ele>
        <time>2015-12-06T14:56:52.000Z</time>
      </trkpt>
      <trkpt lat="47.70803" lon="-2.71656">
        <ele>107.1</ele>
        <time>2015-12-06T14:56:53.000Z</time>
      </trkpt>
      <trkpt lat="47.70805" lon="-2.71651">
        <ele>107.2</ele>
        <time>2015-12-06T14:56:54.000Z</time>
      </trkpt>
      <trkpt lat="47.70807" lon="-2.71647">
        <ele>107.3</ele>
        <time>2015-12-06T14:56:55.000Z</time>
      </trkpt>
      <trkpt lat="47.70808" lon="-2.71642">
        <ele>107.4</ele>
        <time>2015-12-06T14:56:56.000Z</time>
      </trkpt>
      <trkpt lat="47.7081" lon="-2.71637">
        <ele>107.5</ele>
        <time>2015-12-06T14:56:57.000Z</time>
      </trkpt>
      <trkpt lat="47.70811" lon="-2.71633">
        <ele>107.6</ele>
        <time>2015-12-06T14:56:58.000Z</time>
      </trkpt>
      <trkpt lat="47.70812" lon="-2.71628">
        <ele>107.7</ele>
        <time>2015-12-06T14:56:59.000Z</time>
      </trkpt>
      <trkpt lat="47.70814" lon="-2.71623">
        <ele>107.7</ele>
        <time>2015-12-06T14:57:00.000Z</time>
      </trkpt>
      <trkpt lat="47.70816" lon="-2.71617">
        <ele>107.7</ele>
        <time>2015-12-06T14:57:01.000Z</time>
      </trkpt>
      <trkpt lat="47.70817" lon="-2.71614">
        <ele>107.7</ele>
        <time>2015-12-06T14:57:02.000Z</time>
      </trkpt>
      <trkpt lat="47.70819" lon="-2.71613">
        <ele>107.6</ele>
        <time>2015-12-06T14:57:03.000Z</time>
      </trkpt>
      <trkpt lat="47.70821" lon="-2.71613">
        <ele>107.6</ele>
        <time>2015-12-06T14:57:04.000Z</time>
      </trkpt>
      <trkpt lat="47.70823" lon="-2.71614">
        <ele>107.6</ele>
        <time>2015-12-06T14:57:05.000Z</time>
      </trkpt>
      <trkpt lat="47.70825" lon="-2.71615">
        <ele>107.5</ele>
        <time>2015-12-06T14:57:06.000Z</time>
      </trkpt>
      <trkpt lat="47.70827" lon="-2.71616">
        <ele>107.5</ele>
        <time>2015-12-06T14:57:07.000Z</time>
      </trkpt>
      <trkpt lat="47.70829" lon="-2.71618">
        <ele>107.5</ele>
        <time>2015-12-06T14:57:08.000Z</time>
      </trkpt>
      <trkpt lat="47.70832" lon="-2.71621">
        <ele>107.5</ele>
        <time>2015-12-06T14:57:09.000Z</time>
      </trkpt>
      <trkpt lat="47.70835" lon="-2.71624">
        <ele>107.5</ele>
        <time>2015-12-06T14:57:10.000Z</time>
      </trkpt>
      <trkpt lat="47.70837" lon="-2.71627">
        <ele>107.4</ele>
        <time>2015-12-06T14:57:11.000Z</time>
      </trkpt>
      <trkpt lat="47.7084" lon="-2.7163">
        <ele>107.3</ele>
        <time>2015-12-06T14:57:12.000Z</time>
      </trkpt>
      <trkpt lat="47.70843" lon="-2.71633">
        <ele>107.2</ele>
        <time>2015-12-06T14:57:13.000Z</time>
      </trkpt>
      <trkpt lat="47.70846" lon="-2.71636">
        <ele>107.1</ele>
        <time>2015-12-06T14:57:14.000Z</time>
      </trkpt>
      <trkpt lat="47.70849" lon="-2.71639">
        <ele>107</ele>
        <time>2015-12-06T14:57:15.000Z</time>
      </trkpt>
      <trkpt lat="47.70852" lon="-2.71642">
        <ele>106.9</ele>
        <time>2015-12-06T14:57:16.000Z</time>
      </trkpt>
      <trkpt lat="47.70855" lon="-2.71646">
        <ele>106.7</ele>
        <time>2015-12-06T14:57:17.000Z</time>
      </trkpt>
      <trkpt lat="47.70857" lon="-2.71649">
        <ele>106.6</ele>
        <time>2015-12-06T14:57:18.000Z</time>
      </trkpt>
      <trkpt lat="47.7086" lon="-2.71652">
        <ele>106.5</ele>
        <time>2015-12-06T14:57:19.000Z</time>
      </trkpt>
      <trkpt lat="47.70863" lon="-2.71655">
        <ele>106.4</ele>
        <time>2015-12-06T14:57:20.000Z</time>
      </trkpt>
      <trkpt lat="47.70866" lon="-2.71659">
        <ele>106.3</ele>
        <time>2015-12-06T14:57:21.000Z</time>
      </trkpt>
      <trkpt lat="47.7087" lon="-2.71663">
        <ele>106.2</ele>
        <time>2015-12-06T14:57:22.000Z</time>
      </trkpt>
      <trkpt lat="47.70873" lon="-2.71667">
        <ele>106</ele>
        <time>2015-12-06T14:57:23.000Z</time>
      </trkpt>
      <trkpt lat="47.70876" lon="-2.71672">
        <ele>105.6</ele>
        <time>2015-12-06T14:57:24.000Z</time>
      </trkpt>
      <trkpt lat="47.70878" lon="-2.71677">
        <ele>104.8</ele>
        <time>2015-12-06T14:57:25.000Z</time>
      </trkpt>
      <trkpt lat="47.7088" lon="-2.71684">
        <ele>104.3</ele>
        <time>2015-12-06T14:57:26.000Z</time>
      </trkpt>
      <trkpt lat="47.7088" lon="-2.7169">
        <ele>104.1</ele>
        <time>2015-12-06T14:57:27.000Z</time>
      </trkpt>
      <trkpt lat="47.7088" lon="-2.71693">
        <ele>103.9</ele>
        <time>2015-12-06T14:57:28.000Z</time>
      </trkpt>
      <trkpt lat="47.70881" lon="-2.71695">
        <ele>103.8</ele>
        <time>2015-12-06T14:57:29.000Z</time>
      </trkpt>
      <trkpt lat="47.70882" lon="-2.71696">
        <ele>103.5</ele>
        <time>2015-12-06T14:57:30.000Z</time>
      </trkpt>
      <trkpt lat="47.70883" lon="-2.71698">
        <ele>103.1</ele>
        <time>2015-12-06T14:57:31.000Z</time>
      </trkpt>
      <trkpt lat="47.70884" lon="-2.71699">
        <ele>102.7</ele>
        <time>2015-12-06T14:57:32.000Z</time>
      </trkpt>
      <trkpt lat="47.70885" lon="-2.71701">
        <ele>102.4</ele>
        <time>2015-12-06T14:57:33.000Z</time>
      </trkpt>
      <trkpt lat="47.70885" lon="-2.71704">
        <ele>102.3</ele>
        <time>2015-12-06T14:57:34.000Z</time>
      </trkpt>
      <trkpt lat="47.70886" lon="-2.71708">
        <ele>102</ele>
        <time>2015-12-06T14:57:35.000Z</time>
      </trkpt>
      <trkpt lat="47.70887" lon="-2.71713">
        <ele>101.7</ele>
        <time>2015-12-06T14:57:36.000Z</time>
      </trkpt>
      <trkpt lat="47.70888" lon="-2.71719">
        <ele>101.2</ele>
        <time>2015-12-06T14:57:37.000Z</time>
      </trkpt>
      <trkpt lat="47.7089" lon="-2.71726">
        <ele>100.7</ele>
        <time>2015-12-06T14:57:38.000Z</time>
      </trkpt>
      <trkpt lat="47.70892" lon="-2.71733">
        <ele>100</ele>
        <time>2015-12-06T14:57:39.000Z</time>
      </trkpt>
      <trkpt lat="47.70894" lon="-2.71741">
        <ele>99.5</ele>
        <time>2015-12-06T14:57:40.000Z</time>
      </trkpt>
      <trkpt lat="47.70896" lon="-2.71748">
        <ele>98.9</ele>
        <time>2015-12-06T14:57:41.000Z</time>
      </trkpt>
      <trkpt lat="47.70898" lon="-2.71756">
        <ele>98.3</ele>
        <time>2015-12-06T14:57:42.000Z</time>
      </trkpt>
      <trkpt lat="47.70899" lon="-2.71765">
        <ele>97.8</ele>
        <time>2015-12-06T14:57:43.000Z</time>
      </trkpt>
      <trkpt lat="47.70901" lon="-2.71775">
        <ele>97.3</ele>
        <time>2015-12-06T14:57:44.000Z</time>
      </trkpt>
      <trkpt lat="47.70903" lon="-2.71784">
        <ele>96.8</ele>
        <time>2015-12-06T14:57:45.000Z</time>
      </trkpt>
      <trkpt lat="47.70904" lon="-2.71794">
        <ele>96.1</ele>
        <time>2015-12-06T14:57:46.000Z</time>
      </trkpt>
      <trkpt lat="47.70906" lon="-2.71803">
        <ele>95</ele>
        <time>2015-12-06T14:57:47.000Z</time>
      </trkpt>
      <trkpt lat="47.70907" lon="-2.7181">
        <ele>94.1</ele>
        <time>2015-12-06T14:57:48.000Z</time>
      </trkpt>
      <trkpt lat="47.70908" lon="-2.71817">
        <ele>93.2</ele>
        <time>2015-12-06T14:57:49.000Z</time>
      </trkpt>
      <trkpt lat="47.70911" lon="-2.71823">
        <ele>92.1</ele>
        <time>2015-12-06T14:57:50.000Z</time>
      </trkpt>
      <trkpt lat="47.70913" lon="-2.71829">
        <ele>90.9</ele>
        <time>2015-12-06T14:57:51.000Z</time>
      </trkpt>
      <trkpt lat="47.70915" lon="-2.71835">
        <ele>89.9</ele>
        <time>2015-12-06T14:57:52.000Z</time>
      </trkpt>
      <trkpt lat="47.70917" lon="-2.71841">
        <ele>88.9</ele>
        <time>2015-12-06T14:57:53.000Z</time>
      </trkpt>
      <trkpt lat="47.70918" lon="-2.71848">
        <ele>88</ele>
        <time>2015-12-06T14:57:54.000Z</time>
      </trkpt>
      <trkpt lat="47.70919" lon="-2.71854">
        <ele>87.3</ele>
        <time>2015-12-06T14:57:55.000Z</time>
      </trkpt>
      <trkpt lat="47.70919" lon="-2.7186">
        <ele>86.6</ele>
        <time>2015-12-06T14:57:56.000Z</time>
      </trkpt>
      <trkpt lat="47.7092" lon="-2.71866">
        <ele>85.9</ele>
        <time>2015-12-06T14:57:57.000Z</time>
      </trkpt>
      <trkpt lat="47.70921" lon="-2.71872">
        <ele>85.1</ele>
        <time>2015-12-06T14:57:58.000Z</time>
      </trkpt>
      <trkpt lat="47.70921" lon="-2.71878">
        <ele>84.4</ele>
        <time>2015-12-06T14:57:59.000Z</time>
      </trkpt>
      <trkpt lat="47.70921" lon="-2.71884">
        <ele>83.7</ele>
        <time>2015-12-06T14:58:00.000Z</time>
      </trkpt>
      <trkpt lat="47.7092" lon="-2.71891">
        <ele>83.3</ele>
        <time>2015-12-06T14:58:01.000Z</time>
      </trkpt>
      <trkpt lat="47.70918" lon="-2.71898">
        <ele>83</ele>
        <time>2015-12-06T14:58:02.000Z</time>
      </trkpt>
      <trkpt lat="47.70916" lon="-2.71906">
        <ele>82.7</ele>
        <time>2015-12-06T14:58:03.000Z</time>
      </trkpt>
      <trkpt lat="47.70913" lon="-2.71913">
        <ele>82.6</ele>
        <time>2015-12-06T14:58:04.000Z</time>
      </trkpt>
      <trkpt lat="47.70911" lon="-2.71919">
        <ele>82.3</ele>
        <time>2015-12-06T14:58:05.000Z</time>
      </trkpt>
      <trkpt lat="47.70909" lon="-2.71925">
        <ele>82</ele>
        <time>2015-12-06T14:58:06.000Z</time>
      </trkpt>
      <trkpt lat="47.70909" lon="-2.71931">
        <ele>81.4</ele>
        <time>2015-12-06T14:58:07.000Z</time>
      </trkpt>
      <trkpt lat="47.70909" lon="-2.71935">
        <ele>80.9</ele>
        <time>2015-12-06T14:58:08.000Z</time>
      </trkpt>
      <trkpt lat="47.70909" lon="-2.71938">
        <ele>80.4</ele>
        <time>2015-12-06T14:58:09.000Z</time>
      </trkpt>
      <trkpt lat="47.70909" lon="-2.71941">
        <ele>80.1</ele>
        <time>2015-12-06T14:58:10.000Z</time>
      </trkpt>
      <trkpt lat="47.70908" lon="-2.71945">
        <ele>79.8</ele>
        <time>2015-12-06T14:58:11.000Z</time>
      </trkpt>
      <trkpt lat="47.70907" lon="-2.71949">
        <ele>79.5</ele>
        <time>2015-12-06T14:58:12.000Z</time>
      </trkpt>
      <trkpt lat="47.70906" lon="-2.71953">
        <ele>79.2</ele>
        <time>2015-12-06T14:58:13.000Z</time>
      </trkpt>
      <trkpt lat="47.70905" lon="-2.71957">
        <ele>78.9</ele>
        <time>2015-12-06T14:58:14.000Z</time>
      </trkpt>
      <trkpt lat="47.70903" lon="-2.71961">
        <ele>78.7</ele>
        <time>2015-12-06T14:58:15.000Z</time>
      </trkpt>
      <trkpt lat="47.70901" lon="-2.71965">
        <ele>78.7</ele>
        <time>2015-12-06T14:58:16.000Z</time>
      </trkpt>
      <trkpt lat="47.709" lon="-2.71969">
        <ele>78.6</ele>
        <time>2015-12-06T14:58:17.000Z</time>
      </trkpt>
      <trkpt lat="47.70897" lon="-2.71973">
        <ele>78.6</ele>
        <time>2015-12-06T14:58:18.000Z</time>
      </trkpt>
      <trkpt lat="47.70896" lon="-2.71977">
        <ele>78.4</ele>
        <time>2015-12-06T14:58:19.000Z</time>
      </trkpt>
      <trkpt lat="47.70894" lon="-2.71981">
        <ele>78.2</ele>
        <time>2015-12-06T14:58:20.000Z</time>
      </trkpt>
      <trkpt lat="47.70893" lon="-2.71985">
        <ele>78</ele>
        <time>2015-12-06T14:58:21.000Z</time>
      </trkpt>
      <trkpt lat="47.70893" lon="-2.71988">
        <ele>77.7</ele>
        <time>2015-12-06T14:58:22.000Z</time>
      </trkpt>
      <trkpt lat="47.70893" lon="-2.71991">
        <ele>77.4</ele>
        <time>2015-12-06T14:58:23.000Z</time>
      </trkpt>
      <trkpt lat="47.70892" lon="-2.71994">
        <ele>77.1</ele>
        <time>2015-12-06T14:58:24.000Z</time>
      </trkpt>
      <trkpt lat="47.70891" lon="-2.71998">
        <ele>76.8</ele>
        <time>2015-12-06T14:58:25.000Z</time>
      </trkpt>
      <trkpt lat="47.70889" lon="-2.72004">
        <ele>76.3</ele>
        <time>2015-12-06T14:58:26.000Z</time>
      </trkpt>
      <trkpt lat="47.70888" lon="-2.72011">
        <ele>75.6</ele>
        <time>2015-12-06T14:58:27.000Z</time>
      </trkpt>
      <trkpt lat="47.70887" lon="-2.72017">
        <ele>74.9</ele>
        <time>2015-12-06T14:58:28.000Z</time>
      </trkpt>
      <trkpt lat="47.70887" lon="-2.72023">
        <ele>74.2</ele>
        <time>2015-12-06T14:58:29.000Z</time>
      </trkpt>
      <trkpt lat="47.70888" lon="-2.72028">
        <ele>73.6</ele>
        <time>2015-12-06T14:58:30.000Z</time>
      </trkpt>
      <trkpt lat="47.70889" lon="-2.72035">
        <ele>72.8</ele>
        <time>2015-12-06T14:58:31.000Z</time>
      </trkpt>
      <trkpt lat="47.7089" lon="-2.72041">
        <ele>72.1</ele>
        <time>2015-12-06T14:58:32.000Z</time>
      </trkpt>
      <trkpt lat="47.70892" lon="-2.72047">
        <ele>72</ele>
        <time>2015-12-06T14:58:33.000Z</time>
      </trkpt>
      <trkpt lat="47.70894" lon="-2.72053">
        <ele>72.1</ele>
        <time>2015-12-06T14:58:34.000Z</time>
      </trkpt>
      <trkpt lat="47.70896" lon="-2.72059">
        <ele>72.2</ele>
        <time>2015-12-06T14:58:35.000Z</time>
      </trkpt>
      <trkpt lat="47.70899" lon="-2.72064">
        <ele>72.4</ele>
        <time>2015-12-06T14:58:36.000Z</time>
      </trkpt>
      <trkpt lat="47.70901" lon="-2.72068">
        <ele>72.6</ele>
        <time>2015-12-06T14:58:37.000Z</time>
      </trkpt>
      <trkpt lat="47.70903" lon="-2.72073">
        <ele>72.9</ele>
        <time>2015-12-06T14:58:38.000Z</time>
      </trkpt>
      <trkpt lat="47.70906" lon="-2.72077">
        <ele>73.2</ele>
        <time>2015-12-06T14:58:39.000Z</time>
      </trkpt>
      <trkpt lat="47.70908" lon="-2.7208">
        <ele>73.5</ele>
        <time>2015-12-06T14:58:40.000Z</time>
      </trkpt>
      <trkpt lat="47.70911" lon="-2.72082">
        <ele>73.9</ele>
        <time>2015-12-06T14:58:41.000Z</time>
      </trkpt>
      <trkpt lat="47.70913" lon="-2.72082">
        <ele>74.1</ele>
        <time>2015-12-06T14:58:42.000Z</time>
      </trkpt>
      <trkpt lat="47.70915" lon="-2.72083">
        <ele>74.2</ele>
        <time>2015-12-06T14:58:43.000Z</time>
      </trkpt>
      <trkpt lat="47.70916" lon="-2.72082">
        <ele>74.4</ele>
        <time>2015-12-06T14:58:44.000Z</time>
      </trkpt>
      <trkpt lat="47.70918" lon="-2.72081">
        <ele>74.5</ele>
        <time>2015-12-06T14:58:45.000Z</time>
      </trkpt>
      <trkpt lat="47.7092" lon="-2.72081">
        <ele>74.6</ele>
        <time>2015-12-06T14:58:46.000Z</time>
      </trkpt>
      <trkpt lat="47.70922" lon="-2.7208">
        <ele>74.8</ele>
        <time>2015-12-06T14:58:47.000Z</time>
      </trkpt>
      <trkpt lat="47.70924" lon="-2.7208">
        <ele>74.9</ele>
        <time>2015-12-06T14:58:48.000Z</time>
      </trkpt>
      <trkpt lat="47.70926" lon="-2.7208">
        <ele>75.1</ele>
        <time>2015-12-06T14:58:49.000Z</time>
      </trkpt>
      <trkpt lat="47.70928" lon="-2.72079">
        <ele>75.2</ele>
        <time>2015-12-06T14:58:50.000Z</time>
      </trkpt>
      <trkpt lat="47.7093" lon="-2.72077">
        <ele>75.2</ele>
        <time>2015-12-06T14:58:51.000Z</time>
      </trkpt>
      <trkpt lat="47.70932" lon="-2.72076">
        <ele>75.2</ele>
        <time>2015-12-06T14:58:52.000Z</time>
      </trkpt>
      <trkpt lat="47.70934" lon="-2.72075">
        <ele>75.3</ele>
        <time>2015-12-06T14:58:53.000Z</time>
      </trkpt>
      <trkpt lat="47.70935" lon="-2.72073">
        <ele>75.3</ele>
        <time>2015-12-06T14:58:54.000Z</time>
      </trkpt>
      <trkpt lat="47.70936" lon="-2.72072">
        <ele>75.2</ele>
        <time>2015-12-06T14:58:55.000Z</time>
      </trkpt>
      <trkpt lat="47.70938" lon="-2.72071">
        <ele>75.2</ele>
        <time>2015-12-06T14:58:56.000Z</time>
      </trkpt>
      <trkpt lat="47.70939" lon="-2.72069">
        <ele>75.1</ele>
        <time>2015-12-06T14:58:57.000Z</time>
      </trkpt>
      <trkpt lat="47.70941" lon="-2.72067">
        <ele>75</ele>
        <time>2015-12-06T14:58:58.000Z</time>
      </trkpt>
      <trkpt lat="47.70942" lon="-2.72065">
        <ele>74.8</ele>
        <time>2015-12-06T14:58:59.000Z</time>
      </trkpt>
      <trkpt lat="47.70944" lon="-2.72064">
        <ele>74.7</ele>
        <time>2015-12-06T14:59:00.000Z</time>
      </trkpt>
      <trkpt lat="47.70945" lon="-2.72063">
        <ele>74.7</ele>
        <time>2015-12-06T14:59:01.000Z</time>
      </trkpt>
      <trkpt lat="47.70946" lon="-2.72063">
        <ele>74.7</ele>
        <time>2015-12-06T14:59:02.000Z</time>
      </trkpt>
      <trkpt lat="47.70947" lon="-2.72062">
        <ele>74.6</ele>
        <time>2015-12-06T14:59:03.000Z</time>
      </trkpt>
      <trkpt lat="47.70947" lon="-2.72062">
        <ele>74.6</ele>
        <time>2015-12-06T14:59:04.000Z</time>
      </trkpt>
      <trkpt lat="47.70948" lon="-2.72062">
        <ele>74.7</ele>
        <time>2015-12-06T14:59:05.000Z</time>
      </trkpt>
      <trkpt lat="47.70948" lon="-2.72063">
        <ele>74.8</ele>
        <time>2015-12-06T14:59:06.000Z</time>
      </trkpt>
      <trkpt lat="47.70948" lon="-2.72063">
        <ele>74.8</ele>
        <time>2015-12-06T14:59:07.000Z</time>
      </trkpt>
      <trkpt lat="47.70949" lon="-2.72063">
        <ele>74.9</ele>
        <time>2015-12-06T14:59:08.000Z</time>
      </trkpt>
      <trkpt lat="47.7095" lon="-2.72064">
        <ele>75</ele>
        <time>2015-12-06T14:59:09.000Z</time>
      </trkpt>
      <trkpt lat="47.7095" lon="-2.72065">
        <ele>75.2</ele>
        <time>2015-12-06T14:59:10.000Z</time>
      </trkpt>
      <trkpt lat="47.7095" lon="-2.72065">
        <ele>75.2</ele>
        <time>2015-12-06T14:59:11.000Z</time>
      </trkpt>
      <trkpt lat="47.70951" lon="-2.72065">
        <ele>75.3</ele>
        <time>2015-12-06T14:59:12.000Z</time>
      </trkpt>
      <trkpt lat="47.70951" lon="-2.72066">
        <ele>75.3</ele>
        <time>2015-12-06T14:59:13.000Z</time>
      </trkpt>
      <trkpt lat="47.70952" lon="-2.72076">
        <ele>76.8</ele>
        <time>2015-12-06T14:59:14.000Z</time>
      </trkpt>
      <trkpt lat="47.70951" lon="-2.72078">
        <ele>77</ele>
        <time>2015-12-06T14:59:15.000Z</time>
      </trkpt>
      <trkpt lat="47.7095" lon="-2.72081">
        <ele>77.3</ele>
        <time>2015-12-06T14:59:16.000Z</time>
      </trkpt>
      <trkpt lat="47.70949" lon="-2.72084">
        <ele>77.7</ele>
        <time>2015-12-06T14:59:17.000Z</time>
      </trkpt>
      <trkpt lat="47.70947" lon="-2.72089">
        <ele>78.1</ele>
        <time>2015-12-06T14:59:18.000Z</time>
      </trkpt>
      <trkpt lat="47.70946" lon="-2.72093">
        <ele>78.6</ele>
        <time>2015-12-06T14:59:19.000Z</time>
      </trkpt>
      <trkpt lat="47.70945" lon="-2.72098">
        <ele>79</ele>
        <time>2015-12-06T14:59:20.000Z</time>
      </trkpt>
      <trkpt lat="47.70944" lon="-2.72103">
        <ele>79.5</ele>
        <time>2015-12-06T14:59:21.000Z</time>
      </trkpt>
      <trkpt lat="47.70942" lon="-2.72108">
        <ele>79.9</ele>
        <time>2015-12-06T14:59:22.000Z</time>
      </trkpt>
      <trkpt lat="47.70941" lon="-2.72114">
        <ele>80.3</ele>
        <time>2015-12-06T14:59:23.000Z</time>
      </trkpt>
      <trkpt lat="47.70939" lon="-2.72119">
        <ele>80.6</ele>
        <time>2015-12-06T14:59:24.000Z</time>
      </trkpt>
      <trkpt lat="47.70938" lon="-2.72123">
        <ele>80.9</ele>
        <time>2015-12-06T14:59:25.000Z</time>
      </trkpt>
      <trkpt lat="47.70937" lon="-2.72127">
        <ele>81.2</ele>
        <time>2015-12-06T14:59:26.000Z</time>
      </trkpt>
      <trkpt lat="47.70935" lon="-2.72132">
        <ele>81.6</ele>
        <time>2015-12-06T14:59:27.000Z</time>
      </trkpt>
      <trkpt lat="47.70934" lon="-2.72136">
        <ele>82</ele>
        <time>2015-12-06T14:59:28.000Z</time>
      </trkpt>
      <trkpt lat="47.70932" lon="-2.7214">
        <ele>82.3</ele>
        <time>2015-12-06T14:59:29.000Z</time>
      </trkpt>
      <trkpt lat="47.7093" lon="-2.72144">
        <ele>82.6</ele>
        <time>2015-12-06T14:59:30.000Z</time>
      </trkpt>
      <trkpt lat="47.70928" lon="-2.72148">
        <ele>82.9</ele>
        <time>2015-12-06T14:59:31.000Z</time>
      </trkpt>
      <trkpt lat="47.70927" lon="-2.72152">
        <ele>83.2</ele>
        <time>2015-12-06T14:59:32.000Z</time>
      </trkpt>
      <trkpt lat="47.70925" lon="-2.72156">
        <ele>83.6</ele>
        <time>2015-12-06T14:59:33.000Z</time>
      </trkpt>
      <trkpt lat="47.70923" lon="-2.7216">
        <ele>83.9</ele>
        <time>2015-12-06T14:59:34.000Z</time>
      </trkpt>
      <trkpt lat="47.70921" lon="-2.72164">
        <ele>84.2</ele>
        <time>2015-12-06T14:59:35.000Z</time>
      </trkpt>
      <trkpt lat="47.70919" lon="-2.72168">
        <ele>84.4</ele>
        <time>2015-12-06T14:59:36.000Z</time>
      </trkpt>
      <trkpt lat="47.70917" lon="-2.72171">
        <ele>84.6</ele>
        <time>2015-12-06T14:59:37.000Z</time>
      </trkpt>
      <trkpt lat="47.70915" lon="-2.72174">
        <ele>84.7</ele>
        <time>2015-12-06T14:59:38.000Z</time>
      </trkpt>
      <trkpt lat="47.70913" lon="-2.72178">
        <ele>84.8</ele>
        <time>2015-12-06T14:59:39.000Z</time>
      </trkpt>
      <trkpt lat="47.70911" lon="-2.72181">
        <ele>85.1</ele>
        <time>2015-12-06T14:59:40.000Z</time>
      </trkpt>
      <trkpt lat="47.7091" lon="-2.72185">
        <ele>85.3</ele>
        <time>2015-12-06T14:59:41.000Z</time>
      </trkpt>
      <trkpt lat="47.70908" lon="-2.72188">
        <ele>85.6</ele>
        <time>2015-12-06T14:59:42.000Z</time>
      </trkpt>
      <trkpt lat="47.70906" lon="-2.7219">
        <ele>85.6</ele>
        <time>2015-12-06T14:59:43.000Z</time>
      </trkpt>
      <trkpt lat="47.70904" lon="-2.72193">
        <ele>85.6</ele>
        <time>2015-12-06T14:59:44.000Z</time>
      </trkpt>
      <trkpt lat="47.70902" lon="-2.72195">
        <ele>85.7</ele>
        <time>2015-12-06T14:59:45.000Z</time>
      </trkpt>
      <trkpt lat="47.709" lon="-2.72198">
        <ele>85.8</ele>
        <time>2015-12-06T14:59:46.000Z</time>
      </trkpt>
      <trkpt lat="47.70898" lon="-2.72201">
        <ele>85.9</ele>
        <time>2015-12-06T14:59:47.000Z</time>
      </trkpt>
      <trkpt lat="47.70895" lon="-2.72205">
        <ele>86</ele>
        <time>2015-12-06T14:59:48.000Z</time>
      </trkpt>
      <trkpt lat="47.70893" lon="-2.72208">
        <ele>86.2</ele>
        <time>2015-12-06T14:59:49.000Z</time>
      </trkpt>
      <trkpt lat="47.70891" lon="-2.72212">
        <ele>86.3</ele>
        <time>2015-12-06T14:59:50.000Z</time>
      </trkpt>
      <trkpt lat="47.70889" lon="-2.72217">
        <ele>86.4</ele>
        <time>2015-12-06T14:59:51.000Z</time>
      </trkpt>
      <trkpt lat="47.70887" lon="-2.72221">
        <ele>86.5</ele>
        <time>2015-12-06T14:59:52.000Z</time>
      </trkpt>
      <trkpt lat="47.70884" lon="-2.72225">
        <ele>86.5</ele>
        <time>2015-12-06T14:59:53.000Z</time>
      </trkpt>
      <trkpt lat="47.70881" lon="-2.72229">
        <ele>86.5</ele>
        <time>2015-12-06T14:59:54.000Z</time>
      </trkpt>
      <trkpt lat="47.70879" lon="-2.72232">
        <ele>86.5</ele>
        <time>2015-12-06T14:59:55.000Z</time>
      </trkpt>
      <trkpt lat="47.70876" lon="-2.72236">
        <ele>86.5</ele>
        <time>2015-12-06T14:59:56.000Z</time>
      </trkpt>
      <trkpt lat="47.70874" lon="-2.7224">
        <ele>86.6</ele>
        <time>2015-12-06T14:59:57.000Z</time>
      </trkpt>
      <trkpt lat="47.70871" lon="-2.72244">
        <ele>86.7</ele>
        <time>2015-12-06T14:59:58.000Z</time>
      </trkpt>
      <trkpt lat="47.70868" lon="-2.72247">
        <ele>86.9</ele>
        <time>2015-12-06T14:59:59.000Z</time>
      </trkpt>
      <trkpt lat="47.70866" lon="-2.7225">
        <ele>86.9</ele>
        <time>2015-12-06T15:00:00.000Z</time>
      </trkpt>
      <trkpt lat="47.70863" lon="-2.72253">
        <ele>87</ele>
        <time>2015-12-06T15:00:01.000Z</time>
      </trkpt>
      <trkpt lat="47.70861" lon="-2.72256">
        <ele>87</ele>
        <time>2015-12-06T15:00:02.000Z</time>
      </trkpt>
      <trkpt lat="47.70858" lon="-2.72259">
        <ele>87.2</ele>
        <time>2015-12-06T15:00:03.000Z</time>
      </trkpt>
      <trkpt lat="47.70856" lon="-2.72263">
        <ele>87.2</ele>
        <time>2015-12-06T15:00:04.000Z</time>
      </trkpt>
      <trkpt lat="47.70853" lon="-2.72266">
        <ele>87.4</ele>
        <time>2015-12-06T15:00:05.000Z</time>
      </trkpt>
      <trkpt lat="47.70849" lon="-2.7227">
        <ele>87.4</ele>
        <time>2015-12-06T15:00:06.000Z</time>
      </trkpt>
      <trkpt lat="47.70846" lon="-2.72274">
        <ele>87.5</ele>
        <time>2015-12-06T15:00:07.000Z</time>
      </trkpt>
      <trkpt lat="47.70842" lon="-2.72277">
        <ele>87.5</ele>
        <time>2015-12-06T15:00:08.000Z</time>
      </trkpt>
      <trkpt lat="47.70838" lon="-2.7228">
        <ele>87.4</ele>
        <time>2015-12-06T15:00:09.000Z</time>
      </trkpt>
      <trkpt lat="47.70834" lon="-2.72283">
        <ele>87.4</ele>
        <time>2015-12-06T15:00:10.000Z</time>
      </trkpt>
      <trkpt lat="47.7083" lon="-2.72286">
        <ele>87.3</ele>
        <time>2015-12-06T15:00:11.000Z</time>
      </trkpt>
      <trkpt lat="47.70827" lon="-2.72288">
        <ele>87.3</ele>
        <time>2015-12-06T15:00:12.000Z</time>
      </trkpt>
      <trkpt lat="47.70824" lon="-2.72291">
        <ele>87.4</ele>
        <time>2015-12-06T15:00:13.000Z</time>
      </trkpt>
      <trkpt lat="47.70821" lon="-2.72294">
        <ele>87.3</ele>
        <time>2015-12-06T15:00:14.000Z</time>
      </trkpt>
      <trkpt lat="47.70819" lon="-2.72296">
        <ele>87.1</ele>
        <time>2015-12-06T15:00:15.000Z</time>
      </trkpt>
      <trkpt lat="47.70816" lon="-2.72298">
        <ele>87</ele>
        <time>2015-12-06T15:00:16.000Z</time>
      </trkpt>
      <trkpt lat="47.70814" lon="-2.723">
        <ele>86.8</ele>
        <time>2015-12-06T15:00:17.000Z</time>
      </trkpt>
      <trkpt lat="47.70811" lon="-2.72303">
        <ele>86.6</ele>
        <time>2015-12-06T15:00:18.000Z</time>
      </trkpt>
      <trkpt lat="47.70809" lon="-2.72305">
        <ele>86.5</ele>
        <time>2015-12-06T15:00:19.000Z</time>
      </trkpt>
      <trkpt lat="47.70807" lon="-2.72307">
        <ele>86.3</ele>
        <time>2015-12-06T15:00:20.000Z</time>
      </trkpt>
      <trkpt lat="47.70804" lon="-2.72308">
        <ele>86.1</ele>
        <time>2015-12-06T15:00:21.000Z</time>
      </trkpt>
      <trkpt lat="47.70802" lon="-2.7231">
        <ele>85.9</ele>
        <time>2015-12-06T15:00:22.000Z</time>
      </trkpt>
      <trkpt lat="47.70799" lon="-2.72313">
        <ele>85.8</ele>
        <time>2015-12-06T15:00:23.000Z</time>
      </trkpt>
      <trkpt lat="47.70797" lon="-2.72315">
        <ele>85.6</ele>
        <time>2015-12-06T15:00:24.000Z</time>
      </trkpt>
      <trkpt lat="47.70794" lon="-2.72317">
        <ele>85.5</ele>
        <time>2015-12-06T15:00:25.000Z</time>
      </trkpt>
      <trkpt lat="47.70792" lon="-2.72319">
        <ele>85.3</ele>
        <time>2015-12-06T15:00:26.000Z</time>
      </trkpt>
      <trkpt lat="47.7079" lon="-2.7232">
        <ele>85.1</ele>
        <time>2015-12-06T15:00:27.000Z</time>
      </trkpt>
      <trkpt lat="47.70789" lon="-2.72322">
        <ele>84.9</ele>
        <time>2015-12-06T15:00:28.000Z</time>
      </trkpt>
      <trkpt lat="47.70787" lon="-2.72324">
        <ele>84.8</ele>
        <time>2015-12-06T15:00:29.000Z</time>
      </trkpt>
      <trkpt lat="47.70787" lon="-2.72327">
        <ele>84.8</ele>
        <time>2015-12-06T15:00:30.000Z</time>
      </trkpt>
      <trkpt lat="47.70786" lon="-2.7233">
        <ele>84.9</ele>
        <time>2015-12-06T15:00:31.000Z</time>
      </trkpt>
      <trkpt lat="47.70787" lon="-2.72332">
        <ele>85</ele>
        <time>2015-12-06T15:00:32.000Z</time>
      </trkpt>
      <trkpt lat="47.70787" lon="-2.72332">
        <ele>85.1</ele>
        <time>2015-12-06T15:00:33.000Z</time>
      </trkpt>
      <trkpt lat="47.70787" lon="-2.72332">
        <ele>85.2</ele>
        <time>2015-12-06T15:00:34.000Z</time>
      </trkpt>
      <trkpt lat="47.70788" lon="-2.72332">
        <ele>85.3</ele>
        <time>2015-12-06T15:00:35.000Z</time>
      </trkpt>
      <trkpt lat="47.70789" lon="-2.72332">
        <ele>85.4</ele>
        <time>2015-12-06T15:00:36.000Z</time>
      </trkpt>
      <trkpt lat="47.7079" lon="-2.72332">
        <ele>85.6</ele>
        <time>2015-12-06T15:00:37.000Z</time>
      </trkpt>
      <trkpt lat="47.70791" lon="-2.72331">
        <ele>85.8</ele>
        <time>2015-12-06T15:00:38.000Z</time>
      </trkpt>
      <trkpt lat="47.70792" lon="-2.7233">
        <ele>85.9</ele>
        <time>2015-12-06T15:00:39.000Z</time>
      </trkpt>
      <trkpt lat="47.70792" lon="-2.72329">
        <ele>85.9</ele>
        <time>2015-12-06T15:00:40.000Z</time>
      </trkpt>
      <trkpt lat="47.70793" lon="-2.72329">
        <ele>85.9</ele>
        <time>2015-12-06T15:00:41.000Z</time>
      </trkpt>
      <trkpt lat="47.70795" lon="-2.72328">
        <ele>86.1</ele>
        <time>2015-12-06T15:00:42.000Z</time>
      </trkpt>
      <trkpt lat="47.70796" lon="-2.72327">
        <ele>86.2</ele>
        <time>2015-12-06T15:00:43.000Z</time>
      </trkpt>
      <trkpt lat="47.70798" lon="-2.72326">
        <ele>86.3</ele>
        <time>2015-12-06T15:00:44.000Z</time>
      </trkpt>
      <trkpt lat="47.70799" lon="-2.72325">
        <ele>86.4</ele>
        <time>2015-12-06T15:00:45.000Z</time>
      </trkpt>
      <trkpt lat="47.708" lon="-2.72324">
        <ele>86.5</ele>
        <time>2015-12-06T15:00:46.000Z</time>
      </trkpt>
      <trkpt lat="47.70802" lon="-2.72323">
        <ele>86.6</ele>
        <time>2015-12-06T15:00:47.000Z</time>
      </trkpt>
      <trkpt lat="47.70803" lon="-2.72322">
        <ele>86.7</ele>
        <time>2015-12-06T15:00:48.000Z</time>
      </trkpt>
      <trkpt lat="47.70806" lon="-2.72321">
        <ele>86.8</ele>
        <time>2015-12-06T15:00:49.000Z</time>
      </trkpt>
      <trkpt lat="47.70808" lon="-2.72319">
        <ele>87</ele>
        <time>2015-12-06T15:00:50.000Z</time>
      </trkpt>
      <trkpt lat="47.70811" lon="-2.72317">
        <ele>87.2</ele>
        <time>2015-12-06T15:00:51.000Z</time>
      </trkpt>
      <trkpt lat="47.70814" lon="-2.72316">
        <ele>87.5</ele>
        <time>2015-12-06T15:00:52.000Z</time>
      </trkpt>
      <trkpt lat="47.70816" lon="-2.72315">
        <ele>87.7</ele>
        <time>2015-12-06T15:00:53.000Z</time>
      </trkpt>
      <trkpt lat="47.70818" lon="-2.72314">
        <ele>87.9</ele>
        <time>2015-12-06T15:00:54.000Z</time>
      </trkpt>
      <trkpt lat="47.70821" lon="-2.72311">
        <ele>88</ele>
        <time>2015-12-06T15:00:55.000Z</time>
      </trkpt>
      <trkpt lat="47.70824" lon="-2.72309">
        <ele>88.3</ele>
        <time>2015-12-06T15:00:56.000Z</time>
      </trkpt>
      <trkpt lat="47.70828" lon="-2.72306">
        <ele>88.6</ele>
        <time>2015-12-06T15:00:57.000Z</time>
      </trkpt>
      <trkpt lat="47.70833" lon="-2.72304">
        <ele>88.9</ele>
        <time>2015-12-06T15:00:58.000Z</time>
      </trkpt>
      <trkpt lat="47.70836" lon="-2.72301">
        <ele>89.2</ele>
        <time>2015-12-06T15:00:59.000Z</time>
      </trkpt>
      <trkpt lat="47.7084" lon="-2.72298">
        <ele>89.5</ele>
        <time>2015-12-06T15:01:00.000Z</time>
      </trkpt>
      <trkpt lat="47.70843" lon="-2.72296">
        <ele>89.7</ele>
        <time>2015-12-06T15:01:01.000Z</time>
      </trkpt>
      <trkpt lat="47.70846" lon="-2.72294">
        <ele>89.9</ele>
        <time>2015-12-06T15:01:02.000Z</time>
      </trkpt>
      <trkpt lat="47.70849" lon="-2.72292">
        <ele>90.2</ele>
        <time>2015-12-06T15:01:03.000Z</time>
      </trkpt>
      <trkpt lat="47.70852" lon="-2.7229">
        <ele>90.3</ele>
        <time>2015-12-06T15:01:04.000Z</time>
      </trkpt>
      <trkpt lat="47.70855" lon="-2.72288">
        <ele>90.4</ele>
        <time>2015-12-06T15:01:05.000Z</time>
      </trkpt>
      <trkpt lat="47.70858" lon="-2.72287">
        <ele>90.5</ele>
        <time>2015-12-06T15:01:06.000Z</time>
      </trkpt>
      <trkpt lat="47.7086" lon="-2.72285">
        <ele>90.5</ele>
        <time>2015-12-06T15:01:07.000Z</time>
      </trkpt>
      <trkpt lat="47.70863" lon="-2.72283">
        <ele>90.6</ele>
        <time>2015-12-06T15:01:08.000Z</time>
      </trkpt>
      <trkpt lat="47.70866" lon="-2.7228">
        <ele>90.6</ele>
        <time>2015-12-06T15:01:09.000Z</time>
      </trkpt>
      <trkpt lat="47.70868" lon="-2.72278">
        <ele>90.6</ele>
        <time>2015-12-06T15:01:10.000Z</time>
      </trkpt>
      <trkpt lat="47.70872" lon="-2.72275">
        <ele>90.7</ele>
        <time>2015-12-06T15:01:11.000Z</time>
      </trkpt>
      <trkpt lat="47.70875" lon="-2.72273">
        <ele>90.8</ele>
        <time>2015-12-06T15:01:12.000Z</time>
      </trkpt>
      <trkpt lat="47.70878" lon="-2.72271">
        <ele>91</ele>
        <time>2015-12-06T15:01:13.000Z</time>
      </trkpt>
      <trkpt lat="47.70881" lon="-2.72269">
        <ele>91.1</ele>
        <time>2015-12-06T15:01:14.000Z</time>
      </trkpt>
      <trkpt lat="47.70883" lon="-2.72267">
        <ele>91.2</ele>
        <time>2015-12-06T15:01:15.000Z</time>
      </trkpt>
      <trkpt lat="47.70886" lon="-2.72265">
        <ele>91.3</ele>
        <time>2015-12-06T15:01:16.000Z</time>
      </trkpt>
      <trkpt lat="47.70888" lon="-2.72263">
        <ele>91.4</ele>
        <time>2015-12-06T15:01:17.000Z</time>
      </trkpt>
      <trkpt lat="47.7089" lon="-2.72261">
        <ele>91.6</ele>
        <time>2015-12-06T15:01:18.000Z</time>
      </trkpt>
      <trkpt lat="47.70892" lon="-2.72259">
        <ele>91.7</ele>
        <time>2015-12-06T15:01:19.000Z</time>
      </trkpt>
      <trkpt lat="47.70894" lon="-2.72257">
        <ele>91.8</ele>
        <time>2015-12-06T15:01:20.000Z</time>
      </trkpt>
      <trkpt lat="47.70896" lon="-2.72256">
        <ele>91.9</ele>
        <time>2015-12-06T15:01:21.000Z</time>
      </trkpt>
      <trkpt lat="47.70899" lon="-2.72254">
        <ele>92.1</ele>
        <time>2015-12-06T15:01:22.000Z</time>
      </trkpt>
      <trkpt lat="47.70901" lon="-2.72252">
        <ele>92.3</ele>
        <time>2015-12-06T15:01:23.000Z</time>
      </trkpt>
      <trkpt lat="47.70904" lon="-2.7225">
        <ele>92.6</ele>
        <time>2015-12-06T15:01:24.000Z</time>
      </trkpt>
      <trkpt lat="47.70907" lon="-2.72249">
        <ele>92.9</ele>
        <time>2015-12-06T15:01:25.000Z</time>
      </trkpt>
      <trkpt lat="47.7091" lon="-2.72247">
        <ele>93.2</ele>
        <time>2015-12-06T15:01:26.000Z</time>
      </trkpt>
      <trkpt lat="47.70912" lon="-2.72246">
        <ele>93.4</ele>
        <time>2015-12-06T15:01:27.000Z</time>
      </trkpt>
      <trkpt lat="47.70915" lon="-2.72245">
        <ele>93.7</ele>
        <time>2015-12-06T15:01:28.000Z</time>
      </trkpt>
      <trkpt lat="47.70917" lon="-2.72244">
        <ele>94</ele>
        <time>2015-12-06T15:01:29.000Z</time>
      </trkpt>
      <trkpt lat="47.70919" lon="-2.72244">
        <ele>94.3</ele>
        <time>2015-12-06T15:01:30.000Z</time>
      </trkpt>
      <trkpt lat="47.70921" lon="-2.72243">
        <ele>94.6</ele>
        <time>2015-12-06T15:01:31.000Z</time>
      </trkpt>
      <trkpt lat="47.70923" lon="-2.72242">
        <ele>94.8</ele>
        <time>2015-12-06T15:01:32.000Z</time>
      </trkpt>
      <trkpt lat="47.70925" lon="-2.72241">
        <ele>95</ele>
        <time>2015-12-06T15:01:33.000Z</time>
      </trkpt>
      <trkpt lat="47.70927" lon="-2.7224">
        <ele>95.3</ele>
        <time>2015-12-06T15:01:34.000Z</time>
      </trkpt>
      <trkpt lat="47.70929" lon="-2.72239">
        <ele>95.5</ele>
        <time>2015-12-06T15:01:35.000Z</time>
      </trkpt>
      <trkpt lat="47.70931" lon="-2.72239">
        <ele>95.8</ele>
        <time>2015-12-06T15:01:36.000Z</time>
      </trkpt>
      <trkpt lat="47.70933" lon="-2.72239">
        <ele>96</ele>
        <time>2015-12-06T15:01:37.000Z</time>
      </trkpt>
      <trkpt lat="47.70934" lon="-2.72239">
        <ele>96.3</ele>
        <time>2015-12-06T15:01:38.000Z</time>
      </trkpt>
      <trkpt lat="47.70936" lon="-2.72239">
        <ele>96.6</ele>
        <time>2015-12-06T15:01:39.000Z</time>
      </trkpt>
      <trkpt lat="47.70938" lon="-2.7224">
        <ele>96.9</ele>
        <time>2015-12-06T15:01:40.000Z</time>
      </trkpt>
      <trkpt lat="47.70939" lon="-2.72241">
        <ele>97.2</ele>
        <time>2015-12-06T15:01:41.000Z</time>
      </trkpt>
      <trkpt lat="47.70941" lon="-2.72241">
        <ele>97.5</ele>
        <time>2015-12-06T15:01:42.000Z</time>
      </trkpt>
      <trkpt lat="47.70942" lon="-2.7224">
        <ele>97.7</ele>
        <time>2015-12-06T15:01:43.000Z</time>
      </trkpt>
      <trkpt lat="47.70944" lon="-2.72239">
        <ele>97.8</ele>
        <time>2015-12-06T15:01:44.000Z</time>
      </trkpt>
      <trkpt lat="47.70945" lon="-2.72237">
        <ele>97.9</ele>
        <time>2015-12-06T15:01:45.000Z</time>
      </trkpt>
      <trkpt lat="47.70946" lon="-2.72235">
        <ele>97.8</ele>
        <time>2015-12-06T15:01:46.000Z</time>
      </trkpt>
      <trkpt lat="47.70947" lon="-2.72232">
        <ele>97.9</ele>
        <time>2015-12-06T15:01:47.000Z</time>
      </trkpt>
      <trkpt lat="47.70949" lon="-2.72231">
        <ele>98</ele>
        <time>2015-12-06T15:01:48.000Z</time>
      </trkpt>
      <trkpt lat="47.7095" lon="-2.72229">
        <ele>98.1</ele>
        <time>2015-12-06T15:01:49.000Z</time>
      </trkpt>
      <trkpt lat="47.70952" lon="-2.72227">
        <ele>98.3</ele>
        <time>2015-12-06T15:01:50.000Z</time>
      </trkpt>
      <trkpt lat="47.70953" lon="-2.72225">
        <ele>98.3</ele>
        <time>2015-12-06T15:01:51.000Z</time>
      </trkpt>
      <trkpt lat="47.70955" lon="-2.72223">
        <ele>98.4</ele>
        <time>2015-12-06T15:01:52.000Z</time>
      </trkpt>
      <trkpt lat="47.70956" lon="-2.72221">
        <ele>98.5</ele>
        <time>2015-12-06T15:01:53.000Z</time>
      </trkpt>
      <trkpt lat="47.70958" lon="-2.72219">
        <ele>98.7</ele>
        <time>2015-12-06T15:01:54.000Z</time>
      </trkpt>
      <trkpt lat="47.7096" lon="-2.72217">
        <ele>98.8</ele>
        <time>2015-12-06T15:01:55.000Z</time>
      </trkpt>
      <trkpt lat="47.70962" lon="-2.72216">
        <ele>98.9</ele>
        <time>2015-12-06T15:01:56.000Z</time>
      </trkpt>
      <trkpt lat="47.70963" lon="-2.72215">
        <ele>99</ele>
        <time>2015-12-06T15:01:57.000Z</time>
      </trkpt>
      <trkpt lat="47.70965" lon="-2.72214">
        <ele>99.1</ele>
        <time>2015-12-06T15:01:58.000Z</time>
      </trkpt>
      <trkpt lat="47.70966" lon="-2.72214">
        <ele>99.3</ele>
        <time>2015-12-06T15:01:59.000Z</time>
      </trkpt>
      <trkpt lat="47.70968" lon="-2.72214">
        <ele>99.6</ele>
        <time>2015-12-06T15:02:00.000Z</time>
      </trkpt>
      <trkpt lat="47.70971" lon="-2.72215">
        <ele>99.8</ele>
        <time>2015-12-06T15:02:01.000Z</time>
      </trkpt>
      <trkpt lat="47.70973" lon="-2.72215">
        <ele>100.1</ele>
        <time>2015-12-06T15:02:02.000Z</time>
      </trkpt>
      <trkpt lat="47.70975" lon="-2.72216">
        <ele>100.4</ele>
        <time>2015-12-06T15:02:03.000Z</time>
      </trkpt>
      <trkpt lat="47.70977" lon="-2.72217">
        <ele>100.7</ele>
        <time>2015-12-06T15:02:04.000Z</time>
      </trkpt>
      <trkpt lat="47.70978" lon="-2.72218">
        <ele>100.9</ele>
        <time>2015-12-06T15:02:05.000Z</time>
      </trkpt>
      <trkpt lat="47.7098" lon="-2.72219">
        <ele>101.2</ele>
        <time>2015-12-06T15:02:06.000Z</time>
      </trkpt>
      <trkpt lat="47.70982" lon="-2.72221">
        <ele>101.5</ele>
        <time>2015-12-06T15:02:07.000Z</time>
      </trkpt>
      <trkpt lat="47.70984" lon="-2.72223">
        <ele>101.8</ele>
        <time>2015-12-06T15:02:08.000Z</time>
      </trkpt>
      <trkpt lat="47.70986" lon="-2.72224">
        <ele>102</ele>
        <time>2015-12-06T15:02:09.000Z</time>
      </trkpt>
      <trkpt lat="47.70988" lon="-2.72225">
        <ele>102.3</ele>
        <time>2015-12-06T15:02:10.000Z</time>
      </trkpt>
      <trkpt lat="47.7099" lon="-2.72227">
        <ele>102.6</ele>
        <time>2015-12-06T15:02:11.000Z</time>
      </trkpt>
      <trkpt lat="47.70992" lon="-2.7223">
        <ele>102.9</ele>
        <time>2015-12-06T15:02:12.000Z</time>
      </trkpt>
      <trkpt lat="47.70994" lon="-2.72232">
        <ele>103.2</ele>
        <time>2015-12-06T15:02:13.000Z</time>
      </trkpt>
      <trkpt lat="47.70995" lon="-2.72235">
        <ele>103.5</ele>
        <time>2015-12-06T15:02:14.000Z</time>
      </trkpt>
      <trkpt lat="47.70996" lon="-2.72238">
        <ele>103.7</ele>
        <time>2015-12-06T15:02:15.000Z</time>
      </trkpt>
      <trkpt lat="47.70997" lon="-2.7224">
        <ele>103.9</ele>
        <time>2015-12-06T15:02:16.000Z</time>
      </trkpt>
      <trkpt lat="47.70998" lon="-2.72243">
        <ele>104.1</ele>
        <time>2015-12-06T15:02:17.000Z</time>
      </trkpt>
      <trkpt lat="47.71" lon="-2.72245">
        <ele>104.3</ele>
        <time>2015-12-06T15:02:18.000Z</time>
      </trkpt>
      <trkpt lat="47.71001" lon="-2.72248">
        <ele>104.5</ele>
        <time>2015-12-06T15:02:19.000Z</time>
      </trkpt>
      <trkpt lat="47.71003" lon="-2.72251">
        <ele>104.8</ele>
        <time>2015-12-06T15:02:20.000Z</time>
      </trkpt>
      <trkpt lat="47.71005" lon="-2.72254">
        <ele>105.1</ele>
        <time>2015-12-06T15:02:21.000Z</time>
      </trkpt>
      <trkpt lat="47.71007" lon="-2.72259">
        <ele>105.3</ele>
        <time>2015-12-06T15:02:22.000Z</time>
      </trkpt>
      <trkpt lat="47.71008" lon="-2.72263">
        <ele>105.5</ele>
        <time>2015-12-06T15:02:23.000Z</time>
      </trkpt>
      <trkpt lat="47.71009" lon="-2.72267">
        <ele>105.7</ele>
        <time>2015-12-06T15:02:24.000Z</time>
      </trkpt>
      <trkpt lat="47.7101" lon="-2.72271">
        <ele>105.9</ele>
        <time>2015-12-06T15:02:25.000Z</time>
      </trkpt>
      <trkpt lat="47.71011" lon="-2.72274">
        <ele>106.1</ele>
        <time>2015-12-06T15:02:26.000Z</time>
      </trkpt>
      <trkpt lat="47.71012" lon="-2.72277">
        <ele>106.2</ele>
        <time>2015-12-06T15:02:27.000Z</time>
      </trkpt>
      <trkpt lat="47.71014" lon="-2.7228">
        <ele>106.4</ele>
        <time>2015-12-06T15:02:28.000Z</time>
      </trkpt>
      <trkpt lat="47.71015" lon="-2.72283">
        <ele>106.5</ele>
        <time>2015-12-06T15:02:29.000Z</time>
      </trkpt>
      <trkpt lat="47.71016" lon="-2.72286">
        <ele>106.6</ele>
        <time>2015-12-06T15:02:30.000Z</time>
      </trkpt>
      <trkpt lat="47.71016" lon="-2.72289">
        <ele>106.7</ele>
        <time>2015-12-06T15:02:31.000Z</time>
      </trkpt>
      <trkpt lat="47.71017" lon="-2.72293">
        <ele>106.8</ele>
        <time>2015-12-06T15:02:32.000Z</time>
      </trkpt>
      <trkpt lat="47.71018" lon="-2.72296">
        <ele>106.9</ele>
        <time>2015-12-06T15:02:33.000Z</time>
      </trkpt>
      <trkpt lat="47.71019" lon="-2.72299">
        <ele>106.9</ele>
        <time>2015-12-06T15:02:34.000Z</time>
      </trkpt>
      <trkpt lat="47.71021" lon="-2.72301">
        <ele>107</ele>
        <time>2015-12-06T15:02:35.000Z</time>
      </trkpt>
      <trkpt lat="47.71023" lon="-2.72303">
        <ele>107.1</ele>
        <time>2015-12-06T15:02:36.000Z</time>
      </trkpt>
      <trkpt lat="47.71025" lon="-2.72304">
        <ele>107.2</ele>
        <time>2015-12-06T15:02:37.000Z</time>
      </trkpt>
      <trkpt lat="47.71027" lon="-2.72305">
        <ele>107.3</ele>
        <time>2015-12-06T15:02:38.000Z</time>
      </trkpt>
      <trkpt lat="47.71029" lon="-2.72305">
        <ele>107.4</ele>
        <time>2015-12-06T15:02:39.000Z</time>
      </trkpt>
      <trkpt lat="47.71031" lon="-2.72304">
        <ele>107.5</ele>
        <time>2015-12-06T15:02:40.000Z</time>
      </trkpt>
      <trkpt lat="47.71034" lon="-2.72302">
        <ele>107.6</ele>
        <time>2015-12-06T15:02:41.000Z</time>
      </trkpt>
      <trkpt lat="47.71037" lon="-2.723">
        <ele>107.8</ele>
        <time>2015-12-06T15:02:42.000Z</time>
      </trkpt>
      <trkpt lat="47.7104" lon="-2.72298">
        <ele>107.9</ele>
        <time>2015-12-06T15:02:43.000Z</time>
      </trkpt>
      <trkpt lat="47.71042" lon="-2.72297">
        <ele>108</ele>
        <time>2015-12-06T15:02:44.000Z</time>
      </trkpt>
      <trkpt lat="47.71045" lon="-2.72296">
        <ele>108</ele>
        <time>2015-12-06T15:02:45.000Z</time>
      </trkpt>
      <trkpt lat="47.71047" lon="-2.72296">
        <ele>108.1</ele>
        <time>2015-12-06T15:02:46.000Z</time>
      </trkpt>
      <trkpt lat="47.71049" lon="-2.72296">
        <ele>108.1</ele>
        <time>2015-12-06T15:02:47.000Z</time>
      </trkpt>
      <trkpt lat="47.71051" lon="-2.72298">
        <ele>108.2</ele>
        <time>2015-12-06T15:02:48.000Z</time>
      </trkpt>
      <trkpt lat="47.71053" lon="-2.72301">
        <ele>108.2</ele>
        <time>2015-12-06T15:02:49.000Z</time>
      </trkpt>
      <trkpt lat="47.71055" lon="-2.72304">
        <ele>108.3</ele>
        <time>2015-12-06T15:02:50.000Z</time>
      </trkpt>
      <trkpt lat="47.71057" lon="-2.72307">
        <ele>108.3</ele>
        <time>2015-12-06T15:02:51.000Z</time>
      </trkpt>
      <trkpt lat="47.7106" lon="-2.7231">
        <ele>108.4</ele>
        <time>2015-12-06T15:02:52.000Z</time>
      </trkpt>
      <trkpt lat="47.71062" lon="-2.72312">
        <ele>108.5</ele>
        <time>2015-12-06T15:02:53.000Z</time>
      </trkpt>
      <trkpt lat="47.71064" lon="-2.72314">
        <ele>108.6</ele>
        <time>2015-12-06T15:02:54.000Z</time>
      </trkpt>
      <trkpt lat="47.71066" lon="-2.72316">
        <ele>108.6</ele>
        <time>2015-12-06T15:02:55.000Z</time>
      </trkpt>
      <trkpt lat="47.71068" lon="-2.72319">
        <ele>108.7</ele>
        <time>2015-12-06T15:02:56.000Z</time>
      </trkpt>
      <trkpt lat="47.7107" lon="-2.72321">
        <ele>108.8</ele>
        <time>2015-12-06T15:02:57.000Z</time>
      </trkpt>
      <trkpt lat="47.71072" lon="-2.72324">
        <ele>108.9</ele>
        <time>2015-12-06T15:02:58.000Z</time>
      </trkpt>
      <trkpt lat="47.71073" lon="-2.72326">
        <ele>109</ele>
        <time>2015-12-06T15:02:59.000Z</time>
      </trkpt>
      <trkpt lat="47.71076" lon="-2.72329">
        <ele>109.1</ele>
        <time>2015-12-06T15:03:00.000Z</time>
      </trkpt>
      <trkpt lat="47.71078" lon="-2.72332">
        <ele>109.3</ele>
        <time>2015-12-06T15:03:01.000Z</time>
      </trkpt>
      <trkpt lat="47.7108" lon="-2.72334">
        <ele>109.4</ele>
        <time>2015-12-06T15:03:02.000Z</time>
      </trkpt>
      <trkpt lat="47.71081" lon="-2.72336">
        <ele>109.5</ele>
        <time>2015-12-06T15:03:03.000Z</time>
      </trkpt>
      <trkpt lat="47.71083" lon="-2.72338">
        <ele>109.6</ele>
        <time>2015-12-06T15:03:04.000Z</time>
      </trkpt>
      <trkpt lat="47.71084" lon="-2.7234">
        <ele>109.7</ele>
        <time>2015-12-06T15:03:05.000Z</time>
      </trkpt>
      <trkpt lat="47.71086" lon="-2.72343">
        <ele>109.9</ele>
        <time>2015-12-06T15:03:06.000Z</time>
      </trkpt>
      <trkpt lat="47.71088" lon="-2.72346">
        <ele>110</ele>
        <time>2015-12-06T15:03:07.000Z</time>
      </trkpt>
      <trkpt lat="47.7109" lon="-2.72348">
        <ele>110.1</ele>
        <time>2015-12-06T15:03:08.000Z</time>
      </trkpt>
      <trkpt lat="47.71092" lon="-2.7235">
        <ele>110.3</ele>
        <time>2015-12-06T15:03:09.000Z</time>
      </trkpt>
      <trkpt lat="47.71094" lon="-2.72353">
        <ele>110.5</ele>
        <time>2015-12-06T15:03:10.000Z</time>
      </trkpt>
      <trkpt lat="47.71096" lon="-2.72355">
        <ele>110.6</ele>
        <time>2015-12-06T15:03:11.000Z</time>
      </trkpt>
      <trkpt lat="47.71099" lon="-2.72356">
        <ele>110.8</ele>
        <time>2015-12-06T15:03:12.000Z</time>
      </trkpt>
      <trkpt lat="47.71101" lon="-2.72359">
        <ele>111</ele>
        <time>2015-12-06T15:03:13.000Z</time>
      </trkpt>
      <trkpt lat="47.71104" lon="-2.72361">
        <ele>111.2</ele>
        <time>2015-12-06T15:03:14.000Z</time>
      </trkpt>
      <trkpt lat="47.71107" lon="-2.72363">
        <ele>111.5</ele>
        <time>2015-12-06T15:03:15.000Z</time>
      </trkpt>
      <trkpt lat="47.71111" lon="-2.72365">
        <ele>111.8</ele>
        <time>2015-12-06T15:03:16.000Z</time>
      </trkpt>
      <trkpt lat="47.71114" lon="-2.72369">
        <ele>112.1</ele>
        <time>2015-12-06T15:03:17.000Z</time>
      </trkpt>
      <trkpt lat="47.71118" lon="-2.72374">
        <ele>112.5</ele>
        <time>2015-12-06T15:03:18.000Z</time>
      </trkpt>
      <trkpt lat="47.71122" lon="-2.72379">
        <ele>112.9</ele>
        <time>2015-12-06T15:03:19.000Z</time>
      </trkpt>
      <trkpt lat="47.71125" lon="-2.72384">
        <ele>113.1</ele>
        <time>2015-12-06T15:03:20.000Z</time>
      </trkpt>
      <trkpt lat="47.71129" lon="-2.72389">
        <ele>113</ele>
        <time>2015-12-06T15:03:21.000Z</time>
      </trkpt>
      <trkpt lat="47.71132" lon="-2.72393">
        <ele>112.9</ele>
        <time>2015-12-06T15:03:22.000Z</time>
      </trkpt>
      <trkpt lat="47.71135" lon="-2.72397">
        <ele>112.9</ele>
        <time>2015-12-06T15:03:23.000Z</time>
      </trkpt>
      <trkpt lat="47.71137" lon="-2.72401">
        <ele>112.8</ele>
        <time>2015-12-06T15:03:24.000Z</time>
      </trkpt>
      <trkpt lat="47.7114" lon="-2.72404">
        <ele>112.8</ele>
        <time>2015-12-06T15:03:25.000Z</time>
      </trkpt>
      <trkpt lat="47.71143" lon="-2.72409">
        <ele>112.8</ele>
        <time>2015-12-06T15:03:26.000Z</time>
      </trkpt>
      <trkpt lat="47.71145" lon="-2.72414">
        <ele>112.8</ele>
        <time>2015-12-06T15:03:27.000Z</time>
      </trkpt>
      <trkpt lat="47.71148" lon="-2.7242">
        <ele>112.9</ele>
        <time>2015-12-06T15:03:28.000Z</time>
      </trkpt>
      <trkpt lat="47.7115" lon="-2.72425">
        <ele>112.9</ele>
        <time>2015-12-06T15:03:29.000Z</time>
      </trkpt>
      <trkpt lat="47.71152" lon="-2.7243">
        <ele>113</ele>
        <time>2015-12-06T15:03:30.000Z</time>
      </trkpt>
      <trkpt lat="47.71153" lon="-2.72435">
        <ele>113.1</ele>
        <time>2015-12-06T15:03:31.000Z</time>
      </trkpt>
      <trkpt lat="47.71155" lon="-2.7244">
        <ele>113.2</ele>
        <time>2015-12-06T15:03:32.000Z</time>
      </trkpt>
      <trkpt lat="47.71156" lon="-2.72445">
        <ele>113.3</ele>
        <time>2015-12-06T15:03:33.000Z</time>
      </trkpt>
      <trkpt lat="47.71157" lon="-2.72449">
        <ele>113.4</ele>
        <time>2015-12-06T15:03:34.000Z</time>
      </trkpt>
      <trkpt lat="47.71159" lon="-2.72454">
        <ele>113.5</ele>
        <time>2015-12-06T15:03:35.000Z</time>
      </trkpt>
      <trkpt lat="47.7116" lon="-2.72458">
        <ele>113.6</ele>
        <time>2015-12-06T15:03:36.000Z</time>
      </trkpt>
      <trkpt lat="47.71161" lon="-2.72463">
        <ele>113.6</ele>
        <time>2015-12-06T15:03:37.000Z</time>
      </trkpt>
      <trkpt lat="47.71161" lon="-2.72467">
        <ele>113.7</ele>
        <time>2015-12-06T15:03:38.000Z</time>
      </trkpt>
      <trkpt lat="47.71162" lon="-2.72472">
        <ele>113.7</ele>
        <time>2015-12-06T15:03:39.000Z</time>
      </trkpt>
      <trkpt lat="47.71163" lon="-2.72477">
        <ele>113.7</ele>
        <time>2015-12-06T15:03:40.000Z</time>
      </trkpt>
      <trkpt lat="47.71165" lon="-2.72482">
        <ele>113.8</ele>
        <time>2015-12-06T15:03:41.000Z</time>
      </trkpt>
      <trkpt lat="47.71165" lon="-2.72487">
        <ele>113.8</ele>
        <time>2015-12-06T15:03:42.000Z</time>
      </trkpt>
      <trkpt lat="47.71166" lon="-2.72492">
        <ele>113.9</ele>
        <time>2015-12-06T15:03:43.000Z</time>
      </trkpt>
      <trkpt lat="47.71167" lon="-2.72497">
        <ele>114</ele>
        <time>2015-12-06T15:03:44.000Z</time>
      </trkpt>
      <trkpt lat="47.71169" lon="-2.72503">
        <ele>114</ele>
        <time>2015-12-06T15:03:45.000Z</time>
      </trkpt>
      <trkpt lat="47.7117" lon="-2.72509">
        <ele>114.1</ele>
        <time>2015-12-06T15:03:46.000Z</time>
      </trkpt>
      <trkpt lat="47.71172" lon="-2.72514">
        <ele>114.2</ele>
        <time>2015-12-06T15:03:47.000Z</time>
      </trkpt>
      <trkpt lat="47.71173" lon="-2.72518">
        <ele>114.2</ele>
        <time>2015-12-06T15:03:48.000Z</time>
      </trkpt>
      <trkpt lat="47.71174" lon="-2.72521">
        <ele>114.3</ele>
        <time>2015-12-06T15:03:49.000Z</time>
      </trkpt>
      <trkpt lat="47.71174" lon="-2.72525">
        <ele>114.4</ele>
        <time>2015-12-06T15:03:50.000Z</time>
      </trkpt>
      <trkpt lat="47.71175" lon="-2.7253">
        <ele>114.4</ele>
        <time>2015-12-06T15:03:51.000Z</time>
      </trkpt>
      <trkpt lat="47.71176" lon="-2.72535">
        <ele>114.5</ele>
        <time>2015-12-06T15:03:52.000Z</time>
      </trkpt>
      <trkpt lat="47.71177" lon="-2.72541">
        <ele>114.6</ele>
        <time>2015-12-06T15:03:53.000Z</time>
      </trkpt>
      <trkpt lat="47.71178" lon="-2.72547">
        <ele>114.7</ele>
        <time>2015-12-06T15:03:54.000Z</time>
      </trkpt>
      <trkpt lat="47.71179" lon="-2.72553">
        <ele>114.7</ele>
        <time>2015-12-06T15:03:55.000Z</time>
      </trkpt>
      <trkpt lat="47.7118" lon="-2.72558">
        <ele>114.8</ele>
        <time>2015-12-06T15:03:56.000Z</time>
      </trkpt>
      <trkpt lat="47.71181" lon="-2.72564">
        <ele>114.8</ele>
        <time>2015-12-06T15:03:57.000Z</time>
      </trkpt>
      <trkpt lat="47.71181" lon="-2.72571">
        <ele>114.9</ele>
        <time>2015-12-06T15:03:58.000Z</time>
      </trkpt>
      <trkpt lat="47.71182" lon="-2.72577">
        <ele>115</ele>
        <time>2015-12-06T15:03:59.000Z</time>
      </trkpt>
      <trkpt lat="47.71183" lon="-2.72584">
        <ele>115.1</ele>
        <time>2015-12-06T15:04:00.000Z</time>
      </trkpt>
      <trkpt lat="47.71185" lon="-2.72591">
        <ele>115.1</ele>
        <time>2015-12-06T15:04:01.000Z</time>
      </trkpt>
      <trkpt lat="47.71186" lon="-2.72598">
        <ele>115.2</ele>
        <time>2015-12-06T15:04:02.000Z</time>
      </trkpt>
      <trkpt lat="47.71187" lon="-2.72603">
        <ele>115.3</ele>
        <time>2015-12-06T15:04:03.000Z</time>
      </trkpt>
      <trkpt lat="47.71188" lon="-2.72609">
        <ele>115.4</ele>
        <time>2015-12-06T15:04:04.000Z</time>
      </trkpt>
      <trkpt lat="47.71189" lon="-2.72615">
        <ele>115.4</ele>
        <time>2015-12-06T15:04:05.000Z</time>
      </trkpt>
      <trkpt lat="47.7119" lon="-2.72622">
        <ele>115.5</ele>
        <time>2015-12-06T15:04:06.000Z</time>
      </trkpt>
      <trkpt lat="47.71192" lon="-2.72629">
        <ele>115.5</ele>
        <time>2015-12-06T15:04:07.000Z</time>
      </trkpt>
      <trkpt lat="47.71193" lon="-2.72636">
        <ele>115.4</ele>
        <time>2015-12-06T15:04:08.000Z</time>
      </trkpt>
      <trkpt lat="47.71193" lon="-2.72643">
        <ele>115.2</ele>
        <time>2015-12-06T15:04:09.000Z</time>
      </trkpt>
      <trkpt lat="47.71193" lon="-2.72648">
        <ele>115.1</ele>
        <time>2015-12-06T15:04:10.000Z</time>
      </trkpt>
      <trkpt lat="47.71192" lon="-2.72652">
        <ele>115</ele>
        <time>2015-12-06T15:04:11.000Z</time>
      </trkpt>
      <trkpt lat="47.71191" lon="-2.72657">
        <ele>114.8</ele>
        <time>2015-12-06T15:04:12.000Z</time>
      </trkpt>
      <trkpt lat="47.71191" lon="-2.72662">
        <ele>114.7</ele>
        <time>2015-12-06T15:04:13.000Z</time>
      </trkpt>
      <trkpt lat="47.71191" lon="-2.72669">
        <ele>114.5</ele>
        <time>2015-12-06T15:04:14.000Z</time>
      </trkpt>
      <trkpt lat="47.71191" lon="-2.72675">
        <ele>114.4</ele>
        <time>2015-12-06T15:04:15.000Z</time>
      </trkpt>
      <trkpt lat="47.71191" lon="-2.72682">
        <ele>114.2</ele>
        <time>2015-12-06T15:04:16.000Z</time>
      </trkpt>
      <trkpt lat="47.71192" lon="-2.72688">
        <ele>114.1</ele>
        <time>2015-12-06T15:04:17.000Z</time>
      </trkpt>
      <trkpt lat="47.71192" lon="-2.72694">
        <ele>114</ele>
        <time>2015-12-06T15:04:18.000Z</time>
      </trkpt>
      <trkpt lat="47.71193" lon="-2.72699">
        <ele>113.8</ele>
        <time>2015-12-06T15:04:19.000Z</time>
      </trkpt>
      <trkpt lat="47.71193" lon="-2.72704">
        <ele>113.7</ele>
        <time>2015-12-06T15:04:20.000Z</time>
      </trkpt>
      <trkpt lat="47.71193" lon="-2.7271">
        <ele>113.7</ele>
        <time>2015-12-06T15:04:21.000Z</time>
      </trkpt>
      <trkpt lat="47.71193" lon="-2.72715">
        <ele>113.7</ele>
        <time>2015-12-06T15:04:22.000Z</time>
      </trkpt>
      <trkpt lat="47.71192" lon="-2.72721">
        <ele>113.8</ele>
        <time>2015-12-06T15:04:23.000Z</time>
      </trkpt>
      <trkpt lat="47.71192" lon="-2.72726">
        <ele>113.9</ele>
        <time>2015-12-06T15:04:24.000Z</time>
      </trkpt>
      <trkpt lat="47.71191" lon="-2.72732">
        <ele>114</ele>
        <time>2015-12-06T15:04:25.000Z</time>
      </trkpt>
      <trkpt lat="47.71189" lon="-2.72738">
        <ele>114</ele>
        <time>2015-12-06T15:04:26.000Z</time>
      </trkpt>
      <trkpt lat="47.71187" lon="-2.72744">
        <ele>114</ele>
        <time>2015-12-06T15:04:27.000Z</time>
      </trkpt>
      <trkpt lat="47.71186" lon="-2.7275">
        <ele>114.1</ele>
        <time>2015-12-06T15:04:28.000Z</time>
      </trkpt>
      <trkpt lat="47.71184" lon="-2.72756">
        <ele>114.1</ele>
        <time>2015-12-06T15:04:29.000Z</time>
      </trkpt>
      <trkpt lat="47.71182" lon="-2.72762">
        <ele>114.1</ele>
        <time>2015-12-06T15:04:30.000Z</time>
      </trkpt>
      <trkpt lat="47.71181" lon="-2.72768">
        <ele>114</ele>
        <time>2015-12-06T15:04:31.000Z</time>
      </trkpt>
      <trkpt lat="47.71178" lon="-2.72774">
        <ele>114</ele>
        <time>2015-12-06T15:04:32.000Z</time>
      </trkpt>
      <trkpt lat="47.71175" lon="-2.72779">
        <ele>113.9</ele>
        <time>2015-12-06T15:04:33.000Z</time>
      </trkpt>
      <trkpt lat="47.71172" lon="-2.72785">
        <ele>113.8</ele>
        <time>2015-12-06T15:04:34.000Z</time>
      </trkpt>
      <trkpt lat="47.71168" lon="-2.72791">
        <ele>113.6</ele>
        <time>2015-12-06T15:04:35.000Z</time>
      </trkpt>
      <trkpt lat="47.71164" lon="-2.72796">
        <ele>113.5</ele>
        <time>2015-12-06T15:04:36.000Z</time>
      </trkpt>
      <trkpt lat="47.7116" lon="-2.72802">
        <ele>113.4</ele>
        <time>2015-12-06T15:04:37.000Z</time>
      </trkpt>
      <trkpt lat="47.71156" lon="-2.72807">
        <ele>113.3</ele>
        <time>2015-12-06T15:04:38.000Z</time>
      </trkpt>
      <trkpt lat="47.71151" lon="-2.72811">
        <ele>113.2</ele>
        <time>2015-12-06T15:04:39.000Z</time>
      </trkpt>
      <trkpt lat="47.71147" lon="-2.72816">
        <ele>113.1</ele>
        <time>2015-12-06T15:04:40.000Z</time>
      </trkpt>
      <trkpt lat="47.71143" lon="-2.7282">
        <ele>113</ele>
        <time>2015-12-06T15:04:41.000Z</time>
      </trkpt>
      <trkpt lat="47.71138" lon="-2.72824">
        <ele>112.9</ele>
        <time>2015-12-06T15:04:42.000Z</time>
      </trkpt>
      <trkpt lat="47.71134" lon="-2.72827">
        <ele>112.8</ele>
        <time>2015-12-06T15:04:43.000Z</time>
      </trkpt>
      <trkpt lat="47.71129" lon="-2.72831">
        <ele>112.6</ele>
        <time>2015-12-06T15:04:44.000Z</time>
      </trkpt>
      <trkpt lat="47.71124" lon="-2.72836">
        <ele>112.5</ele>
        <time>2015-12-06T15:04:45.000Z</time>
      </trkpt>
      <trkpt lat="47.71118" lon="-2.72842">
        <ele>112.2</ele>
        <time>2015-12-06T15:04:46.000Z</time>
      </trkpt>
      <trkpt lat="47.71111" lon="-2.72849">
        <ele>111.9</ele>
        <time>2015-12-06T15:04:47.000Z</time>
      </trkpt>
      <trkpt lat="47.71105" lon="-2.72854">
        <ele>111.5</ele>
        <time>2015-12-06T15:04:48.000Z</time>
      </trkpt>
      <trkpt lat="47.711" lon="-2.72859">
        <ele>111.2</ele>
        <time>2015-12-06T15:04:49.000Z</time>
      </trkpt>
      <trkpt lat="47.71094" lon="-2.72863">
        <ele>110.8</ele>
        <time>2015-12-06T15:04:50.000Z</time>
      </trkpt>
      <trkpt lat="47.71088" lon="-2.72868">
        <ele>110.3</ele>
        <time>2015-12-06T15:04:51.000Z</time>
      </trkpt>
      <trkpt lat="47.71081" lon="-2.72872">
        <ele>109.7</ele>
        <time>2015-12-06T15:04:52.000Z</time>
      </trkpt>
      <trkpt lat="47.71074" lon="-2.72877">
        <ele>109.1</ele>
        <time>2015-12-06T15:04:53.000Z</time>
      </trkpt>
      <trkpt lat="47.71067" lon="-2.7288">
        <ele>108.4</ele>
        <time>2015-12-06T15:04:54.000Z</time>
      </trkpt>
      <trkpt lat="47.71061" lon="-2.72884">
        <ele>107.7</ele>
        <time>2015-12-06T15:04:55.000Z</time>
      </trkpt>
      <trkpt lat="47.71055" lon="-2.72887">
        <ele>107</ele>
        <time>2015-12-06T15:04:56.000Z</time>
      </trkpt>
      <trkpt lat="47.71048" lon="-2.72892">
        <ele>106.2</ele>
        <time>2015-12-06T15:04:57.000Z</time>
      </trkpt>
      <trkpt lat="47.7104" lon="-2.72897">
        <ele>105.4</ele>
        <time>2015-12-06T15:04:58.000Z</time>
      </trkpt>
      <trkpt lat="47.71032" lon="-2.72901">
        <ele>104.9</ele>
        <time>2015-12-06T15:04:59.000Z</time>
      </trkpt>
      <trkpt lat="47.71024" lon="-2.72905">
        <ele>104.5</ele>
        <time>2015-12-06T15:05:00.000Z</time>
      </trkpt>
      <trkpt lat="47.71017" lon="-2.7291">
        <ele>104.1</ele>
        <time>2015-12-06T15:05:01.000Z</time>
      </trkpt>
      <trkpt lat="47.7101" lon="-2.72913">
        <ele>103.7</ele>
        <time>2015-12-06T15:05:02.000Z</time>
      </trkpt>
      <trkpt lat="47.71003" lon="-2.72917">
        <ele>103.4</ele>
        <time>2015-12-06T15:05:03.000Z</time>
      </trkpt>
      <trkpt lat="47.70996" lon="-2.72921">
        <ele>103</ele>
        <time>2015-12-06T15:05:04.000Z</time>
      </trkpt>
      <trkpt lat="47.70988" lon="-2.72926">
        <ele>102.6</ele>
        <time>2015-12-06T15:05:05.000Z</time>
      </trkpt>
      <trkpt lat="47.7098" lon="-2.72931">
        <ele>102.2</ele>
        <time>2015-12-06T15:05:06.000Z</time>
      </trkpt>
      <trkpt lat="47.70972" lon="-2.72936">
        <ele>101.8</ele>
        <time>2015-12-06T15:05:07.000Z</time>
      </trkpt>
      <trkpt lat="47.70965" lon="-2.72941">
        <ele>101.5</ele>
        <time>2015-12-06T15:05:08.000Z</time>
      </trkpt>
      <trkpt lat="47.70958" lon="-2.72945">
        <ele>101.1</ele>
        <time>2015-12-06T15:05:09.000Z</time>
      </trkpt>
      <trkpt lat="47.70951" lon="-2.72949">
        <ele>100.8</ele>
        <time>2015-12-06T15:05:10.000Z</time>
      </trkpt>
      <trkpt lat="47.70945" lon="-2.72953">
        <ele>100.4</ele>
        <time>2015-12-06T15:05:11.000Z</time>
      </trkpt>
      <trkpt lat="47.70938" lon="-2.72957">
        <ele>100</ele>
        <time>2015-12-06T15:05:12.000Z</time>
      </trkpt>
      <trkpt lat="47.7093" lon="-2.72961">
        <ele>99.5</ele>
        <time>2015-12-06T15:05:13.000Z</time>
      </trkpt>
      <trkpt lat="47.70922" lon="-2.72966">
        <ele>99</ele>
        <time>2015-12-06T15:05:14.000Z</time>
      </trkpt>
      <trkpt lat="47.70914" lon="-2.7297">
        <ele>98.5</ele>
        <time>2015-12-06T15:05:15.000Z</time>
      </trkpt>
      <trkpt lat="47.70907" lon="-2.72974">
        <ele>97.9</ele>
        <time>2015-12-06T15:05:16.000Z</time>
      </trkpt>
      <trkpt lat="47.709" lon="-2.72977">
        <ele>97.4</ele>
        <time>2015-12-06T15:05:17.000Z</time>
      </trkpt>
      <trkpt lat="47.70893" lon="-2.7298">
        <ele>96.9</ele>
        <time>2015-12-06T15:05:18.000Z</time>
      </trkpt>
      <trkpt lat="47.70886" lon="-2.72984">
        <ele>96.4</ele>
        <time>2015-12-06T15:05:19.000Z</time>
      </trkpt>
      <trkpt lat="47.70879" lon="-2.72988">
        <ele>95.8</ele>
        <time>2015-12-06T15:05:20.000Z</time>
      </trkpt>
      <trkpt lat="47.70873" lon="-2.72992">
        <ele>95.3</ele>
        <time>2015-12-06T15:05:21.000Z</time>
      </trkpt>
      <trkpt lat="47.70868" lon="-2.72997">
        <ele>94.7</ele>
        <time>2015-12-06T15:05:22.000Z</time>
      </trkpt>
      <trkpt lat="47.70864" lon="-2.73003">
        <ele>94.2</ele>
        <time>2015-12-06T15:05:23.000Z</time>
      </trkpt>
      <trkpt lat="47.70862" lon="-2.73011">
        <ele>93.8</ele>
        <time>2015-12-06T15:05:24.000Z</time>
      </trkpt>
      <trkpt lat="47.70861" lon="-2.73021">
        <ele>93.4</ele>
        <time>2015-12-06T15:05:25.000Z</time>
      </trkpt>
      <trkpt lat="47.70862" lon="-2.7303">
        <ele>93</ele>
        <time>2015-12-06T15:05:26.000Z</time>
      </trkpt>
      <trkpt lat="47.70865" lon="-2.73039">
        <ele>92.8</ele>
        <time>2015-12-06T15:05:27.000Z</time>
      </trkpt>
      <trkpt lat="47.70868" lon="-2.73046">
        <ele>92.5</ele>
        <time>2015-12-06T15:05:28.000Z</time>
      </trkpt>
      <trkpt lat="47.7087" lon="-2.73053">
        <ele>92.3</ele>
        <time>2015-12-06T15:05:29.000Z</time>
      </trkpt>
      <trkpt lat="47.70873" lon="-2.73059">
        <ele>92.1</ele>
        <time>2015-12-06T15:05:30.000Z</time>
      </trkpt>
      <trkpt lat="47.70876" lon="-2.73064">
        <ele>92</ele>
        <time>2015-12-06T15:05:31.000Z</time>
      </trkpt>
      <trkpt lat="47.7088" lon="-2.73069">
        <ele>92.1</ele>
        <time>2015-12-06T15:05:32.000Z</time>
      </trkpt>
      <trkpt lat="47.70884" lon="-2.73072">
        <ele>92.3</ele>
        <time>2015-12-06T15:05:33.000Z</time>
      </trkpt>
      <trkpt lat="47.70888" lon="-2.73074">
        <ele>92.5</ele>
        <time>2015-12-06T15:05:34.000Z</time>
      </trkpt>
      <trkpt lat="47.70893" lon="-2.73077">
        <ele>92.7</ele>
        <time>2015-12-06T15:05:35.000Z</time>
      </trkpt>
      <trkpt lat="47.70897" lon="-2.73079">
        <ele>92.9</ele>
        <time>2015-12-06T15:05:36.000Z</time>
      </trkpt>
      <trkpt lat="47.70902" lon="-2.73082">
        <ele>93.2</ele>
        <time>2015-12-06T15:05:37.000Z</time>
      </trkpt>
      <trkpt lat="47.70906" lon="-2.73085">
        <ele>93.4</ele>
        <time>2015-12-06T15:05:38.000Z</time>
      </trkpt>
      <trkpt lat="47.7091" lon="-2.73087">
        <ele>93.6</ele>
        <time>2015-12-06T15:05:39.000Z</time>
      </trkpt>
      <trkpt lat="47.70914" lon="-2.7309">
        <ele>93.8</ele>
        <time>2015-12-06T15:05:40.000Z</time>
      </trkpt>
      <trkpt lat="47.70918" lon="-2.73093">
        <ele>94</ele>
        <time>2015-12-06T15:05:41.000Z</time>
      </trkpt>
      <trkpt lat="47.70921" lon="-2.73095">
        <ele>94.1</ele>
        <time>2015-12-06T15:05:42.000Z</time>
      </trkpt>
      <trkpt lat="47.70925" lon="-2.73098">
        <ele>94.3</ele>
        <time>2015-12-06T15:05:43.000Z</time>
      </trkpt>
      <trkpt lat="47.70929" lon="-2.731">
        <ele>94.5</ele>
        <time>2015-12-06T15:05:44.000Z</time>
      </trkpt>
      <trkpt lat="47.70932" lon="-2.73103">
        <ele>94.7</ele>
        <time>2015-12-06T15:05:45.000Z</time>
      </trkpt>
      <trkpt lat="47.70935" lon="-2.73105">
        <ele>94.8</ele>
        <time>2015-12-06T15:05:46.000Z</time>
      </trkpt>
      <trkpt lat="47.70938" lon="-2.73108">
        <ele>95</ele>
        <time>2015-12-06T15:05:47.000Z</time>
      </trkpt>
      <trkpt lat="47.70941" lon="-2.73111">
        <ele>95.1</ele>
        <time>2015-12-06T15:05:48.000Z</time>
      </trkpt>
      <trkpt lat="47.70944" lon="-2.73115">
        <ele>95.2</ele>
        <time>2015-12-06T15:05:49.000Z</time>
      </trkpt>
      <trkpt lat="47.70947" lon="-2.73119">
        <ele>95.3</ele>
        <time>2015-12-06T15:05:50.000Z</time>
      </trkpt>
      <trkpt lat="47.7095" lon="-2.73123">
        <ele>95.4</ele>
        <time>2015-12-06T15:05:51.000Z</time>
      </trkpt>
      <trkpt lat="47.70954" lon="-2.73125">
        <ele>95.6</ele>
        <time>2015-12-06T15:05:52.000Z</time>
      </trkpt>
      <trkpt lat="47.70957" lon="-2.73126">
        <ele>95.8</ele>
        <time>2015-12-06T15:05:53.000Z</time>
      </trkpt>
      <trkpt lat="47.70961" lon="-2.73127">
        <ele>96</ele>
        <time>2015-12-06T15:05:54.000Z</time>
      </trkpt>
      <trkpt lat="47.70965" lon="-2.73128">
        <ele>96.2</ele>
        <time>2015-12-06T15:05:55.000Z</time>
      </trkpt>
      <trkpt lat="47.70969" lon="-2.7313">
        <ele>96.3</ele>
        <time>2015-12-06T15:05:56.000Z</time>
      </trkpt>
      <trkpt lat="47.70973" lon="-2.73133">
        <ele>96.4</ele>
        <time>2015-12-06T15:05:57.000Z</time>
      </trkpt>
      <trkpt lat="47.70976" lon="-2.73136">
        <ele>96.4</ele>
        <time>2015-12-06T15:05:58.000Z</time>
      </trkpt>
      <trkpt lat="47.70979" lon="-2.7314">
        <ele>96.4</ele>
        <time>2015-12-06T15:05:59.000Z</time>
      </trkpt>
      <trkpt lat="47.70983" lon="-2.73144">
        <ele>96.4</ele>
        <time>2015-12-06T15:06:00.000Z</time>
      </trkpt>
      <trkpt lat="47.70986" lon="-2.73148">
        <ele>96.5</ele>
        <time>2015-12-06T15:06:01.000Z</time>
      </trkpt>
      <trkpt lat="47.70989" lon="-2.73152">
        <ele>96.5</ele>
        <time>2015-12-06T15:06:02.000Z</time>
      </trkpt>
      <trkpt lat="47.70992" lon="-2.73156">
        <ele>96.6</ele>
        <time>2015-12-06T15:06:03.000Z</time>
      </trkpt>
      <trkpt lat="47.70994" lon="-2.7316">
        <ele>96.6</ele>
        <time>2015-12-06T15:06:04.000Z</time>
      </trkpt>
      <trkpt lat="47.70997" lon="-2.73164">
        <ele>96.7</ele>
        <time>2015-12-06T15:06:05.000Z</time>
      </trkpt>
      <trkpt lat="47.71" lon="-2.73168">
        <ele>96.7</ele>
        <time>2015-12-06T15:06:06.000Z</time>
      </trkpt>
      <trkpt lat="47.71003" lon="-2.73171">
        <ele>96.8</ele>
        <time>2015-12-06T15:06:07.000Z</time>
      </trkpt>
      <trkpt lat="47.71006" lon="-2.73175">
        <ele>96.9</ele>
        <time>2015-12-06T15:06:08.000Z</time>
      </trkpt>
      <trkpt lat="47.71009" lon="-2.73178">
        <ele>97</ele>
        <time>2015-12-06T15:06:09.000Z</time>
      </trkpt>
      <trkpt lat="47.71012" lon="-2.73182">
        <ele>97.2</ele>
        <time>2015-12-06T15:06:10.000Z</time>
      </trkpt>
      <trkpt lat="47.71016" lon="-2.73185">
        <ele>97.3</ele>
        <time>2015-12-06T15:06:11.000Z</time>
      </trkpt>
      <trkpt lat="47.71019" lon="-2.73188">
        <ele>97.5</ele>
        <time>2015-12-06T15:06:12.000Z</time>
      </trkpt>
      <trkpt lat="47.71022" lon="-2.73192">
        <ele>97.7</ele>
        <time>2015-12-06T15:06:13.000Z</time>
      </trkpt>
      <trkpt lat="47.71026" lon="-2.73194">
        <ele>97.9</ele>
        <time>2015-12-06T15:06:14.000Z</time>
      </trkpt>
      <trkpt lat="47.71029" lon="-2.73197">
        <ele>98.1</ele>
        <time>2015-12-06T15:06:15.000Z</time>
      </trkpt>
      <trkpt lat="47.71031" lon="-2.732">
        <ele>98.3</ele>
        <time>2015-12-06T15:06:16.000Z</time>
      </trkpt>
      <trkpt lat="47.71034" lon="-2.73203">
        <ele>98.5</ele>
        <time>2015-12-06T15:06:17.000Z</time>
      </trkpt>
      <trkpt lat="47.71037" lon="-2.73206">
        <ele>98.7</ele>
        <time>2015-12-06T15:06:18.000Z</time>
      </trkpt>
      <trkpt lat="47.7104" lon="-2.73209">
        <ele>98.9</ele>
        <time>2015-12-06T15:06:19.000Z</time>
      </trkpt>
      <trkpt lat="47.71043" lon="-2.73211">
        <ele>99</ele>
        <time>2015-12-06T15:06:20.000Z</time>
      </trkpt>
      <trkpt lat="47.71046" lon="-2.73213">
        <ele>99</ele>
        <time>2015-12-06T15:06:21.000Z</time>
      </trkpt>
      <trkpt lat="47.71049" lon="-2.73216">
        <ele>99.1</ele>
        <time>2015-12-06T15:06:22.000Z</time>
      </trkpt>
      <trkpt lat="47.71052" lon="-2.73218">
        <ele>99.2</ele>
        <time>2015-12-06T15:06:23.000Z</time>
      </trkpt>
      <trkpt lat="47.71055" lon="-2.7322">
        <ele>99.3</ele>
        <time>2015-12-06T15:06:24.000Z</time>
      </trkpt>
      <trkpt lat="47.71059" lon="-2.73222">
        <ele>99.4</ele>
        <time>2015-12-06T15:06:25.000Z</time>
      </trkpt>
      <trkpt lat="47.71062" lon="-2.73223">
        <ele>99.5</ele>
        <time>2015-12-06T15:06:26.000Z</time>
      </trkpt>
      <trkpt lat="47.71065" lon="-2.73224">
        <ele>99.6</ele>
        <time>2015-12-06T15:06:27.000Z</time>
      </trkpt>
      <trkpt lat="47.71068" lon="-2.73224">
        <ele>99.7</ele>
        <time>2015-12-06T15:06:28.000Z</time>
      </trkpt>
      <trkpt lat="47.71071" lon="-2.73224">
        <ele>99.8</ele>
        <time>2015-12-06T15:06:29.000Z</time>
      </trkpt>
      <trkpt lat="47.71074" lon="-2.73223">
        <ele>99.9</ele>
        <time>2015-12-06T15:06:30.000Z</time>
      </trkpt>
      <trkpt lat="47.71077" lon="-2.73222">
        <ele>100.1</ele>
        <time>2015-12-06T15:06:31.000Z</time>
      </trkpt>
      <trkpt lat="47.7108" lon="-2.7322">
        <ele>100.2</ele>
        <time>2015-12-06T15:06:32.000Z</time>
      </trkpt>
      <trkpt lat="47.71083" lon="-2.73218">
        <ele>100.4</ele>
        <time>2015-12-06T15:06:33.000Z</time>
      </trkpt>
      <trkpt lat="47.71086" lon="-2.73217">
        <ele>100.5</ele>
        <time>2015-12-06T15:06:34.000Z</time>
      </trkpt>
      <trkpt lat="47.7109" lon="-2.73215">
        <ele>100.7</ele>
        <time>2015-12-06T15:06:35.000Z</time>
      </trkpt>
      <trkpt lat="47.71093" lon="-2.73214">
        <ele>100.8</ele>
        <time>2015-12-06T15:06:36.000Z</time>
      </trkpt>
      <trkpt lat="47.71096" lon="-2.73212">
        <ele>100.9</ele>
        <time>2015-12-06T15:06:37.000Z</time>
      </trkpt>
      <trkpt lat="47.71099" lon="-2.7321">
        <ele>101</ele>
        <time>2015-12-06T15:06:38.000Z</time>
      </trkpt>
      <trkpt lat="47.71102" lon="-2.73209">
        <ele>101.2</ele>
        <time>2015-12-06T15:06:39.000Z</time>
      </trkpt>
      <trkpt lat="47.71106" lon="-2.73208">
        <ele>101.3</ele>
        <time>2015-12-06T15:06:40.000Z</time>
      </trkpt>
      <trkpt lat="47.71109" lon="-2.73207">
        <ele>101.5</ele>
        <time>2015-12-06T15:06:41.000Z</time>
      </trkpt>
      <trkpt lat="47.71113" lon="-2.73205">
        <ele>101.6</ele>
        <time>2015-12-06T15:06:42.000Z</time>
      </trkpt>
      <trkpt lat="47.71116" lon="-2.73204">
        <ele>101.8</ele>
        <time>2015-12-06T15:06:43.000Z</time>
      </trkpt>
      <trkpt lat="47.7112" lon="-2.73202">
        <ele>102</ele>
        <time>2015-12-06T15:06:44.000Z</time>
      </trkpt>
      <trkpt lat="47.71124" lon="-2.732">
        <ele>102.2</ele>
        <time>2015-12-06T15:06:45.000Z</time>
      </trkpt>
      <trkpt lat="47.71129" lon="-2.73198">
        <ele>102.4</ele>
        <time>2015-12-06T15:06:46.000Z</time>
      </trkpt>
      <trkpt lat="47.71133" lon="-2.73196">
        <ele>102.7</ele>
        <time>2015-12-06T15:06:47.000Z</time>
      </trkpt>
      <trkpt lat="47.71138" lon="-2.73194">
        <ele>103</ele>
        <time>2015-12-06T15:06:48.000Z</time>
      </trkpt>
      <trkpt lat="47.71142" lon="-2.73191">
        <ele>103.3</ele>
        <time>2015-12-06T15:06:49.000Z</time>
      </trkpt>
      <trkpt lat="47.71146" lon="-2.73188">
        <ele>103.6</ele>
        <time>2015-12-06T15:06:50.000Z</time>
      </trkpt>
      <trkpt lat="47.71149" lon="-2.73185">
        <ele>103.9</ele>
        <time>2015-12-06T15:06:51.000Z</time>
      </trkpt>
      <trkpt lat="47.71151" lon="-2.73182">
        <ele>104.1</ele>
        <time>2015-12-06T15:06:52.000Z</time>
      </trkpt>
      <trkpt lat="47.71153" lon="-2.73179">
        <ele>104.3</ele>
        <time>2015-12-06T15:06:53.000Z</time>
      </trkpt>
      <trkpt lat="47.71156" lon="-2.73176">
        <ele>104.5</ele>
        <time>2015-12-06T15:06:54.000Z</time>
      </trkpt>
      <trkpt lat="47.71158" lon="-2.73172">
        <ele>104.8</ele>
        <time>2015-12-06T15:06:55.000Z</time>
      </trkpt>
      <trkpt lat="47.7116" lon="-2.73169">
        <ele>105</ele>
        <time>2015-12-06T15:06:56.000Z</time>
      </trkpt>
      <trkpt lat="47.71163" lon="-2.73166">
        <ele>105.3</ele>
        <time>2015-12-06T15:06:57.000Z</time>
      </trkpt>
      <trkpt lat="47.71165" lon="-2.73164">
        <ele>105.5</ele>
        <time>2015-12-06T15:06:58.000Z</time>
      </trkpt>
      <trkpt lat="47.71167" lon="-2.73162">
        <ele>105.7</ele>
        <time>2015-12-06T15:06:59.000Z</time>
      </trkpt>
      <trkpt lat="47.71169" lon="-2.73159">
        <ele>105.9</ele>
        <time>2015-12-06T15:07:00.000Z</time>
      </trkpt>
      <trkpt lat="47.71171" lon="-2.73157">
        <ele>106.1</ele>
        <time>2015-12-06T15:07:01.000Z</time>
      </trkpt>
      <trkpt lat="47.71173" lon="-2.73155">
        <ele>106.4</ele>
        <time>2015-12-06T15:07:02.000Z</time>
      </trkpt>
      <trkpt lat="47.71175" lon="-2.73153">
        <ele>106.6</ele>
        <time>2015-12-06T15:07:03.000Z</time>
      </trkpt>
      <trkpt lat="47.71178" lon="-2.73151">
        <ele>106.8</ele>
        <time>2015-12-06T15:07:04.000Z</time>
      </trkpt>
      <trkpt lat="47.7118" lon="-2.73149">
        <ele>107</ele>
        <time>2015-12-06T15:07:05.000Z</time>
      </trkpt>
      <trkpt lat="47.71182" lon="-2.73147">
        <ele>107.2</ele>
        <time>2015-12-06T15:07:06.000Z</time>
      </trkpt>
      <trkpt lat="47.71184" lon="-2.73145">
        <ele>107.4</ele>
        <time>2015-12-06T15:07:07.000Z</time>
      </trkpt>
      <trkpt lat="47.71186" lon="-2.73143">
        <ele>107.6</ele>
        <time>2015-12-06T15:07:08.000Z</time>
      </trkpt>
      <trkpt lat="47.71188" lon="-2.73141">
        <ele>107.9</ele>
        <time>2015-12-06T15:07:09.000Z</time>
      </trkpt>
      <trkpt lat="47.7119" lon="-2.73139">
        <ele>108.1</ele>
        <time>2015-12-06T15:07:10.000Z</time>
      </trkpt>
      <trkpt lat="47.71193" lon="-2.73137">
        <ele>108.4</ele>
        <time>2015-12-06T15:07:11.000Z</time>
      </trkpt>
      <trkpt lat="47.71195" lon="-2.73134">
        <ele>108.6</ele>
        <time>2015-12-06T15:07:12.000Z</time>
      </trkpt>
      <trkpt lat="47.71197" lon="-2.73132">
        <ele>108.9</ele>
        <time>2015-12-06T15:07:13.000Z</time>
      </trkpt>
      <trkpt lat="47.712" lon="-2.7313">
        <ele>109.2</ele>
        <time>2015-12-06T15:07:14.000Z</time>
      </trkpt>
      <trkpt lat="47.71202" lon="-2.73127">
        <ele>109.4</ele>
        <time>2015-12-06T15:07:15.000Z</time>
      </trkpt>
      <trkpt lat="47.71204" lon="-2.73125">
        <ele>109.7</ele>
        <time>2015-12-06T15:07:16.000Z</time>
      </trkpt>
      <trkpt lat="47.71207" lon="-2.73123">
        <ele>110</ele>
        <time>2015-12-06T15:07:17.000Z</time>
      </trkpt>
      <trkpt lat="47.7121" lon="-2.73121">
        <ele>110.3</ele>
        <time>2015-12-06T15:07:18.000Z</time>
      </trkpt>
      <trkpt lat="47.71213" lon="-2.73119">
        <ele>110.5</ele>
        <time>2015-12-06T15:07:19.000Z</time>
      </trkpt>
      <trkpt lat="47.71216" lon="-2.73117">
        <ele>110.7</ele>
        <time>2015-12-06T15:07:20.000Z</time>
      </trkpt>
      <trkpt lat="47.71218" lon="-2.73115">
        <ele>110.9</ele>
        <time>2015-12-06T15:07:21.000Z</time>
      </trkpt>
      <trkpt lat="47.7122" lon="-2.73113">
        <ele>111.1</ele>
        <time>2015-12-06T15:07:22.000Z</time>
      </trkpt>
      <trkpt lat="47.71222" lon="-2.73112">
        <ele>111.2</ele>
        <time>2015-12-06T15:07:23.000Z</time>
      </trkpt>
      <trkpt lat="47.71224" lon="-2.73112">
        <ele>111.3</ele>
        <time>2015-12-06T15:07:24.000Z</time>
      </trkpt>
      <trkpt lat="47.71227" lon="-2.73112">
        <ele>111.4</ele>
        <time>2015-12-06T15:07:25.000Z</time>
      </trkpt>
      <trkpt lat="47.7123" lon="-2.73112">
        <ele>111.5</ele>
        <time>2015-12-06T15:07:26.000Z</time>
      </trkpt>
      <trkpt lat="47.71234" lon="-2.73113">
        <ele>111.6</ele>
        <time>2015-12-06T15:07:27.000Z</time>
      </trkpt>
      <trkpt lat="47.71238" lon="-2.73114">
        <ele>111.6</ele>
        <time>2015-12-06T15:07:28.000Z</time>
      </trkpt>
      <trkpt lat="47.71241" lon="-2.73114">
        <ele>111.7</ele>
        <time>2015-12-06T15:07:29.000Z</time>
      </trkpt>
      <trkpt lat="47.71245" lon="-2.73114">
        <ele>111.8</ele>
        <time>2015-12-06T15:07:30.000Z</time>
      </trkpt>
      <trkpt lat="47.71248" lon="-2.73114">
        <ele>111.9</ele>
        <time>2015-12-06T15:07:31.000Z</time>
      </trkpt>
      <trkpt lat="47.71251" lon="-2.73115">
        <ele>112</ele>
        <time>2015-12-06T15:07:32.000Z</time>
      </trkpt>
      <trkpt lat="47.71254" lon="-2.73116">
        <ele>112</ele>
        <time>2015-12-06T15:07:33.000Z</time>
      </trkpt>
      <trkpt lat="47.71257" lon="-2.73119">
        <ele>112.1</ele>
        <time>2015-12-06T15:07:34.000Z</time>
      </trkpt>
      <trkpt lat="47.71261" lon="-2.73121">
        <ele>112.1</ele>
        <time>2015-12-06T15:07:35.000Z</time>
      </trkpt>
      <trkpt lat="47.71265" lon="-2.73124">
        <ele>112.1</ele>
        <time>2015-12-06T15:07:36.000Z</time>
      </trkpt>
      <trkpt lat="47.71268" lon="-2.73126">
        <ele>112.1</ele>
        <time>2015-12-06T15:07:37.000Z</time>
      </trkpt>
      <trkpt lat="47.71272" lon="-2.73128">
        <ele>112.1</ele>
        <time>2015-12-06T15:07:38.000Z</time>
      </trkpt>
      <trkpt lat="47.71275" lon="-2.7313">
        <ele>112.2</ele>
        <time>2015-12-06T15:07:39.000Z</time>
      </trkpt>
      <trkpt lat="47.71278" lon="-2.73133">
        <ele>112.2</ele>
        <time>2015-12-06T15:07:40.000Z</time>
      </trkpt>
      <trkpt lat="47.71281" lon="-2.73136">
        <ele>112.1</ele>
        <time>2015-12-06T15:07:41.000Z</time>
      </trkpt>
      <trkpt lat="47.71284" lon="-2.73139">
        <ele>112.1</ele>
        <time>2015-12-06T15:07:42.000Z</time>
      </trkpt>
      <trkpt lat="47.71287" lon="-2.73142">
        <ele>112</ele>
        <time>2015-12-06T15:07:43.000Z</time>
      </trkpt>
      <trkpt lat="47.71289" lon="-2.73145">
        <ele>112</ele>
        <time>2015-12-06T15:07:44.000Z</time>
      </trkpt>
      <trkpt lat="47.71291" lon="-2.73147">
        <ele>111.9</ele>
        <time>2015-12-06T15:07:45.000Z</time>
      </trkpt>
      <trkpt lat="47.71292" lon="-2.73149">
        <ele>111.9</ele>
        <time>2015-12-06T15:07:46.000Z</time>
      </trkpt>
      <trkpt lat="47.71294" lon="-2.73151">
        <ele>111.8</ele>
        <time>2015-12-06T15:07:47.000Z</time>
      </trkpt>
      <trkpt lat="47.71295" lon="-2.73154">
        <ele>111.7</ele>
        <time>2015-12-06T15:07:48.000Z</time>
      </trkpt>
      <trkpt lat="47.71296" lon="-2.73156">
        <ele>111.7</ele>
        <time>2015-12-06T15:07:49.000Z</time>
      </trkpt>
      <trkpt lat="47.71298" lon="-2.73158">
        <ele>111.6</ele>
        <time>2015-12-06T15:07:50.000Z</time>
      </trkpt>
      <trkpt lat="47.71299" lon="-2.7316">
        <ele>111.6</ele>
        <time>2015-12-06T15:07:51.000Z</time>
      </trkpt>
      <trkpt lat="47.71301" lon="-2.73163">
        <ele>111.5</ele>
        <time>2015-12-06T15:07:52.000Z</time>
      </trkpt>
      <trkpt lat="47.71303" lon="-2.73165">
        <ele>111.5</ele>
        <time>2015-12-06T15:07:53.000Z</time>
      </trkpt>
      <trkpt lat="47.71305" lon="-2.73167">
        <ele>111.4</ele>
        <time>2015-12-06T15:07:54.000Z</time>
      </trkpt>
      <trkpt lat="47.71307" lon="-2.7317">
        <ele>111.4</ele>
        <time>2015-12-06T15:07:55.000Z</time>
      </trkpt>
      <trkpt lat="47.71309" lon="-2.73172">
        <ele>111.4</ele>
        <time>2015-12-06T15:07:56.000Z</time>
      </trkpt>
      <trkpt lat="47.7131" lon="-2.73174">
        <ele>111.4</ele>
        <time>2015-12-06T15:07:57.000Z</time>
      </trkpt>
      <trkpt lat="47.71312" lon="-2.73176">
        <ele>111.3</ele>
        <time>2015-12-06T15:07:58.000Z</time>
      </trkpt>
      <trkpt lat="47.71314" lon="-2.73177">
        <ele>111.4</ele>
        <time>2015-12-06T15:07:59.000Z</time>
      </trkpt>
      <trkpt lat="47.71315" lon="-2.73176">
        <ele>111.5</ele>
        <time>2015-12-06T15:08:00.000Z</time>
      </trkpt>
      <trkpt lat="47.71318" lon="-2.73175">
        <ele>111.6</ele>
        <time>2015-12-06T15:08:01.000Z</time>
      </trkpt>
      <trkpt lat="47.7132" lon="-2.73174">
        <ele>111.7</ele>
        <time>2015-12-06T15:08:02.000Z</time>
      </trkpt>
      <trkpt lat="47.71322" lon="-2.73172">
        <ele>111.9</ele>
        <time>2015-12-06T15:08:03.000Z</time>
      </trkpt>
      <trkpt lat="47.71323" lon="-2.73172">
        <ele>111.9</ele>
        <time>2015-12-06T15:08:04.000Z</time>
      </trkpt>
      <trkpt lat="47.71325" lon="-2.73172">
        <ele>112</ele>
        <time>2015-12-06T15:08:05.000Z</time>
      </trkpt>
      <trkpt lat="47.71326" lon="-2.73172">
        <ele>112</ele>
        <time>2015-12-06T15:08:06.000Z</time>
      </trkpt>
      <trkpt lat="47.71328" lon="-2.73173">
        <ele>112.1</ele>
        <time>2015-12-06T15:08:07.000Z</time>
      </trkpt>
      <trkpt lat="47.7133" lon="-2.73174">
        <ele>112.1</ele>
        <time>2015-12-06T15:08:08.000Z</time>
      </trkpt>
      <trkpt lat="47.71332" lon="-2.73175">
        <ele>112.2</ele>
        <time>2015-12-06T15:08:09.000Z</time>
      </trkpt>
      <trkpt lat="47.71334" lon="-2.73176">
        <ele>112.2</ele>
        <time>2015-12-06T15:08:10.000Z</time>
      </trkpt>
      <trkpt lat="47.71337" lon="-2.73177">
        <ele>112.3</ele>
        <time>2015-12-06T15:08:11.000Z</time>
      </trkpt>
      <trkpt lat="47.7134" lon="-2.73178">
        <ele>112.3</ele>
        <time>2015-12-06T15:08:12.000Z</time>
      </trkpt>
      <trkpt lat="47.71342" lon="-2.73179">
        <ele>112.4</ele>
        <time>2015-12-06T15:08:13.000Z</time>
      </trkpt>
      <trkpt lat="47.71345" lon="-2.7318">
        <ele>112.5</ele>
        <time>2015-12-06T15:08:14.000Z</time>
      </trkpt>
      <trkpt lat="47.71347" lon="-2.7318">
        <ele>112.6</ele>
        <time>2015-12-06T15:08:15.000Z</time>
      </trkpt>
      <trkpt lat="47.71349" lon="-2.7318">
        <ele>112.7</ele>
        <time>2015-12-06T15:08:16.000Z</time>
      </trkpt>
      <trkpt lat="47.71351" lon="-2.73178">
        <ele>112.8</ele>
        <time>2015-12-06T15:08:17.000Z</time>
      </trkpt>
      <trkpt lat="47.71354" lon="-2.73177">
        <ele>112.9</ele>
        <time>2015-12-06T15:08:18.000Z</time>
      </trkpt>
      <trkpt lat="47.71356" lon="-2.73177">
        <ele>113</ele>
        <time>2015-12-06T15:08:19.000Z</time>
      </trkpt>
      <trkpt lat="47.71358" lon="-2.73177">
        <ele>113.1</ele>
        <time>2015-12-06T15:08:20.000Z</time>
      </trkpt>
      <trkpt lat="47.7136" lon="-2.73176">
        <ele>113.2</ele>
        <time>2015-12-06T15:08:21.000Z</time>
      </trkpt>
      <trkpt lat="47.71362" lon="-2.73175">
        <ele>113.3</ele>
        <time>2015-12-06T15:08:22.000Z</time>
      </trkpt>
      <trkpt lat="47.71364" lon="-2.73174">
        <ele>113.4</ele>
        <time>2015-12-06T15:08:23.000Z</time>
      </trkpt>
      <trkpt lat="47.71366" lon="-2.73173">
        <ele>113.5</ele>
        <time>2015-12-06T15:08:24.000Z</time>
      </trkpt>
      <trkpt lat="47.71368" lon="-2.73172">
        <ele>113.6</ele>
        <time>2015-12-06T15:08:25.000Z</time>
      </trkpt>
      <trkpt lat="47.71369" lon="-2.73172">
        <ele>113.7</ele>
        <time>2015-12-06T15:08:26.000Z</time>
      </trkpt>
      <trkpt lat="47.71371" lon="-2.73172">
        <ele>113.7</ele>
        <time>2015-12-06T15:08:27.000Z</time>
      </trkpt>
      <trkpt lat="47.71372" lon="-2.73172">
        <ele>113.8</ele>
        <time>2015-12-06T15:08:28.000Z</time>
      </trkpt>
      <trkpt lat="47.71374" lon="-2.73173">
        <ele>113.8</ele>
        <time>2015-12-06T15:08:29.000Z</time>
      </trkpt>
      <trkpt lat="47.71377" lon="-2.73173">
        <ele>113.7</ele>
        <time>2015-12-06T15:08:30.000Z</time>
      </trkpt>
      <trkpt lat="47.71379" lon="-2.73174">
        <ele>113.6</ele>
        <time>2015-12-06T15:08:31.000Z</time>
      </trkpt>
      <trkpt lat="47.71382" lon="-2.73174">
        <ele>113.4</ele>
        <time>2015-12-06T15:08:32.000Z</time>
      </trkpt>
      <trkpt lat="47.71384" lon="-2.73174">
        <ele>113.2</ele>
        <time>2015-12-06T15:08:33.000Z</time>
      </trkpt>
      <trkpt lat="47.71386" lon="-2.73174">
        <ele>113.1</ele>
        <time>2015-12-06T15:08:34.000Z</time>
      </trkpt>
      <trkpt lat="47.71389" lon="-2.73175">
        <ele>112.9</ele>
        <time>2015-12-06T15:08:35.000Z</time>
      </trkpt>
      <trkpt lat="47.71391" lon="-2.73176">
        <ele>112.8</ele>
        <time>2015-12-06T15:08:36.000Z</time>
      </trkpt>
      <trkpt lat="47.71393" lon="-2.73178">
        <ele>112.6</ele>
        <time>2015-12-06T15:08:37.000Z</time>
      </trkpt>
      <trkpt lat="47.71394" lon="-2.7318">
        <ele>112.5</ele>
        <time>2015-12-06T15:08:38.000Z</time>
      </trkpt>
      <trkpt lat="47.71396" lon="-2.73183">
        <ele>112.4</ele>
        <time>2015-12-06T15:08:39.000Z</time>
      </trkpt>
      <trkpt lat="47.71398" lon="-2.73185">
        <ele>112.3</ele>
        <time>2015-12-06T15:08:40.000Z</time>
      </trkpt>
      <trkpt lat="47.71399" lon="-2.73189">
        <ele>112.2</ele>
        <time>2015-12-06T15:08:41.000Z</time>
      </trkpt>
      <trkpt lat="47.71401" lon="-2.73193">
        <ele>112.1</ele>
        <time>2015-12-06T15:08:42.000Z</time>
      </trkpt>
      <trkpt lat="47.71403" lon="-2.73198">
        <ele>112</ele>
        <time>2015-12-06T15:08:43.000Z</time>
      </trkpt>
      <trkpt lat="47.71405" lon="-2.73203">
        <ele>111.9</ele>
        <time>2015-12-06T15:08:44.000Z</time>
      </trkpt>
      <trkpt lat="47.71407" lon="-2.73208">
        <ele>111.8</ele>
        <time>2015-12-06T15:08:45.000Z</time>
      </trkpt>
      <trkpt lat="47.71409" lon="-2.73212">
        <ele>111.8</ele>
        <time>2015-12-06T15:08:46.000Z</time>
      </trkpt>
      <trkpt lat="47.7141" lon="-2.73215">
        <ele>111.7</ele>
        <time>2015-12-06T15:08:47.000Z</time>
      </trkpt>
      <trkpt lat="47.71411" lon="-2.73219">
        <ele>111.7</ele>
        <time>2015-12-06T15:08:48.000Z</time>
      </trkpt>
      <trkpt lat="47.71412" lon="-2.73223">
        <ele>111.6</ele>
        <time>2015-12-06T15:08:49.000Z</time>
      </trkpt>
      <trkpt lat="47.71414" lon="-2.73227">
        <ele>111.6</ele>
        <time>2015-12-06T15:08:50.000Z</time>
      </trkpt>
      <trkpt lat="47.71416" lon="-2.73231">
        <ele>111.5</ele>
        <time>2015-12-06T15:08:51.000Z</time>
      </trkpt>
      <trkpt lat="47.71419" lon="-2.73235">
        <ele>111.4</ele>
        <time>2015-12-06T15:08:52.000Z</time>
      </trkpt>
      <trkpt lat="47.71422" lon="-2.73239">
        <ele>111.4</ele>
        <time>2015-12-06T15:08:53.000Z</time>
      </trkpt>
      <trkpt lat="47.71424" lon="-2.73243">
        <ele>111.3</ele>
        <time>2015-12-06T15:08:54.000Z</time>
      </trkpt>
      <trkpt lat="47.71425" lon="-2.73246">
        <ele>111.3</ele>
        <time>2015-12-06T15:08:55.000Z</time>
      </trkpt>
      <trkpt lat="47.71426" lon="-2.7325">
        <ele>111.3</ele>
        <time>2015-12-06T15:08:56.000Z</time>
      </trkpt>
      <trkpt lat="47.71427" lon="-2.73254">
        <ele>111.3</ele>
        <time>2015-12-06T15:08:57.000Z</time>
      </trkpt>
      <trkpt lat="47.71429" lon="-2.73257">
        <ele>111.2</ele>
        <time>2015-12-06T15:08:58.000Z</time>
      </trkpt>
      <trkpt lat="47.71431" lon="-2.7326">
        <ele>111.2</ele>
        <time>2015-12-06T15:08:59.000Z</time>
      </trkpt>
      <trkpt lat="47.71433" lon="-2.73264">
        <ele>111.2</ele>
        <time>2015-12-06T15:09:00.000Z</time>
      </trkpt>
      <trkpt lat="47.71436" lon="-2.73268">
        <ele>111.1</ele>
        <time>2015-12-06T15:09:01.000Z</time>
      </trkpt>
      <trkpt lat="47.71438" lon="-2.73273">
        <ele>111.1</ele>
        <time>2015-12-06T15:09:02.000Z</time>
      </trkpt>
      <trkpt lat="47.71441" lon="-2.73277">
        <ele>111.1</ele>
        <time>2015-12-06T15:09:03.000Z</time>
      </trkpt>
      <trkpt lat="47.71444" lon="-2.73282">
        <ele>111.1</ele>
        <time>2015-12-06T15:09:04.000Z</time>
      </trkpt>
      <trkpt lat="47.71446" lon="-2.73286">
        <ele>111.1</ele>
        <time>2015-12-06T15:09:05.000Z</time>
      </trkpt>
      <trkpt lat="47.71448" lon="-2.7329">
        <ele>111.1</ele>
        <time>2015-12-06T15:09:06.000Z</time>
      </trkpt>
      <trkpt lat="47.7145" lon="-2.73294">
        <ele>111.1</ele>
        <time>2015-12-06T15:09:07.000Z</time>
      </trkpt>
      <trkpt lat="47.71452" lon="-2.73297">
        <ele>111.1</ele>
        <time>2015-12-06T15:09:08.000Z</time>
      </trkpt>
      <trkpt lat="47.71454" lon="-2.73301">
        <ele>111.2</ele>
        <time>2015-12-06T15:09:09.000Z</time>
      </trkpt>
      <trkpt lat="47.71456" lon="-2.73305">
        <ele>111.2</ele>
        <time>2015-12-06T15:09:10.000Z</time>
      </trkpt>
      <trkpt lat="47.71458" lon="-2.73309">
        <ele>111.2</ele>
        <time>2015-12-06T15:09:11.000Z</time>
      </trkpt>
      <trkpt lat="47.71461" lon="-2.73313">
        <ele>110.9</ele>
        <time>2015-12-06T15:09:12.000Z</time>
      </trkpt>
      <trkpt lat="47.71464" lon="-2.73318">
        <ele>110.6</ele>
        <time>2015-12-06T15:09:13.000Z</time>
      </trkpt>
      <trkpt lat="47.71467" lon="-2.73322">
        <ele>110.3</ele>
        <time>2015-12-06T15:09:14.000Z</time>
      </trkpt>
      <trkpt lat="47.7147" lon="-2.73326">
        <ele>110.1</ele>
        <time>2015-12-06T15:09:15.000Z</time>
      </trkpt>
      <trkpt lat="47.71472" lon="-2.73329">
        <ele>109.9</ele>
        <time>2015-12-06T15:09:16.000Z</time>
      </trkpt>
      <trkpt lat="47.71474" lon="-2.73332">
        <ele>109.8</ele>
        <time>2015-12-06T15:09:17.000Z</time>
      </trkpt>
      <trkpt lat="47.71476" lon="-2.73337">
        <ele>109.7</ele>
        <time>2015-12-06T15:09:18.000Z</time>
      </trkpt>
      <trkpt lat="47.71477" lon="-2.73341">
        <ele>109.7</ele>
        <time>2015-12-06T15:09:19.000Z</time>
      </trkpt>
      <trkpt lat="47.71478" lon="-2.73344">
        <ele>109.6</ele>
        <time>2015-12-06T15:09:20.000Z</time>
      </trkpt>
      <trkpt lat="47.71478" lon="-2.73347">
        <ele>109.7</ele>
        <time>2015-12-06T15:09:21.000Z</time>
      </trkpt>
      <trkpt lat="47.71478" lon="-2.73349">
        <ele>109.7</ele>
        <time>2015-12-06T15:09:22.000Z</time>
      </trkpt>
      <trkpt lat="47.71478" lon="-2.73351">
        <ele>109.8</ele>
        <time>2015-12-06T15:09:23.000Z</time>
      </trkpt>
      <trkpt lat="47.71478" lon="-2.73353">
        <ele>109.8</ele>
        <time>2015-12-06T15:09:24.000Z</time>
      </trkpt>
      <trkpt lat="47.71479" lon="-2.73354">
        <ele>109.8</ele>
        <time>2015-12-06T15:09:25.000Z</time>
      </trkpt>
      <trkpt lat="47.71479" lon="-2.73356">
        <ele>109.8</ele>
        <time>2015-12-06T15:09:26.000Z</time>
      </trkpt>
      <trkpt lat="47.71479" lon="-2.73358">
        <ele>109.8</ele>
        <time>2015-12-06T15:09:27.000Z</time>
      </trkpt>
      <trkpt lat="47.7148" lon="-2.73361">
        <ele>109.9</ele>
        <time>2015-12-06T15:09:28.000Z</time>
      </trkpt>
      <trkpt lat="47.7148" lon="-2.73364">
        <ele>109.9</ele>
        <time>2015-12-06T15:09:29.000Z</time>
      </trkpt>
      <trkpt lat="47.71481" lon="-2.73368">
        <ele>109.9</ele>
        <time>2015-12-06T15:09:30.000Z</time>
      </trkpt>
      <trkpt lat="47.71482" lon="-2.73371">
        <ele>109.9</ele>
        <time>2015-12-06T15:09:31.000Z</time>
      </trkpt>
      <trkpt lat="47.71483" lon="-2.73374">
        <ele>109.9</ele>
        <time>2015-12-06T15:09:32.000Z</time>
      </trkpt>
      <trkpt lat="47.71483" lon="-2.73378">
        <ele>110</ele>
        <time>2015-12-06T15:09:33.000Z</time>
      </trkpt>
      <trkpt lat="47.71483" lon="-2.73381">
        <ele>110</ele>
        <time>2015-12-06T15:09:34.000Z</time>
      </trkpt>
      <trkpt lat="47.71484" lon="-2.73385">
        <ele>110.1</ele>
        <time>2015-12-06T15:09:35.000Z</time>
      </trkpt>
      <trkpt lat="47.71484" lon="-2.73388">
        <ele>110.1</ele>
        <time>2015-12-06T15:09:36.000Z</time>
      </trkpt>
      <trkpt lat="47.71485" lon="-2.73391">
        <ele>110.1</ele>
        <time>2015-12-06T15:09:37.000Z</time>
      </trkpt>
      <trkpt lat="47.71486" lon="-2.73393">
        <ele>110</ele>
        <time>2015-12-06T15:09:38.000Z</time>
      </trkpt>
      <trkpt lat="47.71488" lon="-2.73395">
        <ele>109.9</ele>
        <time>2015-12-06T15:09:39.000Z</time>
      </trkpt>
      <trkpt lat="47.71491" lon="-2.73397">
        <ele>109.8</ele>
        <time>2015-12-06T15:09:40.000Z</time>
      </trkpt>
      <trkpt lat="47.71494" lon="-2.73399">
        <ele>109.6</ele>
        <time>2015-12-06T15:09:41.000Z</time>
      </trkpt>
      <trkpt lat="47.71497" lon="-2.73401">
        <ele>109.5</ele>
        <time>2015-12-06T15:09:42.000Z</time>
      </trkpt>
      <trkpt lat="47.71498" lon="-2.73403">
        <ele>109.5</ele>
        <time>2015-12-06T15:09:43.000Z</time>
      </trkpt>
      <trkpt lat="47.715" lon="-2.73406">
        <ele>109.4</ele>
        <time>2015-12-06T15:09:44.000Z</time>
      </trkpt>
      <trkpt lat="47.71501" lon="-2.7341">
        <ele>109.5</ele>
        <time>2015-12-06T15:09:45.000Z</time>
      </trkpt>
      <trkpt lat="47.71503" lon="-2.73414">
        <ele>109.5</ele>
        <time>2015-12-06T15:09:46.000Z</time>
      </trkpt>
      <trkpt lat="47.71504" lon="-2.73417">
        <ele>109.5</ele>
        <time>2015-12-06T15:09:47.000Z</time>
      </trkpt>
      <trkpt lat="47.71506" lon="-2.73421">
        <ele>109.6</ele>
        <time>2015-12-06T15:09:48.000Z</time>
      </trkpt>
      <trkpt lat="47.71507" lon="-2.73424">
        <ele>109.6</ele>
        <time>2015-12-06T15:09:49.000Z</time>
      </trkpt>
      <trkpt lat="47.71509" lon="-2.73427">
        <ele>109.6</ele>
        <time>2015-12-06T15:09:50.000Z</time>
      </trkpt>
      <trkpt lat="47.71512" lon="-2.7343">
        <ele>109.6</ele>
        <time>2015-12-06T15:09:51.000Z</time>
      </trkpt>
      <trkpt lat="47.71515" lon="-2.73432">
        <ele>109.6</ele>
        <time>2015-12-06T15:09:52.000Z</time>
      </trkpt>
      <trkpt lat="47.71517" lon="-2.73434">
        <ele>109.6</ele>
        <time>2015-12-06T15:09:53.000Z</time>
      </trkpt>
      <trkpt lat="47.71519" lon="-2.73435">
        <ele>109.5</ele>
        <time>2015-12-06T15:09:54.000Z</time>
      </trkpt>
      <trkpt lat="47.71521" lon="-2.73436">
        <ele>109.5</ele>
        <time>2015-12-06T15:09:55.000Z</time>
      </trkpt>
      <trkpt lat="47.71523" lon="-2.73438">
        <ele>109.5</ele>
        <time>2015-12-06T15:09:56.000Z</time>
      </trkpt>
      <trkpt lat="47.71525" lon="-2.7344">
        <ele>109.5</ele>
        <time>2015-12-06T15:09:57.000Z</time>
      </trkpt>
      <trkpt lat="47.71527" lon="-2.73443">
        <ele>109.6</ele>
        <time>2015-12-06T15:09:58.000Z</time>
      </trkpt>
      <trkpt lat="47.71529" lon="-2.73446">
        <ele>109.7</ele>
        <time>2015-12-06T15:09:59.000Z</time>
      </trkpt>
      <trkpt lat="47.71531" lon="-2.7345">
        <ele>109.8</ele>
        <time>2015-12-06T15:10:00.000Z</time>
      </trkpt>
      <trkpt lat="47.71532" lon="-2.73453">
        <ele>109.9</ele>
        <time>2015-12-06T15:10:01.000Z</time>
      </trkpt>
      <trkpt lat="47.71534" lon="-2.73455">
        <ele>110</ele>
        <time>2015-12-06T15:10:02.000Z</time>
      </trkpt>
      <trkpt lat="47.71536" lon="-2.73458">
        <ele>110.1</ele>
        <time>2015-12-06T15:10:03.000Z</time>
      </trkpt>
      <trkpt lat="47.71538" lon="-2.73461">
        <ele>110.2</ele>
        <time>2015-12-06T15:10:04.000Z</time>
      </trkpt>
      <trkpt lat="47.7154" lon="-2.73463">
        <ele>110.2</ele>
        <time>2015-12-06T15:10:05.000Z</time>
      </trkpt>
      <trkpt lat="47.71543" lon="-2.73465">
        <ele>110.1</ele>
        <time>2015-12-06T15:10:06.000Z</time>
      </trkpt>
      <trkpt lat="47.71545" lon="-2.73466">
        <ele>109.9</ele>
        <time>2015-12-06T15:10:07.000Z</time>
      </trkpt>
      <trkpt lat="47.71547" lon="-2.73468">
        <ele>109.7</ele>
        <time>2015-12-06T15:10:08.000Z</time>
      </trkpt>
      <trkpt lat="47.7155" lon="-2.73471">
        <ele>109.6</ele>
        <time>2015-12-06T15:10:09.000Z</time>
      </trkpt>
      <trkpt lat="47.71553" lon="-2.73474">
        <ele>109.4</ele>
        <time>2015-12-06T15:10:10.000Z</time>
      </trkpt>
      <trkpt lat="47.71556" lon="-2.73478">
        <ele>109.1</ele>
        <time>2015-12-06T15:10:11.000Z</time>
      </trkpt>
      <trkpt lat="47.7156" lon="-2.73482">
        <ele>108.9</ele>
        <time>2015-12-06T15:10:12.000Z</time>
      </trkpt>
      <trkpt lat="47.71564" lon="-2.73487">
        <ele>108.7</ele>
        <time>2015-12-06T15:10:13.000Z</time>
      </trkpt>
      <trkpt lat="47.71569" lon="-2.73489">
        <ele>108.4</ele>
        <time>2015-12-06T15:10:14.000Z</time>
      </trkpt>
      <trkpt lat="47.71573" lon="-2.7349">
        <ele>108</ele>
        <time>2015-12-06T15:10:15.000Z</time>
      </trkpt>
      <trkpt lat="47.71578" lon="-2.73491">
        <ele>107.5</ele>
        <time>2015-12-06T15:10:16.000Z</time>
      </trkpt>
      <trkpt lat="47.71582" lon="-2.73491">
        <ele>107.1</ele>
        <time>2015-12-06T15:10:17.000Z</time>
      </trkpt>
      <trkpt lat="47.71587" lon="-2.73491">
        <ele>106.6</ele>
        <time>2015-12-06T15:10:18.000Z</time>
      </trkpt>
      <trkpt lat="47.71592" lon="-2.73493">
        <ele>106.2</ele>
        <time>2015-12-06T15:10:19.000Z</time>
      </trkpt>
      <trkpt lat="47.71597" lon="-2.73493">
        <ele>105.8</ele>
        <time>2015-12-06T15:10:20.000Z</time>
      </trkpt>
      <trkpt lat="47.71601" lon="-2.73492">
        <ele>105.2</ele>
        <time>2015-12-06T15:10:21.000Z</time>
      </trkpt>
      <trkpt lat="47.71605" lon="-2.73489">
        <ele>104.7</ele>
        <time>2015-12-06T15:10:22.000Z</time>
      </trkpt>
      <trkpt lat="47.71608" lon="-2.73486">
        <ele>104.2</ele>
        <time>2015-12-06T15:10:23.000Z</time>
      </trkpt>
      <trkpt lat="47.7161" lon="-2.73483">
        <ele>103.6</ele>
        <time>2015-12-06T15:10:24.000Z</time>
      </trkpt>
      <trkpt lat="47.71612" lon="-2.73478">
        <ele>103.1</ele>
        <time>2015-12-06T15:10:25.000Z</time>
      </trkpt>
      <trkpt lat="47.71614" lon="-2.73473">
        <ele>102.4</ele>
        <time>2015-12-06T15:10:26.000Z</time>
      </trkpt>
      <trkpt lat="47.71616" lon="-2.73468">
        <ele>101.8</ele>
        <time>2015-12-06T15:10:27.000Z</time>
      </trkpt>
      <trkpt lat="47.71619" lon="-2.73464">
        <ele>101.2</ele>
        <time>2015-12-06T15:10:28.000Z</time>
      </trkpt>
      <trkpt lat="47.71621" lon="-2.7346">
        <ele>100.6</ele>
        <time>2015-12-06T15:10:29.000Z</time>
      </trkpt>
      <trkpt lat="47.71623" lon="-2.73456">
        <ele>100.2</ele>
        <time>2015-12-06T15:10:30.000Z</time>
      </trkpt>
      <trkpt lat="47.71624" lon="-2.73454">
        <ele>99.9</ele>
        <time>2015-12-06T15:10:31.000Z</time>
      </trkpt>
      <trkpt lat="47.71626" lon="-2.73451">
        <ele>99.6</ele>
        <time>2015-12-06T15:10:32.000Z</time>
      </trkpt>
      <trkpt lat="47.71629" lon="-2.73449">
        <ele>99.5</ele>
        <time>2015-12-06T15:10:33.000Z</time>
      </trkpt>
      <trkpt lat="47.71632" lon="-2.73445">
        <ele>99.3</ele>
        <time>2015-12-06T15:10:34.000Z</time>
      </trkpt>
      <trkpt lat="47.71635" lon="-2.73441">
        <ele>99.1</ele>
        <time>2015-12-06T15:10:35.000Z</time>
      </trkpt>
      <trkpt lat="47.71637" lon="-2.73436">
        <ele>98.9</ele>
        <time>2015-12-06T15:10:36.000Z</time>
      </trkpt>
      <trkpt lat="47.7164" lon="-2.73431">
        <ele>98.7</ele>
        <time>2015-12-06T15:10:37.000Z</time>
      </trkpt>
      <trkpt lat="47.71643" lon="-2.73427">
        <ele>98.5</ele>
        <time>2015-12-06T15:10:38.000Z</time>
      </trkpt>
      <trkpt lat="47.71646" lon="-2.73423">
        <ele>98.4</ele>
        <time>2015-12-06T15:10:39.000Z</time>
      </trkpt>
      <trkpt lat="47.71649" lon="-2.73418">
        <ele>98.3</ele>
        <time>2015-12-06T15:10:40.000Z</time>
      </trkpt>
      <trkpt lat="47.71651" lon="-2.73414">
        <ele>98.3</ele>
        <time>2015-12-06T15:10:41.000Z</time>
      </trkpt>
      <trkpt lat="47.71654" lon="-2.7341">
        <ele>98.2</ele>
        <time>2015-12-06T15:10:42.000Z</time>
      </trkpt>
      <trkpt lat="47.71657" lon="-2.73406">
        <ele>98.2</ele>
        <time>2015-12-06T15:10:43.000Z</time>
      </trkpt>
      <trkpt lat="47.7166" lon="-2.73402">
        <ele>98.2</ele>
        <time>2015-12-06T15:10:44.000Z</time>
      </trkpt>
      <trkpt lat="47.71662" lon="-2.73399">
        <ele>98.2</ele>
        <time>2015-12-06T15:10:45.000Z</time>
      </trkpt>
      <trkpt lat="47.71664" lon="-2.73395">
        <ele>98.2</ele>
        <time>2015-12-06T15:10:46.000Z</time>
      </trkpt>
      <trkpt lat="47.71667" lon="-2.73392">
        <ele>98.2</ele>
        <time>2015-12-06T15:10:47.000Z</time>
      </trkpt>
      <trkpt lat="47.71668" lon="-2.73388">
        <ele>98.2</ele>
        <time>2015-12-06T15:10:48.000Z</time>
      </trkpt>
      <trkpt lat="47.71669" lon="-2.73384">
        <ele>98.2</ele>
        <time>2015-12-06T15:10:49.000Z</time>
      </trkpt>
      <trkpt lat="47.71669" lon="-2.73381">
        <ele>98.2</ele>
        <time>2015-12-06T15:10:50.000Z</time>
      </trkpt>
      <trkpt lat="47.71669" lon="-2.73377">
        <ele>98.1</ele>
        <time>2015-12-06T15:10:51.000Z</time>
      </trkpt>
      <trkpt lat="47.71668" lon="-2.73373">
        <ele>98.1</ele>
        <time>2015-12-06T15:10:52.000Z</time>
      </trkpt>
      <trkpt lat="47.71666" lon="-2.7337">
        <ele>98.1</ele>
        <time>2015-12-06T15:10:53.000Z</time>
      </trkpt>
      <trkpt lat="47.71664" lon="-2.73367">
        <ele>98</ele>
        <time>2015-12-06T15:10:54.000Z</time>
      </trkpt>
      <trkpt lat="47.71661" lon="-2.73365">
        <ele>97.9</ele>
        <time>2015-12-06T15:10:55.000Z</time>
      </trkpt>
      <trkpt lat="47.71659" lon="-2.73363">
        <ele>97.8</ele>
        <time>2015-12-06T15:10:56.000Z</time>
      </trkpt>
      <trkpt lat="47.71656" lon="-2.73361">
        <ele>97.7</ele>
        <time>2015-12-06T15:10:57.000Z</time>
      </trkpt>
      <trkpt lat="47.71654" lon="-2.73359">
        <ele>97.7</ele>
        <time>2015-12-06T15:10:58.000Z</time>
      </trkpt>
      <trkpt lat="47.71653" lon="-2.73355">
        <ele>97.6</ele>
        <time>2015-12-06T15:10:59.000Z</time>
      </trkpt>
      <trkpt lat="47.71651" lon="-2.73352">
        <ele>97.6</ele>
        <time>2015-12-06T15:11:00.000Z</time>
      </trkpt>
      <trkpt lat="47.71649" lon="-2.73349">
        <ele>97.6</ele>
        <time>2015-12-06T15:11:01.000Z</time>
      </trkpt>
      <trkpt lat="47.71647" lon="-2.73347">
        <ele>97.5</ele>
        <time>2015-12-06T15:11:02.000Z</time>
      </trkpt>
      <trkpt lat="47.71644" lon="-2.73346">
        <ele>97.4</ele>
        <time>2015-12-06T15:11:03.000Z</time>
      </trkpt>
      <trkpt lat="47.71641" lon="-2.73345">
        <ele>97.2</ele>
        <time>2015-12-06T15:11:04.000Z</time>
      </trkpt>
      <trkpt lat="47.71637" lon="-2.73344">
        <ele>97</ele>
        <time>2015-12-06T15:11:05.000Z</time>
      </trkpt>
      <trkpt lat="47.71634" lon="-2.73344">
        <ele>96.9</ele>
        <time>2015-12-06T15:11:06.000Z</time>
      </trkpt>
      <trkpt lat="47.71631" lon="-2.73343">
        <ele>96.7</ele>
        <time>2015-12-06T15:11:07.000Z</time>
      </trkpt>
      <trkpt lat="47.71627" lon="-2.73341">
        <ele>96.5</ele>
        <time>2015-12-06T15:11:08.000Z</time>
      </trkpt>
      <trkpt lat="47.71625" lon="-2.73338">
        <ele>96.5</ele>
        <time>2015-12-06T15:11:09.000Z</time>
      </trkpt>
      <trkpt lat="47.71624" lon="-2.73334">
        <ele>96.6</ele>
        <time>2015-12-06T15:11:10.000Z</time>
      </trkpt>
      <trkpt lat="47.71623" lon="-2.7333">
        <ele>96.7</ele>
        <time>2015-12-06T15:11:11.000Z</time>
      </trkpt>
      <trkpt lat="47.71622" lon="-2.73326">
        <ele>96.8</ele>
        <time>2015-12-06T15:11:12.000Z</time>
      </trkpt>
      <trkpt lat="47.71621" lon="-2.73321">
        <ele>96.9</ele>
        <time>2015-12-06T15:11:13.000Z</time>
      </trkpt>
      <trkpt lat="47.7162" lon="-2.73317">
        <ele>97</ele>
        <time>2015-12-06T15:11:14.000Z</time>
      </trkpt>
      <trkpt lat="47.71618" lon="-2.73312">
        <ele>97.1</ele>
        <time>2015-12-06T15:11:15.000Z</time>
      </trkpt>
      <trkpt lat="47.71617" lon="-2.73307">
        <ele>97.2</ele>
        <time>2015-12-06T15:11:16.000Z</time>
      </trkpt>
      <trkpt lat="47.71615" lon="-2.733">
        <ele>97.3</ele>
        <time>2015-12-06T15:11:17.000Z</time>
      </trkpt>
      <trkpt lat="47.71614" lon="-2.73294">
        <ele>97.4</ele>
        <time>2015-12-06T15:11:18.000Z</time>
      </trkpt>
      <trkpt lat="47.71612" lon="-2.73287">
        <ele>97.5</ele>
        <time>2015-12-06T15:11:19.000Z</time>
      </trkpt>
      <trkpt lat="47.71611" lon="-2.73282">
        <ele>97.7</ele>
        <time>2015-12-06T15:11:20.000Z</time>
      </trkpt>
      <trkpt lat="47.71609" lon="-2.73277">
        <ele>97.8</ele>
        <time>2015-12-06T15:11:21.000Z</time>
      </trkpt>
      <trkpt lat="47.71607" lon="-2.73273">
        <ele>97.9</ele>
        <time>2015-12-06T15:11:22.000Z</time>
      </trkpt>
      <trkpt lat="47.71605" lon="-2.73268">
        <ele>98</ele>
        <time>2015-12-06T15:11:23.000Z</time>
      </trkpt>
      <trkpt lat="47.71604" lon="-2.73263">
        <ele>98.1</ele>
        <time>2015-12-06T15:11:24.000Z</time>
      </trkpt>
      <trkpt lat="47.71603" lon="-2.73259">
        <ele>98.2</ele>
        <time>2015-12-06T15:11:25.000Z</time>
      </trkpt>
      <trkpt lat="47.71603" lon="-2.73256">
        <ele>98.2</ele>
        <time>2015-12-06T15:11:26.000Z</time>
      </trkpt>
      <trkpt lat="47.71604" lon="-2.73253">
        <ele>98.2</ele>
        <time>2015-12-06T15:11:27.000Z</time>
      </trkpt>
      <trkpt lat="47.71604" lon="-2.7325">
        <ele>98.3</ele>
        <time>2015-12-06T15:11:28.000Z</time>
      </trkpt>
      <trkpt lat="47.71604" lon="-2.73246">
        <ele>98.3</ele>
        <time>2015-12-06T15:11:29.000Z</time>
      </trkpt>
      <trkpt lat="47.71603" lon="-2.73242">
        <ele>98.4</ele>
        <time>2015-12-06T15:11:30.000Z</time>
      </trkpt>
      <trkpt lat="47.71602" lon="-2.73238">
        <ele>98.4</ele>
        <time>2015-12-06T15:11:31.000Z</time>
      </trkpt>
      <trkpt lat="47.71601" lon="-2.73235">
        <ele>98.4</ele>
        <time>2015-12-06T15:11:32.000Z</time>
      </trkpt>
      <trkpt lat="47.716" lon="-2.73231">
        <ele>98.5</ele>
        <time>2015-12-06T15:11:33.000Z</time>
      </trkpt>
      <trkpt lat="47.71598" lon="-2.73227">
        <ele>98.5</ele>
        <time>2015-12-06T15:11:34.000Z</time>
      </trkpt>
      <trkpt lat="47.71596" lon="-2.73223">
        <ele>98.5</ele>
        <time>2015-12-06T15:11:35.000Z</time>
      </trkpt>
      <trkpt lat="47.71594" lon="-2.73219">
        <ele>98.6</ele>
        <time>2015-12-06T15:11:36.000Z</time>
      </trkpt>
      <trkpt lat="47.71591" lon="-2.73215">
        <ele>98.6</ele>
        <time>2015-12-06T15:11:37.000Z</time>
      </trkpt>
      <trkpt lat="47.71588" lon="-2.73211">
        <ele>98.5</ele>
        <time>2015-12-06T15:11:38.000Z</time>
      </trkpt>
      <trkpt lat="47.71586" lon="-2.73208">
        <ele>98.5</ele>
        <time>2015-12-06T15:11:39.000Z</time>
      </trkpt>
      <trkpt lat="47.71585" lon="-2.73204">
        <ele>98.5</ele>
        <time>2015-12-06T15:11:40.000Z</time>
      </trkpt>
      <trkpt lat="47.71585" lon="-2.73201">
        <ele>98.4</ele>
        <time>2015-12-06T15:11:41.000Z</time>
      </trkpt>
      <trkpt lat="47.71584" lon="-2.73198">
        <ele>98.3</ele>
        <time>2015-12-06T15:11:42.000Z</time>
      </trkpt>
      <trkpt lat="47.71584" lon="-2.73194">
        <ele>98.2</ele>
        <time>2015-12-06T15:11:43.000Z</time>
      </trkpt>
      <trkpt lat="47.71582" lon="-2.7319">
        <ele>98.1</ele>
        <time>2015-12-06T15:11:44.000Z</time>
      </trkpt>
      <trkpt lat="47.71581" lon="-2.73185">
        <ele>98</ele>
        <time>2015-12-06T15:11:45.000Z</time>
      </trkpt>
      <trkpt lat="47.71579" lon="-2.73179">
        <ele>97.8</ele>
        <time>2015-12-06T15:11:46.000Z</time>
      </trkpt>
      <trkpt lat="47.71577" lon="-2.73172">
        <ele>97.5</ele>
        <time>2015-12-06T15:11:47.000Z</time>
      </trkpt>
      <trkpt lat="47.71575" lon="-2.73165">
        <ele>97.3</ele>
        <time>2015-12-06T15:11:48.000Z</time>
      </trkpt>
      <trkpt lat="47.71574" lon="-2.73159">
        <ele>97</ele>
        <time>2015-12-06T15:11:49.000Z</time>
      </trkpt>
      <trkpt lat="47.71572" lon="-2.73154">
        <ele>96.8</ele>
        <time>2015-12-06T15:11:50.000Z</time>
      </trkpt>
      <trkpt lat="47.7157" lon="-2.73149">
        <ele>96.5</ele>
        <time>2015-12-06T15:11:51.000Z</time>
      </trkpt>
      <trkpt lat="47.71568" lon="-2.73143">
        <ele>96.1</ele>
        <time>2015-12-06T15:11:52.000Z</time>
      </trkpt>
      <trkpt lat="47.71565" lon="-2.73137">
        <ele>95.7</ele>
        <time>2015-12-06T15:11:53.000Z</time>
      </trkpt>
      <trkpt lat="47.71563" lon="-2.73131">
        <ele>95.3</ele>
        <time>2015-12-06T15:11:54.000Z</time>
      </trkpt>
      <trkpt lat="47.71561" lon="-2.73124">
        <ele>94.8</ele>
        <time>2015-12-06T15:11:55.000Z</time>
      </trkpt>
      <trkpt lat="47.71558" lon="-2.73117">
        <ele>94.5</ele>
        <time>2015-12-06T15:11:56.000Z</time>
      </trkpt>
      <trkpt lat="47.71556" lon="-2.7311">
        <ele>94.2</ele>
        <time>2015-12-06T15:11:57.000Z</time>
      </trkpt>
      <trkpt lat="47.71554" lon="-2.73104">
        <ele>93.9</ele>
        <time>2015-12-06T15:11:58.000Z</time>
      </trkpt>
      <trkpt lat="47.71552" lon="-2.73097">
        <ele>93.6</ele>
        <time>2015-12-06T15:11:59.000Z</time>
      </trkpt>
      <trkpt lat="47.7155" lon="-2.73091">
        <ele>93.2</ele>
        <time>2015-12-06T15:12:00.000Z</time>
      </trkpt>
      <trkpt lat="47.71547" lon="-2.73085">
        <ele>92.8</ele>
        <time>2015-12-06T15:12:01.000Z</time>
      </trkpt>
      <trkpt lat="47.71545" lon="-2.7308">
        <ele>92.4</ele>
        <time>2015-12-06T15:12:02.000Z</time>
      </trkpt>
      <trkpt lat="47.71544" lon="-2.73075">
        <ele>92.1</ele>
        <time>2015-12-06T15:12:03.000Z</time>
      </trkpt>
      <trkpt lat="47.71542" lon="-2.73069">
        <ele>91.7</ele>
        <time>2015-12-06T15:12:04.000Z</time>
      </trkpt>
      <trkpt lat="47.7154" lon="-2.73063">
        <ele>91.8</ele>
        <time>2015-12-06T15:12:05.000Z</time>
      </trkpt>
      <trkpt lat="47.71538" lon="-2.73058">
        <ele>91.9</ele>
        <time>2015-12-06T15:12:06.000Z</time>
      </trkpt>
      <trkpt lat="47.71537" lon="-2.73052">
        <ele>91.9</ele>
        <time>2015-12-06T15:12:07.000Z</time>
      </trkpt>
      <trkpt lat="47.71536" lon="-2.73047">
        <ele>91.8</ele>
        <time>2015-12-06T15:12:08.000Z</time>
      </trkpt>
      <trkpt lat="47.71536" lon="-2.73041">
        <ele>91.7</ele>
        <time>2015-12-06T15:12:09.000Z</time>
      </trkpt>
      <trkpt lat="47.71536" lon="-2.73033">
        <ele>91.8</ele>
        <time>2015-12-06T15:12:10.000Z</time>
      </trkpt>
      <trkpt lat="47.71535" lon="-2.73026">
        <ele>91.9</ele>
        <time>2015-12-06T15:12:11.000Z</time>
      </trkpt>
      <trkpt lat="47.71534" lon="-2.73018">
        <ele>92</ele>
        <time>2015-12-06T15:12:12.000Z</time>
      </trkpt>
      <trkpt lat="47.71534" lon="-2.73011">
        <ele>92</ele>
        <time>2015-12-06T15:12:13.000Z</time>
      </trkpt>
      <trkpt lat="47.71533" lon="-2.73004">
        <ele>92.1</ele>
        <time>2015-12-06T15:12:14.000Z</time>
      </trkpt>
      <trkpt lat="47.71532" lon="-2.72998">
        <ele>92.1</ele>
        <time>2015-12-06T15:12:15.000Z</time>
      </trkpt>
      <trkpt lat="47.71532" lon="-2.72992">
        <ele>92.2</ele>
        <time>2015-12-06T15:12:16.000Z</time>
      </trkpt>
      <trkpt lat="47.71531" lon="-2.72986">
        <ele>92.2</ele>
        <time>2015-12-06T15:12:17.000Z</time>
      </trkpt>
      <trkpt lat="47.7153" lon="-2.72982">
        <ele>92.2</ele>
        <time>2015-12-06T15:12:18.000Z</time>
      </trkpt>
      <trkpt lat="47.71529" lon="-2.72979">
        <ele>92.2</ele>
        <time>2015-12-06T15:12:19.000Z</time>
      </trkpt>
      <trkpt lat="47.71527" lon="-2.72977">
        <ele>92.3</ele>
        <time>2015-12-06T15:12:20.000Z</time>
      </trkpt>
      <trkpt lat="47.71525" lon="-2.72974">
        <ele>92.3</ele>
        <time>2015-12-06T15:12:21.000Z</time>
      </trkpt>
      <trkpt lat="47.71524" lon="-2.7297">
        <ele>92.4</ele>
        <time>2015-12-06T15:12:22.000Z</time>
      </trkpt>
      <trkpt lat="47.71523" lon="-2.72966">
        <ele>92.3</ele>
        <time>2015-12-06T15:12:23.000Z</time>
      </trkpt>
      <trkpt lat="47.71522" lon="-2.72961">
        <ele>92.3</ele>
        <time>2015-12-06T15:12:24.000Z</time>
      </trkpt>
      <trkpt lat="47.71522" lon="-2.72956">
        <ele>92.2</ele>
        <time>2015-12-06T15:12:25.000Z</time>
      </trkpt>
      <trkpt lat="47.7152" lon="-2.72951">
        <ele>92.2</ele>
        <time>2015-12-06T15:12:26.000Z</time>
      </trkpt>
      <trkpt lat="47.71519" lon="-2.72947">
        <ele>92.2</ele>
        <time>2015-12-06T15:12:27.000Z</time>
      </trkpt>
      <trkpt lat="47.71517" lon="-2.72942">
        <ele>92.2</ele>
        <time>2015-12-06T15:12:28.000Z</time>
      </trkpt>
      <trkpt lat="47.71516" lon="-2.72936">
        <ele>92.2</ele>
        <time>2015-12-06T15:12:29.000Z</time>
      </trkpt>
      <trkpt lat="47.71514" lon="-2.7293">
        <ele>92.1</ele>
        <time>2015-12-06T15:12:30.000Z</time>
      </trkpt>
      <trkpt lat="47.71512" lon="-2.72925">
        <ele>92</ele>
        <time>2015-12-06T15:12:31.000Z</time>
      </trkpt>
      <trkpt lat="47.7151" lon="-2.72919">
        <ele>92</ele>
        <time>2015-12-06T15:12:32.000Z</time>
      </trkpt>
      <trkpt lat="47.71509" lon="-2.72915">
        <ele>91.9</ele>
        <time>2015-12-06T15:12:33.000Z</time>
      </trkpt>
      <trkpt lat="47.71507" lon="-2.7291">
        <ele>91.8</ele>
        <time>2015-12-06T15:12:34.000Z</time>
      </trkpt>
      <trkpt lat="47.71506" lon="-2.72906">
        <ele>91.7</ele>
        <time>2015-12-06T15:12:35.000Z</time>
      </trkpt>
      <trkpt lat="47.71505" lon="-2.72902">
        <ele>91.6</ele>
        <time>2015-12-06T15:12:36.000Z</time>
      </trkpt>
      <trkpt lat="47.71504" lon="-2.72898">
        <ele>91.5</ele>
        <time>2015-12-06T15:12:37.000Z</time>
      </trkpt>
      <trkpt lat="47.71504" lon="-2.72894">
        <ele>91.5</ele>
        <time>2015-12-06T15:12:38.000Z</time>
      </trkpt>
      <trkpt lat="47.71504" lon="-2.72891">
        <ele>91.4</ele>
        <time>2015-12-06T15:12:39.000Z</time>
      </trkpt>
      <trkpt lat="47.71504" lon="-2.72888">
        <ele>91.4</ele>
        <time>2015-12-06T15:12:40.000Z</time>
      </trkpt>
      <trkpt lat="47.71503" lon="-2.72884">
        <ele>91.3</ele>
        <time>2015-12-06T15:12:41.000Z</time>
      </trkpt>
      <trkpt lat="47.71501" lon="-2.72879">
        <ele>91.1</ele>
        <time>2015-12-06T15:12:42.000Z</time>
      </trkpt>
      <trkpt lat="47.715" lon="-2.72874">
        <ele>91</ele>
        <time>2015-12-06T15:12:43.000Z</time>
      </trkpt>
      <trkpt lat="47.71498" lon="-2.72868">
        <ele>91</ele>
        <time>2015-12-06T15:12:44.000Z</time>
      </trkpt>
      <trkpt lat="47.71497" lon="-2.72863">
        <ele>91.1</ele>
        <time>2015-12-06T15:12:45.000Z</time>
      </trkpt>
      <trkpt lat="47.71496" lon="-2.72859">
        <ele>91.1</ele>
        <time>2015-12-06T15:12:46.000Z</time>
      </trkpt>
      <trkpt lat="47.71495" lon="-2.72855">
        <ele>91.1</ele>
        <time>2015-12-06T15:12:47.000Z</time>
      </trkpt>
      <trkpt lat="47.71494" lon="-2.72851">
        <ele>91.1</ele>
        <time>2015-12-06T15:12:48.000Z</time>
      </trkpt>
      <trkpt lat="47.71493" lon="-2.72847">
        <ele>91.1</ele>
        <time>2015-12-06T15:12:49.000Z</time>
      </trkpt>
      <trkpt lat="47.71493" lon="-2.72843">
        <ele>91.1</ele>
        <time>2015-12-06T15:12:50.000Z</time>
      </trkpt>
      <trkpt lat="47.71493" lon="-2.72839">
        <ele>91.2</ele>
        <time>2015-12-06T15:12:51.000Z</time>
      </trkpt>
      <trkpt lat="47.71492" lon="-2.72835">
        <ele>91.2</ele>
        <time>2015-12-06T15:12:52.000Z</time>
      </trkpt>
      <trkpt lat="47.71491" lon="-2.72832">
        <ele>91.2</ele>
        <time>2015-12-06T15:12:53.000Z</time>
      </trkpt>
      <trkpt lat="47.7149" lon="-2.72828">
        <ele>91.1</ele>
        <time>2015-12-06T15:12:54.000Z</time>
      </trkpt>
      <trkpt lat="47.71488" lon="-2.72826">
        <ele>91.1</ele>
        <time>2015-12-06T15:12:55.000Z</time>
      </trkpt>
      <trkpt lat="47.71486" lon="-2.72823">
        <ele>91</ele>
        <time>2015-12-06T15:12:56.000Z</time>
      </trkpt>
      <trkpt lat="47.71485" lon="-2.7282">
        <ele>90.9</ele>
        <time>2015-12-06T15:12:57.000Z</time>
      </trkpt>
      <trkpt lat="47.71485" lon="-2.72816">
        <ele>90.9</ele>
        <time>2015-12-06T15:12:58.000Z</time>
      </trkpt>
      <trkpt lat="47.71484" lon="-2.72813">
        <ele>90.9</ele>
        <time>2015-12-06T15:12:59.000Z</time>
      </trkpt>
      <trkpt lat="47.71484" lon="-2.7281">
        <ele>90.9</ele>
        <time>2015-12-06T15:13:00.000Z</time>
      </trkpt>
      <trkpt lat="47.71484" lon="-2.72807">
        <ele>91</ele>
        <time>2015-12-06T15:13:01.000Z</time>
      </trkpt>
      <trkpt lat="47.71484" lon="-2.72804">
        <ele>91</ele>
        <time>2015-12-06T15:13:02.000Z</time>
      </trkpt>
      <trkpt lat="47.71484" lon="-2.72801">
        <ele>91</ele>
        <time>2015-12-06T15:13:03.000Z</time>
      </trkpt>
      <trkpt lat="47.71482" lon="-2.72798">
        <ele>90.9</ele>
        <time>2015-12-06T15:13:04.000Z</time>
      </trkpt>
      <trkpt lat="47.71481" lon="-2.72795">
        <ele>90.8</ele>
        <time>2015-12-06T15:13:05.000Z</time>
      </trkpt>
      <trkpt lat="47.71479" lon="-2.72792">
        <ele>90.7</ele>
        <time>2015-12-06T15:13:06.000Z</time>
      </trkpt>
      <trkpt lat="47.71479" lon="-2.72789">
        <ele>90.7</ele>
        <time>2015-12-06T15:13:07.000Z</time>
      </trkpt>
      <trkpt lat="47.71479" lon="-2.72785">
        <ele>90.7</ele>
        <time>2015-12-06T15:13:08.000Z</time>
      </trkpt>
      <trkpt lat="47.71479" lon="-2.72781">
        <ele>90.7</ele>
        <time>2015-12-06T15:13:09.000Z</time>
      </trkpt>
      <trkpt lat="47.71479" lon="-2.72778">
        <ele>90.7</ele>
        <time>2015-12-06T15:13:10.000Z</time>
      </trkpt>
      <trkpt lat="47.71478" lon="-2.72774">
        <ele>90.7</ele>
        <time>2015-12-06T15:13:11.000Z</time>
      </trkpt>
      <trkpt lat="47.71477" lon="-2.7277">
        <ele>90.6</ele>
        <time>2015-12-06T15:13:12.000Z</time>
      </trkpt>
      <trkpt lat="47.71477" lon="-2.72765">
        <ele>90.5</ele>
        <time>2015-12-06T15:13:13.000Z</time>
      </trkpt>
      <trkpt lat="47.71476" lon="-2.7276">
        <ele>90.4</ele>
        <time>2015-12-06T15:13:14.000Z</time>
      </trkpt>
      <trkpt lat="47.71476" lon="-2.72756">
        <ele>90.4</ele>
        <time>2015-12-06T15:13:15.000Z</time>
      </trkpt>
      <trkpt lat="47.71477" lon="-2.72753">
        <ele>90.5</ele>
        <time>2015-12-06T15:13:16.000Z</time>
      </trkpt>
      <trkpt lat="47.71478" lon="-2.72751">
        <ele>90.6</ele>
        <time>2015-12-06T15:13:17.000Z</time>
      </trkpt>
      <trkpt lat="47.71478" lon="-2.72747">
        <ele>90.7</ele>
        <time>2015-12-06T15:13:18.000Z</time>
      </trkpt>
      <trkpt lat="47.71479" lon="-2.72743">
        <ele>90.7</ele>
        <time>2015-12-06T15:13:19.000Z</time>
      </trkpt>
      <trkpt lat="47.7148" lon="-2.72739">
        <ele>90.8</ele>
        <time>2015-12-06T15:13:20.000Z</time>
      </trkpt>
      <trkpt lat="47.71481" lon="-2.72736">
        <ele>90.9</ele>
        <time>2015-12-06T15:13:21.000Z</time>
      </trkpt>
      <trkpt lat="47.71482" lon="-2.72733">
        <ele>91.1</ele>
        <time>2015-12-06T15:13:22.000Z</time>
      </trkpt>
      <trkpt lat="47.71483" lon="-2.7273">
        <ele>91.2</ele>
        <time>2015-12-06T15:13:23.000Z</time>
      </trkpt>
      <trkpt lat="47.71484" lon="-2.72728">
        <ele>91.3</ele>
        <time>2015-12-06T15:13:24.000Z</time>
      </trkpt>
      <trkpt lat="47.71485" lon="-2.72726">
        <ele>91.4</ele>
        <time>2015-12-06T15:13:25.000Z</time>
      </trkpt>
      <trkpt lat="47.71486" lon="-2.72724">
        <ele>91.5</ele>
        <time>2015-12-06T15:13:26.000Z</time>
      </trkpt>
      <trkpt lat="47.71486" lon="-2.72722">
        <ele>91.6</ele>
        <time>2015-12-06T15:13:27.000Z</time>
      </trkpt>
      <trkpt lat="47.71487" lon="-2.7272">
        <ele>91.8</ele>
        <time>2015-12-06T15:13:28.000Z</time>
      </trkpt>
      <trkpt lat="47.71488" lon="-2.72718">
        <ele>91.9</ele>
        <time>2015-12-06T15:13:29.000Z</time>
      </trkpt>
      <trkpt lat="47.71489" lon="-2.72716">
        <ele>92</ele>
        <time>2015-12-06T15:13:30.000Z</time>
      </trkpt>
      <trkpt lat="47.7149" lon="-2.72714">
        <ele>92.2</ele>
        <time>2015-12-06T15:13:31.000Z</time>
      </trkpt>
      <trkpt lat="47.71492" lon="-2.72712">
        <ele>92.4</ele>
        <time>2015-12-06T15:13:32.000Z</time>
      </trkpt>
      <trkpt lat="47.71493" lon="-2.7271">
        <ele>92.6</ele>
        <time>2015-12-06T15:13:33.000Z</time>
      </trkpt>
      <trkpt lat="47.71495" lon="-2.72709">
        <ele>92.8</ele>
        <time>2015-12-06T15:13:34.000Z</time>
      </trkpt>
      <trkpt lat="47.71496" lon="-2.72708">
        <ele>93</ele>
        <time>2015-12-06T15:13:35.000Z</time>
      </trkpt>
      <trkpt lat="47.71498" lon="-2.72706">
        <ele>93.2</ele>
        <time>2015-12-06T15:13:36.000Z</time>
      </trkpt>
      <trkpt lat="47.71499" lon="-2.72705">
        <ele>93.5</ele>
        <time>2015-12-06T15:13:37.000Z</time>
      </trkpt>
      <trkpt lat="47.715" lon="-2.72704">
        <ele>93.7</ele>
        <time>2015-12-06T15:13:38.000Z</time>
      </trkpt>
      <trkpt lat="47.71502" lon="-2.72702">
        <ele>93.9</ele>
        <time>2015-12-06T15:13:39.000Z</time>
      </trkpt>
      <trkpt lat="47.71503" lon="-2.72701">
        <ele>94.1</ele>
        <time>2015-12-06T15:13:40.000Z</time>
      </trkpt>
      <trkpt lat="47.71504" lon="-2.727">
        <ele>94.3</ele>
        <time>2015-12-06T15:13:41.000Z</time>
      </trkpt>
      <trkpt lat="47.71505" lon="-2.72698">
        <ele>94.5</ele>
        <time>2015-12-06T15:13:42.000Z</time>
      </trkpt>
      <trkpt lat="47.71507" lon="-2.72697">
        <ele>94.7</ele>
        <time>2015-12-06T15:13:43.000Z</time>
      </trkpt>
      <trkpt lat="47.71508" lon="-2.72696">
        <ele>94.9</ele>
        <time>2015-12-06T15:13:44.000Z</time>
      </trkpt>
      <trkpt lat="47.71509" lon="-2.72695">
        <ele>95</ele>
        <time>2015-12-06T15:13:45.000Z</time>
      </trkpt>
      <trkpt lat="47.7151" lon="-2.72693">
        <ele>95.3</ele>
        <time>2015-12-06T15:13:46.000Z</time>
      </trkpt>
      <trkpt lat="47.71511" lon="-2.72692">
        <ele>95.5</ele>
        <time>2015-12-06T15:13:47.000Z</time>
      </trkpt>
      <trkpt lat="47.71513" lon="-2.72691">
        <ele>95.7</ele>
        <time>2015-12-06T15:13:48.000Z</time>
      </trkpt>
      <trkpt lat="47.71513" lon="-2.7269">
        <ele>95.8</ele>
        <time>2015-12-06T15:13:49.000Z</time>
      </trkpt>
      <trkpt lat="47.71514" lon="-2.7269">
        <ele>95.9</ele>
        <time>2015-12-06T15:13:50.000Z</time>
      </trkpt>
      <trkpt lat="47.71514" lon="-2.7269">
        <ele>95.9</ele>
        <time>2015-12-06T15:13:51.000Z</time>
      </trkpt>
      <trkpt lat="47.71514" lon="-2.72689">
        <ele>95.9</ele>
        <time>2015-12-06T15:13:52.000Z</time>
      </trkpt>
      <trkpt lat="47.71514" lon="-2.72689">
        <ele>96</ele>
        <time>2015-12-06T15:13:53.000Z</time>
      </trkpt>
      <trkpt lat="47.71514" lon="-2.72689">
        <ele>96</ele>
        <time>2015-12-06T15:13:54.000Z</time>
      </trkpt>
      <trkpt lat="47.71521" lon="-2.72683">
        <ele>97.1</ele>
        <time>2015-12-06T15:13:55.000Z</time>
      </trkpt>
      <trkpt lat="47.71522" lon="-2.72682">
        <ele>97.4</ele>
        <time>2015-12-06T15:13:56.000Z</time>
      </trkpt>
      <trkpt lat="47.71523" lon="-2.72681">
        <ele>97.6</ele>
        <time>2015-12-06T15:13:57.000Z</time>
      </trkpt>
      <trkpt lat="47.71525" lon="-2.72679">
        <ele>97.9</ele>
        <time>2015-12-06T15:13:58.000Z</time>
      </trkpt>
      <trkpt lat="47.71526" lon="-2.72679">
        <ele>98</ele>
        <time>2015-12-06T15:13:59.000Z</time>
      </trkpt>
      <trkpt lat="47.71527" lon="-2.72678">
        <ele>98.2</ele>
        <time>2015-12-06T15:14:00.000Z</time>
      </trkpt>
      <trkpt lat="47.71527" lon="-2.72678">
        <ele>98.3</ele>
        <time>2015-12-06T15:14:01.000Z</time>
      </trkpt>
      <trkpt lat="47.71528" lon="-2.72678">
        <ele>98.5</ele>
        <time>2015-12-06T15:14:02.000Z</time>
      </trkpt>
      <trkpt lat="47.71529" lon="-2.72678">
        <ele>98.6</ele>
        <time>2015-12-06T15:14:03.000Z</time>
      </trkpt>
      <trkpt lat="47.7153" lon="-2.72679">
        <ele>98.7</ele>
        <time>2015-12-06T15:14:04.000Z</time>
      </trkpt>
      <trkpt lat="47.71532" lon="-2.7268">
        <ele>98.9</ele>
        <time>2015-12-06T15:14:05.000Z</time>
      </trkpt>
      <trkpt lat="47.71533" lon="-2.72681">
        <ele>99.1</ele>
        <time>2015-12-06T15:14:06.000Z</time>
      </trkpt>
      <trkpt lat="47.71535" lon="-2.72683">
        <ele>99.2</ele>
        <time>2015-12-06T15:14:07.000Z</time>
      </trkpt>
      <trkpt lat="47.71536" lon="-2.72684">
        <ele>99.3</ele>
        <time>2015-12-06T15:14:08.000Z</time>
      </trkpt>
      <trkpt lat="47.71537" lon="-2.72685">
        <ele>99.5</ele>
        <time>2015-12-06T15:14:09.000Z</time>
      </trkpt>
      <trkpt lat="47.71539" lon="-2.72686">
        <ele>99.7</ele>
        <time>2015-12-06T15:14:10.000Z</time>
      </trkpt>
      <trkpt lat="47.71541" lon="-2.72687">
        <ele>99.9</ele>
        <time>2015-12-06T15:14:11.000Z</time>
      </trkpt>
      <trkpt lat="47.71542" lon="-2.72688">
        <ele>100</ele>
        <time>2015-12-06T15:14:12.000Z</time>
      </trkpt>
      <trkpt lat="47.71544" lon="-2.72689">
        <ele>100.3</ele>
        <time>2015-12-06T15:14:13.000Z</time>
      </trkpt>
      <trkpt lat="47.71546" lon="-2.7269">
        <ele>100.6</ele>
        <time>2015-12-06T15:14:14.000Z</time>
      </trkpt>
      <trkpt lat="47.71548" lon="-2.72692">
        <ele>100.8</ele>
        <time>2015-12-06T15:14:15.000Z</time>
      </trkpt>
      <trkpt lat="47.71551" lon="-2.72693">
        <ele>101.1</ele>
        <time>2015-12-06T15:14:16.000Z</time>
      </trkpt>
      <trkpt lat="47.71553" lon="-2.72695">
        <ele>101.3</ele>
        <time>2015-12-06T15:14:17.000Z</time>
      </trkpt>
      <trkpt lat="47.71555" lon="-2.72697">
        <ele>101.6</ele>
        <time>2015-12-06T15:14:18.000Z</time>
      </trkpt>
      <trkpt lat="47.71557" lon="-2.72699">
        <ele>101.8</ele>
        <time>2015-12-06T15:14:19.000Z</time>
      </trkpt>
      <trkpt lat="47.71559" lon="-2.72701">
        <ele>102</ele>
        <time>2015-12-06T15:14:20.000Z</time>
      </trkpt>
      <trkpt lat="47.71561" lon="-2.72703">
        <ele>102.2</ele>
        <time>2015-12-06T15:14:21.000Z</time>
      </trkpt>
      <trkpt lat="47.71562" lon="-2.72706">
        <ele>102.4</ele>
        <time>2015-12-06T15:14:22.000Z</time>
      </trkpt>
      <trkpt lat="47.71564" lon="-2.72708">
        <ele>102.5</ele>
        <time>2015-12-06T15:14:23.000Z</time>
      </trkpt>
      <trkpt lat="47.71566" lon="-2.7271">
        <ele>102.8</ele>
        <time>2015-12-06T15:14:24.000Z</time>
      </trkpt>
      <trkpt lat="47.71568" lon="-2.72712">
        <ele>102.9</ele>
        <time>2015-12-06T15:14:25.000Z</time>
      </trkpt>
      <trkpt lat="47.7157" lon="-2.72715">
        <ele>103.1</ele>
        <time>2015-12-06T15:14:26.000Z</time>
      </trkpt>
      <trkpt lat="47.71572" lon="-2.72718">
        <ele>103.2</ele>
        <time>2015-12-06T15:14:27.000Z</time>
      </trkpt>
      <trkpt lat="47.71574" lon="-2.72721">
        <ele>103.4</ele>
        <time>2015-12-06T15:14:28.000Z</time>
      </trkpt>
      <trkpt lat="47.71576" lon="-2.72723">
        <ele>103.6</ele>
        <time>2015-12-06T15:14:29.000Z</time>
      </trkpt>
      <trkpt lat="47.71578" lon="-2.72726">
        <ele>103.8</ele>
        <time>2015-12-06T15:14:30.000Z</time>
      </trkpt>
      <trkpt lat="47.7158" lon="-2.72729">
        <ele>103.9</ele>
        <time>2015-12-06T15:14:31.000Z</time>
      </trkpt>
      <trkpt lat="47.71583" lon="-2.72731">
        <ele>104.1</ele>
        <time>2015-12-06T15:14:32.000Z</time>
      </trkpt>
      <trkpt lat="47.71585" lon="-2.72734">
        <ele>104.3</ele>
        <time>2015-12-06T15:14:33.000Z</time>
      </trkpt>
      <trkpt lat="47.71587" lon="-2.72737">
        <ele>104.5</ele>
        <time>2015-12-06T15:14:34.000Z</time>
      </trkpt>
      <trkpt lat="47.7159" lon="-2.7274">
        <ele>104.7</ele>
        <time>2015-12-06T15:14:35.000Z</time>
      </trkpt>
      <trkpt lat="47.71592" lon="-2.72743">
        <ele>104.9</ele>
        <time>2015-12-06T15:14:36.000Z</time>
      </trkpt>
      <trkpt lat="47.71595" lon="-2.72746">
        <ele>105.1</ele>
        <time>2015-12-06T15:14:37.000Z</time>
      </trkpt>
      <trkpt lat="47.71597" lon="-2.72748">
        <ele>105.3</ele>
        <time>2015-12-06T15:14:38.000Z</time>
      </trkpt>
      <trkpt lat="47.716" lon="-2.7275">
        <ele>105.5</ele>
        <time>2015-12-06T15:14:39.000Z</time>
      </trkpt>
      <trkpt lat="47.71602" lon="-2.72751">
        <ele>105.8</ele>
        <time>2015-12-06T15:14:40.000Z</time>
      </trkpt>
      <trkpt lat="47.71605" lon="-2.72753">
        <ele>106</ele>
        <time>2015-12-06T15:14:41.000Z</time>
      </trkpt>
      <trkpt lat="47.71607" lon="-2.72754">
        <ele>106.3</ele>
        <time>2015-12-06T15:14:42.000Z</time>
      </trkpt>
      <trkpt lat="47.71609" lon="-2.72755">
        <ele>106.5</ele>
        <time>2015-12-06T15:14:43.000Z</time>
      </trkpt>
      <trkpt lat="47.71611" lon="-2.72755">
        <ele>106.8</ele>
        <time>2015-12-06T15:14:44.000Z</time>
      </trkpt>
      <trkpt lat="47.71613" lon="-2.72754">
        <ele>107</ele>
        <time>2015-12-06T15:14:45.000Z</time>
      </trkpt>
      <trkpt lat="47.71614" lon="-2.72754">
        <ele>107.3</ele>
        <time>2015-12-06T15:14:46.000Z</time>
      </trkpt>
      <trkpt lat="47.71616" lon="-2.72753">
        <ele>107.6</ele>
        <time>2015-12-06T15:14:47.000Z</time>
      </trkpt>
      <trkpt lat="47.71618" lon="-2.72753">
        <ele>107.8</ele>
        <time>2015-12-06T15:14:48.000Z</time>
      </trkpt>
      <trkpt lat="47.7162" lon="-2.72752">
        <ele>108.1</ele>
        <time>2015-12-06T15:14:49.000Z</time>
      </trkpt>
      <trkpt lat="47.71621" lon="-2.72751">
        <ele>108.4</ele>
        <time>2015-12-06T15:14:50.000Z</time>
      </trkpt>
      <trkpt lat="47.71623" lon="-2.7275">
        <ele>108.7</ele>
        <time>2015-12-06T15:14:51.000Z</time>
      </trkpt>
      <trkpt lat="47.71624" lon="-2.7275">
        <ele>108.9</ele>
        <time>2015-12-06T15:14:52.000Z</time>
      </trkpt>
      <trkpt lat="47.71625" lon="-2.72749">
        <ele>109.1</ele>
        <time>2015-12-06T15:14:53.000Z</time>
      </trkpt>
      <trkpt lat="47.71627" lon="-2.72748">
        <ele>109.3</ele>
        <time>2015-12-06T15:14:54.000Z</time>
      </trkpt>
      <trkpt lat="47.71628" lon="-2.72747">
        <ele>109.5</ele>
        <time>2015-12-06T15:14:55.000Z</time>
      </trkpt>
      <trkpt lat="47.7163" lon="-2.72746">
        <ele>109.7</ele>
        <time>2015-12-06T15:14:56.000Z</time>
      </trkpt>
      <trkpt lat="47.71631" lon="-2.72745">
        <ele>109.9</ele>
        <time>2015-12-06T15:14:57.000Z</time>
      </trkpt>
      <trkpt lat="47.71632" lon="-2.72744">
        <ele>110.1</ele>
        <time>2015-12-06T15:14:58.000Z</time>
      </trkpt>
      <trkpt lat="47.71634" lon="-2.72743">
        <ele>110.3</ele>
        <time>2015-12-06T15:14:59.000Z</time>
      </trkpt>
      <trkpt lat="47.71635" lon="-2.72742">
        <ele>110.5</ele>
        <time>2015-12-06T15:15:00.000Z</time>
      </trkpt>
      <trkpt lat="47.71636" lon="-2.7274">
        <ele>110.7</ele>
        <time>2015-12-06T15:15:01.000Z</time>
      </trkpt>
      <trkpt lat="47.71638" lon="-2.72739">
        <ele>110.9</ele>
        <time>2015-12-06T15:15:02.000Z</time>
      </trkpt>
      <trkpt lat="47.7164" lon="-2.72738">
        <ele>111.2</ele>
        <time>2015-12-06T15:15:03.000Z</time>
      </trkpt>
      <trkpt lat="47.71641" lon="-2.72736">
        <ele>111.4</ele>
        <time>2015-12-06T15:15:04.000Z</time>
      </trkpt>
      <trkpt lat="47.71642" lon="-2.72734">
        <ele>111.7</ele>
        <time>2015-12-06T15:15:05.000Z</time>
      </trkpt>
      <trkpt lat="47.71644" lon="-2.72733">
        <ele>111.9</ele>
        <time>2015-12-06T15:15:06.000Z</time>
      </trkpt>
      <trkpt lat="47.71645" lon="-2.72731">
        <ele>112.1</ele>
        <time>2015-12-06T15:15:07.000Z</time>
      </trkpt>
      <trkpt lat="47.71647" lon="-2.72729">
        <ele>112.4</ele>
        <time>2015-12-06T15:15:08.000Z</time>
      </trkpt>
      <trkpt lat="47.71648" lon="-2.72727">
        <ele>112.7</ele>
        <time>2015-12-06T15:15:09.000Z</time>
      </trkpt>
      <trkpt lat="47.7165" lon="-2.72725">
        <ele>113</ele>
        <time>2015-12-06T15:15:10.000Z</time>
      </trkpt>
      <trkpt lat="47.71651" lon="-2.72723">
        <ele>113.3</ele>
        <time>2015-12-06T15:15:11.000Z</time>
      </trkpt>
      <trkpt lat="47.71653" lon="-2.72721">
        <ele>113.5</ele>
        <time>2015-12-06T15:15:12.000Z</time>
      </trkpt>
      <trkpt lat="47.71654" lon="-2.72719">
        <ele>113.7</ele>
        <time>2015-12-06T15:15:13.000Z</time>
      </trkpt>
      <trkpt lat="47.71655" lon="-2.72718">
        <ele>113.9</ele>
        <time>2015-12-06T15:15:14.000Z</time>
      </trkpt>
      <trkpt lat="47.71657" lon="-2.72717">
        <ele>114.1</ele>
        <time>2015-12-06T15:15:15.000Z</time>
      </trkpt>
      <trkpt lat="47.71658" lon="-2.72716">
        <ele>114.3</ele>
        <time>2015-12-06T15:15:16.000Z</time>
      </trkpt>
      <trkpt lat="47.7166" lon="-2.72715">
        <ele>114.5</ele>
        <time>2015-12-06T15:15:17.000Z</time>
      </trkpt>
      <trkpt lat="47.71661" lon="-2.72714">
        <ele>114.6</ele>
        <time>2015-12-06T15:15:18.000Z</time>
      </trkpt>
      <trkpt lat="47.71663" lon="-2.72714">
        <ele>114.8</ele>
        <time>2015-12-06T15:15:19.000Z</time>
      </trkpt>
      <trkpt lat="47.71665" lon="-2.72715">
        <ele>114.9</ele>
        <time>2015-12-06T15:15:20.000Z</time>
      </trkpt>
      <trkpt lat="47.71667" lon="-2.72718">
        <ele>115</ele>
        <time>2015-12-06T15:15:21.000Z</time>
      </trkpt>
      <trkpt lat="47.7167" lon="-2.7272">
        <ele>115</ele>
        <time>2015-12-06T15:15:22.000Z</time>
      </trkpt>
      <trkpt lat="47.71672" lon="-2.72724">
        <ele>115</ele>
        <time>2015-12-06T15:15:23.000Z</time>
      </trkpt>
      <trkpt lat="47.71675" lon="-2.72727">
        <ele>115</ele>
        <time>2015-12-06T15:15:24.000Z</time>
      </trkpt>
      <trkpt lat="47.71677" lon="-2.72731">
        <ele>115</ele>
        <time>2015-12-06T15:15:25.000Z</time>
      </trkpt>
      <trkpt lat="47.7168" lon="-2.72734">
        <ele>114.9</ele>
        <time>2015-12-06T15:15:26.000Z</time>
      </trkpt>
      <trkpt lat="47.71682" lon="-2.72738">
        <ele>114.9</ele>
        <time>2015-12-06T15:15:27.000Z</time>
      </trkpt>
      <trkpt lat="47.71685" lon="-2.72741">
        <ele>114.9</ele>
        <time>2015-12-06T15:15:28.000Z</time>
      </trkpt>
      <trkpt lat="47.71688" lon="-2.72745">
        <ele>115</ele>
        <time>2015-12-06T15:15:29.000Z</time>
      </trkpt>
      <trkpt lat="47.7169" lon="-2.72748">
        <ele>115</ele>
        <time>2015-12-06T15:15:30.000Z</time>
      </trkpt>
      <trkpt lat="47.71693" lon="-2.72751">
        <ele>115</ele>
        <time>2015-12-06T15:15:31.000Z</time>
      </trkpt>
      <trkpt lat="47.71696" lon="-2.72755">
        <ele>115.1</ele>
        <time>2015-12-06T15:15:32.000Z</time>
      </trkpt>
      <trkpt lat="47.71699" lon="-2.72758">
        <ele>115.1</ele>
        <time>2015-12-06T15:15:33.000Z</time>
      </trkpt>
      <trkpt lat="47.71702" lon="-2.72762">
        <ele>115.2</ele>
        <time>2015-12-06T15:15:34.000Z</time>
      </trkpt>
      <trkpt lat="47.71705" lon="-2.72765">
        <ele>115.2</ele>
        <time>2015-12-06T15:15:35.000Z</time>
      </trkpt>
      <trkpt lat="47.71708" lon="-2.72769">
        <ele>115.3</ele>
        <time>2015-12-06T15:15:36.000Z</time>
      </trkpt>
      <trkpt lat="47.71711" lon="-2.72772">
        <ele>115.4</ele>
        <time>2015-12-06T15:15:37.000Z</time>
      </trkpt>
      <trkpt lat="47.71714" lon="-2.72776">
        <ele>115.5</ele>
        <time>2015-12-06T15:15:38.000Z</time>
      </trkpt>
      <trkpt lat="47.71718" lon="-2.72779">
        <ele>115.6</ele>
        <time>2015-12-06T15:15:39.000Z</time>
      </trkpt>
      <trkpt lat="47.71721" lon="-2.72782">
        <ele>115.7</ele>
        <time>2015-12-06T15:15:40.000Z</time>
      </trkpt>
      <trkpt lat="47.71725" lon="-2.72786">
        <ele>115.9</ele>
        <time>2015-12-06T15:15:41.000Z</time>
      </trkpt>
      <trkpt lat="47.71728" lon="-2.72789">
        <ele>116</ele>
        <time>2015-12-06T15:15:42.000Z</time>
      </trkpt>
      <trkpt lat="47.71732" lon="-2.72791">
        <ele>116.2</ele>
        <time>2015-12-06T15:15:43.000Z</time>
      </trkpt>
      <trkpt lat="47.71735" lon="-2.72794">
        <ele>116.6</ele>
        <time>2015-12-06T15:15:44.000Z</time>
      </trkpt>
      <trkpt lat="47.71738" lon="-2.72798">
        <ele>116.9</ele>
        <time>2015-12-06T15:15:45.000Z</time>
      </trkpt>
      <trkpt lat="47.7174" lon="-2.72801">
        <ele>117.2</ele>
        <time>2015-12-06T15:15:46.000Z</time>
      </trkpt>
      <trkpt lat="47.71742" lon="-2.72805">
        <ele>117.3</ele>
        <time>2015-12-06T15:15:47.000Z</time>
      </trkpt>
      <trkpt lat="47.71742" lon="-2.72809">
        <ele>117.4</ele>
        <time>2015-12-06T15:15:48.000Z</time>
      </trkpt>
      <trkpt lat="47.71741" lon="-2.72813">
        <ele>117.3</ele>
        <time>2015-12-06T15:15:49.000Z</time>
      </trkpt>
      <trkpt lat="47.7174" lon="-2.72816">
        <ele>117.2</ele>
        <time>2015-12-06T15:15:50.000Z</time>
      </trkpt>
      <trkpt lat="47.71738" lon="-2.72821">
        <ele>117.1</ele>
        <time>2015-12-06T15:15:51.000Z</time>
      </trkpt>
      <trkpt lat="47.71736" lon="-2.72825">
        <ele>116.9</ele>
        <time>2015-12-06T15:15:52.000Z</time>
      </trkpt>
      <trkpt lat="47.71734" lon="-2.72829">
        <ele>116.7</ele>
        <time>2015-12-06T15:15:53.000Z</time>
      </trkpt>
      <trkpt lat="47.71732" lon="-2.72833">
        <ele>116.5</ele>
        <time>2015-12-06T15:15:54.000Z</time>
      </trkpt>
      <trkpt lat="47.71729" lon="-2.72837">
        <ele>116.3</ele>
        <time>2015-12-06T15:15:55.000Z</time>
      </trkpt>
      <trkpt lat="47.71727" lon="-2.72838">
        <ele>116</ele>
        <time>2015-12-06T15:15:56.000Z</time>
      </trkpt>
      <trkpt lat="47.71724" lon="-2.72838">
        <ele>115.7</ele>
        <time>2015-12-06T15:15:57.000Z</time>
      </trkpt>
      <trkpt lat="47.7172" lon="-2.72837">
        <ele>115.3</ele>
        <time>2015-12-06T15:15:58.000Z</time>
      </trkpt>
      <trkpt lat="47.71716" lon="-2.72836">
        <ele>114.8</ele>
        <time>2015-12-06T15:15:59.000Z</time>
      </trkpt>
      <trkpt lat="47.71711" lon="-2.72836">
        <ele>114.3</ele>
        <time>2015-12-06T15:16:00.000Z</time>
      </trkpt>
      <trkpt lat="47.71706" lon="-2.72835">
        <ele>113.7</ele>
        <time>2015-12-06T15:16:01.000Z</time>
      </trkpt>
      <trkpt lat="47.71701" lon="-2.72836">
        <ele>113.1</ele>
        <time>2015-12-06T15:16:02.000Z</time>
      </trkpt>
      <trkpt lat="47.71696" lon="-2.72838">
        <ele>112.5</ele>
        <time>2015-12-06T15:16:03.000Z</time>
      </trkpt>
      <trkpt lat="47.7169" lon="-2.7284">
        <ele>111.7</ele>
        <time>2015-12-06T15:16:04.000Z</time>
      </trkpt>
      <trkpt lat="47.71684" lon="-2.72842">
        <ele>110.9</ele>
        <time>2015-12-06T15:16:05.000Z</time>
      </trkpt>
      <trkpt lat="47.71678" lon="-2.72844">
        <ele>110.1</ele>
        <time>2015-12-06T15:16:06.000Z</time>
      </trkpt>
      <trkpt lat="47.71672" lon="-2.72845">
        <ele>109.4</ele>
        <time>2015-12-06T15:16:07.000Z</time>
      </trkpt>
      <trkpt lat="47.71666" lon="-2.72848">
        <ele>108.6</ele>
        <time>2015-12-06T15:16:08.000Z</time>
      </trkpt>
      <trkpt lat="47.71661" lon="-2.72851">
        <ele>107.9</ele>
        <time>2015-12-06T15:16:09.000Z</time>
      </trkpt>
      <trkpt lat="47.71657" lon="-2.72854">
        <ele>107.2</ele>
        <time>2015-12-06T15:16:10.000Z</time>
      </trkpt>
      <trkpt lat="47.71652" lon="-2.72859">
        <ele>106.4</ele>
        <time>2015-12-06T15:16:11.000Z</time>
      </trkpt>
      <trkpt lat="47.71647" lon="-2.72863">
        <ele>105.5</ele>
        <time>2015-12-06T15:16:12.000Z</time>
      </trkpt>
      <trkpt lat="47.71642" lon="-2.72868">
        <ele>104.7</ele>
        <time>2015-12-06T15:16:13.000Z</time>
      </trkpt>
      <trkpt lat="47.71636" lon="-2.72872">
        <ele>103.7</ele>
        <time>2015-12-06T15:16:14.000Z</time>
      </trkpt>
      <trkpt lat="47.7163" lon="-2.72875">
        <ele>102.7</ele>
        <time>2015-12-06T15:16:15.000Z</time>
      </trkpt>
      <trkpt lat="47.71623" lon="-2.72876">
        <ele>101.8</ele>
        <time>2015-12-06T15:16:16.000Z</time>
      </trkpt>
      <trkpt lat="47.71616" lon="-2.72878">
        <ele>101.2</ele>
        <time>2015-12-06T15:16:17.000Z</time>
      </trkpt>
      <trkpt lat="47.7161" lon="-2.72881">
        <ele>100.6</ele>
        <time>2015-12-06T15:16:18.000Z</time>
      </trkpt>
      <trkpt lat="47.71606" lon="-2.72884">
        <ele>100.2</ele>
        <time>2015-12-06T15:16:19.000Z</time>
      </trkpt>
      <trkpt lat="47.71603" lon="-2.72885">
        <ele>100</ele>
        <time>2015-12-06T15:16:20.000Z</time>
      </trkpt>
      <trkpt lat="47.71601" lon="-2.72886">
        <ele>99.8</ele>
        <time>2015-12-06T15:16:21.000Z</time>
      </trkpt>
      <trkpt lat="47.716" lon="-2.72888">
        <ele>99.7</ele>
        <time>2015-12-06T15:16:22.000Z</time>
      </trkpt>
      <trkpt lat="47.71599" lon="-2.7289">
        <ele>99.6</ele>
        <time>2015-12-06T15:16:23.000Z</time>
      </trkpt>
      <trkpt lat="47.71598" lon="-2.72892">
        <ele>99.5</ele>
        <time>2015-12-06T15:16:24.000Z</time>
      </trkpt>
      <trkpt lat="47.71597" lon="-2.72894">
        <ele>99.5</ele>
        <time>2015-12-06T15:16:25.000Z</time>
      </trkpt>
      <trkpt lat="47.71597" lon="-2.72896">
        <ele>99.6</ele>
        <time>2015-12-06T15:16:26.000Z</time>
      </trkpt>
      <trkpt lat="47.71597" lon="-2.72899">
        <ele>99.6</ele>
        <time>2015-12-06T15:16:27.000Z</time>
      </trkpt>
      <trkpt lat="47.71597" lon="-2.72901">
        <ele>99.7</ele>
        <time>2015-12-06T15:16:28.000Z</time>
      </trkpt>
      <trkpt lat="47.71597" lon="-2.72904">
        <ele>99.7</ele>
        <time>2015-12-06T15:16:29.000Z</time>
      </trkpt>
      <trkpt lat="47.71597" lon="-2.72906">
        <ele>99.8</ele>
        <time>2015-12-06T15:16:30.000Z</time>
      </trkpt>
      <trkpt lat="47.71597" lon="-2.72908">
        <ele>99.9</ele>
        <time>2015-12-06T15:16:31.000Z</time>
      </trkpt>
      <trkpt lat="47.71597" lon="-2.72911">
        <ele>100</ele>
        <time>2015-12-06T15:16:32.000Z</time>
      </trkpt>
      <trkpt lat="47.71597" lon="-2.72914">
        <ele>100.1</ele>
        <time>2015-12-06T15:16:33.000Z</time>
      </trkpt>
      <trkpt lat="47.71597" lon="-2.72916">
        <ele>100.1</ele>
        <time>2015-12-06T15:16:34.000Z</time>
      </trkpt>
      <trkpt lat="47.71596" lon="-2.72919">
        <ele>100.1</ele>
        <time>2015-12-06T15:16:35.000Z</time>
      </trkpt>
      <trkpt lat="47.71596" lon="-2.72922">
        <ele>100.2</ele>
        <time>2015-12-06T15:16:36.000Z</time>
      </trkpt>
      <trkpt lat="47.71596" lon="-2.72924">
        <ele>100.3</ele>
        <time>2015-12-06T15:16:37.000Z</time>
      </trkpt>
      <trkpt lat="47.71596" lon="-2.72927">
        <ele>100.3</ele>
        <time>2015-12-06T15:16:38.000Z</time>
      </trkpt>
      <trkpt lat="47.71596" lon="-2.72929">
        <ele>100.4</ele>
        <time>2015-12-06T15:16:39.000Z</time>
      </trkpt>
      <trkpt lat="47.71596" lon="-2.72932">
        <ele>100.4</ele>
        <time>2015-12-06T15:16:40.000Z</time>
      </trkpt>
      <trkpt lat="47.71596" lon="-2.72935">
        <ele>100.5</ele>
        <time>2015-12-06T15:16:41.000Z</time>
      </trkpt>
      <trkpt lat="47.71596" lon="-2.72938">
        <ele>100.6</ele>
        <time>2015-12-06T15:16:42.000Z</time>
      </trkpt>
      <trkpt lat="47.71596" lon="-2.72941">
        <ele>100.7</ele>
        <time>2015-12-06T15:16:43.000Z</time>
      </trkpt>
      <trkpt lat="47.71597" lon="-2.72944">
        <ele>100.8</ele>
        <time>2015-12-06T15:16:44.000Z</time>
      </trkpt>
      <trkpt lat="47.71596" lon="-2.72947">
        <ele>100.9</ele>
        <time>2015-12-06T15:16:45.000Z</time>
      </trkpt>
      <trkpt lat="47.71596" lon="-2.72951">
        <ele>100.9</ele>
        <time>2015-12-06T15:16:46.000Z</time>
      </trkpt>
      <trkpt lat="47.71595" lon="-2.72955">
        <ele>100.9</ele>
        <time>2015-12-06T15:16:47.000Z</time>
      </trkpt>
      <trkpt lat="47.71595" lon="-2.72958">
        <ele>100.9</ele>
        <time>2015-12-06T15:16:48.000Z</time>
      </trkpt>
      <trkpt lat="47.71594" lon="-2.72962">
        <ele>100.8</ele>
        <time>2015-12-06T15:16:49.000Z</time>
      </trkpt>
      <trkpt lat="47.71594" lon="-2.72966">
        <ele>100.6</ele>
        <time>2015-12-06T15:16:50.000Z</time>
      </trkpt>
      <trkpt lat="47.71594" lon="-2.7297">
        <ele>100.6</ele>
        <time>2015-12-06T15:16:51.000Z</time>
      </trkpt>
      <trkpt lat="47.71594" lon="-2.72975">
        <ele>100.5</ele>
        <time>2015-12-06T15:16:52.000Z</time>
      </trkpt>
      <trkpt lat="47.71593" lon="-2.72979">
        <ele>100.4</ele>
        <time>2015-12-06T15:16:53.000Z</time>
      </trkpt>
      <trkpt lat="47.71593" lon="-2.72984">
        <ele>100.2</ele>
        <time>2015-12-06T15:16:54.000Z</time>
      </trkpt>
      <trkpt lat="47.71591" lon="-2.72987">
        <ele>100</ele>
        <time>2015-12-06T15:16:55.000Z</time>
      </trkpt>
      <trkpt lat="47.7159" lon="-2.72991">
        <ele>99.7</ele>
        <time>2015-12-06T15:16:56.000Z</time>
      </trkpt>
      <trkpt lat="47.71588" lon="-2.72995">
        <ele>99.3</ele>
        <time>2015-12-06T15:16:57.000Z</time>
      </trkpt>
      <trkpt lat="47.71586" lon="-2.72997">
        <ele>99</ele>
        <time>2015-12-06T15:16:58.000Z</time>
      </trkpt>
      <trkpt lat="47.71584" lon="-2.72999">
        <ele>98.6</ele>
        <time>2015-12-06T15:16:59.000Z</time>
      </trkpt>
      <trkpt lat="47.71582" lon="-2.73001">
        <ele>98.2</ele>
        <time>2015-12-06T15:17:00.000Z</time>
      </trkpt>
      <trkpt lat="47.71579" lon="-2.73003">
        <ele>97.8</ele>
        <time>2015-12-06T15:17:01.000Z</time>
      </trkpt>
      <trkpt lat="47.71576" lon="-2.73005">
        <ele>97.3</ele>
        <time>2015-12-06T15:17:02.000Z</time>
      </trkpt>
      <trkpt lat="47.71574" lon="-2.73008">
        <ele>96.8</ele>
        <time>2015-12-06T15:17:03.000Z</time>
      </trkpt>
      <trkpt lat="47.71572" lon="-2.73012">
        <ele>96.5</ele>
        <time>2015-12-06T15:17:04.000Z</time>
      </trkpt>
      <trkpt lat="47.71571" lon="-2.73016">
        <ele>96.2</ele>
        <time>2015-12-06T15:17:05.000Z</time>
      </trkpt>
      <trkpt lat="47.7157" lon="-2.73019">
        <ele>96</ele>
        <time>2015-12-06T15:17:06.000Z</time>
      </trkpt>
      <trkpt lat="47.71569" lon="-2.73023">
        <ele>95.8</ele>
        <time>2015-12-06T15:17:07.000Z</time>
      </trkpt>
      <trkpt lat="47.71568" lon="-2.73027">
        <ele>95.6</ele>
        <time>2015-12-06T15:17:08.000Z</time>
      </trkpt>
      <trkpt lat="47.71568" lon="-2.73031">
        <ele>95.6</ele>
        <time>2015-12-06T15:17:09.000Z</time>
      </trkpt>
      <trkpt lat="47.71568" lon="-2.73036">
        <ele>95.5</ele>
        <time>2015-12-06T15:17:10.000Z</time>
      </trkpt>
      <trkpt lat="47.71568" lon="-2.73041">
        <ele>95.3</ele>
        <time>2015-12-06T15:17:11.000Z</time>
      </trkpt>
      <trkpt lat="47.71566" lon="-2.73046">
        <ele>95.2</ele>
        <time>2015-12-06T15:17:12.000Z</time>
      </trkpt>
      <trkpt lat="47.71566" lon="-2.73049">
        <ele>95.1</ele>
        <time>2015-12-06T15:17:13.000Z</time>
      </trkpt>
      <trkpt lat="47.71565" lon="-2.73053">
        <ele>95</ele>
        <time>2015-12-06T15:17:14.000Z</time>
      </trkpt>
      <trkpt lat="47.71565" lon="-2.73058">
        <ele>95</ele>
        <time>2015-12-06T15:17:15.000Z</time>
      </trkpt>
      <trkpt lat="47.71565" lon="-2.73062">
        <ele>95</ele>
        <time>2015-12-06T15:17:16.000Z</time>
      </trkpt>
      <trkpt lat="47.71565" lon="-2.73065">
        <ele>95.1</ele>
        <time>2015-12-06T15:17:17.000Z</time>
      </trkpt>
      <trkpt lat="47.71566" lon="-2.73069">
        <ele>95.1</ele>
        <time>2015-12-06T15:17:18.000Z</time>
      </trkpt>
      <trkpt lat="47.71567" lon="-2.73074">
        <ele>95.3</ele>
        <time>2015-12-06T15:17:19.000Z</time>
      </trkpt>
      <trkpt lat="47.71567" lon="-2.73079">
        <ele>95.4</ele>
        <time>2015-12-06T15:17:20.000Z</time>
      </trkpt>
      <trkpt lat="47.71568" lon="-2.73084">
        <ele>95.5</ele>
        <time>2015-12-06T15:17:21.000Z</time>
      </trkpt>
      <trkpt lat="47.71569" lon="-2.73089">
        <ele>95.6</ele>
        <time>2015-12-06T15:17:22.000Z</time>
      </trkpt>
      <trkpt lat="47.71568" lon="-2.73095">
        <ele>95.5</ele>
        <time>2015-12-06T15:17:23.000Z</time>
      </trkpt>
      <trkpt lat="47.71568" lon="-2.731">
        <ele>95.5</ele>
        <time>2015-12-06T15:17:24.000Z</time>
      </trkpt>
      <trkpt lat="47.71568" lon="-2.73105">
        <ele>95.5</ele>
        <time>2015-12-06T15:17:25.000Z</time>
      </trkpt>
      <trkpt lat="47.71569" lon="-2.73109">
        <ele>95.6</ele>
        <time>2015-12-06T15:17:26.000Z</time>
      </trkpt>
      <trkpt lat="47.7157" lon="-2.73114">
        <ele>95.7</ele>
        <time>2015-12-06T15:17:27.000Z</time>
      </trkpt>
      <trkpt lat="47.71571" lon="-2.73119">
        <ele>95.8</ele>
        <time>2015-12-06T15:17:28.000Z</time>
      </trkpt>
      <trkpt lat="47.71572" lon="-2.73124">
        <ele>95.9</ele>
        <time>2015-12-06T15:17:29.000Z</time>
      </trkpt>
      <trkpt lat="47.71573" lon="-2.73128">
        <ele>96.1</ele>
        <time>2015-12-06T15:17:30.000Z</time>
      </trkpt>
      <trkpt lat="47.71574" lon="-2.73133">
        <ele>96.3</ele>
        <time>2015-12-06T15:17:31.000Z</time>
      </trkpt>
      <trkpt lat="47.71574" lon="-2.73137">
        <ele>96.5</ele>
        <time>2015-12-06T15:17:32.000Z</time>
      </trkpt>
      <trkpt lat="47.71575" lon="-2.73141">
        <ele>96.6</ele>
        <time>2015-12-06T15:17:33.000Z</time>
      </trkpt>
      <trkpt lat="47.71576" lon="-2.73144">
        <ele>96.8</ele>
        <time>2015-12-06T15:17:34.000Z</time>
      </trkpt>
      <trkpt lat="47.71576" lon="-2.73148">
        <ele>96.9</ele>
        <time>2015-12-06T15:17:35.000Z</time>
      </trkpt>
      <trkpt lat="47.71578" lon="-2.73153">
        <ele>97.1</ele>
        <time>2015-12-06T15:17:36.000Z</time>
      </trkpt>
      <trkpt lat="47.71579" lon="-2.73158">
        <ele>97.3</ele>
        <time>2015-12-06T15:17:37.000Z</time>
      </trkpt>
      <trkpt lat="47.7158" lon="-2.73164">
        <ele>97.5</ele>
        <time>2015-12-06T15:17:38.000Z</time>
      </trkpt>
      <trkpt lat="47.7158" lon="-2.73169">
        <ele>97.6</ele>
        <time>2015-12-06T15:17:39.000Z</time>
      </trkpt>
      <trkpt lat="47.71581" lon="-2.73174">
        <ele>97.8</ele>
        <time>2015-12-06T15:17:40.000Z</time>
      </trkpt>
      <trkpt lat="47.71582" lon="-2.73178">
        <ele>97.9</ele>
        <time>2015-12-06T15:17:41.000Z</time>
      </trkpt>
      <trkpt lat="47.71583" lon="-2.73184">
        <ele>98.1</ele>
        <time>2015-12-06T15:17:42.000Z</time>
      </trkpt>
      <trkpt lat="47.71584" lon="-2.73188">
        <ele>98.2</ele>
        <time>2015-12-06T15:17:43.000Z</time>
      </trkpt>
      <trkpt lat="47.71585" lon="-2.73192">
        <ele>98.3</ele>
        <time>2015-12-06T15:17:44.000Z</time>
      </trkpt>
      <trkpt lat="47.71586" lon="-2.73197">
        <ele>98.4</ele>
        <time>2015-12-06T15:17:45.000Z</time>
      </trkpt>
      <trkpt lat="47.71587" lon="-2.73202">
        <ele>98.5</ele>
        <time>2015-12-06T15:17:46.000Z</time>
      </trkpt>
      <trkpt lat="47.71588" lon="-2.73208">
        <ele>98.6</ele>
        <time>2015-12-06T15:17:47.000Z</time>
      </trkpt>
      <trkpt lat="47.71589" lon="-2.73213">
        <ele>98.6</ele>
        <time>2015-12-06T15:17:48.000Z</time>
      </trkpt>
      <trkpt lat="47.7159" lon="-2.73219">
        <ele>98.5</ele>
        <time>2015-12-06T15:17:49.000Z</time>
      </trkpt>
      <trkpt lat="47.71591" lon="-2.73224">
        <ele>98.5</ele>
        <time>2015-12-06T15:17:50.000Z</time>
      </trkpt>
      <trkpt lat="47.71592" lon="-2.73228">
        <ele>98.5</ele>
        <time>2015-12-06T15:17:51.000Z</time>
      </trkpt>
      <trkpt lat="47.71594" lon="-2.73233">
        <ele>98.5</ele>
        <time>2015-12-06T15:17:52.000Z</time>
      </trkpt>
      <trkpt lat="47.71594" lon="-2.73237">
        <ele>98.5</ele>
        <time>2015-12-06T15:17:53.000Z</time>
      </trkpt>
      <trkpt lat="47.71595" lon="-2.73242">
        <ele>98.4</ele>
        <time>2015-12-06T15:17:54.000Z</time>
      </trkpt>
      <trkpt lat="47.71596" lon="-2.73247">
        <ele>98.4</ele>
        <time>2015-12-06T15:17:55.000Z</time>
      </trkpt>
      <trkpt lat="47.71597" lon="-2.73252">
        <ele>98.3</ele>
        <time>2015-12-06T15:17:56.000Z</time>
      </trkpt>
      <trkpt lat="47.71598" lon="-2.73258">
        <ele>98.3</ele>
        <time>2015-12-06T15:17:57.000Z</time>
      </trkpt>
      <trkpt lat="47.71599" lon="-2.73264">
        <ele>98.2</ele>
        <time>2015-12-06T15:17:58.000Z</time>
      </trkpt>
      <trkpt lat="47.716" lon="-2.7327">
        <ele>98.1</ele>
        <time>2015-12-06T15:17:59.000Z</time>
      </trkpt>
      <trkpt lat="47.716" lon="-2.73276">
        <ele>98</ele>
        <time>2015-12-06T15:18:00.000Z</time>
      </trkpt>
      <trkpt lat="47.71602" lon="-2.7328">
        <ele>98</ele>
        <time>2015-12-06T15:18:01.000Z</time>
      </trkpt>
      <trkpt lat="47.71604" lon="-2.73283">
        <ele>97.9</ele>
        <time>2015-12-06T15:18:02.000Z</time>
      </trkpt>
      <trkpt lat="47.71608" lon="-2.73284">
        <ele>97.7</ele>
        <time>2015-12-06T15:18:03.000Z</time>
      </trkpt>
      <trkpt lat="47.7161" lon="-2.73285">
        <ele>97.6</ele>
        <time>2015-12-06T15:18:04.000Z</time>
      </trkpt>
      <trkpt lat="47.71613" lon="-2.73286">
        <ele>97.5</ele>
        <time>2015-12-06T15:18:05.000Z</time>
      </trkpt>
      <trkpt lat="47.71615" lon="-2.73287">
        <ele>97.4</ele>
        <time>2015-12-06T15:18:06.000Z</time>
      </trkpt>
      <trkpt lat="47.71617" lon="-2.73288">
        <ele>97.4</ele>
        <time>2015-12-06T15:18:07.000Z</time>
      </trkpt>
      <trkpt lat="47.71619" lon="-2.73289">
        <ele>97.3</ele>
        <time>2015-12-06T15:18:08.000Z</time>
      </trkpt>
      <trkpt lat="47.71621" lon="-2.7329">
        <ele>97.2</ele>
        <time>2015-12-06T15:18:09.000Z</time>
      </trkpt>
      <trkpt lat="47.71623" lon="-2.73291">
        <ele>97.1</ele>
        <time>2015-12-06T15:18:10.000Z</time>
      </trkpt>
      <trkpt lat="47.71625" lon="-2.73291">
        <ele>97</ele>
        <time>2015-12-06T15:18:11.000Z</time>
      </trkpt>
      <trkpt lat="47.71627" lon="-2.73291">
        <ele>97.1</ele>
        <time>2015-12-06T15:18:12.000Z</time>
      </trkpt>
      <trkpt lat="47.71627" lon="-2.73291">
        <ele>97.2</ele>
        <time>2015-12-06T15:18:13.000Z</time>
      </trkpt>
      <trkpt lat="47.71628" lon="-2.7329">
        <ele>97.2</ele>
        <time>2015-12-06T15:18:14.000Z</time>
      </trkpt>
      <trkpt lat="47.71629" lon="-2.73289">
        <ele>97.3</ele>
        <time>2015-12-06T15:18:15.000Z</time>
      </trkpt>
      <trkpt lat="47.7163" lon="-2.73288">
        <ele>97.4</ele>
        <time>2015-12-06T15:18:16.000Z</time>
      </trkpt>
      <trkpt lat="47.7163" lon="-2.73287">
        <ele>97.4</ele>
        <time>2015-12-06T15:18:17.000Z</time>
      </trkpt>
      <trkpt lat="47.71631" lon="-2.73286">
        <ele>97.5</ele>
        <time>2015-12-06T15:18:18.000Z</time>
      </trkpt>
      <trkpt lat="47.71632" lon="-2.73285">
        <ele>97.6</ele>
        <time>2015-12-06T15:18:19.000Z</time>
      </trkpt>
      <trkpt lat="47.71633" lon="-2.73284">
        <ele>97.7</ele>
        <time>2015-12-06T15:18:20.000Z</time>
      </trkpt>
      <trkpt lat="47.71634" lon="-2.73283">
        <ele>97.8</ele>
        <time>2015-12-06T15:18:21.000Z</time>
      </trkpt>
      <trkpt lat="47.71635" lon="-2.73282">
        <ele>97.9</ele>
        <time>2015-12-06T15:18:22.000Z</time>
      </trkpt>
      <trkpt lat="47.71635" lon="-2.7328">
        <ele>97.9</ele>
        <time>2015-12-06T15:18:23.000Z</time>
      </trkpt>
      <trkpt lat="47.71636" lon="-2.73279">
        <ele>98</ele>
        <time>2015-12-06T15:18:24.000Z</time>
      </trkpt>
      <trkpt lat="47.71636" lon="-2.73277">
        <ele>98.1</ele>
        <time>2015-12-06T15:18:25.000Z</time>
      </trkpt>
      <trkpt lat="47.71637" lon="-2.73275">
        <ele>98.2</ele>
        <time>2015-12-06T15:18:26.000Z</time>
      </trkpt>
      <trkpt lat="47.71638" lon="-2.73273">
        <ele>98.3</ele>
        <time>2015-12-06T15:18:27.000Z</time>
      </trkpt>
      <trkpt lat="47.71639" lon="-2.73272">
        <ele>98.5</ele>
        <time>2015-12-06T15:18:28.000Z</time>
      </trkpt>
      <trkpt lat="47.7164" lon="-2.7327">
        <ele>98.6</ele>
        <time>2015-12-06T15:18:29.000Z</time>
      </trkpt>
      <trkpt lat="47.7164" lon="-2.73268">
        <ele>98.7</ele>
        <time>2015-12-06T15:18:30.000Z</time>
      </trkpt>
      <trkpt lat="47.71641" lon="-2.73266">
        <ele>98.8</ele>
        <time>2015-12-06T15:18:31.000Z</time>
      </trkpt>
      <trkpt lat="47.71641" lon="-2.73264">
        <ele>98.9</ele>
        <time>2015-12-06T15:18:32.000Z</time>
      </trkpt>
      <trkpt lat="47.71642" lon="-2.73262">
        <ele>99</ele>
        <time>2015-12-06T15:18:33.000Z</time>
      </trkpt>
      <trkpt lat="47.71642" lon="-2.73259">
        <ele>99.1</ele>
        <time>2015-12-06T15:18:34.000Z</time>
      </trkpt>
      <trkpt lat="47.71643" lon="-2.73257">
        <ele>99.3</ele>
        <time>2015-12-06T15:18:35.000Z</time>
      </trkpt>
      <trkpt lat="47.71644" lon="-2.73255">
        <ele>99.4</ele>
        <time>2015-12-06T15:18:36.000Z</time>
      </trkpt>
      <trkpt lat="47.71644" lon="-2.73253">
        <ele>99.5</ele>
        <time>2015-12-06T15:18:37.000Z</time>
      </trkpt>
      <trkpt lat="47.71644" lon="-2.73251">
        <ele>99.6</ele>
        <time>2015-12-06T15:18:38.000Z</time>
      </trkpt>
      <trkpt lat="47.71644" lon="-2.73249">
        <ele>99.6</ele>
        <time>2015-12-06T15:18:39.000Z</time>
      </trkpt>
      <trkpt lat="47.71644" lon="-2.73246">
        <ele>99.7</ele>
        <time>2015-12-06T15:18:40.000Z</time>
      </trkpt>
      <trkpt lat="47.71644" lon="-2.73243">
        <ele>99.8</ele>
        <time>2015-12-06T15:18:41.000Z</time>
      </trkpt>
      <trkpt lat="47.71645" lon="-2.73241">
        <ele>100</ele>
        <time>2015-12-06T15:18:42.000Z</time>
      </trkpt>
      <trkpt lat="47.71645" lon="-2.73239">
        <ele>100.1</ele>
        <time>2015-12-06T15:18:43.000Z</time>
      </trkpt>
      <trkpt lat="47.71646" lon="-2.73237">
        <ele>100.2</ele>
        <time>2015-12-06T15:18:44.000Z</time>
      </trkpt>
      <trkpt lat="47.71647" lon="-2.73236">
        <ele>100.4</ele>
        <time>2015-12-06T15:18:45.000Z</time>
      </trkpt>
      <trkpt lat="47.71648" lon="-2.73234">
        <ele>100.5</ele>
        <time>2015-12-06T15:18:46.000Z</time>
      </trkpt>
      <trkpt lat="47.71649" lon="-2.73234">
        <ele>100.6</ele>
        <time>2015-12-06T15:18:47.000Z</time>
      </trkpt>
      <trkpt lat="47.7165" lon="-2.73233">
        <ele>100.8</ele>
        <time>2015-12-06T15:18:48.000Z</time>
      </trkpt>
      <trkpt lat="47.71651" lon="-2.73231">
        <ele>101</ele>
        <time>2015-12-06T15:18:49.000Z</time>
      </trkpt>
      <trkpt lat="47.71652" lon="-2.7323">
        <ele>101.1</ele>
        <time>2015-12-06T15:18:50.000Z</time>
      </trkpt>
      <trkpt lat="47.71653" lon="-2.73228">
        <ele>101.2</ele>
        <time>2015-12-06T15:18:51.000Z</time>
      </trkpt>
      <trkpt lat="47.71654" lon="-2.73227">
        <ele>101.3</ele>
        <time>2015-12-06T15:18:52.000Z</time>
      </trkpt>
      <trkpt lat="47.71654" lon="-2.73226">
        <ele>101.4</ele>
        <time>2015-12-06T15:18:53.000Z</time>
      </trkpt>
      <trkpt lat="47.71655" lon="-2.73224">
        <ele>101.5</ele>
        <time>2015-12-06T15:18:54.000Z</time>
      </trkpt>
      <trkpt lat="47.71655" lon="-2.73223">
        <ele>101.6</ele>
        <time>2015-12-06T15:18:55.000Z</time>
      </trkpt>
      <trkpt lat="47.71656" lon="-2.73221">
        <ele>101.8</ele>
        <time>2015-12-06T15:18:56.000Z</time>
      </trkpt>
      <trkpt lat="47.71656" lon="-2.7322">
        <ele>101.9</ele>
        <time>2015-12-06T15:18:57.000Z</time>
      </trkpt>
      <trkpt lat="47.71657" lon="-2.73219">
        <ele>102</ele>
        <time>2015-12-06T15:18:58.000Z</time>
      </trkpt>
      <trkpt lat="47.71658" lon="-2.73218">
        <ele>102.1</ele>
        <time>2015-12-06T15:18:59.000Z</time>
      </trkpt>
      <trkpt lat="47.71659" lon="-2.73217">
        <ele>102.3</ele>
        <time>2015-12-06T15:19:00.000Z</time>
      </trkpt>
      <trkpt lat="47.7166" lon="-2.73216">
        <ele>102.4</ele>
        <time>2015-12-06T15:19:01.000Z</time>
      </trkpt>
      <trkpt lat="47.71661" lon="-2.73216">
        <ele>102.5</ele>
        <time>2015-12-06T15:19:02.000Z</time>
      </trkpt>
      <trkpt lat="47.71662" lon="-2.73216">
        <ele>102.6</ele>
        <time>2015-12-06T15:19:03.000Z</time>
      </trkpt>
      <trkpt lat="47.71663" lon="-2.73216">
        <ele>102.7</ele>
        <time>2015-12-06T15:19:04.000Z</time>
      </trkpt>
      <trkpt lat="47.71664" lon="-2.73216">
        <ele>102.9</ele>
        <time>2015-12-06T15:19:05.000Z</time>
      </trkpt>
      <trkpt lat="47.71665" lon="-2.73215">
        <ele>103</ele>
        <time>2015-12-06T15:19:06.000Z</time>
      </trkpt>
      <trkpt lat="47.71667" lon="-2.73214">
        <ele>103.2</ele>
        <time>2015-12-06T15:19:07.000Z</time>
      </trkpt>
      <trkpt lat="47.71668" lon="-2.73212">
        <ele>103.4</ele>
        <time>2015-12-06T15:19:08.000Z</time>
      </trkpt>
      <trkpt lat="47.71669" lon="-2.73211">
        <ele>103.7</ele>
        <time>2015-12-06T15:19:09.000Z</time>
      </trkpt>
      <trkpt lat="47.71671" lon="-2.73209">
        <ele>103.9</ele>
        <time>2015-12-06T15:19:10.000Z</time>
      </trkpt>
      <trkpt lat="47.71672" lon="-2.73208">
        <ele>104.1</ele>
        <time>2015-12-06T15:19:11.000Z</time>
      </trkpt>
      <trkpt lat="47.71673" lon="-2.73206">
        <ele>104.3</ele>
        <time>2015-12-06T15:19:12.000Z</time>
      </trkpt>
      <trkpt lat="47.71674" lon="-2.73205">
        <ele>104.5</ele>
        <time>2015-12-06T15:19:13.000Z</time>
      </trkpt>
      <trkpt lat="47.71675" lon="-2.73204">
        <ele>104.7</ele>
        <time>2015-12-06T15:19:14.000Z</time>
      </trkpt>
      <trkpt lat="47.71676" lon="-2.73202">
        <ele>104.8</ele>
        <time>2015-12-06T15:19:15.000Z</time>
      </trkpt>
      <trkpt lat="47.71676" lon="-2.73201">
        <ele>105</ele>
        <time>2015-12-06T15:19:16.000Z</time>
      </trkpt>
      <trkpt lat="47.71677" lon="-2.73199">
        <ele>105.2</ele>
        <time>2015-12-06T15:19:17.000Z</time>
      </trkpt>
      <trkpt lat="47.71678" lon="-2.73197">
        <ele>105.4</ele>
        <time>2015-12-06T15:19:18.000Z</time>
      </trkpt>
      <trkpt lat="47.71679" lon="-2.73195">
        <ele>105.6</ele>
        <time>2015-12-06T15:19:19.000Z</time>
      </trkpt>
      <trkpt lat="47.7168" lon="-2.73194">
        <ele>105.9</ele>
        <time>2015-12-06T15:19:20.000Z</time>
      </trkpt>
      <trkpt lat="47.71681" lon="-2.73192">
        <ele>106.2</ele>
        <time>2015-12-06T15:19:21.000Z</time>
      </trkpt>
      <trkpt lat="47.71682" lon="-2.73191">
        <ele>106.3</ele>
        <time>2015-12-06T15:19:22.000Z</time>
      </trkpt>
      <trkpt lat="47.71683" lon="-2.7319">
        <ele>106.5</ele>
        <time>2015-12-06T15:19:23.000Z</time>
      </trkpt>
      <trkpt lat="47.71684" lon="-2.73189">
        <ele>106.6</ele>
        <time>2015-12-06T15:19:24.000Z</time>
      </trkpt>
      <trkpt lat="47.71685" lon="-2.73189">
        <ele>106.7</ele>
        <time>2015-12-06T15:19:25.000Z</time>
      </trkpt>
      <trkpt lat="47.71686" lon="-2.73189">
        <ele>106.9</ele>
        <time>2015-12-06T15:19:26.000Z</time>
      </trkpt>
      <trkpt lat="47.71686" lon="-2.73189">
        <ele>106.9</ele>
        <time>2015-12-06T15:19:27.000Z</time>
      </trkpt>
      <trkpt lat="47.71687" lon="-2.7319">
        <ele>107</ele>
        <time>2015-12-06T15:19:28.000Z</time>
      </trkpt>
      <trkpt lat="47.71688" lon="-2.73191">
        <ele>107</ele>
        <time>2015-12-06T15:19:29.000Z</time>
      </trkpt>
      <trkpt lat="47.71689" lon="-2.73193">
        <ele>106.9</ele>
        <time>2015-12-06T15:19:30.000Z</time>
      </trkpt>
      <trkpt lat="47.7169" lon="-2.73194">
        <ele>107</ele>
        <time>2015-12-06T15:19:31.000Z</time>
      </trkpt>
      <trkpt lat="47.71691" lon="-2.73195">
        <ele>107.1</ele>
        <time>2015-12-06T15:19:32.000Z</time>
      </trkpt>
      <trkpt lat="47.71693" lon="-2.73195">
        <ele>107.2</ele>
        <time>2015-12-06T15:19:33.000Z</time>
      </trkpt>
      <trkpt lat="47.71694" lon="-2.73196">
        <ele>107.4</ele>
        <time>2015-12-06T15:19:34.000Z</time>
      </trkpt>
      <trkpt lat="47.71695" lon="-2.73196">
        <ele>107.5</ele>
        <time>2015-12-06T15:19:35.000Z</time>
      </trkpt>
      <trkpt lat="47.71697" lon="-2.73196">
        <ele>107.7</ele>
        <time>2015-12-06T15:19:36.000Z</time>
      </trkpt>
      <trkpt lat="47.71699" lon="-2.73195">
        <ele>107.9</ele>
        <time>2015-12-06T15:19:37.000Z</time>
      </trkpt>
      <trkpt lat="47.717" lon="-2.73195">
        <ele>108.2</ele>
        <time>2015-12-06T15:19:38.000Z</time>
      </trkpt>
      <trkpt lat="47.71703" lon="-2.73194">
        <ele>108.5</ele>
        <time>2015-12-06T15:19:39.000Z</time>
      </trkpt>
      <trkpt lat="47.71705" lon="-2.73193">
        <ele>108.9</ele>
        <time>2015-12-06T15:19:40.000Z</time>
      </trkpt>
      <trkpt lat="47.71707" lon="-2.73193">
        <ele>109.1</ele>
        <time>2015-12-06T15:19:41.000Z</time>
      </trkpt>
      <trkpt lat="47.71708" lon="-2.73192">
        <ele>109.3</ele>
        <time>2015-12-06T15:19:42.000Z</time>
      </trkpt>
      <trkpt lat="47.71709" lon="-2.73193">
        <ele>109.4</ele>
        <time>2015-12-06T15:19:43.000Z</time>
      </trkpt>
      <trkpt lat="47.7171" lon="-2.73194">
        <ele>109.5</ele>
        <time>2015-12-06T15:19:44.000Z</time>
      </trkpt>
      <trkpt lat="47.71711" lon="-2.73194">
        <ele>109.5</ele>
        <time>2015-12-06T15:19:45.000Z</time>
      </trkpt>
      <trkpt lat="47.71712" lon="-2.73195">
        <ele>109.6</ele>
        <time>2015-12-06T15:19:46.000Z</time>
      </trkpt>
      <trkpt lat="47.71712" lon="-2.73195">
        <ele>109.6</ele>
        <time>2015-12-06T15:19:47.000Z</time>
      </trkpt>
      <trkpt lat="47.71713" lon="-2.73195">
        <ele>109.7</ele>
        <time>2015-12-06T15:19:48.000Z</time>
      </trkpt>
      <trkpt lat="47.71714" lon="-2.73195">
        <ele>109.8</ele>
        <time>2015-12-06T15:19:49.000Z</time>
      </trkpt>
      <trkpt lat="47.71723" lon="-2.73205">
        <ele>110.2</ele>
        <time>2015-12-06T15:19:50.000Z</time>
      </trkpt>
      <trkpt lat="47.71724" lon="-2.73208">
        <ele>110.1</ele>
        <time>2015-12-06T15:19:51.000Z</time>
      </trkpt>
      <trkpt lat="47.71726" lon="-2.73212">
        <ele>110.1</ele>
        <time>2015-12-06T15:19:52.000Z</time>
      </trkpt>
      <trkpt lat="47.71727" lon="-2.73215">
        <ele>110</ele>
        <time>2015-12-06T15:19:53.000Z</time>
      </trkpt>
      <trkpt lat="47.71728" lon="-2.73218">
        <ele>109.9</ele>
        <time>2015-12-06T15:19:54.000Z</time>
      </trkpt>
      <trkpt lat="47.71729" lon="-2.73222">
        <ele>109.9</ele>
        <time>2015-12-06T15:19:55.000Z</time>
      </trkpt>
      <trkpt lat="47.7173" lon="-2.73226">
        <ele>109.8</ele>
        <time>2015-12-06T15:19:56.000Z</time>
      </trkpt>
      <trkpt lat="47.71732" lon="-2.73229">
        <ele>109.8</ele>
        <time>2015-12-06T15:19:57.000Z</time>
      </trkpt>
      <trkpt lat="47.71733" lon="-2.73233">
        <ele>109.8</ele>
        <time>2015-12-06T15:19:58.000Z</time>
      </trkpt>
      <trkpt lat="47.71735" lon="-2.73235">
        <ele>109.9</ele>
        <time>2015-12-06T15:19:59.000Z</time>
      </trkpt>
      <trkpt lat="47.71736" lon="-2.73238">
        <ele>109.9</ele>
        <time>2015-12-06T15:20:00.000Z</time>
      </trkpt>
      <trkpt lat="47.71737" lon="-2.7324">
        <ele>109.9</ele>
        <time>2015-12-06T15:20:01.000Z</time>
      </trkpt>
      <trkpt lat="47.71738" lon="-2.73243">
        <ele>110</ele>
        <time>2015-12-06T15:20:02.000Z</time>
      </trkpt>
      <trkpt lat="47.7174" lon="-2.73245">
        <ele>110</ele>
        <time>2015-12-06T15:20:03.000Z</time>
      </trkpt>
      <trkpt lat="47.71742" lon="-2.73246">
        <ele>110.2</ele>
        <time>2015-12-06T15:20:04.000Z</time>
      </trkpt>
      <trkpt lat="47.71744" lon="-2.73248">
        <ele>110.4</ele>
        <time>2015-12-06T15:20:05.000Z</time>
      </trkpt>
      <trkpt lat="47.71746" lon="-2.73251">
        <ele>110.6</ele>
        <time>2015-12-06T15:20:06.000Z</time>
      </trkpt>
      <trkpt lat="47.71747" lon="-2.73253">
        <ele>110.7</ele>
        <time>2015-12-06T15:20:07.000Z</time>
      </trkpt>
      <trkpt lat="47.71749" lon="-2.73255">
        <ele>110.8</ele>
        <time>2015-12-06T15:20:08.000Z</time>
      </trkpt>
      <trkpt lat="47.7175" lon="-2.73257">
        <ele>111</ele>
        <time>2015-12-06T15:20:09.000Z</time>
      </trkpt>
      <trkpt lat="47.71752" lon="-2.73258">
        <ele>111.1</ele>
        <time>2015-12-06T15:20:10.000Z</time>
      </trkpt>
      <trkpt lat="47.71754" lon="-2.73261">
        <ele>111.3</ele>
        <time>2015-12-06T15:20:11.000Z</time>
      </trkpt>
      <trkpt lat="47.71756" lon="-2.73263">
        <ele>111.5</ele>
        <time>2015-12-06T15:20:12.000Z</time>
      </trkpt>
      <trkpt lat="47.71758" lon="-2.73265">
        <ele>111.7</ele>
        <time>2015-12-06T15:20:13.000Z</time>
      </trkpt>
      <trkpt lat="47.7176" lon="-2.73266">
        <ele>111.9</ele>
        <time>2015-12-06T15:20:14.000Z</time>
      </trkpt>
      <trkpt lat="47.71761" lon="-2.73268">
        <ele>112.1</ele>
        <time>2015-12-06T15:20:15.000Z</time>
      </trkpt>
      <trkpt lat="47.71763" lon="-2.73271">
        <ele>112.2</ele>
        <time>2015-12-06T15:20:16.000Z</time>
      </trkpt>
      <trkpt lat="47.71765" lon="-2.73274">
        <ele>112.3</ele>
        <time>2015-12-06T15:20:17.000Z</time>
      </trkpt>
      <trkpt lat="47.71766" lon="-2.73278">
        <ele>112.3</ele>
        <time>2015-12-06T15:20:18.000Z</time>
      </trkpt>
      <trkpt lat="47.71767" lon="-2.73282">
        <ele>112.3</ele>
        <time>2015-12-06T15:20:19.000Z</time>
      </trkpt>
      <trkpt lat="47.71768" lon="-2.73286">
        <ele>112.2</ele>
        <time>2015-12-06T15:20:20.000Z</time>
      </trkpt>
      <trkpt lat="47.71769" lon="-2.73289">
        <ele>112.3</ele>
        <time>2015-12-06T15:20:21.000Z</time>
      </trkpt>
      <trkpt lat="47.7177" lon="-2.73292">
        <ele>112.3</ele>
        <time>2015-12-06T15:20:22.000Z</time>
      </trkpt>
      <trkpt lat="47.71772" lon="-2.73295">
        <ele>112.4</ele>
        <time>2015-12-06T15:20:23.000Z</time>
      </trkpt>
      <trkpt lat="47.71773" lon="-2.73298">
        <ele>112.4</ele>
        <time>2015-12-06T15:20:24.000Z</time>
      </trkpt>
      <trkpt lat="47.71774" lon="-2.73301">
        <ele>112.5</ele>
        <time>2015-12-06T15:20:25.000Z</time>
      </trkpt>
      <trkpt lat="47.71775" lon="-2.73304">
        <ele>112.4</ele>
        <time>2015-12-06T15:20:26.000Z</time>
      </trkpt>
      <trkpt lat="47.71776" lon="-2.73309">
        <ele>112.3</ele>
        <time>2015-12-06T15:20:27.000Z</time>
      </trkpt>
      <trkpt lat="47.71778" lon="-2.73314">
        <ele>112.2</ele>
        <time>2015-12-06T15:20:28.000Z</time>
      </trkpt>
      <trkpt lat="47.71779" lon="-2.73319">
        <ele>112.1</ele>
        <time>2015-12-06T15:20:29.000Z</time>
      </trkpt>
      <trkpt lat="47.71781" lon="-2.73323">
        <ele>112.2</ele>
        <time>2015-12-06T15:20:30.000Z</time>
      </trkpt>
      <trkpt lat="47.71784" lon="-2.73326">
        <ele>112.3</ele>
        <time>2015-12-06T15:20:31.000Z</time>
      </trkpt>
      <trkpt lat="47.71786" lon="-2.73329">
        <ele>112.5</ele>
        <time>2015-12-06T15:20:32.000Z</time>
      </trkpt>
      <trkpt lat="47.71788" lon="-2.73333">
        <ele>112.5</ele>
        <time>2015-12-06T15:20:33.000Z</time>
      </trkpt>
      <trkpt lat="47.7179" lon="-2.73337">
        <ele>112.6</ele>
        <time>2015-12-06T15:20:34.000Z</time>
      </trkpt>
      <trkpt lat="47.71794" lon="-2.73341">
        <ele>112.6</ele>
        <time>2015-12-06T15:20:35.000Z</time>
      </trkpt>
      <trkpt lat="47.71797" lon="-2.73343">
        <ele>112.7</ele>
        <time>2015-12-06T15:20:36.000Z</time>
      </trkpt>
      <trkpt lat="47.718" lon="-2.73345">
        <ele>112.8</ele>
        <time>2015-12-06T15:20:37.000Z</time>
      </trkpt>
      <trkpt lat="47.71802" lon="-2.73346">
        <ele>112.9</ele>
        <time>2015-12-06T15:20:38.000Z</time>
      </trkpt>
      <trkpt lat="47.71805" lon="-2.73347">
        <ele>113</ele>
        <time>2015-12-06T15:20:39.000Z</time>
      </trkpt>
      <trkpt lat="47.71807" lon="-2.73349">
        <ele>113</ele>
        <time>2015-12-06T15:20:40.000Z</time>
      </trkpt>
      <trkpt lat="47.71809" lon="-2.73351">
        <ele>113</ele>
        <time>2015-12-06T15:20:41.000Z</time>
      </trkpt>
      <trkpt lat="47.71811" lon="-2.73353">
        <ele>113</ele>
        <time>2015-12-06T15:20:42.000Z</time>
      </trkpt>
      <trkpt lat="47.71813" lon="-2.73356">
        <ele>113</ele>
        <time>2015-12-06T15:20:43.000Z</time>
      </trkpt>
      <trkpt lat="47.71815" lon="-2.73358">
        <ele>113</ele>
        <time>2015-12-06T15:20:44.000Z</time>
      </trkpt>
      <trkpt lat="47.71817" lon="-2.73359">
        <ele>113</ele>
        <time>2015-12-06T15:20:45.000Z</time>
      </trkpt>
      <trkpt lat="47.71819" lon="-2.73361">
        <ele>113</ele>
        <time>2015-12-06T15:20:46.000Z</time>
      </trkpt>
      <trkpt lat="47.71821" lon="-2.73362">
        <ele>113.1</ele>
        <time>2015-12-06T15:20:47.000Z</time>
      </trkpt>
      <trkpt lat="47.71824" lon="-2.73363">
        <ele>113.3</ele>
        <time>2015-12-06T15:20:48.000Z</time>
      </trkpt>
      <trkpt lat="47.71826" lon="-2.73363">
        <ele>113.4</ele>
        <time>2015-12-06T15:20:49.000Z</time>
      </trkpt>
      <trkpt lat="47.71828" lon="-2.73364">
        <ele>113.5</ele>
        <time>2015-12-06T15:20:50.000Z</time>
      </trkpt>
      <trkpt lat="47.71831" lon="-2.73365">
        <ele>113.6</ele>
        <time>2015-12-06T15:20:51.000Z</time>
      </trkpt>
      <trkpt lat="47.71832" lon="-2.73365">
        <ele>113.8</ele>
        <time>2015-12-06T15:20:52.000Z</time>
      </trkpt>
      <trkpt lat="47.71834" lon="-2.73364">
        <ele>114</ele>
        <time>2015-12-06T15:20:53.000Z</time>
      </trkpt>
      <trkpt lat="47.71836" lon="-2.73363">
        <ele>114.2</ele>
        <time>2015-12-06T15:20:54.000Z</time>
      </trkpt>
      <trkpt lat="47.71838" lon="-2.73362">
        <ele>114.3</ele>
        <time>2015-12-06T15:20:55.000Z</time>
      </trkpt>
      <trkpt lat="47.71839" lon="-2.73362">
        <ele>114.5</ele>
        <time>2015-12-06T15:20:56.000Z</time>
      </trkpt>
      <trkpt lat="47.71841" lon="-2.73362">
        <ele>114.6</ele>
        <time>2015-12-06T15:20:57.000Z</time>
      </trkpt>
      <trkpt lat="47.71842" lon="-2.73362">
        <ele>114.7</ele>
        <time>2015-12-06T15:20:58.000Z</time>
      </trkpt>
      <trkpt lat="47.71843" lon="-2.73363">
        <ele>114.7</ele>
        <time>2015-12-06T15:20:59.000Z</time>
      </trkpt>
      <trkpt lat="47.71844" lon="-2.73364">
        <ele>114.6</ele>
        <time>2015-12-06T15:21:00.000Z</time>
      </trkpt>
      <trkpt lat="47.71845" lon="-2.73367">
        <ele>114.5</ele>
        <time>2015-12-06T15:21:01.000Z</time>
      </trkpt>
      <trkpt lat="47.71847" lon="-2.7337">
        <ele>114.4</ele>
        <time>2015-12-06T15:21:02.000Z</time>
      </trkpt>
      <trkpt lat="47.7185" lon="-2.73372">
        <ele>114.5</ele>
        <time>2015-12-06T15:21:03.000Z</time>
      </trkpt>
      <trkpt lat="47.71854" lon="-2.73373">
        <ele>114.6</ele>
        <time>2015-12-06T15:21:04.000Z</time>
      </trkpt>
      <trkpt lat="47.71857" lon="-2.73373">
        <ele>114.8</ele>
        <time>2015-12-06T15:21:05.000Z</time>
      </trkpt>
      <trkpt lat="47.71859" lon="-2.73373">
        <ele>115</ele>
        <time>2015-12-06T15:21:06.000Z</time>
      </trkpt>
      <trkpt lat="47.71861" lon="-2.73373">
        <ele>115.2</ele>
        <time>2015-12-06T15:21:07.000Z</time>
      </trkpt>
      <trkpt lat="47.71863" lon="-2.73373">
        <ele>115.3</ele>
        <time>2015-12-06T15:21:08.000Z</time>
      </trkpt>
      <trkpt lat="47.71865" lon="-2.73374">
        <ele>115.4</ele>
        <time>2015-12-06T15:21:09.000Z</time>
      </trkpt>
      <trkpt lat="47.71867" lon="-2.73375">
        <ele>115.4</ele>
        <time>2015-12-06T15:21:10.000Z</time>
      </trkpt>
      <trkpt lat="47.71869" lon="-2.73376">
        <ele>115.5</ele>
        <time>2015-12-06T15:21:11.000Z</time>
      </trkpt>
      <trkpt lat="47.7187" lon="-2.73377">
        <ele>115.6</ele>
        <time>2015-12-06T15:21:12.000Z</time>
      </trkpt>
      <trkpt lat="47.71872" lon="-2.73379">
        <ele>115.7</ele>
        <time>2015-12-06T15:21:13.000Z</time>
      </trkpt>
      <trkpt lat="47.71875" lon="-2.73381">
        <ele>115.8</ele>
        <time>2015-12-06T15:21:14.000Z</time>
      </trkpt>
      <trkpt lat="47.71878" lon="-2.73383">
        <ele>115.8</ele>
        <time>2015-12-06T15:21:15.000Z</time>
      </trkpt>
      <trkpt lat="47.71881" lon="-2.73386">
        <ele>115.9</ele>
        <time>2015-12-06T15:21:16.000Z</time>
      </trkpt>
      <trkpt lat="47.71885" lon="-2.73388">
        <ele>116.1</ele>
        <time>2015-12-06T15:21:17.000Z</time>
      </trkpt>
      <trkpt lat="47.71888" lon="-2.73389">
        <ele>116.2</ele>
        <time>2015-12-06T15:21:18.000Z</time>
      </trkpt>
      <trkpt lat="47.71892" lon="-2.7339">
        <ele>116.4</ele>
        <time>2015-12-06T15:21:19.000Z</time>
      </trkpt>
      <trkpt lat="47.71896" lon="-2.7339">
        <ele>116.7</ele>
        <time>2015-12-06T15:21:20.000Z</time>
      </trkpt>
      <trkpt lat="47.71899" lon="-2.73389">
        <ele>116.9</ele>
        <time>2015-12-06T15:21:21.000Z</time>
      </trkpt>
      <trkpt lat="47.71902" lon="-2.73388">
        <ele>117.1</ele>
        <time>2015-12-06T15:21:22.000Z</time>
      </trkpt>
      <trkpt lat="47.71905" lon="-2.73387">
        <ele>117.2</ele>
        <time>2015-12-06T15:21:23.000Z</time>
      </trkpt>
      <trkpt lat="47.71908" lon="-2.73386">
        <ele>117.4</ele>
        <time>2015-12-06T15:21:24.000Z</time>
      </trkpt>
      <trkpt lat="47.71912" lon="-2.73385">
        <ele>117.6</ele>
        <time>2015-12-06T15:21:25.000Z</time>
      </trkpt>
      <trkpt lat="47.71915" lon="-2.73384">
        <ele>117.8</ele>
        <time>2015-12-06T15:21:26.000Z</time>
      </trkpt>
      <trkpt lat="47.71918" lon="-2.73382">
        <ele>118</ele>
        <time>2015-12-06T15:21:27.000Z</time>
      </trkpt>
      <trkpt lat="47.71921" lon="-2.73381">
        <ele>118.2</ele>
        <time>2015-12-06T15:21:28.000Z</time>
      </trkpt>
      <trkpt lat="47.71925" lon="-2.7338">
        <ele>118.3</ele>
        <time>2015-12-06T15:21:29.000Z</time>
      </trkpt>
      <trkpt lat="47.71927" lon="-2.73379">
        <ele>118.5</ele>
        <time>2015-12-06T15:21:30.000Z</time>
      </trkpt>
      <trkpt lat="47.7193" lon="-2.73378">
        <ele>118.6</ele>
        <time>2015-12-06T15:21:31.000Z</time>
      </trkpt>
      <trkpt lat="47.71932" lon="-2.73376">
        <ele>118.7</ele>
        <time>2015-12-06T15:21:32.000Z</time>
      </trkpt>
      <trkpt lat="47.71935" lon="-2.73375">
        <ele>118.9</ele>
        <time>2015-12-06T15:21:33.000Z</time>
      </trkpt>
      <trkpt lat="47.71937" lon="-2.73373">
        <ele>119.1</ele>
        <time>2015-12-06T15:21:34.000Z</time>
      </trkpt>
      <trkpt lat="47.7194" lon="-2.73371">
        <ele>119.4</ele>
        <time>2015-12-06T15:21:35.000Z</time>
      </trkpt>
      <trkpt lat="47.71942" lon="-2.7337">
        <ele>119.6</ele>
        <time>2015-12-06T15:21:36.000Z</time>
      </trkpt>
      <trkpt lat="47.71945" lon="-2.73367">
        <ele>119.9</ele>
        <time>2015-12-06T15:21:37.000Z</time>
      </trkpt>
      <trkpt lat="47.71948" lon="-2.73365">
        <ele>120.2</ele>
        <time>2015-12-06T15:21:38.000Z</time>
      </trkpt>
      <trkpt lat="47.71951" lon="-2.73363">
        <ele>120.5</ele>
        <time>2015-12-06T15:21:39.000Z</time>
      </trkpt>
      <trkpt lat="47.71953" lon="-2.73361">
        <ele>120.8</ele>
        <time>2015-12-06T15:21:40.000Z</time>
      </trkpt>
      <trkpt lat="47.71955" lon="-2.7336">
        <ele>120.9</ele>
        <time>2015-12-06T15:21:41.000Z</time>
      </trkpt>
      <trkpt lat="47.71957" lon="-2.7336">
        <ele>121</ele>
        <time>2015-12-06T15:21:42.000Z</time>
      </trkpt>
      <trkpt lat="47.71959" lon="-2.73359">
        <ele>121.2</ele>
        <time>2015-12-06T15:21:43.000Z</time>
      </trkpt>
      <trkpt lat="47.71962" lon="-2.73358">
        <ele>121.5</ele>
        <time>2015-12-06T15:21:44.000Z</time>
      </trkpt>
      <trkpt lat="47.71964" lon="-2.73356">
        <ele>121.8</ele>
        <time>2015-12-06T15:21:45.000Z</time>
      </trkpt>
      <trkpt lat="47.71967" lon="-2.73355">
        <ele>122.1</ele>
        <time>2015-12-06T15:21:46.000Z</time>
      </trkpt>
      <trkpt lat="47.7197" lon="-2.73353">
        <ele>122.4</ele>
        <time>2015-12-06T15:21:47.000Z</time>
      </trkpt>
      <trkpt lat="47.71972" lon="-2.73352">
        <ele>122.6</ele>
        <time>2015-12-06T15:21:48.000Z</time>
      </trkpt>
      <trkpt lat="47.71975" lon="-2.73351">
        <ele>122.8</ele>
        <time>2015-12-06T15:21:49.000Z</time>
      </trkpt>
      <trkpt lat="47.71978" lon="-2.73349">
        <ele>123.1</ele>
        <time>2015-12-06T15:21:50.000Z</time>
      </trkpt>
      <trkpt lat="47.71981" lon="-2.73347">
        <ele>123.4</ele>
        <time>2015-12-06T15:21:51.000Z</time>
      </trkpt>
      <trkpt lat="47.71983" lon="-2.73345">
        <ele>123.7</ele>
        <time>2015-12-06T15:21:52.000Z</time>
      </trkpt>
      <trkpt lat="47.71985" lon="-2.73343">
        <ele>124</ele>
        <time>2015-12-06T15:21:53.000Z</time>
      </trkpt>
      <trkpt lat="47.71987" lon="-2.73341">
        <ele>124.2</ele>
        <time>2015-12-06T15:21:54.000Z</time>
      </trkpt>
      <trkpt lat="47.7199" lon="-2.73339">
        <ele>124.5</ele>
        <time>2015-12-06T15:21:55.000Z</time>
      </trkpt>
      <trkpt lat="47.71993" lon="-2.73337">
        <ele>124.7</ele>
        <time>2015-12-06T15:21:56.000Z</time>
      </trkpt>
      <trkpt lat="47.71995" lon="-2.73337">
        <ele>124.8</ele>
        <time>2015-12-06T15:21:57.000Z</time>
      </trkpt>
      <trkpt lat="47.71997" lon="-2.73336">
        <ele>125</ele>
        <time>2015-12-06T15:21:58.000Z</time>
      </trkpt>
      <trkpt lat="47.71999" lon="-2.73335">
        <ele>125.1</ele>
        <time>2015-12-06T15:21:59.000Z</time>
      </trkpt>
      <trkpt lat="47.72001" lon="-2.73334">
        <ele>125.3</ele>
        <time>2015-12-06T15:22:00.000Z</time>
      </trkpt>
      <trkpt lat="47.72004" lon="-2.73334">
        <ele>125.5</ele>
        <time>2015-12-06T15:22:01.000Z</time>
      </trkpt>
      <trkpt lat="47.72008" lon="-2.73333">
        <ele>125.7</ele>
        <time>2015-12-06T15:22:02.000Z</time>
      </trkpt>
      <trkpt lat="47.72011" lon="-2.73332">
        <ele>125.9</ele>
        <time>2015-12-06T15:22:03.000Z</time>
      </trkpt>
      <trkpt lat="47.72016" lon="-2.7333">
        <ele>126.2</ele>
        <time>2015-12-06T15:22:04.000Z</time>
      </trkpt>
      <trkpt lat="47.72021" lon="-2.73328">
        <ele>126.5</ele>
        <time>2015-12-06T15:22:05.000Z</time>
      </trkpt>
      <trkpt lat="47.72024" lon="-2.73327">
        <ele>126.7</ele>
        <time>2015-12-06T15:22:06.000Z</time>
      </trkpt>
      <trkpt lat="47.72027" lon="-2.73328">
        <ele>126.9</ele>
        <time>2015-12-06T15:22:07.000Z</time>
      </trkpt>
      <trkpt lat="47.7203" lon="-2.7333">
        <ele>126.9</ele>
        <time>2015-12-06T15:22:08.000Z</time>
      </trkpt>
      <trkpt lat="47.72032" lon="-2.73332">
        <ele>127</ele>
        <time>2015-12-06T15:22:09.000Z</time>
      </trkpt>
      <trkpt lat="47.72035" lon="-2.73332">
        <ele>127.2</ele>
        <time>2015-12-06T15:22:10.000Z</time>
      </trkpt>
      <trkpt lat="47.72039" lon="-2.73332">
        <ele>127.4</ele>
        <time>2015-12-06T15:22:11.000Z</time>
      </trkpt>
      <trkpt lat="47.72043" lon="-2.73332">
        <ele>127.5</ele>
        <time>2015-12-06T15:22:12.000Z</time>
      </trkpt>
      <trkpt lat="47.72046" lon="-2.73332">
        <ele>127.6</ele>
        <time>2015-12-06T15:22:13.000Z</time>
      </trkpt>
      <trkpt lat="47.7205" lon="-2.73333">
        <ele>127.6</ele>
        <time>2015-12-06T15:22:14.000Z</time>
      </trkpt>
      <trkpt lat="47.72053" lon="-2.73333">
        <ele>127.7</ele>
        <time>2015-12-06T15:22:15.000Z</time>
      </trkpt>
      <trkpt lat="47.72056" lon="-2.73332">
        <ele>127.8</ele>
        <time>2015-12-06T15:22:16.000Z</time>
      </trkpt>
      <trkpt lat="47.72058" lon="-2.73332">
        <ele>127.8</ele>
        <time>2015-12-06T15:22:17.000Z</time>
      </trkpt>
      <trkpt lat="47.7206" lon="-2.73332">
        <ele>127.8</ele>
        <time>2015-12-06T15:22:18.000Z</time>
      </trkpt>
      <trkpt lat="47.72062" lon="-2.73332">
        <ele>127.9</ele>
        <time>2015-12-06T15:22:19.000Z</time>
      </trkpt>
      <trkpt lat="47.72065" lon="-2.73332">
        <ele>127.9</ele>
        <time>2015-12-06T15:22:20.000Z</time>
      </trkpt>
      <trkpt lat="47.72067" lon="-2.73333">
        <ele>128</ele>
        <time>2015-12-06T15:22:21.000Z</time>
      </trkpt>
      <trkpt lat="47.7207" lon="-2.73333">
        <ele>128</ele>
        <time>2015-12-06T15:22:22.000Z</time>
      </trkpt>
      <trkpt lat="47.72072" lon="-2.73334">
        <ele>128.1</ele>
        <time>2015-12-06T15:22:23.000Z</time>
      </trkpt>
      <trkpt lat="47.72075" lon="-2.73334">
        <ele>128.1</ele>
        <time>2015-12-06T15:22:24.000Z</time>
      </trkpt>
      <trkpt lat="47.72077" lon="-2.73334">
        <ele>128.1</ele>
        <time>2015-12-06T15:22:25.000Z</time>
      </trkpt>
      <trkpt lat="47.7208" lon="-2.73334">
        <ele>128.2</ele>
        <time>2015-12-06T15:22:26.000Z</time>
      </trkpt>
      <trkpt lat="47.72082" lon="-2.73335">
        <ele>128.2</ele>
        <time>2015-12-06T15:22:27.000Z</time>
      </trkpt>
      <trkpt lat="47.72086" lon="-2.73337">
        <ele>128.3</ele>
        <time>2015-12-06T15:22:28.000Z</time>
      </trkpt>
      <trkpt lat="47.72089" lon="-2.73339">
        <ele>128.4</ele>
        <time>2015-12-06T15:22:29.000Z</time>
      </trkpt>
      <trkpt lat="47.72092" lon="-2.7334">
        <ele>128.5</ele>
        <time>2015-12-06T15:22:30.000Z</time>
      </trkpt>
      <trkpt lat="47.72094" lon="-2.73341">
        <ele>128.5</ele>
        <time>2015-12-06T15:22:31.000Z</time>
      </trkpt>
      <trkpt lat="47.72097" lon="-2.73341">
        <ele>128.6</ele>
        <time>2015-12-06T15:22:32.000Z</time>
      </trkpt>
      <trkpt lat="47.721" lon="-2.73342">
        <ele>128.7</ele>
        <time>2015-12-06T15:22:33.000Z</time>
      </trkpt>
      <trkpt lat="47.72103" lon="-2.73342">
        <ele>128.7</ele>
        <time>2015-12-06T15:22:34.000Z</time>
      </trkpt>
      <trkpt lat="47.72105" lon="-2.73341">
        <ele>128.8</ele>
        <time>2015-12-06T15:22:35.000Z</time>
      </trkpt>
      <trkpt lat="47.72107" lon="-2.7334">
        <ele>128.8</ele>
        <time>2015-12-06T15:22:36.000Z</time>
      </trkpt>
      <trkpt lat="47.7211" lon="-2.73339">
        <ele>128.8</ele>
        <time>2015-12-06T15:22:37.000Z</time>
      </trkpt>
      <trkpt lat="47.72113" lon="-2.73338">
        <ele>128.9</ele>
        <time>2015-12-06T15:22:38.000Z</time>
      </trkpt>
      <trkpt lat="47.72115" lon="-2.73337">
        <ele>128.9</ele>
        <time>2015-12-06T15:22:39.000Z</time>
      </trkpt>
      <trkpt lat="47.72118" lon="-2.73337">
        <ele>128.9</ele>
        <time>2015-12-06T15:22:40.000Z</time>
      </trkpt>
      <trkpt lat="47.7212" lon="-2.73337">
        <ele>129</ele>
        <time>2015-12-06T15:22:41.000Z</time>
      </trkpt>
      <trkpt lat="47.72123" lon="-2.73337">
        <ele>129</ele>
        <time>2015-12-06T15:22:42.000Z</time>
      </trkpt>
      <trkpt lat="47.72125" lon="-2.73336">
        <ele>129.1</ele>
        <time>2015-12-06T15:22:43.000Z</time>
      </trkpt>
      <trkpt lat="47.72128" lon="-2.73335">
        <ele>129.1</ele>
        <time>2015-12-06T15:22:44.000Z</time>
      </trkpt>
      <trkpt lat="47.7213" lon="-2.73335">
        <ele>129.1</ele>
        <time>2015-12-06T15:22:45.000Z</time>
      </trkpt>
      <trkpt lat="47.72133" lon="-2.73334">
        <ele>129.2</ele>
        <time>2015-12-06T15:22:46.000Z</time>
      </trkpt>
      <trkpt lat="47.72136" lon="-2.73334">
        <ele>129.2</ele>
        <time>2015-12-06T15:22:47.000Z</time>
      </trkpt>
      <trkpt lat="47.72139" lon="-2.73332">
        <ele>129.2</ele>
        <time>2015-12-06T15:22:48.000Z</time>
      </trkpt>
      <trkpt lat="47.72142" lon="-2.73331">
        <ele>129.3</ele>
        <time>2015-12-06T15:22:49.000Z</time>
      </trkpt>
      <trkpt lat="47.72145" lon="-2.73329">
        <ele>129.3</ele>
        <time>2015-12-06T15:22:50.000Z</time>
      </trkpt>
      <trkpt lat="47.72148" lon="-2.73328">
        <ele>129.3</ele>
        <time>2015-12-06T15:22:51.000Z</time>
      </trkpt>
      <trkpt lat="47.7215" lon="-2.73326">
        <ele>129.3</ele>
        <time>2015-12-06T15:22:52.000Z</time>
      </trkpt>
      <trkpt lat="47.72152" lon="-2.73325">
        <ele>129.3</ele>
        <time>2015-12-06T15:22:53.000Z</time>
      </trkpt>
      <trkpt lat="47.72153" lon="-2.73324">
        <ele>129.3</ele>
        <time>2015-12-06T15:22:54.000Z</time>
      </trkpt>
      <trkpt lat="47.72155" lon="-2.73322">
        <ele>129.3</ele>
        <time>2015-12-06T15:22:55.000Z</time>
      </trkpt>
      <trkpt lat="47.72157" lon="-2.73321">
        <ele>129.3</ele>
        <time>2015-12-06T15:22:56.000Z</time>
      </trkpt>
      <trkpt lat="47.7216" lon="-2.7332">
        <ele>129.4</ele>
        <time>2015-12-06T15:22:57.000Z</time>
      </trkpt>
      <trkpt lat="47.72163" lon="-2.73319">
        <ele>129.4</ele>
        <time>2015-12-06T15:22:58.000Z</time>
      </trkpt>
      <trkpt lat="47.72165" lon="-2.73319">
        <ele>129.5</ele>
        <time>2015-12-06T15:22:59.000Z</time>
      </trkpt>
      <trkpt lat="47.72168" lon="-2.73319">
        <ele>129.5</ele>
        <time>2015-12-06T15:23:00.000Z</time>
      </trkpt>
      <trkpt lat="47.7217" lon="-2.73319">
        <ele>129.6</ele>
        <time>2015-12-06T15:23:01.000Z</time>
      </trkpt>
      <trkpt lat="47.72173" lon="-2.73319">
        <ele>129.6</ele>
        <time>2015-12-06T15:23:02.000Z</time>
      </trkpt>
      <trkpt lat="47.72175" lon="-2.73319">
        <ele>129.7</ele>
        <time>2015-12-06T15:23:03.000Z</time>
      </trkpt>
      <trkpt lat="47.72178" lon="-2.73319">
        <ele>129.7</ele>
        <time>2015-12-06T15:23:04.000Z</time>
      </trkpt>
      <trkpt lat="47.72181" lon="-2.73319">
        <ele>129.8</ele>
        <time>2015-12-06T15:23:05.000Z</time>
      </trkpt>
      <trkpt lat="47.72184" lon="-2.73319">
        <ele>129.8</ele>
        <time>2015-12-06T15:23:06.000Z</time>
      </trkpt>
      <trkpt lat="47.72187" lon="-2.73318">
        <ele>129.9</ele>
        <time>2015-12-06T15:23:07.000Z</time>
      </trkpt>
      <trkpt lat="47.7219" lon="-2.73316">
        <ele>129.9</ele>
        <time>2015-12-06T15:23:08.000Z</time>
      </trkpt>
      <trkpt lat="47.72194" lon="-2.73314">
        <ele>130</ele>
        <time>2015-12-06T15:23:09.000Z</time>
      </trkpt>
      <trkpt lat="47.72197" lon="-2.73312">
        <ele>130</ele>
        <time>2015-12-06T15:23:10.000Z</time>
      </trkpt>
      <trkpt lat="47.72201" lon="-2.73309">
        <ele>130</ele>
        <time>2015-12-06T15:23:11.000Z</time>
      </trkpt>
      <trkpt lat="47.72204" lon="-2.73306">
        <ele>130.1</ele>
        <time>2015-12-06T15:23:12.000Z</time>
      </trkpt>
      <trkpt lat="47.72206" lon="-2.73302">
        <ele>130.1</ele>
        <time>2015-12-06T15:23:13.000Z</time>
      </trkpt>
      <trkpt lat="47.72207" lon="-2.73299">
        <ele>130.1</ele>
        <time>2015-12-06T15:23:14.000Z</time>
      </trkpt>
      <trkpt lat="47.72208" lon="-2.73297">
        <ele>130</ele>
        <time>2015-12-06T15:23:15.000Z</time>
      </trkpt>
      <trkpt lat="47.72208" lon="-2.73294">
        <ele>130</ele>
        <time>2015-12-06T15:23:16.000Z</time>
      </trkpt>
      <trkpt lat="47.72208" lon="-2.73291">
        <ele>130</ele>
        <time>2015-12-06T15:23:17.000Z</time>
      </trkpt>
      <trkpt lat="47.72209" lon="-2.73288">
        <ele>130.1</ele>
        <time>2015-12-06T15:23:18.000Z</time>
      </trkpt>
      <trkpt lat="47.72209" lon="-2.73285">
        <ele>130.1</ele>
        <time>2015-12-06T15:23:19.000Z</time>
      </trkpt>
      <trkpt lat="47.72209" lon="-2.73281">
        <ele>130.1</ele>
        <time>2015-12-06T15:23:20.000Z</time>
      </trkpt>
      <trkpt lat="47.7221" lon="-2.73279">
        <ele>130.2</ele>
        <time>2015-12-06T15:23:21.000Z</time>
      </trkpt>
      <trkpt lat="47.72211" lon="-2.73276">
        <ele>130.2</ele>
        <time>2015-12-06T15:23:22.000Z</time>
      </trkpt>
      <trkpt lat="47.72211" lon="-2.73274">
        <ele>130.3</ele>
        <time>2015-12-06T15:23:23.000Z</time>
      </trkpt>
      <trkpt lat="47.72211" lon="-2.73271">
        <ele>130.3</ele>
        <time>2015-12-06T15:23:24.000Z</time>
      </trkpt>
      <trkpt lat="47.72211" lon="-2.73267">
        <ele>130.3</ele>
        <time>2015-12-06T15:23:25.000Z</time>
      </trkpt>
      <trkpt lat="47.7221" lon="-2.73264">
        <ele>130.4</ele>
        <time>2015-12-06T15:23:26.000Z</time>
      </trkpt>
      <trkpt lat="47.72209" lon="-2.7326">
        <ele>130.4</ele>
        <time>2015-12-06T15:23:27.000Z</time>
      </trkpt>
      <trkpt lat="47.72208" lon="-2.73257">
        <ele>130.4</ele>
        <time>2015-12-06T15:23:28.000Z</time>
      </trkpt>
      <trkpt lat="47.72207" lon="-2.73253">
        <ele>130.4</ele>
        <time>2015-12-06T15:23:29.000Z</time>
      </trkpt>
      <trkpt lat="47.72205" lon="-2.73249">
        <ele>130.5</ele>
        <time>2015-12-06T15:23:30.000Z</time>
      </trkpt>
      <trkpt lat="47.72203" lon="-2.73245">
        <ele>130.5</ele>
        <time>2015-12-06T15:23:31.000Z</time>
      </trkpt>
      <trkpt lat="47.72201" lon="-2.73241">
        <ele>130.5</ele>
        <time>2015-12-06T15:23:32.000Z</time>
      </trkpt>
      <trkpt lat="47.722" lon="-2.73238">
        <ele>130.5</ele>
        <time>2015-12-06T15:23:33.000Z</time>
      </trkpt>
      <trkpt lat="47.72199" lon="-2.73234">
        <ele>130.5</ele>
        <time>2015-12-06T15:23:34.000Z</time>
      </trkpt>
      <trkpt lat="47.72199" lon="-2.73231">
        <ele>130.6</ele>
        <time>2015-12-06T15:23:35.000Z</time>
      </trkpt>
      <trkpt lat="47.722" lon="-2.73228">
        <ele>130.6</ele>
        <time>2015-12-06T15:23:36.000Z</time>
      </trkpt>
      <trkpt lat="47.72202" lon="-2.73226">
        <ele>130.7</ele>
        <time>2015-12-06T15:23:37.000Z</time>
      </trkpt>
      <trkpt lat="47.72204" lon="-2.73225">
        <ele>130.7</ele>
        <time>2015-12-06T15:23:38.000Z</time>
      </trkpt>
      <trkpt lat="47.72207" lon="-2.73227">
        <ele>130.8</ele>
        <time>2015-12-06T15:23:39.000Z</time>
      </trkpt>
      <trkpt lat="47.72209" lon="-2.73229">
        <ele>130.8</ele>
        <time>2015-12-06T15:23:40.000Z</time>
      </trkpt>
      <trkpt lat="47.72211" lon="-2.73233">
        <ele>130.7</ele>
        <time>2015-12-06T15:23:41.000Z</time>
      </trkpt>
      <trkpt lat="47.72213" lon="-2.73237">
        <ele>130.7</ele>
        <time>2015-12-06T15:23:42.000Z</time>
      </trkpt>
      <trkpt lat="47.72216" lon="-2.73241">
        <ele>130.7</ele>
        <time>2015-12-06T15:23:43.000Z</time>
      </trkpt>
      <trkpt lat="47.72219" lon="-2.73246">
        <ele>130.7</ele>
        <time>2015-12-06T15:23:44.000Z</time>
      </trkpt>
      <trkpt lat="47.72222" lon="-2.73251">
        <ele>130.7</ele>
        <time>2015-12-06T15:23:45.000Z</time>
      </trkpt>
      <trkpt lat="47.72225" lon="-2.73256">
        <ele>130.7</ele>
        <time>2015-12-06T15:23:46.000Z</time>
      </trkpt>
      <trkpt lat="47.72228" lon="-2.73261">
        <ele>130.7</ele>
        <time>2015-12-06T15:23:47.000Z</time>
      </trkpt>
      <trkpt lat="47.7223" lon="-2.73266">
        <ele>130.8</ele>
        <time>2015-12-06T15:23:48.000Z</time>
      </trkpt>
      <trkpt lat="47.72233" lon="-2.73271">
        <ele>130.8</ele>
        <time>2015-12-06T15:23:49.000Z</time>
      </trkpt>
      <trkpt lat="47.72236" lon="-2.73276">
        <ele>130.8</ele>
        <time>2015-12-06T15:23:50.000Z</time>
      </trkpt>
      <trkpt lat="47.7224" lon="-2.73282">
        <ele>130.8</ele>
        <time>2015-12-06T15:23:51.000Z</time>
      </trkpt>
      <trkpt lat="47.72243" lon="-2.73287">
        <ele>130.9</ele>
        <time>2015-12-06T15:23:52.000Z</time>
      </trkpt>
      <trkpt lat="47.72246" lon="-2.73293">
        <ele>130.9</ele>
        <time>2015-12-06T15:23:53.000Z</time>
      </trkpt>
      <trkpt lat="47.7225" lon="-2.73299">
        <ele>131.1</ele>
        <time>2015-12-06T15:23:54.000Z</time>
      </trkpt>
      <trkpt lat="47.72253" lon="-2.73305">
        <ele>131.2</ele>
        <time>2015-12-06T15:23:55.000Z</time>
      </trkpt>
      <trkpt lat="47.72256" lon="-2.73311">
        <ele>131.4</ele>
        <time>2015-12-06T15:23:56.000Z</time>
      </trkpt>
      <trkpt lat="47.72259" lon="-2.73316">
        <ele>131.5</ele>
        <time>2015-12-06T15:23:57.000Z</time>
      </trkpt>
      <trkpt lat="47.72262" lon="-2.73321">
        <ele>131.6</ele>
        <time>2015-12-06T15:23:58.000Z</time>
      </trkpt>
      <trkpt lat="47.72265" lon="-2.73327">
        <ele>131.8</ele>
        <time>2015-12-06T15:23:59.000Z</time>
      </trkpt>
      <trkpt lat="47.72269" lon="-2.73334">
        <ele>132</ele>
        <time>2015-12-06T15:24:00.000Z</time>
      </trkpt>
      <trkpt lat="47.72273" lon="-2.73341">
        <ele>132.1</ele>
        <time>2015-12-06T15:24:01.000Z</time>
      </trkpt>
      <trkpt lat="47.72277" lon="-2.73347">
        <ele>132.3</ele>
        <time>2015-12-06T15:24:02.000Z</time>
      </trkpt>
      <trkpt lat="47.72281" lon="-2.73354">
        <ele>132.5</ele>
        <time>2015-12-06T15:24:03.000Z</time>
      </trkpt>
      <trkpt lat="47.72284" lon="-2.7336">
        <ele>132.6</ele>
        <time>2015-12-06T15:24:04.000Z</time>
      </trkpt>
      <trkpt lat="47.72288" lon="-2.73367">
        <ele>132.8</ele>
        <time>2015-12-06T15:24:05.000Z</time>
      </trkpt>
      <trkpt lat="47.72291" lon="-2.73373">
        <ele>133</ele>
        <time>2015-12-06T15:24:06.000Z</time>
      </trkpt>
      <trkpt lat="47.72295" lon="-2.7338">
        <ele>133</ele>
        <time>2015-12-06T15:24:07.000Z</time>
      </trkpt>
      <trkpt lat="47.72299" lon="-2.73386">
        <ele>132.9</ele>
        <time>2015-12-06T15:24:08.000Z</time>
      </trkpt>
      <trkpt lat="47.72302" lon="-2.73393">
        <ele>132.9</ele>
        <time>2015-12-06T15:24:09.000Z</time>
      </trkpt>
      <trkpt lat="47.72306" lon="-2.734">
        <ele>132.8</ele>
        <time>2015-12-06T15:24:10.000Z</time>
      </trkpt>
      <trkpt lat="47.72309" lon="-2.73406">
        <ele>132.8</ele>
        <time>2015-12-06T15:24:11.000Z</time>
      </trkpt>
      <trkpt lat="47.72313" lon="-2.73413">
        <ele>132.7</ele>
        <time>2015-12-06T15:24:12.000Z</time>
      </trkpt>
      <trkpt lat="47.72316" lon="-2.73419">
        <ele>132.7</ele>
        <time>2015-12-06T15:24:13.000Z</time>
      </trkpt>
      <trkpt lat="47.7232" lon="-2.73426">
        <ele>132.7</ele>
        <time>2015-12-06T15:24:14.000Z</time>
      </trkpt>
      <trkpt lat="47.72324" lon="-2.73433">
        <ele>132.6</ele>
        <time>2015-12-06T15:24:15.000Z</time>
      </trkpt>
      <trkpt lat="47.72327" lon="-2.7344">
        <ele>132.6</ele>
        <time>2015-12-06T15:24:16.000Z</time>
      </trkpt>
      <trkpt lat="47.7233" lon="-2.73447">
        <ele>132.5</ele>
        <time>2015-12-06T15:24:17.000Z</time>
      </trkpt>
      <trkpt lat="47.72333" lon="-2.73453">
        <ele>132.5</ele>
        <time>2015-12-06T15:24:18.000Z</time>
      </trkpt>
      <trkpt lat="47.72336" lon="-2.7346">
        <ele>132.4</ele>
        <time>2015-12-06T15:24:19.000Z</time>
      </trkpt>
      <trkpt lat="47.7234" lon="-2.73466">
        <ele>132.3</ele>
        <time>2015-12-06T15:24:20.000Z</time>
      </trkpt>
      <trkpt lat="47.72343" lon="-2.73471">
        <ele>132.2</ele>
        <time>2015-12-06T15:24:21.000Z</time>
      </trkpt>
      <trkpt lat="47.72345" lon="-2.73477">
        <ele>132.1</ele>
        <time>2015-12-06T15:24:22.000Z</time>
      </trkpt>
      <trkpt lat="47.72346" lon="-2.73482">
        <ele>132</ele>
        <time>2015-12-06T15:24:23.000Z</time>
      </trkpt>
      <trkpt lat="47.72345" lon="-2.73486">
        <ele>131.9</ele>
        <time>2015-12-06T15:24:24.000Z</time>
      </trkpt>
      <trkpt lat="47.72344" lon="-2.73488">
        <ele>131.9</ele>
        <time>2015-12-06T15:24:25.000Z</time>
      </trkpt>
      <trkpt lat="47.72342" lon="-2.73489">
        <ele>131.9</ele>
        <time>2015-12-06T15:24:26.000Z</time>
      </trkpt>
      <trkpt lat="47.7234" lon="-2.73487">
        <ele>131.9</ele>
        <time>2015-12-06T15:24:27.000Z</time>
      </trkpt>
      <trkpt lat="47.72338" lon="-2.73483">
        <ele>132</ele>
        <time>2015-12-06T15:24:28.000Z</time>
      </trkpt>
      <trkpt lat="47.72335" lon="-2.73479">
        <ele>132.1</ele>
        <time>2015-12-06T15:24:29.000Z</time>
      </trkpt>
      <trkpt lat="47.72333" lon="-2.73475">
        <ele>132.2</ele>
        <time>2015-12-06T15:24:30.000Z</time>
      </trkpt>
      <trkpt lat="47.7233" lon="-2.73471">
        <ele>132.3</ele>
        <time>2015-12-06T15:24:31.000Z</time>
      </trkpt>
      <trkpt lat="47.72327" lon="-2.73467">
        <ele>132.4</ele>
        <time>2015-12-06T15:24:32.000Z</time>
      </trkpt>
      <trkpt lat="47.72324" lon="-2.73463">
        <ele>132.5</ele>
        <time>2015-12-06T15:24:33.000Z</time>
      </trkpt>
      <trkpt lat="47.72322" lon="-2.73459">
        <ele>132.6</ele>
        <time>2015-12-06T15:24:34.000Z</time>
      </trkpt>
      <trkpt lat="47.72319" lon="-2.73454">
        <ele>132.7</ele>
        <time>2015-12-06T15:24:35.000Z</time>
      </trkpt>
      <trkpt lat="47.72316" lon="-2.7345">
        <ele>132.7</ele>
        <time>2015-12-06T15:24:36.000Z</time>
      </trkpt>
      <trkpt lat="47.72314" lon="-2.73446">
        <ele>132.7</ele>
        <time>2015-12-06T15:24:37.000Z</time>
      </trkpt>
      <trkpt lat="47.7231" lon="-2.73445">
        <ele>132.8</ele>
        <time>2015-12-06T15:24:38.000Z</time>
      </trkpt>
      <trkpt lat="47.72307" lon="-2.73445">
        <ele>132.8</ele>
        <time>2015-12-06T15:24:39.000Z</time>
      </trkpt>
      <trkpt lat="47.72304" lon="-2.73447">
        <ele>132.9</ele>
        <time>2015-12-06T15:24:40.000Z</time>
      </trkpt>
      <trkpt lat="47.72301" lon="-2.73448">
        <ele>132.9</ele>
        <time>2015-12-06T15:24:41.000Z</time>
      </trkpt>
      <trkpt lat="47.72297" lon="-2.73448">
        <ele>132.9</ele>
        <time>2015-12-06T15:24:42.000Z</time>
      </trkpt>
      <trkpt lat="47.72294" lon="-2.73447">
        <ele>133</ele>
        <time>2015-12-06T15:24:43.000Z</time>
      </trkpt>
      <trkpt lat="47.72289" lon="-2.73446">
        <ele>132.9</ele>
        <time>2015-12-06T15:24:44.000Z</time>
      </trkpt>
      <trkpt lat="47.72285" lon="-2.73446">
        <ele>132.8</ele>
        <time>2015-12-06T15:24:45.000Z</time>
      </trkpt>
      <trkpt lat="47.72281" lon="-2.73446">
        <ele>132.7</ele>
        <time>2015-12-06T15:24:46.000Z</time>
      </trkpt>
      <trkpt lat="47.72277" lon="-2.73447">
        <ele>132.6</ele>
        <time>2015-12-06T15:24:47.000Z</time>
      </trkpt>
      <trkpt lat="47.72273" lon="-2.73448">
        <ele>132.5</ele>
        <time>2015-12-06T15:24:48.000Z</time>
      </trkpt>
      <trkpt lat="47.72269" lon="-2.73449">
        <ele>132.5</ele>
        <time>2015-12-06T15:24:49.000Z</time>
      </trkpt>
      <trkpt lat="47.72266" lon="-2.73449">
        <ele>132.4</ele>
        <time>2015-12-06T15:24:50.000Z</time>
      </trkpt>
      <trkpt lat="47.72262" lon="-2.73451">
        <ele>132.3</ele>
        <time>2015-12-06T15:24:51.000Z</time>
      </trkpt>
      <trkpt lat="47.72257" lon="-2.73452">
        <ele>132.2</ele>
        <time>2015-12-06T15:24:52.000Z</time>
      </trkpt>
      <trkpt lat="47.72253" lon="-2.73453">
        <ele>132.1</ele>
        <time>2015-12-06T15:24:53.000Z</time>
      </trkpt>
      <trkpt lat="47.72248" lon="-2.73454">
        <ele>131.9</ele>
        <time>2015-12-06T15:24:54.000Z</time>
      </trkpt>
      <trkpt lat="47.72243" lon="-2.73454">
        <ele>131.8</ele>
        <time>2015-12-06T15:24:55.000Z</time>
      </trkpt>
      <trkpt lat="47.72238" lon="-2.73453">
        <ele>131.7</ele>
        <time>2015-12-06T15:24:56.000Z</time>
      </trkpt>
      <trkpt lat="47.72233" lon="-2.73453">
        <ele>131.6</ele>
        <time>2015-12-06T15:24:57.000Z</time>
      </trkpt>
      <trkpt lat="47.72228" lon="-2.73453">
        <ele>131.5</ele>
        <time>2015-12-06T15:24:58.000Z</time>
      </trkpt>
      <trkpt lat="47.72224" lon="-2.73452">
        <ele>131.4</ele>
        <time>2015-12-06T15:24:59.000Z</time>
      </trkpt>
      <trkpt lat="47.7222" lon="-2.73453">
        <ele>131.3</ele>
        <time>2015-12-06T15:25:00.000Z</time>
      </trkpt>
      <trkpt lat="47.72215" lon="-2.73453">
        <ele>131.2</ele>
        <time>2015-12-06T15:25:01.000Z</time>
      </trkpt>
      <trkpt lat="47.72209" lon="-2.73454">
        <ele>131</ele>
        <time>2015-12-06T15:25:02.000Z</time>
      </trkpt>
      <trkpt lat="47.72203" lon="-2.73455">
        <ele>130.9</ele>
        <time>2015-12-06T15:25:03.000Z</time>
      </trkpt>
      <trkpt lat="47.72197" lon="-2.73454">
        <ele>130.9</ele>
        <time>2015-12-06T15:25:04.000Z</time>
      </trkpt>
      <trkpt lat="47.72191" lon="-2.73455">
        <ele>130.8</ele>
        <time>2015-12-06T15:25:05.000Z</time>
      </trkpt>
      <trkpt lat="47.72186" lon="-2.73455">
        <ele>130.7</ele>
        <time>2015-12-06T15:25:06.000Z</time>
      </trkpt>
      <trkpt lat="47.72181" lon="-2.73456">
        <ele>130.7</ele>
        <time>2015-12-06T15:25:07.000Z</time>
      </trkpt>
      <trkpt lat="47.72176" lon="-2.73458">
        <ele>130.6</ele>
        <time>2015-12-06T15:25:08.000Z</time>
      </trkpt>
      <trkpt lat="47.72171" lon="-2.73459">
        <ele>130.5</ele>
        <time>2015-12-06T15:25:09.000Z</time>
      </trkpt>
      <trkpt lat="47.72165" lon="-2.73461">
        <ele>130.4</ele>
        <time>2015-12-06T15:25:10.000Z</time>
      </trkpt>
      <trkpt lat="47.7216" lon="-2.73464">
        <ele>130.3</ele>
        <time>2015-12-06T15:25:11.000Z</time>
      </trkpt>
      <trkpt lat="47.72155" lon="-2.73466">
        <ele>130.1</ele>
        <time>2015-12-06T15:25:12.000Z</time>
      </trkpt>
      <trkpt lat="47.72151" lon="-2.73469">
        <ele>130</ele>
        <time>2015-12-06T15:25:13.000Z</time>
      </trkpt>
      <trkpt lat="47.72146" lon="-2.73472">
        <ele>129.9</ele>
        <time>2015-12-06T15:25:14.000Z</time>
      </trkpt>
      <trkpt lat="47.72141" lon="-2.73474">
        <ele>129.8</ele>
        <time>2015-12-06T15:25:15.000Z</time>
      </trkpt>
      <trkpt lat="47.72136" lon="-2.73476">
        <ele>129.7</ele>
        <time>2015-12-06T15:25:16.000Z</time>
      </trkpt>
      <trkpt lat="47.72131" lon="-2.73478">
        <ele>129.6</ele>
        <time>2015-12-06T15:25:17.000Z</time>
      </trkpt>
      <trkpt lat="47.72126" lon="-2.7348">
        <ele>129.5</ele>
        <time>2015-12-06T15:25:18.000Z</time>
      </trkpt>
      <trkpt lat="47.72121" lon="-2.73481">
        <ele>129.3</ele>
        <time>2015-12-06T15:25:19.000Z</time>
      </trkpt>
      <trkpt lat="47.72117" lon="-2.73483">
        <ele>129.1</ele>
        <time>2015-12-06T15:25:20.000Z</time>
      </trkpt>
      <trkpt lat="47.72113" lon="-2.73485">
        <ele>128.9</ele>
        <time>2015-12-06T15:25:21.000Z</time>
      </trkpt>
      <trkpt lat="47.72108" lon="-2.73486">
        <ele>128.7</ele>
        <time>2015-12-06T15:25:22.000Z</time>
      </trkpt>
      <trkpt lat="47.72104" lon="-2.73487">
        <ele>128.6</ele>
        <time>2015-12-06T15:25:23.000Z</time>
      </trkpt>
      <trkpt lat="47.721" lon="-2.73488">
        <ele>128.4</ele>
        <time>2015-12-06T15:25:24.000Z</time>
      </trkpt>
      <trkpt lat="47.72097" lon="-2.73489">
        <ele>128.2</ele>
        <time>2015-12-06T15:25:25.000Z</time>
      </trkpt>
      <trkpt lat="47.72093" lon="-2.7349">
        <ele>128.1</ele>
        <time>2015-12-06T15:25:26.000Z</time>
      </trkpt>
      <trkpt lat="47.72089" lon="-2.73491">
        <ele>127.9</ele>
        <time>2015-12-06T15:25:27.000Z</time>
      </trkpt>
      <trkpt lat="47.72085" lon="-2.73493">
        <ele>127.7</ele>
        <time>2015-12-06T15:25:28.000Z</time>
      </trkpt>
      <trkpt lat="47.7208" lon="-2.73497">
        <ele>127.4</ele>
        <time>2015-12-06T15:25:29.000Z</time>
      </trkpt>
      <trkpt lat="47.72074" lon="-2.73502">
        <ele>127.1</ele>
        <time>2015-12-06T15:25:30.000Z</time>
      </trkpt>
      <trkpt lat="47.72069" lon="-2.73506">
        <ele>126.9</ele>
        <time>2015-12-06T15:25:31.000Z</time>
      </trkpt>
      <trkpt lat="47.72064" lon="-2.73508">
        <ele>126.6</ele>
        <time>2015-12-06T15:25:32.000Z</time>
      </trkpt>
      <trkpt lat="47.72059" lon="-2.73511">
        <ele>126.4</ele>
        <time>2015-12-06T15:25:33.000Z</time>
      </trkpt>
      <trkpt lat="47.72054" lon="-2.73514">
        <ele>126.1</ele>
        <time>2015-12-06T15:25:34.000Z</time>
      </trkpt>
      <trkpt lat="47.72049" lon="-2.73517">
        <ele>125.8</ele>
        <time>2015-12-06T15:25:35.000Z</time>
      </trkpt>
      <trkpt lat="47.72044" lon="-2.73521">
        <ele>125.6</ele>
        <time>2015-12-06T15:25:36.000Z</time>
      </trkpt>
      <trkpt lat="47.72039" lon="-2.73524">
        <ele>125.2</ele>
        <time>2015-12-06T15:25:37.000Z</time>
      </trkpt>
      <trkpt lat="47.72035" lon="-2.73528">
        <ele>124.9</ele>
        <time>2015-12-06T15:25:38.000Z</time>
      </trkpt>
      <trkpt lat="47.72031" lon="-2.73531">
        <ele>124.6</ele>
        <time>2015-12-06T15:25:39.000Z</time>
      </trkpt>
      <trkpt lat="47.72027" lon="-2.73535">
        <ele>124.3</ele>
        <time>2015-12-06T15:25:40.000Z</time>
      </trkpt>
      <trkpt lat="47.72023" lon="-2.73538">
        <ele>124</ele>
        <time>2015-12-06T15:25:41.000Z</time>
      </trkpt>
      <trkpt lat="47.72019" lon="-2.73542">
        <ele>123.6</ele>
        <time>2015-12-06T15:25:42.000Z</time>
      </trkpt>
      <trkpt lat="47.72016" lon="-2.73546">
        <ele>123.2</ele>
        <time>2015-12-06T15:25:43.000Z</time>
      </trkpt>
      <trkpt lat="47.72012" lon="-2.7355">
        <ele>122.8</ele>
        <time>2015-12-06T15:25:44.000Z</time>
      </trkpt>
      <trkpt lat="47.72008" lon="-2.73554">
        <ele>122.5</ele>
        <time>2015-12-06T15:25:45.000Z</time>
      </trkpt>
      <trkpt lat="47.72004" lon="-2.73557">
        <ele>122.1</ele>
        <time>2015-12-06T15:25:46.000Z</time>
      </trkpt>
      <trkpt lat="47.71999" lon="-2.73561">
        <ele>121.7</ele>
        <time>2015-12-06T15:25:47.000Z</time>
      </trkpt>
      <trkpt lat="47.71995" lon="-2.73565">
        <ele>121.2</ele>
        <time>2015-12-06T15:25:48.000Z</time>
      </trkpt>
      <trkpt lat="47.71991" lon="-2.7357">
        <ele>120.8</ele>
        <time>2015-12-06T15:25:49.000Z</time>
      </trkpt>
      <trkpt lat="47.71987" lon="-2.73575">
        <ele>120.4</ele>
        <time>2015-12-06T15:25:50.000Z</time>
      </trkpt>
      <trkpt lat="47.71985" lon="-2.7358">
        <ele>120</ele>
        <time>2015-12-06T15:25:51.000Z</time>
      </trkpt>
      <trkpt lat="47.71982" lon="-2.73586">
        <ele>119.7</ele>
        <time>2015-12-06T15:25:52.000Z</time>
      </trkpt>
      <trkpt lat="47.7198" lon="-2.73593">
        <ele>119.3</ele>
        <time>2015-12-06T15:25:53.000Z</time>
      </trkpt>
      <trkpt lat="47.71977" lon="-2.73599">
        <ele>118.9</ele>
        <time>2015-12-06T15:25:54.000Z</time>
      </trkpt>
      <trkpt lat="47.71974" lon="-2.73605">
        <ele>118.5</ele>
        <time>2015-12-06T15:25:55.000Z</time>
      </trkpt>
      <trkpt lat="47.71971" lon="-2.73611">
        <ele>118.2</ele>
        <time>2015-12-06T15:25:56.000Z</time>
      </trkpt>
      <trkpt lat="47.71969" lon="-2.73617">
        <ele>117.8</ele>
        <time>2015-12-06T15:25:57.000Z</time>
      </trkpt>
      <trkpt lat="47.71968" lon="-2.73623">
        <ele>117.5</ele>
        <time>2015-12-06T15:25:58.000Z</time>
      </trkpt>
      <trkpt lat="47.71967" lon="-2.7363">
        <ele>117.2</ele>
        <time>2015-12-06T15:25:59.000Z</time>
      </trkpt>
      <trkpt lat="47.71966" lon="-2.73637">
        <ele>116.9</ele>
        <time>2015-12-06T15:26:00.000Z</time>
      </trkpt>
      <trkpt lat="47.71965" lon="-2.73645">
        <ele>116.6</ele>
        <time>2015-12-06T15:26:01.000Z</time>
      </trkpt>
      <trkpt lat="47.71965" lon="-2.73651">
        <ele>116.3</ele>
        <time>2015-12-06T15:26:02.000Z</time>
      </trkpt>
      <trkpt lat="47.71964" lon="-2.73658">
        <ele>116.1</ele>
        <time>2015-12-06T15:26:03.000Z</time>
      </trkpt>
      <trkpt lat="47.71964" lon="-2.73663">
        <ele>115.9</ele>
        <time>2015-12-06T15:26:04.000Z</time>
      </trkpt>
      <trkpt lat="47.71964" lon="-2.73667">
        <ele>115.7</ele>
        <time>2015-12-06T15:26:05.000Z</time>
      </trkpt>
      <trkpt lat="47.71963" lon="-2.73671">
        <ele>115.5</ele>
        <time>2015-12-06T15:26:06.000Z</time>
      </trkpt>
      <trkpt lat="47.71963" lon="-2.73675">
        <ele>115.4</ele>
        <time>2015-12-06T15:26:07.000Z</time>
      </trkpt>
      <trkpt lat="47.71962" lon="-2.73679">
        <ele>115.2</ele>
        <time>2015-12-06T15:26:08.000Z</time>
      </trkpt>
      <trkpt lat="47.71959" lon="-2.73683">
        <ele>115</ele>
        <time>2015-12-06T15:26:09.000Z</time>
      </trkpt>
      <trkpt lat="47.71957" lon="-2.73687">
        <ele>114.6</ele>
        <time>2015-12-06T15:26:10.000Z</time>
      </trkpt>
      <trkpt lat="47.71953" lon="-2.7369">
        <ele>114.1</ele>
        <time>2015-12-06T15:26:11.000Z</time>
      </trkpt>
      <trkpt lat="47.7195" lon="-2.73695">
        <ele>113.7</ele>
        <time>2015-12-06T15:26:12.000Z</time>
      </trkpt>
      <trkpt lat="47.71948" lon="-2.737">
        <ele>113.2</ele>
        <time>2015-12-06T15:26:13.000Z</time>
      </trkpt>
      <trkpt lat="47.71945" lon="-2.73706">
        <ele>112.8</ele>
        <time>2015-12-06T15:26:14.000Z</time>
      </trkpt>
      <trkpt lat="47.71943" lon="-2.73712">
        <ele>112.4</ele>
        <time>2015-12-06T15:26:15.000Z</time>
      </trkpt>
      <trkpt lat="47.71941" lon="-2.73717">
        <ele>112.1</ele>
        <time>2015-12-06T15:26:16.000Z</time>
      </trkpt>
      <trkpt lat="47.71939" lon="-2.7372">
        <ele>111.9</ele>
        <time>2015-12-06T15:26:17.000Z</time>
      </trkpt>
      <trkpt lat="47.71937" lon="-2.73724">
        <ele>111.8</ele>
        <time>2015-12-06T15:26:18.000Z</time>
      </trkpt>
      <trkpt lat="47.71936" lon="-2.73727">
        <ele>111.6</ele>
        <time>2015-12-06T15:26:19.000Z</time>
      </trkpt>
      <trkpt lat="47.71937" lon="-2.73731">
        <ele>111.6</ele>
        <time>2015-12-06T15:26:20.000Z</time>
      </trkpt>
      <trkpt lat="47.71938" lon="-2.73733">
        <ele>111.6</ele>
        <time>2015-12-06T15:26:21.000Z</time>
      </trkpt>
      <trkpt lat="47.71939" lon="-2.73736">
        <ele>111.7</ele>
        <time>2015-12-06T15:26:22.000Z</time>
      </trkpt>
      <trkpt lat="47.7194" lon="-2.73739">
        <ele>111.7</ele>
        <time>2015-12-06T15:26:23.000Z</time>
      </trkpt>
      <trkpt lat="47.71941" lon="-2.73743">
        <ele>111.7</ele>
        <time>2015-12-06T15:26:24.000Z</time>
      </trkpt>
      <trkpt lat="47.7194" lon="-2.73747">
        <ele>111.6</ele>
        <time>2015-12-06T15:26:25.000Z</time>
      </trkpt>
      <trkpt lat="47.71939" lon="-2.73751">
        <ele>111.4</ele>
        <time>2015-12-06T15:26:26.000Z</time>
      </trkpt>
      <trkpt lat="47.71936" lon="-2.73754">
        <ele>111.2</ele>
        <time>2015-12-06T15:26:27.000Z</time>
      </trkpt>
      <trkpt lat="47.71933" lon="-2.73757">
        <ele>111</ele>
        <time>2015-12-06T15:26:28.000Z</time>
      </trkpt>
      <trkpt lat="47.7193" lon="-2.73759">
        <ele>110.9</ele>
        <time>2015-12-06T15:26:29.000Z</time>
      </trkpt>
      <trkpt lat="47.71927" lon="-2.73762">
        <ele>110.7</ele>
        <time>2015-12-06T15:26:30.000Z</time>
      </trkpt>
      <trkpt lat="47.71923" lon="-2.73766">
        <ele>110.6</ele>
        <time>2015-12-06T15:26:31.000Z</time>
      </trkpt>
      <trkpt lat="47.71919" lon="-2.73769">
        <ele>110.5</ele>
        <time>2015-12-06T15:26:32.000Z</time>
      </trkpt>
      <trkpt lat="47.71915" lon="-2.73773">
        <ele>110.3</ele>
        <time>2015-12-06T15:26:33.000Z</time>
      </trkpt>
      <trkpt lat="47.71911" lon="-2.73776">
        <ele>110.3</ele>
        <time>2015-12-06T15:26:34.000Z</time>
      </trkpt>
      <trkpt lat="47.71908" lon="-2.73779">
        <ele>110.2</ele>
        <time>2015-12-06T15:26:35.000Z</time>
      </trkpt>
      <trkpt lat="47.71904" lon="-2.73781">
        <ele>110.2</ele>
        <time>2015-12-06T15:26:36.000Z</time>
      </trkpt>
      <trkpt lat="47.71901" lon="-2.73784">
        <ele>110.1</ele>
        <time>2015-12-06T15:26:37.000Z</time>
      </trkpt>
      <trkpt lat="47.71898" lon="-2.73787">
        <ele>110.2</ele>
        <time>2015-12-06T15:26:38.000Z</time>
      </trkpt>
      <trkpt lat="47.71894" lon="-2.7379">
        <ele>110.2</ele>
        <time>2015-12-06T15:26:39.000Z</time>
      </trkpt>
      <trkpt lat="47.71891" lon="-2.73794">
        <ele>110.2</ele>
        <time>2015-12-06T15:26:40.000Z</time>
      </trkpt>
      <trkpt lat="47.71886" lon="-2.73798">
        <ele>110.2</ele>
        <time>2015-12-06T15:26:41.000Z</time>
      </trkpt>
      <trkpt lat="47.71882" lon="-2.73801">
        <ele>110.3</ele>
        <time>2015-12-06T15:26:42.000Z</time>
      </trkpt>
      <trkpt lat="47.71877" lon="-2.73805">
        <ele>110.3</ele>
        <time>2015-12-06T15:26:43.000Z</time>
      </trkpt>
      <trkpt lat="47.71872" lon="-2.73809">
        <ele>110.5</ele>
        <time>2015-12-06T15:26:44.000Z</time>
      </trkpt>
      <trkpt lat="47.71868" lon="-2.73813">
        <ele>110.8</ele>
        <time>2015-12-06T15:26:45.000Z</time>
      </trkpt>
      <trkpt lat="47.71864" lon="-2.73817">
        <ele>111.1</ele>
        <time>2015-12-06T15:26:46.000Z</time>
      </trkpt>
      <trkpt lat="47.7186" lon="-2.73821">
        <ele>111.4</ele>
        <time>2015-12-06T15:26:47.000Z</time>
      </trkpt>
      <trkpt lat="47.71855" lon="-2.73825">
        <ele>111.7</ele>
        <time>2015-12-06T15:26:48.000Z</time>
      </trkpt>
      <trkpt lat="47.71851" lon="-2.73829">
        <ele>112</ele>
        <time>2015-12-06T15:26:49.000Z</time>
      </trkpt>
      <trkpt lat="47.71847" lon="-2.73833">
        <ele>112.3</ele>
        <time>2015-12-06T15:26:50.000Z</time>
      </trkpt>
      <trkpt lat="47.71844" lon="-2.73836">
        <ele>112.6</ele>
        <time>2015-12-06T15:26:51.000Z</time>
      </trkpt>
      <trkpt lat="47.71841" lon="-2.7384">
        <ele>112.9</ele>
        <time>2015-12-06T15:26:52.000Z</time>
      </trkpt>
      <trkpt lat="47.71837" lon="-2.73843">
        <ele>113.2</ele>
        <time>2015-12-06T15:26:53.000Z</time>
      </trkpt>
      <trkpt lat="47.71833" lon="-2.73848">
        <ele>113.5</ele>
        <time>2015-12-06T15:26:54.000Z</time>
      </trkpt>
      <trkpt lat="47.71829" lon="-2.73853">
        <ele>114</ele>
        <time>2015-12-06T15:26:55.000Z</time>
      </trkpt>
      <trkpt lat="47.71825" lon="-2.73859">
        <ele>114.4</ele>
        <time>2015-12-06T15:26:56.000Z</time>
      </trkpt>
      <trkpt lat="47.71822" lon="-2.73863">
        <ele>114.7</ele>
        <time>2015-12-06T15:26:57.000Z</time>
      </trkpt>
      <trkpt lat="47.7182" lon="-2.73868">
        <ele>115</ele>
        <time>2015-12-06T15:26:58.000Z</time>
      </trkpt>
      <trkpt lat="47.71817" lon="-2.73872">
        <ele>115.3</ele>
        <time>2015-12-06T15:26:59.000Z</time>
      </trkpt>
      <trkpt lat="47.71814" lon="-2.73876">
        <ele>115.7</ele>
        <time>2015-12-06T15:27:00.000Z</time>
      </trkpt>
      <trkpt lat="47.71811" lon="-2.7388">
        <ele>115.9</ele>
        <time>2015-12-06T15:27:01.000Z</time>
      </trkpt>
      <trkpt lat="47.71807" lon="-2.73885">
        <ele>116.1</ele>
        <time>2015-12-06T15:27:02.000Z</time>
      </trkpt>
      <trkpt lat="47.71804" lon="-2.7389">
        <ele>116.3</ele>
        <time>2015-12-06T15:27:03.000Z</time>
      </trkpt>
      <trkpt lat="47.71801" lon="-2.73895">
        <ele>116.5</ele>
        <time>2015-12-06T15:27:04.000Z</time>
      </trkpt>
      <trkpt lat="47.71799" lon="-2.73899">
        <ele>116.6</ele>
        <time>2015-12-06T15:27:05.000Z</time>
      </trkpt>
      <trkpt lat="47.71797" lon="-2.73904">
        <ele>116.7</ele>
        <time>2015-12-06T15:27:06.000Z</time>
      </trkpt>
      <trkpt lat="47.71795" lon="-2.73909">
        <ele>116.9</ele>
        <time>2015-12-06T15:27:07.000Z</time>
      </trkpt>
      <trkpt lat="47.71792" lon="-2.73914">
        <ele>117</ele>
        <time>2015-12-06T15:27:08.000Z</time>
      </trkpt>
      <trkpt lat="47.71791" lon="-2.73918">
        <ele>117</ele>
        <time>2015-12-06T15:27:09.000Z</time>
      </trkpt>
      <trkpt lat="47.71789" lon="-2.73922">
        <ele>117</ele>
        <time>2015-12-06T15:27:10.000Z</time>
      </trkpt>
      <trkpt lat="47.71787" lon="-2.73927">
        <ele>117</ele>
        <time>2015-12-06T15:27:11.000Z</time>
      </trkpt>
      <trkpt lat="47.71785" lon="-2.73931">
        <ele>117</ele>
        <time>2015-12-06T15:27:12.000Z</time>
      </trkpt>
      <trkpt lat="47.71783" lon="-2.73936">
        <ele>117</ele>
        <time>2015-12-06T15:27:13.000Z</time>
      </trkpt>
      <trkpt lat="47.71781" lon="-2.7394">
        <ele>116.9</ele>
        <time>2015-12-06T15:27:14.000Z</time>
      </trkpt>
      <trkpt lat="47.71779" lon="-2.73945">
        <ele>116.9</ele>
        <time>2015-12-06T15:27:15.000Z</time>
      </trkpt>
      <trkpt lat="47.71777" lon="-2.73949">
        <ele>116.9</ele>
        <time>2015-12-06T15:27:16.000Z</time>
      </trkpt>
      <trkpt lat="47.71776" lon="-2.73953">
        <ele>116.8</ele>
        <time>2015-12-06T15:27:17.000Z</time>
      </trkpt>
      <trkpt lat="47.71775" lon="-2.73957">
        <ele>116.8</ele>
        <time>2015-12-06T15:27:18.000Z</time>
      </trkpt>
      <trkpt lat="47.71775" lon="-2.7396">
        <ele>116.8</ele>
        <time>2015-12-06T15:27:19.000Z</time>
      </trkpt>
      <trkpt lat="47.71774" lon="-2.73964">
        <ele>116.9</ele>
        <time>2015-12-06T15:27:20.000Z</time>
      </trkpt>
      <trkpt lat="47.71772" lon="-2.73968">
        <ele>116.9</ele>
        <time>2015-12-06T15:27:21.000Z</time>
      </trkpt>
      <trkpt lat="47.71771" lon="-2.73972">
        <ele>116.9</ele>
        <time>2015-12-06T15:27:22.000Z</time>
      </trkpt>
      <trkpt lat="47.71769" lon="-2.73975">
        <ele>117</ele>
        <time>2015-12-06T15:27:23.000Z</time>
      </trkpt>
      <trkpt lat="47.71767" lon="-2.73979">
        <ele>117</ele>
        <time>2015-12-06T15:27:24.000Z</time>
      </trkpt>
      <trkpt lat="47.71765" lon="-2.73983">
        <ele>117.1</ele>
        <time>2015-12-06T15:27:25.000Z</time>
      </trkpt>
      <trkpt lat="47.71763" lon="-2.73987">
        <ele>117.1</ele>
        <time>2015-12-06T15:27:26.000Z</time>
      </trkpt>
      <trkpt lat="47.71761" lon="-2.73991">
        <ele>117.2</ele>
        <time>2015-12-06T15:27:27.000Z</time>
      </trkpt>
      <trkpt lat="47.71759" lon="-2.73994">
        <ele>117.2</ele>
        <time>2015-12-06T15:27:28.000Z</time>
      </trkpt>
      <trkpt lat="47.71757" lon="-2.73998">
        <ele>117.3</ele>
        <time>2015-12-06T15:27:29.000Z</time>
      </trkpt>
      <trkpt lat="47.71755" lon="-2.74001">
        <ele>117.3</ele>
        <time>2015-12-06T15:27:30.000Z</time>
      </trkpt>
      <trkpt lat="47.71754" lon="-2.74005">
        <ele>117.4</ele>
        <time>2015-12-06T15:27:31.000Z</time>
      </trkpt>
      <trkpt lat="47.71752" lon="-2.74009">
        <ele>117.4</ele>
        <time>2015-12-06T15:27:32.000Z</time>
      </trkpt>
      <trkpt lat="47.7175" lon="-2.74013">
        <ele>117.5</ele>
        <time>2015-12-06T15:27:33.000Z</time>
      </trkpt>
      <trkpt lat="47.71748" lon="-2.74017">
        <ele>117.6</ele>
        <time>2015-12-06T15:27:34.000Z</time>
      </trkpt>
      <trkpt lat="47.71746" lon="-2.74021">
        <ele>117.6</ele>
        <time>2015-12-06T15:27:35.000Z</time>
      </trkpt>
      <trkpt lat="47.71745" lon="-2.74025">
        <ele>117.7</ele>
        <time>2015-12-06T15:27:36.000Z</time>
      </trkpt>
      <trkpt lat="47.71743" lon="-2.74028">
        <ele>117.7</ele>
        <time>2015-12-06T15:27:37.000Z</time>
      </trkpt>
      <trkpt lat="47.71741" lon="-2.74032">
        <ele>117.8</ele>
        <time>2015-12-06T15:27:38.000Z</time>
      </trkpt>
      <trkpt lat="47.71739" lon="-2.74036">
        <ele>117.9</ele>
        <time>2015-12-06T15:27:39.000Z</time>
      </trkpt>
      <trkpt lat="47.71737" lon="-2.7404">
        <ele>118</ele>
        <time>2015-12-06T15:27:40.000Z</time>
      </trkpt>
      <trkpt lat="47.71735" lon="-2.74044">
        <ele>118</ele>
        <time>2015-12-06T15:27:41.000Z</time>
      </trkpt>
      <trkpt lat="47.71733" lon="-2.74048">
        <ele>118.1</ele>
        <time>2015-12-06T15:27:42.000Z</time>
      </trkpt>
      <trkpt lat="47.71731" lon="-2.74053">
        <ele>118.1</ele>
        <time>2015-12-06T15:27:43.000Z</time>
      </trkpt>
      <trkpt lat="47.71729" lon="-2.74057">
        <ele>118.2</ele>
        <time>2015-12-06T15:27:44.000Z</time>
      </trkpt>
      <trkpt lat="47.71727" lon="-2.74061">
        <ele>118.2</ele>
        <time>2015-12-06T15:27:45.000Z</time>
      </trkpt>
      <trkpt lat="47.71725" lon="-2.74064">
        <ele>118.3</ele>
        <time>2015-12-06T15:27:46.000Z</time>
      </trkpt>
      <trkpt lat="47.71723" lon="-2.74068">
        <ele>118.3</ele>
        <time>2015-12-06T15:27:47.000Z</time>
      </trkpt>
      <trkpt lat="47.71721" lon="-2.74071">
        <ele>118.3</ele>
        <time>2015-12-06T15:27:48.000Z</time>
      </trkpt>
      <trkpt lat="47.71719" lon="-2.74075">
        <ele>118.4</ele>
        <time>2015-12-06T15:27:49.000Z</time>
      </trkpt>
      <trkpt lat="47.71717" lon="-2.74078">
        <ele>118.4</ele>
        <time>2015-12-06T15:27:50.000Z</time>
      </trkpt>
      <trkpt lat="47.71715" lon="-2.74082">
        <ele>118.5</ele>
        <time>2015-12-06T15:27:51.000Z</time>
      </trkpt>
      <trkpt lat="47.71713" lon="-2.74086">
        <ele>118.5</ele>
        <time>2015-12-06T15:27:52.000Z</time>
      </trkpt>
      <trkpt lat="47.71711" lon="-2.74089">
        <ele>118.6</ele>
        <time>2015-12-06T15:27:53.000Z</time>
      </trkpt>
      <trkpt lat="47.71709" lon="-2.74093">
        <ele>118.6</ele>
        <time>2015-12-06T15:27:54.000Z</time>
      </trkpt>
      <trkpt lat="47.71706" lon="-2.74096">
        <ele>118.5</ele>
        <time>2015-12-06T15:27:55.000Z</time>
      </trkpt>
      <trkpt lat="47.71704" lon="-2.741">
        <ele>118.4</ele>
        <time>2015-12-06T15:27:56.000Z</time>
      </trkpt>
      <trkpt lat="47.71701" lon="-2.74104">
        <ele>118.3</ele>
        <time>2015-12-06T15:27:57.000Z</time>
      </trkpt>
      <trkpt lat="47.71697" lon="-2.74109">
        <ele>118.2</ele>
        <time>2015-12-06T15:27:58.000Z</time>
      </trkpt>
      <trkpt lat="47.71694" lon="-2.74113">
        <ele>118</ele>
        <time>2015-12-06T15:27:59.000Z</time>
      </trkpt>
      <trkpt lat="47.7169" lon="-2.74118">
        <ele>117.9</ele>
        <time>2015-12-06T15:28:00.000Z</time>
      </trkpt>
      <trkpt lat="47.71687" lon="-2.74124">
        <ele>117.7</ele>
        <time>2015-12-06T15:28:01.000Z</time>
      </trkpt>
      <trkpt lat="47.71684" lon="-2.74129">
        <ele>117.5</ele>
        <time>2015-12-06T15:28:02.000Z</time>
      </trkpt>
      <trkpt lat="47.71681" lon="-2.74134">
        <ele>117.3</ele>
        <time>2015-12-06T15:28:03.000Z</time>
      </trkpt>
      <trkpt lat="47.71678" lon="-2.74138">
        <ele>117.2</ele>
        <time>2015-12-06T15:28:04.000Z</time>
      </trkpt>
      <trkpt lat="47.71676" lon="-2.74142">
        <ele>117</ele>
        <time>2015-12-06T15:28:05.000Z</time>
      </trkpt>
      <trkpt lat="47.71673" lon="-2.74146">
        <ele>116.9</ele>
        <time>2015-12-06T15:28:06.000Z</time>
      </trkpt>
      <trkpt lat="47.7167" lon="-2.7415">
        <ele>116.7</ele>
        <time>2015-12-06T15:28:07.000Z</time>
      </trkpt>
      <trkpt lat="47.71667" lon="-2.74154">
        <ele>116.5</ele>
        <time>2015-12-06T15:28:08.000Z</time>
      </trkpt>
      <trkpt lat="47.71664" lon="-2.74158">
        <ele>116.3</ele>
        <time>2015-12-06T15:28:09.000Z</time>
      </trkpt>
      <trkpt lat="47.7166" lon="-2.74162">
        <ele>116.1</ele>
        <time>2015-12-06T15:28:10.000Z</time>
      </trkpt>
      <trkpt lat="47.71657" lon="-2.74166">
        <ele>115.9</ele>
        <time>2015-12-06T15:28:11.000Z</time>
      </trkpt>
      <trkpt lat="47.71653" lon="-2.7417">
        <ele>115.7</ele>
        <time>2015-12-06T15:28:12.000Z</time>
      </trkpt>
      <trkpt lat="47.7165" lon="-2.74175">
        <ele>115.5</ele>
        <time>2015-12-06T15:28:13.000Z</time>
      </trkpt>
      <trkpt lat="47.71646" lon="-2.74181">
        <ele>115.2</ele>
        <time>2015-12-06T15:28:14.000Z</time>
      </trkpt>
      <trkpt lat="47.71642" lon="-2.74187">
        <ele>115</ele>
        <time>2015-12-06T15:28:15.000Z</time>
      </trkpt>
      <trkpt lat="47.71638" lon="-2.74192">
        <ele>114.8</ele>
        <time>2015-12-06T15:28:16.000Z</time>
      </trkpt>
      <trkpt lat="47.71634" lon="-2.74196">
        <ele>114.6</ele>
        <time>2015-12-06T15:28:17.000Z</time>
      </trkpt>
      <trkpt lat="47.7163" lon="-2.74201">
        <ele>114.3</ele>
        <time>2015-12-06T15:28:18.000Z</time>
      </trkpt>
      <trkpt lat="47.71626" lon="-2.74206">
        <ele>114</ele>
        <time>2015-12-06T15:28:19.000Z</time>
      </trkpt>
      <trkpt lat="47.71621" lon="-2.7421">
        <ele>113.7</ele>
        <time>2015-12-06T15:28:20.000Z</time>
      </trkpt>
      <trkpt lat="47.71617" lon="-2.74215">
        <ele>113.2</ele>
        <time>2015-12-06T15:28:21.000Z</time>
      </trkpt>
      <trkpt lat="47.71612" lon="-2.74219">
        <ele>112.8</ele>
        <time>2015-12-06T15:28:22.000Z</time>
      </trkpt>
      <trkpt lat="47.71607" lon="-2.74223">
        <ele>112.4</ele>
        <time>2015-12-06T15:28:23.000Z</time>
      </trkpt>
      <trkpt lat="47.71602" lon="-2.74227">
        <ele>111.9</ele>
        <time>2015-12-06T15:28:24.000Z</time>
      </trkpt>
      <trkpt lat="47.71598" lon="-2.74231">
        <ele>111.5</ele>
        <time>2015-12-06T15:28:25.000Z</time>
      </trkpt>
      <trkpt lat="47.71593" lon="-2.74235">
        <ele>111.1</ele>
        <time>2015-12-06T15:28:26.000Z</time>
      </trkpt>
      <trkpt lat="47.71588" lon="-2.7424">
        <ele>110.7</ele>
        <time>2015-12-06T15:28:27.000Z</time>
      </trkpt>
      <trkpt lat="47.71583" lon="-2.74245">
        <ele>110.3</ele>
        <time>2015-12-06T15:28:28.000Z</time>
      </trkpt>
      <trkpt lat="47.71578" lon="-2.74249">
        <ele>109.8</ele>
        <time>2015-12-06T15:28:29.000Z</time>
      </trkpt>
      <trkpt lat="47.71573" lon="-2.74254">
        <ele>109.4</ele>
        <time>2015-12-06T15:28:30.000Z</time>
      </trkpt>
      <trkpt lat="47.71567" lon="-2.74258">
        <ele>109</ele>
        <time>2015-12-06T15:28:31.000Z</time>
      </trkpt>
      <trkpt lat="47.71561" lon="-2.74262">
        <ele>108.5</ele>
        <time>2015-12-06T15:28:32.000Z</time>
      </trkpt>
      <trkpt lat="47.71556" lon="-2.74266">
        <ele>108</ele>
        <time>2015-12-06T15:28:33.000Z</time>
      </trkpt>
      <trkpt lat="47.7155" lon="-2.7427">
        <ele>107.6</ele>
        <time>2015-12-06T15:28:34.000Z</time>
      </trkpt>
      <trkpt lat="47.71544" lon="-2.74274">
        <ele>107.2</ele>
        <time>2015-12-06T15:28:35.000Z</time>
      </trkpt>
      <trkpt lat="47.71539" lon="-2.74278">
        <ele>106.8</ele>
        <time>2015-12-06T15:28:36.000Z</time>
      </trkpt>
      <trkpt lat="47.71534" lon="-2.74283">
        <ele>106.4</ele>
        <time>2015-12-06T15:28:37.000Z</time>
      </trkpt>
      <trkpt lat="47.71528" lon="-2.74287">
        <ele>106</ele>
        <time>2015-12-06T15:28:38.000Z</time>
      </trkpt>
      <trkpt lat="47.71523" lon="-2.74291">
        <ele>105.6</ele>
        <time>2015-12-06T15:28:39.000Z</time>
      </trkpt>
      <trkpt lat="47.71517" lon="-2.74296">
        <ele>105.3</ele>
        <time>2015-12-06T15:28:40.000Z</time>
      </trkpt>
      <trkpt lat="47.71511" lon="-2.74301">
        <ele>105</ele>
        <time>2015-12-06T15:28:41.000Z</time>
      </trkpt>
      <trkpt lat="47.71505" lon="-2.74305">
        <ele>104.6</ele>
        <time>2015-12-06T15:28:42.000Z</time>
      </trkpt>
      <trkpt lat="47.71499" lon="-2.7431">
        <ele>104.3</ele>
        <time>2015-12-06T15:28:43.000Z</time>
      </trkpt>
      <trkpt lat="47.71493" lon="-2.74314">
        <ele>103.8</ele>
        <time>2015-12-06T15:28:44.000Z</time>
      </trkpt>
      <trkpt lat="47.71486" lon="-2.74319">
        <ele>103.4</ele>
        <time>2015-12-06T15:28:45.000Z</time>
      </trkpt>
      <trkpt lat="47.71479" lon="-2.74323">
        <ele>103</ele>
        <time>2015-12-06T15:28:46.000Z</time>
      </trkpt>
      <trkpt lat="47.71473" lon="-2.74326">
        <ele>102.6</ele>
        <time>2015-12-06T15:28:47.000Z</time>
      </trkpt>
      <trkpt lat="47.71468" lon="-2.7433">
        <ele>102.2</ele>
        <time>2015-12-06T15:28:48.000Z</time>
      </trkpt>
      <trkpt lat="47.71464" lon="-2.74334">
        <ele>101.9</ele>
        <time>2015-12-06T15:28:49.000Z</time>
      </trkpt>
      <trkpt lat="47.7146" lon="-2.74338">
        <ele>101.7</ele>
        <time>2015-12-06T15:28:50.000Z</time>
      </trkpt>
      <trkpt lat="47.71457" lon="-2.74341">
        <ele>101.5</ele>
        <time>2015-12-06T15:28:51.000Z</time>
      </trkpt>
      <trkpt lat="47.71453" lon="-2.74345">
        <ele>101.2</ele>
        <time>2015-12-06T15:28:52.000Z</time>
      </trkpt>
      <trkpt lat="47.7145" lon="-2.74347">
        <ele>101</ele>
        <time>2015-12-06T15:28:53.000Z</time>
      </trkpt>
      <trkpt lat="47.71446" lon="-2.7435">
        <ele>100.7</ele>
        <time>2015-12-06T15:28:54.000Z</time>
      </trkpt>
      <trkpt lat="47.71441" lon="-2.74352">
        <ele>100.4</ele>
        <time>2015-12-06T15:28:55.000Z</time>
      </trkpt>
      <trkpt lat="47.71436" lon="-2.74356">
        <ele>99.9</ele>
        <time>2015-12-06T15:28:56.000Z</time>
      </trkpt>
      <trkpt lat="47.71431" lon="-2.7436">
        <ele>99.5</ele>
        <time>2015-12-06T15:28:57.000Z</time>
      </trkpt>
      <trkpt lat="47.71426" lon="-2.74365">
        <ele>99</ele>
        <time>2015-12-06T15:28:58.000Z</time>
      </trkpt>
      <trkpt lat="47.71423" lon="-2.74371">
        <ele>98.7</ele>
        <time>2015-12-06T15:28:59.000Z</time>
      </trkpt>
      <trkpt lat="47.71422" lon="-2.74376">
        <ele>98.5</ele>
        <time>2015-12-06T15:29:00.000Z</time>
      </trkpt>
      <trkpt lat="47.71421" lon="-2.74381">
        <ele>98.4</ele>
        <time>2015-12-06T15:29:01.000Z</time>
      </trkpt>
      <trkpt lat="47.7142" lon="-2.74386">
        <ele>98.4</ele>
        <time>2015-12-06T15:29:02.000Z</time>
      </trkpt>
      <trkpt lat="47.7142" lon="-2.74391">
        <ele>98.4</ele>
        <time>2015-12-06T15:29:03.000Z</time>
      </trkpt>
      <trkpt lat="47.71421" lon="-2.74397">
        <ele>98.5</ele>
        <time>2015-12-06T15:29:04.000Z</time>
      </trkpt>
      <trkpt lat="47.71422" lon="-2.74403">
        <ele>98.6</ele>
        <time>2015-12-06T15:29:05.000Z</time>
      </trkpt>
      <trkpt lat="47.71423" lon="-2.74409">
        <ele>98.8</ele>
        <time>2015-12-06T15:29:06.000Z</time>
      </trkpt>
      <trkpt lat="47.71425" lon="-2.74415">
        <ele>99</ele>
        <time>2015-12-06T15:29:07.000Z</time>
      </trkpt>
      <trkpt lat="47.71426" lon="-2.74421">
        <ele>99.1</ele>
        <time>2015-12-06T15:29:08.000Z</time>
      </trkpt>
      <trkpt lat="47.71428" lon="-2.74427">
        <ele>99.3</ele>
        <time>2015-12-06T15:29:09.000Z</time>
      </trkpt>
      <trkpt lat="47.71429" lon="-2.74433">
        <ele>99.4</ele>
        <time>2015-12-06T15:29:10.000Z</time>
      </trkpt>
      <trkpt lat="47.71431" lon="-2.74439">
        <ele>99.6</ele>
        <time>2015-12-06T15:29:11.000Z</time>
      </trkpt>
      <trkpt lat="47.71433" lon="-2.74444">
        <ele>99.8</ele>
        <time>2015-12-06T15:29:12.000Z</time>
      </trkpt>
      <trkpt lat="47.71436" lon="-2.74448">
        <ele>100.1</ele>
        <time>2015-12-06T15:29:13.000Z</time>
      </trkpt>
      <trkpt lat="47.71439" lon="-2.74452">
        <ele>100.4</ele>
        <time>2015-12-06T15:29:14.000Z</time>
      </trkpt>
      <trkpt lat="47.71441" lon="-2.74457">
        <ele>100.5</ele>
        <time>2015-12-06T15:29:15.000Z</time>
      </trkpt>
      <trkpt lat="47.71442" lon="-2.74462">
        <ele>100.5</ele>
        <time>2015-12-06T15:29:16.000Z</time>
      </trkpt>
      <trkpt lat="47.71444" lon="-2.74466">
        <ele>100.6</ele>
        <time>2015-12-06T15:29:17.000Z</time>
      </trkpt>
      <trkpt lat="47.71445" lon="-2.74471">
        <ele>100.6</ele>
        <time>2015-12-06T15:29:18.000Z</time>
      </trkpt>
      <trkpt lat="47.71447" lon="-2.74476">
        <ele>100.5</ele>
        <time>2015-12-06T15:29:19.000Z</time>
      </trkpt>
      <trkpt lat="47.71448" lon="-2.74482">
        <ele>100.5</ele>
        <time>2015-12-06T15:29:20.000Z</time>
      </trkpt>
      <trkpt lat="47.7145" lon="-2.74488">
        <ele>100.5</ele>
        <time>2015-12-06T15:29:21.000Z</time>
      </trkpt>
      <trkpt lat="47.71451" lon="-2.74495">
        <ele>100.5</ele>
        <time>2015-12-06T15:29:22.000Z</time>
      </trkpt>
      <trkpt lat="47.71453" lon="-2.74502">
        <ele>100.5</ele>
        <time>2015-12-06T15:29:23.000Z</time>
      </trkpt>
      <trkpt lat="47.71454" lon="-2.74509">
        <ele>100.4</ele>
        <time>2015-12-06T15:29:24.000Z</time>
      </trkpt>
      <trkpt lat="47.71456" lon="-2.74516">
        <ele>100.4</ele>
        <time>2015-12-06T15:29:25.000Z</time>
      </trkpt>
      <trkpt lat="47.71458" lon="-2.74524">
        <ele>100.4</ele>
        <time>2015-12-06T15:29:26.000Z</time>
      </trkpt>
      <trkpt lat="47.71459" lon="-2.74531">
        <ele>100.3</ele>
        <time>2015-12-06T15:29:27.000Z</time>
      </trkpt>
      <trkpt lat="47.71461" lon="-2.74539">
        <ele>100.3</ele>
        <time>2015-12-06T15:29:28.000Z</time>
      </trkpt>
      <trkpt lat="47.71463" lon="-2.74546">
        <ele>100.2</ele>
        <time>2015-12-06T15:29:29.000Z</time>
      </trkpt>
      <trkpt lat="47.71466" lon="-2.74553">
        <ele>100</ele>
        <time>2015-12-06T15:29:30.000Z</time>
      </trkpt>
      <trkpt lat="47.71468" lon="-2.74561">
        <ele>99.7</ele>
        <time>2015-12-06T15:29:31.000Z</time>
      </trkpt>
      <trkpt lat="47.7147" lon="-2.74569">
        <ele>99.5</ele>
        <time>2015-12-06T15:29:32.000Z</time>
      </trkpt>
      <trkpt lat="47.71472" lon="-2.74577">
        <ele>99.3</ele>
        <time>2015-12-06T15:29:33.000Z</time>
      </trkpt>
      <trkpt lat="47.71474" lon="-2.74584">
        <ele>99.1</ele>
        <time>2015-12-06T15:29:34.000Z</time>
      </trkpt>
      <trkpt lat="47.71477" lon="-2.74592">
        <ele>98.9</ele>
        <time>2015-12-06T15:29:35.000Z</time>
      </trkpt>
      <trkpt lat="47.71479" lon="-2.746">
        <ele>98.7</ele>
        <time>2015-12-06T15:29:36.000Z</time>
      </trkpt>
      <trkpt lat="47.71481" lon="-2.74607">
        <ele>98.5</ele>
        <time>2015-12-06T15:29:37.000Z</time>
      </trkpt>
      <trkpt lat="47.71483" lon="-2.74615">
        <ele>98.3</ele>
        <time>2015-12-06T15:29:38.000Z</time>
      </trkpt>
      <trkpt lat="47.71485" lon="-2.74622">
        <ele>98.1</ele>
        <time>2015-12-06T15:29:39.000Z</time>
      </trkpt>
      <trkpt lat="47.71488" lon="-2.7463">
        <ele>97.8</ele>
        <time>2015-12-06T15:29:40.000Z</time>
      </trkpt>
      <trkpt lat="47.7149" lon="-2.74638">
        <ele>97.4</ele>
        <time>2015-12-06T15:29:41.000Z</time>
      </trkpt>
      <trkpt lat="47.71493" lon="-2.74646">
        <ele>97</ele>
        <time>2015-12-06T15:29:42.000Z</time>
      </trkpt>
      <trkpt lat="47.71495" lon="-2.74654">
        <ele>96.5</ele>
        <time>2015-12-06T15:29:43.000Z</time>
      </trkpt>
      <trkpt lat="47.71494" lon="-2.74659">
        <ele>96.1</ele>
        <time>2015-12-06T15:29:44.000Z</time>
      </trkpt>
      <trkpt lat="47.71492" lon="-2.74664">
        <ele>95.6</ele>
        <time>2015-12-06T15:29:45.000Z</time>
      </trkpt>
      <trkpt lat="47.71488" lon="-2.74667">
        <ele>95.2</ele>
        <time>2015-12-06T15:29:46.000Z</time>
      </trkpt>
      <trkpt lat="47.71483" lon="-2.74671">
        <ele>94.8</ele>
        <time>2015-12-06T15:29:47.000Z</time>
      </trkpt>
      <trkpt lat="47.71478" lon="-2.74674">
        <ele>94.4</ele>
        <time>2015-12-06T15:29:48.000Z</time>
      </trkpt>
      <trkpt lat="47.71473" lon="-2.74679">
        <ele>93.9</ele>
        <time>2015-12-06T15:29:49.000Z</time>
      </trkpt>
      <trkpt lat="47.71467" lon="-2.74683">
        <ele>93.5</ele>
        <time>2015-12-06T15:29:50.000Z</time>
      </trkpt>
      <trkpt lat="47.71462" lon="-2.74687">
        <ele>93.1</ele>
        <time>2015-12-06T15:29:51.000Z</time>
      </trkpt>
      <trkpt lat="47.71456" lon="-2.7469">
        <ele>92.7</ele>
        <time>2015-12-06T15:29:52.000Z</time>
      </trkpt>
      <trkpt lat="47.71449" lon="-2.74694">
        <ele>92</ele>
        <time>2015-12-06T15:29:53.000Z</time>
      </trkpt>
      <trkpt lat="47.71443" lon="-2.74697">
        <ele>91.4</ele>
        <time>2015-12-06T15:29:54.000Z</time>
      </trkpt>
      <trkpt lat="47.71436" lon="-2.747">
        <ele>90.8</ele>
        <time>2015-12-06T15:29:55.000Z</time>
      </trkpt>
      <trkpt lat="47.71429" lon="-2.74703">
        <ele>90.2</ele>
        <time>2015-12-06T15:29:56.000Z</time>
      </trkpt>
      <trkpt lat="47.71423" lon="-2.74706">
        <ele>89.6</ele>
        <time>2015-12-06T15:29:57.000Z</time>
      </trkpt>
      <trkpt lat="47.71417" lon="-2.7471">
        <ele>88.9</ele>
        <time>2015-12-06T15:29:58.000Z</time>
      </trkpt>
      <trkpt lat="47.71413" lon="-2.74717">
        <ele>88.2</ele>
        <time>2015-12-06T15:29:59.000Z</time>
      </trkpt>
      <trkpt lat="47.7141" lon="-2.74724">
        <ele>87.5</ele>
        <time>2015-12-06T15:30:00.000Z</time>
      </trkpt>
      <trkpt lat="47.71407" lon="-2.74731">
        <ele>86.9</ele>
        <time>2015-12-06T15:30:01.000Z</time>
      </trkpt>
      <trkpt lat="47.71402" lon="-2.74737">
        <ele>86.3</ele>
        <time>2015-12-06T15:30:02.000Z</time>
      </trkpt>
      <trkpt lat="47.71397" lon="-2.74742">
        <ele>85.7</ele>
        <time>2015-12-06T15:30:03.000Z</time>
      </trkpt>
      <trkpt lat="47.71392" lon="-2.74746">
        <ele>85.1</ele>
        <time>2015-12-06T15:30:04.000Z</time>
      </trkpt>
      <trkpt lat="47.71387" lon="-2.74751">
        <ele>84.6</ele>
        <time>2015-12-06T15:30:05.000Z</time>
      </trkpt>
      <trkpt lat="47.71384" lon="-2.74755">
        <ele>84.2</ele>
        <time>2015-12-06T15:30:06.000Z</time>
      </trkpt>
      <trkpt lat="47.71381" lon="-2.74759">
        <ele>83.9</ele>
        <time>2015-12-06T15:30:07.000Z</time>
      </trkpt>
      <trkpt lat="47.7138" lon="-2.74764">
        <ele>83.6</ele>
        <time>2015-12-06T15:30:08.000Z</time>
      </trkpt>
      <trkpt lat="47.7138" lon="-2.7477">
        <ele>83.3</ele>
        <time>2015-12-06T15:30:09.000Z</time>
      </trkpt>
      <trkpt lat="47.71381" lon="-2.74776">
        <ele>83</ele>
        <time>2015-12-06T15:30:10.000Z</time>
      </trkpt>
      <trkpt lat="47.71382" lon="-2.74782">
        <ele>82.7</ele>
        <time>2015-12-06T15:30:11.000Z</time>
      </trkpt>
      <trkpt lat="47.71384" lon="-2.74789">
        <ele>82.4</ele>
        <time>2015-12-06T15:30:12.000Z</time>
      </trkpt>
      <trkpt lat="47.71385" lon="-2.74797">
        <ele>82</ele>
        <time>2015-12-06T15:30:13.000Z</time>
      </trkpt>
      <trkpt lat="47.71386" lon="-2.74805">
        <ele>81.4</ele>
        <time>2015-12-06T15:30:14.000Z</time>
      </trkpt>
      <trkpt lat="47.71387" lon="-2.74813">
        <ele>80.8</ele>
        <time>2015-12-06T15:30:15.000Z</time>
      </trkpt>
      <trkpt lat="47.71387" lon="-2.7482">
        <ele>80.3</ele>
        <time>2015-12-06T15:30:16.000Z</time>
      </trkpt>
      <trkpt lat="47.71387" lon="-2.74826">
        <ele>79.9</ele>
        <time>2015-12-06T15:30:17.000Z</time>
      </trkpt>
      <trkpt lat="47.71388" lon="-2.7483">
        <ele>79.6</ele>
        <time>2015-12-06T15:30:18.000Z</time>
      </trkpt>
      <trkpt lat="47.7139" lon="-2.74834">
        <ele>79.4</ele>
        <time>2015-12-06T15:30:19.000Z</time>
      </trkpt>
      <trkpt lat="47.71391" lon="-2.74836">
        <ele>79.3</ele>
        <time>2015-12-06T15:30:20.000Z</time>
      </trkpt>
      <trkpt lat="47.71393" lon="-2.74837">
        <ele>79.3</ele>
        <time>2015-12-06T15:30:21.000Z</time>
      </trkpt>
      <trkpt lat="47.71395" lon="-2.74838">
        <ele>79.3</ele>
        <time>2015-12-06T15:30:22.000Z</time>
      </trkpt>
      <trkpt lat="47.71397" lon="-2.74838">
        <ele>79.3</ele>
        <time>2015-12-06T15:30:23.000Z</time>
      </trkpt>
      <trkpt lat="47.71399" lon="-2.74839">
        <ele>79.3</ele>
        <time>2015-12-06T15:30:24.000Z</time>
      </trkpt>
      <trkpt lat="47.71401" lon="-2.74839">
        <ele>79.4</ele>
        <time>2015-12-06T15:30:25.000Z</time>
      </trkpt>
      <trkpt lat="47.71404" lon="-2.74838">
        <ele>79.5</ele>
        <time>2015-12-06T15:30:26.000Z</time>
      </trkpt>
      <trkpt lat="47.71408" lon="-2.74837">
        <ele>79.7</ele>
        <time>2015-12-06T15:30:27.000Z</time>
      </trkpt>
      <trkpt lat="47.71413" lon="-2.74836">
        <ele>79.9</ele>
        <time>2015-12-06T15:30:28.000Z</time>
      </trkpt>
      <trkpt lat="47.71418" lon="-2.74836">
        <ele>80.1</ele>
        <time>2015-12-06T15:30:29.000Z</time>
      </trkpt>
      <trkpt lat="47.71423" lon="-2.74834">
        <ele>80.4</ele>
        <time>2015-12-06T15:30:30.000Z</time>
      </trkpt>
      <trkpt lat="47.71428" lon="-2.74833">
        <ele>80.6</ele>
        <time>2015-12-06T15:30:31.000Z</time>
      </trkpt>
      <trkpt lat="47.71432" lon="-2.74831">
        <ele>80.9</ele>
        <time>2015-12-06T15:30:32.000Z</time>
      </trkpt>
      <trkpt lat="47.71436" lon="-2.74829">
        <ele>81.1</ele>
        <time>2015-12-06T15:30:33.000Z</time>
      </trkpt>
      <trkpt lat="47.71439" lon="-2.74828">
        <ele>81.4</ele>
        <time>2015-12-06T15:30:34.000Z</time>
      </trkpt>
      <trkpt lat="47.71442" lon="-2.74826">
        <ele>81.6</ele>
        <time>2015-12-06T15:30:35.000Z</time>
      </trkpt>
      <trkpt lat="47.71446" lon="-2.74824">
        <ele>81.9</ele>
        <time>2015-12-06T15:30:36.000Z</time>
      </trkpt>
      <trkpt lat="47.7145" lon="-2.74822">
        <ele>82.2</ele>
        <time>2015-12-06T15:30:37.000Z</time>
      </trkpt>
      <trkpt lat="47.71453" lon="-2.7482">
        <ele>82.5</ele>
        <time>2015-12-06T15:30:38.000Z</time>
      </trkpt>
      <trkpt lat="47.71457" lon="-2.74818">
        <ele>82.8</ele>
        <time>2015-12-06T15:30:39.000Z</time>
      </trkpt>
      <trkpt lat="47.71461" lon="-2.74816">
        <ele>83</ele>
        <time>2015-12-06T15:30:40.000Z</time>
      </trkpt>
      <trkpt lat="47.71464" lon="-2.74814">
        <ele>83.1</ele>
        <time>2015-12-06T15:30:41.000Z</time>
      </trkpt>
      <trkpt lat="47.71468" lon="-2.74813">
        <ele>83.3</ele>
        <time>2015-12-06T15:30:42.000Z</time>
      </trkpt>
      <trkpt lat="47.71471" lon="-2.74811">
        <ele>83.4</ele>
        <time>2015-12-06T15:30:43.000Z</time>
      </trkpt>
      <trkpt lat="47.71476" lon="-2.74809">
        <ele>83.5</ele>
        <time>2015-12-06T15:30:44.000Z</time>
      </trkpt>
      <trkpt lat="47.7148" lon="-2.74807">
        <ele>83.6</ele>
        <time>2015-12-06T15:30:45.000Z</time>
      </trkpt>
      <trkpt lat="47.71483" lon="-2.74805">
        <ele>83.7</ele>
        <time>2015-12-06T15:30:46.000Z</time>
      </trkpt>
      <trkpt lat="47.71486" lon="-2.74803">
        <ele>83.8</ele>
        <time>2015-12-06T15:30:47.000Z</time>
      </trkpt>
      <trkpt lat="47.7149" lon="-2.74802">
        <ele>83.8</ele>
        <time>2015-12-06T15:30:48.000Z</time>
      </trkpt>
      <trkpt lat="47.71494" lon="-2.74801">
        <ele>83.8</ele>
        <time>2015-12-06T15:30:49.000Z</time>
      </trkpt>
      <trkpt lat="47.71498" lon="-2.748">
        <ele>83.8</ele>
        <time>2015-12-06T15:30:50.000Z</time>
      </trkpt>
      <trkpt lat="47.71502" lon="-2.74798">
        <ele>83.8</ele>
        <time>2015-12-06T15:30:51.000Z</time>
      </trkpt>
      <trkpt lat="47.71506" lon="-2.74797">
        <ele>83.7</ele>
        <time>2015-12-06T15:30:52.000Z</time>
      </trkpt>
      <trkpt lat="47.71511" lon="-2.74795">
        <ele>83.7</ele>
        <time>2015-12-06T15:30:53.000Z</time>
      </trkpt>
      <trkpt lat="47.71516" lon="-2.74795">
        <ele>83.6</ele>
        <time>2015-12-06T15:30:54.000Z</time>
      </trkpt>
      <trkpt lat="47.71522" lon="-2.74795">
        <ele>83.5</ele>
        <time>2015-12-06T15:30:55.000Z</time>
      </trkpt>
      <trkpt lat="47.71526" lon="-2.748">
        <ele>83.4</ele>
        <time>2015-12-06T15:30:56.000Z</time>
      </trkpt>
      <trkpt lat="47.71532" lon="-2.74808">
        <ele>83.4</ele>
        <time>2015-12-06T15:30:57.000Z</time>
      </trkpt>
      <trkpt lat="47.71537" lon="-2.74818">
        <ele>83.6</ele>
        <time>2015-12-06T15:30:58.000Z</time>
      </trkpt>
      <trkpt lat="47.71542" lon="-2.74827">
        <ele>83.9</ele>
        <time>2015-12-06T15:30:59.000Z</time>
      </trkpt>
      <trkpt lat="47.71546" lon="-2.74836">
        <ele>84.5</ele>
        <time>2015-12-06T15:31:00.000Z</time>
      </trkpt>
      <trkpt lat="47.7155" lon="-2.74844">
        <ele>85.1</ele>
        <time>2015-12-06T15:31:01.000Z</time>
      </trkpt>
      <trkpt lat="47.71553" lon="-2.7485">
        <ele>85.6</ele>
        <time>2015-12-06T15:31:02.000Z</time>
      </trkpt>
      <trkpt lat="47.71556" lon="-2.74856">
        <ele>86.1</ele>
        <time>2015-12-06T15:31:03.000Z</time>
      </trkpt>
      <trkpt lat="47.71558" lon="-2.74859">
        <ele>86.5</ele>
        <time>2015-12-06T15:31:04.000Z</time>
      </trkpt>
      <trkpt lat="47.71559" lon="-2.74862">
        <ele>86.7</ele>
        <time>2015-12-06T15:31:05.000Z</time>
      </trkpt>
      <trkpt lat="47.71556" lon="-2.74865">
        <ele>86.5</ele>
        <time>2015-12-06T15:31:06.000Z</time>
      </trkpt>
      <trkpt lat="47.71553" lon="-2.74866">
        <ele>86.2</ele>
        <time>2015-12-06T15:31:07.000Z</time>
      </trkpt>
      <trkpt lat="47.71551" lon="-2.74868">
        <ele>85.9</ele>
        <time>2015-12-06T15:31:08.000Z</time>
      </trkpt>
      <trkpt lat="47.71548" lon="-2.7487">
        <ele>85.6</ele>
        <time>2015-12-06T15:31:09.000Z</time>
      </trkpt>
      <trkpt lat="47.71545" lon="-2.74871">
        <ele>85.4</ele>
        <time>2015-12-06T15:31:10.000Z</time>
      </trkpt>
      <trkpt lat="47.71543" lon="-2.74873">
        <ele>85.1</ele>
        <time>2015-12-06T15:31:11.000Z</time>
      </trkpt>
      <trkpt lat="47.7154" lon="-2.74875">
        <ele>84.8</ele>
        <time>2015-12-06T15:31:12.000Z</time>
      </trkpt>
      <trkpt lat="47.71537" lon="-2.74876">
        <ele>84.7</ele>
        <time>2015-12-06T15:31:13.000Z</time>
      </trkpt>
      <trkpt lat="47.71533" lon="-2.74879">
        <ele>84.5</ele>
        <time>2015-12-06T15:31:14.000Z</time>
      </trkpt>
      <trkpt lat="47.71528" lon="-2.74882">
        <ele>84.3</ele>
        <time>2015-12-06T15:31:15.000Z</time>
      </trkpt>
      <trkpt lat="47.71524" lon="-2.74884">
        <ele>84.1</ele>
        <time>2015-12-06T15:31:16.000Z</time>
      </trkpt>
      <trkpt lat="47.71519" lon="-2.74888">
        <ele>83.8</ele>
        <time>2015-12-06T15:31:17.000Z</time>
      </trkpt>
      <trkpt lat="47.71514" lon="-2.74892">
        <ele>83.5</ele>
        <time>2015-12-06T15:31:18.000Z</time>
      </trkpt>
      <trkpt lat="47.7151" lon="-2.74895">
        <ele>83.2</ele>
        <time>2015-12-06T15:31:19.000Z</time>
      </trkpt>
      <trkpt lat="47.71505" lon="-2.74899">
        <ele>82.8</ele>
        <time>2015-12-06T15:31:20.000Z</time>
      </trkpt>
      <trkpt lat="47.71501" lon="-2.74902">
        <ele>82.4</ele>
        <time>2015-12-06T15:31:21.000Z</time>
      </trkpt>
      <trkpt lat="47.71496" lon="-2.74906">
        <ele>82</ele>
        <time>2015-12-06T15:31:22.000Z</time>
      </trkpt>
      <trkpt lat="47.71492" lon="-2.7491">
        <ele>81.5</ele>
        <time>2015-12-06T15:31:23.000Z</time>
      </trkpt>
      <trkpt lat="47.71487" lon="-2.74914">
        <ele>80.9</ele>
        <time>2015-12-06T15:31:24.000Z</time>
      </trkpt>
      <trkpt lat="47.71483" lon="-2.74918">
        <ele>80.4</ele>
        <time>2015-12-06T15:31:25.000Z</time>
      </trkpt>
      <trkpt lat="47.71479" lon="-2.74923">
        <ele>79.8</ele>
        <time>2015-12-06T15:31:26.000Z</time>
      </trkpt>
      <trkpt lat="47.71474" lon="-2.74927">
        <ele>79.2</ele>
        <time>2015-12-06T15:31:27.000Z</time>
      </trkpt>
      <trkpt lat="47.71471" lon="-2.74932">
        <ele>78.6</ele>
        <time>2015-12-06T15:31:28.000Z</time>
      </trkpt>
      <trkpt lat="47.71467" lon="-2.74936">
        <ele>77.9</ele>
        <time>2015-12-06T15:31:29.000Z</time>
      </trkpt>
      <trkpt lat="47.71463" lon="-2.74941">
        <ele>77.2</ele>
        <time>2015-12-06T15:31:30.000Z</time>
      </trkpt>
      <trkpt lat="47.71458" lon="-2.74945">
        <ele>76.3</ele>
        <time>2015-12-06T15:31:31.000Z</time>
      </trkpt>
      <trkpt lat="47.71453" lon="-2.7495">
        <ele>75.9</ele>
        <time>2015-12-06T15:31:32.000Z</time>
      </trkpt>
      <trkpt lat="47.71449" lon="-2.74955">
        <ele>75.5</ele>
        <time>2015-12-06T15:31:33.000Z</time>
      </trkpt>
      <trkpt lat="47.71447" lon="-2.74962">
        <ele>75.4</ele>
        <time>2015-12-06T15:31:34.000Z</time>
      </trkpt>
      <trkpt lat="47.71444" lon="-2.74968">
        <ele>75.3</ele>
        <time>2015-12-06T15:31:35.000Z</time>
      </trkpt>
      <trkpt lat="47.71443" lon="-2.74974">
        <ele>75.3</ele>
        <time>2015-12-06T15:31:36.000Z</time>
      </trkpt>
      <trkpt lat="47.71441" lon="-2.74979">
        <ele>75.3</ele>
        <time>2015-12-06T15:31:37.000Z</time>
      </trkpt>
      <trkpt lat="47.71439" lon="-2.74985">
        <ele>75.2</ele>
        <time>2015-12-06T15:31:38.000Z</time>
      </trkpt>
      <trkpt lat="47.71437" lon="-2.74989">
        <ele>75.1</ele>
        <time>2015-12-06T15:31:39.000Z</time>
      </trkpt>
      <trkpt lat="47.71435" lon="-2.74993">
        <ele>75</ele>
        <time>2015-12-06T15:31:40.000Z</time>
      </trkpt>
      <trkpt lat="47.71432" lon="-2.74997">
        <ele>74.9</ele>
        <time>2015-12-06T15:31:41.000Z</time>
      </trkpt>
      <trkpt lat="47.71428" lon="-2.75003">
        <ele>74.6</ele>
        <time>2015-12-06T15:31:42.000Z</time>
      </trkpt>
      <trkpt lat="47.71423" lon="-2.75011">
        <ele>74.4</ele>
        <time>2015-12-06T15:31:43.000Z</time>
      </trkpt>
      <trkpt lat="47.7142" lon="-2.75018">
        <ele>74.1</ele>
        <time>2015-12-06T15:31:44.000Z</time>
      </trkpt>
      <trkpt lat="47.71416" lon="-2.75027">
        <ele>73.8</ele>
        <time>2015-12-06T15:31:45.000Z</time>
      </trkpt>
      <trkpt lat="47.71413" lon="-2.75037">
        <ele>73.6</ele>
        <time>2015-12-06T15:31:46.000Z</time>
      </trkpt>
      <trkpt lat="47.7141" lon="-2.75046">
        <ele>73.3</ele>
        <time>2015-12-06T15:31:47.000Z</time>
      </trkpt>
      <trkpt lat="47.71408" lon="-2.75055">
        <ele>73.1</ele>
        <time>2015-12-06T15:31:48.000Z</time>
      </trkpt>
      <trkpt lat="47.71407" lon="-2.75064">
        <ele>72.9</ele>
        <time>2015-12-06T15:31:49.000Z</time>
      </trkpt>
      <trkpt lat="47.71405" lon="-2.75074">
        <ele>72.7</ele>
        <time>2015-12-06T15:31:50.000Z</time>
      </trkpt>
      <trkpt lat="47.71403" lon="-2.75084">
        <ele>72.4</ele>
        <time>2015-12-06T15:31:51.000Z</time>
      </trkpt>
      <trkpt lat="47.71401" lon="-2.75095">
        <ele>72.1</ele>
        <time>2015-12-06T15:31:52.000Z</time>
      </trkpt>
      <trkpt lat="47.714" lon="-2.75105">
        <ele>71.8</ele>
        <time>2015-12-06T15:31:53.000Z</time>
      </trkpt>
      <trkpt lat="47.71398" lon="-2.75115">
        <ele>71.6</ele>
        <time>2015-12-06T15:31:54.000Z</time>
      </trkpt>
      <trkpt lat="47.71396" lon="-2.75124">
        <ele>71.3</ele>
        <time>2015-12-06T15:31:55.000Z</time>
      </trkpt>
      <trkpt lat="47.71394" lon="-2.75132">
        <ele>71.1</ele>
        <time>2015-12-06T15:31:56.000Z</time>
      </trkpt>
      <trkpt lat="47.71392" lon="-2.7514">
        <ele>70.9</ele>
        <time>2015-12-06T15:31:57.000Z</time>
      </trkpt>
      <trkpt lat="47.7139" lon="-2.75146">
        <ele>70.8</ele>
        <time>2015-12-06T15:31:58.000Z</time>
      </trkpt>
      <trkpt lat="47.71388" lon="-2.75153">
        <ele>70.7</ele>
        <time>2015-12-06T15:31:59.000Z</time>
      </trkpt>
      <trkpt lat="47.71386" lon="-2.75161">
        <ele>70.5</ele>
        <time>2015-12-06T15:32:00.000Z</time>
      </trkpt>
      <trkpt lat="47.71384" lon="-2.75168">
        <ele>70.4</ele>
        <time>2015-12-06T15:32:01.000Z</time>
      </trkpt>
      <trkpt lat="47.71382" lon="-2.75176">
        <ele>70.3</ele>
        <time>2015-12-06T15:32:02.000Z</time>
      </trkpt>
      <trkpt lat="47.7138" lon="-2.75182">
        <ele>70.1</ele>
        <time>2015-12-06T15:32:03.000Z</time>
      </trkpt>
      <trkpt lat="47.71379" lon="-2.75188">
        <ele>70.1</ele>
        <time>2015-12-06T15:32:04.000Z</time>
      </trkpt>
      <trkpt lat="47.71378" lon="-2.75194">
        <ele>70.1</ele>
        <time>2015-12-06T15:32:05.000Z</time>
      </trkpt>
      <trkpt lat="47.71378" lon="-2.75201">
        <ele>70.2</ele>
        <time>2015-12-06T15:32:06.000Z</time>
      </trkpt>
      <trkpt lat="47.71379" lon="-2.75208">
        <ele>70.3</ele>
        <time>2015-12-06T15:32:07.000Z</time>
      </trkpt>
      <trkpt lat="47.7138" lon="-2.75215">
        <ele>70.3</ele>
        <time>2015-12-06T15:32:08.000Z</time>
      </trkpt>
      <trkpt lat="47.71381" lon="-2.75222">
        <ele>70.3</ele>
        <time>2015-12-06T15:32:09.000Z</time>
      </trkpt>
      <trkpt lat="47.71382" lon="-2.7523">
        <ele>70.3</ele>
        <time>2015-12-06T15:32:10.000Z</time>
      </trkpt>
      <trkpt lat="47.71383" lon="-2.75238">
        <ele>70.3</ele>
        <time>2015-12-06T15:32:11.000Z</time>
      </trkpt>
      <trkpt lat="47.71384" lon="-2.75246">
        <ele>70.2</ele>
        <time>2015-12-06T15:32:12.000Z</time>
      </trkpt>
      <trkpt lat="47.71385" lon="-2.75254">
        <ele>70.2</ele>
        <time>2015-12-06T15:32:13.000Z</time>
      </trkpt>
      <trkpt lat="47.71386" lon="-2.75261">
        <ele>70.2</ele>
        <time>2015-12-06T15:32:14.000Z</time>
      </trkpt>
      <trkpt lat="47.71387" lon="-2.75269">
        <ele>70.2</ele>
        <time>2015-12-06T15:32:15.000Z</time>
      </trkpt>
      <trkpt lat="47.71388" lon="-2.75277">
        <ele>70.2</ele>
        <time>2015-12-06T15:32:16.000Z</time>
      </trkpt>
      <trkpt lat="47.71389" lon="-2.75285">
        <ele>70.1</ele>
        <time>2015-12-06T15:32:17.000Z</time>
      </trkpt>
      <trkpt lat="47.71391" lon="-2.75294">
        <ele>70.1</ele>
        <time>2015-12-06T15:32:18.000Z</time>
      </trkpt>
      <trkpt lat="47.71392" lon="-2.75303">
        <ele>70</ele>
        <time>2015-12-06T15:32:19.000Z</time>
      </trkpt>
      <trkpt lat="47.71393" lon="-2.75312">
        <ele>70</ele>
        <time>2015-12-06T15:32:20.000Z</time>
      </trkpt>
      <trkpt lat="47.71394" lon="-2.75321">
        <ele>70</ele>
        <time>2015-12-06T15:32:21.000Z</time>
      </trkpt>
      <trkpt lat="47.71396" lon="-2.7533">
        <ele>69.9</ele>
        <time>2015-12-06T15:32:22.000Z</time>
      </trkpt>
      <trkpt lat="47.71397" lon="-2.75339">
        <ele>69.9</ele>
        <time>2015-12-06T15:32:23.000Z</time>
      </trkpt>
      <trkpt lat="47.71398" lon="-2.75348">
        <ele>69.8</ele>
        <time>2015-12-06T15:32:24.000Z</time>
      </trkpt>
      <trkpt lat="47.71399" lon="-2.75358">
        <ele>69.7</ele>
        <time>2015-12-06T15:32:25.000Z</time>
      </trkpt>
      <trkpt lat="47.714" lon="-2.75367">
        <ele>69.6</ele>
        <time>2015-12-06T15:32:26.000Z</time>
      </trkpt>
      <trkpt lat="47.71401" lon="-2.75377">
        <ele>69.6</ele>
        <time>2015-12-06T15:32:27.000Z</time>
      </trkpt>
      <trkpt lat="47.71402" lon="-2.75385">
        <ele>69.7</ele>
        <time>2015-12-06T15:32:28.000Z</time>
      </trkpt>
      <trkpt lat="47.71403" lon="-2.75394">
        <ele>69.7</ele>
        <time>2015-12-06T15:32:29.000Z</time>
      </trkpt>
      <trkpt lat="47.71403" lon="-2.75402">
        <ele>69.8</ele>
        <time>2015-12-06T15:32:30.000Z</time>
      </trkpt>
      <trkpt lat="47.71402" lon="-2.75409">
        <ele>69.8</ele>
        <time>2015-12-06T15:32:31.000Z</time>
      </trkpt>
      <trkpt lat="47.71399" lon="-2.75415">
        <ele>69.6</ele>
        <time>2015-12-06T15:32:32.000Z</time>
      </trkpt>
      <trkpt lat="47.71395" lon="-2.7542">
        <ele>69.4</ele>
        <time>2015-12-06T15:32:33.000Z</time>
      </trkpt>
      <trkpt lat="47.71391" lon="-2.75425">
        <ele>69</ele>
        <time>2015-12-06T15:32:34.000Z</time>
      </trkpt>
      <trkpt lat="47.71385" lon="-2.7543">
        <ele>68.7</ele>
        <time>2015-12-06T15:32:35.000Z</time>
      </trkpt>
      <trkpt lat="47.71379" lon="-2.75434">
        <ele>68.3</ele>
        <time>2015-12-06T15:32:36.000Z</time>
      </trkpt>
      <trkpt lat="47.71373" lon="-2.75437">
        <ele>67.9</ele>
        <time>2015-12-06T15:32:37.000Z</time>
      </trkpt>
      <trkpt lat="47.71366" lon="-2.7544">
        <ele>67.7</ele>
        <time>2015-12-06T15:32:38.000Z</time>
      </trkpt>
      <trkpt lat="47.71359" lon="-2.75442">
        <ele>67.5</ele>
        <time>2015-12-06T15:32:39.000Z</time>
      </trkpt>
      <trkpt lat="47.71353" lon="-2.75445">
        <ele>67.2</ele>
        <time>2015-12-06T15:32:40.000Z</time>
      </trkpt>
      <trkpt lat="47.71346" lon="-2.75447">
        <ele>67</ele>
        <time>2015-12-06T15:32:41.000Z</time>
      </trkpt>
      <trkpt lat="47.71339" lon="-2.75448">
        <ele>66.8</ele>
        <time>2015-12-06T15:32:42.000Z</time>
      </trkpt>
      <trkpt lat="47.71332" lon="-2.7545">
        <ele>66.5</ele>
        <time>2015-12-06T15:32:43.000Z</time>
      </trkpt>
      <trkpt lat="47.71325" lon="-2.75452">
        <ele>66.3</ele>
        <time>2015-12-06T15:32:44.000Z</time>
      </trkpt>
      <trkpt lat="47.71319" lon="-2.75454">
        <ele>66</ele>
        <time>2015-12-06T15:32:45.000Z</time>
      </trkpt>
      <trkpt lat="47.71312" lon="-2.75457">
        <ele>65.7</ele>
        <time>2015-12-06T15:32:46.000Z</time>
      </trkpt>
      <trkpt lat="47.71305" lon="-2.7546">
        <ele>65.5</ele>
        <time>2015-12-06T15:32:47.000Z</time>
      </trkpt>
      <trkpt lat="47.71299" lon="-2.75463">
        <ele>65.2</ele>
        <time>2015-12-06T15:32:48.000Z</time>
      </trkpt>
      <trkpt lat="47.71292" lon="-2.75466">
        <ele>65</ele>
        <time>2015-12-06T15:32:49.000Z</time>
      </trkpt>
      <trkpt lat="47.71285" lon="-2.75468">
        <ele>65</ele>
        <time>2015-12-06T15:32:50.000Z</time>
      </trkpt>
      <trkpt lat="47.71279" lon="-2.75471">
        <ele>65</ele>
        <time>2015-12-06T15:32:51.000Z</time>
      </trkpt>
      <trkpt lat="47.71273" lon="-2.75474">
        <ele>65</ele>
        <time>2015-12-06T15:32:52.000Z</time>
      </trkpt>
      <trkpt lat="47.71267" lon="-2.75478">
        <ele>65.1</ele>
        <time>2015-12-06T15:32:53.000Z</time>
      </trkpt>
      <trkpt lat="47.71261" lon="-2.75483">
        <ele>65.1</ele>
        <time>2015-12-06T15:32:54.000Z</time>
      </trkpt>
      <trkpt lat="47.71255" lon="-2.75488">
        <ele>65.2</ele>
        <time>2015-12-06T15:32:55.000Z</time>
      </trkpt>
      <trkpt lat="47.71249" lon="-2.75493">
        <ele>65.2</ele>
        <time>2015-12-06T15:32:56.000Z</time>
      </trkpt>
      <trkpt lat="47.71244" lon="-2.75499">
        <ele>65.3</ele>
        <time>2015-12-06T15:32:57.000Z</time>
      </trkpt>
      <trkpt lat="47.71239" lon="-2.75506">
        <ele>65.4</ele>
        <time>2015-12-06T15:32:58.000Z</time>
      </trkpt>
      <trkpt lat="47.71235" lon="-2.75513">
        <ele>65.4</ele>
        <time>2015-12-06T15:32:59.000Z</time>
      </trkpt>
      <trkpt lat="47.71232" lon="-2.75522">
        <ele>65.5</ele>
        <time>2015-12-06T15:33:00.000Z</time>
      </trkpt>
      <trkpt lat="47.71228" lon="-2.7553">
        <ele>65.7</ele>
        <time>2015-12-06T15:33:01.000Z</time>
      </trkpt>
      <trkpt lat="47.71225" lon="-2.75538">
        <ele>65.8</ele>
        <time>2015-12-06T15:33:02.000Z</time>
      </trkpt>
      <trkpt lat="47.71222" lon="-2.75546">
        <ele>65.9</ele>
        <time>2015-12-06T15:33:03.000Z</time>
      </trkpt>
      <trkpt lat="47.71218" lon="-2.75554">
        <ele>66</ele>
        <time>2015-12-06T15:33:04.000Z</time>
      </trkpt>
      <trkpt lat="47.71215" lon="-2.75562">
        <ele>66.2</ele>
        <time>2015-12-06T15:33:05.000Z</time>
      </trkpt>
      <trkpt lat="47.71212" lon="-2.7557">
        <ele>66.3</ele>
        <time>2015-12-06T15:33:06.000Z</time>
      </trkpt>
      <trkpt lat="47.71209" lon="-2.75578">
        <ele>66.4</ele>
        <time>2015-12-06T15:33:07.000Z</time>
      </trkpt>
      <trkpt lat="47.71206" lon="-2.75585">
        <ele>66.6</ele>
        <time>2015-12-06T15:33:08.000Z</time>
      </trkpt>
      <trkpt lat="47.71203" lon="-2.75592">
        <ele>66.7</ele>
        <time>2015-12-06T15:33:09.000Z</time>
      </trkpt>
      <trkpt lat="47.71199" lon="-2.75599">
        <ele>66.8</ele>
        <time>2015-12-06T15:33:10.000Z</time>
      </trkpt>
      <trkpt lat="47.71195" lon="-2.75605">
        <ele>67</ele>
        <time>2015-12-06T15:33:11.000Z</time>
      </trkpt>
      <trkpt lat="47.71191" lon="-2.75611">
        <ele>67.1</ele>
        <time>2015-12-06T15:33:12.000Z</time>
      </trkpt>
      <trkpt lat="47.71187" lon="-2.75616">
        <ele>67.2</ele>
        <time>2015-12-06T15:33:13.000Z</time>
      </trkpt>
      <trkpt lat="47.71182" lon="-2.75621">
        <ele>67.3</ele>
        <time>2015-12-06T15:33:14.000Z</time>
      </trkpt>
      <trkpt lat="47.71177" lon="-2.75625">
        <ele>67.4</ele>
        <time>2015-12-06T15:33:15.000Z</time>
      </trkpt>
      <trkpt lat="47.71172" lon="-2.75628">
        <ele>67.5</ele>
        <time>2015-12-06T15:33:16.000Z</time>
      </trkpt>
      <trkpt lat="47.71166" lon="-2.75632">
        <ele>67.6</ele>
        <time>2015-12-06T15:33:17.000Z</time>
      </trkpt>
      <trkpt lat="47.71161" lon="-2.75635">
        <ele>67.7</ele>
        <time>2015-12-06T15:33:18.000Z</time>
      </trkpt>
      <trkpt lat="47.71156" lon="-2.75639">
        <ele>67.7</ele>
        <time>2015-12-06T15:33:19.000Z</time>
      </trkpt>
      <trkpt lat="47.7115" lon="-2.75643">
        <ele>67.7</ele>
        <time>2015-12-06T15:33:20.000Z</time>
      </trkpt>
      <trkpt lat="47.71145" lon="-2.75647">
        <ele>67.7</ele>
        <time>2015-12-06T15:33:21.000Z</time>
      </trkpt>
      <trkpt lat="47.7114" lon="-2.7565">
        <ele>67.7</ele>
        <time>2015-12-06T15:33:22.000Z</time>
      </trkpt>
      <trkpt lat="47.71135" lon="-2.75653">
        <ele>67.7</ele>
        <time>2015-12-06T15:33:23.000Z</time>
      </trkpt>
      <trkpt lat="47.7113" lon="-2.75656">
        <ele>67.7</ele>
        <time>2015-12-06T15:33:24.000Z</time>
      </trkpt>
      <trkpt lat="47.71125" lon="-2.75658">
        <ele>67.6</ele>
        <time>2015-12-06T15:33:25.000Z</time>
      </trkpt>
      <trkpt lat="47.7112" lon="-2.75661">
        <ele>67.5</ele>
        <time>2015-12-06T15:33:26.000Z</time>
      </trkpt>
      <trkpt lat="47.71116" lon="-2.75663">
        <ele>67.3</ele>
        <time>2015-12-06T15:33:27.000Z</time>
      </trkpt>
      <trkpt lat="47.71112" lon="-2.75666">
        <ele>67.2</ele>
        <time>2015-12-06T15:33:28.000Z</time>
      </trkpt>
      <trkpt lat="47.71108" lon="-2.75669">
        <ele>67.1</ele>
        <time>2015-12-06T15:33:29.000Z</time>
      </trkpt>
      <trkpt lat="47.71104" lon="-2.75673">
        <ele>66.9</ele>
        <time>2015-12-06T15:33:30.000Z</time>
      </trkpt>
      <trkpt lat="47.711" lon="-2.75676">
        <ele>66.8</ele>
        <time>2015-12-06T15:33:31.000Z</time>
      </trkpt>
      <trkpt lat="47.71096" lon="-2.75679">
        <ele>66.6</ele>
        <time>2015-12-06T15:33:32.000Z</time>
      </trkpt>
      <trkpt lat="47.71091" lon="-2.75681">
        <ele>66.5</ele>
        <time>2015-12-06T15:33:33.000Z</time>
      </trkpt>
      <trkpt lat="47.71087" lon="-2.75683">
        <ele>66.4</ele>
        <time>2015-12-06T15:33:34.000Z</time>
      </trkpt>
      <trkpt lat="47.71082" lon="-2.75685">
        <ele>66.3</ele>
        <time>2015-12-06T15:33:35.000Z</time>
      </trkpt>
      <trkpt lat="47.71078" lon="-2.75686">
        <ele>66.1</ele>
        <time>2015-12-06T15:33:36.000Z</time>
      </trkpt>
      <trkpt lat="47.71073" lon="-2.75687">
        <ele>66</ele>
        <time>2015-12-06T15:33:37.000Z</time>
      </trkpt>
      <trkpt lat="47.71068" lon="-2.75688">
        <ele>65.9</ele>
        <time>2015-12-06T15:33:38.000Z</time>
      </trkpt>
      <trkpt lat="47.71062" lon="-2.75688">
        <ele>65.7</ele>
        <time>2015-12-06T15:33:39.000Z</time>
      </trkpt>
      <trkpt lat="47.71057" lon="-2.75689">
        <ele>65.6</ele>
        <time>2015-12-06T15:33:40.000Z</time>
      </trkpt>
      <trkpt lat="47.71052" lon="-2.75689">
        <ele>65.5</ele>
        <time>2015-12-06T15:33:41.000Z</time>
      </trkpt>
      <trkpt lat="47.71046" lon="-2.7569">
        <ele>65.3</ele>
        <time>2015-12-06T15:33:42.000Z</time>
      </trkpt>
      <trkpt lat="47.71041" lon="-2.7569">
        <ele>65.2</ele>
        <time>2015-12-06T15:33:43.000Z</time>
      </trkpt>
      <trkpt lat="47.71035" lon="-2.75691">
        <ele>65</ele>
        <time>2015-12-06T15:33:44.000Z</time>
      </trkpt>
      <trkpt lat="47.71029" lon="-2.75691">
        <ele>64.7</ele>
        <time>2015-12-06T15:33:45.000Z</time>
      </trkpt>
      <trkpt lat="47.71023" lon="-2.75691">
        <ele>64.5</ele>
        <time>2015-12-06T15:33:46.000Z</time>
      </trkpt>
      <trkpt lat="47.71018" lon="-2.75692">
        <ele>64.3</ele>
        <time>2015-12-06T15:33:47.000Z</time>
      </trkpt>
      <trkpt lat="47.71012" lon="-2.75693">
        <ele>64</ele>
        <time>2015-12-06T15:33:48.000Z</time>
      </trkpt>
      <trkpt lat="47.71006" lon="-2.75694">
        <ele>63.8</ele>
        <time>2015-12-06T15:33:49.000Z</time>
      </trkpt>
      <trkpt lat="47.71" lon="-2.75695">
        <ele>63.6</ele>
        <time>2015-12-06T15:33:50.000Z</time>
      </trkpt>
      <trkpt lat="47.70994" lon="-2.75695">
        <ele>63.4</ele>
        <time>2015-12-06T15:33:51.000Z</time>
      </trkpt>
      <trkpt lat="47.70988" lon="-2.75694">
        <ele>63.1</ele>
        <time>2015-12-06T15:33:52.000Z</time>
      </trkpt>
      <trkpt lat="47.70981" lon="-2.75694">
        <ele>62.9</ele>
        <time>2015-12-06T15:33:53.000Z</time>
      </trkpt>
      <trkpt lat="47.70974" lon="-2.75694">
        <ele>62.6</ele>
        <time>2015-12-06T15:33:54.000Z</time>
      </trkpt>
      <trkpt lat="47.70967" lon="-2.75695">
        <ele>62.3</ele>
        <time>2015-12-06T15:33:55.000Z</time>
      </trkpt>
      <trkpt lat="47.70959" lon="-2.75696">
        <ele>62</ele>
        <time>2015-12-06T15:33:56.000Z</time>
      </trkpt>
      <trkpt lat="47.70952" lon="-2.75698">
        <ele>61.9</ele>
        <time>2015-12-06T15:33:57.000Z</time>
      </trkpt>
      <trkpt lat="47.70944" lon="-2.757">
        <ele>61.8</ele>
        <time>2015-12-06T15:33:58.000Z</time>
      </trkpt>
      <trkpt lat="47.70937" lon="-2.75703">
        <ele>61.7</ele>
        <time>2015-12-06T15:33:59.000Z</time>
      </trkpt>
      <trkpt lat="47.70929" lon="-2.75705">
        <ele>61.6</ele>
        <time>2015-12-06T15:34:00.000Z</time>
      </trkpt>
      <trkpt lat="47.70921" lon="-2.75708">
        <ele>61.6</ele>
        <time>2015-12-06T15:34:01.000Z</time>
      </trkpt>
      <trkpt lat="47.70914" lon="-2.75711">
        <ele>61.5</ele>
        <time>2015-12-06T15:34:02.000Z</time>
      </trkpt>
      <trkpt lat="47.70906" lon="-2.75715">
        <ele>61.5</ele>
        <time>2015-12-06T15:34:03.000Z</time>
      </trkpt>
      <trkpt lat="47.70899" lon="-2.75719">
        <ele>61.4</ele>
        <time>2015-12-06T15:34:04.000Z</time>
      </trkpt>
      <trkpt lat="47.70892" lon="-2.75723">
        <ele>61.4</ele>
        <time>2015-12-06T15:34:05.000Z</time>
      </trkpt>
      <trkpt lat="47.70885" lon="-2.75727">
        <ele>61.3</ele>
        <time>2015-12-06T15:34:06.000Z</time>
      </trkpt>
      <trkpt lat="47.70878" lon="-2.75731">
        <ele>61.3</ele>
        <time>2015-12-06T15:34:07.000Z</time>
      </trkpt>
      <trkpt lat="47.70871" lon="-2.75735">
        <ele>61.1</ele>
        <time>2015-12-06T15:34:08.000Z</time>
      </trkpt>
      <trkpt lat="47.70865" lon="-2.75739">
        <ele>60.9</ele>
        <time>2015-12-06T15:34:09.000Z</time>
      </trkpt>
      <trkpt lat="47.7086" lon="-2.75743">
        <ele>60.7</ele>
        <time>2015-12-06T15:34:10.000Z</time>
      </trkpt>
      <trkpt lat="47.70855" lon="-2.75747">
        <ele>60.6</ele>
        <time>2015-12-06T15:34:11.000Z</time>
      </trkpt>
      <trkpt lat="47.70851" lon="-2.75753">
        <ele>60.6</ele>
        <time>2015-12-06T15:34:12.000Z</time>
      </trkpt>
      <trkpt lat="47.70847" lon="-2.75759">
        <ele>60.6</ele>
        <time>2015-12-06T15:34:13.000Z</time>
      </trkpt>
      <trkpt lat="47.70845" lon="-2.75767">
        <ele>60.7</ele>
        <time>2015-12-06T15:34:14.000Z</time>
      </trkpt>
      <trkpt lat="47.70844" lon="-2.75774">
        <ele>60.8</ele>
        <time>2015-12-06T15:34:15.000Z</time>
      </trkpt>
      <trkpt lat="47.70843" lon="-2.75782">
        <ele>61</ele>
        <time>2015-12-06T15:34:16.000Z</time>
      </trkpt>
      <trkpt lat="47.70841" lon="-2.75788">
        <ele>61.1</ele>
        <time>2015-12-06T15:34:17.000Z</time>
      </trkpt>
      <trkpt lat="47.70838" lon="-2.75794">
        <ele>61.2</ele>
        <time>2015-12-06T15:34:18.000Z</time>
      </trkpt>
      <trkpt lat="47.70835" lon="-2.75799">
        <ele>61.2</ele>
        <time>2015-12-06T15:34:19.000Z</time>
      </trkpt>
      <trkpt lat="47.70832" lon="-2.75805">
        <ele>61.3</ele>
        <time>2015-12-06T15:34:20.000Z</time>
      </trkpt>
      <trkpt lat="47.70828" lon="-2.7581">
        <ele>61.3</ele>
        <time>2015-12-06T15:34:21.000Z</time>
      </trkpt>
      <trkpt lat="47.70824" lon="-2.75815">
        <ele>61.4</ele>
        <time>2015-12-06T15:34:22.000Z</time>
      </trkpt>
      <trkpt lat="47.70821" lon="-2.75821">
        <ele>61.5</ele>
        <time>2015-12-06T15:34:23.000Z</time>
      </trkpt>
      <trkpt lat="47.70817" lon="-2.75828">
        <ele>61.6</ele>
        <time>2015-12-06T15:34:24.000Z</time>
      </trkpt>
      <trkpt lat="47.70813" lon="-2.75835">
        <ele>61.8</ele>
        <time>2015-12-06T15:34:25.000Z</time>
      </trkpt>
      <trkpt lat="47.70809" lon="-2.75842">
        <ele>62</ele>
        <time>2015-12-06T15:34:26.000Z</time>
      </trkpt>
      <trkpt lat="47.70805" lon="-2.75849">
        <ele>62.2</ele>
        <time>2015-12-06T15:34:27.000Z</time>
      </trkpt>
      <trkpt lat="47.70801" lon="-2.75855">
        <ele>62.3</ele>
        <time>2015-12-06T15:34:28.000Z</time>
      </trkpt>
      <trkpt lat="47.70797" lon="-2.75862">
        <ele>62.5</ele>
        <time>2015-12-06T15:34:29.000Z</time>
      </trkpt>
      <trkpt lat="47.70794" lon="-2.75867">
        <ele>62.7</ele>
        <time>2015-12-06T15:34:30.000Z</time>
      </trkpt>
      <trkpt lat="47.7079" lon="-2.75873">
        <ele>62.9</ele>
        <time>2015-12-06T15:34:31.000Z</time>
      </trkpt>
      <trkpt lat="47.70786" lon="-2.75879">
        <ele>62.8</ele>
        <time>2015-12-06T15:34:32.000Z</time>
      </trkpt>
      <trkpt lat="47.70782" lon="-2.75887">
        <ele>62.7</ele>
        <time>2015-12-06T15:34:33.000Z</time>
      </trkpt>
      <trkpt lat="47.70779" lon="-2.75894">
        <ele>62.6</ele>
        <time>2015-12-06T15:34:34.000Z</time>
      </trkpt>
      <trkpt lat="47.70775" lon="-2.75902">
        <ele>62.6</ele>
        <time>2015-12-06T15:34:35.000Z</time>
      </trkpt>
      <trkpt lat="47.70771" lon="-2.75909">
        <ele>62.6</ele>
        <time>2015-12-06T15:34:36.000Z</time>
      </trkpt>
      <trkpt lat="47.70768" lon="-2.75915">
        <ele>62.6</ele>
        <time>2015-12-06T15:34:37.000Z</time>
      </trkpt>
      <trkpt lat="47.70765" lon="-2.75922">
        <ele>62.6</ele>
        <time>2015-12-06T15:34:38.000Z</time>
      </trkpt>
      <trkpt lat="47.70761" lon="-2.75929">
        <ele>62.6</ele>
        <time>2015-12-06T15:34:39.000Z</time>
      </trkpt>
      <trkpt lat="47.70758" lon="-2.75936">
        <ele>62.7</ele>
        <time>2015-12-06T15:34:40.000Z</time>
      </trkpt>
      <trkpt lat="47.70755" lon="-2.75943">
        <ele>62.8</ele>
        <time>2015-12-06T15:34:41.000Z</time>
      </trkpt>
      <trkpt lat="47.70753" lon="-2.7595">
        <ele>62.9</ele>
        <time>2015-12-06T15:34:42.000Z</time>
      </trkpt>
      <trkpt lat="47.70751" lon="-2.75957">
        <ele>63</ele>
        <time>2015-12-06T15:34:43.000Z</time>
      </trkpt>
      <trkpt lat="47.70749" lon="-2.75964">
        <ele>63.1</ele>
        <time>2015-12-06T15:34:44.000Z</time>
      </trkpt>
      <trkpt lat="47.70747" lon="-2.75971">
        <ele>63.3</ele>
        <time>2015-12-06T15:34:45.000Z</time>
      </trkpt>
      <trkpt lat="47.70745" lon="-2.75979">
        <ele>63.4</ele>
        <time>2015-12-06T15:34:46.000Z</time>
      </trkpt>
      <trkpt lat="47.70742" lon="-2.75986">
        <ele>63.6</ele>
        <time>2015-12-06T15:34:47.000Z</time>
      </trkpt>
      <trkpt lat="47.7074" lon="-2.75994">
        <ele>63.8</ele>
        <time>2015-12-06T15:34:48.000Z</time>
      </trkpt>
      <trkpt lat="47.70738" lon="-2.76001">
        <ele>64</ele>
        <time>2015-12-06T15:34:49.000Z</time>
      </trkpt>
      <trkpt lat="47.70736" lon="-2.76009">
        <ele>64.2</ele>
        <time>2015-12-06T15:34:50.000Z</time>
      </trkpt>
      <trkpt lat="47.70734" lon="-2.76016">
        <ele>64.4</ele>
        <time>2015-12-06T15:34:51.000Z</time>
      </trkpt>
      <trkpt lat="47.70732" lon="-2.76024">
        <ele>64.7</ele>
        <time>2015-12-06T15:34:52.000Z</time>
      </trkpt>
      <trkpt lat="47.70729" lon="-2.76033">
        <ele>65</ele>
        <time>2015-12-06T15:34:53.000Z</time>
      </trkpt>
      <trkpt lat="47.70727" lon="-2.76042">
        <ele>65.3</ele>
        <time>2015-12-06T15:34:54.000Z</time>
      </trkpt>
      <trkpt lat="47.70725" lon="-2.7605">
        <ele>65.5</ele>
        <time>2015-12-06T15:34:55.000Z</time>
      </trkpt>
      <trkpt lat="47.70723" lon="-2.76059">
        <ele>65.6</ele>
        <time>2015-12-06T15:34:56.000Z</time>
      </trkpt>
      <trkpt lat="47.70721" lon="-2.76067">
        <ele>65.8</ele>
        <time>2015-12-06T15:34:57.000Z</time>
      </trkpt>
      <trkpt lat="47.70719" lon="-2.76076">
        <ele>65.9</ele>
        <time>2015-12-06T15:34:58.000Z</time>
      </trkpt>
      <trkpt lat="47.70717" lon="-2.76084">
        <ele>66.1</ele>
        <time>2015-12-06T15:34:59.000Z</time>
      </trkpt>
      <trkpt lat="47.70715" lon="-2.76091">
        <ele>66.3</ele>
        <time>2015-12-06T15:35:00.000Z</time>
      </trkpt>
      <trkpt lat="47.70713" lon="-2.76099">
        <ele>66.4</ele>
        <time>2015-12-06T15:35:01.000Z</time>
      </trkpt>
      <trkpt lat="47.70711" lon="-2.76107">
        <ele>66.6</ele>
        <time>2015-12-06T15:35:02.000Z</time>
      </trkpt>
      <trkpt lat="47.7071" lon="-2.76115">
        <ele>66.8</ele>
        <time>2015-12-06T15:35:03.000Z</time>
      </trkpt>
      <trkpt lat="47.70708" lon="-2.76123">
        <ele>67</ele>
        <time>2015-12-06T15:35:04.000Z</time>
      </trkpt>
      <trkpt lat="47.70706" lon="-2.7613">
        <ele>66.9</ele>
        <time>2015-12-06T15:35:05.000Z</time>
      </trkpt>
      <trkpt lat="47.70705" lon="-2.76137">
        <ele>66.7</ele>
        <time>2015-12-06T15:35:06.000Z</time>
      </trkpt>
      <trkpt lat="47.70703" lon="-2.76144">
        <ele>66.6</ele>
        <time>2015-12-06T15:35:07.000Z</time>
      </trkpt>
      <trkpt lat="47.70702" lon="-2.76151">
        <ele>66.4</ele>
        <time>2015-12-06T15:35:08.000Z</time>
      </trkpt>
      <trkpt lat="47.70701" lon="-2.76158">
        <ele>66.3</ele>
        <time>2015-12-06T15:35:09.000Z</time>
      </trkpt>
      <trkpt lat="47.707" lon="-2.76164">
        <ele>66.2</ele>
        <time>2015-12-06T15:35:10.000Z</time>
      </trkpt>
      <trkpt lat="47.70698" lon="-2.7617">
        <ele>66.1</ele>
        <time>2015-12-06T15:35:11.000Z</time>
      </trkpt>
      <trkpt lat="47.70696" lon="-2.76173">
        <ele>66</ele>
        <time>2015-12-06T15:35:12.000Z</time>
      </trkpt>
      <trkpt lat="47.70692" lon="-2.76174">
        <ele>66</ele>
        <time>2015-12-06T15:35:13.000Z</time>
      </trkpt>
      <trkpt lat="47.70689" lon="-2.76174">
        <ele>66.1</ele>
        <time>2015-12-06T15:35:14.000Z</time>
      </trkpt>
      <trkpt lat="47.70686" lon="-2.76172">
        <ele>66.2</ele>
        <time>2015-12-06T15:35:15.000Z</time>
      </trkpt>
      <trkpt lat="47.70683" lon="-2.7617">
        <ele>66.2</ele>
        <time>2015-12-06T15:35:16.000Z</time>
      </trkpt>
      <trkpt lat="47.70679" lon="-2.76168">
        <ele>66.3</ele>
        <time>2015-12-06T15:35:17.000Z</time>
      </trkpt>
      <trkpt lat="47.70676" lon="-2.76166">
        <ele>66.4</ele>
        <time>2015-12-06T15:35:18.000Z</time>
      </trkpt>
      <trkpt lat="47.70673" lon="-2.76164">
        <ele>66.5</ele>
        <time>2015-12-06T15:35:19.000Z</time>
      </trkpt>
      <trkpt lat="47.7067" lon="-2.76161">
        <ele>66.5</ele>
        <time>2015-12-06T15:35:20.000Z</time>
      </trkpt>
      <trkpt lat="47.70667" lon="-2.76159">
        <ele>66.6</ele>
        <time>2015-12-06T15:35:21.000Z</time>
      </trkpt>
      <trkpt lat="47.70664" lon="-2.76157">
        <ele>66.6</ele>
        <time>2015-12-06T15:35:22.000Z</time>
      </trkpt>
      <trkpt lat="47.70661" lon="-2.76154">
        <ele>66.7</ele>
        <time>2015-12-06T15:35:23.000Z</time>
      </trkpt>
      <trkpt lat="47.70658" lon="-2.76152">
        <ele>66.7</ele>
        <time>2015-12-06T15:35:24.000Z</time>
      </trkpt>
      <trkpt lat="47.70655" lon="-2.76149">
        <ele>66.8</ele>
        <time>2015-12-06T15:35:25.000Z</time>
      </trkpt>
      <trkpt lat="47.70653" lon="-2.76147">
        <ele>66.8</ele>
        <time>2015-12-06T15:35:26.000Z</time>
      </trkpt>
      <trkpt lat="47.7065" lon="-2.76144">
        <ele>66.9</ele>
        <time>2015-12-06T15:35:27.000Z</time>
      </trkpt>
      <trkpt lat="47.70647" lon="-2.7614">
        <ele>66.9</ele>
        <time>2015-12-06T15:35:28.000Z</time>
      </trkpt>
      <trkpt lat="47.70644" lon="-2.76136">
        <ele>66.9</ele>
        <time>2015-12-06T15:35:29.000Z</time>
      </trkpt>
      <trkpt lat="47.70641" lon="-2.76132">
        <ele>67</ele>
        <time>2015-12-06T15:35:30.000Z</time>
      </trkpt>
      <trkpt lat="47.70637" lon="-2.76128">
        <ele>67</ele>
        <time>2015-12-06T15:35:31.000Z</time>
      </trkpt>
      <trkpt lat="47.70634" lon="-2.76124">
        <ele>67</ele>
        <time>2015-12-06T15:35:32.000Z</time>
      </trkpt>
      <trkpt lat="47.70631" lon="-2.76121">
        <ele>67</ele>
        <time>2015-12-06T15:35:33.000Z</time>
      </trkpt>
      <trkpt lat="47.70628" lon="-2.76117">
        <ele>67</ele>
        <time>2015-12-06T15:35:34.000Z</time>
      </trkpt>
      <trkpt lat="47.70625" lon="-2.76113">
        <ele>67</ele>
        <time>2015-12-06T15:35:35.000Z</time>
      </trkpt>
      <trkpt lat="47.70623" lon="-2.76109">
        <ele>67</ele>
        <time>2015-12-06T15:35:36.000Z</time>
      </trkpt>
      <trkpt lat="47.70619" lon="-2.76105">
        <ele>66.9</ele>
        <time>2015-12-06T15:35:37.000Z</time>
      </trkpt>
      <trkpt lat="47.70616" lon="-2.761">
        <ele>66.9</ele>
        <time>2015-12-06T15:35:38.000Z</time>
      </trkpt>
      <trkpt lat="47.70613" lon="-2.76095">
        <ele>66.8</ele>
        <time>2015-12-06T15:35:39.000Z</time>
      </trkpt>
      <trkpt lat="47.7061" lon="-2.7609">
        <ele>66.7</ele>
        <time>2015-12-06T15:35:40.000Z</time>
      </trkpt>
      <trkpt lat="47.70607" lon="-2.76085">
        <ele>66.7</ele>
        <time>2015-12-06T15:35:41.000Z</time>
      </trkpt>
      <trkpt lat="47.70604" lon="-2.76081">
        <ele>66.6</ele>
        <time>2015-12-06T15:35:42.000Z</time>
      </trkpt>
      <trkpt lat="47.70601" lon="-2.76076">
        <ele>66.5</ele>
        <time>2015-12-06T15:35:43.000Z</time>
      </trkpt>
      <trkpt lat="47.70598" lon="-2.76072">
        <ele>66.5</ele>
        <time>2015-12-06T15:35:44.000Z</time>
      </trkpt>
      <trkpt lat="47.70595" lon="-2.76069">
        <ele>66.4</ele>
        <time>2015-12-06T15:35:45.000Z</time>
      </trkpt>
      <trkpt lat="47.70592" lon="-2.76065">
        <ele>66.3</ele>
        <time>2015-12-06T15:35:46.000Z</time>
      </trkpt>
      <trkpt lat="47.70588" lon="-2.76061">
        <ele>66.2</ele>
        <time>2015-12-06T15:35:47.000Z</time>
      </trkpt>
      <trkpt lat="47.70584" lon="-2.76056">
        <ele>66.1</ele>
        <time>2015-12-06T15:35:48.000Z</time>
      </trkpt>
      <trkpt lat="47.70579" lon="-2.7605">
        <ele>65.9</ele>
        <time>2015-12-06T15:35:49.000Z</time>
      </trkpt>
      <trkpt lat="47.70574" lon="-2.76044">
        <ele>65.8</ele>
        <time>2015-12-06T15:35:50.000Z</time>
      </trkpt>
      <trkpt lat="47.70569" lon="-2.76038">
        <ele>65.6</ele>
        <time>2015-12-06T15:35:51.000Z</time>
      </trkpt>
      <trkpt lat="47.70565" lon="-2.76034">
        <ele>65.4</ele>
        <time>2015-12-06T15:35:52.000Z</time>
      </trkpt>
      <trkpt lat="47.70561" lon="-2.76029">
        <ele>65.2</ele>
        <time>2015-12-06T15:35:53.000Z</time>
      </trkpt>
      <trkpt lat="47.70557" lon="-2.76025">
        <ele>65.1</ele>
        <time>2015-12-06T15:35:54.000Z</time>
      </trkpt>
      <trkpt lat="47.70554" lon="-2.7602">
        <ele>65</ele>
        <time>2015-12-06T15:35:55.000Z</time>
      </trkpt>
      <trkpt lat="47.7055" lon="-2.76015">
        <ele>64.8</ele>
        <time>2015-12-06T15:35:56.000Z</time>
      </trkpt>
      <trkpt lat="47.70546" lon="-2.7601">
        <ele>64.7</ele>
        <time>2015-12-06T15:35:57.000Z</time>
      </trkpt>
      <trkpt lat="47.70542" lon="-2.76004">
        <ele>64.6</ele>
        <time>2015-12-06T15:35:58.000Z</time>
      </trkpt>
      <trkpt lat="47.70537" lon="-2.75998">
        <ele>64.4</ele>
        <time>2015-12-06T15:35:59.000Z</time>
      </trkpt>
      <trkpt lat="47.70532" lon="-2.75992">
        <ele>64.3</ele>
        <time>2015-12-06T15:36:00.000Z</time>
      </trkpt>
      <trkpt lat="47.70527" lon="-2.75987">
        <ele>64.2</ele>
        <time>2015-12-06T15:36:01.000Z</time>
      </trkpt>
      <trkpt lat="47.70523" lon="-2.75984">
        <ele>64.2</ele>
        <time>2015-12-06T15:36:02.000Z</time>
      </trkpt>
      <trkpt lat="47.7052" lon="-2.75982">
        <ele>64.1</ele>
        <time>2015-12-06T15:36:03.000Z</time>
      </trkpt>
      <trkpt lat="47.70516" lon="-2.75979">
        <ele>64</ele>
        <time>2015-12-06T15:36:04.000Z</time>
      </trkpt>
      <trkpt lat="47.70512" lon="-2.75976">
        <ele>63.9</ele>
        <time>2015-12-06T15:36:05.000Z</time>
      </trkpt>
      <trkpt lat="47.70508" lon="-2.75973">
        <ele>63.8</ele>
        <time>2015-12-06T15:36:06.000Z</time>
      </trkpt>
      <trkpt lat="47.70502" lon="-2.75969">
        <ele>63.7</ele>
        <time>2015-12-06T15:36:07.000Z</time>
      </trkpt>
      <trkpt lat="47.70496" lon="-2.75964">
        <ele>63.6</ele>
        <time>2015-12-06T15:36:08.000Z</time>
      </trkpt>
      <trkpt lat="47.70491" lon="-2.7596">
        <ele>63.4</ele>
        <time>2015-12-06T15:36:09.000Z</time>
      </trkpt>
      <trkpt lat="47.70486" lon="-2.75956">
        <ele>63.3</ele>
        <time>2015-12-06T15:36:10.000Z</time>
      </trkpt>
      <trkpt lat="47.70482" lon="-2.75952">
        <ele>63.2</ele>
        <time>2015-12-06T15:36:11.000Z</time>
      </trkpt>
      <trkpt lat="47.70478" lon="-2.75949">
        <ele>63.1</ele>
        <time>2015-12-06T15:36:12.000Z</time>
      </trkpt>
      <trkpt lat="47.70473" lon="-2.75946">
        <ele>63</ele>
        <time>2015-12-06T15:36:13.000Z</time>
      </trkpt>
      <trkpt lat="47.70467" lon="-2.75943">
        <ele>62.9</ele>
        <time>2015-12-06T15:36:14.000Z</time>
      </trkpt>
      <trkpt lat="47.70462" lon="-2.75939">
        <ele>62.8</ele>
        <time>2015-12-06T15:36:15.000Z</time>
      </trkpt>
      <trkpt lat="47.70456" lon="-2.75934">
        <ele>62.6</ele>
        <time>2015-12-06T15:36:16.000Z</time>
      </trkpt>
      <trkpt lat="47.7045" lon="-2.7593">
        <ele>62.3</ele>
        <time>2015-12-06T15:36:17.000Z</time>
      </trkpt>
      <trkpt lat="47.70445" lon="-2.75928">
        <ele>62</ele>
        <time>2015-12-06T15:36:18.000Z</time>
      </trkpt>
      <trkpt lat="47.70439" lon="-2.75925">
        <ele>61.7</ele>
        <time>2015-12-06T15:36:19.000Z</time>
      </trkpt>
      <trkpt lat="47.70434" lon="-2.75923">
        <ele>61.4</ele>
        <time>2015-12-06T15:36:20.000Z</time>
      </trkpt>
      <trkpt lat="47.70429" lon="-2.7592">
        <ele>61.1</ele>
        <time>2015-12-06T15:36:21.000Z</time>
      </trkpt>
      <trkpt lat="47.70425" lon="-2.75917">
        <ele>60.9</ele>
        <time>2015-12-06T15:36:22.000Z</time>
      </trkpt>
      <trkpt lat="47.7042" lon="-2.75914">
        <ele>60.6</ele>
        <time>2015-12-06T15:36:23.000Z</time>
      </trkpt>
      <trkpt lat="47.70415" lon="-2.75911">
        <ele>60.3</ele>
        <time>2015-12-06T15:36:24.000Z</time>
      </trkpt>
      <trkpt lat="47.70409" lon="-2.75908">
        <ele>60</ele>
        <time>2015-12-06T15:36:25.000Z</time>
      </trkpt>
      <trkpt lat="47.70402" lon="-2.75905">
        <ele>59.7</ele>
        <time>2015-12-06T15:36:26.000Z</time>
      </trkpt>
      <trkpt lat="47.70395" lon="-2.75902">
        <ele>59.3</ele>
        <time>2015-12-06T15:36:27.000Z</time>
      </trkpt>
      <trkpt lat="47.70387" lon="-2.75899">
        <ele>58.9</ele>
        <time>2015-12-06T15:36:28.000Z</time>
      </trkpt>
      <trkpt lat="47.7038" lon="-2.75897">
        <ele>58.5</ele>
        <time>2015-12-06T15:36:29.000Z</time>
      </trkpt>
      <trkpt lat="47.70374" lon="-2.75894">
        <ele>58.2</ele>
        <time>2015-12-06T15:36:30.000Z</time>
      </trkpt>
      <trkpt lat="47.70367" lon="-2.75893">
        <ele>58</ele>
        <time>2015-12-06T15:36:31.000Z</time>
      </trkpt>
      <trkpt lat="47.7036" lon="-2.75891">
        <ele>57.8</ele>
        <time>2015-12-06T15:36:32.000Z</time>
      </trkpt>
      <trkpt lat="47.70354" lon="-2.75891">
        <ele>57.6</ele>
        <time>2015-12-06T15:36:33.000Z</time>
      </trkpt>
      <trkpt lat="47.70347" lon="-2.7589">
        <ele>57.4</ele>
        <time>2015-12-06T15:36:34.000Z</time>
      </trkpt>
      <trkpt lat="47.7034" lon="-2.7589">
        <ele>57.3</ele>
        <time>2015-12-06T15:36:35.000Z</time>
      </trkpt>
      <trkpt lat="47.70333" lon="-2.75889">
        <ele>57.1</ele>
        <time>2015-12-06T15:36:36.000Z</time>
      </trkpt>
      <trkpt lat="47.70325" lon="-2.75889">
        <ele>56.9</ele>
        <time>2015-12-06T15:36:37.000Z</time>
      </trkpt>
      <trkpt lat="47.70318" lon="-2.75888">
        <ele>56.7</ele>
        <time>2015-12-06T15:36:38.000Z</time>
      </trkpt>
      <trkpt lat="47.7031" lon="-2.75889">
        <ele>56.5</ele>
        <time>2015-12-06T15:36:39.000Z</time>
      </trkpt>
      <trkpt lat="47.70303" lon="-2.7589">
        <ele>56.3</ele>
        <time>2015-12-06T15:36:40.000Z</time>
      </trkpt>
      <trkpt lat="47.70296" lon="-2.75892">
        <ele>56.1</ele>
        <time>2015-12-06T15:36:41.000Z</time>
      </trkpt>
      <trkpt lat="47.70289" lon="-2.75893">
        <ele>55.9</ele>
        <time>2015-12-06T15:36:42.000Z</time>
      </trkpt>
      <trkpt lat="47.70282" lon="-2.75893">
        <ele>55.8</ele>
        <time>2015-12-06T15:36:43.000Z</time>
      </trkpt>
      <trkpt lat="47.70276" lon="-2.75891">
        <ele>55.7</ele>
        <time>2015-12-06T15:36:44.000Z</time>
      </trkpt>
      <trkpt lat="47.7027" lon="-2.75887">
        <ele>55.6</ele>
        <time>2015-12-06T15:36:45.000Z</time>
      </trkpt>
      <trkpt lat="47.70265" lon="-2.75881">
        <ele>55.4</ele>
        <time>2015-12-06T15:36:46.000Z</time>
      </trkpt>
      <trkpt lat="47.70262" lon="-2.75873">
        <ele>55.3</ele>
        <time>2015-12-06T15:36:47.000Z</time>
      </trkpt>
      <trkpt lat="47.70259" lon="-2.75867">
        <ele>55.2</ele>
        <time>2015-12-06T15:36:48.000Z</time>
      </trkpt>
      <trkpt lat="47.70255" lon="-2.75861">
        <ele>55.1</ele>
        <time>2015-12-06T15:36:49.000Z</time>
      </trkpt>
      <trkpt lat="47.70252" lon="-2.75856">
        <ele>54.9</ele>
        <time>2015-12-06T15:36:50.000Z</time>
      </trkpt>
      <trkpt lat="47.70248" lon="-2.75852">
        <ele>54.8</ele>
        <time>2015-12-06T15:36:51.000Z</time>
      </trkpt>
      <trkpt lat="47.70245" lon="-2.75848">
        <ele>54.7</ele>
        <time>2015-12-06T15:36:52.000Z</time>
      </trkpt>
      <trkpt lat="47.70244" lon="-2.75845">
        <ele>54.6</ele>
        <time>2015-12-06T15:36:53.000Z</time>
      </trkpt>
      <trkpt lat="47.70244" lon="-2.75842">
        <ele>54.6</ele>
        <time>2015-12-06T15:36:54.000Z</time>
      </trkpt>
      <trkpt lat="47.70243" lon="-2.75839">
        <ele>54.6</ele>
        <time>2015-12-06T15:36:55.000Z</time>
      </trkpt>
      <trkpt lat="47.70243" lon="-2.75836">
        <ele>54.6</ele>
        <time>2015-12-06T15:36:56.000Z</time>
      </trkpt>
      <trkpt lat="47.70245" lon="-2.75833">
        <ele>54.6</ele>
        <time>2015-12-06T15:36:57.000Z</time>
      </trkpt>
      <trkpt lat="47.70247" lon="-2.75831">
        <ele>54.7</ele>
        <time>2015-12-06T15:36:58.000Z</time>
      </trkpt>
      <trkpt lat="47.7025" lon="-2.75829">
        <ele>54.7</ele>
        <time>2015-12-06T15:36:59.000Z</time>
      </trkpt>
      <trkpt lat="47.70251" lon="-2.75824">
        <ele>54.7</ele>
        <time>2015-12-06T15:37:00.000Z</time>
      </trkpt>
      <trkpt lat="47.7025" lon="-2.75818">
        <ele>54.7</ele>
        <time>2015-12-06T15:37:01.000Z</time>
      </trkpt>
      <trkpt lat="47.70248" lon="-2.75811">
        <ele>54.6</ele>
        <time>2015-12-06T15:37:02.000Z</time>
      </trkpt>
      <trkpt lat="47.70245" lon="-2.75805">
        <ele>54.4</ele>
        <time>2015-12-06T15:37:03.000Z</time>
      </trkpt>
      <trkpt lat="47.70241" lon="-2.75799">
        <ele>54.2</ele>
        <time>2015-12-06T15:37:04.000Z</time>
      </trkpt>
      <trkpt lat="47.70238" lon="-2.75792">
        <ele>54.1</ele>
        <time>2015-12-06T15:37:05.000Z</time>
      </trkpt>
      <trkpt lat="47.70235" lon="-2.75784">
        <ele>53.8</ele>
        <time>2015-12-06T15:37:06.000Z</time>
      </trkpt>
      <trkpt lat="47.70233" lon="-2.75776">
        <ele>53.6</ele>
        <time>2015-12-06T15:37:07.000Z</time>
      </trkpt>
      <trkpt lat="47.7023" lon="-2.75768">
        <ele>53.4</ele>
        <time>2015-12-06T15:37:08.000Z</time>
      </trkpt>
      <trkpt lat="47.70228" lon="-2.7576">
        <ele>53.2</ele>
        <time>2015-12-06T15:37:09.000Z</time>
      </trkpt>
      <trkpt lat="47.70226" lon="-2.75752">
        <ele>53</ele>
        <time>2015-12-06T15:37:10.000Z</time>
      </trkpt>
      <trkpt lat="47.70224" lon="-2.75744">
        <ele>52.8</ele>
        <time>2015-12-06T15:37:11.000Z</time>
      </trkpt>
      <trkpt lat="47.70222" lon="-2.75735">
        <ele>52.6</ele>
        <time>2015-12-06T15:37:12.000Z</time>
      </trkpt>
      <trkpt lat="47.70219" lon="-2.75727">
        <ele>52.4</ele>
        <time>2015-12-06T15:37:13.000Z</time>
      </trkpt>
      <trkpt lat="47.70218" lon="-2.75719">
        <ele>52.3</ele>
        <time>2015-12-06T15:37:14.000Z</time>
      </trkpt>
      <trkpt lat="47.70216" lon="-2.75711">
        <ele>52.1</ele>
        <time>2015-12-06T15:37:15.000Z</time>
      </trkpt>
      <trkpt lat="47.70214" lon="-2.75704">
        <ele>52</ele>
        <time>2015-12-06T15:37:16.000Z</time>
      </trkpt>
      <trkpt lat="47.70212" lon="-2.75696">
        <ele>51.9</ele>
        <time>2015-12-06T15:37:17.000Z</time>
      </trkpt>
      <trkpt lat="47.7021" lon="-2.75688">
        <ele>51.8</ele>
        <time>2015-12-06T15:37:18.000Z</time>
      </trkpt>
      <trkpt lat="47.70209" lon="-2.75679">
        <ele>51.7</ele>
        <time>2015-12-06T15:37:19.000Z</time>
      </trkpt>
      <trkpt lat="47.70208" lon="-2.75671">
        <ele>51.6</ele>
        <time>2015-12-06T15:37:20.000Z</time>
      </trkpt>
      <trkpt lat="47.70207" lon="-2.75663">
        <ele>51.5</ele>
        <time>2015-12-06T15:37:21.000Z</time>
      </trkpt>
      <trkpt lat="47.70206" lon="-2.75655">
        <ele>51.5</ele>
        <time>2015-12-06T15:37:22.000Z</time>
      </trkpt>
      <trkpt lat="47.70205" lon="-2.75646">
        <ele>51.4</ele>
        <time>2015-12-06T15:37:23.000Z</time>
      </trkpt>
      <trkpt lat="47.70205" lon="-2.75638">
        <ele>51.4</ele>
        <time>2015-12-06T15:37:24.000Z</time>
      </trkpt>
      <trkpt lat="47.70204" lon="-2.7563">
        <ele>51.3</ele>
        <time>2015-12-06T15:37:25.000Z</time>
      </trkpt>
      <trkpt lat="47.70203" lon="-2.75621">
        <ele>51.3</ele>
        <time>2015-12-06T15:37:26.000Z</time>
      </trkpt>
      <trkpt lat="47.70202" lon="-2.75613">
        <ele>51.4</ele>
        <time>2015-12-06T15:37:27.000Z</time>
      </trkpt>
      <trkpt lat="47.70201" lon="-2.75605">
        <ele>51.5</ele>
        <time>2015-12-06T15:37:28.000Z</time>
      </trkpt>
      <trkpt lat="47.702" lon="-2.75597">
        <ele>51.5</ele>
        <time>2015-12-06T15:37:29.000Z</time>
      </trkpt>
      <trkpt lat="47.70199" lon="-2.75589">
        <ele>51.6</ele>
        <time>2015-12-06T15:37:30.000Z</time>
      </trkpt>
      <trkpt lat="47.70198" lon="-2.75582">
        <ele>51.7</ele>
        <time>2015-12-06T15:37:31.000Z</time>
      </trkpt>
      <trkpt lat="47.70197" lon="-2.75574">
        <ele>51.7</ele>
        <time>2015-12-06T15:37:32.000Z</time>
      </trkpt>
      <trkpt lat="47.70197" lon="-2.75567">
        <ele>51.8</ele>
        <time>2015-12-06T15:37:33.000Z</time>
      </trkpt>
      <trkpt lat="47.70196" lon="-2.7556">
        <ele>51.9</ele>
        <time>2015-12-06T15:37:34.000Z</time>
      </trkpt>
      <trkpt lat="47.70196" lon="-2.75552">
        <ele>51.9</ele>
        <time>2015-12-06T15:37:35.000Z</time>
      </trkpt>
      <trkpt lat="47.70196" lon="-2.75545">
        <ele>51.9</ele>
        <time>2015-12-06T15:37:36.000Z</time>
      </trkpt>
      <trkpt lat="47.70197" lon="-2.75538">
        <ele>51.9</ele>
        <time>2015-12-06T15:37:37.000Z</time>
      </trkpt>
      <trkpt lat="47.70198" lon="-2.75532">
        <ele>51.9</ele>
        <time>2015-12-06T15:37:38.000Z</time>
      </trkpt>
      <trkpt lat="47.702" lon="-2.75525">
        <ele>51.9</ele>
        <time>2015-12-06T15:37:39.000Z</time>
      </trkpt>
      <trkpt lat="47.70201" lon="-2.75519">
        <ele>52</ele>
        <time>2015-12-06T15:37:40.000Z</time>
      </trkpt>
      <trkpt lat="47.70202" lon="-2.75513">
        <ele>52</ele>
        <time>2015-12-06T15:37:41.000Z</time>
      </trkpt>
      <trkpt lat="47.70203" lon="-2.75508">
        <ele>52.1</ele>
        <time>2015-12-06T15:37:42.000Z</time>
      </trkpt>
      <trkpt lat="47.70204" lon="-2.75502">
        <ele>52.2</ele>
        <time>2015-12-06T15:37:43.000Z</time>
      </trkpt>
      <trkpt lat="47.70206" lon="-2.75497">
        <ele>52.2</ele>
        <time>2015-12-06T15:37:44.000Z</time>
      </trkpt>
      <trkpt lat="47.70208" lon="-2.75492">
        <ele>52.2</ele>
        <time>2015-12-06T15:37:45.000Z</time>
      </trkpt>
      <trkpt lat="47.7021" lon="-2.75488">
        <ele>52.3</ele>
        <time>2015-12-06T15:37:46.000Z</time>
      </trkpt>
      <trkpt lat="47.70213" lon="-2.75484">
        <ele>52.4</ele>
        <time>2015-12-06T15:37:47.000Z</time>
      </trkpt>
      <trkpt lat="47.70215" lon="-2.7548">
        <ele>52.5</ele>
        <time>2015-12-06T15:37:48.000Z</time>
      </trkpt>
      <trkpt lat="47.70216" lon="-2.75476">
        <ele>52.6</ele>
        <time>2015-12-06T15:37:49.000Z</time>
      </trkpt>
      <trkpt lat="47.70217" lon="-2.75472">
        <ele>52.7</ele>
        <time>2015-12-06T15:37:50.000Z</time>
      </trkpt>
      <trkpt lat="47.70217" lon="-2.75469">
        <ele>52.8</ele>
        <time>2015-12-06T15:37:51.000Z</time>
      </trkpt>
      <trkpt lat="47.70216" lon="-2.75465">
        <ele>52.9</ele>
        <time>2015-12-06T15:37:52.000Z</time>
      </trkpt>
      <trkpt lat="47.70217" lon="-2.7546">
        <ele>53</ele>
        <time>2015-12-06T15:37:53.000Z</time>
      </trkpt>
      <trkpt lat="47.70217" lon="-2.75455">
        <ele>53.1</ele>
        <time>2015-12-06T15:37:54.000Z</time>
      </trkpt>
      <trkpt lat="47.70218" lon="-2.7545">
        <ele>53.2</ele>
        <time>2015-12-06T15:37:55.000Z</time>
      </trkpt>
      <trkpt lat="47.70218" lon="-2.75445">
        <ele>53.3</ele>
        <time>2015-12-06T15:37:56.000Z</time>
      </trkpt>
      <trkpt lat="47.70217" lon="-2.7544">
        <ele>53.4</ele>
        <time>2015-12-06T15:37:57.000Z</time>
      </trkpt>
      <trkpt lat="47.70215" lon="-2.75436">
        <ele>53.5</ele>
        <time>2015-12-06T15:37:58.000Z</time>
      </trkpt>
      <trkpt lat="47.70214" lon="-2.75432">
        <ele>53.6</ele>
        <time>2015-12-06T15:37:59.000Z</time>
      </trkpt>
      <trkpt lat="47.70213" lon="-2.75429">
        <ele>53.7</ele>
        <time>2015-12-06T15:38:00.000Z</time>
      </trkpt>
      <trkpt lat="47.70213" lon="-2.75426">
        <ele>53.8</ele>
        <time>2015-12-06T15:38:01.000Z</time>
      </trkpt>
      <trkpt lat="47.70212" lon="-2.75422">
        <ele>53.9</ele>
        <time>2015-12-06T15:38:02.000Z</time>
      </trkpt>
      <trkpt lat="47.70212" lon="-2.7542">
        <ele>53.9</ele>
        <time>2015-12-06T15:38:03.000Z</time>
      </trkpt>
      <trkpt lat="47.70212" lon="-2.75416">
        <ele>54</ele>
        <time>2015-12-06T15:38:04.000Z</time>
      </trkpt>
      <trkpt lat="47.70212" lon="-2.75413">
        <ele>54.1</ele>
        <time>2015-12-06T15:38:05.000Z</time>
      </trkpt>
      <trkpt lat="47.70211" lon="-2.7541">
        <ele>54.2</ele>
        <time>2015-12-06T15:38:06.000Z</time>
      </trkpt>
      <trkpt lat="47.70211" lon="-2.75407">
        <ele>54.2</ele>
        <time>2015-12-06T15:38:07.000Z</time>
      </trkpt>
      <trkpt lat="47.70211" lon="-2.75404">
        <ele>54.3</ele>
        <time>2015-12-06T15:38:08.000Z</time>
      </trkpt>
      <trkpt lat="47.70211" lon="-2.75401">
        <ele>54.4</ele>
        <time>2015-12-06T15:38:09.000Z</time>
      </trkpt>
      <trkpt lat="47.70211" lon="-2.75397">
        <ele>54.5</ele>
        <time>2015-12-06T15:38:10.000Z</time>
      </trkpt>
      <trkpt lat="47.70211" lon="-2.75393">
        <ele>54.6</ele>
        <time>2015-12-06T15:38:11.000Z</time>
      </trkpt>
      <trkpt lat="47.70212" lon="-2.75389">
        <ele>54.7</ele>
        <time>2015-12-06T15:38:12.000Z</time>
      </trkpt>
      <trkpt lat="47.70212" lon="-2.75384">
        <ele>54.8</ele>
        <time>2015-12-06T15:38:13.000Z</time>
      </trkpt>
      <trkpt lat="47.70212" lon="-2.75381">
        <ele>54.9</ele>
        <time>2015-12-06T15:38:14.000Z</time>
      </trkpt>
      <trkpt lat="47.70212" lon="-2.75377">
        <ele>55</ele>
        <time>2015-12-06T15:38:15.000Z</time>
      </trkpt>
      <trkpt lat="47.70213" lon="-2.75373">
        <ele>55.1</ele>
        <time>2015-12-06T15:38:16.000Z</time>
      </trkpt>
      <trkpt lat="47.70214" lon="-2.75368">
        <ele>55.2</ele>
        <time>2015-12-06T15:38:17.000Z</time>
      </trkpt>
      <trkpt lat="47.70213" lon="-2.75363">
        <ele>55.3</ele>
        <time>2015-12-06T15:38:18.000Z</time>
      </trkpt>
      <trkpt lat="47.70212" lon="-2.75358">
        <ele>55.4</ele>
        <time>2015-12-06T15:38:19.000Z</time>
      </trkpt>
      <trkpt lat="47.70211" lon="-2.75353">
        <ele>55.6</ele>
        <time>2015-12-06T15:38:20.000Z</time>
      </trkpt>
      <trkpt lat="47.70209" lon="-2.75348">
        <ele>55.7</ele>
        <time>2015-12-06T15:38:21.000Z</time>
      </trkpt>
      <trkpt lat="47.70208" lon="-2.75344">
        <ele>55.7</ele>
        <time>2015-12-06T15:38:22.000Z</time>
      </trkpt>
      <trkpt lat="47.70206" lon="-2.75339">
        <ele>55.8</ele>
        <time>2015-12-06T15:38:23.000Z</time>
      </trkpt>
      <trkpt lat="47.70204" lon="-2.75334">
        <ele>55.9</ele>
        <time>2015-12-06T15:38:24.000Z</time>
      </trkpt>
      <trkpt lat="47.70203" lon="-2.7533">
        <ele>56</ele>
        <time>2015-12-06T15:38:25.000Z</time>
      </trkpt>
      <trkpt lat="47.70201" lon="-2.75326">
        <ele>56.1</ele>
        <time>2015-12-06T15:38:26.000Z</time>
      </trkpt>
      <trkpt lat="47.70199" lon="-2.75322">
        <ele>56.2</ele>
        <time>2015-12-06T15:38:27.000Z</time>
      </trkpt>
      <trkpt lat="47.70196" lon="-2.75317">
        <ele>56.2</ele>
        <time>2015-12-06T15:38:28.000Z</time>
      </trkpt>
      <trkpt lat="47.70194" lon="-2.75313">
        <ele>56.3</ele>
        <time>2015-12-06T15:38:29.000Z</time>
      </trkpt>
      <trkpt lat="47.70193" lon="-2.75308">
        <ele>56.4</ele>
        <time>2015-12-06T15:38:30.000Z</time>
      </trkpt>
      <trkpt lat="47.70191" lon="-2.75303">
        <ele>56.5</ele>
        <time>2015-12-06T15:38:31.000Z</time>
      </trkpt>
      <trkpt lat="47.70189" lon="-2.75299">
        <ele>56.6</ele>
        <time>2015-12-06T15:38:32.000Z</time>
      </trkpt>
      <trkpt lat="47.70187" lon="-2.75294">
        <ele>56.7</ele>
        <time>2015-12-06T15:38:33.000Z</time>
      </trkpt>
      <trkpt lat="47.70185" lon="-2.75289">
        <ele>56.8</ele>
        <time>2015-12-06T15:38:34.000Z</time>
      </trkpt>
      <trkpt lat="47.70184" lon="-2.75284">
        <ele>56.8</ele>
        <time>2015-12-06T15:38:35.000Z</time>
      </trkpt>
      <trkpt lat="47.70182" lon="-2.75278">
        <ele>56.9</ele>
        <time>2015-12-06T15:38:36.000Z</time>
      </trkpt>
      <trkpt lat="47.7018" lon="-2.75273">
        <ele>57</ele>
        <time>2015-12-06T15:38:37.000Z</time>
      </trkpt>
      <trkpt lat="47.70178" lon="-2.75268">
        <ele>57</ele>
        <time>2015-12-06T15:38:38.000Z</time>
      </trkpt>
      <trkpt lat="47.70176" lon="-2.75262">
        <ele>57.1</ele>
        <time>2015-12-06T15:38:39.000Z</time>
      </trkpt>
      <trkpt lat="47.70174" lon="-2.75256">
        <ele>57.2</ele>
        <time>2015-12-06T15:38:40.000Z</time>
      </trkpt>
      <trkpt lat="47.70173" lon="-2.7525">
        <ele>57.3</ele>
        <time>2015-12-06T15:38:41.000Z</time>
      </trkpt>
      <trkpt lat="47.70171" lon="-2.75244">
        <ele>57.4</ele>
        <time>2015-12-06T15:38:42.000Z</time>
      </trkpt>
      <trkpt lat="47.70169" lon="-2.75238">
        <ele>57.5</ele>
        <time>2015-12-06T15:38:43.000Z</time>
      </trkpt>
      <trkpt lat="47.70168" lon="-2.75232">
        <ele>57.6</ele>
        <time>2015-12-06T15:38:44.000Z</time>
      </trkpt>
      <trkpt lat="47.70166" lon="-2.75226">
        <ele>57.7</ele>
        <time>2015-12-06T15:38:45.000Z</time>
      </trkpt>
      <trkpt lat="47.70164" lon="-2.75221">
        <ele>57.8</ele>
        <time>2015-12-06T15:38:46.000Z</time>
      </trkpt>
      <trkpt lat="47.70162" lon="-2.75215">
        <ele>57.9</ele>
        <time>2015-12-06T15:38:47.000Z</time>
      </trkpt>
      <trkpt lat="47.7016" lon="-2.75209">
        <ele>58</ele>
        <time>2015-12-06T15:38:48.000Z</time>
      </trkpt>
      <trkpt lat="47.70158" lon="-2.75203">
        <ele>58.1</ele>
        <time>2015-12-06T15:38:49.000Z</time>
      </trkpt>
      <trkpt lat="47.70156" lon="-2.75197">
        <ele>58.3</ele>
        <time>2015-12-06T15:38:50.000Z</time>
      </trkpt>
      <trkpt lat="47.70154" lon="-2.75191">
        <ele>58.4</ele>
        <time>2015-12-06T15:38:51.000Z</time>
      </trkpt>
      <trkpt lat="47.70152" lon="-2.75185">
        <ele>58.6</ele>
        <time>2015-12-06T15:38:52.000Z</time>
      </trkpt>
      <trkpt lat="47.7015" lon="-2.75179">
        <ele>58.7</ele>
        <time>2015-12-06T15:38:53.000Z</time>
      </trkpt>
      <trkpt lat="47.70148" lon="-2.75173">
        <ele>58.9</ele>
        <time>2015-12-06T15:38:54.000Z</time>
      </trkpt>
      <trkpt lat="47.70146" lon="-2.75166">
        <ele>59</ele>
        <time>2015-12-06T15:38:55.000Z</time>
      </trkpt>
      <trkpt lat="47.70144" lon="-2.75159">
        <ele>59.2</ele>
        <time>2015-12-06T15:38:56.000Z</time>
      </trkpt>
      <trkpt lat="47.70142" lon="-2.75152">
        <ele>59.3</ele>
        <time>2015-12-06T15:38:57.000Z</time>
      </trkpt>
      <trkpt lat="47.7014" lon="-2.75145">
        <ele>59.5</ele>
        <time>2015-12-06T15:38:58.000Z</time>
      </trkpt>
      <trkpt lat="47.70138" lon="-2.75137">
        <ele>59.7</ele>
        <time>2015-12-06T15:38:59.000Z</time>
      </trkpt>
      <trkpt lat="47.70136" lon="-2.7513">
        <ele>59.9</ele>
        <time>2015-12-06T15:39:00.000Z</time>
      </trkpt>
      <trkpt lat="47.70134" lon="-2.75124">
        <ele>60</ele>
        <time>2015-12-06T15:39:01.000Z</time>
      </trkpt>
      <trkpt lat="47.70132" lon="-2.75117">
        <ele>60.2</ele>
        <time>2015-12-06T15:39:02.000Z</time>
      </trkpt>
      <trkpt lat="47.7013" lon="-2.7511">
        <ele>60.4</ele>
        <time>2015-12-06T15:39:03.000Z</time>
      </trkpt>
      <trkpt lat="47.70128" lon="-2.75103">
        <ele>60.5</ele>
        <time>2015-12-06T15:39:04.000Z</time>
      </trkpt>
      <trkpt lat="47.70126" lon="-2.75097">
        <ele>60.7</ele>
        <time>2015-12-06T15:39:05.000Z</time>
      </trkpt>
      <trkpt lat="47.70125" lon="-2.7509">
        <ele>60.8</ele>
        <time>2015-12-06T15:39:06.000Z</time>
      </trkpt>
      <trkpt lat="47.70123" lon="-2.75083">
        <ele>61</ele>
        <time>2015-12-06T15:39:07.000Z</time>
      </trkpt>
      <trkpt lat="47.70121" lon="-2.75076">
        <ele>61.2</ele>
        <time>2015-12-06T15:39:08.000Z</time>
      </trkpt>
      <trkpt lat="47.70119" lon="-2.7507">
        <ele>61.4</ele>
        <time>2015-12-06T15:39:09.000Z</time>
      </trkpt>
      <trkpt lat="47.70116" lon="-2.75063">
        <ele>61.5</ele>
        <time>2015-12-06T15:39:10.000Z</time>
      </trkpt>
      <trkpt lat="47.70114" lon="-2.75057">
        <ele>61.7</ele>
        <time>2015-12-06T15:39:11.000Z</time>
      </trkpt>
      <trkpt lat="47.70111" lon="-2.75051">
        <ele>61.9</ele>
        <time>2015-12-06T15:39:12.000Z</time>
      </trkpt>
      <trkpt lat="47.70109" lon="-2.75045">
        <ele>62.1</ele>
        <time>2015-12-06T15:39:13.000Z</time>
      </trkpt>
      <trkpt lat="47.70106" lon="-2.75039">
        <ele>62.2</ele>
        <time>2015-12-06T15:39:14.000Z</time>
      </trkpt>
      <trkpt lat="47.70104" lon="-2.75032">
        <ele>62.1</ele>
        <time>2015-12-06T15:39:15.000Z</time>
      </trkpt>
      <trkpt lat="47.70102" lon="-2.75026">
        <ele>62</ele>
        <time>2015-12-06T15:39:16.000Z</time>
      </trkpt>
      <trkpt lat="47.701" lon="-2.7502">
        <ele>61.9</ele>
        <time>2015-12-06T15:39:17.000Z</time>
      </trkpt>
      <trkpt lat="47.70098" lon="-2.75014">
        <ele>61.8</ele>
        <time>2015-12-06T15:39:18.000Z</time>
      </trkpt>
      <trkpt lat="47.70095" lon="-2.75011">
        <ele>61.7</ele>
        <time>2015-12-06T15:39:19.000Z</time>
      </trkpt>
      <trkpt lat="47.70091" lon="-2.7501">
        <ele>61.6</ele>
        <time>2015-12-06T15:39:20.000Z</time>
      </trkpt>
      <trkpt lat="47.70088" lon="-2.75011">
        <ele>61.6</ele>
        <time>2015-12-06T15:39:21.000Z</time>
      </trkpt>
      <trkpt lat="47.70084" lon="-2.75013">
        <ele>61.6</ele>
        <time>2015-12-06T15:39:22.000Z</time>
      </trkpt>
      <trkpt lat="47.70079" lon="-2.75015">
        <ele>61.7</ele>
        <time>2015-12-06T15:39:23.000Z</time>
      </trkpt>
      <trkpt lat="47.70074" lon="-2.75017">
        <ele>61.7</ele>
        <time>2015-12-06T15:39:24.000Z</time>
      </trkpt>
      <trkpt lat="47.70069" lon="-2.7502">
        <ele>61.8</ele>
        <time>2015-12-06T15:39:25.000Z</time>
      </trkpt>
      <trkpt lat="47.70064" lon="-2.75022">
        <ele>61.9</ele>
        <time>2015-12-06T15:39:26.000Z</time>
      </trkpt>
      <trkpt lat="47.70058" lon="-2.75024">
        <ele>62</ele>
        <time>2015-12-06T15:39:27.000Z</time>
      </trkpt>
      <trkpt lat="47.70053" lon="-2.75027">
        <ele>62.1</ele>
        <time>2015-12-06T15:39:28.000Z</time>
      </trkpt>
      <trkpt lat="47.70047" lon="-2.7503">
        <ele>62.3</ele>
        <time>2015-12-06T15:39:29.000Z</time>
      </trkpt>
      <trkpt lat="47.70041" lon="-2.75034">
        <ele>62.5</ele>
        <time>2015-12-06T15:39:30.000Z</time>
      </trkpt>
      <trkpt lat="47.70035" lon="-2.75038">
        <ele>62.5</ele>
        <time>2015-12-06T15:39:31.000Z</time>
      </trkpt>
      <trkpt lat="47.7003" lon="-2.75042">
        <ele>62.6</ele>
        <time>2015-12-06T15:39:32.000Z</time>
      </trkpt>
      <trkpt lat="47.70024" lon="-2.75046">
        <ele>62.2</ele>
        <time>2015-12-06T15:39:33.000Z</time>
      </trkpt>
      <trkpt lat="47.70018" lon="-2.7505">
        <ele>61.8</ele>
        <time>2015-12-06T15:39:34.000Z</time>
      </trkpt>
      <trkpt lat="47.70012" lon="-2.75054">
        <ele>61.5</ele>
        <time>2015-12-06T15:39:35.000Z</time>
      </trkpt>
      <trkpt lat="47.70006" lon="-2.75058">
        <ele>61.2</ele>
        <time>2015-12-06T15:39:36.000Z</time>
      </trkpt>
      <trkpt lat="47.7" lon="-2.75062">
        <ele>60.9</ele>
        <time>2015-12-06T15:39:37.000Z</time>
      </trkpt>
      <trkpt lat="47.69994" lon="-2.75065">
        <ele>60.6</ele>
        <time>2015-12-06T15:39:38.000Z</time>
      </trkpt>
      <trkpt lat="47.69989" lon="-2.75069">
        <ele>60.4</ele>
        <time>2015-12-06T15:39:39.000Z</time>
      </trkpt>
      <trkpt lat="47.69983" lon="-2.75073">
        <ele>60.2</ele>
        <time>2015-12-06T15:39:40.000Z</time>
      </trkpt>
      <trkpt lat="47.69978" lon="-2.75077">
        <ele>60</ele>
        <time>2015-12-06T15:39:41.000Z</time>
      </trkpt>
      <trkpt lat="47.69972" lon="-2.7508">
        <ele>59.8</ele>
        <time>2015-12-06T15:39:42.000Z</time>
      </trkpt>
      <trkpt lat="47.69967" lon="-2.75081">
        <ele>59.7</ele>
        <time>2015-12-06T15:39:43.000Z</time>
      </trkpt>
      <trkpt lat="47.69961" lon="-2.75081">
        <ele>59.6</ele>
        <time>2015-12-06T15:39:44.000Z</time>
      </trkpt>
      <trkpt lat="47.69956" lon="-2.75078">
        <ele>59.5</ele>
        <time>2015-12-06T15:39:45.000Z</time>
      </trkpt>
      <trkpt lat="47.69951" lon="-2.75074">
        <ele>59.4</ele>
        <time>2015-12-06T15:39:46.000Z</time>
      </trkpt>
      <trkpt lat="47.69947" lon="-2.7507">
        <ele>59.3</ele>
        <time>2015-12-06T15:39:47.000Z</time>
      </trkpt>
      <trkpt lat="47.69942" lon="-2.75067">
        <ele>59.2</ele>
        <time>2015-12-06T15:39:48.000Z</time>
      </trkpt>
      <trkpt lat="47.69937" lon="-2.75063">
        <ele>59.1</ele>
        <time>2015-12-06T15:39:49.000Z</time>
      </trkpt>
      <trkpt lat="47.69932" lon="-2.7506">
        <ele>59</ele>
        <time>2015-12-06T15:39:50.000Z</time>
      </trkpt>
      <trkpt lat="47.69927" lon="-2.75056">
        <ele>58.8</ele>
        <time>2015-12-06T15:39:51.000Z</time>
      </trkpt>
      <trkpt lat="47.69921" lon="-2.75052">
        <ele>58.6</ele>
        <time>2015-12-06T15:39:52.000Z</time>
      </trkpt>
      <trkpt lat="47.69914" lon="-2.75049">
        <ele>58.4</ele>
        <time>2015-12-06T15:39:53.000Z</time>
      </trkpt>
      <trkpt lat="47.69908" lon="-2.75047">
        <ele>58.2</ele>
        <time>2015-12-06T15:39:54.000Z</time>
      </trkpt>
      <trkpt lat="47.69902" lon="-2.75046">
        <ele>58</ele>
        <time>2015-12-06T15:39:55.000Z</time>
      </trkpt>
      <trkpt lat="47.69896" lon="-2.75047">
        <ele>57.8</ele>
        <time>2015-12-06T15:39:56.000Z</time>
      </trkpt>
      <trkpt lat="47.6989" lon="-2.75049">
        <ele>57.6</ele>
        <time>2015-12-06T15:39:57.000Z</time>
      </trkpt>
      <trkpt lat="47.69885" lon="-2.75052">
        <ele>57.5</ele>
        <time>2015-12-06T15:39:58.000Z</time>
      </trkpt>
      <trkpt lat="47.69881" lon="-2.75055">
        <ele>57.3</ele>
        <time>2015-12-06T15:39:59.000Z</time>
      </trkpt>
      <trkpt lat="47.69877" lon="-2.75058">
        <ele>57.2</ele>
        <time>2015-12-06T15:40:00.000Z</time>
      </trkpt>
      <trkpt lat="47.69872" lon="-2.75061">
        <ele>57.2</ele>
        <time>2015-12-06T15:40:01.000Z</time>
      </trkpt>
      <trkpt lat="47.69869" lon="-2.75065">
        <ele>57.3</ele>
        <time>2015-12-06T15:40:02.000Z</time>
      </trkpt>
      <trkpt lat="47.69865" lon="-2.7507">
        <ele>57.3</ele>
        <time>2015-12-06T15:40:03.000Z</time>
      </trkpt>
      <trkpt lat="47.69862" lon="-2.75076">
        <ele>57.3</ele>
        <time>2015-12-06T15:40:04.000Z</time>
      </trkpt>
      <trkpt lat="47.69859" lon="-2.75082">
        <ele>57.4</ele>
        <time>2015-12-06T15:40:05.000Z</time>
      </trkpt>
      <trkpt lat="47.69856" lon="-2.75088">
        <ele>57.4</ele>
        <time>2015-12-06T15:40:06.000Z</time>
      </trkpt>
      <trkpt lat="47.69853" lon="-2.75093">
        <ele>57.5</ele>
        <time>2015-12-06T15:40:07.000Z</time>
      </trkpt>
      <trkpt lat="47.6985" lon="-2.75099">
        <ele>57.5</ele>
        <time>2015-12-06T15:40:08.000Z</time>
      </trkpt>
      <trkpt lat="47.69847" lon="-2.75103">
        <ele>57.5</ele>
        <time>2015-12-06T15:40:09.000Z</time>
      </trkpt>
      <trkpt lat="47.69842" lon="-2.75106">
        <ele>57.5</ele>
        <time>2015-12-06T15:40:10.000Z</time>
      </trkpt>
      <trkpt lat="47.69837" lon="-2.75105">
        <ele>57.4</ele>
        <time>2015-12-06T15:40:11.000Z</time>
      </trkpt>
      <trkpt lat="47.69832" lon="-2.75102">
        <ele>57.3</ele>
        <time>2015-12-06T15:40:12.000Z</time>
      </trkpt>
      <trkpt lat="47.69827" lon="-2.75102">
        <ele>57.3</ele>
        <time>2015-12-06T15:40:13.000Z</time>
      </trkpt>
      <trkpt lat="47.69822" lon="-2.75103">
        <ele>57.3</ele>
        <time>2015-12-06T15:40:14.000Z</time>
      </trkpt>
      <trkpt lat="47.69817" lon="-2.75107">
        <ele>57.2</ele>
        <time>2015-12-06T15:40:15.000Z</time>
      </trkpt>
      <trkpt lat="47.69813" lon="-2.75111">
        <ele>57.2</ele>
        <time>2015-12-06T15:40:16.000Z</time>
      </trkpt>
      <trkpt lat="47.69809" lon="-2.75115">
        <ele>57.2</ele>
        <time>2015-12-06T15:40:17.000Z</time>
      </trkpt>
      <trkpt lat="47.69805" lon="-2.75119">
        <ele>57.1</ele>
        <time>2015-12-06T15:40:18.000Z</time>
      </trkpt>
      <trkpt lat="47.698" lon="-2.75124">
        <ele>57.1</ele>
        <time>2015-12-06T15:40:19.000Z</time>
      </trkpt>
      <trkpt lat="47.69796" lon="-2.75128">
        <ele>57.1</ele>
        <time>2015-12-06T15:40:20.000Z</time>
      </trkpt>
      <trkpt lat="47.69791" lon="-2.75132">
        <ele>57.1</ele>
        <time>2015-12-06T15:40:21.000Z</time>
      </trkpt>
      <trkpt lat="47.69787" lon="-2.75136">
        <ele>57.1</ele>
        <time>2015-12-06T15:40:22.000Z</time>
      </trkpt>
      <trkpt lat="47.69782" lon="-2.7514">
        <ele>57</ele>
        <time>2015-12-06T15:40:23.000Z</time>
      </trkpt>
      <trkpt lat="47.69777" lon="-2.75143">
        <ele>56.8</ele>
        <time>2015-12-06T15:40:24.000Z</time>
      </trkpt>
      <trkpt lat="47.69772" lon="-2.75145">
        <ele>56.7</ele>
        <time>2015-12-06T15:40:25.000Z</time>
      </trkpt>
      <trkpt lat="47.69767" lon="-2.75145">
        <ele>56.5</ele>
        <time>2015-12-06T15:40:26.000Z</time>
      </trkpt>
      <trkpt lat="47.69762" lon="-2.75145">
        <ele>56.2</ele>
        <time>2015-12-06T15:40:27.000Z</time>
      </trkpt>
      <trkpt lat="47.69757" lon="-2.75145">
        <ele>56</ele>
        <time>2015-12-06T15:40:28.000Z</time>
      </trkpt>
      <trkpt lat="47.69754" lon="-2.75146">
        <ele>55.9</ele>
        <time>2015-12-06T15:40:29.000Z</time>
      </trkpt>
      <trkpt lat="47.6975" lon="-2.75148">
        <ele>55.8</ele>
        <time>2015-12-06T15:40:30.000Z</time>
      </trkpt>
      <trkpt lat="47.69747" lon="-2.75152">
        <ele>55.7</ele>
        <time>2015-12-06T15:40:31.000Z</time>
      </trkpt>
      <trkpt lat="47.69744" lon="-2.75155">
        <ele>55.6</ele>
        <time>2015-12-06T15:40:32.000Z</time>
      </trkpt>
      <trkpt lat="47.6974" lon="-2.75158">
        <ele>55.5</ele>
        <time>2015-12-06T15:40:33.000Z</time>
      </trkpt>
      <trkpt lat="47.69736" lon="-2.75161">
        <ele>55.3</ele>
        <time>2015-12-06T15:40:34.000Z</time>
      </trkpt>
      <trkpt lat="47.69732" lon="-2.75164">
        <ele>55.1</ele>
        <time>2015-12-06T15:40:35.000Z</time>
      </trkpt>
      <trkpt lat="47.69728" lon="-2.75167">
        <ele>55</ele>
        <time>2015-12-06T15:40:36.000Z</time>
      </trkpt>
      <trkpt lat="47.69724" lon="-2.7517">
        <ele>54.8</ele>
        <time>2015-12-06T15:40:37.000Z</time>
      </trkpt>
      <trkpt lat="47.69719" lon="-2.75173">
        <ele>54.6</ele>
        <time>2015-12-06T15:40:38.000Z</time>
      </trkpt>
      <trkpt lat="47.69715" lon="-2.75176">
        <ele>54.3</ele>
        <time>2015-12-06T15:40:39.000Z</time>
      </trkpt>
      <trkpt lat="47.69711" lon="-2.75178">
        <ele>54.1</ele>
        <time>2015-12-06T15:40:40.000Z</time>
      </trkpt>
      <trkpt lat="47.69706" lon="-2.75181">
        <ele>54</ele>
        <time>2015-12-06T15:40:41.000Z</time>
      </trkpt>
      <trkpt lat="47.69701" lon="-2.75184">
        <ele>54.1</ele>
        <time>2015-12-06T15:40:42.000Z</time>
      </trkpt>
      <trkpt lat="47.69697" lon="-2.75187">
        <ele>54.1</ele>
        <time>2015-12-06T15:40:43.000Z</time>
      </trkpt>
      <trkpt lat="47.69693" lon="-2.7519">
        <ele>54.1</ele>
        <time>2015-12-06T15:40:44.000Z</time>
      </trkpt>
      <trkpt lat="47.69689" lon="-2.75193">
        <ele>54.2</ele>
        <time>2015-12-06T15:40:45.000Z</time>
      </trkpt>
      <trkpt lat="47.69686" lon="-2.75195">
        <ele>54.2</ele>
        <time>2015-12-06T15:40:46.000Z</time>
      </trkpt>
      <trkpt lat="47.69684" lon="-2.75198">
        <ele>54.3</ele>
        <time>2015-12-06T15:40:47.000Z</time>
      </trkpt>
      <trkpt lat="47.69682" lon="-2.752">
        <ele>54.3</ele>
        <time>2015-12-06T15:40:48.000Z</time>
      </trkpt>
      <trkpt lat="47.69681" lon="-2.75201">
        <ele>54.3</ele>
        <time>2015-12-06T15:40:49.000Z</time>
      </trkpt>
      <trkpt lat="47.69679" lon="-2.75202">
        <ele>54.3</ele>
        <time>2015-12-06T15:40:50.000Z</time>
      </trkpt>
      <trkpt lat="47.69676" lon="-2.75204">
        <ele>54.4</ele>
        <time>2015-12-06T15:40:51.000Z</time>
      </trkpt>
      <trkpt lat="47.69673" lon="-2.75206">
        <ele>54.4</ele>
        <time>2015-12-06T15:40:52.000Z</time>
      </trkpt>
      <trkpt lat="47.69671" lon="-2.75208">
        <ele>54.5</ele>
        <time>2015-12-06T15:40:53.000Z</time>
      </trkpt>
      <trkpt lat="47.69668" lon="-2.75211">
        <ele>54.6</ele>
        <time>2015-12-06T15:40:54.000Z</time>
      </trkpt>
      <trkpt lat="47.69665" lon="-2.75213">
        <ele>54.7</ele>
        <time>2015-12-06T15:40:55.000Z</time>
      </trkpt>
      <trkpt lat="47.69662" lon="-2.75215">
        <ele>54.8</ele>
        <time>2015-12-06T15:40:56.000Z</time>
      </trkpt>
      <trkpt lat="47.69658" lon="-2.75217">
        <ele>54.9</ele>
        <time>2015-12-06T15:40:57.000Z</time>
      </trkpt>
      <trkpt lat="47.69653" lon="-2.7522">
        <ele>55.1</ele>
        <time>2015-12-06T15:40:58.000Z</time>
      </trkpt>
      <trkpt lat="47.69648" lon="-2.75223">
        <ele>55.3</ele>
        <time>2015-12-06T15:40:59.000Z</time>
      </trkpt>
      <trkpt lat="47.69642" lon="-2.75226">
        <ele>55.4</ele>
        <time>2015-12-06T15:41:00.000Z</time>
      </trkpt>
      <trkpt lat="47.69637" lon="-2.75229">
        <ele>55.6</ele>
        <time>2015-12-06T15:41:01.000Z</time>
      </trkpt>
      <trkpt lat="47.69631" lon="-2.75232">
        <ele>55.8</ele>
        <time>2015-12-06T15:41:02.000Z</time>
      </trkpt>
      <trkpt lat="47.69625" lon="-2.75235">
        <ele>56</ele>
        <time>2015-12-06T15:41:03.000Z</time>
      </trkpt>
      <trkpt lat="47.69619" lon="-2.75238">
        <ele>56.2</ele>
        <time>2015-12-06T15:41:04.000Z</time>
      </trkpt>
      <trkpt lat="47.69614" lon="-2.75241">
        <ele>56.4</ele>
        <time>2015-12-06T15:41:05.000Z</time>
      </trkpt>
      <trkpt lat="47.69608" lon="-2.75245">
        <ele>56.6</ele>
        <time>2015-12-06T15:41:06.000Z</time>
      </trkpt>
      <trkpt lat="47.69603" lon="-2.75248">
        <ele>56.8</ele>
        <time>2015-12-06T15:41:07.000Z</time>
      </trkpt>
      <trkpt lat="47.69598" lon="-2.75252">
        <ele>57</ele>
        <time>2015-12-06T15:41:08.000Z</time>
      </trkpt>
      <trkpt lat="47.69593" lon="-2.75256">
        <ele>57.2</ele>
        <time>2015-12-06T15:41:09.000Z</time>
      </trkpt>
      <trkpt lat="47.69589" lon="-2.7526">
        <ele>57.4</ele>
        <time>2015-12-06T15:41:10.000Z</time>
      </trkpt>
      <trkpt lat="47.69584" lon="-2.75264">
        <ele>57.5</ele>
        <time>2015-12-06T15:41:11.000Z</time>
      </trkpt>
      <trkpt lat="47.6958" lon="-2.75268">
        <ele>57.6</ele>
        <time>2015-12-06T15:41:12.000Z</time>
      </trkpt>
      <trkpt lat="47.69575" lon="-2.7527">
        <ele>57.7</ele>
        <time>2015-12-06T15:41:13.000Z</time>
      </trkpt>
      <trkpt lat="47.69571" lon="-2.75271">
        <ele>57.7</ele>
        <time>2015-12-06T15:41:14.000Z</time>
      </trkpt>
      <trkpt lat="47.69566" lon="-2.75271">
        <ele>57.8</ele>
        <time>2015-12-06T15:41:15.000Z</time>
      </trkpt>
      <trkpt lat="47.69562" lon="-2.7527">
        <ele>57.8</ele>
        <time>2015-12-06T15:41:16.000Z</time>
      </trkpt>
      <trkpt lat="47.69558" lon="-2.75268">
        <ele>57.8</ele>
        <time>2015-12-06T15:41:17.000Z</time>
      </trkpt>
      <trkpt lat="47.69554" lon="-2.75266">
        <ele>57.9</ele>
        <time>2015-12-06T15:41:18.000Z</time>
      </trkpt>
      <trkpt lat="47.6955" lon="-2.75263">
        <ele>57.9</ele>
        <time>2015-12-06T15:41:19.000Z</time>
      </trkpt>
      <trkpt lat="47.69547" lon="-2.75261">
        <ele>57.9</ele>
        <time>2015-12-06T15:41:20.000Z</time>
      </trkpt>
      <trkpt lat="47.69544" lon="-2.75257">
        <ele>58</ele>
        <time>2015-12-06T15:41:21.000Z</time>
      </trkpt>
      <trkpt lat="47.6954" lon="-2.75253">
        <ele>58.1</ele>
        <time>2015-12-06T15:41:22.000Z</time>
      </trkpt>
      <trkpt lat="47.69536" lon="-2.75249">
        <ele>58.4</ele>
        <time>2015-12-06T15:41:23.000Z</time>
      </trkpt>
      <trkpt lat="47.69533" lon="-2.75245">
        <ele>58.7</ele>
        <time>2015-12-06T15:41:24.000Z</time>
      </trkpt>
      <trkpt lat="47.69528" lon="-2.75241">
        <ele>59</ele>
        <time>2015-12-06T15:41:25.000Z</time>
      </trkpt>
      <trkpt lat="47.69523" lon="-2.75237">
        <ele>59.3</ele>
        <time>2015-12-06T15:41:26.000Z</time>
      </trkpt>
      <trkpt lat="47.69517" lon="-2.75231">
        <ele>59.7</ele>
        <time>2015-12-06T15:41:27.000Z</time>
      </trkpt>
      <trkpt lat="47.69511" lon="-2.75225">
        <ele>60</ele>
        <time>2015-12-06T15:41:28.000Z</time>
      </trkpt>
      <trkpt lat="47.69505" lon="-2.75219">
        <ele>60.4</ele>
        <time>2015-12-06T15:41:29.000Z</time>
      </trkpt>
      <trkpt lat="47.69498" lon="-2.75213">
        <ele>60.7</ele>
        <time>2015-12-06T15:41:30.000Z</time>
      </trkpt>
      <trkpt lat="47.69492" lon="-2.75207">
        <ele>60.9</ele>
        <time>2015-12-06T15:41:31.000Z</time>
      </trkpt>
      <trkpt lat="47.69487" lon="-2.75201">
        <ele>61</ele>
        <time>2015-12-06T15:41:32.000Z</time>
      </trkpt>
      <trkpt lat="47.69482" lon="-2.75195">
        <ele>61</ele>
        <time>2015-12-06T15:41:33.000Z</time>
      </trkpt>
      <trkpt lat="47.69477" lon="-2.7519">
        <ele>61</ele>
        <time>2015-12-06T15:41:34.000Z</time>
      </trkpt>
      <trkpt lat="47.69472" lon="-2.75184">
        <ele>61</ele>
        <time>2015-12-06T15:41:35.000Z</time>
      </trkpt>
      <trkpt lat="47.69468" lon="-2.75179">
        <ele>60.9</ele>
        <time>2015-12-06T15:41:36.000Z</time>
      </trkpt>
      <trkpt lat="47.69463" lon="-2.75175">
        <ele>60.8</ele>
        <time>2015-12-06T15:41:37.000Z</time>
      </trkpt>
      <trkpt lat="47.69459" lon="-2.75172">
        <ele>60.8</ele>
        <time>2015-12-06T15:41:38.000Z</time>
      </trkpt>
      <trkpt lat="47.69455" lon="-2.7517">
        <ele>60.5</ele>
        <time>2015-12-06T15:41:39.000Z</time>
      </trkpt>
      <trkpt lat="47.69451" lon="-2.75169">
        <ele>60.3</ele>
        <time>2015-12-06T15:41:40.000Z</time>
      </trkpt>
      <trkpt lat="47.69449" lon="-2.75169">
        <ele>60.2</ele>
        <time>2015-12-06T15:41:41.000Z</time>
      </trkpt>
      <trkpt lat="47.69447" lon="-2.7517">
        <ele>60.1</ele>
        <time>2015-12-06T15:41:42.000Z</time>
      </trkpt>
      <trkpt lat="47.69446" lon="-2.75172">
        <ele>60.2</ele>
        <time>2015-12-06T15:41:43.000Z</time>
      </trkpt>
      <trkpt lat="47.69445" lon="-2.75175">
        <ele>60.3</ele>
        <time>2015-12-06T15:41:44.000Z</time>
      </trkpt>
      <trkpt lat="47.69444" lon="-2.75178">
        <ele>60.4</ele>
        <time>2015-12-06T15:41:45.000Z</time>
      </trkpt>
      <trkpt lat="47.69444" lon="-2.75181">
        <ele>60.5</ele>
        <time>2015-12-06T15:41:46.000Z</time>
      </trkpt>
      <trkpt lat="47.69444" lon="-2.75185">
        <ele>60.7</ele>
        <time>2015-12-06T15:41:47.000Z</time>
      </trkpt>
      <trkpt lat="47.69444" lon="-2.75189">
        <ele>61</ele>
        <time>2015-12-06T15:41:48.000Z</time>
      </trkpt>
      <trkpt lat="47.69445" lon="-2.75193">
        <ele>61.2</ele>
        <time>2015-12-06T15:41:49.000Z</time>
      </trkpt>
      <trkpt lat="47.69446" lon="-2.75197">
        <ele>61.5</ele>
        <time>2015-12-06T15:41:50.000Z</time>
      </trkpt>
      <trkpt lat="47.69447" lon="-2.75201">
        <ele>61.8</ele>
        <time>2015-12-06T15:41:51.000Z</time>
      </trkpt>
      <trkpt lat="47.69447" lon="-2.75207">
        <ele>62.1</ele>
        <time>2015-12-06T15:41:52.000Z</time>
      </trkpt>
      <trkpt lat="47.69446" lon="-2.75212">
        <ele>62.3</ele>
        <time>2015-12-06T15:41:53.000Z</time>
      </trkpt>
      <trkpt lat="47.69445" lon="-2.75217">
        <ele>62.4</ele>
        <time>2015-12-06T15:41:54.000Z</time>
      </trkpt>
      <trkpt lat="47.69444" lon="-2.75221">
        <ele>62.4</ele>
        <time>2015-12-06T15:41:55.000Z</time>
      </trkpt>
      <trkpt lat="47.69441" lon="-2.75224">
        <ele>62.4</ele>
        <time>2015-12-06T15:41:56.000Z</time>
      </trkpt>
      <trkpt lat="47.69438" lon="-2.75227">
        <ele>62.4</ele>
        <time>2015-12-06T15:41:57.000Z</time>
      </trkpt>
      <trkpt lat="47.69435" lon="-2.75229">
        <ele>62.3</ele>
        <time>2015-12-06T15:41:58.000Z</time>
      </trkpt>
      <trkpt lat="47.69432" lon="-2.75232">
        <ele>62.2</ele>
        <time>2015-12-06T15:41:59.000Z</time>
      </trkpt>
      <trkpt lat="47.69428" lon="-2.75233">
        <ele>62</ele>
        <time>2015-12-06T15:42:00.000Z</time>
      </trkpt>
      <trkpt lat="47.69423" lon="-2.75234">
        <ele>61.8</ele>
        <time>2015-12-06T15:42:01.000Z</time>
      </trkpt>
      <trkpt lat="47.69418" lon="-2.75235">
        <ele>61.5</ele>
        <time>2015-12-06T15:42:02.000Z</time>
      </trkpt>
      <trkpt lat="47.69413" lon="-2.75236">
        <ele>61.3</ele>
        <time>2015-12-06T15:42:03.000Z</time>
      </trkpt>
      <trkpt lat="47.69408" lon="-2.75236">
        <ele>61</ele>
        <time>2015-12-06T15:42:04.000Z</time>
      </trkpt>
      <trkpt lat="47.69403" lon="-2.75237">
        <ele>60.7</ele>
        <time>2015-12-06T15:42:05.000Z</time>
      </trkpt>
      <trkpt lat="47.69398" lon="-2.75238">
        <ele>60.5</ele>
        <time>2015-12-06T15:42:06.000Z</time>
      </trkpt>
      <trkpt lat="47.69393" lon="-2.7524">
        <ele>60.3</ele>
        <time>2015-12-06T15:42:07.000Z</time>
      </trkpt>
      <trkpt lat="47.69389" lon="-2.75244">
        <ele>60.3</ele>
        <time>2015-12-06T15:42:08.000Z</time>
      </trkpt>
      <trkpt lat="47.69385" lon="-2.75249">
        <ele>60.5</ele>
        <time>2015-12-06T15:42:09.000Z</time>
      </trkpt>
      <trkpt lat="47.69382" lon="-2.75255">
        <ele>60.7</ele>
        <time>2015-12-06T15:42:10.000Z</time>
      </trkpt>
      <trkpt lat="47.69379" lon="-2.7526">
        <ele>60.9</ele>
        <time>2015-12-06T15:42:11.000Z</time>
      </trkpt>
      <trkpt lat="47.69376" lon="-2.75265">
        <ele>61.2</ele>
        <time>2015-12-06T15:42:12.000Z</time>
      </trkpt>
      <trkpt lat="47.69374" lon="-2.7527">
        <ele>61.3</ele>
        <time>2015-12-06T15:42:13.000Z</time>
      </trkpt>
      <trkpt lat="47.69372" lon="-2.75275">
        <ele>61.5</ele>
        <time>2015-12-06T15:42:14.000Z</time>
      </trkpt>
      <trkpt lat="47.69369" lon="-2.7528">
        <ele>61.5</ele>
        <time>2015-12-06T15:42:15.000Z</time>
      </trkpt>
      <trkpt lat="47.69366" lon="-2.75286">
        <ele>61.7</ele>
        <time>2015-12-06T15:42:16.000Z</time>
      </trkpt>
      <trkpt lat="47.69363" lon="-2.75292">
        <ele>61.7</ele>
        <time>2015-12-06T15:42:17.000Z</time>
      </trkpt>
      <trkpt lat="47.69361" lon="-2.75296">
        <ele>61.6</ele>
        <time>2015-12-06T15:42:18.000Z</time>
      </trkpt>
      <trkpt lat="47.69359" lon="-2.753">
        <ele>61.5</ele>
        <time>2015-12-06T15:42:19.000Z</time>
      </trkpt>
      <trkpt lat="47.69356" lon="-2.75304">
        <ele>61.3</ele>
        <time>2015-12-06T15:42:20.000Z</time>
      </trkpt>
      <trkpt lat="47.69352" lon="-2.75308">
        <ele>61</ele>
        <time>2015-12-06T15:42:21.000Z</time>
      </trkpt>
      <trkpt lat="47.69349" lon="-2.75311">
        <ele>60.8</ele>
        <time>2015-12-06T15:42:22.000Z</time>
      </trkpt>
      <trkpt lat="47.69346" lon="-2.75314">
        <ele>60.6</ele>
        <time>2015-12-06T15:42:23.000Z</time>
      </trkpt>
      <trkpt lat="47.69343" lon="-2.75316">
        <ele>60.4</ele>
        <time>2015-12-06T15:42:24.000Z</time>
      </trkpt>
      <trkpt lat="47.6934" lon="-2.75319">
        <ele>60.1</ele>
        <time>2015-12-06T15:42:25.000Z</time>
      </trkpt>
      <trkpt lat="47.69336" lon="-2.75321">
        <ele>59.9</ele>
        <time>2015-12-06T15:42:26.000Z</time>
      </trkpt>
      <trkpt lat="47.69332" lon="-2.75324">
        <ele>59.5</ele>
        <time>2015-12-06T15:42:27.000Z</time>
      </trkpt>
      <trkpt lat="47.69326" lon="-2.75327">
        <ele>59</ele>
        <time>2015-12-06T15:42:28.000Z</time>
      </trkpt>
      <trkpt lat="47.6932" lon="-2.75328">
        <ele>58.5</ele>
        <time>2015-12-06T15:42:29.000Z</time>
      </trkpt>
      <trkpt lat="47.69314" lon="-2.7533">
        <ele>58</ele>
        <time>2015-12-06T15:42:30.000Z</time>
      </trkpt>
      <trkpt lat="47.69308" lon="-2.7533">
        <ele>57.5</ele>
        <time>2015-12-06T15:42:31.000Z</time>
      </trkpt>
      <trkpt lat="47.69302" lon="-2.75331">
        <ele>56.9</ele>
        <time>2015-12-06T15:42:32.000Z</time>
      </trkpt>
      <trkpt lat="47.69297" lon="-2.75333">
        <ele>56.5</ele>
        <time>2015-12-06T15:42:33.000Z</time>
      </trkpt>
      <trkpt lat="47.69291" lon="-2.75336">
        <ele>56.1</ele>
        <time>2015-12-06T15:42:34.000Z</time>
      </trkpt>
      <trkpt lat="47.69286" lon="-2.75339">
        <ele>55.9</ele>
        <time>2015-12-06T15:42:35.000Z</time>
      </trkpt>
      <trkpt lat="47.69281" lon="-2.75343">
        <ele>55.6</ele>
        <time>2015-12-06T15:42:36.000Z</time>
      </trkpt>
      <trkpt lat="47.69277" lon="-2.75346">
        <ele>55.5</ele>
        <time>2015-12-06T15:42:37.000Z</time>
      </trkpt>
      <trkpt lat="47.69273" lon="-2.7535">
        <ele>55.3</ele>
        <time>2015-12-06T15:42:38.000Z</time>
      </trkpt>
      <trkpt lat="47.6927" lon="-2.75353">
        <ele>55.2</ele>
        <time>2015-12-06T15:42:39.000Z</time>
      </trkpt>
      <trkpt lat="47.69266" lon="-2.75356">
        <ele>55</ele>
        <time>2015-12-06T15:42:40.000Z</time>
      </trkpt>
      <trkpt lat="47.69263" lon="-2.7536">
        <ele>54.9</ele>
        <time>2015-12-06T15:42:41.000Z</time>
      </trkpt>
      <trkpt lat="47.69259" lon="-2.75363">
        <ele>54.7</ele>
        <time>2015-12-06T15:42:42.000Z</time>
      </trkpt>
      <trkpt lat="47.69255" lon="-2.75367">
        <ele>54.6</ele>
        <time>2015-12-06T15:42:43.000Z</time>
      </trkpt>
      <trkpt lat="47.6925" lon="-2.75371">
        <ele>54.4</ele>
        <time>2015-12-06T15:42:44.000Z</time>
      </trkpt>
      <trkpt lat="47.69246" lon="-2.75376">
        <ele>54.1</ele>
        <time>2015-12-06T15:42:45.000Z</time>
      </trkpt>
      <trkpt lat="47.69241" lon="-2.7538">
        <ele>53.6</ele>
        <time>2015-12-06T15:42:46.000Z</time>
      </trkpt>
      <trkpt lat="47.69236" lon="-2.75384">
        <ele>53.1</ele>
        <time>2015-12-06T15:42:47.000Z</time>
      </trkpt>
      <trkpt lat="47.69232" lon="-2.75388">
        <ele>52.5</ele>
        <time>2015-12-06T15:42:48.000Z</time>
      </trkpt>
      <trkpt lat="47.69228" lon="-2.75393">
        <ele>52</ele>
        <time>2015-12-06T15:42:49.000Z</time>
      </trkpt>
      <trkpt lat="47.69225" lon="-2.75399">
        <ele>51.6</ele>
        <time>2015-12-06T15:42:50.000Z</time>
      </trkpt>
      <trkpt lat="47.69223" lon="-2.75405">
        <ele>51.2</ele>
        <time>2015-12-06T15:42:51.000Z</time>
      </trkpt>
      <trkpt lat="47.69222" lon="-2.75411">
        <ele>50.9</ele>
        <time>2015-12-06T15:42:52.000Z</time>
      </trkpt>
      <trkpt lat="47.69222" lon="-2.75418">
        <ele>50.7</ele>
        <time>2015-12-06T15:42:53.000Z</time>
      </trkpt>
      <trkpt lat="47.69223" lon="-2.75424">
        <ele>50.6</ele>
        <time>2015-12-06T15:42:54.000Z</time>
      </trkpt>
      <trkpt lat="47.69225" lon="-2.75431">
        <ele>50.5</ele>
        <time>2015-12-06T15:42:55.000Z</time>
      </trkpt>
      <trkpt lat="47.69227" lon="-2.75438">
        <ele>50.4</ele>
        <time>2015-12-06T15:42:56.000Z</time>
      </trkpt>
      <trkpt lat="47.69229" lon="-2.75445">
        <ele>50.4</ele>
        <time>2015-12-06T15:42:57.000Z</time>
      </trkpt>
      <trkpt lat="47.69231" lon="-2.75451">
        <ele>50.4</ele>
        <time>2015-12-06T15:42:58.000Z</time>
      </trkpt>
      <trkpt lat="47.69233" lon="-2.75457">
        <ele>50.4</ele>
        <time>2015-12-06T15:42:59.000Z</time>
      </trkpt>
      <trkpt lat="47.69234" lon="-2.75462">
        <ele>50.5</ele>
        <time>2015-12-06T15:43:00.000Z</time>
      </trkpt>
      <trkpt lat="47.69236" lon="-2.75467">
        <ele>50.6</ele>
        <time>2015-12-06T15:43:01.000Z</time>
      </trkpt>
      <trkpt lat="47.69238" lon="-2.75472">
        <ele>50.7</ele>
        <time>2015-12-06T15:43:02.000Z</time>
      </trkpt>
      <trkpt lat="47.6924" lon="-2.75478">
        <ele>50.8</ele>
        <time>2015-12-06T15:43:03.000Z</time>
      </trkpt>
      <trkpt lat="47.69242" lon="-2.75484">
        <ele>51</ele>
        <time>2015-12-06T15:43:04.000Z</time>
      </trkpt>
      <trkpt lat="47.69245" lon="-2.75491">
        <ele>51.2</ele>
        <time>2015-12-06T15:43:05.000Z</time>
      </trkpt>
      <trkpt lat="47.69248" lon="-2.75498">
        <ele>51.3</ele>
        <time>2015-12-06T15:43:06.000Z</time>
      </trkpt>
      <trkpt lat="47.6925" lon="-2.75506">
        <ele>51.4</ele>
        <time>2015-12-06T15:43:07.000Z</time>
      </trkpt>
      <trkpt lat="47.69253" lon="-2.75513">
        <ele>51.5</ele>
        <time>2015-12-06T15:43:08.000Z</time>
      </trkpt>
      <trkpt lat="47.69255" lon="-2.75521">
        <ele>51.6</ele>
        <time>2015-12-06T15:43:09.000Z</time>
      </trkpt>
      <trkpt lat="47.69257" lon="-2.75529">
        <ele>51.7</ele>
        <time>2015-12-06T15:43:10.000Z</time>
      </trkpt>
      <trkpt lat="47.69258" lon="-2.75538">
        <ele>51.6</ele>
        <time>2015-12-06T15:43:11.000Z</time>
      </trkpt>
      <trkpt lat="47.6926" lon="-2.75547">
        <ele>51.6</ele>
        <time>2015-12-06T15:43:12.000Z</time>
      </trkpt>
      <trkpt lat="47.69261" lon="-2.75556">
        <ele>51.6</ele>
        <time>2015-12-06T15:43:13.000Z</time>
      </trkpt>
      <trkpt lat="47.69263" lon="-2.75566">
        <ele>51.5</ele>
        <time>2015-12-06T15:43:14.000Z</time>
      </trkpt>
      <trkpt lat="47.69264" lon="-2.75574">
        <ele>51.5</ele>
        <time>2015-12-06T15:43:15.000Z</time>
      </trkpt>
      <trkpt lat="47.69266" lon="-2.75583">
        <ele>51.5</ele>
        <time>2015-12-06T15:43:16.000Z</time>
      </trkpt>
      <trkpt lat="47.69268" lon="-2.75591">
        <ele>51.6</ele>
        <time>2015-12-06T15:43:17.000Z</time>
      </trkpt>
      <trkpt lat="47.69271" lon="-2.75599">
        <ele>51.6</ele>
        <time>2015-12-06T15:43:18.000Z</time>
      </trkpt>
      <trkpt lat="47.69274" lon="-2.75605">
        <ele>51.8</ele>
        <time>2015-12-06T15:43:19.000Z</time>
      </trkpt>
      <trkpt lat="47.69277" lon="-2.7561">
        <ele>52</ele>
        <time>2015-12-06T15:43:20.000Z</time>
      </trkpt>
      <trkpt lat="47.69281" lon="-2.75615">
        <ele>52.3</ele>
        <time>2015-12-06T15:43:21.000Z</time>
      </trkpt>
      <trkpt lat="47.69287" lon="-2.75618">
        <ele>52.7</ele>
        <time>2015-12-06T15:43:22.000Z</time>
      </trkpt>
      <trkpt lat="47.69291" lon="-2.75621">
        <ele>53</ele>
        <time>2015-12-06T15:43:23.000Z</time>
      </trkpt>
      <trkpt lat="47.69295" lon="-2.75623">
        <ele>53.2</ele>
        <time>2015-12-06T15:43:24.000Z</time>
      </trkpt>
      <trkpt lat="47.69299" lon="-2.75624">
        <ele>53.3</ele>
        <time>2015-12-06T15:43:25.000Z</time>
      </trkpt>
      <trkpt lat="47.69303" lon="-2.75624">
        <ele>53.4</ele>
        <time>2015-12-06T15:43:26.000Z</time>
      </trkpt>
      <trkpt lat="47.69307" lon="-2.75625">
        <ele>53.5</ele>
        <time>2015-12-06T15:43:27.000Z</time>
      </trkpt>
      <trkpt lat="47.69311" lon="-2.75626">
        <ele>53.7</ele>
        <time>2015-12-06T15:43:28.000Z</time>
      </trkpt>
      <trkpt lat="47.69316" lon="-2.75626">
        <ele>53.8</ele>
        <time>2015-12-06T15:43:29.000Z</time>
      </trkpt>
      <trkpt lat="47.6932" lon="-2.75628">
        <ele>53.9</ele>
        <time>2015-12-06T15:43:30.000Z</time>
      </trkpt>
      <trkpt lat="47.69322" lon="-2.75631">
        <ele>54</ele>
        <time>2015-12-06T15:43:31.000Z</time>
      </trkpt>
      <trkpt lat="47.69323" lon="-2.75634">
        <ele>53.9</ele>
        <time>2015-12-06T15:43:32.000Z</time>
      </trkpt>
      <trkpt lat="47.69321" lon="-2.75638">
        <ele>53.8</ele>
        <time>2015-12-06T15:43:33.000Z</time>
      </trkpt>
      <trkpt lat="47.69319" lon="-2.75641">
        <ele>53.6</ele>
        <time>2015-12-06T15:43:34.000Z</time>
      </trkpt>
      <trkpt lat="47.69316" lon="-2.75645">
        <ele>53.4</ele>
        <time>2015-12-06T15:43:35.000Z</time>
      </trkpt>
      <trkpt lat="47.69314" lon="-2.75648">
        <ele>53.2</ele>
        <time>2015-12-06T15:43:36.000Z</time>
      </trkpt>
      <trkpt lat="47.6931" lon="-2.75651">
        <ele>52.9</ele>
        <time>2015-12-06T15:43:37.000Z</time>
      </trkpt>
      <trkpt lat="47.69307" lon="-2.75655">
        <ele>52.7</ele>
        <time>2015-12-06T15:43:38.000Z</time>
      </trkpt>
      <trkpt lat="47.69303" lon="-2.75659">
        <ele>52.3</ele>
        <time>2015-12-06T15:43:39.000Z</time>
      </trkpt>
      <trkpt lat="47.69299" lon="-2.75663">
        <ele>52</ele>
        <time>2015-12-06T15:43:40.000Z</time>
      </trkpt>
      <trkpt lat="47.69295" lon="-2.75666">
        <ele>51.7</ele>
        <time>2015-12-06T15:43:41.000Z</time>
      </trkpt>
      <trkpt lat="47.69291" lon="-2.7567">
        <ele>51.4</ele>
        <time>2015-12-06T15:43:42.000Z</time>
      </trkpt>
      <trkpt lat="47.69287" lon="-2.75674">
        <ele>50.9</ele>
        <time>2015-12-06T15:43:43.000Z</time>
      </trkpt>
      <trkpt lat="47.69284" lon="-2.75678">
        <ele>50.4</ele>
        <time>2015-12-06T15:43:44.000Z</time>
      </trkpt>
      <trkpt lat="47.6928" lon="-2.75681">
        <ele>49.9</ele>
        <time>2015-12-06T15:43:45.000Z</time>
      </trkpt>
      <trkpt lat="47.69276" lon="-2.75685">
        <ele>49.4</ele>
        <time>2015-12-06T15:43:46.000Z</time>
      </trkpt>
      <trkpt lat="47.69271" lon="-2.75688">
        <ele>48.8</ele>
        <time>2015-12-06T15:43:47.000Z</time>
      </trkpt>
      <trkpt lat="47.69266" lon="-2.75692">
        <ele>48.2</ele>
        <time>2015-12-06T15:43:48.000Z</time>
      </trkpt>
      <trkpt lat="47.69262" lon="-2.75695">
        <ele>47.7</ele>
        <time>2015-12-06T15:43:49.000Z</time>
      </trkpt>
      <trkpt lat="47.69258" lon="-2.75699">
        <ele>47.2</ele>
        <time>2015-12-06T15:43:50.000Z</time>
      </trkpt>
      <trkpt lat="47.69255" lon="-2.75702">
        <ele>46.8</ele>
        <time>2015-12-06T15:43:51.000Z</time>
      </trkpt>
      <trkpt lat="47.69253" lon="-2.75705">
        <ele>46.4</ele>
        <time>2015-12-06T15:43:52.000Z</time>
      </trkpt>
      <trkpt lat="47.6925" lon="-2.75707">
        <ele>46</ele>
        <time>2015-12-06T15:43:53.000Z</time>
      </trkpt>
      <trkpt lat="47.69247" lon="-2.75709">
        <ele>45.7</ele>
        <time>2015-12-06T15:43:54.000Z</time>
      </trkpt>
      <trkpt lat="47.69246" lon="-2.7571">
        <ele>45.6</ele>
        <time>2015-12-06T15:43:55.000Z</time>
      </trkpt>
      <trkpt lat="47.69245" lon="-2.75712">
        <ele>45.5</ele>
        <time>2015-12-06T15:43:56.000Z</time>
      </trkpt>
      <trkpt lat="47.69245" lon="-2.75714">
        <ele>45.5</ele>
        <time>2015-12-06T15:43:57.000Z</time>
      </trkpt>
      <trkpt lat="47.69245" lon="-2.75716">
        <ele>45.5</ele>
        <time>2015-12-06T15:43:58.000Z</time>
      </trkpt>
      <trkpt lat="47.69245" lon="-2.75719">
        <ele>45.5</ele>
        <time>2015-12-06T15:43:59.000Z</time>
      </trkpt>
      <trkpt lat="47.69246" lon="-2.7572">
        <ele>45.5</ele>
        <time>2015-12-06T15:44:00.000Z</time>
      </trkpt>
      <trkpt lat="47.69247" lon="-2.75723">
        <ele>45.6</ele>
        <time>2015-12-06T15:44:01.000Z</time>
      </trkpt>
      <trkpt lat="47.69248" lon="-2.75726">
        <ele>45.6</ele>
        <time>2015-12-06T15:44:02.000Z</time>
      </trkpt>
      <trkpt lat="47.69249" lon="-2.7573">
        <ele>45.7</ele>
        <time>2015-12-06T15:44:03.000Z</time>
      </trkpt>
      <trkpt lat="47.6925" lon="-2.75733">
        <ele>45.7</ele>
        <time>2015-12-06T15:44:04.000Z</time>
      </trkpt>
      <trkpt lat="47.69251" lon="-2.75735">
        <ele>45.7</ele>
        <time>2015-12-06T15:44:05.000Z</time>
      </trkpt>
      <trkpt lat="47.69251" lon="-2.75738">
        <ele>45.7</ele>
        <time>2015-12-06T15:44:06.000Z</time>
      </trkpt>
      <trkpt lat="47.69252" lon="-2.75741">
        <ele>45.7</ele>
        <time>2015-12-06T15:44:07.000Z</time>
      </trkpt>
      <trkpt lat="47.69253" lon="-2.75743">
        <ele>45.7</ele>
        <time>2015-12-06T15:44:08.000Z</time>
      </trkpt>
      <trkpt lat="47.69254" lon="-2.75746">
        <ele>45.7</ele>
        <time>2015-12-06T15:44:09.000Z</time>
      </trkpt>
      <trkpt lat="47.69255" lon="-2.75747">
        <ele>45.7</ele>
        <time>2015-12-06T15:44:10.000Z</time>
      </trkpt>
      <trkpt lat="47.69256" lon="-2.75749">
        <ele>45.7</ele>
        <time>2015-12-06T15:44:11.000Z</time>
      </trkpt>
      <trkpt lat="47.69257" lon="-2.7575">
        <ele>45.8</ele>
        <time>2015-12-06T15:44:12.000Z</time>
      </trkpt>
      <trkpt lat="47.69258" lon="-2.75751">
        <ele>45.8</ele>
        <time>2015-12-06T15:44:13.000Z</time>
      </trkpt>
      <trkpt lat="47.6926" lon="-2.75752">
        <ele>45.8</ele>
        <time>2015-12-06T15:44:14.000Z</time>
      </trkpt>
      <trkpt lat="47.69262" lon="-2.75753">
        <ele>45.8</ele>
        <time>2015-12-06T15:44:15.000Z</time>
      </trkpt>
      <trkpt lat="47.69264" lon="-2.75754">
        <ele>45.9</ele>
        <time>2015-12-06T15:44:16.000Z</time>
      </trkpt>
      <trkpt lat="47.69266" lon="-2.75756">
        <ele>45.9</ele>
        <time>2015-12-06T15:44:17.000Z</time>
      </trkpt>
      <trkpt lat="47.69268" lon="-2.75758">
        <ele>45.9</ele>
        <time>2015-12-06T15:44:18.000Z</time>
      </trkpt>
      <trkpt lat="47.69271" lon="-2.75761">
        <ele>45.8</ele>
        <time>2015-12-06T15:44:19.000Z</time>
      </trkpt>
      <trkpt lat="47.69273" lon="-2.75765">
        <ele>45.6</ele>
        <time>2015-12-06T15:44:20.000Z</time>
      </trkpt>
      <trkpt lat="47.69275" lon="-2.7577">
        <ele>45.5</ele>
        <time>2015-12-06T15:44:21.000Z</time>
      </trkpt>
      <trkpt lat="47.69277" lon="-2.75774">
        <ele>45.2</ele>
        <time>2015-12-06T15:44:22.000Z</time>
      </trkpt>
      <trkpt lat="47.69279" lon="-2.75778">
        <ele>45</ele>
        <time>2015-12-06T15:44:23.000Z</time>
      </trkpt>
      <trkpt lat="47.69282" lon="-2.75781">
        <ele>44.8</ele>
        <time>2015-12-06T15:44:24.000Z</time>
      </trkpt>
      <trkpt lat="47.69284" lon="-2.75784">
        <ele>44.6</ele>
        <time>2015-12-06T15:44:25.000Z</time>
      </trkpt>
      <trkpt lat="47.69286" lon="-2.75787">
        <ele>44.5</ele>
        <time>2015-12-06T15:44:26.000Z</time>
      </trkpt>
      <trkpt lat="47.69288" lon="-2.75789">
        <ele>44.3</ele>
        <time>2015-12-06T15:44:27.000Z</time>
      </trkpt>
      <trkpt lat="47.69289" lon="-2.75791">
        <ele>44.1</ele>
        <time>2015-12-06T15:44:28.000Z</time>
      </trkpt>
      <trkpt lat="47.69291" lon="-2.75793">
        <ele>44</ele>
        <time>2015-12-06T15:44:29.000Z</time>
      </trkpt>
      <trkpt lat="47.69293" lon="-2.75795">
        <ele>44.1</ele>
        <time>2015-12-06T15:44:30.000Z</time>
      </trkpt>
      <trkpt lat="47.69294" lon="-2.75798">
        <ele>44.4</ele>
        <time>2015-12-06T15:44:31.000Z</time>
      </trkpt>
      <trkpt lat="47.69296" lon="-2.75799">
        <ele>44.6</ele>
        <time>2015-12-06T15:44:32.000Z</time>
      </trkpt>
      <trkpt lat="47.69298" lon="-2.758">
        <ele>44.8</ele>
        <time>2015-12-06T15:44:33.000Z</time>
      </trkpt>
      <trkpt lat="47.69301" lon="-2.75801">
        <ele>45.1</ele>
        <time>2015-12-06T15:44:34.000Z</time>
      </trkpt>
      <trkpt lat="47.69303" lon="-2.75803">
        <ele>45.3</ele>
        <time>2015-12-06T15:44:35.000Z</time>
      </trkpt>
      <trkpt lat="47.69306" lon="-2.75804">
        <ele>45.6</ele>
        <time>2015-12-06T15:44:36.000Z</time>
      </trkpt>
      <trkpt lat="47.69309" lon="-2.75806">
        <ele>45.9</ele>
        <time>2015-12-06T15:44:37.000Z</time>
      </trkpt>
      <trkpt lat="47.69312" lon="-2.75808">
        <ele>46.1</ele>
        <time>2015-12-06T15:44:38.000Z</time>
      </trkpt>
      <trkpt lat="47.69314" lon="-2.75811">
        <ele>46.3</ele>
        <time>2015-12-06T15:44:39.000Z</time>
      </trkpt>
      <trkpt lat="47.69317" lon="-2.75814">
        <ele>46.4</ele>
        <time>2015-12-06T15:44:40.000Z</time>
      </trkpt>
      <trkpt lat="47.69319" lon="-2.75816">
        <ele>46.5</ele>
        <time>2015-12-06T15:44:41.000Z</time>
      </trkpt>
      <trkpt lat="47.69321" lon="-2.75818">
        <ele>46.6</ele>
        <time>2015-12-06T15:44:42.000Z</time>
      </trkpt>
      <trkpt lat="47.69323" lon="-2.7582">
        <ele>46.7</ele>
        <time>2015-12-06T15:44:43.000Z</time>
      </trkpt>
      <trkpt lat="47.69325" lon="-2.75822">
        <ele>46.7</ele>
        <time>2015-12-06T15:44:44.000Z</time>
      </trkpt>
      <trkpt lat="47.69327" lon="-2.75826">
        <ele>46.8</ele>
        <time>2015-12-06T15:44:45.000Z</time>
      </trkpt>
      <trkpt lat="47.6933" lon="-2.75829">
        <ele>46.8</ele>
        <time>2015-12-06T15:44:46.000Z</time>
      </trkpt>
      <trkpt lat="47.69333" lon="-2.75832">
        <ele>46.8</ele>
        <time>2015-12-06T15:44:47.000Z</time>
      </trkpt>
      <trkpt lat="47.69335" lon="-2.75834">
        <ele>46.8</ele>
        <time>2015-12-06T15:44:48.000Z</time>
      </trkpt>
      <trkpt lat="47.69338" lon="-2.75835">
        <ele>46.9</ele>
        <time>2015-12-06T15:44:49.000Z</time>
      </trkpt>
      <trkpt lat="47.69341" lon="-2.75837">
        <ele>46.9</ele>
        <time>2015-12-06T15:44:50.000Z</time>
      </trkpt>
      <trkpt lat="47.69344" lon="-2.7584">
        <ele>46.8</ele>
        <time>2015-12-06T15:44:51.000Z</time>
      </trkpt>
      <trkpt lat="47.69347" lon="-2.75843">
        <ele>46.8</ele>
        <time>2015-12-06T15:44:52.000Z</time>
      </trkpt>
      <trkpt lat="47.69349" lon="-2.75845">
        <ele>46.7</ele>
        <time>2015-12-06T15:44:53.000Z</time>
      </trkpt>
      <trkpt lat="47.69352" lon="-2.75847">
        <ele>46.6</ele>
        <time>2015-12-06T15:44:54.000Z</time>
      </trkpt>
      <trkpt lat="47.69354" lon="-2.75849">
        <ele>46.5</ele>
        <time>2015-12-06T15:44:55.000Z</time>
      </trkpt>
      <trkpt lat="47.69357" lon="-2.75852">
        <ele>46.3</ele>
        <time>2015-12-06T15:44:56.000Z</time>
      </trkpt>
      <trkpt lat="47.69359" lon="-2.75855">
        <ele>46.1</ele>
        <time>2015-12-06T15:44:57.000Z</time>
      </trkpt>
      <trkpt lat="47.69362" lon="-2.75858">
        <ele>45.8</ele>
        <time>2015-12-06T15:44:58.000Z</time>
      </trkpt>
      <trkpt lat="47.69365" lon="-2.75861">
        <ele>45.6</ele>
        <time>2015-12-06T15:44:59.000Z</time>
      </trkpt>
      <trkpt lat="47.69368" lon="-2.75864">
        <ele>45.2</ele>
        <time>2015-12-06T15:45:00.000Z</time>
      </trkpt>
      <trkpt lat="47.69371" lon="-2.75868">
        <ele>44.9</ele>
        <time>2015-12-06T15:45:01.000Z</time>
      </trkpt>
      <trkpt lat="47.69374" lon="-2.75872">
        <ele>44.4</ele>
        <time>2015-12-06T15:45:02.000Z</time>
      </trkpt>
      <trkpt lat="47.69376" lon="-2.75874">
        <ele>44.1</ele>
        <time>2015-12-06T15:45:03.000Z</time>
      </trkpt>
      <trkpt lat="47.69376" lon="-2.75876">
        <ele>44.1</ele>
        <time>2015-12-06T15:45:04.000Z</time>
      </trkpt>
      <trkpt lat="47.69376" lon="-2.75877">
        <ele>44.1</ele>
        <time>2015-12-06T15:45:05.000Z</time>
      </trkpt>
      <trkpt lat="47.69376" lon="-2.75877">
        <ele>44.1</ele>
        <time>2015-12-06T15:45:06.000Z</time>
      </trkpt>
      <trkpt lat="47.69375" lon="-2.75877">
        <ele>44.1</ele>
        <time>2015-12-06T15:45:07.000Z</time>
      </trkpt>
      <trkpt lat="47.69374" lon="-2.75877">
        <ele>44.1</ele>
        <time>2015-12-06T15:45:08.000Z</time>
      </trkpt>
      <trkpt lat="47.69372" lon="-2.75877">
        <ele>44.1</ele>
        <time>2015-12-06T15:45:09.000Z</time>
      </trkpt>
      <trkpt lat="47.69371" lon="-2.75876">
        <ele>44.1</ele>
        <time>2015-12-06T15:45:10.000Z</time>
      </trkpt>
      <trkpt lat="47.69369" lon="-2.75875">
        <ele>44.1</ele>
        <time>2015-12-06T15:45:11.000Z</time>
      </trkpt>
      <trkpt lat="47.69367" lon="-2.75874">
        <ele>44.2</ele>
        <time>2015-12-06T15:45:12.000Z</time>
      </trkpt>
      <trkpt lat="47.69365" lon="-2.75873">
        <ele>44.4</ele>
        <time>2015-12-06T15:45:13.000Z</time>
      </trkpt>
      <trkpt lat="47.69362" lon="-2.75871">
        <ele>44.6</ele>
        <time>2015-12-06T15:45:14.000Z</time>
      </trkpt>
      <trkpt lat="47.6936" lon="-2.7587">
        <ele>44.7</ele>
        <time>2015-12-06T15:45:15.000Z</time>
      </trkpt>
      <trkpt lat="47.69358" lon="-2.75868">
        <ele>44.8</ele>
        <time>2015-12-06T15:45:16.000Z</time>
      </trkpt>
      <trkpt lat="47.69355" lon="-2.75867">
        <ele>44.9</ele>
        <time>2015-12-06T15:45:17.000Z</time>
      </trkpt>
      <trkpt lat="47.69353" lon="-2.75865">
        <ele>45.1</ele>
        <time>2015-12-06T15:45:18.000Z</time>
      </trkpt>
      <trkpt lat="47.6935" lon="-2.75864">
        <ele>45.2</ele>
        <time>2015-12-06T15:45:19.000Z</time>
      </trkpt>
      <trkpt lat="47.69348" lon="-2.75862">
        <ele>45.3</ele>
        <time>2015-12-06T15:45:20.000Z</time>
      </trkpt>
      <trkpt lat="47.69345" lon="-2.75861">
        <ele>45.4</ele>
        <time>2015-12-06T15:45:21.000Z</time>
      </trkpt>
      <trkpt lat="47.69342" lon="-2.75859">
        <ele>45.5</ele>
        <time>2015-12-06T15:45:22.000Z</time>
      </trkpt>
      <trkpt lat="47.69339" lon="-2.75856">
        <ele>45.6</ele>
        <time>2015-12-06T15:45:23.000Z</time>
      </trkpt>
      <trkpt lat="47.69336" lon="-2.75854">
        <ele>45.7</ele>
        <time>2015-12-06T15:45:24.000Z</time>
      </trkpt>
      <trkpt lat="47.69333" lon="-2.75852">
        <ele>45.7</ele>
        <time>2015-12-06T15:45:25.000Z</time>
      </trkpt>
      <trkpt lat="47.6933" lon="-2.75851">
        <ele>45.7</ele>
        <time>2015-12-06T15:45:26.000Z</time>
      </trkpt>
      <trkpt lat="47.69328" lon="-2.7585">
        <ele>45.7</ele>
        <time>2015-12-06T15:45:27.000Z</time>
      </trkpt>
      <trkpt lat="47.69325" lon="-2.75848">
        <ele>45.7</ele>
        <time>2015-12-06T15:45:28.000Z</time>
      </trkpt>
      <trkpt lat="47.69322" lon="-2.75846">
        <ele>45.7</ele>
        <time>2015-12-06T15:45:29.000Z</time>
      </trkpt>
      <trkpt lat="47.69319" lon="-2.75843">
        <ele>45.7</ele>
        <time>2015-12-06T15:45:30.000Z</time>
      </trkpt>
      <trkpt lat="47.69315" lon="-2.7584">
        <ele>45.6</ele>
        <time>2015-12-06T15:45:31.000Z</time>
      </trkpt>
      <trkpt lat="47.69312" lon="-2.75837">
        <ele>45.5</ele>
        <time>2015-12-06T15:45:32.000Z</time>
      </trkpt>
      <trkpt lat="47.69308" lon="-2.75834">
        <ele>45.4</ele>
        <time>2015-12-06T15:45:33.000Z</time>
      </trkpt>
      <trkpt lat="47.69304" lon="-2.75831">
        <ele>45.2</ele>
        <time>2015-12-06T15:45:34.000Z</time>
      </trkpt>
      <trkpt lat="47.693" lon="-2.75828">
        <ele>44.9</ele>
        <time>2015-12-06T15:45:35.000Z</time>
      </trkpt>
      <trkpt lat="47.69296" lon="-2.75825">
        <ele>44.7</ele>
        <time>2015-12-06T15:45:36.000Z</time>
      </trkpt>
      <trkpt lat="47.69292" lon="-2.75822">
        <ele>44.4</ele>
        <time>2015-12-06T15:45:37.000Z</time>
      </trkpt>
      <trkpt lat="47.69288" lon="-2.75818">
        <ele>44.5</ele>
        <time>2015-12-06T15:45:38.000Z</time>
      </trkpt>
      <trkpt lat="47.69284" lon="-2.75813">
        <ele>44.7</ele>
        <time>2015-12-06T15:45:39.000Z</time>
      </trkpt>
      <trkpt lat="47.69279" lon="-2.75808">
        <ele>44.7</ele>
        <time>2015-12-06T15:45:40.000Z</time>
      </trkpt>
      <trkpt lat="47.69275" lon="-2.75803">
        <ele>44.8</ele>
        <time>2015-12-06T15:45:41.000Z</time>
      </trkpt>
      <trkpt lat="47.6927" lon="-2.75799">
        <ele>44.8</ele>
        <time>2015-12-06T15:45:42.000Z</time>
      </trkpt>
      <trkpt lat="47.69266" lon="-2.75794">
        <ele>44.7</ele>
        <time>2015-12-06T15:45:43.000Z</time>
      </trkpt>
      <trkpt lat="47.69261" lon="-2.7579">
        <ele>44.8</ele>
        <time>2015-12-06T15:45:44.000Z</time>
      </trkpt>
      <trkpt lat="47.69256" lon="-2.75784">
        <ele>45</ele>
        <time>2015-12-06T15:45:45.000Z</time>
      </trkpt>
      <trkpt lat="47.69251" lon="-2.75778">
        <ele>45.2</ele>
        <time>2015-12-06T15:45:46.000Z</time>
      </trkpt>
      <trkpt lat="47.69246" lon="-2.75773">
        <ele>45.2</ele>
        <time>2015-12-06T15:45:47.000Z</time>
      </trkpt>
      <trkpt lat="47.69242" lon="-2.75768">
        <ele>45.2</ele>
        <time>2015-12-06T15:45:48.000Z</time>
      </trkpt>
      <trkpt lat="47.69237" lon="-2.75763">
        <ele>45.1</ele>
        <time>2015-12-06T15:45:49.000Z</time>
      </trkpt>
      <trkpt lat="47.69232" lon="-2.75759">
        <ele>45</ele>
        <time>2015-12-06T15:45:50.000Z</time>
      </trkpt>
      <trkpt lat="47.69227" lon="-2.75754">
        <ele>44.8</ele>
        <time>2015-12-06T15:45:51.000Z</time>
      </trkpt>
      <trkpt lat="47.69222" lon="-2.7575">
        <ele>44.5</ele>
        <time>2015-12-06T15:45:52.000Z</time>
      </trkpt>
      <trkpt lat="47.69217" lon="-2.75745">
        <ele>44.1</ele>
        <time>2015-12-06T15:45:53.000Z</time>
      </trkpt>
      <trkpt lat="47.69212" lon="-2.75739">
        <ele>43.7</ele>
        <time>2015-12-06T15:45:54.000Z</time>
      </trkpt>
      <trkpt lat="47.69207" lon="-2.75734">
        <ele>43.3</ele>
        <time>2015-12-06T15:45:55.000Z</time>
      </trkpt>
      <trkpt lat="47.69202" lon="-2.7573">
        <ele>43.2</ele>
        <time>2015-12-06T15:45:56.000Z</time>
      </trkpt>
      <trkpt lat="47.69198" lon="-2.75725">
        <ele>43</ele>
        <time>2015-12-06T15:45:57.000Z</time>
      </trkpt>
      <trkpt lat="47.69194" lon="-2.7572">
        <ele>42.9</ele>
        <time>2015-12-06T15:45:58.000Z</time>
      </trkpt>
      <trkpt lat="47.69191" lon="-2.75714">
        <ele>42.7</ele>
        <time>2015-12-06T15:45:59.000Z</time>
      </trkpt>
      <trkpt lat="47.69187" lon="-2.75708">
        <ele>42.5</ele>
        <time>2015-12-06T15:46:00.000Z</time>
      </trkpt>
      <trkpt lat="47.69185" lon="-2.75703">
        <ele>42.7</ele>
        <time>2015-12-06T15:46:01.000Z</time>
      </trkpt>
      <trkpt lat="47.69182" lon="-2.75698">
        <ele>42.9</ele>
        <time>2015-12-06T15:46:02.000Z</time>
      </trkpt>
      <trkpt lat="47.69179" lon="-2.75694">
        <ele>43</ele>
        <time>2015-12-06T15:46:03.000Z</time>
      </trkpt>
      <trkpt lat="47.69177" lon="-2.75689">
        <ele>43.1</ele>
        <time>2015-12-06T15:46:04.000Z</time>
      </trkpt>
      <trkpt lat="47.69174" lon="-2.75685">
        <ele>43.1</ele>
        <time>2015-12-06T15:46:05.000Z</time>
      </trkpt>
      <trkpt lat="47.69172" lon="-2.7568">
        <ele>43.2</ele>
        <time>2015-12-06T15:46:06.000Z</time>
      </trkpt>
      <trkpt lat="47.6917" lon="-2.75675">
        <ele>43.2</ele>
        <time>2015-12-06T15:46:07.000Z</time>
      </trkpt>
      <trkpt lat="47.69168" lon="-2.7567">
        <ele>43.2</ele>
        <time>2015-12-06T15:46:08.000Z</time>
      </trkpt>
      <trkpt lat="47.69166" lon="-2.75664">
        <ele>43.2</ele>
        <time>2015-12-06T15:46:09.000Z</time>
      </trkpt>
      <trkpt lat="47.69164" lon="-2.75657">
        <ele>43.2</ele>
        <time>2015-12-06T15:46:10.000Z</time>
      </trkpt>
      <trkpt lat="47.69162" lon="-2.7565">
        <ele>43.2</ele>
        <time>2015-12-06T15:46:11.000Z</time>
      </trkpt>
      <trkpt lat="47.6916" lon="-2.75643">
        <ele>43.1</ele>
        <time>2015-12-06T15:46:12.000Z</time>
      </trkpt>
      <trkpt lat="47.6916" lon="-2.75637">
        <ele>43.1</ele>
        <time>2015-12-06T15:46:13.000Z</time>
      </trkpt>
      <trkpt lat="47.69159" lon="-2.75631">
        <ele>43.1</ele>
        <time>2015-12-06T15:46:14.000Z</time>
      </trkpt>
      <trkpt lat="47.69159" lon="-2.75626">
        <ele>43</ele>
        <time>2015-12-06T15:46:15.000Z</time>
      </trkpt>
      <trkpt lat="47.69158" lon="-2.7562">
        <ele>43.1</ele>
        <time>2015-12-06T15:46:16.000Z</time>
      </trkpt>
      <trkpt lat="47.69157" lon="-2.75615">
        <ele>43.2</ele>
        <time>2015-12-06T15:46:17.000Z</time>
      </trkpt>
      <trkpt lat="47.69155" lon="-2.75609">
        <ele>43.2</ele>
        <time>2015-12-06T15:46:18.000Z</time>
      </trkpt>
      <trkpt lat="47.69153" lon="-2.75604">
        <ele>43.2</ele>
        <time>2015-12-06T15:46:19.000Z</time>
      </trkpt>
      <trkpt lat="47.69148" lon="-2.75599">
        <ele>43</ele>
        <time>2015-12-06T15:46:20.000Z</time>
      </trkpt>
      <trkpt lat="47.69144" lon="-2.75593">
        <ele>42.9</ele>
        <time>2015-12-06T15:46:21.000Z</time>
      </trkpt>
      <trkpt lat="47.6914" lon="-2.75589">
        <ele>42.8</ele>
        <time>2015-12-06T15:46:22.000Z</time>
      </trkpt>
      <trkpt lat="47.69136" lon="-2.75584">
        <ele>42.7</ele>
        <time>2015-12-06T15:46:23.000Z</time>
      </trkpt>
      <trkpt lat="47.69134" lon="-2.7558">
        <ele>42.6</ele>
        <time>2015-12-06T15:46:24.000Z</time>
      </trkpt>
      <trkpt lat="47.69131" lon="-2.75576">
        <ele>42.5</ele>
        <time>2015-12-06T15:46:25.000Z</time>
      </trkpt>
      <trkpt lat="47.69128" lon="-2.75572">
        <ele>42.5</ele>
        <time>2015-12-06T15:46:26.000Z</time>
      </trkpt>
      <trkpt lat="47.69125" lon="-2.75568">
        <ele>42.4</ele>
        <time>2015-12-06T15:46:27.000Z</time>
      </trkpt>
      <trkpt lat="47.69122" lon="-2.75564">
        <ele>42.5</ele>
        <time>2015-12-06T15:46:28.000Z</time>
      </trkpt>
      <trkpt lat="47.69118" lon="-2.7556">
        <ele>42.6</ele>
        <time>2015-12-06T15:46:29.000Z</time>
      </trkpt>
      <trkpt lat="47.69113" lon="-2.75556">
        <ele>42.7</ele>
        <time>2015-12-06T15:46:30.000Z</time>
      </trkpt>
      <trkpt lat="47.69108" lon="-2.75551">
        <ele>42.8</ele>
        <time>2015-12-06T15:46:31.000Z</time>
      </trkpt>
      <trkpt lat="47.69104" lon="-2.75547">
        <ele>42.9</ele>
        <time>2015-12-06T15:46:32.000Z</time>
      </trkpt>
      <trkpt lat="47.691" lon="-2.75544">
        <ele>43</ele>
        <time>2015-12-06T15:46:33.000Z</time>
      </trkpt>
      <trkpt lat="47.69096" lon="-2.7554">
        <ele>43</ele>
        <time>2015-12-06T15:46:34.000Z</time>
      </trkpt>
      <trkpt lat="47.69093" lon="-2.75536">
        <ele>43</ele>
        <time>2015-12-06T15:46:35.000Z</time>
      </trkpt>
      <trkpt lat="47.6909" lon="-2.75532">
        <ele>43.1</ele>
        <time>2015-12-06T15:46:36.000Z</time>
      </trkpt>
      <trkpt lat="47.69088" lon="-2.75529">
        <ele>43.1</ele>
        <time>2015-12-06T15:46:37.000Z</time>
      </trkpt>
      <trkpt lat="47.69085" lon="-2.75526">
        <ele>43.1</ele>
        <time>2015-12-06T15:46:38.000Z</time>
      </trkpt>
      <trkpt lat="47.69082" lon="-2.75523">
        <ele>43.1</ele>
        <time>2015-12-06T15:46:39.000Z</time>
      </trkpt>
      <trkpt lat="47.6908" lon="-2.7552">
        <ele>43.1</ele>
        <time>2015-12-06T15:46:40.000Z</time>
      </trkpt>
      <trkpt lat="47.69077" lon="-2.75515">
        <ele>43.1</ele>
        <time>2015-12-06T15:46:41.000Z</time>
      </trkpt>
      <trkpt lat="47.69074" lon="-2.7551">
        <ele>43.1</ele>
        <time>2015-12-06T15:46:42.000Z</time>
      </trkpt>
      <trkpt lat="47.6907" lon="-2.75505">
        <ele>43.2</ele>
        <time>2015-12-06T15:46:43.000Z</time>
      </trkpt>
      <trkpt lat="47.69067" lon="-2.755">
        <ele>43.2</ele>
        <time>2015-12-06T15:46:44.000Z</time>
      </trkpt>
      <trkpt lat="47.69064" lon="-2.75495">
        <ele>43.1</ele>
        <time>2015-12-06T15:46:45.000Z</time>
      </trkpt>
      <trkpt lat="47.69061" lon="-2.7549">
        <ele>43.1</ele>
        <time>2015-12-06T15:46:46.000Z</time>
      </trkpt>
      <trkpt lat="47.69058" lon="-2.75485">
        <ele>43.1</ele>
        <time>2015-12-06T15:46:47.000Z</time>
      </trkpt>
      <trkpt lat="47.69056" lon="-2.75481">
        <ele>43.1</ele>
        <time>2015-12-06T15:46:48.000Z</time>
      </trkpt>
      <trkpt lat="47.69054" lon="-2.75476">
        <ele>43.1</ele>
        <time>2015-12-06T15:46:49.000Z</time>
      </trkpt>
      <trkpt lat="47.69052" lon="-2.7547">
        <ele>43.1</ele>
        <time>2015-12-06T15:46:50.000Z</time>
      </trkpt>
      <trkpt lat="47.6905" lon="-2.75464">
        <ele>43.1</ele>
        <time>2015-12-06T15:46:51.000Z</time>
      </trkpt>
      <trkpt lat="47.69048" lon="-2.75459">
        <ele>43.1</ele>
        <time>2015-12-06T15:46:52.000Z</time>
      </trkpt>
      <trkpt lat="47.69046" lon="-2.75454">
        <ele>43</ele>
        <time>2015-12-06T15:46:53.000Z</time>
      </trkpt>
      <trkpt lat="47.69044" lon="-2.75449">
        <ele>42.8</ele>
        <time>2015-12-06T15:46:54.000Z</time>
      </trkpt>
      <trkpt lat="47.69044" lon="-2.75445">
        <ele>42.7</ele>
        <time>2015-12-06T15:46:55.000Z</time>
      </trkpt>
      <trkpt lat="47.69043" lon="-2.7544">
        <ele>42.6</ele>
        <time>2015-12-06T15:46:56.000Z</time>
      </trkpt>
      <trkpt lat="47.69042" lon="-2.75435">
        <ele>42.4</ele>
        <time>2015-12-06T15:46:57.000Z</time>
      </trkpt>
      <trkpt lat="47.6904" lon="-2.7543">
        <ele>42.4</ele>
        <time>2015-12-06T15:46:58.000Z</time>
      </trkpt>
      <trkpt lat="47.69039" lon="-2.75424">
        <ele>42.3</ele>
        <time>2015-12-06T15:46:59.000Z</time>
      </trkpt>
      <trkpt lat="47.69039" lon="-2.75419">
        <ele>42.1</ele>
        <time>2015-12-06T15:47:00.000Z</time>
      </trkpt>
      <trkpt lat="47.6904" lon="-2.75415">
        <ele>42</ele>
        <time>2015-12-06T15:47:01.000Z</time>
      </trkpt>
      <trkpt lat="47.69042" lon="-2.75411">
        <ele>41.9</ele>
        <time>2015-12-06T15:47:02.000Z</time>
      </trkpt>
      <trkpt lat="47.69044" lon="-2.75408">
        <ele>41.9</ele>
        <time>2015-12-06T15:47:03.000Z</time>
      </trkpt>
      <trkpt lat="47.69044" lon="-2.75404">
        <ele>41.8</ele>
        <time>2015-12-06T15:47:04.000Z</time>
      </trkpt>
      <trkpt lat="47.69044" lon="-2.75401">
        <ele>41.7</ele>
        <time>2015-12-06T15:47:05.000Z</time>
      </trkpt>
      <trkpt lat="47.69045" lon="-2.75399">
        <ele>41.7</ele>
        <time>2015-12-06T15:47:06.000Z</time>
      </trkpt>
      <trkpt lat="47.69047" lon="-2.75397">
        <ele>41.7</ele>
        <time>2015-12-06T15:47:07.000Z</time>
      </trkpt>
      <trkpt lat="47.69048" lon="-2.75394">
        <ele>41.7</ele>
        <time>2015-12-06T15:47:08.000Z</time>
      </trkpt>
      <trkpt lat="47.6905" lon="-2.75391">
        <ele>41.7</ele>
        <time>2015-12-06T15:47:09.000Z</time>
      </trkpt>
      <trkpt lat="47.69051" lon="-2.75389">
        <ele>41.7</ele>
        <time>2015-12-06T15:47:10.000Z</time>
      </trkpt>
      <trkpt lat="47.69052" lon="-2.75387">
        <ele>41.7</ele>
        <time>2015-12-06T15:47:11.000Z</time>
      </trkpt>
      <trkpt lat="47.69053" lon="-2.75385">
        <ele>41.7</ele>
        <time>2015-12-06T15:47:12.000Z</time>
      </trkpt>
      <trkpt lat="47.69054" lon="-2.75384">
        <ele>41.8</ele>
        <time>2015-12-06T15:47:13.000Z</time>
      </trkpt>
      <trkpt lat="47.69056" lon="-2.75382">
        <ele>41.8</ele>
        <time>2015-12-06T15:47:14.000Z</time>
      </trkpt>
      <trkpt lat="47.69058" lon="-2.75381">
        <ele>41.9</ele>
        <time>2015-12-06T15:47:15.000Z</time>
      </trkpt>
      <trkpt lat="47.69059" lon="-2.75379">
        <ele>41.9</ele>
        <time>2015-12-06T15:47:16.000Z</time>
      </trkpt>
      <trkpt lat="47.69061" lon="-2.75377">
        <ele>41.9</ele>
        <time>2015-12-06T15:47:17.000Z</time>
      </trkpt>
      <trkpt lat="47.69062" lon="-2.75376">
        <ele>42</ele>
        <time>2015-12-06T15:47:18.000Z</time>
      </trkpt>
      <trkpt lat="47.69065" lon="-2.75375">
        <ele>42.1</ele>
        <time>2015-12-06T15:47:19.000Z</time>
      </trkpt>
      <trkpt lat="47.69067" lon="-2.75374">
        <ele>42.2</ele>
        <time>2015-12-06T15:47:20.000Z</time>
      </trkpt>
      <trkpt lat="47.69069" lon="-2.75372">
        <ele>42.3</ele>
        <time>2015-12-06T15:47:21.000Z</time>
      </trkpt>
      <trkpt lat="47.6907" lon="-2.75371">
        <ele>42.3</ele>
        <time>2015-12-06T15:47:22.000Z</time>
      </trkpt>
      <trkpt lat="47.69072" lon="-2.7537">
        <ele>42.3</ele>
        <time>2015-12-06T15:47:23.000Z</time>
      </trkpt>
      <trkpt lat="47.69073" lon="-2.75368">
        <ele>42.4</ele>
        <time>2015-12-06T15:47:24.000Z</time>
      </trkpt>
      <trkpt lat="47.69075" lon="-2.75366">
        <ele>42.5</ele>
        <time>2015-12-06T15:47:25.000Z</time>
      </trkpt>
      <trkpt lat="47.69078" lon="-2.75365">
        <ele>42.6</ele>
        <time>2015-12-06T15:47:26.000Z</time>
      </trkpt>
      <trkpt lat="47.6908" lon="-2.75363">
        <ele>42.7</ele>
        <time>2015-12-06T15:47:27.000Z</time>
      </trkpt>
      <trkpt lat="47.69082" lon="-2.75362">
        <ele>42.8</ele>
        <time>2015-12-06T15:47:28.000Z</time>
      </trkpt>
      <trkpt lat="47.69084" lon="-2.75361">
        <ele>42.9</ele>
        <time>2015-12-06T15:47:29.000Z</time>
      </trkpt>
      <trkpt lat="47.69087" lon="-2.75359">
        <ele>43</ele>
        <time>2015-12-06T15:47:30.000Z</time>
      </trkpt>
      <trkpt lat="47.6909" lon="-2.75355">
        <ele>43.1</ele>
        <time>2015-12-06T15:47:31.000Z</time>
      </trkpt>
      <trkpt lat="47.69093" lon="-2.75352">
        <ele>43.2</ele>
        <time>2015-12-06T15:47:32.000Z</time>
      </trkpt>
      <trkpt lat="47.69095" lon="-2.75349">
        <ele>43.4</ele>
        <time>2015-12-06T15:47:33.000Z</time>
      </trkpt>
      <trkpt lat="47.69098" lon="-2.75347">
        <ele>43.5</ele>
        <time>2015-12-06T15:47:34.000Z</time>
      </trkpt>
      <trkpt lat="47.69101" lon="-2.75343">
        <ele>43.7</ele>
        <time>2015-12-06T15:47:35.000Z</time>
      </trkpt>
      <trkpt lat="47.69105" lon="-2.7534">
        <ele>43.9</ele>
        <time>2015-12-06T15:47:36.000Z</time>
      </trkpt>
      <trkpt lat="47.6911" lon="-2.75336">
        <ele>44.1</ele>
        <time>2015-12-06T15:47:37.000Z</time>
      </trkpt>
      <trkpt lat="47.69114" lon="-2.75334">
        <ele>44.3</ele>
        <time>2015-12-06T15:47:38.000Z</time>
      </trkpt>
      <trkpt lat="47.69117" lon="-2.75332">
        <ele>44.5</ele>
        <time>2015-12-06T15:47:39.000Z</time>
      </trkpt>
      <trkpt lat="47.6912" lon="-2.75331">
        <ele>44.7</ele>
        <time>2015-12-06T15:47:40.000Z</time>
      </trkpt>
      <trkpt lat="47.69123" lon="-2.7533">
        <ele>44.9</ele>
        <time>2015-12-06T15:47:41.000Z</time>
      </trkpt>
      <trkpt lat="47.69125" lon="-2.75328">
        <ele>45</ele>
        <time>2015-12-06T15:47:42.000Z</time>
      </trkpt>
      <trkpt lat="47.69127" lon="-2.75326">
        <ele>45.1</ele>
        <time>2015-12-06T15:47:43.000Z</time>
      </trkpt>
      <trkpt lat="47.6913" lon="-2.75324">
        <ele>45.2</ele>
        <time>2015-12-06T15:47:44.000Z</time>
      </trkpt>
      <trkpt lat="47.69133" lon="-2.75322">
        <ele>45.4</ele>
        <time>2015-12-06T15:47:45.000Z</time>
      </trkpt>
      <trkpt lat="47.69136" lon="-2.7532">
        <ele>45.5</ele>
        <time>2015-12-06T15:47:46.000Z</time>
      </trkpt>
      <trkpt lat="47.69139" lon="-2.75318">
        <ele>45.7</ele>
        <time>2015-12-06T15:47:47.000Z</time>
      </trkpt>
      <trkpt lat="47.69143" lon="-2.75317">
        <ele>45.9</ele>
        <time>2015-12-06T15:47:48.000Z</time>
      </trkpt>
      <trkpt lat="47.69147" lon="-2.75315">
        <ele>46</ele>
        <time>2015-12-06T15:47:49.000Z</time>
      </trkpt>
      <trkpt lat="47.6915" lon="-2.75313">
        <ele>46.1</ele>
        <time>2015-12-06T15:47:50.000Z</time>
      </trkpt>
      <trkpt lat="47.69152" lon="-2.75311">
        <ele>46.2</ele>
        <time>2015-12-06T15:47:51.000Z</time>
      </trkpt>
      <trkpt lat="47.69154" lon="-2.75308">
        <ele>46.2</ele>
        <time>2015-12-06T15:47:52.000Z</time>
      </trkpt>
      <trkpt lat="47.69156" lon="-2.75306">
        <ele>46.3</ele>
        <time>2015-12-06T15:47:53.000Z</time>
      </trkpt>
      <trkpt lat="47.69159" lon="-2.75303">
        <ele>46.4</ele>
        <time>2015-12-06T15:47:54.000Z</time>
      </trkpt>
      <trkpt lat="47.69162" lon="-2.75301">
        <ele>46.5</ele>
        <time>2015-12-06T15:47:55.000Z</time>
      </trkpt>
      <trkpt lat="47.69164" lon="-2.75298">
        <ele>46.5</ele>
        <time>2015-12-06T15:47:56.000Z</time>
      </trkpt>
      <trkpt lat="47.69166" lon="-2.75296">
        <ele>46.6</ele>
        <time>2015-12-06T15:47:57.000Z</time>
      </trkpt>
      <trkpt lat="47.69168" lon="-2.75294">
        <ele>46.6</ele>
        <time>2015-12-06T15:47:58.000Z</time>
      </trkpt>
      <trkpt lat="47.69169" lon="-2.75293">
        <ele>46.6</ele>
        <time>2015-12-06T15:47:59.000Z</time>
      </trkpt>
      <trkpt lat="47.69171" lon="-2.75292">
        <ele>46.7</ele>
        <time>2015-12-06T15:48:00.000Z</time>
      </trkpt>
      <trkpt lat="47.69173" lon="-2.7529">
        <ele>46.8</ele>
        <time>2015-12-06T15:48:01.000Z</time>
      </trkpt>
      <trkpt lat="47.69176" lon="-2.75289">
        <ele>46.9</ele>
        <time>2015-12-06T15:48:02.000Z</time>
      </trkpt>
      <trkpt lat="47.69178" lon="-2.75287">
        <ele>47</ele>
        <time>2015-12-06T15:48:03.000Z</time>
      </trkpt>
      <trkpt lat="47.6918" lon="-2.75286">
        <ele>47.2</ele>
        <time>2015-12-06T15:48:04.000Z</time>
      </trkpt>
      <trkpt lat="47.69183" lon="-2.75284">
        <ele>47.3</ele>
        <time>2015-12-06T15:48:05.000Z</time>
      </trkpt>
      <trkpt lat="47.69186" lon="-2.75283">
        <ele>47.4</ele>
        <time>2015-12-06T15:48:06.000Z</time>
      </trkpt>
      <trkpt lat="47.69188" lon="-2.75282">
        <ele>47.5</ele>
        <time>2015-12-06T15:48:07.000Z</time>
      </trkpt>
      <trkpt lat="47.69191" lon="-2.75281">
        <ele>47.7</ele>
        <time>2015-12-06T15:48:08.000Z</time>
      </trkpt>
      <trkpt lat="47.69193" lon="-2.75279">
        <ele>47.8</ele>
        <time>2015-12-06T15:48:09.000Z</time>
      </trkpt>
      <trkpt lat="47.69196" lon="-2.75277">
        <ele>47.9</ele>
        <time>2015-12-06T15:48:10.000Z</time>
      </trkpt>
      <trkpt lat="47.69198" lon="-2.75275">
        <ele>48.1</ele>
        <time>2015-12-06T15:48:11.000Z</time>
      </trkpt>
      <trkpt lat="47.69201" lon="-2.75274">
        <ele>48.2</ele>
        <time>2015-12-06T15:48:12.000Z</time>
      </trkpt>
      <trkpt lat="47.69204" lon="-2.75272">
        <ele>48.3</ele>
        <time>2015-12-06T15:48:13.000Z</time>
      </trkpt>
      <trkpt lat="47.69206" lon="-2.75271">
        <ele>48.4</ele>
        <time>2015-12-06T15:48:14.000Z</time>
      </trkpt>
      <trkpt lat="47.69208" lon="-2.7527">
        <ele>48.5</ele>
        <time>2015-12-06T15:48:15.000Z</time>
      </trkpt>
      <trkpt lat="47.69211" lon="-2.75269">
        <ele>48.7</ele>
        <time>2015-12-06T15:48:16.000Z</time>
      </trkpt>
      <trkpt lat="47.69213" lon="-2.75269">
        <ele>48.9</ele>
        <time>2015-12-06T15:48:17.000Z</time>
      </trkpt>
      <trkpt lat="47.69217" lon="-2.75268">
        <ele>49.1</ele>
        <time>2015-12-06T15:48:18.000Z</time>
      </trkpt>
      <trkpt lat="47.6922" lon="-2.75268">
        <ele>49.3</ele>
        <time>2015-12-06T15:48:19.000Z</time>
      </trkpt>
      <trkpt lat="47.69224" lon="-2.75268">
        <ele>49.5</ele>
        <time>2015-12-06T15:48:20.000Z</time>
      </trkpt>
      <trkpt lat="47.69227" lon="-2.75269">
        <ele>49.7</ele>
        <time>2015-12-06T15:48:21.000Z</time>
      </trkpt>
      <trkpt lat="47.6923" lon="-2.75269">
        <ele>49.9</ele>
        <time>2015-12-06T15:48:22.000Z</time>
      </trkpt>
      <trkpt lat="47.69234" lon="-2.75268">
        <ele>50.1</ele>
        <time>2015-12-06T15:48:23.000Z</time>
      </trkpt>
      <trkpt lat="47.69238" lon="-2.75269">
        <ele>50.4</ele>
        <time>2015-12-06T15:48:24.000Z</time>
      </trkpt>
      <trkpt lat="47.69241" lon="-2.75269">
        <ele>50.6</ele>
        <time>2015-12-06T15:48:25.000Z</time>
      </trkpt>
      <trkpt lat="47.69245" lon="-2.75268">
        <ele>50.8</ele>
        <time>2015-12-06T15:48:26.000Z</time>
      </trkpt>
      <trkpt lat="47.69249" lon="-2.75267">
        <ele>51.1</ele>
        <time>2015-12-06T15:48:27.000Z</time>
      </trkpt>
      <trkpt lat="47.69254" lon="-2.75266">
        <ele>51.4</ele>
        <time>2015-12-06T15:48:28.000Z</time>
      </trkpt>
      <trkpt lat="47.69258" lon="-2.75265">
        <ele>51.7</ele>
        <time>2015-12-06T15:48:29.000Z</time>
      </trkpt>
      <trkpt lat="47.69262" lon="-2.75263">
        <ele>51.9</ele>
        <time>2015-12-06T15:48:30.000Z</time>
      </trkpt>
      <trkpt lat="47.69266" lon="-2.75262">
        <ele>52.1</ele>
        <time>2015-12-06T15:48:31.000Z</time>
      </trkpt>
      <trkpt lat="47.69269" lon="-2.7526">
        <ele>52.3</ele>
        <time>2015-12-06T15:48:32.000Z</time>
      </trkpt>
      <trkpt lat="47.69272" lon="-2.75259">
        <ele>52.5</ele>
        <time>2015-12-06T15:48:33.000Z</time>
      </trkpt>
      <trkpt lat="47.69275" lon="-2.75258">
        <ele>52.6</ele>
        <time>2015-12-06T15:48:34.000Z</time>
      </trkpt>
      <trkpt lat="47.69278" lon="-2.75257">
        <ele>52.8</ele>
        <time>2015-12-06T15:48:35.000Z</time>
      </trkpt>
      <trkpt lat="47.69281" lon="-2.75255">
        <ele>52.9</ele>
        <time>2015-12-06T15:48:36.000Z</time>
      </trkpt>
      <trkpt lat="47.69284" lon="-2.75253">
        <ele>53.1</ele>
        <time>2015-12-06T15:48:37.000Z</time>
      </trkpt>
      <trkpt lat="47.69286" lon="-2.75251">
        <ele>53.2</ele>
        <time>2015-12-06T15:48:38.000Z</time>
      </trkpt>
      <trkpt lat="47.69288" lon="-2.75249">
        <ele>53.3</ele>
        <time>2015-12-06T15:48:39.000Z</time>
      </trkpt>
      <trkpt lat="47.6929" lon="-2.75246">
        <ele>53.4</ele>
        <time>2015-12-06T15:48:40.000Z</time>
      </trkpt>
      <trkpt lat="47.69292" lon="-2.75243">
        <ele>53.4</ele>
        <time>2015-12-06T15:48:41.000Z</time>
      </trkpt>
      <trkpt lat="47.69293" lon="-2.7524">
        <ele>53.5</ele>
        <time>2015-12-06T15:48:42.000Z</time>
      </trkpt>
      <trkpt lat="47.69295" lon="-2.75237">
        <ele>53.5</ele>
        <time>2015-12-06T15:48:43.000Z</time>
      </trkpt>
      <trkpt lat="47.69296" lon="-2.75234">
        <ele>53.6</ele>
        <time>2015-12-06T15:48:44.000Z</time>
      </trkpt>
      <trkpt lat="47.69298" lon="-2.75232">
        <ele>53.7</ele>
        <time>2015-12-06T15:48:45.000Z</time>
      </trkpt>
      <trkpt lat="47.693" lon="-2.75229">
        <ele>53.8</ele>
        <time>2015-12-06T15:48:46.000Z</time>
      </trkpt>
      <trkpt lat="47.69302" lon="-2.75226">
        <ele>53.8</ele>
        <time>2015-12-06T15:48:47.000Z</time>
      </trkpt>
      <trkpt lat="47.69304" lon="-2.75223">
        <ele>53.9</ele>
        <time>2015-12-06T15:48:48.000Z</time>
      </trkpt>
      <trkpt lat="47.69306" lon="-2.75219">
        <ele>53.9</ele>
        <time>2015-12-06T15:48:49.000Z</time>
      </trkpt>
      <trkpt lat="47.69309" lon="-2.75215">
        <ele>54</ele>
        <time>2015-12-06T15:48:50.000Z</time>
      </trkpt>
      <trkpt lat="47.69312" lon="-2.75211">
        <ele>54</ele>
        <time>2015-12-06T15:48:51.000Z</time>
      </trkpt>
      <trkpt lat="47.69315" lon="-2.75207">
        <ele>54.2</ele>
        <time>2015-12-06T15:48:52.000Z</time>
      </trkpt>
      <trkpt lat="47.69318" lon="-2.75202">
        <ele>54.4</ele>
        <time>2015-12-06T15:48:53.000Z</time>
      </trkpt>
      <trkpt lat="47.69322" lon="-2.75198">
        <ele>54.6</ele>
        <time>2015-12-06T15:48:54.000Z</time>
      </trkpt>
      <trkpt lat="47.69324" lon="-2.75193">
        <ele>54.8</ele>
        <time>2015-12-06T15:48:55.000Z</time>
      </trkpt>
      <trkpt lat="47.69327" lon="-2.75189">
        <ele>55</ele>
        <time>2015-12-06T15:48:56.000Z</time>
      </trkpt>
      <trkpt lat="47.69329" lon="-2.75184">
        <ele>55.1</ele>
        <time>2015-12-06T15:48:57.000Z</time>
      </trkpt>
      <trkpt lat="47.69331" lon="-2.75178">
        <ele>55.3</ele>
        <time>2015-12-06T15:48:58.000Z</time>
      </trkpt>
      <trkpt lat="47.69332" lon="-2.75172">
        <ele>55.4</ele>
        <time>2015-12-06T15:48:59.000Z</time>
      </trkpt>
      <trkpt lat="47.69334" lon="-2.75166">
        <ele>55.5</ele>
        <time>2015-12-06T15:49:00.000Z</time>
      </trkpt>
      <trkpt lat="47.69335" lon="-2.75161">
        <ele>55.6</ele>
        <time>2015-12-06T15:49:01.000Z</time>
      </trkpt>
      <trkpt lat="47.69335" lon="-2.75156">
        <ele>55.7</ele>
        <time>2015-12-06T15:49:02.000Z</time>
      </trkpt>
      <trkpt lat="47.69336" lon="-2.75152">
        <ele>55.7</ele>
        <time>2015-12-06T15:49:03.000Z</time>
      </trkpt>
      <trkpt lat="47.69336" lon="-2.75147">
        <ele>55.8</ele>
        <time>2015-12-06T15:49:04.000Z</time>
      </trkpt>
      <trkpt lat="47.69336" lon="-2.75143">
        <ele>55.8</ele>
        <time>2015-12-06T15:49:05.000Z</time>
      </trkpt>
      <trkpt lat="47.69336" lon="-2.75139">
        <ele>55.9</ele>
        <time>2015-12-06T15:49:06.000Z</time>
      </trkpt>
      <trkpt lat="47.69337" lon="-2.75135">
        <ele>55.9</ele>
        <time>2015-12-06T15:49:07.000Z</time>
      </trkpt>
      <trkpt lat="47.69337" lon="-2.75131">
        <ele>55.9</ele>
        <time>2015-12-06T15:49:08.000Z</time>
      </trkpt>
      <trkpt lat="47.69337" lon="-2.75126">
        <ele>56</ele>
        <time>2015-12-06T15:49:09.000Z</time>
      </trkpt>
      <trkpt lat="47.69337" lon="-2.75122">
        <ele>56</ele>
        <time>2015-12-06T15:49:10.000Z</time>
      </trkpt>
      <trkpt lat="47.69336" lon="-2.75117">
        <ele>56</ele>
        <time>2015-12-06T15:49:11.000Z</time>
      </trkpt>
      <trkpt lat="47.69336" lon="-2.75112">
        <ele>56</ele>
        <time>2015-12-06T15:49:12.000Z</time>
      </trkpt>
      <trkpt lat="47.69335" lon="-2.75107">
        <ele>56</ele>
        <time>2015-12-06T15:49:13.000Z</time>
      </trkpt>
      <trkpt lat="47.69335" lon="-2.75104">
        <ele>56</ele>
        <time>2015-12-06T15:49:14.000Z</time>
      </trkpt>
      <trkpt lat="47.69334" lon="-2.751">
        <ele>56</ele>
        <time>2015-12-06T15:49:15.000Z</time>
      </trkpt>
      <trkpt lat="47.69333" lon="-2.75095">
        <ele>56</ele>
        <time>2015-12-06T15:49:16.000Z</time>
      </trkpt>
      <trkpt lat="47.69332" lon="-2.75091">
        <ele>56</ele>
        <time>2015-12-06T15:49:17.000Z</time>
      </trkpt>
      <trkpt lat="47.69331" lon="-2.75086">
        <ele>56</ele>
        <time>2015-12-06T15:49:18.000Z</time>
      </trkpt>
      <trkpt lat="47.69329" lon="-2.75082">
        <ele>56</ele>
        <time>2015-12-06T15:49:19.000Z</time>
      </trkpt>
      <trkpt lat="47.69328" lon="-2.75077">
        <ele>56</ele>
        <time>2015-12-06T15:49:20.000Z</time>
      </trkpt>
      <trkpt lat="47.69327" lon="-2.75072">
        <ele>56</ele>
        <time>2015-12-06T15:49:21.000Z</time>
      </trkpt>
      <trkpt lat="47.69328" lon="-2.75067">
        <ele>56</ele>
        <time>2015-12-06T15:49:22.000Z</time>
      </trkpt>
      <trkpt lat="47.69329" lon="-2.75063">
        <ele>56</ele>
        <time>2015-12-06T15:49:23.000Z</time>
      </trkpt>
      <trkpt lat="47.69331" lon="-2.7506">
        <ele>56</ele>
        <time>2015-12-06T15:49:24.000Z</time>
      </trkpt>
      <trkpt lat="47.69332" lon="-2.75057">
        <ele>56</ele>
        <time>2015-12-06T15:49:25.000Z</time>
      </trkpt>
      <trkpt lat="47.69334" lon="-2.75053">
        <ele>56</ele>
        <time>2015-12-06T15:49:26.000Z</time>
      </trkpt>
      <trkpt lat="47.69334" lon="-2.7505">
        <ele>56</ele>
        <time>2015-12-06T15:49:27.000Z</time>
      </trkpt>
      <trkpt lat="47.69334" lon="-2.75046">
        <ele>56</ele>
        <time>2015-12-06T15:49:28.000Z</time>
      </trkpt>
      <trkpt lat="47.69333" lon="-2.75043">
        <ele>56</ele>
        <time>2015-12-06T15:49:29.000Z</time>
      </trkpt>
      <trkpt lat="47.69332" lon="-2.75038">
        <ele>56</ele>
        <time>2015-12-06T15:49:30.000Z</time>
      </trkpt>
      <trkpt lat="47.6933" lon="-2.75034">
        <ele>56</ele>
        <time>2015-12-06T15:49:31.000Z</time>
      </trkpt>
      <trkpt lat="47.69329" lon="-2.75029">
        <ele>56</ele>
        <time>2015-12-06T15:49:32.000Z</time>
      </trkpt>
      <trkpt lat="47.69328" lon="-2.75025">
        <ele>56</ele>
        <time>2015-12-06T15:49:33.000Z</time>
      </trkpt>
      <trkpt lat="47.69327" lon="-2.75021">
        <ele>56</ele>
        <time>2015-12-06T15:49:34.000Z</time>
      </trkpt>
      <trkpt lat="47.69326" lon="-2.75017">
        <ele>56</ele>
        <time>2015-12-06T15:49:35.000Z</time>
      </trkpt>
      <trkpt lat="47.69325" lon="-2.75012">
        <ele>56</ele>
        <time>2015-12-06T15:49:36.000Z</time>
      </trkpt>
      <trkpt lat="47.69324" lon="-2.75007">
        <ele>56</ele>
        <time>2015-12-06T15:49:37.000Z</time>
      </trkpt>
      <trkpt lat="47.69323" lon="-2.75001">
        <ele>56</ele>
        <time>2015-12-06T15:49:38.000Z</time>
      </trkpt>
      <trkpt lat="47.69323" lon="-2.74996">
        <ele>56</ele>
        <time>2015-12-06T15:49:39.000Z</time>
      </trkpt>
      <trkpt lat="47.69322" lon="-2.74991">
        <ele>56</ele>
        <time>2015-12-06T15:49:40.000Z</time>
      </trkpt>
      <trkpt lat="47.69321" lon="-2.74986">
        <ele>56</ele>
        <time>2015-12-06T15:49:41.000Z</time>
      </trkpt>
      <trkpt lat="47.6932" lon="-2.7498">
        <ele>56</ele>
        <time>2015-12-06T15:49:42.000Z</time>
      </trkpt>
      <trkpt lat="47.69319" lon="-2.74975">
        <ele>56</ele>
        <time>2015-12-06T15:49:43.000Z</time>
      </trkpt>
      <trkpt lat="47.69318" lon="-2.74971">
        <ele>56</ele>
        <time>2015-12-06T15:49:44.000Z</time>
      </trkpt>
      <trkpt lat="47.69315" lon="-2.74968">
        <ele>56</ele>
        <time>2015-12-06T15:49:45.000Z</time>
      </trkpt>
      <trkpt lat="47.69313" lon="-2.74966">
        <ele>56</ele>
        <time>2015-12-06T15:49:46.000Z</time>
      </trkpt>
      <trkpt lat="47.69309" lon="-2.74964">
        <ele>56</ele>
        <time>2015-12-06T15:49:47.000Z</time>
      </trkpt>
      <trkpt lat="47.69305" lon="-2.74961">
        <ele>56</ele>
        <time>2015-12-06T15:49:48.000Z</time>
      </trkpt>
      <trkpt lat="47.69302" lon="-2.74958">
        <ele>56</ele>
        <time>2015-12-06T15:49:49.000Z</time>
      </trkpt>
      <trkpt lat="47.69299" lon="-2.74954">
        <ele>55.9</ele>
        <time>2015-12-06T15:49:50.000Z</time>
      </trkpt>
      <trkpt lat="47.69297" lon="-2.7495">
        <ele>55.9</ele>
        <time>2015-12-06T15:49:51.000Z</time>
      </trkpt>
      <trkpt lat="47.69295" lon="-2.74946">
        <ele>55.8</ele>
        <time>2015-12-06T15:49:52.000Z</time>
      </trkpt>
      <trkpt lat="47.69293" lon="-2.74942">
        <ele>55.8</ele>
        <time>2015-12-06T15:49:53.000Z</time>
      </trkpt>
      <trkpt lat="47.69292" lon="-2.74939">
        <ele>55.8</ele>
        <time>2015-12-06T15:49:54.000Z</time>
      </trkpt>
      <trkpt lat="47.6929" lon="-2.74936">
        <ele>55.8</ele>
        <time>2015-12-06T15:49:55.000Z</time>
      </trkpt>
      <trkpt lat="47.69288" lon="-2.74935">
        <ele>55.8</ele>
        <time>2015-12-06T15:49:56.000Z</time>
      </trkpt>
      <trkpt lat="47.69287" lon="-2.74935">
        <ele>55.9</ele>
        <time>2015-12-06T15:49:57.000Z</time>
      </trkpt>
      <trkpt lat="47.69285" lon="-2.74937">
        <ele>56</ele>
        <time>2015-12-06T15:49:58.000Z</time>
      </trkpt>
      <trkpt lat="47.69283" lon="-2.74939">
        <ele>56</ele>
        <time>2015-12-06T15:49:59.000Z</time>
      </trkpt>
      <trkpt lat="47.6928" lon="-2.74942">
        <ele>56.1</ele>
        <time>2015-12-06T15:50:00.000Z</time>
      </trkpt>
      <trkpt lat="47.69277" lon="-2.74943">
        <ele>56.2</ele>
        <time>2015-12-06T15:50:01.000Z</time>
      </trkpt>
      <trkpt lat="47.69274" lon="-2.74944">
        <ele>56.3</ele>
        <time>2015-12-06T15:50:02.000Z</time>
      </trkpt>
      <trkpt lat="47.69271" lon="-2.74945">
        <ele>56.4</ele>
        <time>2015-12-06T15:50:03.000Z</time>
      </trkpt>
      <trkpt lat="47.69267" lon="-2.74946">
        <ele>56.5</ele>
        <time>2015-12-06T15:50:04.000Z</time>
      </trkpt>
      <trkpt lat="47.69264" lon="-2.74948">
        <ele>56.6</ele>
        <time>2015-12-06T15:50:05.000Z</time>
      </trkpt>
      <trkpt lat="47.69261" lon="-2.7495">
        <ele>56.7</ele>
        <time>2015-12-06T15:50:06.000Z</time>
      </trkpt>
      <trkpt lat="47.69258" lon="-2.74954">
        <ele>56.8</ele>
        <time>2015-12-06T15:50:07.000Z</time>
      </trkpt>
      <trkpt lat="47.69256" lon="-2.74958">
        <ele>56.9</ele>
        <time>2015-12-06T15:50:08.000Z</time>
      </trkpt>
      <trkpt lat="47.69254" lon="-2.74963">
        <ele>56.9</ele>
        <time>2015-12-06T15:50:09.000Z</time>
      </trkpt>
      <trkpt lat="47.69252" lon="-2.74968">
        <ele>56.9</ele>
        <time>2015-12-06T15:50:10.000Z</time>
      </trkpt>
      <trkpt lat="47.69249" lon="-2.74973">
        <ele>56.8</ele>
        <time>2015-12-06T15:50:11.000Z</time>
      </trkpt>
      <trkpt lat="47.69247" lon="-2.74978">
        <ele>56.8</ele>
        <time>2015-12-06T15:50:12.000Z</time>
      </trkpt>
      <trkpt lat="47.69244" lon="-2.74984">
        <ele>56.8</ele>
        <time>2015-12-06T15:50:13.000Z</time>
      </trkpt>
      <trkpt lat="47.69241" lon="-2.7499">
        <ele>56.8</ele>
        <time>2015-12-06T15:50:14.000Z</time>
      </trkpt>
      <trkpt lat="47.69238" lon="-2.74995">
        <ele>56.7</ele>
        <time>2015-12-06T15:50:15.000Z</time>
      </trkpt>
      <trkpt lat="47.69236" lon="-2.75001">
        <ele>56.7</ele>
        <time>2015-12-06T15:50:16.000Z</time>
      </trkpt>
      <trkpt lat="47.69233" lon="-2.75007">
        <ele>56.6</ele>
        <time>2015-12-06T15:50:17.000Z</time>
      </trkpt>
      <trkpt lat="47.6923" lon="-2.75013">
        <ele>56.5</ele>
        <time>2015-12-06T15:50:18.000Z</time>
      </trkpt>
      <trkpt lat="47.69227" lon="-2.75019">
        <ele>56.4</ele>
        <time>2015-12-06T15:50:19.000Z</time>
      </trkpt>
      <trkpt lat="47.69225" lon="-2.75024">
        <ele>56.3</ele>
        <time>2015-12-06T15:50:20.000Z</time>
      </trkpt>
      <trkpt lat="47.69222" lon="-2.7503">
        <ele>56.2</ele>
        <time>2015-12-06T15:50:21.000Z</time>
      </trkpt>
      <trkpt lat="47.69219" lon="-2.75035">
        <ele>56.1</ele>
        <time>2015-12-06T15:50:22.000Z</time>
      </trkpt>
      <trkpt lat="47.69216" lon="-2.75039">
        <ele>56.1</ele>
        <time>2015-12-06T15:50:23.000Z</time>
      </trkpt>
      <trkpt lat="47.69213" lon="-2.75044">
        <ele>56</ele>
        <time>2015-12-06T15:50:24.000Z</time>
      </trkpt>
      <trkpt lat="47.6921" lon="-2.75048">
        <ele>55.9</ele>
        <time>2015-12-06T15:50:25.000Z</time>
      </trkpt>
      <trkpt lat="47.69207" lon="-2.75052">
        <ele>55.8</ele>
        <time>2015-12-06T15:50:26.000Z</time>
      </trkpt>
      <trkpt lat="47.69203" lon="-2.75057">
        <ele>55.7</ele>
        <time>2015-12-06T15:50:27.000Z</time>
      </trkpt>
      <trkpt lat="47.692" lon="-2.75061">
        <ele>55.6</ele>
        <time>2015-12-06T15:50:28.000Z</time>
      </trkpt>
      <trkpt lat="47.69197" lon="-2.75066">
        <ele>55.4</ele>
        <time>2015-12-06T15:50:29.000Z</time>
      </trkpt>
      <trkpt lat="47.69193" lon="-2.7507">
        <ele>55.3</ele>
        <time>2015-12-06T15:50:30.000Z</time>
      </trkpt>
      <trkpt lat="47.6919" lon="-2.75075">
        <ele>55.1</ele>
        <time>2015-12-06T15:50:31.000Z</time>
      </trkpt>
      <trkpt lat="47.69187" lon="-2.75079">
        <ele>54.9</ele>
        <time>2015-12-06T15:50:32.000Z</time>
      </trkpt>
      <trkpt lat="47.69183" lon="-2.75083">
        <ele>54.8</ele>
        <time>2015-12-06T15:50:33.000Z</time>
      </trkpt>
      <trkpt lat="47.69179" lon="-2.75087">
        <ele>54.5</ele>
        <time>2015-12-06T15:50:34.000Z</time>
      </trkpt>
      <trkpt lat="47.69175" lon="-2.7509">
        <ele>54.3</ele>
        <time>2015-12-06T15:50:35.000Z</time>
      </trkpt>
      <trkpt lat="47.69171" lon="-2.75094">
        <ele>54.1</ele>
        <time>2015-12-06T15:50:36.000Z</time>
      </trkpt>
      <trkpt lat="47.69166" lon="-2.75097">
        <ele>53.8</ele>
        <time>2015-12-06T15:50:37.000Z</time>
      </trkpt>
      <trkpt lat="47.69161" lon="-2.75101">
        <ele>53.5</ele>
        <time>2015-12-06T15:50:38.000Z</time>
      </trkpt>
      <trkpt lat="47.69157" lon="-2.75104">
        <ele>53.2</ele>
        <time>2015-12-06T15:50:39.000Z</time>
      </trkpt>
      <trkpt lat="47.69152" lon="-2.75108">
        <ele>52.9</ele>
        <time>2015-12-06T15:50:40.000Z</time>
      </trkpt>
      <trkpt lat="47.69146" lon="-2.75111">
        <ele>52.6</ele>
        <time>2015-12-06T15:50:41.000Z</time>
      </trkpt>
      <trkpt lat="47.69141" lon="-2.75114">
        <ele>52.2</ele>
        <time>2015-12-06T15:50:42.000Z</time>
      </trkpt>
      <trkpt lat="47.69135" lon="-2.75117">
        <ele>51.8</ele>
        <time>2015-12-06T15:50:43.000Z</time>
      </trkpt>
      <trkpt lat="47.69129" lon="-2.7512">
        <ele>51.4</ele>
        <time>2015-12-06T15:50:44.000Z</time>
      </trkpt>
      <trkpt lat="47.69123" lon="-2.75123">
        <ele>51</ele>
        <time>2015-12-06T15:50:45.000Z</time>
      </trkpt>
      <trkpt lat="47.69117" lon="-2.75125">
        <ele>50.4</ele>
        <time>2015-12-06T15:50:46.000Z</time>
      </trkpt>
      <trkpt lat="47.6911" lon="-2.75127">
        <ele>49.9</ele>
        <time>2015-12-06T15:50:47.000Z</time>
      </trkpt>
      <trkpt lat="47.69103" lon="-2.75129">
        <ele>49.3</ele>
        <time>2015-12-06T15:50:48.000Z</time>
      </trkpt>
      <trkpt lat="47.69095" lon="-2.75129">
        <ele>48.7</ele>
        <time>2015-12-06T15:50:49.000Z</time>
      </trkpt>
      <trkpt lat="47.69088" lon="-2.75129">
        <ele>48.2</ele>
        <time>2015-12-06T15:50:50.000Z</time>
      </trkpt>
      <trkpt lat="47.6908" lon="-2.75127">
        <ele>47.7</ele>
        <time>2015-12-06T15:50:51.000Z</time>
      </trkpt>
      <trkpt lat="47.69072" lon="-2.75124">
        <ele>47.2</ele>
        <time>2015-12-06T15:50:52.000Z</time>
      </trkpt>
      <trkpt lat="47.69065" lon="-2.7512">
        <ele>46.9</ele>
        <time>2015-12-06T15:50:53.000Z</time>
      </trkpt>
      <trkpt lat="47.69058" lon="-2.75114">
        <ele>46.6</ele>
        <time>2015-12-06T15:50:54.000Z</time>
      </trkpt>
      <trkpt lat="47.69051" lon="-2.75108">
        <ele>46.3</ele>
        <time>2015-12-06T15:50:55.000Z</time>
      </trkpt>
      <trkpt lat="47.69045" lon="-2.75102">
        <ele>46.1</ele>
        <time>2015-12-06T15:50:56.000Z</time>
      </trkpt>
      <trkpt lat="47.69039" lon="-2.75097">
        <ele>45.8</ele>
        <time>2015-12-06T15:50:57.000Z</time>
      </trkpt>
      <trkpt lat="47.69033" lon="-2.75095">
        <ele>45.3</ele>
        <time>2015-12-06T15:50:58.000Z</time>
      </trkpt>
      <trkpt lat="47.69026" lon="-2.75094">
        <ele>44.8</ele>
        <time>2015-12-06T15:50:59.000Z</time>
      </trkpt>
      <trkpt lat="47.69019" lon="-2.75094">
        <ele>44.1</ele>
        <time>2015-12-06T15:51:00.000Z</time>
      </trkpt>
      <trkpt lat="47.69011" lon="-2.75093">
        <ele>43.5</ele>
        <time>2015-12-06T15:51:01.000Z</time>
      </trkpt>
      <trkpt lat="47.69003" lon="-2.75092">
        <ele>42.8</ele>
        <time>2015-12-06T15:51:02.000Z</time>
      </trkpt>
      <trkpt lat="47.68995" lon="-2.7509">
        <ele>42.2</ele>
        <time>2015-12-06T15:51:03.000Z</time>
      </trkpt>
      <trkpt lat="47.68987" lon="-2.75087">
        <ele>41.5</ele>
        <time>2015-12-06T15:51:04.000Z</time>
      </trkpt>
      <trkpt lat="47.6898" lon="-2.75084">
        <ele>40.9</ele>
        <time>2015-12-06T15:51:05.000Z</time>
      </trkpt>
      <trkpt lat="47.68973" lon="-2.75079">
        <ele>40.4</ele>
        <time>2015-12-06T15:51:06.000Z</time>
      </trkpt>
      <trkpt lat="47.68967" lon="-2.75074">
        <ele>39.8</ele>
        <time>2015-12-06T15:51:07.000Z</time>
      </trkpt>
      <trkpt lat="47.68961" lon="-2.75068">
        <ele>39.2</ele>
        <time>2015-12-06T15:51:08.000Z</time>
      </trkpt>
      <trkpt lat="47.68954" lon="-2.75061">
        <ele>38.8</ele>
        <time>2015-12-06T15:51:09.000Z</time>
      </trkpt>
      <trkpt lat="47.68948" lon="-2.75054">
        <ele>38.6</ele>
        <time>2015-12-06T15:51:10.000Z</time>
      </trkpt>
      <trkpt lat="47.68942" lon="-2.75047">
        <ele>38.3</ele>
        <time>2015-12-06T15:51:11.000Z</time>
      </trkpt>
      <trkpt lat="47.68936" lon="-2.7504">
        <ele>38</ele>
        <time>2015-12-06T15:51:12.000Z</time>
      </trkpt>
      <trkpt lat="47.68931" lon="-2.75032">
        <ele>38.2</ele>
        <time>2015-12-06T15:51:13.000Z</time>
      </trkpt>
      <trkpt lat="47.68926" lon="-2.75024">
        <ele>38.3</ele>
        <time>2015-12-06T15:51:14.000Z</time>
      </trkpt>
      <trkpt lat="47.68921" lon="-2.75016">
        <ele>38.4</ele>
        <time>2015-12-06T15:51:15.000Z</time>
      </trkpt>
      <trkpt lat="47.68916" lon="-2.75007">
        <ele>38.4</ele>
        <time>2015-12-06T15:51:16.000Z</time>
      </trkpt>
      <trkpt lat="47.68911" lon="-2.74999">
        <ele>38.4</ele>
        <time>2015-12-06T15:51:17.000Z</time>
      </trkpt>
      <trkpt lat="47.68907" lon="-2.74991">
        <ele>38.3</ele>
        <time>2015-12-06T15:51:18.000Z</time>
      </trkpt>
      <trkpt lat="47.68903" lon="-2.74982">
        <ele>38.2</ele>
        <time>2015-12-06T15:51:19.000Z</time>
      </trkpt>
      <trkpt lat="47.68899" lon="-2.74974">
        <ele>38.1</ele>
        <time>2015-12-06T15:51:20.000Z</time>
      </trkpt>
      <trkpt lat="47.68894" lon="-2.74965">
        <ele>37.9</ele>
        <time>2015-12-06T15:51:21.000Z</time>
      </trkpt>
      <trkpt lat="47.6889" lon="-2.74957">
        <ele>37.7</ele>
        <time>2015-12-06T15:51:22.000Z</time>
      </trkpt>
      <trkpt lat="47.68887" lon="-2.74948">
        <ele>37.7</ele>
        <time>2015-12-06T15:51:23.000Z</time>
      </trkpt>
      <trkpt lat="47.68883" lon="-2.74939">
        <ele>37.6</ele>
        <time>2015-12-06T15:51:24.000Z</time>
      </trkpt>
      <trkpt lat="47.6888" lon="-2.74929">
        <ele>37.6</ele>
        <time>2015-12-06T15:51:25.000Z</time>
      </trkpt>
      <trkpt lat="47.68876" lon="-2.7492">
        <ele>37.5</ele>
        <time>2015-12-06T15:51:26.000Z</time>
      </trkpt>
      <trkpt lat="47.68872" lon="-2.7491">
        <ele>37.5</ele>
        <time>2015-12-06T15:51:27.000Z</time>
      </trkpt>
      <trkpt lat="47.68867" lon="-2.74901">
        <ele>37.5</ele>
        <time>2015-12-06T15:51:28.000Z</time>
      </trkpt>
      <trkpt lat="47.68863" lon="-2.74891">
        <ele>37.5</ele>
        <time>2015-12-06T15:51:29.000Z</time>
      </trkpt>
      <trkpt lat="47.68859" lon="-2.74882">
        <ele>37.4</ele>
        <time>2015-12-06T15:51:30.000Z</time>
      </trkpt>
      <trkpt lat="47.68855" lon="-2.74873">
        <ele>37.4</ele>
        <time>2015-12-06T15:51:31.000Z</time>
      </trkpt>
      <trkpt lat="47.6885" lon="-2.74864">
        <ele>37.3</ele>
        <time>2015-12-06T15:51:32.000Z</time>
      </trkpt>
      <trkpt lat="47.68846" lon="-2.74856">
        <ele>37.2</ele>
        <time>2015-12-06T15:51:33.000Z</time>
      </trkpt>
      <trkpt lat="47.68841" lon="-2.74849">
        <ele>37</ele>
        <time>2015-12-06T15:51:34.000Z</time>
      </trkpt>
      <trkpt lat="47.68837" lon="-2.74842">
        <ele>36.8</ele>
        <time>2015-12-06T15:51:35.000Z</time>
      </trkpt>
      <trkpt lat="47.68833" lon="-2.74834">
        <ele>36.7</ele>
        <time>2015-12-06T15:51:36.000Z</time>
      </trkpt>
      <trkpt lat="47.68829" lon="-2.74827">
        <ele>36.6</ele>
        <time>2015-12-06T15:51:37.000Z</time>
      </trkpt>
      <trkpt lat="47.68826" lon="-2.74818">
        <ele>36.5</ele>
        <time>2015-12-06T15:51:38.000Z</time>
      </trkpt>
      <trkpt lat="47.68823" lon="-2.74811">
        <ele>36.4</ele>
        <time>2015-12-06T15:51:39.000Z</time>
      </trkpt>
      <trkpt lat="47.6882" lon="-2.74803">
        <ele>36.4</ele>
        <time>2015-12-06T15:51:40.000Z</time>
      </trkpt>
      <trkpt lat="47.68817" lon="-2.74796">
        <ele>36.3</ele>
        <time>2015-12-06T15:51:41.000Z</time>
      </trkpt>
      <trkpt lat="47.68815" lon="-2.74788">
        <ele>36.3</ele>
        <time>2015-12-06T15:51:42.000Z</time>
      </trkpt>
      <trkpt lat="47.68813" lon="-2.74781">
        <ele>36.4</ele>
        <time>2015-12-06T15:51:43.000Z</time>
      </trkpt>
      <trkpt lat="47.68812" lon="-2.74773">
        <ele>36.6</ele>
        <time>2015-12-06T15:51:44.000Z</time>
      </trkpt>
      <trkpt lat="47.68811" lon="-2.74765">
        <ele>36.8</ele>
        <time>2015-12-06T15:51:45.000Z</time>
      </trkpt>
      <trkpt lat="47.68812" lon="-2.74758">
        <ele>37.1</ele>
        <time>2015-12-06T15:51:46.000Z</time>
      </trkpt>
      <trkpt lat="47.68812" lon="-2.74751">
        <ele>37.4</ele>
        <time>2015-12-06T15:51:47.000Z</time>
      </trkpt>
      <trkpt lat="47.68812" lon="-2.74744">
        <ele>37.6</ele>
        <time>2015-12-06T15:51:48.000Z</time>
      </trkpt>
      <trkpt lat="47.68812" lon="-2.74737">
        <ele>37.9</ele>
        <time>2015-12-06T15:51:49.000Z</time>
      </trkpt>
      <trkpt lat="47.68812" lon="-2.74731">
        <ele>38.1</ele>
        <time>2015-12-06T15:51:50.000Z</time>
      </trkpt>
      <trkpt lat="47.68812" lon="-2.74724">
        <ele>38.4</ele>
        <time>2015-12-06T15:51:51.000Z</time>
      </trkpt>
      <trkpt lat="47.68812" lon="-2.74718">
        <ele>38.6</ele>
        <time>2015-12-06T15:51:52.000Z</time>
      </trkpt>
      <trkpt lat="47.68813" lon="-2.74711">
        <ele>38.9</ele>
        <time>2015-12-06T15:51:53.000Z</time>
      </trkpt>
      <trkpt lat="47.68813" lon="-2.74706">
        <ele>39.1</ele>
        <time>2015-12-06T15:51:54.000Z</time>
      </trkpt>
      <trkpt lat="47.68813" lon="-2.747">
        <ele>39.3</ele>
        <time>2015-12-06T15:51:55.000Z</time>
      </trkpt>
      <trkpt lat="47.68813" lon="-2.74695">
        <ele>39.3</ele>
        <time>2015-12-06T15:51:56.000Z</time>
      </trkpt>
      <trkpt lat="47.68812" lon="-2.7469">
        <ele>39.4</ele>
        <time>2015-12-06T15:51:57.000Z</time>
      </trkpt>
      <trkpt lat="47.68811" lon="-2.74684">
        <ele>39.5</ele>
        <time>2015-12-06T15:51:58.000Z</time>
      </trkpt>
      <trkpt lat="47.68811" lon="-2.74678">
        <ele>39.6</ele>
        <time>2015-12-06T15:51:59.000Z</time>
      </trkpt>
      <trkpt lat="47.68811" lon="-2.74672">
        <ele>39.7</ele>
        <time>2015-12-06T15:52:00.000Z</time>
      </trkpt>
      <trkpt lat="47.6881" lon="-2.74665">
        <ele>39.8</ele>
        <time>2015-12-06T15:52:01.000Z</time>
      </trkpt>
      <trkpt lat="47.6881" lon="-2.74658">
        <ele>40</ele>
        <time>2015-12-06T15:52:02.000Z</time>
      </trkpt>
      <trkpt lat="47.6881" lon="-2.74651">
        <ele>40.1</ele>
        <time>2015-12-06T15:52:03.000Z</time>
      </trkpt>
      <trkpt lat="47.68809" lon="-2.74644">
        <ele>40.2</ele>
        <time>2015-12-06T15:52:04.000Z</time>
      </trkpt>
      <trkpt lat="47.68809" lon="-2.74636">
        <ele>40.4</ele>
        <time>2015-12-06T15:52:05.000Z</time>
      </trkpt>
      <trkpt lat="47.68809" lon="-2.74628">
        <ele>40.6</ele>
        <time>2015-12-06T15:52:06.000Z</time>
      </trkpt>
      <trkpt lat="47.68809" lon="-2.7462">
        <ele>40.7</ele>
        <time>2015-12-06T15:52:07.000Z</time>
      </trkpt>
      <trkpt lat="47.68809" lon="-2.74613">
        <ele>40.8</ele>
        <time>2015-12-06T15:52:08.000Z</time>
      </trkpt>
      <trkpt lat="47.68808" lon="-2.74606">
        <ele>40.9</ele>
        <time>2015-12-06T15:52:09.000Z</time>
      </trkpt>
      <trkpt lat="47.68808" lon="-2.746">
        <ele>41</ele>
        <time>2015-12-06T15:52:10.000Z</time>
      </trkpt>
      <trkpt lat="47.68808" lon="-2.74594">
        <ele>41.1</ele>
        <time>2015-12-06T15:52:11.000Z</time>
      </trkpt>
      <trkpt lat="47.68808" lon="-2.74588">
        <ele>41.1</ele>
        <time>2015-12-06T15:52:12.000Z</time>
      </trkpt>
      <trkpt lat="47.68808" lon="-2.74582">
        <ele>41.2</ele>
        <time>2015-12-06T15:52:13.000Z</time>
      </trkpt>
      <trkpt lat="47.68808" lon="-2.74576">
        <ele>41.3</ele>
        <time>2015-12-06T15:52:14.000Z</time>
      </trkpt>
      <trkpt lat="47.68808" lon="-2.7457">
        <ele>41.4</ele>
        <time>2015-12-06T15:52:15.000Z</time>
      </trkpt>
      <trkpt lat="47.68809" lon="-2.74564">
        <ele>41.5</ele>
        <time>2015-12-06T15:52:16.000Z</time>
      </trkpt>
      <trkpt lat="47.68809" lon="-2.74559">
        <ele>41.6</ele>
        <time>2015-12-06T15:52:17.000Z</time>
      </trkpt>
      <trkpt lat="47.68809" lon="-2.74554">
        <ele>41.7</ele>
        <time>2015-12-06T15:52:18.000Z</time>
      </trkpt>
      <trkpt lat="47.68809" lon="-2.74549">
        <ele>41.8</ele>
        <time>2015-12-06T15:52:19.000Z</time>
      </trkpt>
      <trkpt lat="47.68809" lon="-2.74544">
        <ele>41.9</ele>
        <time>2015-12-06T15:52:20.000Z</time>
      </trkpt>
      <trkpt lat="47.68809" lon="-2.74539">
        <ele>42</ele>
        <time>2015-12-06T15:52:21.000Z</time>
      </trkpt>
      <trkpt lat="47.68809" lon="-2.74533">
        <ele>42.1</ele>
        <time>2015-12-06T15:52:22.000Z</time>
      </trkpt>
      <trkpt lat="47.6881" lon="-2.74528">
        <ele>42.3</ele>
        <time>2015-12-06T15:52:23.000Z</time>
      </trkpt>
      <trkpt lat="47.6881" lon="-2.74523">
        <ele>42.5</ele>
        <time>2015-12-06T15:52:24.000Z</time>
      </trkpt>
      <trkpt lat="47.68811" lon="-2.74519">
        <ele>42.7</ele>
        <time>2015-12-06T15:52:25.000Z</time>
      </trkpt>
      <trkpt lat="47.68811" lon="-2.74514">
        <ele>42.9</ele>
        <time>2015-12-06T15:52:26.000Z</time>
      </trkpt>
      <trkpt lat="47.68812" lon="-2.74509">
        <ele>43.1</ele>
        <time>2015-12-06T15:52:27.000Z</time>
      </trkpt>
      <trkpt lat="47.68812" lon="-2.74504">
        <ele>43.4</ele>
        <time>2015-12-06T15:52:28.000Z</time>
      </trkpt>
      <trkpt lat="47.68813" lon="-2.745">
        <ele>43.6</ele>
        <time>2015-12-06T15:52:29.000Z</time>
      </trkpt>
      <trkpt lat="47.68813" lon="-2.74495">
        <ele>43.7</ele>
        <time>2015-12-06T15:52:30.000Z</time>
      </trkpt>
      <trkpt lat="47.68814" lon="-2.7449">
        <ele>43.9</ele>
        <time>2015-12-06T15:52:31.000Z</time>
      </trkpt>
      <trkpt lat="47.68814" lon="-2.74486">
        <ele>44.1</ele>
        <time>2015-12-06T15:52:32.000Z</time>
      </trkpt>
      <trkpt lat="47.68814" lon="-2.74481">
        <ele>44.2</ele>
        <time>2015-12-06T15:52:33.000Z</time>
      </trkpt>
      <trkpt lat="47.68814" lon="-2.74477">
        <ele>44.3</ele>
        <time>2015-12-06T15:52:34.000Z</time>
      </trkpt>
      <trkpt lat="47.68813" lon="-2.74472">
        <ele>44.4</ele>
        <time>2015-12-06T15:52:35.000Z</time>
      </trkpt>
      <trkpt lat="47.68813" lon="-2.74468">
        <ele>44.5</ele>
        <time>2015-12-06T15:52:36.000Z</time>
      </trkpt>
      <trkpt lat="47.68812" lon="-2.74464">
        <ele>44.5</ele>
        <time>2015-12-06T15:52:37.000Z</time>
      </trkpt>
      <trkpt lat="47.68811" lon="-2.7446">
        <ele>44.5</ele>
        <time>2015-12-06T15:52:38.000Z</time>
      </trkpt>
      <trkpt lat="47.68811" lon="-2.74456">
        <ele>44.6</ele>
        <time>2015-12-06T15:52:39.000Z</time>
      </trkpt>
      <trkpt lat="47.6881" lon="-2.74452">
        <ele>44.6</ele>
        <time>2015-12-06T15:52:40.000Z</time>
      </trkpt>
      <trkpt lat="47.68809" lon="-2.74448">
        <ele>44.6</ele>
        <time>2015-12-06T15:52:41.000Z</time>
      </trkpt>
      <trkpt lat="47.68808" lon="-2.74444">
        <ele>44.6</ele>
        <time>2015-12-06T15:52:42.000Z</time>
      </trkpt>
      <trkpt lat="47.68807" lon="-2.7444">
        <ele>44.7</ele>
        <time>2015-12-06T15:52:43.000Z</time>
      </trkpt>
      <trkpt lat="47.68807" lon="-2.74436">
        <ele>44.7</ele>
        <time>2015-12-06T15:52:44.000Z</time>
      </trkpt>
      <trkpt lat="47.68806" lon="-2.74433">
        <ele>44.7</ele>
        <time>2015-12-06T15:52:45.000Z</time>
      </trkpt>
      <trkpt lat="47.68805" lon="-2.74429">
        <ele>44.7</ele>
        <time>2015-12-06T15:52:46.000Z</time>
      </trkpt>
      <trkpt lat="47.68804" lon="-2.74425">
        <ele>44.8</ele>
        <time>2015-12-06T15:52:47.000Z</time>
      </trkpt>
      <trkpt lat="47.68803" lon="-2.74421">
        <ele>44.8</ele>
        <time>2015-12-06T15:52:48.000Z</time>
      </trkpt>
      <trkpt lat="47.68802" lon="-2.74416">
        <ele>44.8</ele>
        <time>2015-12-06T15:52:49.000Z</time>
      </trkpt>
      <trkpt lat="47.68801" lon="-2.74411">
        <ele>44.9</ele>
        <time>2015-12-06T15:52:50.000Z</time>
      </trkpt>
      <trkpt lat="47.688" lon="-2.74406">
        <ele>44.9</ele>
        <time>2015-12-06T15:52:51.000Z</time>
      </trkpt>
      <trkpt lat="47.688" lon="-2.74402">
        <ele>45</ele>
        <time>2015-12-06T15:52:52.000Z</time>
      </trkpt>
      <trkpt lat="47.68799" lon="-2.74397">
        <ele>45.1</ele>
        <time>2015-12-06T15:52:53.000Z</time>
      </trkpt>
      <trkpt lat="47.68799" lon="-2.74393">
        <ele>45.3</ele>
        <time>2015-12-06T15:52:54.000Z</time>
      </trkpt>
      <trkpt lat="47.68799" lon="-2.74388">
        <ele>45.4</ele>
        <time>2015-12-06T15:52:55.000Z</time>
      </trkpt>
      <trkpt lat="47.68799" lon="-2.74384">
        <ele>45.5</ele>
        <time>2015-12-06T15:52:56.000Z</time>
      </trkpt>
      <trkpt lat="47.68799" lon="-2.74379">
        <ele>45.7</ele>
        <time>2015-12-06T15:52:57.000Z</time>
      </trkpt>
      <trkpt lat="47.68799" lon="-2.74375">
        <ele>45.8</ele>
        <time>2015-12-06T15:52:58.000Z</time>
      </trkpt>
      <trkpt lat="47.68799" lon="-2.74371">
        <ele>45.9</ele>
        <time>2015-12-06T15:52:59.000Z</time>
      </trkpt>
      <trkpt lat="47.68799" lon="-2.74366">
        <ele>46.1</ele>
        <time>2015-12-06T15:53:00.000Z</time>
      </trkpt>
      <trkpt lat="47.68799" lon="-2.74361">
        <ele>46.2</ele>
        <time>2015-12-06T15:53:01.000Z</time>
      </trkpt>
      <trkpt lat="47.688" lon="-2.74357">
        <ele>46.4</ele>
        <time>2015-12-06T15:53:02.000Z</time>
      </trkpt>
      <trkpt lat="47.68801" lon="-2.74352">
        <ele>46.6</ele>
        <time>2015-12-06T15:53:03.000Z</time>
      </trkpt>
      <trkpt lat="47.68802" lon="-2.74347">
        <ele>46.9</ele>
        <time>2015-12-06T15:53:04.000Z</time>
      </trkpt>
      <trkpt lat="47.68803" lon="-2.74342">
        <ele>47.1</ele>
        <time>2015-12-06T15:53:05.000Z</time>
      </trkpt>
      <trkpt lat="47.68805" lon="-2.74338">
        <ele>47.3</ele>
        <time>2015-12-06T15:53:06.000Z</time>
      </trkpt>
      <trkpt lat="47.68806" lon="-2.74333">
        <ele>47.6</ele>
        <time>2015-12-06T15:53:07.000Z</time>
      </trkpt>
      <trkpt lat="47.68807" lon="-2.74329">
        <ele>47.8</ele>
        <time>2015-12-06T15:53:08.000Z</time>
      </trkpt>
      <trkpt lat="47.68809" lon="-2.74324">
        <ele>48</ele>
        <time>2015-12-06T15:53:09.000Z</time>
      </trkpt>
      <trkpt lat="47.68811" lon="-2.7432">
        <ele>48.3</ele>
        <time>2015-12-06T15:53:10.000Z</time>
      </trkpt>
      <trkpt lat="47.68813" lon="-2.74315">
        <ele>48.6</ele>
        <time>2015-12-06T15:53:11.000Z</time>
      </trkpt>
      <trkpt lat="47.68815" lon="-2.74311">
        <ele>48.9</ele>
        <time>2015-12-06T15:53:12.000Z</time>
      </trkpt>
      <trkpt lat="47.68817" lon="-2.74307">
        <ele>49.2</ele>
        <time>2015-12-06T15:53:13.000Z</time>
      </trkpt>
      <trkpt lat="47.68819" lon="-2.74303">
        <ele>49.4</ele>
        <time>2015-12-06T15:53:14.000Z</time>
      </trkpt>
      <trkpt lat="47.68821" lon="-2.74299">
        <ele>49.7</ele>
        <time>2015-12-06T15:53:15.000Z</time>
      </trkpt>
      <trkpt lat="47.68822" lon="-2.74295">
        <ele>49.9</ele>
        <time>2015-12-06T15:53:16.000Z</time>
      </trkpt>
      <trkpt lat="47.68823" lon="-2.7429">
        <ele>50.1</ele>
        <time>2015-12-06T15:53:17.000Z</time>
      </trkpt>
      <trkpt lat="47.68823" lon="-2.74285">
        <ele>50.2</ele>
        <time>2015-12-06T15:53:18.000Z</time>
      </trkpt>
      <trkpt lat="47.68824" lon="-2.7428">
        <ele>50.4</ele>
        <time>2015-12-06T15:53:19.000Z</time>
      </trkpt>
      <trkpt lat="47.68824" lon="-2.74275">
        <ele>50.5</ele>
        <time>2015-12-06T15:53:20.000Z</time>
      </trkpt>
      <trkpt lat="47.68825" lon="-2.7427">
        <ele>50.7</ele>
        <time>2015-12-06T15:53:21.000Z</time>
      </trkpt>
      <trkpt lat="47.68826" lon="-2.74265">
        <ele>50.9</ele>
        <time>2015-12-06T15:53:22.000Z</time>
      </trkpt>
      <trkpt lat="47.68827" lon="-2.7426">
        <ele>51.2</ele>
        <time>2015-12-06T15:53:23.000Z</time>
      </trkpt>
      <trkpt lat="47.68828" lon="-2.74256">
        <ele>51.4</ele>
        <time>2015-12-06T15:53:24.000Z</time>
      </trkpt>
      <trkpt lat="47.68829" lon="-2.74251">
        <ele>51.6</ele>
        <time>2015-12-06T15:53:25.000Z</time>
      </trkpt>
      <trkpt lat="47.6883" lon="-2.74246">
        <ele>51.8</ele>
        <time>2015-12-06T15:53:26.000Z</time>
      </trkpt>
      <trkpt lat="47.6883" lon="-2.74242">
        <ele>51.9</ele>
        <time>2015-12-06T15:53:27.000Z</time>
      </trkpt>
      <trkpt lat="47.68829" lon="-2.74238">
        <ele>52</ele>
        <time>2015-12-06T15:53:28.000Z</time>
      </trkpt>
      <trkpt lat="47.68829" lon="-2.74235">
        <ele>52</ele>
        <time>2015-12-06T15:53:29.000Z</time>
      </trkpt>
      <trkpt lat="47.68827" lon="-2.74231">
        <ele>52</ele>
        <time>2015-12-06T15:53:30.000Z</time>
      </trkpt>
      <trkpt lat="47.68825" lon="-2.74229">
        <ele>51.9</ele>
        <time>2015-12-06T15:53:31.000Z</time>
      </trkpt>
      <trkpt lat="47.68822" lon="-2.74227">
        <ele>51.7</ele>
        <time>2015-12-06T15:53:32.000Z</time>
      </trkpt>
      <trkpt lat="47.68819" lon="-2.74225">
        <ele>51.5</ele>
        <time>2015-12-06T15:53:33.000Z</time>
      </trkpt>
      <trkpt lat="47.68815" lon="-2.74224">
        <ele>51.2</ele>
        <time>2015-12-06T15:53:34.000Z</time>
      </trkpt>
      <trkpt lat="47.68812" lon="-2.74224">
        <ele>51</ele>
        <time>2015-12-06T15:53:35.000Z</time>
      </trkpt>
      <trkpt lat="47.68809" lon="-2.74223">
        <ele>50.8</ele>
        <time>2015-12-06T15:53:36.000Z</time>
      </trkpt>
      <trkpt lat="47.68807" lon="-2.74224">
        <ele>50.6</ele>
        <time>2015-12-06T15:53:37.000Z</time>
      </trkpt>
      <trkpt lat="47.68805" lon="-2.74227">
        <ele>50.3</ele>
        <time>2015-12-06T15:53:38.000Z</time>
      </trkpt>
      <trkpt lat="47.68803" lon="-2.7423">
        <ele>50.1</ele>
        <time>2015-12-06T15:53:39.000Z</time>
      </trkpt>
      <trkpt lat="47.68801" lon="-2.74235">
        <ele>49.8</ele>
        <time>2015-12-06T15:53:40.000Z</time>
      </trkpt>
      <trkpt lat="47.688" lon="-2.74241">
        <ele>49.5</ele>
        <time>2015-12-06T15:53:41.000Z</time>
      </trkpt>
      <trkpt lat="47.68799" lon="-2.74248">
        <ele>49.2</ele>
        <time>2015-12-06T15:53:42.000Z</time>
      </trkpt>
      <trkpt lat="47.68798" lon="-2.74254">
        <ele>48.9</ele>
        <time>2015-12-06T15:53:43.000Z</time>
      </trkpt>
      <trkpt lat="47.68798" lon="-2.74259">
        <ele>48.7</ele>
        <time>2015-12-06T15:53:44.000Z</time>
      </trkpt>
      <trkpt lat="47.68797" lon="-2.74263">
        <ele>48.5</ele>
        <time>2015-12-06T15:53:45.000Z</time>
      </trkpt>
      <trkpt lat="47.68796" lon="-2.74266">
        <ele>48.3</ele>
        <time>2015-12-06T15:53:46.000Z</time>
      </trkpt>
      <trkpt lat="47.68795" lon="-2.74269">
        <ele>48.1</ele>
        <time>2015-12-06T15:53:47.000Z</time>
      </trkpt>
      <trkpt lat="47.68794" lon="-2.7427">
        <ele>48</ele>
        <time>2015-12-06T15:53:48.000Z</time>
      </trkpt>
      <trkpt lat="47.68794" lon="-2.74271">
        <ele>47.9</ele>
        <time>2015-12-06T15:53:49.000Z</time>
      </trkpt>
      <trkpt lat="47.68792" lon="-2.74272">
        <ele>47.7</ele>
        <time>2015-12-06T15:53:50.000Z</time>
      </trkpt>
      <trkpt lat="47.68789" lon="-2.74273">
        <ele>47.4</ele>
        <time>2015-12-06T15:53:51.000Z</time>
      </trkpt>
      <trkpt lat="47.68785" lon="-2.74273">
        <ele>46.9</ele>
        <time>2015-12-06T15:53:52.000Z</time>
      </trkpt>
      <trkpt lat="47.6878" lon="-2.74274">
        <ele>46.3</ele>
        <time>2015-12-06T15:53:53.000Z</time>
      </trkpt>
      <trkpt lat="47.68775" lon="-2.74275">
        <ele>45.6</ele>
        <time>2015-12-06T15:53:54.000Z</time>
      </trkpt>
      <trkpt lat="47.68769" lon="-2.74277">
        <ele>44.8</ele>
        <time>2015-12-06T15:53:55.000Z</time>
      </trkpt>
      <trkpt lat="47.68763" lon="-2.7428">
        <ele>44</ele>
        <time>2015-12-06T15:53:56.000Z</time>
      </trkpt>
      <trkpt lat="47.68757" lon="-2.74285">
        <ele>43</ele>
        <time>2015-12-06T15:53:57.000Z</time>
      </trkpt>
      <trkpt lat="47.6875" lon="-2.74291">
        <ele>42</ele>
        <time>2015-12-06T15:53:58.000Z</time>
      </trkpt>
      <trkpt lat="47.68743" lon="-2.74298">
        <ele>41</ele>
        <time>2015-12-06T15:53:59.000Z</time>
      </trkpt>
      <trkpt lat="47.68736" lon="-2.74304">
        <ele>40</ele>
        <time>2015-12-06T15:54:00.000Z</time>
      </trkpt>
      <trkpt lat="47.68729" lon="-2.74311">
        <ele>39</ele>
        <time>2015-12-06T15:54:01.000Z</time>
      </trkpt>
      <trkpt lat="47.68723" lon="-2.74318">
        <ele>38.1</ele>
        <time>2015-12-06T15:54:02.000Z</time>
      </trkpt>
      <trkpt lat="47.68718" lon="-2.74324">
        <ele>37.4</ele>
        <time>2015-12-06T15:54:03.000Z</time>
      </trkpt>
      <trkpt lat="47.68714" lon="-2.74331">
        <ele>36.7</ele>
        <time>2015-12-06T15:54:04.000Z</time>
      </trkpt>
      <trkpt lat="47.68709" lon="-2.74336">
        <ele>36.1</ele>
        <time>2015-12-06T15:54:05.000Z</time>
      </trkpt>
      <trkpt lat="47.68705" lon="-2.74341">
        <ele>35.5</ele>
        <time>2015-12-06T15:54:06.000Z</time>
      </trkpt>
      <trkpt lat="47.687" lon="-2.74344">
        <ele>35.1</ele>
        <time>2015-12-06T15:54:07.000Z</time>
      </trkpt>
      <trkpt lat="47.68694" lon="-2.74347">
        <ele>34.6</ele>
        <time>2015-12-06T15:54:08.000Z</time>
      </trkpt>
      <trkpt lat="47.68688" lon="-2.74349">
        <ele>34.1</ele>
        <time>2015-12-06T15:54:09.000Z</time>
      </trkpt>
      <trkpt lat="47.68682" lon="-2.74352">
        <ele>33.5</ele>
        <time>2015-12-06T15:54:10.000Z</time>
      </trkpt>
      <trkpt lat="47.68675" lon="-2.74357">
        <ele>32.9</ele>
        <time>2015-12-06T15:54:11.000Z</time>
      </trkpt>
      <trkpt lat="47.68669" lon="-2.74362">
        <ele>32.4</ele>
        <time>2015-12-06T15:54:12.000Z</time>
      </trkpt>
      <trkpt lat="47.68662" lon="-2.74367">
        <ele>31.8</ele>
        <time>2015-12-06T15:54:13.000Z</time>
      </trkpt>
      <trkpt lat="47.68657" lon="-2.74372">
        <ele>31.3</ele>
        <time>2015-12-06T15:54:14.000Z</time>
      </trkpt>
      <trkpt lat="47.68652" lon="-2.74376">
        <ele>30.9</ele>
        <time>2015-12-06T15:54:15.000Z</time>
      </trkpt>
      <trkpt lat="47.68647" lon="-2.7438">
        <ele>30.6</ele>
        <time>2015-12-06T15:54:16.000Z</time>
      </trkpt>
      <trkpt lat="47.68644" lon="-2.74383">
        <ele>30.3</ele>
        <time>2015-12-06T15:54:17.000Z</time>
      </trkpt>
      <trkpt lat="47.68641" lon="-2.74386">
        <ele>30.1</ele>
        <time>2015-12-06T15:54:18.000Z</time>
      </trkpt>
      <trkpt lat="47.68638" lon="-2.74386">
        <ele>29.9</ele>
        <time>2015-12-06T15:54:19.000Z</time>
      </trkpt>
      <trkpt lat="47.68636" lon="-2.74384">
        <ele>29.7</ele>
        <time>2015-12-06T15:54:20.000Z</time>
      </trkpt>
      <trkpt lat="47.68633" lon="-2.74381">
        <ele>29.5</ele>
        <time>2015-12-06T15:54:21.000Z</time>
      </trkpt>
      <trkpt lat="47.6863" lon="-2.74377">
        <ele>29.4</ele>
        <time>2015-12-06T15:54:22.000Z</time>
      </trkpt>
      <trkpt lat="47.68628" lon="-2.74373">
        <ele>29.2</ele>
        <time>2015-12-06T15:54:23.000Z</time>
      </trkpt>
      <trkpt lat="47.68625" lon="-2.74369">
        <ele>29.1</ele>
        <time>2015-12-06T15:54:24.000Z</time>
      </trkpt>
      <trkpt lat="47.68622" lon="-2.74365">
        <ele>29</ele>
        <time>2015-12-06T15:54:25.000Z</time>
      </trkpt>
      <trkpt lat="47.68619" lon="-2.74361">
        <ele>29</ele>
        <time>2015-12-06T15:54:26.000Z</time>
      </trkpt>
      <trkpt lat="47.68617" lon="-2.74357">
        <ele>28.9</ele>
        <time>2015-12-06T15:54:27.000Z</time>
      </trkpt>
      <trkpt lat="47.68614" lon="-2.74352">
        <ele>28.8</ele>
        <time>2015-12-06T15:54:28.000Z</time>
      </trkpt>
      <trkpt lat="47.68611" lon="-2.74348">
        <ele>28.8</ele>
        <time>2015-12-06T15:54:29.000Z</time>
      </trkpt>
      <trkpt lat="47.68608" lon="-2.74343">
        <ele>28.7</ele>
        <time>2015-12-06T15:54:30.000Z</time>
      </trkpt>
      <trkpt lat="47.68606" lon="-2.74339">
        <ele>28.6</ele>
        <time>2015-12-06T15:54:31.000Z</time>
      </trkpt>
      <trkpt lat="47.68603" lon="-2.74335">
        <ele>28.6</ele>
        <time>2015-12-06T15:54:32.000Z</time>
      </trkpt>
      <trkpt lat="47.686" lon="-2.74331">
        <ele>28.5</ele>
        <time>2015-12-06T15:54:33.000Z</time>
      </trkpt>
      <trkpt lat="47.68598" lon="-2.74327">
        <ele>28.4</ele>
        <time>2015-12-06T15:54:34.000Z</time>
      </trkpt>
      <trkpt lat="47.68596" lon="-2.74323">
        <ele>28.3</ele>
        <time>2015-12-06T15:54:35.000Z</time>
      </trkpt>
      <trkpt lat="47.68594" lon="-2.74319">
        <ele>28.3</ele>
        <time>2015-12-06T15:54:36.000Z</time>
      </trkpt>
      <trkpt lat="47.68592" lon="-2.74315">
        <ele>28.2</ele>
        <time>2015-12-06T15:54:37.000Z</time>
      </trkpt>
      <trkpt lat="47.6859" lon="-2.7431">
        <ele>28.2</ele>
        <time>2015-12-06T15:54:38.000Z</time>
      </trkpt>
      <trkpt lat="47.68588" lon="-2.74304">
        <ele>28.1</ele>
        <time>2015-12-06T15:54:39.000Z</time>
      </trkpt>
      <trkpt lat="47.68586" lon="-2.74299">
        <ele>28.1</ele>
        <time>2015-12-06T15:54:40.000Z</time>
      </trkpt>
      <trkpt lat="47.68583" lon="-2.74295">
        <ele>28</ele>
        <time>2015-12-06T15:54:41.000Z</time>
      </trkpt>
      <trkpt lat="47.6858" lon="-2.74291">
        <ele>27.9</ele>
        <time>2015-12-06T15:54:42.000Z</time>
      </trkpt>
      <trkpt lat="47.68577" lon="-2.74288">
        <ele>27.9</ele>
        <time>2015-12-06T15:54:43.000Z</time>
      </trkpt>
      <trkpt lat="47.68573" lon="-2.74286">
        <ele>27.8</ele>
        <time>2015-12-06T15:54:44.000Z</time>
      </trkpt>
      <trkpt lat="47.68569" lon="-2.74284">
        <ele>27.7</ele>
        <time>2015-12-06T15:54:45.000Z</time>
      </trkpt>
      <trkpt lat="47.68565" lon="-2.74282">
        <ele>27.6</ele>
        <time>2015-12-06T15:54:46.000Z</time>
      </trkpt>
      <trkpt lat="47.6856" lon="-2.74281">
        <ele>27.5</ele>
        <time>2015-12-06T15:54:47.000Z</time>
      </trkpt>
      <trkpt lat="47.68556" lon="-2.74279">
        <ele>27.3</ele>
        <time>2015-12-06T15:54:48.000Z</time>
      </trkpt>
      <trkpt lat="47.68551" lon="-2.74278">
        <ele>27.2</ele>
        <time>2015-12-06T15:54:49.000Z</time>
      </trkpt>
      <trkpt lat="47.68547" lon="-2.74278">
        <ele>27.1</ele>
        <time>2015-12-06T15:54:50.000Z</time>
      </trkpt>
      <trkpt lat="47.68543" lon="-2.74277">
        <ele>26.9</ele>
        <time>2015-12-06T15:54:51.000Z</time>
      </trkpt>
      <trkpt lat="47.68539" lon="-2.74276">
        <ele>27</ele>
        <time>2015-12-06T15:54:52.000Z</time>
      </trkpt>
      <trkpt lat="47.68535" lon="-2.74275">
        <ele>27.2</ele>
        <time>2015-12-06T15:54:53.000Z</time>
      </trkpt>
      <trkpt lat="47.68531" lon="-2.74273">
        <ele>27.4</ele>
        <time>2015-12-06T15:54:54.000Z</time>
      </trkpt>
      <trkpt lat="47.68527" lon="-2.74272">
        <ele>27.5</ele>
        <time>2015-12-06T15:54:55.000Z</time>
      </trkpt>
      <trkpt lat="47.68524" lon="-2.7427">
        <ele>27.7</ele>
        <time>2015-12-06T15:54:56.000Z</time>
      </trkpt>
      <trkpt lat="47.68521" lon="-2.74268">
        <ele>27.9</ele>
        <time>2015-12-06T15:54:57.000Z</time>
      </trkpt>
      <trkpt lat="47.68517" lon="-2.74266">
        <ele>28.1</ele>
        <time>2015-12-06T15:54:58.000Z</time>
      </trkpt>
      <trkpt lat="47.68514" lon="-2.74265">
        <ele>28.2</ele>
        <time>2015-12-06T15:54:59.000Z</time>
      </trkpt>
      <trkpt lat="47.6851" lon="-2.74264">
        <ele>28.3</ele>
        <time>2015-12-06T15:55:00.000Z</time>
      </trkpt>
      <trkpt lat="47.68507" lon="-2.74264">
        <ele>28.4</ele>
        <time>2015-12-06T15:55:01.000Z</time>
      </trkpt>
      <trkpt lat="47.68504" lon="-2.74264">
        <ele>28.4</ele>
        <time>2015-12-06T15:55:02.000Z</time>
      </trkpt>
      <trkpt lat="47.68501" lon="-2.74264">
        <ele>28.5</ele>
        <time>2015-12-06T15:55:03.000Z</time>
      </trkpt>
      <trkpt lat="47.68498" lon="-2.74264">
        <ele>28.6</ele>
        <time>2015-12-06T15:55:04.000Z</time>
      </trkpt>
      <trkpt lat="47.68494" lon="-2.74263">
        <ele>28.6</ele>
        <time>2015-12-06T15:55:05.000Z</time>
      </trkpt>
      <trkpt lat="47.68491" lon="-2.74263">
        <ele>28.7</ele>
        <time>2015-12-06T15:55:06.000Z</time>
      </trkpt>
      <trkpt lat="47.68487" lon="-2.74262">
        <ele>28.8</ele>
        <time>2015-12-06T15:55:07.000Z</time>
      </trkpt>
      <trkpt lat="47.68483" lon="-2.74262">
        <ele>28.9</ele>
        <time>2015-12-06T15:55:08.000Z</time>
      </trkpt>
      <trkpt lat="47.6848" lon="-2.74261">
        <ele>29</ele>
        <time>2015-12-06T15:55:09.000Z</time>
      </trkpt>
      <trkpt lat="47.68476" lon="-2.7426">
        <ele>29.1</ele>
        <time>2015-12-06T15:55:10.000Z</time>
      </trkpt>
      <trkpt lat="47.68473" lon="-2.74259">
        <ele>29.1</ele>
        <time>2015-12-06T15:55:11.000Z</time>
      </trkpt>
      <trkpt lat="47.6847" lon="-2.74259">
        <ele>29.2</ele>
        <time>2015-12-06T15:55:12.000Z</time>
      </trkpt>
      <trkpt lat="47.68467" lon="-2.74258">
        <ele>29.3</ele>
        <time>2015-12-06T15:55:13.000Z</time>
      </trkpt>
      <trkpt lat="47.68464" lon="-2.74258">
        <ele>29.3</ele>
        <time>2015-12-06T15:55:14.000Z</time>
      </trkpt>
      <trkpt lat="47.68461" lon="-2.74257">
        <ele>29.4</ele>
        <time>2015-12-06T15:55:15.000Z</time>
      </trkpt>
      <trkpt lat="47.68458" lon="-2.74256">
        <ele>29.4</ele>
        <time>2015-12-06T15:55:16.000Z</time>
      </trkpt>
      <trkpt lat="47.68455" lon="-2.74255">
        <ele>29.3</ele>
        <time>2015-12-06T15:55:17.000Z</time>
      </trkpt>
      <trkpt lat="47.68452" lon="-2.74253">
        <ele>29.3</ele>
        <time>2015-12-06T15:55:18.000Z</time>
      </trkpt>
      <trkpt lat="47.68449" lon="-2.74252">
        <ele>29.2</ele>
        <time>2015-12-06T15:55:19.000Z</time>
      </trkpt>
      <trkpt lat="47.68446" lon="-2.7425">
        <ele>29.1</ele>
        <time>2015-12-06T15:55:20.000Z</time>
      </trkpt>
      <trkpt lat="47.68444" lon="-2.74249">
        <ele>29.1</ele>
        <time>2015-12-06T15:55:21.000Z</time>
      </trkpt>
      <trkpt lat="47.68443" lon="-2.74247">
        <ele>29.1</ele>
        <time>2015-12-06T15:55:22.000Z</time>
      </trkpt>
      <trkpt lat="47.68442" lon="-2.74246">
        <ele>29.1</ele>
        <time>2015-12-06T15:55:23.000Z</time>
      </trkpt>
      <trkpt lat="47.68442" lon="-2.74243">
        <ele>29.1</ele>
        <time>2015-12-06T15:55:24.000Z</time>
      </trkpt>
      <trkpt lat="47.68442" lon="-2.74239">
        <ele>29.1</ele>
        <time>2015-12-06T15:55:25.000Z</time>
      </trkpt>
      <trkpt lat="47.68443" lon="-2.74236">
        <ele>29.2</ele>
        <time>2015-12-06T15:55:26.000Z</time>
      </trkpt>
      <trkpt lat="47.68444" lon="-2.74231">
        <ele>29.3</ele>
        <time>2015-12-06T15:55:27.000Z</time>
      </trkpt>
      <trkpt lat="47.68446" lon="-2.74226">
        <ele>29.4</ele>
        <time>2015-12-06T15:55:28.000Z</time>
      </trkpt>
      <trkpt lat="47.68447" lon="-2.74221">
        <ele>29.5</ele>
        <time>2015-12-06T15:55:29.000Z</time>
      </trkpt>
      <trkpt lat="47.68449" lon="-2.74216">
        <ele>29.6</ele>
        <time>2015-12-06T15:55:30.000Z</time>
      </trkpt>
      <trkpt lat="47.68451" lon="-2.74211">
        <ele>29.7</ele>
        <time>2015-12-06T15:55:31.000Z</time>
      </trkpt>
      <trkpt lat="47.68452" lon="-2.74207">
        <ele>29.8</ele>
        <time>2015-12-06T15:55:32.000Z</time>
      </trkpt>
      <trkpt lat="47.68454" lon="-2.74203">
        <ele>29.9</ele>
        <time>2015-12-06T15:55:33.000Z</time>
      </trkpt>
      <trkpt lat="47.68456" lon="-2.74198">
        <ele>29.9</ele>
        <time>2015-12-06T15:55:34.000Z</time>
      </trkpt>
      <trkpt lat="47.68458" lon="-2.74193">
        <ele>30</ele>
        <time>2015-12-06T15:55:35.000Z</time>
      </trkpt>
      <trkpt lat="47.68459" lon="-2.74189">
        <ele>30</ele>
        <time>2015-12-06T15:55:36.000Z</time>
      </trkpt>
      <trkpt lat="47.68461" lon="-2.74184">
        <ele>30</ele>
        <time>2015-12-06T15:55:37.000Z</time>
      </trkpt>
      <trkpt lat="47.68462" lon="-2.7418">
        <ele>30</ele>
        <time>2015-12-06T15:55:38.000Z</time>
      </trkpt>
      <trkpt lat="47.68464" lon="-2.74176">
        <ele>30</ele>
        <time>2015-12-06T15:55:39.000Z</time>
      </trkpt>
      <trkpt lat="47.68466" lon="-2.74171">
        <ele>30.1</ele>
        <time>2015-12-06T15:55:40.000Z</time>
      </trkpt>
      <trkpt lat="47.68468" lon="-2.74167">
        <ele>30.1</ele>
        <time>2015-12-06T15:55:41.000Z</time>
      </trkpt>
      <trkpt lat="47.6847" lon="-2.74162">
        <ele>30.1</ele>
        <time>2015-12-06T15:55:42.000Z</time>
      </trkpt>
    </trkseg>
  </trk>
</gpx>